<?xml version="1.0" encoding="UTF-8" standalone="no" ?>
<gpx xmlns="http://www.topografix.com/GPX/1/1" xmlns:xsi="http://www.w3.org/2001/XMLSchema-instance" xsi:schemaLocation="http://www.topografix.com/GPX/1/1 http://www.topografix.com/GPX/1/1/gpx.xsd" version="1.1" creator="VisuGPX - https://www.visugpx.com">
  <metadata>
    <name>Mtp Grabels 09102020</name>
  </metadata>
  <trk>
    <name><![CDATA[Move]]></name>
    <trkseg>
      <trkpt lat="43.61157" lon="3.87743">
        <ele>53</ele>
        <time>2020-10-09T10:58:42.000Z</time>
      </trkpt>
      <trkpt lat="43.6117" lon="3.87737">
        <ele>59.599998474121</ele>
        <time>2020-10-09T10:59:25.000Z</time>
      </trkpt>
      <trkpt lat="43.61168" lon="3.87732">
        <ele>46.9</ele>
        <time>2020-10-09T10:59:33.000Z</time>
      </trkpt>
      <trkpt lat="43.61167" lon="3.87737">
        <ele>61.632</ele>
        <time>2020-10-09T10:59:51.000Z</time>
      </trkpt>
      <trkpt lat="43.61168" lon="3.8774">
        <ele>62</ele>
        <time>2020-10-09T11:00:00.000Z</time>
      </trkpt>
      <trkpt lat="43.61168" lon="3.87745">
        <ele>63.011186390202</ele>
        <time>2020-10-09T11:00:49.000Z</time>
      </trkpt>
      <trkpt lat="43.61169" lon="3.8774">
        <ele>64.002244963265</ele>
        <time>2020-10-09T11:00:58.000Z</time>
      </trkpt>
      <trkpt lat="43.61175" lon="3.87747">
        <ele>64.985993513955</ele>
        <time>2020-10-09T11:01:47.000Z</time>
      </trkpt>
      <trkpt lat="43.61177" lon="3.87747">
        <ele>64.005602235875</ele>
        <time>2020-10-09T11:01:54.000Z</time>
      </trkpt>
      <trkpt lat="43.61175" lon="3.8775">
        <ele>61.013813014253</ele>
        <time>2020-10-09T11:03:17.000Z</time>
      </trkpt>
      <trkpt lat="43.61175" lon="3.87749">
        <ele>61.980662133636</ele>
        <time>2020-10-09T11:03:24.000Z</time>
      </trkpt>
      <trkpt lat="43.61168" lon="3.8775">
        <ele>63</ele>
        <time>2020-10-09T11:03:43.000Z</time>
      </trkpt>
      <trkpt lat="43.61172" lon="3.87735">
        <ele>63</ele>
        <time>2020-10-09T11:03:51.000Z</time>
      </trkpt>
      <trkpt lat="43.61168" lon="3.87723">
        <ele>62</ele>
        <time>2020-10-09T11:04:09.000Z</time>
      </trkpt>
      <trkpt lat="43.61156" lon="3.8773">
        <ele>62</ele>
        <time>2020-10-09T11:04:17.000Z</time>
      </trkpt>
      <trkpt lat="43.61151" lon="3.87744">
        <ele>63.064</ele>
        <time>2020-10-09T11:04:28.000Z</time>
      </trkpt>
      <trkpt lat="43.61143" lon="3.87752">
        <ele>64.063872214692</ele>
        <time>2020-10-09T11:04:33.000Z</time>
      </trkpt>
      <trkpt lat="43.61145" lon="3.87739">
        <ele>67.59318547058</ele>
        <time>2020-10-09T11:04:48.000Z</time>
      </trkpt>
      <trkpt lat="43.61144" lon="3.87737">
        <ele>68.031429485714</ele>
        <time>2020-10-09T11:05:02.000Z</time>
      </trkpt>
      <trkpt lat="43.61143" lon="3.87739">
        <ele>70</ele>
        <time>2020-10-09T11:05:09.000Z</time>
      </trkpt>
      <trkpt lat="43.61142" lon="3.87741">
        <ele>70</ele>
        <time>2020-10-09T11:05:11.000Z</time>
      </trkpt>
      <trkpt lat="43.61141" lon="3.87744">
        <ele>70</ele>
        <time>2020-10-09T11:05:14.000Z</time>
      </trkpt>
      <trkpt lat="43.6114" lon="3.87746">
        <ele>70</ele>
        <time>2020-10-09T11:05:16.000Z</time>
      </trkpt>
      <trkpt lat="43.6114" lon="3.87748">
        <ele>70</ele>
        <time>2020-10-09T11:05:20.000Z</time>
      </trkpt>
      <trkpt lat="43.61139" lon="3.87751">
        <ele>70</ele>
        <time>2020-10-09T11:05:24.000Z</time>
      </trkpt>
      <trkpt lat="43.61137" lon="3.87754">
        <ele>70</ele>
        <time>2020-10-09T11:05:29.000Z</time>
      </trkpt>
      <trkpt lat="43.61136" lon="3.87755">
        <ele>70</ele>
        <time>2020-10-09T11:05:34.000Z</time>
      </trkpt>
      <trkpt lat="43.61143" lon="3.87752">
        <ele>68.976429907455</ele>
        <time>2020-10-09T11:05:49.000Z</time>
      </trkpt>
      <trkpt lat="43.61144" lon="3.8775">
        <ele>68.63972969168</ele>
        <time>2020-10-09T11:05:50.000Z</time>
      </trkpt>
      <trkpt lat="43.61146" lon="3.87749">
        <ele>68.303029475904</ele>
        <time>2020-10-09T11:05:51.000Z</time>
      </trkpt>
      <trkpt lat="43.61148" lon="3.87747">
        <ele>67.629629044353</ele>
        <time>2020-10-09T11:05:53.000Z</time>
      </trkpt>
      <trkpt lat="43.6115" lon="3.87746">
        <ele>66.002683004878</ele>
        <time>2020-10-09T11:05:58.000Z</time>
      </trkpt>
      <trkpt lat="43.61145" lon="3.87751">
        <ele>67</ele>
        <time>2020-10-09T11:06:39.000Z</time>
      </trkpt>
      <trkpt lat="43.61145" lon="3.87752">
        <ele>67</ele>
        <time>2020-10-09T11:06:42.000Z</time>
      </trkpt>
      <trkpt lat="43.6115" lon="3.87746">
        <ele>67</ele>
        <time>2020-10-09T11:07:03.000Z</time>
      </trkpt>
      <trkpt lat="43.6115" lon="3.87747">
        <ele>67</ele>
        <time>2020-10-09T11:07:08.000Z</time>
      </trkpt>
      <trkpt lat="43.61147" lon="3.8775">
        <ele>67</ele>
        <time>2020-10-09T11:07:11.000Z</time>
      </trkpt>
      <trkpt lat="43.61146" lon="3.8775">
        <ele>66.911755451328</ele>
        <time>2020-10-09T11:07:12.000Z</time>
      </trkpt>
      <trkpt lat="43.61143" lon="3.8775">
        <ele>66.806702417195</ele>
        <time>2020-10-09T11:07:13.000Z</time>
      </trkpt>
      <trkpt lat="43.61141" lon="3.87749">
        <ele>66.701649383061</ele>
        <time>2020-10-09T11:07:14.000Z</time>
      </trkpt>
      <trkpt lat="43.61139" lon="3.87746">
        <ele>66.596596348928</ele>
        <time>2020-10-09T11:07:15.000Z</time>
      </trkpt>
      <trkpt lat="43.61138" lon="3.87743">
        <ele>66.491543314795</ele>
        <time>2020-10-09T11:07:16.000Z</time>
      </trkpt>
      <trkpt lat="43.61137" lon="3.87739">
        <ele>66.386490280661</ele>
        <time>2020-10-09T11:07:17.000Z</time>
      </trkpt>
      <trkpt lat="43.61136" lon="3.87735">
        <ele>66.281437246528</ele>
        <time>2020-10-09T11:07:18.000Z</time>
      </trkpt>
      <trkpt lat="43.61134" lon="3.87732">
        <ele>66.176384212395</ele>
        <time>2020-10-09T11:07:19.000Z</time>
      </trkpt>
      <trkpt lat="43.61132" lon="3.87728">
        <ele>66.071331178261</ele>
        <time>2020-10-09T11:07:20.000Z</time>
      </trkpt>
      <trkpt lat="43.6113" lon="3.87726">
        <ele>65.909840338521</ele>
        <time>2020-10-09T11:07:21.000Z</time>
      </trkpt>
      <trkpt lat="43.61128" lon="3.87723">
        <ele>65.628967718973</ele>
        <time>2020-10-09T11:07:22.000Z</time>
      </trkpt>
      <trkpt lat="43.61125" lon="3.87721">
        <ele>65.348095099424</ele>
        <time>2020-10-09T11:07:23.000Z</time>
      </trkpt>
      <trkpt lat="43.61122" lon="3.87719">
        <ele>65.067222479876</ele>
        <time>2020-10-09T11:07:24.000Z</time>
      </trkpt>
      <trkpt lat="43.61119" lon="3.87717">
        <ele>64.786349860328</ele>
        <time>2020-10-09T11:07:25.000Z</time>
      </trkpt>
      <trkpt lat="43.61115" lon="3.87715">
        <ele>64.505477240779</ele>
        <time>2020-10-09T11:07:26.000Z</time>
      </trkpt>
      <trkpt lat="43.61112" lon="3.87713">
        <ele>64.224604621231</ele>
        <time>2020-10-09T11:07:27.000Z</time>
      </trkpt>
      <trkpt lat="43.61109" lon="3.87712">
        <ele>63.943732001682</ele>
        <time>2020-10-09T11:07:28.000Z</time>
      </trkpt>
      <trkpt lat="43.61106" lon="3.8771">
        <ele>63.662859382134</ele>
        <time>2020-10-09T11:07:29.000Z</time>
      </trkpt>
      <trkpt lat="43.61102" lon="3.87709">
        <ele>63.381986762586</ele>
        <time>2020-10-09T11:07:30.000Z</time>
      </trkpt>
      <trkpt lat="43.61099" lon="3.87707">
        <ele>63.101114143037</ele>
        <time>2020-10-09T11:07:31.000Z</time>
      </trkpt>
      <trkpt lat="43.61095" lon="3.87706">
        <ele>63</ele>
        <time>2020-10-09T11:07:32.000Z</time>
      </trkpt>
      <trkpt lat="43.61092" lon="3.87705">
        <ele>63</ele>
        <time>2020-10-09T11:07:33.000Z</time>
      </trkpt>
      <trkpt lat="43.61089" lon="3.87703">
        <ele>63</ele>
        <time>2020-10-09T11:07:34.000Z</time>
      </trkpt>
      <trkpt lat="43.61087" lon="3.87701">
        <ele>63</ele>
        <time>2020-10-09T11:07:35.000Z</time>
      </trkpt>
      <trkpt lat="43.61085" lon="3.877">
        <ele>63</ele>
        <time>2020-10-09T11:07:36.000Z</time>
      </trkpt>
      <trkpt lat="43.61083" lon="3.87698">
        <ele>63</ele>
        <time>2020-10-09T11:07:37.000Z</time>
      </trkpt>
      <trkpt lat="43.61081" lon="3.87696">
        <ele>63</ele>
        <time>2020-10-09T11:07:38.000Z</time>
      </trkpt>
      <trkpt lat="43.61079" lon="3.87694">
        <ele>63</ele>
        <time>2020-10-09T11:07:39.000Z</time>
      </trkpt>
      <trkpt lat="43.61077" lon="3.87693">
        <ele>63</ele>
        <time>2020-10-09T11:07:40.000Z</time>
      </trkpt>
      <trkpt lat="43.61075" lon="3.87691">
        <ele>62.96899968</ele>
        <time>2020-10-09T11:07:41.000Z</time>
      </trkpt>
      <trkpt lat="43.61072" lon="3.87688">
        <ele>62.86899968</ele>
        <time>2020-10-09T11:07:42.000Z</time>
      </trkpt>
      <trkpt lat="43.61069" lon="3.87684">
        <ele>62.76899968</ele>
        <time>2020-10-09T11:07:43.000Z</time>
      </trkpt>
      <trkpt lat="43.61067" lon="3.87681">
        <ele>62.66899968</ele>
        <time>2020-10-09T11:07:44.000Z</time>
      </trkpt>
      <trkpt lat="43.61065" lon="3.87677">
        <ele>62.56899968</ele>
        <time>2020-10-09T11:07:45.000Z</time>
      </trkpt>
      <trkpt lat="43.61063" lon="3.87673">
        <ele>62.46899968</ele>
        <time>2020-10-09T11:07:46.000Z</time>
      </trkpt>
      <trkpt lat="43.61061" lon="3.8767">
        <ele>62.36899968</ele>
        <time>2020-10-09T11:07:47.000Z</time>
      </trkpt>
      <trkpt lat="43.6106" lon="3.87668">
        <ele>62.26899968</ele>
        <time>2020-10-09T11:07:48.000Z</time>
      </trkpt>
      <trkpt lat="43.61057" lon="3.87665">
        <ele>62.06899968</ele>
        <time>2020-10-09T11:07:50.000Z</time>
      </trkpt>
      <trkpt lat="43.61055" lon="3.87663">
        <ele>61.937937317177</ele>
        <time>2020-10-09T11:07:51.000Z</time>
      </trkpt>
      <trkpt lat="43.61053" lon="3.87663">
        <ele>61.737737181105</ele>
        <time>2020-10-09T11:07:52.000Z</time>
      </trkpt>
      <trkpt lat="43.6105" lon="3.87662">
        <ele>61.337336908961</ele>
        <time>2020-10-09T11:07:54.000Z</time>
      </trkpt>
      <trkpt lat="43.61048" lon="3.87661">
        <ele>61.137136772889</ele>
        <time>2020-10-09T11:07:55.000Z</time>
      </trkpt>
      <trkpt lat="43.61046" lon="3.87661">
        <ele>60.936936636817</ele>
        <time>2020-10-09T11:07:56.000Z</time>
      </trkpt>
      <trkpt lat="43.61044" lon="3.8766">
        <ele>60.736736500745</ele>
        <time>2020-10-09T11:07:57.000Z</time>
      </trkpt>
      <trkpt lat="43.61041" lon="3.87658">
        <ele>60.536536364673</ele>
        <time>2020-10-09T11:07:58.000Z</time>
      </trkpt>
      <trkpt lat="43.61039" lon="3.87656">
        <ele>60.336336228601</ele>
        <time>2020-10-09T11:07:59.000Z</time>
      </trkpt>
      <trkpt lat="43.61036" lon="3.87653">
        <ele>60.136136092529</ele>
        <time>2020-10-09T11:08:00.000Z</time>
      </trkpt>
      <trkpt lat="43.61033" lon="3.8765">
        <ele>60.064</ele>
        <time>2020-10-09T11:08:01.000Z</time>
      </trkpt>
      <trkpt lat="43.61031" lon="3.87647">
        <ele>60.264</ele>
        <time>2020-10-09T11:08:02.000Z</time>
      </trkpt>
      <trkpt lat="43.61029" lon="3.87644">
        <ele>60.464</ele>
        <time>2020-10-09T11:08:03.000Z</time>
      </trkpt>
      <trkpt lat="43.61027" lon="3.87642">
        <ele>60.664</ele>
        <time>2020-10-09T11:08:04.000Z</time>
      </trkpt>
      <trkpt lat="43.61026" lon="3.8764">
        <ele>60.864</ele>
        <time>2020-10-09T11:08:05.000Z</time>
      </trkpt>
      <trkpt lat="43.61024" lon="3.87638">
        <ele>61.064</ele>
        <time>2020-10-09T11:08:06.000Z</time>
      </trkpt>
      <trkpt lat="43.61023" lon="3.87636">
        <ele>61.264</ele>
        <time>2020-10-09T11:08:07.000Z</time>
      </trkpt>
      <trkpt lat="43.61021" lon="3.87632">
        <ele>61.664</ele>
        <time>2020-10-09T11:08:09.000Z</time>
      </trkpt>
      <trkpt lat="43.61019" lon="3.8763">
        <ele>61.864</ele>
        <time>2020-10-09T11:08:10.000Z</time>
      </trkpt>
      <trkpt lat="43.61018" lon="3.87628">
        <ele>61.936</ele>
        <time>2020-10-09T11:08:11.000Z</time>
      </trkpt>
      <trkpt lat="43.61016" lon="3.87626">
        <ele>61.736</ele>
        <time>2020-10-09T11:08:12.000Z</time>
      </trkpt>
      <trkpt lat="43.61014" lon="3.87623">
        <ele>61.536</ele>
        <time>2020-10-09T11:08:13.000Z</time>
      </trkpt>
      <trkpt lat="43.61012" lon="3.8762">
        <ele>61.336</ele>
        <time>2020-10-09T11:08:14.000Z</time>
      </trkpt>
      <trkpt lat="43.6101" lon="3.87616">
        <ele>61.136</ele>
        <time>2020-10-09T11:08:15.000Z</time>
      </trkpt>
      <trkpt lat="43.61008" lon="3.87613">
        <ele>60.936</ele>
        <time>2020-10-09T11:08:16.000Z</time>
      </trkpt>
      <trkpt lat="43.61006" lon="3.8761">
        <ele>60.736</ele>
        <time>2020-10-09T11:08:17.000Z</time>
      </trkpt>
      <trkpt lat="43.61004" lon="3.87607">
        <ele>60.536</ele>
        <time>2020-10-09T11:08:18.000Z</time>
      </trkpt>
      <trkpt lat="43.61002" lon="3.87603">
        <ele>60.336</ele>
        <time>2020-10-09T11:08:19.000Z</time>
      </trkpt>
      <trkpt lat="43.60999" lon="3.876">
        <ele>60.136</ele>
        <time>2020-10-09T11:08:20.000Z</time>
      </trkpt>
      <trkpt lat="43.60997" lon="3.87597">
        <ele>60</ele>
        <time>2020-10-09T11:08:21.000Z</time>
      </trkpt>
      <trkpt lat="43.60995" lon="3.87593">
        <ele>60</ele>
        <time>2020-10-09T11:08:22.000Z</time>
      </trkpt>
      <trkpt lat="43.60992" lon="3.87589">
        <ele>60</ele>
        <time>2020-10-09T11:08:23.000Z</time>
      </trkpt>
      <trkpt lat="43.6099" lon="3.87585">
        <ele>60</ele>
        <time>2020-10-09T11:08:24.000Z</time>
      </trkpt>
      <trkpt lat="43.60988" lon="3.87582">
        <ele>60</ele>
        <time>2020-10-09T11:08:25.000Z</time>
      </trkpt>
      <trkpt lat="43.60986" lon="3.87578">
        <ele>60</ele>
        <time>2020-10-09T11:08:26.000Z</time>
      </trkpt>
      <trkpt lat="43.60984" lon="3.87575">
        <ele>60</ele>
        <time>2020-10-09T11:08:27.000Z</time>
      </trkpt>
      <trkpt lat="43.60982" lon="3.87573">
        <ele>60</ele>
        <time>2020-10-09T11:08:28.000Z</time>
      </trkpt>
      <trkpt lat="43.6098" lon="3.8757">
        <ele>60</ele>
        <time>2020-10-09T11:08:29.000Z</time>
      </trkpt>
      <trkpt lat="43.60979" lon="3.87568">
        <ele>60</ele>
        <time>2020-10-09T11:08:30.000Z</time>
      </trkpt>
      <trkpt lat="43.60977" lon="3.87566">
        <ele>60</ele>
        <time>2020-10-09T11:08:31.000Z</time>
      </trkpt>
      <trkpt lat="43.60975" lon="3.87563">
        <ele>60</ele>
        <time>2020-10-09T11:08:32.000Z</time>
      </trkpt>
      <trkpt lat="43.60973" lon="3.87559">
        <ele>60</ele>
        <time>2020-10-09T11:08:33.000Z</time>
      </trkpt>
      <trkpt lat="43.60971" lon="3.87554">
        <ele>60</ele>
        <time>2020-10-09T11:08:34.000Z</time>
      </trkpt>
      <trkpt lat="43.60969" lon="3.8755">
        <ele>60</ele>
        <time>2020-10-09T11:08:35.000Z</time>
      </trkpt>
      <trkpt lat="43.60967" lon="3.87545">
        <ele>60</ele>
        <time>2020-10-09T11:08:36.000Z</time>
      </trkpt>
      <trkpt lat="43.60965" lon="3.87541">
        <ele>60</ele>
        <time>2020-10-09T11:08:37.000Z</time>
      </trkpt>
      <trkpt lat="43.60963" lon="3.87537">
        <ele>60</ele>
        <time>2020-10-09T11:08:38.000Z</time>
      </trkpt>
      <trkpt lat="43.60962" lon="3.87534">
        <ele>60</ele>
        <time>2020-10-09T11:08:39.000Z</time>
      </trkpt>
      <trkpt lat="43.6096" lon="3.87531">
        <ele>60</ele>
        <time>2020-10-09T11:08:40.000Z</time>
      </trkpt>
      <trkpt lat="43.60958" lon="3.87527">
        <ele>59.968</ele>
        <time>2020-10-09T11:08:41.000Z</time>
      </trkpt>
      <trkpt lat="43.60957" lon="3.87523">
        <ele>59.868</ele>
        <time>2020-10-09T11:08:42.000Z</time>
      </trkpt>
      <trkpt lat="43.60956" lon="3.8752">
        <ele>59.768</ele>
        <time>2020-10-09T11:08:43.000Z</time>
      </trkpt>
      <trkpt lat="43.60954" lon="3.87517">
        <ele>59.668</ele>
        <time>2020-10-09T11:08:44.000Z</time>
      </trkpt>
      <trkpt lat="43.60953" lon="3.87514">
        <ele>59.568</ele>
        <time>2020-10-09T11:08:45.000Z</time>
      </trkpt>
      <trkpt lat="43.60951" lon="3.87511">
        <ele>59.468</ele>
        <time>2020-10-09T11:08:46.000Z</time>
      </trkpt>
      <trkpt lat="43.60949" lon="3.87508">
        <ele>59.368</ele>
        <time>2020-10-09T11:08:47.000Z</time>
      </trkpt>
      <trkpt lat="43.60947" lon="3.87505">
        <ele>59.268</ele>
        <time>2020-10-09T11:08:48.000Z</time>
      </trkpt>
      <trkpt lat="43.60945" lon="3.87502">
        <ele>59.168</ele>
        <time>2020-10-09T11:08:49.000Z</time>
      </trkpt>
      <trkpt lat="43.60943" lon="3.87501">
        <ele>59.068</ele>
        <time>2020-10-09T11:08:50.000Z</time>
      </trkpt>
      <trkpt lat="43.60941" lon="3.87498">
        <ele>58.605184572623</ele>
        <time>2020-10-09T11:08:52.000Z</time>
      </trkpt>
      <trkpt lat="43.60939" lon="3.87495">
        <ele>58.006979379628</ele>
        <time>2020-10-09T11:08:54.000Z</time>
      </trkpt>
      <trkpt lat="43.60938" lon="3.87492">
        <ele>57.70787678313</ele>
        <time>2020-10-09T11:08:55.000Z</time>
      </trkpt>
      <trkpt lat="43.60935" lon="3.87489">
        <ele>57.408774186632</ele>
        <time>2020-10-09T11:08:56.000Z</time>
      </trkpt>
      <trkpt lat="43.60932" lon="3.87484">
        <ele>57.109671590135</ele>
        <time>2020-10-09T11:08:57.000Z</time>
      </trkpt>
      <trkpt lat="43.60929" lon="3.87479">
        <ele>56.810568993637</ele>
        <time>2020-10-09T11:08:58.000Z</time>
      </trkpt>
      <trkpt lat="43.60926" lon="3.87472">
        <ele>56.511466397139</ele>
        <time>2020-10-09T11:08:59.000Z</time>
      </trkpt>
      <trkpt lat="43.60923" lon="3.87466">
        <ele>56.212363800642</ele>
        <time>2020-10-09T11:09:00.000Z</time>
      </trkpt>
      <trkpt lat="43.6092" lon="3.8746">
        <ele>55.912739149525</ele>
        <time>2020-10-09T11:09:01.000Z</time>
      </trkpt>
      <trkpt lat="43.60917" lon="3.87453">
        <ele>55.611836344822</ele>
        <time>2020-10-09T11:09:02.000Z</time>
      </trkpt>
      <trkpt lat="43.60914" lon="3.87446">
        <ele>55.310933540119</ele>
        <time>2020-10-09T11:09:03.000Z</time>
      </trkpt>
      <trkpt lat="43.6091" lon="3.87439">
        <ele>55.010030735416</ele>
        <time>2020-10-09T11:09:04.000Z</time>
      </trkpt>
      <trkpt lat="43.60906" lon="3.87431">
        <ele>54.709127930713</ele>
        <time>2020-10-09T11:09:05.000Z</time>
      </trkpt>
      <trkpt lat="43.60903" lon="3.87424">
        <ele>54.40822512601</ele>
        <time>2020-10-09T11:09:06.000Z</time>
      </trkpt>
      <trkpt lat="43.609" lon="3.87418">
        <ele>54.107322321307</ele>
        <time>2020-10-09T11:09:07.000Z</time>
      </trkpt>
      <trkpt lat="43.60898" lon="3.87412">
        <ele>53.806419516604</ele>
        <time>2020-10-09T11:09:08.000Z</time>
      </trkpt>
      <trkpt lat="43.60896" lon="3.87407">
        <ele>53.505516711901</ele>
        <time>2020-10-09T11:09:09.000Z</time>
      </trkpt>
      <trkpt lat="43.60894" lon="3.87402">
        <ele>53.204613907198</ele>
        <time>2020-10-09T11:09:10.000Z</time>
      </trkpt>
      <trkpt lat="43.60891" lon="3.87397">
        <ele>52.936</ele>
        <time>2020-10-09T11:09:11.000Z</time>
      </trkpt>
      <trkpt lat="43.60889" lon="3.87392">
        <ele>52.736</ele>
        <time>2020-10-09T11:09:12.000Z</time>
      </trkpt>
      <trkpt lat="43.60888" lon="3.87387">
        <ele>52.536</ele>
        <time>2020-10-09T11:09:13.000Z</time>
      </trkpt>
      <trkpt lat="43.60886" lon="3.87381">
        <ele>52.336</ele>
        <time>2020-10-09T11:09:14.000Z</time>
      </trkpt>
      <trkpt lat="43.60884" lon="3.87374">
        <ele>52.136</ele>
        <time>2020-10-09T11:09:15.000Z</time>
      </trkpt>
      <trkpt lat="43.60882" lon="3.87369">
        <ele>51.936</ele>
        <time>2020-10-09T11:09:16.000Z</time>
      </trkpt>
      <trkpt lat="43.60879" lon="3.87363">
        <ele>51.736</ele>
        <time>2020-10-09T11:09:17.000Z</time>
      </trkpt>
      <trkpt lat="43.60876" lon="3.87357">
        <ele>51.536</ele>
        <time>2020-10-09T11:09:18.000Z</time>
      </trkpt>
      <trkpt lat="43.60873" lon="3.87351">
        <ele>51.336</ele>
        <time>2020-10-09T11:09:19.000Z</time>
      </trkpt>
      <trkpt lat="43.60871" lon="3.87346">
        <ele>51.136</ele>
        <time>2020-10-09T11:09:20.000Z</time>
      </trkpt>
      <trkpt lat="43.60868" lon="3.87341">
        <ele>51</ele>
        <time>2020-10-09T11:09:21.000Z</time>
      </trkpt>
      <trkpt lat="43.60865" lon="3.87335">
        <ele>51</ele>
        <time>2020-10-09T11:09:22.000Z</time>
      </trkpt>
      <trkpt lat="43.60861" lon="3.87329">
        <ele>51</ele>
        <time>2020-10-09T11:09:23.000Z</time>
      </trkpt>
      <trkpt lat="43.60859" lon="3.87323">
        <ele>51</ele>
        <time>2020-10-09T11:09:24.000Z</time>
      </trkpt>
      <trkpt lat="43.60858" lon="3.87318">
        <ele>51</ele>
        <time>2020-10-09T11:09:25.000Z</time>
      </trkpt>
      <trkpt lat="43.60857" lon="3.87313">
        <ele>51</ele>
        <time>2020-10-09T11:09:26.000Z</time>
      </trkpt>
      <trkpt lat="43.60857" lon="3.8731">
        <ele>51</ele>
        <time>2020-10-09T11:09:27.000Z</time>
      </trkpt>
      <trkpt lat="43.60856" lon="3.87307">
        <ele>51</ele>
        <time>2020-10-09T11:09:28.000Z</time>
      </trkpt>
      <trkpt lat="43.60854" lon="3.87305">
        <ele>51</ele>
        <time>2020-10-09T11:09:29.000Z</time>
      </trkpt>
      <trkpt lat="43.60853" lon="3.87302">
        <ele>51</ele>
        <time>2020-10-09T11:09:30.000Z</time>
      </trkpt>
      <trkpt lat="43.60852" lon="3.87298">
        <ele>50.968285421062</ele>
        <time>2020-10-09T11:09:31.000Z</time>
      </trkpt>
      <trkpt lat="43.60851" lon="3.87294">
        <ele>50.86917736188</ele>
        <time>2020-10-09T11:09:32.000Z</time>
      </trkpt>
      <trkpt lat="43.6085" lon="3.87291">
        <ele>50.770069302698</ele>
        <time>2020-10-09T11:09:33.000Z</time>
      </trkpt>
      <trkpt lat="43.60849" lon="3.87286">
        <ele>50.670961243516</ele>
        <time>2020-10-09T11:09:34.000Z</time>
      </trkpt>
      <trkpt lat="43.60848" lon="3.87282">
        <ele>50.571853184334</ele>
        <time>2020-10-09T11:09:35.000Z</time>
      </trkpt>
      <trkpt lat="43.60847" lon="3.87278">
        <ele>50.472745125152</ele>
        <time>2020-10-09T11:09:36.000Z</time>
      </trkpt>
      <trkpt lat="43.60847" lon="3.87274">
        <ele>50.37363706597</ele>
        <time>2020-10-09T11:09:37.000Z</time>
      </trkpt>
      <trkpt lat="43.60847" lon="3.87271">
        <ele>50.274529006788</ele>
        <time>2020-10-09T11:09:38.000Z</time>
      </trkpt>
      <trkpt lat="43.60847" lon="3.87267">
        <ele>50.175420947606</ele>
        <time>2020-10-09T11:09:39.000Z</time>
      </trkpt>
      <trkpt lat="43.60846" lon="3.87263">
        <ele>50.076312888424</ele>
        <time>2020-10-09T11:09:40.000Z</time>
      </trkpt>
      <trkpt lat="43.60846" lon="3.8726">
        <ele>50.023209195331</ele>
        <time>2020-10-09T11:09:41.000Z</time>
      </trkpt>
      <trkpt lat="43.60845" lon="3.87257">
        <ele>50.124117336309</ele>
        <time>2020-10-09T11:09:42.000Z</time>
      </trkpt>
      <trkpt lat="43.60844" lon="3.87254">
        <ele>50.225025477287</ele>
        <time>2020-10-09T11:09:43.000Z</time>
      </trkpt>
      <trkpt lat="43.60843" lon="3.8725">
        <ele>50.325933618266</ele>
        <time>2020-10-09T11:09:44.000Z</time>
      </trkpt>
      <trkpt lat="43.60842" lon="3.87246">
        <ele>50.426841759244</ele>
        <time>2020-10-09T11:09:45.000Z</time>
      </trkpt>
      <trkpt lat="43.60842" lon="3.87243">
        <ele>50.527749900222</ele>
        <time>2020-10-09T11:09:46.000Z</time>
      </trkpt>
      <trkpt lat="43.6084" lon="3.87239">
        <ele>50.6286580412</ele>
        <time>2020-10-09T11:09:47.000Z</time>
      </trkpt>
      <trkpt lat="43.60839" lon="3.87236">
        <ele>50.729566182178</ele>
        <time>2020-10-09T11:09:48.000Z</time>
      </trkpt>
      <trkpt lat="43.60839" lon="3.87233">
        <ele>50.830474323157</ele>
        <time>2020-10-09T11:09:49.000Z</time>
      </trkpt>
      <trkpt lat="43.60838" lon="3.8723">
        <ele>50.931382464135</ele>
        <time>2020-10-09T11:09:50.000Z</time>
      </trkpt>
      <trkpt lat="43.60837" lon="3.87227">
        <ele>50.868131825976</ele>
        <time>2020-10-09T11:09:52.000Z</time>
      </trkpt>
      <trkpt lat="43.60835" lon="3.87222">
        <ele>50.668331562304</ele>
        <time>2020-10-09T11:09:54.000Z</time>
      </trkpt>
      <trkpt lat="43.60834" lon="3.8722">
        <ele>50.568431430468</ele>
        <time>2020-10-09T11:09:55.000Z</time>
      </trkpt>
      <trkpt lat="43.60833" lon="3.87217">
        <ele>50.468531298631</ele>
        <time>2020-10-09T11:09:56.000Z</time>
      </trkpt>
      <trkpt lat="43.60832" lon="3.87213">
        <ele>50.368631166795</ele>
        <time>2020-10-09T11:09:57.000Z</time>
      </trkpt>
      <trkpt lat="43.60831" lon="3.87209">
        <ele>50.268731034959</ele>
        <time>2020-10-09T11:09:58.000Z</time>
      </trkpt>
      <trkpt lat="43.60831" lon="3.87205">
        <ele>50.168830903123</ele>
        <time>2020-10-09T11:09:59.000Z</time>
      </trkpt>
      <trkpt lat="43.6083" lon="3.87201">
        <ele>50.068930771287</ele>
        <time>2020-10-09T11:10:00.000Z</time>
      </trkpt>
      <trkpt lat="43.60829" lon="3.87197">
        <ele>50</ele>
        <time>2020-10-09T11:10:01.000Z</time>
      </trkpt>
      <trkpt lat="43.60829" lon="3.87192">
        <ele>50</ele>
        <time>2020-10-09T11:10:02.000Z</time>
      </trkpt>
      <trkpt lat="43.60829" lon="3.87186">
        <ele>50</ele>
        <time>2020-10-09T11:10:03.000Z</time>
      </trkpt>
      <trkpt lat="43.60829" lon="3.8718">
        <ele>50</ele>
        <time>2020-10-09T11:10:04.000Z</time>
      </trkpt>
      <trkpt lat="43.6083" lon="3.87175">
        <ele>50</ele>
        <time>2020-10-09T11:10:05.000Z</time>
      </trkpt>
      <trkpt lat="43.6083" lon="3.87169">
        <ele>50</ele>
        <time>2020-10-09T11:10:06.000Z</time>
      </trkpt>
      <trkpt lat="43.6083" lon="3.87164">
        <ele>50</ele>
        <time>2020-10-09T11:10:07.000Z</time>
      </trkpt>
      <trkpt lat="43.6083" lon="3.87159">
        <ele>50</ele>
        <time>2020-10-09T11:10:08.000Z</time>
      </trkpt>
      <trkpt lat="43.60831" lon="3.87154">
        <ele>50</ele>
        <time>2020-10-09T11:10:09.000Z</time>
      </trkpt>
      <trkpt lat="43.60831" lon="3.8715">
        <ele>50</ele>
        <time>2020-10-09T11:10:10.000Z</time>
      </trkpt>
      <trkpt lat="43.60832" lon="3.87146">
        <ele>50</ele>
        <time>2020-10-09T11:10:11.000Z</time>
      </trkpt>
      <trkpt lat="43.60832" lon="3.87143">
        <ele>50</ele>
        <time>2020-10-09T11:10:12.000Z</time>
      </trkpt>
      <trkpt lat="43.60832" lon="3.87139">
        <ele>50</ele>
        <time>2020-10-09T11:10:13.000Z</time>
      </trkpt>
      <trkpt lat="43.60832" lon="3.87135">
        <ele>50</ele>
        <time>2020-10-09T11:10:14.000Z</time>
      </trkpt>
      <trkpt lat="43.60832" lon="3.8713">
        <ele>50</ele>
        <time>2020-10-09T11:10:15.000Z</time>
      </trkpt>
      <trkpt lat="43.60832" lon="3.87126">
        <ele>50</ele>
        <time>2020-10-09T11:10:16.000Z</time>
      </trkpt>
      <trkpt lat="43.60833" lon="3.87121">
        <ele>50</ele>
        <time>2020-10-09T11:10:17.000Z</time>
      </trkpt>
      <trkpt lat="43.60834" lon="3.87115">
        <ele>50</ele>
        <time>2020-10-09T11:10:18.000Z</time>
      </trkpt>
      <trkpt lat="43.60834" lon="3.8711">
        <ele>50</ele>
        <time>2020-10-09T11:10:19.000Z</time>
      </trkpt>
      <trkpt lat="43.60834" lon="3.87104">
        <ele>50</ele>
        <time>2020-10-09T11:10:20.000Z</time>
      </trkpt>
      <trkpt lat="43.60834" lon="3.87098">
        <ele>50.032</ele>
        <time>2020-10-09T11:10:21.000Z</time>
      </trkpt>
      <trkpt lat="43.60835" lon="3.87092">
        <ele>50.132</ele>
        <time>2020-10-09T11:10:22.000Z</time>
      </trkpt>
      <trkpt lat="43.60836" lon="3.87086">
        <ele>50.232</ele>
        <time>2020-10-09T11:10:23.000Z</time>
      </trkpt>
      <trkpt lat="43.60837" lon="3.8708">
        <ele>50.332</ele>
        <time>2020-10-09T11:10:24.000Z</time>
      </trkpt>
      <trkpt lat="43.60838" lon="3.87074">
        <ele>50.432</ele>
        <time>2020-10-09T11:10:25.000Z</time>
      </trkpt>
      <trkpt lat="43.60838" lon="3.87069">
        <ele>50.532</ele>
        <time>2020-10-09T11:10:26.000Z</time>
      </trkpt>
      <trkpt lat="43.60838" lon="3.87063">
        <ele>50.632</ele>
        <time>2020-10-09T11:10:27.000Z</time>
      </trkpt>
      <trkpt lat="43.60838" lon="3.87057">
        <ele>50.732</ele>
        <time>2020-10-09T11:10:28.000Z</time>
      </trkpt>
      <trkpt lat="43.60838" lon="3.87052">
        <ele>50.832</ele>
        <time>2020-10-09T11:10:29.000Z</time>
      </trkpt>
      <trkpt lat="43.60838" lon="3.87046">
        <ele>50.932</ele>
        <time>2020-10-09T11:10:30.000Z</time>
      </trkpt>
      <trkpt lat="43.60838" lon="3.87041">
        <ele>50.968534896688</ele>
        <time>2020-10-09T11:10:31.000Z</time>
      </trkpt>
      <trkpt lat="43.60839" lon="3.87035">
        <ele>50.870206448836</ele>
        <time>2020-10-09T11:10:32.000Z</time>
      </trkpt>
      <trkpt lat="43.60841" lon="3.87029">
        <ele>50.771878000984</ele>
        <time>2020-10-09T11:10:33.000Z</time>
      </trkpt>
      <trkpt lat="43.60842" lon="3.87024">
        <ele>50.673549553133</ele>
        <time>2020-10-09T11:10:34.000Z</time>
      </trkpt>
      <trkpt lat="43.60843" lon="3.87018">
        <ele>50.575221105281</ele>
        <time>2020-10-09T11:10:35.000Z</time>
      </trkpt>
      <trkpt lat="43.60843" lon="3.87013">
        <ele>50.476892657429</ele>
        <time>2020-10-09T11:10:36.000Z</time>
      </trkpt>
      <trkpt lat="43.60844" lon="3.87008">
        <ele>50.378564209578</ele>
        <time>2020-10-09T11:10:37.000Z</time>
      </trkpt>
      <trkpt lat="43.60844" lon="3.87004">
        <ele>50.280235761726</ele>
        <time>2020-10-09T11:10:38.000Z</time>
      </trkpt>
      <trkpt lat="43.60845" lon="3.87">
        <ele>50.181907313874</ele>
        <time>2020-10-09T11:10:39.000Z</time>
      </trkpt>
      <trkpt lat="43.60845" lon="3.86997">
        <ele>50.083578866023</ele>
        <time>2020-10-09T11:10:40.000Z</time>
      </trkpt>
      <trkpt lat="43.60846" lon="3.86994">
        <ele>50.015259730536</ele>
        <time>2020-10-09T11:10:41.000Z</time>
      </trkpt>
      <trkpt lat="43.60846" lon="3.86991">
        <ele>50.116989097216</ele>
        <time>2020-10-09T11:10:42.000Z</time>
      </trkpt>
      <trkpt lat="43.60847" lon="3.86987">
        <ele>50.218718463896</ele>
        <time>2020-10-09T11:10:43.000Z</time>
      </trkpt>
      <trkpt lat="43.60847" lon="3.86983">
        <ele>50.320447830576</ele>
        <time>2020-10-09T11:10:44.000Z</time>
      </trkpt>
      <trkpt lat="43.60847" lon="3.86978">
        <ele>50.422177197257</ele>
        <time>2020-10-09T11:10:45.000Z</time>
      </trkpt>
      <trkpt lat="43.60847" lon="3.86973">
        <ele>50.523906563937</ele>
        <time>2020-10-09T11:10:46.000Z</time>
      </trkpt>
      <trkpt lat="43.60847" lon="3.86968">
        <ele>50.625635930617</ele>
        <time>2020-10-09T11:10:47.000Z</time>
      </trkpt>
      <trkpt lat="43.60847" lon="3.86963">
        <ele>50.727365297297</ele>
        <time>2020-10-09T11:10:48.000Z</time>
      </trkpt>
      <trkpt lat="43.60847" lon="3.86958">
        <ele>50.829094663977</ele>
        <time>2020-10-09T11:10:49.000Z</time>
      </trkpt>
      <trkpt lat="43.60847" lon="3.86952">
        <ele>50.930824030657</ele>
        <time>2020-10-09T11:10:50.000Z</time>
      </trkpt>
      <trkpt lat="43.60847" lon="3.86947">
        <ele>51</ele>
        <time>2020-10-09T11:10:51.000Z</time>
      </trkpt>
      <trkpt lat="43.60848" lon="3.86943">
        <ele>51</ele>
        <time>2020-10-09T11:10:52.000Z</time>
      </trkpt>
      <trkpt lat="43.60849" lon="3.86939">
        <ele>51</ele>
        <time>2020-10-09T11:10:53.000Z</time>
      </trkpt>
      <trkpt lat="43.60851" lon="3.86934">
        <ele>51</ele>
        <time>2020-10-09T11:10:54.000Z</time>
      </trkpt>
      <trkpt lat="43.60852" lon="3.86929">
        <ele>51</ele>
        <time>2020-10-09T11:10:55.000Z</time>
      </trkpt>
      <trkpt lat="43.60853" lon="3.86923">
        <ele>51</ele>
        <time>2020-10-09T11:10:56.000Z</time>
      </trkpt>
      <trkpt lat="43.60854" lon="3.86918">
        <ele>51</ele>
        <time>2020-10-09T11:10:57.000Z</time>
      </trkpt>
      <trkpt lat="43.60855" lon="3.86913">
        <ele>51</ele>
        <time>2020-10-09T11:10:58.000Z</time>
      </trkpt>
      <trkpt lat="43.60855" lon="3.86908">
        <ele>51</ele>
        <time>2020-10-09T11:10:59.000Z</time>
      </trkpt>
      <trkpt lat="43.60856" lon="3.86902">
        <ele>51</ele>
        <time>2020-10-09T11:11:00.000Z</time>
      </trkpt>
      <trkpt lat="43.60856" lon="3.86897">
        <ele>51</ele>
        <time>2020-10-09T11:11:01.000Z</time>
      </trkpt>
      <trkpt lat="43.60857" lon="3.86893">
        <ele>51</ele>
        <time>2020-10-09T11:11:02.000Z</time>
      </trkpt>
      <trkpt lat="43.60857" lon="3.86888">
        <ele>51</ele>
        <time>2020-10-09T11:11:03.000Z</time>
      </trkpt>
      <trkpt lat="43.60858" lon="3.86883">
        <ele>51</ele>
        <time>2020-10-09T11:11:04.000Z</time>
      </trkpt>
      <trkpt lat="43.60859" lon="3.86879">
        <ele>51</ele>
        <time>2020-10-09T11:11:05.000Z</time>
      </trkpt>
      <trkpt lat="43.6086" lon="3.86875">
        <ele>51</ele>
        <time>2020-10-09T11:11:06.000Z</time>
      </trkpt>
      <trkpt lat="43.60861" lon="3.86871">
        <ele>51</ele>
        <time>2020-10-09T11:11:07.000Z</time>
      </trkpt>
      <trkpt lat="43.60861" lon="3.86867">
        <ele>51</ele>
        <time>2020-10-09T11:11:08.000Z</time>
      </trkpt>
      <trkpt lat="43.60862" lon="3.86863">
        <ele>51</ele>
        <time>2020-10-09T11:11:09.000Z</time>
      </trkpt>
      <trkpt lat="43.60863" lon="3.86858">
        <ele>51</ele>
        <time>2020-10-09T11:11:10.000Z</time>
      </trkpt>
      <trkpt lat="43.60864" lon="3.86854">
        <ele>50.968968658589</ele>
        <time>2020-10-09T11:11:11.000Z</time>
      </trkpt>
      <trkpt lat="43.60864" lon="3.86849">
        <ele>50.868868590553</ele>
        <time>2020-10-09T11:11:12.000Z</time>
      </trkpt>
      <trkpt lat="43.60865" lon="3.86845">
        <ele>50.768768522517</ele>
        <time>2020-10-09T11:11:13.000Z</time>
      </trkpt>
      <trkpt lat="43.60866" lon="3.86841">
        <ele>50.668668454481</ele>
        <time>2020-10-09T11:11:14.000Z</time>
      </trkpt>
      <trkpt lat="43.60867" lon="3.86836">
        <ele>50.568568386445</ele>
        <time>2020-10-09T11:11:15.000Z</time>
      </trkpt>
      <trkpt lat="43.60867" lon="3.86832">
        <ele>50.468468318408</ele>
        <time>2020-10-09T11:11:16.000Z</time>
      </trkpt>
      <trkpt lat="43.60868" lon="3.86828">
        <ele>50.368368250372</ele>
        <time>2020-10-09T11:11:17.000Z</time>
      </trkpt>
      <trkpt lat="43.60868" lon="3.86824">
        <ele>50.268268182336</ele>
        <time>2020-10-09T11:11:18.000Z</time>
      </trkpt>
      <trkpt lat="43.60869" lon="3.8682">
        <ele>50.1681681143</ele>
        <time>2020-10-09T11:11:19.000Z</time>
      </trkpt>
      <trkpt lat="43.6087" lon="3.86816">
        <ele>50.068068046265</ele>
        <time>2020-10-09T11:11:20.000Z</time>
      </trkpt>
      <trkpt lat="43.60871" lon="3.86812">
        <ele>49.936</ele>
        <time>2020-10-09T11:11:21.000Z</time>
      </trkpt>
      <trkpt lat="43.60872" lon="3.86808">
        <ele>49.736</ele>
        <time>2020-10-09T11:11:22.000Z</time>
      </trkpt>
      <trkpt lat="43.60874" lon="3.86804">
        <ele>49.536</ele>
        <time>2020-10-09T11:11:23.000Z</time>
      </trkpt>
      <trkpt lat="43.60875" lon="3.86801">
        <ele>49.336</ele>
        <time>2020-10-09T11:11:24.000Z</time>
      </trkpt>
      <trkpt lat="43.60876" lon="3.86798">
        <ele>49.136</ele>
        <time>2020-10-09T11:11:25.000Z</time>
      </trkpt>
      <trkpt lat="43.60877" lon="3.86795">
        <ele>48.936</ele>
        <time>2020-10-09T11:11:26.000Z</time>
      </trkpt>
      <trkpt lat="43.60878" lon="3.86792">
        <ele>48.736</ele>
        <time>2020-10-09T11:11:27.000Z</time>
      </trkpt>
      <trkpt lat="43.60879" lon="3.86789">
        <ele>48.536</ele>
        <time>2020-10-09T11:11:28.000Z</time>
      </trkpt>
      <trkpt lat="43.60879" lon="3.86786">
        <ele>48.336</ele>
        <time>2020-10-09T11:11:29.000Z</time>
      </trkpt>
      <trkpt lat="43.6088" lon="3.86782">
        <ele>48.136</ele>
        <time>2020-10-09T11:11:30.000Z</time>
      </trkpt>
      <trkpt lat="43.6088" lon="3.86778">
        <ele>47.936821302846</ele>
        <time>2020-10-09T11:11:31.000Z</time>
      </trkpt>
      <trkpt lat="43.60881" lon="3.86774">
        <ele>47.739387874239</ele>
        <time>2020-10-09T11:11:32.000Z</time>
      </trkpt>
      <trkpt lat="43.60882" lon="3.8677">
        <ele>47.541954445632</ele>
        <time>2020-10-09T11:11:33.000Z</time>
      </trkpt>
      <trkpt lat="43.60883" lon="3.86765">
        <ele>47.344521017025</ele>
        <time>2020-10-09T11:11:34.000Z</time>
      </trkpt>
      <trkpt lat="43.60884" lon="3.86761">
        <ele>47.147087588419</ele>
        <time>2020-10-09T11:11:35.000Z</time>
      </trkpt>
      <trkpt lat="43.60885" lon="3.86756">
        <ele>46.949654159812</ele>
        <time>2020-10-09T11:11:36.000Z</time>
      </trkpt>
      <trkpt lat="43.60887" lon="3.86752">
        <ele>46.752220731205</ele>
        <time>2020-10-09T11:11:37.000Z</time>
      </trkpt>
      <trkpt lat="43.60889" lon="3.86748">
        <ele>46.554787302598</ele>
        <time>2020-10-09T11:11:38.000Z</time>
      </trkpt>
      <trkpt lat="43.60892" lon="3.86744">
        <ele>46.357353873991</ele>
        <time>2020-10-09T11:11:39.000Z</time>
      </trkpt>
      <trkpt lat="43.60894" lon="3.86741">
        <ele>46.159920445385</ele>
        <time>2020-10-09T11:11:40.000Z</time>
      </trkpt>
      <trkpt lat="43.60896" lon="3.86736">
        <ele>45.980749428734</ele>
        <time>2020-10-09T11:11:41.000Z</time>
      </trkpt>
      <trkpt lat="43.60898" lon="3.86732">
        <ele>45.879432338989</ele>
        <time>2020-10-09T11:11:42.000Z</time>
      </trkpt>
      <trkpt lat="43.60899" lon="3.86728">
        <ele>45.778115249243</ele>
        <time>2020-10-09T11:11:43.000Z</time>
      </trkpt>
      <trkpt lat="43.60902" lon="3.86723">
        <ele>45.676798159498</ele>
        <time>2020-10-09T11:11:44.000Z</time>
      </trkpt>
      <trkpt lat="43.60903" lon="3.86719">
        <ele>45.575481069753</ele>
        <time>2020-10-09T11:11:45.000Z</time>
      </trkpt>
      <trkpt lat="43.60905" lon="3.86714">
        <ele>45.474163980008</ele>
        <time>2020-10-09T11:11:46.000Z</time>
      </trkpt>
      <trkpt lat="43.60905" lon="3.86709">
        <ele>45.372846890262</ele>
        <time>2020-10-09T11:11:47.000Z</time>
      </trkpt>
      <trkpt lat="43.60906" lon="3.86705">
        <ele>45.271529800517</ele>
        <time>2020-10-09T11:11:48.000Z</time>
      </trkpt>
      <trkpt lat="43.60907" lon="3.86702">
        <ele>45.170212710772</ele>
        <time>2020-10-09T11:11:49.000Z</time>
      </trkpt>
      <trkpt lat="43.60907" lon="3.86699">
        <ele>45.068895621027</ele>
        <time>2020-10-09T11:11:50.000Z</time>
      </trkpt>
      <trkpt lat="43.60908" lon="3.86696">
        <ele>45</ele>
        <time>2020-10-09T11:11:51.000Z</time>
      </trkpt>
      <trkpt lat="43.60909" lon="3.86691">
        <ele>45</ele>
        <time>2020-10-09T11:11:52.000Z</time>
      </trkpt>
      <trkpt lat="43.6091" lon="3.86687">
        <ele>45</ele>
        <time>2020-10-09T11:11:53.000Z</time>
      </trkpt>
      <trkpt lat="43.60911" lon="3.86681">
        <ele>45</ele>
        <time>2020-10-09T11:11:54.000Z</time>
      </trkpt>
      <trkpt lat="43.60912" lon="3.86676">
        <ele>45</ele>
        <time>2020-10-09T11:11:55.000Z</time>
      </trkpt>
      <trkpt lat="43.60913" lon="3.8667">
        <ele>45</ele>
        <time>2020-10-09T11:11:56.000Z</time>
      </trkpt>
      <trkpt lat="43.60914" lon="3.86664">
        <ele>45</ele>
        <time>2020-10-09T11:11:57.000Z</time>
      </trkpt>
      <trkpt lat="43.60915" lon="3.86659">
        <ele>45</ele>
        <time>2020-10-09T11:11:58.000Z</time>
      </trkpt>
      <trkpt lat="43.60916" lon="3.86653">
        <ele>45</ele>
        <time>2020-10-09T11:11:59.000Z</time>
      </trkpt>
      <trkpt lat="43.60917" lon="3.86648">
        <ele>45</ele>
        <time>2020-10-09T11:12:00.000Z</time>
      </trkpt>
      <trkpt lat="43.60919" lon="3.86642">
        <ele>45.031219521942</ele>
        <time>2020-10-09T11:12:01.000Z</time>
      </trkpt>
      <trkpt lat="43.6092" lon="3.86636">
        <ele>45.12878052801</ele>
        <time>2020-10-09T11:12:02.000Z</time>
      </trkpt>
      <trkpt lat="43.60921" lon="3.86631">
        <ele>45.226341534077</ele>
        <time>2020-10-09T11:12:03.000Z</time>
      </trkpt>
      <trkpt lat="43.60922" lon="3.86625">
        <ele>45.323902540145</ele>
        <time>2020-10-09T11:12:04.000Z</time>
      </trkpt>
      <trkpt lat="43.60923" lon="3.86619">
        <ele>45.421463546213</ele>
        <time>2020-10-09T11:12:05.000Z</time>
      </trkpt>
      <trkpt lat="43.60925" lon="3.86613">
        <ele>45.519024552281</ele>
        <time>2020-10-09T11:12:06.000Z</time>
      </trkpt>
      <trkpt lat="43.60926" lon="3.86607">
        <ele>45.616585558349</ele>
        <time>2020-10-09T11:12:07.000Z</time>
      </trkpt>
      <trkpt lat="43.60927" lon="3.86601">
        <ele>45.714146564417</ele>
        <time>2020-10-09T11:12:08.000Z</time>
      </trkpt>
      <trkpt lat="43.60928" lon="3.86596">
        <ele>45.811707570484</ele>
        <time>2020-10-09T11:12:09.000Z</time>
      </trkpt>
      <trkpt lat="43.60929" lon="3.8659">
        <ele>45.909268576552</ele>
        <time>2020-10-09T11:12:10.000Z</time>
      </trkpt>
      <trkpt lat="43.6093" lon="3.86584">
        <ele>46.007179813028</ele>
        <time>2020-10-09T11:12:11.000Z</time>
      </trkpt>
      <trkpt lat="43.60931" lon="3.86578">
        <ele>46.10974388193</ele>
        <time>2020-10-09T11:12:12.000Z</time>
      </trkpt>
      <trkpt lat="43.60932" lon="3.86572">
        <ele>46.212307950832</ele>
        <time>2020-10-09T11:12:13.000Z</time>
      </trkpt>
      <trkpt lat="43.60934" lon="3.86567">
        <ele>46.314872019734</ele>
        <time>2020-10-09T11:12:14.000Z</time>
      </trkpt>
      <trkpt lat="43.60935" lon="3.86561">
        <ele>46.417436088636</ele>
        <time>2020-10-09T11:12:15.000Z</time>
      </trkpt>
      <trkpt lat="43.60936" lon="3.86555">
        <ele>46.520000157538</ele>
        <time>2020-10-09T11:12:16.000Z</time>
      </trkpt>
      <trkpt lat="43.60937" lon="3.8655">
        <ele>46.622564226441</ele>
        <time>2020-10-09T11:12:17.000Z</time>
      </trkpt>
      <trkpt lat="43.60938" lon="3.86544">
        <ele>46.725128295343</ele>
        <time>2020-10-09T11:12:18.000Z</time>
      </trkpt>
      <trkpt lat="43.6094" lon="3.86538">
        <ele>46.827692364245</ele>
        <time>2020-10-09T11:12:19.000Z</time>
      </trkpt>
      <trkpt lat="43.60941" lon="3.86533">
        <ele>46.930256433147</ele>
        <time>2020-10-09T11:12:20.000Z</time>
      </trkpt>
      <trkpt lat="43.60942" lon="3.86527">
        <ele>47.095808322039</ele>
        <time>2020-10-09T11:12:21.000Z</time>
      </trkpt>
      <trkpt lat="43.60943" lon="3.86521">
        <ele>47.395209328409</ele>
        <time>2020-10-09T11:12:22.000Z</time>
      </trkpt>
      <trkpt lat="43.60944" lon="3.86516">
        <ele>47.69461033478</ele>
        <time>2020-10-09T11:12:23.000Z</time>
      </trkpt>
      <trkpt lat="43.60945" lon="3.86511">
        <ele>47.99401134115</ele>
        <time>2020-10-09T11:12:24.000Z</time>
      </trkpt>
      <trkpt lat="43.60946" lon="3.86505">
        <ele>48.293412347521</ele>
        <time>2020-10-09T11:12:25.000Z</time>
      </trkpt>
      <trkpt lat="43.60947" lon="3.865">
        <ele>48.592813353892</ele>
        <time>2020-10-09T11:12:26.000Z</time>
      </trkpt>
      <trkpt lat="43.60948" lon="3.86495">
        <ele>48.892214360262</ele>
        <time>2020-10-09T11:12:27.000Z</time>
      </trkpt>
      <trkpt lat="43.6095" lon="3.8649">
        <ele>49.191615366633</ele>
        <time>2020-10-09T11:12:28.000Z</time>
      </trkpt>
      <trkpt lat="43.60951" lon="3.86484">
        <ele>49.491016373003</ele>
        <time>2020-10-09T11:12:29.000Z</time>
      </trkpt>
      <trkpt lat="43.60952" lon="3.86479">
        <ele>49.790417379374</ele>
        <time>2020-10-09T11:12:30.000Z</time>
      </trkpt>
      <trkpt lat="43.60952" lon="3.86473">
        <ele>49.969940501765</ele>
        <time>2020-10-09T11:12:31.000Z</time>
      </trkpt>
      <trkpt lat="43.60953" lon="3.86468">
        <ele>49.869740036707</ele>
        <time>2020-10-09T11:12:32.000Z</time>
      </trkpt>
      <trkpt lat="43.60954" lon="3.86464">
        <ele>49.769539571649</ele>
        <time>2020-10-09T11:12:33.000Z</time>
      </trkpt>
      <trkpt lat="43.60955" lon="3.86459">
        <ele>49.66933910659</ele>
        <time>2020-10-09T11:12:34.000Z</time>
      </trkpt>
      <trkpt lat="43.60956" lon="3.86455">
        <ele>49.569138641532</ele>
        <time>2020-10-09T11:12:35.000Z</time>
      </trkpt>
      <trkpt lat="43.60956" lon="3.8645">
        <ele>49.468938176473</ele>
        <time>2020-10-09T11:12:36.000Z</time>
      </trkpt>
      <trkpt lat="43.60957" lon="3.86446">
        <ele>49.368737711415</ele>
        <time>2020-10-09T11:12:37.000Z</time>
      </trkpt>
      <trkpt lat="43.60958" lon="3.86442">
        <ele>49.268537246357</ele>
        <time>2020-10-09T11:12:38.000Z</time>
      </trkpt>
      <trkpt lat="43.60959" lon="3.86437">
        <ele>49.168336781298</ele>
        <time>2020-10-09T11:12:39.000Z</time>
      </trkpt>
      <trkpt lat="43.6096" lon="3.86433">
        <ele>49.06813631624</ele>
        <time>2020-10-09T11:12:40.000Z</time>
      </trkpt>
      <trkpt lat="43.60961" lon="3.86429">
        <ele>49.031936107346</ele>
        <time>2020-10-09T11:12:41.000Z</time>
      </trkpt>
      <trkpt lat="43.60962" lon="3.86424">
        <ele>49.131736442803</ele>
        <time>2020-10-09T11:12:42.000Z</time>
      </trkpt>
      <trkpt lat="43.60962" lon="3.8642">
        <ele>49.23153677826</ele>
        <time>2020-10-09T11:12:43.000Z</time>
      </trkpt>
      <trkpt lat="43.60963" lon="3.86415">
        <ele>49.331337113717</ele>
        <time>2020-10-09T11:12:44.000Z</time>
      </trkpt>
      <trkpt lat="43.60964" lon="3.86411">
        <ele>49.431137449174</ele>
        <time>2020-10-09T11:12:45.000Z</time>
      </trkpt>
      <trkpt lat="43.60965" lon="3.86406">
        <ele>49.530937784631</ele>
        <time>2020-10-09T11:12:46.000Z</time>
      </trkpt>
      <trkpt lat="43.60966" lon="3.86401">
        <ele>49.630738120087</ele>
        <time>2020-10-09T11:12:47.000Z</time>
      </trkpt>
      <trkpt lat="43.60967" lon="3.86396">
        <ele>49.730538455544</ele>
        <time>2020-10-09T11:12:48.000Z</time>
      </trkpt>
      <trkpt lat="43.60968" lon="3.86391">
        <ele>49.830338791001</ele>
        <time>2020-10-09T11:12:49.000Z</time>
      </trkpt>
      <trkpt lat="43.60969" lon="3.86387">
        <ele>49.930139126458</ele>
        <time>2020-10-09T11:12:50.000Z</time>
      </trkpt>
      <trkpt lat="43.6097" lon="3.86382">
        <ele>50.060118996469</ele>
        <time>2020-10-09T11:12:51.000Z</time>
      </trkpt>
      <trkpt lat="43.60971" lon="3.86377">
        <ele>50.260519926586</ele>
        <time>2020-10-09T11:12:52.000Z</time>
      </trkpt>
      <trkpt lat="43.60972" lon="3.86372">
        <ele>50.460920856703</ele>
        <time>2020-10-09T11:12:53.000Z</time>
      </trkpt>
      <trkpt lat="43.60973" lon="3.86368">
        <ele>50.66132178682</ele>
        <time>2020-10-09T11:12:54.000Z</time>
      </trkpt>
      <trkpt lat="43.60974" lon="3.86363">
        <ele>50.861722716936</ele>
        <time>2020-10-09T11:12:55.000Z</time>
      </trkpt>
      <trkpt lat="43.60975" lon="3.86359">
        <ele>51.062123647053</ele>
        <time>2020-10-09T11:12:56.000Z</time>
      </trkpt>
      <trkpt lat="43.60976" lon="3.86354">
        <ele>51.26252457717</ele>
        <time>2020-10-09T11:12:57.000Z</time>
      </trkpt>
      <trkpt lat="43.60977" lon="3.86349">
        <ele>51.462925507287</ele>
        <time>2020-10-09T11:12:58.000Z</time>
      </trkpt>
      <trkpt lat="43.60978" lon="3.86344">
        <ele>51.663326437404</ele>
        <time>2020-10-09T11:12:59.000Z</time>
      </trkpt>
      <trkpt lat="43.60978" lon="3.8634">
        <ele>51.863727367521</ele>
        <time>2020-10-09T11:13:00.000Z</time>
      </trkpt>
      <trkpt lat="43.60979" lon="3.86335">
        <ele>52.064</ele>
        <time>2020-10-09T11:13:01.000Z</time>
      </trkpt>
      <trkpt lat="43.6098" lon="3.8633">
        <ele>52.264</ele>
        <time>2020-10-09T11:13:02.000Z</time>
      </trkpt>
      <trkpt lat="43.60981" lon="3.86325">
        <ele>52.464</ele>
        <time>2020-10-09T11:13:03.000Z</time>
      </trkpt>
      <trkpt lat="43.60981" lon="3.86321">
        <ele>52.664</ele>
        <time>2020-10-09T11:13:04.000Z</time>
      </trkpt>
      <trkpt lat="43.60982" lon="3.86316">
        <ele>52.864</ele>
        <time>2020-10-09T11:13:05.000Z</time>
      </trkpt>
      <trkpt lat="43.60983" lon="3.86312">
        <ele>53.064</ele>
        <time>2020-10-09T11:13:06.000Z</time>
      </trkpt>
      <trkpt lat="43.60983" lon="3.86307">
        <ele>53.264</ele>
        <time>2020-10-09T11:13:07.000Z</time>
      </trkpt>
      <trkpt lat="43.60984" lon="3.86303">
        <ele>53.464</ele>
        <time>2020-10-09T11:13:08.000Z</time>
      </trkpt>
      <trkpt lat="43.60985" lon="3.86299">
        <ele>53.664</ele>
        <time>2020-10-09T11:13:09.000Z</time>
      </trkpt>
      <trkpt lat="43.60985" lon="3.86294">
        <ele>53.864</ele>
        <time>2020-10-09T11:13:10.000Z</time>
      </trkpt>
      <trkpt lat="43.60986" lon="3.8629">
        <ele>54.064</ele>
        <time>2020-10-09T11:13:11.000Z</time>
      </trkpt>
      <trkpt lat="43.60986" lon="3.86286">
        <ele>54.264</ele>
        <time>2020-10-09T11:13:12.000Z</time>
      </trkpt>
      <trkpt lat="43.60987" lon="3.86282">
        <ele>54.464</ele>
        <time>2020-10-09T11:13:13.000Z</time>
      </trkpt>
      <trkpt lat="43.60988" lon="3.86278">
        <ele>54.664</ele>
        <time>2020-10-09T11:13:14.000Z</time>
      </trkpt>
      <trkpt lat="43.60988" lon="3.86274">
        <ele>54.864</ele>
        <time>2020-10-09T11:13:15.000Z</time>
      </trkpt>
      <trkpt lat="43.60989" lon="3.8627">
        <ele>55.064</ele>
        <time>2020-10-09T11:13:16.000Z</time>
      </trkpt>
      <trkpt lat="43.60989" lon="3.86266">
        <ele>55.264</ele>
        <time>2020-10-09T11:13:17.000Z</time>
      </trkpt>
      <trkpt lat="43.6099" lon="3.86262">
        <ele>55.464</ele>
        <time>2020-10-09T11:13:18.000Z</time>
      </trkpt>
      <trkpt lat="43.6099" lon="3.86258">
        <ele>55.664</ele>
        <time>2020-10-09T11:13:19.000Z</time>
      </trkpt>
      <trkpt lat="43.6099" lon="3.86253">
        <ele>55.864</ele>
        <time>2020-10-09T11:13:20.000Z</time>
      </trkpt>
      <trkpt lat="43.60991" lon="3.86249">
        <ele>55.968</ele>
        <time>2020-10-09T11:13:21.000Z</time>
      </trkpt>
      <trkpt lat="43.60991" lon="3.86245">
        <ele>55.868</ele>
        <time>2020-10-09T11:13:22.000Z</time>
      </trkpt>
      <trkpt lat="43.60992" lon="3.86241">
        <ele>55.768</ele>
        <time>2020-10-09T11:13:23.000Z</time>
      </trkpt>
      <trkpt lat="43.60992" lon="3.86237">
        <ele>55.668</ele>
        <time>2020-10-09T11:13:24.000Z</time>
      </trkpt>
      <trkpt lat="43.60993" lon="3.86233">
        <ele>55.568</ele>
        <time>2020-10-09T11:13:25.000Z</time>
      </trkpt>
      <trkpt lat="43.60993" lon="3.86229">
        <ele>55.468</ele>
        <time>2020-10-09T11:13:26.000Z</time>
      </trkpt>
      <trkpt lat="43.60994" lon="3.86225">
        <ele>55.368</ele>
        <time>2020-10-09T11:13:27.000Z</time>
      </trkpt>
      <trkpt lat="43.60994" lon="3.86221">
        <ele>55.268</ele>
        <time>2020-10-09T11:13:28.000Z</time>
      </trkpt>
      <trkpt lat="43.60995" lon="3.86217">
        <ele>55.168</ele>
        <time>2020-10-09T11:13:29.000Z</time>
      </trkpt>
      <trkpt lat="43.60996" lon="3.86213">
        <ele>55.068</ele>
        <time>2020-10-09T11:13:30.000Z</time>
      </trkpt>
      <trkpt lat="43.60996" lon="3.86209">
        <ele>55.032</ele>
        <time>2020-10-09T11:13:31.000Z</time>
      </trkpt>
      <trkpt lat="43.60996" lon="3.86205">
        <ele>55.132</ele>
        <time>2020-10-09T11:13:32.000Z</time>
      </trkpt>
      <trkpt lat="43.60997" lon="3.862">
        <ele>55.232</ele>
        <time>2020-10-09T11:13:33.000Z</time>
      </trkpt>
      <trkpt lat="43.60998" lon="3.86196">
        <ele>55.332</ele>
        <time>2020-10-09T11:13:34.000Z</time>
      </trkpt>
      <trkpt lat="43.60998" lon="3.86192">
        <ele>55.432</ele>
        <time>2020-10-09T11:13:35.000Z</time>
      </trkpt>
      <trkpt lat="43.60999" lon="3.86188">
        <ele>55.532</ele>
        <time>2020-10-09T11:13:36.000Z</time>
      </trkpt>
      <trkpt lat="43.60999" lon="3.86184">
        <ele>55.632</ele>
        <time>2020-10-09T11:13:37.000Z</time>
      </trkpt>
      <trkpt lat="43.60999" lon="3.86179">
        <ele>55.732</ele>
        <time>2020-10-09T11:13:38.000Z</time>
      </trkpt>
      <trkpt lat="43.61" lon="3.86175">
        <ele>55.832</ele>
        <time>2020-10-09T11:13:39.000Z</time>
      </trkpt>
      <trkpt lat="43.61" lon="3.86171">
        <ele>55.932</ele>
        <time>2020-10-09T11:13:40.000Z</time>
      </trkpt>
      <trkpt lat="43.61001" lon="3.86167">
        <ele>56</ele>
        <time>2020-10-09T11:13:41.000Z</time>
      </trkpt>
      <trkpt lat="43.61001" lon="3.86163">
        <ele>56</ele>
        <time>2020-10-09T11:13:42.000Z</time>
      </trkpt>
      <trkpt lat="43.61002" lon="3.86159">
        <ele>56</ele>
        <time>2020-10-09T11:13:43.000Z</time>
      </trkpt>
      <trkpt lat="43.61002" lon="3.86155">
        <ele>56</ele>
        <time>2020-10-09T11:13:44.000Z</time>
      </trkpt>
      <trkpt lat="43.61003" lon="3.86151">
        <ele>56</ele>
        <time>2020-10-09T11:13:45.000Z</time>
      </trkpt>
      <trkpt lat="43.61003" lon="3.86147">
        <ele>56</ele>
        <time>2020-10-09T11:13:46.000Z</time>
      </trkpt>
      <trkpt lat="43.61003" lon="3.86143">
        <ele>56</ele>
        <time>2020-10-09T11:13:47.000Z</time>
      </trkpt>
      <trkpt lat="43.61003" lon="3.86139">
        <ele>56</ele>
        <time>2020-10-09T11:13:48.000Z</time>
      </trkpt>
      <trkpt lat="43.61004" lon="3.86135">
        <ele>56</ele>
        <time>2020-10-09T11:13:49.000Z</time>
      </trkpt>
      <trkpt lat="43.61004" lon="3.86131">
        <ele>56</ele>
        <time>2020-10-09T11:13:50.000Z</time>
      </trkpt>
      <trkpt lat="43.61005" lon="3.86126">
        <ele>56.003089926891</ele>
        <time>2020-10-09T11:13:51.000Z</time>
      </trkpt>
      <trkpt lat="43.61005" lon="3.86123">
        <ele>56.106076504692</ele>
        <time>2020-10-09T11:13:52.000Z</time>
      </trkpt>
      <trkpt lat="43.61006" lon="3.86119">
        <ele>56.209063082492</ele>
        <time>2020-10-09T11:13:53.000Z</time>
      </trkpt>
      <trkpt lat="43.61006" lon="3.86115">
        <ele>56.312049660293</ele>
        <time>2020-10-09T11:13:54.000Z</time>
      </trkpt>
      <trkpt lat="43.61006" lon="3.86111">
        <ele>56.415036238093</ele>
        <time>2020-10-09T11:13:55.000Z</time>
      </trkpt>
      <trkpt lat="43.61007" lon="3.86107">
        <ele>56.518022815894</ele>
        <time>2020-10-09T11:13:56.000Z</time>
      </trkpt>
      <trkpt lat="43.61007" lon="3.86103">
        <ele>56.621009393694</ele>
        <time>2020-10-09T11:13:57.000Z</time>
      </trkpt>
      <trkpt lat="43.61008" lon="3.861">
        <ele>56.723995971495</ele>
        <time>2020-10-09T11:13:58.000Z</time>
      </trkpt>
      <trkpt lat="43.61008" lon="3.86096">
        <ele>56.826982549295</ele>
        <time>2020-10-09T11:13:59.000Z</time>
      </trkpt>
      <trkpt lat="43.61009" lon="3.86092">
        <ele>56.929969127096</ele>
        <time>2020-10-09T11:14:00.000Z</time>
      </trkpt>
      <trkpt lat="43.61009" lon="3.86088">
        <ele>57.032</ele>
        <time>2020-10-09T11:14:01.000Z</time>
      </trkpt>
      <trkpt lat="43.6101" lon="3.86085">
        <ele>57.132</ele>
        <time>2020-10-09T11:14:02.000Z</time>
      </trkpt>
      <trkpt lat="43.6101" lon="3.86081">
        <ele>57.232</ele>
        <time>2020-10-09T11:14:03.000Z</time>
      </trkpt>
      <trkpt lat="43.61011" lon="3.86077">
        <ele>57.332</ele>
        <time>2020-10-09T11:14:04.000Z</time>
      </trkpt>
      <trkpt lat="43.61011" lon="3.86073">
        <ele>57.432</ele>
        <time>2020-10-09T11:14:05.000Z</time>
      </trkpt>
      <trkpt lat="43.61011" lon="3.8607">
        <ele>57.532</ele>
        <time>2020-10-09T11:14:06.000Z</time>
      </trkpt>
      <trkpt lat="43.61012" lon="3.86066">
        <ele>57.632</ele>
        <time>2020-10-09T11:14:07.000Z</time>
      </trkpt>
      <trkpt lat="43.61012" lon="3.86062">
        <ele>57.732</ele>
        <time>2020-10-09T11:14:08.000Z</time>
      </trkpt>
      <trkpt lat="43.61012" lon="3.86058">
        <ele>57.832</ele>
        <time>2020-10-09T11:14:09.000Z</time>
      </trkpt>
      <trkpt lat="43.61013" lon="3.86055">
        <ele>57.932</ele>
        <time>2020-10-09T11:14:10.000Z</time>
      </trkpt>
      <trkpt lat="43.61013" lon="3.86051">
        <ele>58.031527083656</ele>
        <time>2020-10-09T11:14:11.000Z</time>
      </trkpt>
      <trkpt lat="43.61013" lon="3.86047">
        <ele>58.130049220083</ele>
        <time>2020-10-09T11:14:12.000Z</time>
      </trkpt>
      <trkpt lat="43.61014" lon="3.86043">
        <ele>58.228571356509</ele>
        <time>2020-10-09T11:14:13.000Z</time>
      </trkpt>
      <trkpt lat="43.61014" lon="3.86039">
        <ele>58.327093492936</ele>
        <time>2020-10-09T11:14:14.000Z</time>
      </trkpt>
      <trkpt lat="43.61015" lon="3.86036">
        <ele>58.425615629363</ele>
        <time>2020-10-09T11:14:15.000Z</time>
      </trkpt>
      <trkpt lat="43.61016" lon="3.86032">
        <ele>58.524137765789</ele>
        <time>2020-10-09T11:14:16.000Z</time>
      </trkpt>
      <trkpt lat="43.61016" lon="3.86028">
        <ele>58.622659902216</ele>
        <time>2020-10-09T11:14:17.000Z</time>
      </trkpt>
      <trkpt lat="43.61017" lon="3.86025">
        <ele>58.721182038642</ele>
        <time>2020-10-09T11:14:18.000Z</time>
      </trkpt>
      <trkpt lat="43.61017" lon="3.86021">
        <ele>58.819704175069</ele>
        <time>2020-10-09T11:14:19.000Z</time>
      </trkpt>
      <trkpt lat="43.61017" lon="3.86017">
        <ele>58.918226311495</ele>
        <time>2020-10-09T11:14:20.000Z</time>
      </trkpt>
      <trkpt lat="43.61018" lon="3.86014">
        <ele>59.034517127965</ele>
        <time>2020-10-09T11:14:21.000Z</time>
      </trkpt>
      <trkpt lat="43.61018" lon="3.8601">
        <ele>59.237562879208</ele>
        <time>2020-10-09T11:14:22.000Z</time>
      </trkpt>
      <trkpt lat="43.61019" lon="3.86007">
        <ele>59.440608630452</ele>
        <time>2020-10-09T11:14:23.000Z</time>
      </trkpt>
      <trkpt lat="43.61019" lon="3.86003">
        <ele>59.643654381695</ele>
        <time>2020-10-09T11:14:24.000Z</time>
      </trkpt>
      <trkpt lat="43.6102" lon="3.86">
        <ele>59.846700132938</ele>
        <time>2020-10-09T11:14:25.000Z</time>
      </trkpt>
      <trkpt lat="43.6102" lon="3.85996">
        <ele>60.049745884181</ele>
        <time>2020-10-09T11:14:26.000Z</time>
      </trkpt>
      <trkpt lat="43.61021" lon="3.85993">
        <ele>60.252791635425</ele>
        <time>2020-10-09T11:14:27.000Z</time>
      </trkpt>
      <trkpt lat="43.61021" lon="3.85989">
        <ele>60.455837386668</ele>
        <time>2020-10-09T11:14:28.000Z</time>
      </trkpt>
      <trkpt lat="43.61021" lon="3.85985">
        <ele>60.658883137911</ele>
        <time>2020-10-09T11:14:29.000Z</time>
      </trkpt>
      <trkpt lat="43.61022" lon="3.85982">
        <ele>60.861928889155</ele>
        <time>2020-10-09T11:14:30.000Z</time>
      </trkpt>
      <trkpt lat="43.61023" lon="3.85978">
        <ele>61</ele>
        <time>2020-10-09T11:14:31.000Z</time>
      </trkpt>
      <trkpt lat="43.61023" lon="3.85975">
        <ele>61</ele>
        <time>2020-10-09T11:14:32.000Z</time>
      </trkpt>
      <trkpt lat="43.61023" lon="3.85971">
        <ele>61</ele>
        <time>2020-10-09T11:14:33.000Z</time>
      </trkpt>
      <trkpt lat="43.61024" lon="3.85968">
        <ele>61</ele>
        <time>2020-10-09T11:14:34.000Z</time>
      </trkpt>
      <trkpt lat="43.61024" lon="3.85964">
        <ele>61</ele>
        <time>2020-10-09T11:14:35.000Z</time>
      </trkpt>
      <trkpt lat="43.61025" lon="3.85961">
        <ele>61</ele>
        <time>2020-10-09T11:14:36.000Z</time>
      </trkpt>
      <trkpt lat="43.61026" lon="3.85958">
        <ele>61</ele>
        <time>2020-10-09T11:14:37.000Z</time>
      </trkpt>
      <trkpt lat="43.61026" lon="3.85954">
        <ele>61</ele>
        <time>2020-10-09T11:14:38.000Z</time>
      </trkpt>
      <trkpt lat="43.61027" lon="3.85951">
        <ele>61</ele>
        <time>2020-10-09T11:14:39.000Z</time>
      </trkpt>
      <trkpt lat="43.61027" lon="3.85947">
        <ele>61</ele>
        <time>2020-10-09T11:14:40.000Z</time>
      </trkpt>
      <trkpt lat="43.61028" lon="3.85944">
        <ele>61.032</ele>
        <time>2020-10-09T11:14:41.000Z</time>
      </trkpt>
      <trkpt lat="43.61029" lon="3.8594">
        <ele>61.132</ele>
        <time>2020-10-09T11:14:42.000Z</time>
      </trkpt>
      <trkpt lat="43.6103" lon="3.85937">
        <ele>61.232</ele>
        <time>2020-10-09T11:14:43.000Z</time>
      </trkpt>
      <trkpt lat="43.6103" lon="3.85934">
        <ele>61.332</ele>
        <time>2020-10-09T11:14:44.000Z</time>
      </trkpt>
      <trkpt lat="43.61031" lon="3.85931">
        <ele>61.432</ele>
        <time>2020-10-09T11:14:45.000Z</time>
      </trkpt>
      <trkpt lat="43.61032" lon="3.85927">
        <ele>61.532</ele>
        <time>2020-10-09T11:14:46.000Z</time>
      </trkpt>
      <trkpt lat="43.61033" lon="3.85924">
        <ele>61.632</ele>
        <time>2020-10-09T11:14:47.000Z</time>
      </trkpt>
      <trkpt lat="43.61034" lon="3.8592">
        <ele>61.732</ele>
        <time>2020-10-09T11:14:48.000Z</time>
      </trkpt>
      <trkpt lat="43.61034" lon="3.85917">
        <ele>61.832</ele>
        <time>2020-10-09T11:14:49.000Z</time>
      </trkpt>
      <trkpt lat="43.61035" lon="3.85913">
        <ele>61.932</ele>
        <time>2020-10-09T11:14:50.000Z</time>
      </trkpt>
      <trkpt lat="43.61035" lon="3.8591">
        <ele>62</ele>
        <time>2020-10-09T11:14:51.000Z</time>
      </trkpt>
      <trkpt lat="43.61036" lon="3.85906">
        <ele>62</ele>
        <time>2020-10-09T11:14:52.000Z</time>
      </trkpt>
      <trkpt lat="43.61036" lon="3.85903">
        <ele>62</ele>
        <time>2020-10-09T11:14:53.000Z</time>
      </trkpt>
      <trkpt lat="43.61037" lon="3.85899">
        <ele>62</ele>
        <time>2020-10-09T11:14:54.000Z</time>
      </trkpt>
      <trkpt lat="43.61038" lon="3.85896">
        <ele>62</ele>
        <time>2020-10-09T11:14:55.000Z</time>
      </trkpt>
      <trkpt lat="43.61038" lon="3.85892">
        <ele>62</ele>
        <time>2020-10-09T11:14:56.000Z</time>
      </trkpt>
      <trkpt lat="43.61039" lon="3.85889">
        <ele>62</ele>
        <time>2020-10-09T11:14:57.000Z</time>
      </trkpt>
      <trkpt lat="43.6104" lon="3.85885">
        <ele>62</ele>
        <time>2020-10-09T11:14:58.000Z</time>
      </trkpt>
      <trkpt lat="43.61041" lon="3.85882">
        <ele>62</ele>
        <time>2020-10-09T11:14:59.000Z</time>
      </trkpt>
      <trkpt lat="43.61042" lon="3.85878">
        <ele>62</ele>
        <time>2020-10-09T11:15:00.000Z</time>
      </trkpt>
      <trkpt lat="43.61043" lon="3.85874">
        <ele>62.032</ele>
        <time>2020-10-09T11:15:01.000Z</time>
      </trkpt>
      <trkpt lat="43.61044" lon="3.8587">
        <ele>62.132</ele>
        <time>2020-10-09T11:15:02.000Z</time>
      </trkpt>
      <trkpt lat="43.61044" lon="3.85865">
        <ele>62.232</ele>
        <time>2020-10-09T11:15:03.000Z</time>
      </trkpt>
      <trkpt lat="43.61045" lon="3.8586">
        <ele>62.332</ele>
        <time>2020-10-09T11:15:04.000Z</time>
      </trkpt>
      <trkpt lat="43.61046" lon="3.85856">
        <ele>62.432</ele>
        <time>2020-10-09T11:15:05.000Z</time>
      </trkpt>
      <trkpt lat="43.61047" lon="3.85851">
        <ele>62.532</ele>
        <time>2020-10-09T11:15:06.000Z</time>
      </trkpt>
      <trkpt lat="43.61048" lon="3.85846">
        <ele>62.632</ele>
        <time>2020-10-09T11:15:07.000Z</time>
      </trkpt>
      <trkpt lat="43.61049" lon="3.85841">
        <ele>62.732</ele>
        <time>2020-10-09T11:15:08.000Z</time>
      </trkpt>
      <trkpt lat="43.61049" lon="3.85837">
        <ele>62.832</ele>
        <time>2020-10-09T11:15:09.000Z</time>
      </trkpt>
      <trkpt lat="43.61048" lon="3.85832">
        <ele>62.932</ele>
        <time>2020-10-09T11:15:10.000Z</time>
      </trkpt>
      <trkpt lat="43.61048" lon="3.85828">
        <ele>63.031527083656</ele>
        <time>2020-10-09T11:15:11.000Z</time>
      </trkpt>
      <trkpt lat="43.61047" lon="3.85824">
        <ele>63.130049220083</ele>
        <time>2020-10-09T11:15:12.000Z</time>
      </trkpt>
      <trkpt lat="43.61046" lon="3.85819">
        <ele>63.228571356509</ele>
        <time>2020-10-09T11:15:13.000Z</time>
      </trkpt>
      <trkpt lat="43.61046" lon="3.85815">
        <ele>63.327093492936</ele>
        <time>2020-10-09T11:15:14.000Z</time>
      </trkpt>
      <trkpt lat="43.61046" lon="3.8581">
        <ele>63.425615629363</ele>
        <time>2020-10-09T11:15:15.000Z</time>
      </trkpt>
      <trkpt lat="43.61046" lon="3.85805">
        <ele>63.524137765789</ele>
        <time>2020-10-09T11:15:16.000Z</time>
      </trkpt>
      <trkpt lat="43.61046" lon="3.85801">
        <ele>63.622659902216</ele>
        <time>2020-10-09T11:15:17.000Z</time>
      </trkpt>
      <trkpt lat="43.61047" lon="3.85796">
        <ele>63.721182038642</ele>
        <time>2020-10-09T11:15:18.000Z</time>
      </trkpt>
      <trkpt lat="43.61047" lon="3.85791">
        <ele>63.819704175069</ele>
        <time>2020-10-09T11:15:19.000Z</time>
      </trkpt>
      <trkpt lat="43.61048" lon="3.85786">
        <ele>63.918226311495</ele>
        <time>2020-10-09T11:15:20.000Z</time>
      </trkpt>
      <trkpt lat="43.61048" lon="3.85781">
        <ele>64.017258563982</ele>
        <time>2020-10-09T11:15:21.000Z</time>
      </trkpt>
      <trkpt lat="43.61049" lon="3.85775">
        <ele>64.118781439604</ele>
        <time>2020-10-09T11:15:22.000Z</time>
      </trkpt>
      <trkpt lat="43.61048" lon="3.8577">
        <ele>64.220304315226</ele>
        <time>2020-10-09T11:15:23.000Z</time>
      </trkpt>
      <trkpt lat="43.61048" lon="3.85765">
        <ele>64.321827190847</ele>
        <time>2020-10-09T11:15:24.000Z</time>
      </trkpt>
      <trkpt lat="43.61047" lon="3.85759">
        <ele>64.423350066469</ele>
        <time>2020-10-09T11:15:25.000Z</time>
      </trkpt>
      <trkpt lat="43.61047" lon="3.85753">
        <ele>64.524872942091</ele>
        <time>2020-10-09T11:15:26.000Z</time>
      </trkpt>
      <trkpt lat="43.61047" lon="3.85747">
        <ele>64.626395817712</ele>
        <time>2020-10-09T11:15:27.000Z</time>
      </trkpt>
      <trkpt lat="43.61047" lon="3.85742">
        <ele>64.727918693334</ele>
        <time>2020-10-09T11:15:28.000Z</time>
      </trkpt>
      <trkpt lat="43.61046" lon="3.85736">
        <ele>64.829441568956</ele>
        <time>2020-10-09T11:15:29.000Z</time>
      </trkpt>
      <trkpt lat="43.61045" lon="3.8573">
        <ele>64.930964444577</ele>
        <time>2020-10-09T11:15:30.000Z</time>
      </trkpt>
      <trkpt lat="43.61044" lon="3.85723">
        <ele>65</ele>
        <time>2020-10-09T11:15:31.000Z</time>
      </trkpt>
      <trkpt lat="43.61043" lon="3.85717">
        <ele>65</ele>
        <time>2020-10-09T11:15:32.000Z</time>
      </trkpt>
      <trkpt lat="43.61042" lon="3.85711">
        <ele>65</ele>
        <time>2020-10-09T11:15:33.000Z</time>
      </trkpt>
      <trkpt lat="43.61041" lon="3.85704">
        <ele>65</ele>
        <time>2020-10-09T11:15:34.000Z</time>
      </trkpt>
      <trkpt lat="43.61041" lon="3.85698">
        <ele>65</ele>
        <time>2020-10-09T11:15:35.000Z</time>
      </trkpt>
      <trkpt lat="43.6104" lon="3.85692">
        <ele>65</ele>
        <time>2020-10-09T11:15:36.000Z</time>
      </trkpt>
      <trkpt lat="43.6104" lon="3.85686">
        <ele>65</ele>
        <time>2020-10-09T11:15:37.000Z</time>
      </trkpt>
      <trkpt lat="43.61039" lon="3.8568">
        <ele>65</ele>
        <time>2020-10-09T11:15:38.000Z</time>
      </trkpt>
      <trkpt lat="43.61038" lon="3.85673">
        <ele>65</ele>
        <time>2020-10-09T11:15:39.000Z</time>
      </trkpt>
      <trkpt lat="43.61038" lon="3.85666">
        <ele>65</ele>
        <time>2020-10-09T11:15:40.000Z</time>
      </trkpt>
      <trkpt lat="43.61037" lon="3.8566">
        <ele>65</ele>
        <time>2020-10-09T11:15:41.000Z</time>
      </trkpt>
      <trkpt lat="43.61036" lon="3.85653">
        <ele>65</ele>
        <time>2020-10-09T11:15:42.000Z</time>
      </trkpt>
      <trkpt lat="43.61036" lon="3.85646">
        <ele>65</ele>
        <time>2020-10-09T11:15:43.000Z</time>
      </trkpt>
      <trkpt lat="43.61035" lon="3.85638">
        <ele>65</ele>
        <time>2020-10-09T11:15:44.000Z</time>
      </trkpt>
      <trkpt lat="43.61034" lon="3.85631">
        <ele>65</ele>
        <time>2020-10-09T11:15:45.000Z</time>
      </trkpt>
      <trkpt lat="43.61033" lon="3.85624">
        <ele>65</ele>
        <time>2020-10-09T11:15:46.000Z</time>
      </trkpt>
      <trkpt lat="43.61032" lon="3.85617">
        <ele>65</ele>
        <time>2020-10-09T11:15:47.000Z</time>
      </trkpt>
      <trkpt lat="43.61031" lon="3.8561">
        <ele>65</ele>
        <time>2020-10-09T11:15:48.000Z</time>
      </trkpt>
      <trkpt lat="43.61031" lon="3.85603">
        <ele>65</ele>
        <time>2020-10-09T11:15:49.000Z</time>
      </trkpt>
      <trkpt lat="43.6103" lon="3.85597">
        <ele>65</ele>
        <time>2020-10-09T11:15:50.000Z</time>
      </trkpt>
      <trkpt lat="43.61029" lon="3.8559">
        <ele>65</ele>
        <time>2020-10-09T11:15:51.000Z</time>
      </trkpt>
      <trkpt lat="43.61028" lon="3.85583">
        <ele>65</ele>
        <time>2020-10-09T11:15:52.000Z</time>
      </trkpt>
      <trkpt lat="43.61027" lon="3.85576">
        <ele>65</ele>
        <time>2020-10-09T11:15:53.000Z</time>
      </trkpt>
      <trkpt lat="43.61026" lon="3.85569">
        <ele>65</ele>
        <time>2020-10-09T11:15:54.000Z</time>
      </trkpt>
      <trkpt lat="43.61025" lon="3.85563">
        <ele>65</ele>
        <time>2020-10-09T11:15:55.000Z</time>
      </trkpt>
      <trkpt lat="43.61025" lon="3.85556">
        <ele>65</ele>
        <time>2020-10-09T11:15:56.000Z</time>
      </trkpt>
      <trkpt lat="43.61024" lon="3.8555">
        <ele>65</ele>
        <time>2020-10-09T11:15:57.000Z</time>
      </trkpt>
      <trkpt lat="43.61023" lon="3.85543">
        <ele>65</ele>
        <time>2020-10-09T11:15:58.000Z</time>
      </trkpt>
      <trkpt lat="43.61022" lon="3.85537">
        <ele>65</ele>
        <time>2020-10-09T11:15:59.000Z</time>
      </trkpt>
      <trkpt lat="43.61022" lon="3.85531">
        <ele>65</ele>
        <time>2020-10-09T11:16:00.000Z</time>
      </trkpt>
      <trkpt lat="43.61021" lon="3.85525">
        <ele>65.032</ele>
        <time>2020-10-09T11:16:01.000Z</time>
      </trkpt>
      <trkpt lat="43.61021" lon="3.85519">
        <ele>65.132</ele>
        <time>2020-10-09T11:16:02.000Z</time>
      </trkpt>
      <trkpt lat="43.6102" lon="3.85513">
        <ele>65.232</ele>
        <time>2020-10-09T11:16:03.000Z</time>
      </trkpt>
      <trkpt lat="43.61019" lon="3.85507">
        <ele>65.332</ele>
        <time>2020-10-09T11:16:04.000Z</time>
      </trkpt>
      <trkpt lat="43.61018" lon="3.85501">
        <ele>65.432</ele>
        <time>2020-10-09T11:16:05.000Z</time>
      </trkpt>
      <trkpt lat="43.61018" lon="3.85495">
        <ele>65.532</ele>
        <time>2020-10-09T11:16:06.000Z</time>
      </trkpt>
      <trkpt lat="43.61017" lon="3.8549">
        <ele>65.632</ele>
        <time>2020-10-09T11:16:07.000Z</time>
      </trkpt>
      <trkpt lat="43.61016" lon="3.85484">
        <ele>65.732</ele>
        <time>2020-10-09T11:16:08.000Z</time>
      </trkpt>
      <trkpt lat="43.61016" lon="3.85478">
        <ele>65.832</ele>
        <time>2020-10-09T11:16:09.000Z</time>
      </trkpt>
      <trkpt lat="43.61015" lon="3.85472">
        <ele>65.932</ele>
        <time>2020-10-09T11:16:10.000Z</time>
      </trkpt>
      <trkpt lat="43.61014" lon="3.85466">
        <ele>66.032</ele>
        <time>2020-10-09T11:16:11.000Z</time>
      </trkpt>
      <trkpt lat="43.61014" lon="3.85461">
        <ele>66.132</ele>
        <time>2020-10-09T11:16:12.000Z</time>
      </trkpt>
      <trkpt lat="43.61013" lon="3.85455">
        <ele>66.232</ele>
        <time>2020-10-09T11:16:13.000Z</time>
      </trkpt>
      <trkpt lat="43.61013" lon="3.85449">
        <ele>66.332</ele>
        <time>2020-10-09T11:16:14.000Z</time>
      </trkpt>
      <trkpt lat="43.61012" lon="3.85443">
        <ele>66.432</ele>
        <time>2020-10-09T11:16:15.000Z</time>
      </trkpt>
      <trkpt lat="43.61012" lon="3.85438">
        <ele>66.532</ele>
        <time>2020-10-09T11:16:16.000Z</time>
      </trkpt>
      <trkpt lat="43.61011" lon="3.85432">
        <ele>66.632</ele>
        <time>2020-10-09T11:16:17.000Z</time>
      </trkpt>
      <trkpt lat="43.6101" lon="3.85426">
        <ele>66.732</ele>
        <time>2020-10-09T11:16:18.000Z</time>
      </trkpt>
      <trkpt lat="43.6101" lon="3.85421">
        <ele>66.832</ele>
        <time>2020-10-09T11:16:19.000Z</time>
      </trkpt>
      <trkpt lat="43.61009" lon="3.85415">
        <ele>66.932</ele>
        <time>2020-10-09T11:16:20.000Z</time>
      </trkpt>
      <trkpt lat="43.61009" lon="3.8541">
        <ele>67.032</ele>
        <time>2020-10-09T11:16:21.000Z</time>
      </trkpt>
      <trkpt lat="43.61009" lon="3.85404">
        <ele>67.132</ele>
        <time>2020-10-09T11:16:22.000Z</time>
      </trkpt>
      <trkpt lat="43.61008" lon="3.85399">
        <ele>67.232</ele>
        <time>2020-10-09T11:16:23.000Z</time>
      </trkpt>
      <trkpt lat="43.61008" lon="3.85393">
        <ele>67.332</ele>
        <time>2020-10-09T11:16:24.000Z</time>
      </trkpt>
      <trkpt lat="43.61008" lon="3.85388">
        <ele>67.432</ele>
        <time>2020-10-09T11:16:25.000Z</time>
      </trkpt>
      <trkpt lat="43.61008" lon="3.85382">
        <ele>67.532</ele>
        <time>2020-10-09T11:16:26.000Z</time>
      </trkpt>
      <trkpt lat="43.61008" lon="3.85377">
        <ele>67.632</ele>
        <time>2020-10-09T11:16:27.000Z</time>
      </trkpt>
      <trkpt lat="43.61008" lon="3.85371">
        <ele>67.732</ele>
        <time>2020-10-09T11:16:28.000Z</time>
      </trkpt>
      <trkpt lat="43.61008" lon="3.85365">
        <ele>67.832</ele>
        <time>2020-10-09T11:16:29.000Z</time>
      </trkpt>
      <trkpt lat="43.61008" lon="3.8536">
        <ele>67.932</ele>
        <time>2020-10-09T11:16:30.000Z</time>
      </trkpt>
      <trkpt lat="43.61008" lon="3.85354">
        <ele>68.031219521942</ele>
        <time>2020-10-09T11:16:31.000Z</time>
      </trkpt>
      <trkpt lat="43.61008" lon="3.85349">
        <ele>68.12878052801</ele>
        <time>2020-10-09T11:16:32.000Z</time>
      </trkpt>
      <trkpt lat="43.61008" lon="3.85344">
        <ele>68.226341534077</ele>
        <time>2020-10-09T11:16:33.000Z</time>
      </trkpt>
      <trkpt lat="43.61008" lon="3.85339">
        <ele>68.323902540145</ele>
        <time>2020-10-09T11:16:34.000Z</time>
      </trkpt>
      <trkpt lat="43.61008" lon="3.85334">
        <ele>68.421463546213</ele>
        <time>2020-10-09T11:16:35.000Z</time>
      </trkpt>
      <trkpt lat="43.61008" lon="3.85329">
        <ele>68.519024552281</ele>
        <time>2020-10-09T11:16:36.000Z</time>
      </trkpt>
      <trkpt lat="43.61008" lon="3.85324">
        <ele>68.616585558349</ele>
        <time>2020-10-09T11:16:37.000Z</time>
      </trkpt>
      <trkpt lat="43.61008" lon="3.85319">
        <ele>68.714146564416</ele>
        <time>2020-10-09T11:16:38.000Z</time>
      </trkpt>
      <trkpt lat="43.61007" lon="3.85314">
        <ele>68.811707570484</ele>
        <time>2020-10-09T11:16:39.000Z</time>
      </trkpt>
      <trkpt lat="43.61008" lon="3.85308">
        <ele>68.909268576552</ele>
        <time>2020-10-09T11:16:40.000Z</time>
      </trkpt>
      <trkpt lat="43.61008" lon="3.85302">
        <ele>69.007179813028</ele>
        <time>2020-10-09T11:16:41.000Z</time>
      </trkpt>
      <trkpt lat="43.61009" lon="3.85296">
        <ele>69.10974388193</ele>
        <time>2020-10-09T11:16:42.000Z</time>
      </trkpt>
      <trkpt lat="43.61009" lon="3.85291">
        <ele>69.212307950832</ele>
        <time>2020-10-09T11:16:43.000Z</time>
      </trkpt>
      <trkpt lat="43.61009" lon="3.85285">
        <ele>69.314872019734</ele>
        <time>2020-10-09T11:16:44.000Z</time>
      </trkpt>
      <trkpt lat="43.6101" lon="3.85279">
        <ele>69.417436088636</ele>
        <time>2020-10-09T11:16:45.000Z</time>
      </trkpt>
      <trkpt lat="43.6101" lon="3.85274">
        <ele>69.520000157538</ele>
        <time>2020-10-09T11:16:46.000Z</time>
      </trkpt>
      <trkpt lat="43.6101" lon="3.85268">
        <ele>69.622564226441</ele>
        <time>2020-10-09T11:16:47.000Z</time>
      </trkpt>
      <trkpt lat="43.6101" lon="3.85262">
        <ele>69.725128295343</ele>
        <time>2020-10-09T11:16:48.000Z</time>
      </trkpt>
      <trkpt lat="43.61011" lon="3.85257">
        <ele>69.827692364245</ele>
        <time>2020-10-09T11:16:49.000Z</time>
      </trkpt>
      <trkpt lat="43.61011" lon="3.85251">
        <ele>69.930256433147</ele>
        <time>2020-10-09T11:16:50.000Z</time>
      </trkpt>
      <trkpt lat="43.61011" lon="3.85244">
        <ele>70</ele>
        <time>2020-10-09T11:16:51.000Z</time>
      </trkpt>
      <trkpt lat="43.61011" lon="3.85238">
        <ele>70</ele>
        <time>2020-10-09T11:16:52.000Z</time>
      </trkpt>
      <trkpt lat="43.61011" lon="3.85232">
        <ele>70</ele>
        <time>2020-10-09T11:16:53.000Z</time>
      </trkpt>
      <trkpt lat="43.61011" lon="3.85226">
        <ele>70</ele>
        <time>2020-10-09T11:16:54.000Z</time>
      </trkpt>
      <trkpt lat="43.61011" lon="3.8522">
        <ele>70</ele>
        <time>2020-10-09T11:16:55.000Z</time>
      </trkpt>
      <trkpt lat="43.61012" lon="3.85214">
        <ele>70</ele>
        <time>2020-10-09T11:16:56.000Z</time>
      </trkpt>
      <trkpt lat="43.61012" lon="3.85208">
        <ele>70</ele>
        <time>2020-10-09T11:16:57.000Z</time>
      </trkpt>
      <trkpt lat="43.61013" lon="3.85203">
        <ele>70</ele>
        <time>2020-10-09T11:16:58.000Z</time>
      </trkpt>
      <trkpt lat="43.61013" lon="3.85197">
        <ele>70</ele>
        <time>2020-10-09T11:16:59.000Z</time>
      </trkpt>
      <trkpt lat="43.61014" lon="3.8519">
        <ele>70</ele>
        <time>2020-10-09T11:17:00.000Z</time>
      </trkpt>
      <trkpt lat="43.61014" lon="3.85184">
        <ele>70.002063323695</ele>
        <time>2020-10-09T11:17:01.000Z</time>
      </trkpt>
      <trkpt lat="43.61015" lon="3.85178">
        <ele>70.208461740668</ele>
        <time>2020-10-09T11:17:02.000Z</time>
      </trkpt>
      <trkpt lat="43.61015" lon="3.85172">
        <ele>70.414860157642</ele>
        <time>2020-10-09T11:17:03.000Z</time>
      </trkpt>
      <trkpt lat="43.61016" lon="3.85167">
        <ele>70.621258574616</ele>
        <time>2020-10-09T11:17:04.000Z</time>
      </trkpt>
      <trkpt lat="43.61017" lon="3.85161">
        <ele>70.82765699159</ele>
        <time>2020-10-09T11:17:05.000Z</time>
      </trkpt>
      <trkpt lat="43.61017" lon="3.85155">
        <ele>71.034055408563</ele>
        <time>2020-10-09T11:17:06.000Z</time>
      </trkpt>
      <trkpt lat="43.61018" lon="3.85149">
        <ele>71.240453825537</ele>
        <time>2020-10-09T11:17:07.000Z</time>
      </trkpt>
      <trkpt lat="43.61019" lon="3.85143">
        <ele>71.446852242511</ele>
        <time>2020-10-09T11:17:08.000Z</time>
      </trkpt>
      <trkpt lat="43.61021" lon="3.85137">
        <ele>71.653250659484</ele>
        <time>2020-10-09T11:17:09.000Z</time>
      </trkpt>
      <trkpt lat="43.61022" lon="3.85131">
        <ele>71.859649076458</ele>
        <time>2020-10-09T11:17:10.000Z</time>
      </trkpt>
      <trkpt lat="43.61024" lon="3.85125">
        <ele>72</ele>
        <time>2020-10-09T11:17:11.000Z</time>
      </trkpt>
      <trkpt lat="43.61025" lon="3.8512">
        <ele>72</ele>
        <time>2020-10-09T11:17:12.000Z</time>
      </trkpt>
      <trkpt lat="43.61025" lon="3.85114">
        <ele>72</ele>
        <time>2020-10-09T11:17:13.000Z</time>
      </trkpt>
      <trkpt lat="43.61027" lon="3.85109">
        <ele>72</ele>
        <time>2020-10-09T11:17:14.000Z</time>
      </trkpt>
      <trkpt lat="43.61027" lon="3.85104">
        <ele>72</ele>
        <time>2020-10-09T11:17:15.000Z</time>
      </trkpt>
      <trkpt lat="43.61028" lon="3.85099">
        <ele>72</ele>
        <time>2020-10-09T11:17:16.000Z</time>
      </trkpt>
      <trkpt lat="43.61028" lon="3.85096">
        <ele>72</ele>
        <time>2020-10-09T11:17:17.000Z</time>
      </trkpt>
      <trkpt lat="43.61027" lon="3.85093">
        <ele>72</ele>
        <time>2020-10-09T11:17:18.000Z</time>
      </trkpt>
      <trkpt lat="43.61027" lon="3.85089">
        <ele>72</ele>
        <time>2020-10-09T11:17:19.000Z</time>
      </trkpt>
      <trkpt lat="43.61027" lon="3.85086">
        <ele>72</ele>
        <time>2020-10-09T11:17:20.000Z</time>
      </trkpt>
      <trkpt lat="43.61028" lon="3.85083">
        <ele>72</ele>
        <time>2020-10-09T11:17:21.000Z</time>
      </trkpt>
      <trkpt lat="43.61028" lon="3.85079">
        <ele>72</ele>
        <time>2020-10-09T11:17:22.000Z</time>
      </trkpt>
      <trkpt lat="43.61028" lon="3.85075">
        <ele>72</ele>
        <time>2020-10-09T11:17:23.000Z</time>
      </trkpt>
      <trkpt lat="43.61029" lon="3.8507">
        <ele>72</ele>
        <time>2020-10-09T11:17:24.000Z</time>
      </trkpt>
      <trkpt lat="43.6103" lon="3.85066">
        <ele>72</ele>
        <time>2020-10-09T11:17:25.000Z</time>
      </trkpt>
      <trkpt lat="43.61031" lon="3.85062">
        <ele>72</ele>
        <time>2020-10-09T11:17:26.000Z</time>
      </trkpt>
      <trkpt lat="43.61031" lon="3.85057">
        <ele>72</ele>
        <time>2020-10-09T11:17:27.000Z</time>
      </trkpt>
      <trkpt lat="43.61032" lon="3.85052">
        <ele>72</ele>
        <time>2020-10-09T11:17:28.000Z</time>
      </trkpt>
      <trkpt lat="43.61032" lon="3.85047">
        <ele>72</ele>
        <time>2020-10-09T11:17:29.000Z</time>
      </trkpt>
      <trkpt lat="43.61033" lon="3.85042">
        <ele>72</ele>
        <time>2020-10-09T11:17:30.000Z</time>
      </trkpt>
      <trkpt lat="43.61034" lon="3.85036">
        <ele>72</ele>
        <time>2020-10-09T11:17:31.000Z</time>
      </trkpt>
      <trkpt lat="43.61034" lon="3.85031">
        <ele>72</ele>
        <time>2020-10-09T11:17:32.000Z</time>
      </trkpt>
      <trkpt lat="43.61035" lon="3.85026">
        <ele>72</ele>
        <time>2020-10-09T11:17:33.000Z</time>
      </trkpt>
      <trkpt lat="43.61036" lon="3.85021">
        <ele>72</ele>
        <time>2020-10-09T11:17:34.000Z</time>
      </trkpt>
      <trkpt lat="43.61036" lon="3.85016">
        <ele>72</ele>
        <time>2020-10-09T11:17:35.000Z</time>
      </trkpt>
      <trkpt lat="43.61036" lon="3.8501">
        <ele>72</ele>
        <time>2020-10-09T11:17:36.000Z</time>
      </trkpt>
      <trkpt lat="43.61037" lon="3.85005">
        <ele>72</ele>
        <time>2020-10-09T11:17:37.000Z</time>
      </trkpt>
      <trkpt lat="43.61038" lon="3.85">
        <ele>72</ele>
        <time>2020-10-09T11:17:38.000Z</time>
      </trkpt>
      <trkpt lat="43.61039" lon="3.84996">
        <ele>72</ele>
        <time>2020-10-09T11:17:39.000Z</time>
      </trkpt>
      <trkpt lat="43.6104" lon="3.84991">
        <ele>72</ele>
        <time>2020-10-09T11:17:40.000Z</time>
      </trkpt>
      <trkpt lat="43.61041" lon="3.84987">
        <ele>72.062062682823</ele>
        <time>2020-10-09T11:17:41.000Z</time>
      </trkpt>
      <trkpt lat="43.61042" lon="3.84982">
        <ele>72.262262818895</ele>
        <time>2020-10-09T11:17:42.000Z</time>
      </trkpt>
      <trkpt lat="43.61043" lon="3.84979">
        <ele>72.462462954967</ele>
        <time>2020-10-09T11:17:43.000Z</time>
      </trkpt>
      <trkpt lat="43.61044" lon="3.84975">
        <ele>73.263263499255</ele>
        <time>2020-10-09T11:17:47.000Z</time>
      </trkpt>
      <trkpt lat="43.61043" lon="3.84972">
        <ele>73.463463635327</ele>
        <time>2020-10-09T11:17:48.000Z</time>
      </trkpt>
      <trkpt lat="43.61041" lon="3.84969">
        <ele>73.663663771399</ele>
        <time>2020-10-09T11:17:49.000Z</time>
      </trkpt>
      <trkpt lat="43.61038" lon="3.84967">
        <ele>73.863863907471</ele>
        <time>2020-10-09T11:17:50.000Z</time>
      </trkpt>
      <trkpt lat="43.61035" lon="3.84965">
        <ele>74</ele>
        <time>2020-10-09T11:17:51.000Z</time>
      </trkpt>
      <trkpt lat="43.61032" lon="3.84962">
        <ele>74</ele>
        <time>2020-10-09T11:17:52.000Z</time>
      </trkpt>
      <trkpt lat="43.61029" lon="3.8496">
        <ele>74</ele>
        <time>2020-10-09T11:17:53.000Z</time>
      </trkpt>
      <trkpt lat="43.61026" lon="3.84958">
        <ele>74</ele>
        <time>2020-10-09T11:17:54.000Z</time>
      </trkpt>
      <trkpt lat="43.61023" lon="3.84955">
        <ele>74</ele>
        <time>2020-10-09T11:17:55.000Z</time>
      </trkpt>
      <trkpt lat="43.61019" lon="3.84952">
        <ele>74</ele>
        <time>2020-10-09T11:17:56.000Z</time>
      </trkpt>
      <trkpt lat="43.61016" lon="3.84949">
        <ele>74</ele>
        <time>2020-10-09T11:17:57.000Z</time>
      </trkpt>
      <trkpt lat="43.61013" lon="3.84947">
        <ele>74</ele>
        <time>2020-10-09T11:17:58.000Z</time>
      </trkpt>
      <trkpt lat="43.6101" lon="3.84945">
        <ele>74</ele>
        <time>2020-10-09T11:17:59.000Z</time>
      </trkpt>
      <trkpt lat="43.61006" lon="3.84942">
        <ele>74</ele>
        <time>2020-10-09T11:18:00.000Z</time>
      </trkpt>
      <trkpt lat="43.61003" lon="3.8494">
        <ele>74.031968042188</ele>
        <time>2020-10-09T11:18:01.000Z</time>
      </trkpt>
      <trkpt lat="43.61" lon="3.84938">
        <ele>74.131868174024</ele>
        <time>2020-10-09T11:18:02.000Z</time>
      </trkpt>
      <trkpt lat="43.60997" lon="3.84935">
        <ele>74.23176830586</ele>
        <time>2020-10-09T11:18:03.000Z</time>
      </trkpt>
      <trkpt lat="43.60993" lon="3.84933">
        <ele>74.331668437696</ele>
        <time>2020-10-09T11:18:04.000Z</time>
      </trkpt>
      <trkpt lat="43.6099" lon="3.84931">
        <ele>74.431568569532</ele>
        <time>2020-10-09T11:18:05.000Z</time>
      </trkpt>
      <trkpt lat="43.60987" lon="3.84929">
        <ele>74.531468701369</ele>
        <time>2020-10-09T11:18:06.000Z</time>
      </trkpt>
      <trkpt lat="43.60984" lon="3.84927">
        <ele>74.631368833205</ele>
        <time>2020-10-09T11:18:07.000Z</time>
      </trkpt>
      <trkpt lat="43.60981" lon="3.84925">
        <ele>74.731268965041</ele>
        <time>2020-10-09T11:18:08.000Z</time>
      </trkpt>
      <trkpt lat="43.60978" lon="3.84922">
        <ele>74.831169096877</ele>
        <time>2020-10-09T11:18:09.000Z</time>
      </trkpt>
      <trkpt lat="43.60975" lon="3.84919">
        <ele>74.931069228713</ele>
        <time>2020-10-09T11:18:10.000Z</time>
      </trkpt>
      <trkpt lat="43.60972" lon="3.84916">
        <ele>75</ele>
        <time>2020-10-09T11:18:11.000Z</time>
      </trkpt>
      <trkpt lat="43.60969" lon="3.84913">
        <ele>75</ele>
        <time>2020-10-09T11:18:12.000Z</time>
      </trkpt>
      <trkpt lat="43.60966" lon="3.8491">
        <ele>75</ele>
        <time>2020-10-09T11:18:13.000Z</time>
      </trkpt>
      <trkpt lat="43.60964" lon="3.84906">
        <ele>75</ele>
        <time>2020-10-09T11:18:14.000Z</time>
      </trkpt>
      <trkpt lat="43.60961" lon="3.84902">
        <ele>75</ele>
        <time>2020-10-09T11:18:15.000Z</time>
      </trkpt>
      <trkpt lat="43.60959" lon="3.84898">
        <ele>75</ele>
        <time>2020-10-09T11:18:16.000Z</time>
      </trkpt>
      <trkpt lat="43.60957" lon="3.84893">
        <ele>75</ele>
        <time>2020-10-09T11:18:17.000Z</time>
      </trkpt>
      <trkpt lat="43.60955" lon="3.84888">
        <ele>75</ele>
        <time>2020-10-09T11:18:18.000Z</time>
      </trkpt>
      <trkpt lat="43.60953" lon="3.84884">
        <ele>75</ele>
        <time>2020-10-09T11:18:19.000Z</time>
      </trkpt>
      <trkpt lat="43.60951" lon="3.84879">
        <ele>75</ele>
        <time>2020-10-09T11:18:20.000Z</time>
      </trkpt>
      <trkpt lat="43.60949" lon="3.84875">
        <ele>75</ele>
        <time>2020-10-09T11:18:21.000Z</time>
      </trkpt>
      <trkpt lat="43.60947" lon="3.84871">
        <ele>75</ele>
        <time>2020-10-09T11:18:22.000Z</time>
      </trkpt>
      <trkpt lat="43.60945" lon="3.84867">
        <ele>75</ele>
        <time>2020-10-09T11:18:23.000Z</time>
      </trkpt>
      <trkpt lat="43.60943" lon="3.84863">
        <ele>75</ele>
        <time>2020-10-09T11:18:24.000Z</time>
      </trkpt>
      <trkpt lat="43.6094" lon="3.84859">
        <ele>75</ele>
        <time>2020-10-09T11:18:25.000Z</time>
      </trkpt>
      <trkpt lat="43.60938" lon="3.84855">
        <ele>75</ele>
        <time>2020-10-09T11:18:26.000Z</time>
      </trkpt>
      <trkpt lat="43.60936" lon="3.84851">
        <ele>75</ele>
        <time>2020-10-09T11:18:27.000Z</time>
      </trkpt>
      <trkpt lat="43.60934" lon="3.84846">
        <ele>75</ele>
        <time>2020-10-09T11:18:28.000Z</time>
      </trkpt>
      <trkpt lat="43.60932" lon="3.84842">
        <ele>75</ele>
        <time>2020-10-09T11:18:29.000Z</time>
      </trkpt>
      <trkpt lat="43.60929" lon="3.84837">
        <ele>75</ele>
        <time>2020-10-09T11:18:30.000Z</time>
      </trkpt>
      <trkpt lat="43.60927" lon="3.84833">
        <ele>74.970913049842</ele>
        <time>2020-10-09T11:18:31.000Z</time>
      </trkpt>
      <trkpt lat="43.60924" lon="3.84829">
        <ele>74.870612114941</ele>
        <time>2020-10-09T11:18:32.000Z</time>
      </trkpt>
      <trkpt lat="43.6092" lon="3.84824">
        <ele>74.77031118004</ele>
        <time>2020-10-09T11:18:33.000Z</time>
      </trkpt>
      <trkpt lat="43.60917" lon="3.8482">
        <ele>74.670010245139</ele>
        <time>2020-10-09T11:18:34.000Z</time>
      </trkpt>
      <trkpt lat="43.60914" lon="3.84816">
        <ele>74.569709310238</ele>
        <time>2020-10-09T11:18:35.000Z</time>
      </trkpt>
      <trkpt lat="43.60911" lon="3.84811">
        <ele>74.469408375337</ele>
        <time>2020-10-09T11:18:36.000Z</time>
      </trkpt>
      <trkpt lat="43.60908" lon="3.84807">
        <ele>74.369107440436</ele>
        <time>2020-10-09T11:18:37.000Z</time>
      </trkpt>
      <trkpt lat="43.60905" lon="3.84802">
        <ele>74.268806505535</ele>
        <time>2020-10-09T11:18:38.000Z</time>
      </trkpt>
      <trkpt lat="43.60902" lon="3.84797">
        <ele>74.168505570634</ele>
        <time>2020-10-09T11:18:39.000Z</time>
      </trkpt>
      <trkpt lat="43.609" lon="3.84793">
        <ele>74.068204635733</ele>
        <time>2020-10-09T11:18:40.000Z</time>
      </trkpt>
      <trkpt lat="43.60897" lon="3.84789">
        <ele>73.968</ele>
        <time>2020-10-09T11:18:41.000Z</time>
      </trkpt>
      <trkpt lat="43.60896" lon="3.84785">
        <ele>73.868</ele>
        <time>2020-10-09T11:18:42.000Z</time>
      </trkpt>
      <trkpt lat="43.60895" lon="3.8478">
        <ele>73.768</ele>
        <time>2020-10-09T11:18:43.000Z</time>
      </trkpt>
      <trkpt lat="43.60894" lon="3.84776">
        <ele>73.668</ele>
        <time>2020-10-09T11:18:44.000Z</time>
      </trkpt>
      <trkpt lat="43.60894" lon="3.84772">
        <ele>73.568</ele>
        <time>2020-10-09T11:18:45.000Z</time>
      </trkpt>
      <trkpt lat="43.60894" lon="3.84767">
        <ele>73.468</ele>
        <time>2020-10-09T11:18:46.000Z</time>
      </trkpt>
      <trkpt lat="43.60894" lon="3.84763">
        <ele>73.368</ele>
        <time>2020-10-09T11:18:47.000Z</time>
      </trkpt>
      <trkpt lat="43.60894" lon="3.84759">
        <ele>73.268</ele>
        <time>2020-10-09T11:18:48.000Z</time>
      </trkpt>
      <trkpt lat="43.60892" lon="3.84755">
        <ele>73.168</ele>
        <time>2020-10-09T11:18:49.000Z</time>
      </trkpt>
      <trkpt lat="43.6089" lon="3.84752">
        <ele>73.068</ele>
        <time>2020-10-09T11:18:50.000Z</time>
      </trkpt>
      <trkpt lat="43.60888" lon="3.84749">
        <ele>72.968962182281</ele>
        <time>2020-10-09T11:18:51.000Z</time>
      </trkpt>
      <trkpt lat="43.60887" lon="3.84745">
        <ele>72.871969001911</ele>
        <time>2020-10-09T11:18:52.000Z</time>
      </trkpt>
      <trkpt lat="43.60887" lon="3.8474">
        <ele>72.77497582154</ele>
        <time>2020-10-09T11:18:53.000Z</time>
      </trkpt>
      <trkpt lat="43.60888" lon="3.84734">
        <ele>72.677982641169</ele>
        <time>2020-10-09T11:18:54.000Z</time>
      </trkpt>
      <trkpt lat="43.60888" lon="3.84728">
        <ele>72.580989460799</ele>
        <time>2020-10-09T11:18:55.000Z</time>
      </trkpt>
      <trkpt lat="43.60888" lon="3.84722">
        <ele>72.483996280428</ele>
        <time>2020-10-09T11:18:56.000Z</time>
      </trkpt>
      <trkpt lat="43.60888" lon="3.84715">
        <ele>72.387003100057</ele>
        <time>2020-10-09T11:18:57.000Z</time>
      </trkpt>
      <trkpt lat="43.60888" lon="3.84708">
        <ele>72.290009919686</ele>
        <time>2020-10-09T11:18:58.000Z</time>
      </trkpt>
      <trkpt lat="43.60888" lon="3.84701">
        <ele>72.193016739316</ele>
        <time>2020-10-09T11:18:59.000Z</time>
      </trkpt>
      <trkpt lat="43.60889" lon="3.84694">
        <ele>72.096023558945</ele>
        <time>2020-10-09T11:19:00.000Z</time>
      </trkpt>
      <trkpt lat="43.60889" lon="3.84687">
        <ele>71.998968338153</ele>
        <time>2020-10-09T11:19:01.000Z</time>
      </trkpt>
      <trkpt lat="43.60889" lon="3.8468">
        <ele>71.895769129666</ele>
        <time>2020-10-09T11:19:02.000Z</time>
      </trkpt>
      <trkpt lat="43.6089" lon="3.84673">
        <ele>71.792569921179</ele>
        <time>2020-10-09T11:19:03.000Z</time>
      </trkpt>
      <trkpt lat="43.6089" lon="3.84666">
        <ele>71.689370712692</ele>
        <time>2020-10-09T11:19:04.000Z</time>
      </trkpt>
      <trkpt lat="43.6089" lon="3.84659">
        <ele>71.586171504205</ele>
        <time>2020-10-09T11:19:05.000Z</time>
      </trkpt>
      <trkpt lat="43.6089" lon="3.84651">
        <ele>71.482972295718</ele>
        <time>2020-10-09T11:19:06.000Z</time>
      </trkpt>
      <trkpt lat="43.60891" lon="3.84644">
        <ele>71.379773087232</ele>
        <time>2020-10-09T11:19:07.000Z</time>
      </trkpt>
      <trkpt lat="43.60891" lon="3.84636">
        <ele>71.276573878745</ele>
        <time>2020-10-09T11:19:08.000Z</time>
      </trkpt>
      <trkpt lat="43.60891" lon="3.84628">
        <ele>71.173374670258</ele>
        <time>2020-10-09T11:19:09.000Z</time>
      </trkpt>
      <trkpt lat="43.60892" lon="3.8462">
        <ele>71.070175461771</ele>
        <time>2020-10-09T11:19:10.000Z</time>
      </trkpt>
      <trkpt lat="43.60893" lon="3.84612">
        <ele>70.968</ele>
        <time>2020-10-09T11:19:11.000Z</time>
      </trkpt>
      <trkpt lat="43.60895" lon="3.84604">
        <ele>70.868</ele>
        <time>2020-10-09T11:19:12.000Z</time>
      </trkpt>
      <trkpt lat="43.60896" lon="3.84596">
        <ele>70.768</ele>
        <time>2020-10-09T11:19:13.000Z</time>
      </trkpt>
      <trkpt lat="43.60898" lon="3.84588">
        <ele>70.668</ele>
        <time>2020-10-09T11:19:14.000Z</time>
      </trkpt>
      <trkpt lat="43.60899" lon="3.8458">
        <ele>70.568</ele>
        <time>2020-10-09T11:19:15.000Z</time>
      </trkpt>
      <trkpt lat="43.60898" lon="3.84572">
        <ele>70.468</ele>
        <time>2020-10-09T11:19:16.000Z</time>
      </trkpt>
      <trkpt lat="43.60898" lon="3.84563">
        <ele>70.368</ele>
        <time>2020-10-09T11:19:17.000Z</time>
      </trkpt>
      <trkpt lat="43.60898" lon="3.84555">
        <ele>70.268</ele>
        <time>2020-10-09T11:19:18.000Z</time>
      </trkpt>
      <trkpt lat="43.60898" lon="3.84546">
        <ele>70.168</ele>
        <time>2020-10-09T11:19:19.000Z</time>
      </trkpt>
      <trkpt lat="43.60898" lon="3.84536">
        <ele>70.068</ele>
        <time>2020-10-09T11:19:20.000Z</time>
      </trkpt>
      <trkpt lat="43.60897" lon="3.84527">
        <ele>69.936</ele>
        <time>2020-10-09T11:19:21.000Z</time>
      </trkpt>
      <trkpt lat="43.60896" lon="3.84518">
        <ele>69.736</ele>
        <time>2020-10-09T11:19:22.000Z</time>
      </trkpt>
      <trkpt lat="43.60895" lon="3.84509">
        <ele>69.536</ele>
        <time>2020-10-09T11:19:23.000Z</time>
      </trkpt>
      <trkpt lat="43.60895" lon="3.84499">
        <ele>69.336</ele>
        <time>2020-10-09T11:19:24.000Z</time>
      </trkpt>
      <trkpt lat="43.60894" lon="3.84489">
        <ele>69.136</ele>
        <time>2020-10-09T11:19:25.000Z</time>
      </trkpt>
      <trkpt lat="43.60894" lon="3.8448">
        <ele>68.936</ele>
        <time>2020-10-09T11:19:26.000Z</time>
      </trkpt>
      <trkpt lat="43.60894" lon="3.8447">
        <ele>68.736</ele>
        <time>2020-10-09T11:19:27.000Z</time>
      </trkpt>
      <trkpt lat="43.60895" lon="3.84461">
        <ele>68.536</ele>
        <time>2020-10-09T11:19:28.000Z</time>
      </trkpt>
      <trkpt lat="43.60896" lon="3.84452">
        <ele>68.336</ele>
        <time>2020-10-09T11:19:29.000Z</time>
      </trkpt>
      <trkpt lat="43.60898" lon="3.84444">
        <ele>68.136</ele>
        <time>2020-10-09T11:19:30.000Z</time>
      </trkpt>
      <trkpt lat="43.60898" lon="3.84435">
        <ele>67.937924364563</ele>
        <time>2020-10-09T11:19:31.000Z</time>
      </trkpt>
      <trkpt lat="43.60898" lon="3.84427">
        <ele>67.743938003821</ele>
        <time>2020-10-09T11:19:32.000Z</time>
      </trkpt>
      <trkpt lat="43.60898" lon="3.84418">
        <ele>67.54995164308</ele>
        <time>2020-10-09T11:19:33.000Z</time>
      </trkpt>
      <trkpt lat="43.60899" lon="3.84409">
        <ele>67.355965282339</ele>
        <time>2020-10-09T11:19:34.000Z</time>
      </trkpt>
      <trkpt lat="43.60899" lon="3.844">
        <ele>67.161978921597</ele>
        <time>2020-10-09T11:19:35.000Z</time>
      </trkpt>
      <trkpt lat="43.60898" lon="3.84391">
        <ele>66.967992560856</ele>
        <time>2020-10-09T11:19:36.000Z</time>
      </trkpt>
      <trkpt lat="43.60898" lon="3.84382">
        <ele>66.774006200114</ele>
        <time>2020-10-09T11:19:37.000Z</time>
      </trkpt>
      <trkpt lat="43.60897" lon="3.84373">
        <ele>66.580019839373</ele>
        <time>2020-10-09T11:19:38.000Z</time>
      </trkpt>
      <trkpt lat="43.60897" lon="3.84363">
        <ele>66.386033478632</ele>
        <time>2020-10-09T11:19:39.000Z</time>
      </trkpt>
      <trkpt lat="43.60897" lon="3.84354">
        <ele>66.19204711789</ele>
        <time>2020-10-09T11:19:40.000Z</time>
      </trkpt>
      <trkpt lat="43.60897" lon="3.84344">
        <ele>65.998969401382</ele>
        <time>2020-10-09T11:19:41.000Z</time>
      </trkpt>
      <trkpt lat="43.60898" lon="3.84335">
        <ele>65.895876549857</ele>
        <time>2020-10-09T11:19:42.000Z</time>
      </trkpt>
      <trkpt lat="43.60898" lon="3.84325">
        <ele>65.792783698332</ele>
        <time>2020-10-09T11:19:43.000Z</time>
      </trkpt>
      <trkpt lat="43.609" lon="3.84316">
        <ele>65.689690846806</ele>
        <time>2020-10-09T11:19:44.000Z</time>
      </trkpt>
      <trkpt lat="43.60901" lon="3.84307">
        <ele>65.586597995281</ele>
        <time>2020-10-09T11:19:45.000Z</time>
      </trkpt>
      <trkpt lat="43.60903" lon="3.84299">
        <ele>65.483505143756</ele>
        <time>2020-10-09T11:19:46.000Z</time>
      </trkpt>
      <trkpt lat="43.60903" lon="3.84291">
        <ele>65.380412292231</ele>
        <time>2020-10-09T11:19:47.000Z</time>
      </trkpt>
      <trkpt lat="43.60903" lon="3.84281">
        <ele>65.277319440706</ele>
        <time>2020-10-09T11:19:48.000Z</time>
      </trkpt>
      <trkpt lat="43.60903" lon="3.84271">
        <ele>65.17422658918</ele>
        <time>2020-10-09T11:19:49.000Z</time>
      </trkpt>
      <trkpt lat="43.60903" lon="3.84262">
        <ele>65.071133737655</ele>
        <time>2020-10-09T11:19:50.000Z</time>
      </trkpt>
      <trkpt lat="43.60903" lon="3.84253">
        <ele>64.968968658589</ele>
        <time>2020-10-09T11:19:51.000Z</time>
      </trkpt>
      <trkpt lat="43.60903" lon="3.84243">
        <ele>64.868868590553</ele>
        <time>2020-10-09T11:19:52.000Z</time>
      </trkpt>
      <trkpt lat="43.60902" lon="3.84234">
        <ele>64.768768522517</ele>
        <time>2020-10-09T11:19:53.000Z</time>
      </trkpt>
      <trkpt lat="43.60901" lon="3.84224">
        <ele>64.668668454481</ele>
        <time>2020-10-09T11:19:54.000Z</time>
      </trkpt>
      <trkpt lat="43.609" lon="3.84215">
        <ele>64.568568386445</ele>
        <time>2020-10-09T11:19:55.000Z</time>
      </trkpt>
      <trkpt lat="43.609" lon="3.84206">
        <ele>64.468468318408</ele>
        <time>2020-10-09T11:19:56.000Z</time>
      </trkpt>
      <trkpt lat="43.609" lon="3.84196">
        <ele>64.368368250372</ele>
        <time>2020-10-09T11:19:57.000Z</time>
      </trkpt>
      <trkpt lat="43.609" lon="3.84188">
        <ele>64.268268182336</ele>
        <time>2020-10-09T11:19:58.000Z</time>
      </trkpt>
      <trkpt lat="43.60899" lon="3.84179">
        <ele>64.1681681143</ele>
        <time>2020-10-09T11:19:59.000Z</time>
      </trkpt>
      <trkpt lat="43.60899" lon="3.8417">
        <ele>64.068068046265</ele>
        <time>2020-10-09T11:20:00.000Z</time>
      </trkpt>
      <trkpt lat="43.60899" lon="3.84161">
        <ele>63.937803673564</ele>
        <time>2020-10-09T11:20:01.000Z</time>
      </trkpt>
      <trkpt lat="43.60899" lon="3.84151">
        <ele>63.743440153451</ele>
        <time>2020-10-09T11:20:02.000Z</time>
      </trkpt>
      <trkpt lat="43.60901" lon="3.84142">
        <ele>63.549076633338</ele>
        <time>2020-10-09T11:20:03.000Z</time>
      </trkpt>
      <trkpt lat="43.60903" lon="3.84133">
        <ele>63.354713113225</ele>
        <time>2020-10-09T11:20:04.000Z</time>
      </trkpt>
      <trkpt lat="43.60905" lon="3.84124">
        <ele>63.160349593112</ele>
        <time>2020-10-09T11:20:05.000Z</time>
      </trkpt>
      <trkpt lat="43.60907" lon="3.84115">
        <ele>62.965986072999</ele>
        <time>2020-10-09T11:20:06.000Z</time>
      </trkpt>
      <trkpt lat="43.60909" lon="3.84106">
        <ele>62.771622552886</ele>
        <time>2020-10-09T11:20:07.000Z</time>
      </trkpt>
      <trkpt lat="43.60912" lon="3.84098">
        <ele>62.577259032773</ele>
        <time>2020-10-09T11:20:08.000Z</time>
      </trkpt>
      <trkpt lat="43.60914" lon="3.84089">
        <ele>62.382895512659</ele>
        <time>2020-10-09T11:20:09.000Z</time>
      </trkpt>
      <trkpt lat="43.60917" lon="3.8408">
        <ele>62.188531992546</ele>
        <time>2020-10-09T11:20:10.000Z</time>
      </trkpt>
      <trkpt lat="43.60919" lon="3.84071">
        <ele>61.996984603985</ele>
        <time>2020-10-09T11:20:11.000Z</time>
      </trkpt>
      <trkpt lat="43.60921" lon="3.84062">
        <ele>61.896482123744</ele>
        <time>2020-10-09T11:20:12.000Z</time>
      </trkpt>
      <trkpt lat="43.60923" lon="3.84053">
        <ele>61.795979643504</ele>
        <time>2020-10-09T11:20:13.000Z</time>
      </trkpt>
      <trkpt lat="43.60925" lon="3.84045">
        <ele>61.695477163264</ele>
        <time>2020-10-09T11:20:14.000Z</time>
      </trkpt>
      <trkpt lat="43.60928" lon="3.84037">
        <ele>61.594974683023</ele>
        <time>2020-10-09T11:20:15.000Z</time>
      </trkpt>
      <trkpt lat="43.60931" lon="3.8403">
        <ele>61.494472202783</ele>
        <time>2020-10-09T11:20:16.000Z</time>
      </trkpt>
      <trkpt lat="43.60934" lon="3.84023">
        <ele>61.393969722542</ele>
        <time>2020-10-09T11:20:17.000Z</time>
      </trkpt>
      <trkpt lat="43.60934" lon="3.84015">
        <ele>61.293467242302</ele>
        <time>2020-10-09T11:20:18.000Z</time>
      </trkpt>
      <trkpt lat="43.60934" lon="3.84007">
        <ele>61.192964762062</ele>
        <time>2020-10-09T11:20:19.000Z</time>
      </trkpt>
      <trkpt lat="43.60934" lon="3.83999">
        <ele>61.092462281821</ele>
        <time>2020-10-09T11:20:20.000Z</time>
      </trkpt>
      <trkpt lat="43.60934" lon="3.8399">
        <ele>61.008179953747</ele>
        <time>2020-10-09T11:20:21.000Z</time>
      </trkpt>
      <trkpt lat="43.60935" lon="3.83982">
        <ele>61.110429375588</ele>
        <time>2020-10-09T11:20:22.000Z</time>
      </trkpt>
      <trkpt lat="43.60936" lon="3.83974">
        <ele>61.212678797429</ele>
        <time>2020-10-09T11:20:23.000Z</time>
      </trkpt>
      <trkpt lat="43.60938" lon="3.83965">
        <ele>61.31492821927</ele>
        <time>2020-10-09T11:20:24.000Z</time>
      </trkpt>
      <trkpt lat="43.60939" lon="3.83957">
        <ele>61.417177641111</ele>
        <time>2020-10-09T11:20:25.000Z</time>
      </trkpt>
      <trkpt lat="43.6094" lon="3.83949">
        <ele>61.519427062952</ele>
        <time>2020-10-09T11:20:26.000Z</time>
      </trkpt>
      <trkpt lat="43.60942" lon="3.83941">
        <ele>61.621676484793</ele>
        <time>2020-10-09T11:20:27.000Z</time>
      </trkpt>
      <trkpt lat="43.60943" lon="3.83933">
        <ele>61.723925906633</ele>
        <time>2020-10-09T11:20:28.000Z</time>
      </trkpt>
      <trkpt lat="43.60944" lon="3.83926">
        <ele>61.826175328474</ele>
        <time>2020-10-09T11:20:29.000Z</time>
      </trkpt>
      <trkpt lat="43.60945" lon="3.83918">
        <ele>61.928424750315</ele>
        <time>2020-10-09T11:20:30.000Z</time>
      </trkpt>
      <trkpt lat="43.60946" lon="3.8391">
        <ele>61.969940501765</ele>
        <time>2020-10-09T11:20:31.000Z</time>
      </trkpt>
      <trkpt lat="43.60948" lon="3.83902">
        <ele>61.869740036707</ele>
        <time>2020-10-09T11:20:32.000Z</time>
      </trkpt>
      <trkpt lat="43.60949" lon="3.83895">
        <ele>61.769539571649</ele>
        <time>2020-10-09T11:20:33.000Z</time>
      </trkpt>
      <trkpt lat="43.60951" lon="3.83887">
        <ele>61.66933910659</ele>
        <time>2020-10-09T11:20:34.000Z</time>
      </trkpt>
      <trkpt lat="43.60952" lon="3.8388">
        <ele>61.569138641532</ele>
        <time>2020-10-09T11:20:35.000Z</time>
      </trkpt>
      <trkpt lat="43.60954" lon="3.83872">
        <ele>61.468938176473</ele>
        <time>2020-10-09T11:20:36.000Z</time>
      </trkpt>
      <trkpt lat="43.60955" lon="3.83865">
        <ele>61.368737711415</ele>
        <time>2020-10-09T11:20:37.000Z</time>
      </trkpt>
      <trkpt lat="43.60957" lon="3.83859">
        <ele>61.268537246357</ele>
        <time>2020-10-09T11:20:38.000Z</time>
      </trkpt>
      <trkpt lat="43.60959" lon="3.83852">
        <ele>61.168336781298</ele>
        <time>2020-10-09T11:20:39.000Z</time>
      </trkpt>
      <trkpt lat="43.6096" lon="3.83845">
        <ele>61.06813631624</ele>
        <time>2020-10-09T11:20:40.000Z</time>
      </trkpt>
      <trkpt lat="43.60961" lon="3.83838">
        <ele>61</ele>
        <time>2020-10-09T11:20:41.000Z</time>
      </trkpt>
      <trkpt lat="43.60963" lon="3.8383">
        <ele>61</ele>
        <time>2020-10-09T11:20:42.000Z</time>
      </trkpt>
      <trkpt lat="43.60965" lon="3.83823">
        <ele>61</ele>
        <time>2020-10-09T11:20:43.000Z</time>
      </trkpt>
      <trkpt lat="43.60967" lon="3.83816">
        <ele>61</ele>
        <time>2020-10-09T11:20:44.000Z</time>
      </trkpt>
      <trkpt lat="43.60968" lon="3.83809">
        <ele>61</ele>
        <time>2020-10-09T11:20:45.000Z</time>
      </trkpt>
      <trkpt lat="43.60969" lon="3.83801">
        <ele>61</ele>
        <time>2020-10-09T11:20:46.000Z</time>
      </trkpt>
      <trkpt lat="43.6097" lon="3.83794">
        <ele>61</ele>
        <time>2020-10-09T11:20:47.000Z</time>
      </trkpt>
      <trkpt lat="43.60971" lon="3.83785">
        <ele>61</ele>
        <time>2020-10-09T11:20:48.000Z</time>
      </trkpt>
      <trkpt lat="43.60973" lon="3.83777">
        <ele>61</ele>
        <time>2020-10-09T11:20:49.000Z</time>
      </trkpt>
      <trkpt lat="43.60974" lon="3.83769">
        <ele>61</ele>
        <time>2020-10-09T11:20:50.000Z</time>
      </trkpt>
      <trkpt lat="43.60975" lon="3.83762">
        <ele>61.032</ele>
        <time>2020-10-09T11:20:51.000Z</time>
      </trkpt>
      <trkpt lat="43.60975" lon="3.83755">
        <ele>61.132</ele>
        <time>2020-10-09T11:20:52.000Z</time>
      </trkpt>
      <trkpt lat="43.60975" lon="3.83748">
        <ele>61.232</ele>
        <time>2020-10-09T11:20:53.000Z</time>
      </trkpt>
      <trkpt lat="43.60976" lon="3.83741">
        <ele>61.332</ele>
        <time>2020-10-09T11:20:54.000Z</time>
      </trkpt>
      <trkpt lat="43.60978" lon="3.83735">
        <ele>61.432</ele>
        <time>2020-10-09T11:20:55.000Z</time>
      </trkpt>
      <trkpt lat="43.6098" lon="3.83728">
        <ele>61.532</ele>
        <time>2020-10-09T11:20:56.000Z</time>
      </trkpt>
      <trkpt lat="43.60981" lon="3.83721">
        <ele>61.632</ele>
        <time>2020-10-09T11:20:57.000Z</time>
      </trkpt>
      <trkpt lat="43.60983" lon="3.83714">
        <ele>61.732</ele>
        <time>2020-10-09T11:20:58.000Z</time>
      </trkpt>
      <trkpt lat="43.60985" lon="3.83707">
        <ele>61.832</ele>
        <time>2020-10-09T11:20:59.000Z</time>
      </trkpt>
      <trkpt lat="43.60987" lon="3.83699">
        <ele>61.932</ele>
        <time>2020-10-09T11:21:00.000Z</time>
      </trkpt>
      <trkpt lat="43.60989" lon="3.83692">
        <ele>62</ele>
        <time>2020-10-09T11:21:01.000Z</time>
      </trkpt>
      <trkpt lat="43.60991" lon="3.83685">
        <ele>62</ele>
        <time>2020-10-09T11:21:02.000Z</time>
      </trkpt>
      <trkpt lat="43.60992" lon="3.83678">
        <ele>62</ele>
        <time>2020-10-09T11:21:03.000Z</time>
      </trkpt>
      <trkpt lat="43.60994" lon="3.83671">
        <ele>62</ele>
        <time>2020-10-09T11:21:04.000Z</time>
      </trkpt>
      <trkpt lat="43.60995" lon="3.83663">
        <ele>62</ele>
        <time>2020-10-09T11:21:05.000Z</time>
      </trkpt>
      <trkpt lat="43.60996" lon="3.83656">
        <ele>62</ele>
        <time>2020-10-09T11:21:06.000Z</time>
      </trkpt>
      <trkpt lat="43.60998" lon="3.83649">
        <ele>62</ele>
        <time>2020-10-09T11:21:07.000Z</time>
      </trkpt>
      <trkpt lat="43.61" lon="3.83642">
        <ele>62</ele>
        <time>2020-10-09T11:21:08.000Z</time>
      </trkpt>
      <trkpt lat="43.61001" lon="3.83635">
        <ele>62</ele>
        <time>2020-10-09T11:21:09.000Z</time>
      </trkpt>
      <trkpt lat="43.61003" lon="3.83628">
        <ele>62</ele>
        <time>2020-10-09T11:21:10.000Z</time>
      </trkpt>
      <trkpt lat="43.61004" lon="3.83621">
        <ele>62.032</ele>
        <time>2020-10-09T11:21:11.000Z</time>
      </trkpt>
      <trkpt lat="43.61005" lon="3.83614">
        <ele>62.132</ele>
        <time>2020-10-09T11:21:12.000Z</time>
      </trkpt>
      <trkpt lat="43.61007" lon="3.83607">
        <ele>62.232</ele>
        <time>2020-10-09T11:21:13.000Z</time>
      </trkpt>
      <trkpt lat="43.61008" lon="3.836">
        <ele>62.332</ele>
        <time>2020-10-09T11:21:14.000Z</time>
      </trkpt>
      <trkpt lat="43.61009" lon="3.83593">
        <ele>62.432</ele>
        <time>2020-10-09T11:21:15.000Z</time>
      </trkpt>
      <trkpt lat="43.61011" lon="3.83586">
        <ele>62.532</ele>
        <time>2020-10-09T11:21:16.000Z</time>
      </trkpt>
      <trkpt lat="43.61012" lon="3.8358">
        <ele>62.632</ele>
        <time>2020-10-09T11:21:17.000Z</time>
      </trkpt>
      <trkpt lat="43.61014" lon="3.83573">
        <ele>62.732</ele>
        <time>2020-10-09T11:21:18.000Z</time>
      </trkpt>
      <trkpt lat="43.61015" lon="3.83566">
        <ele>62.832</ele>
        <time>2020-10-09T11:21:19.000Z</time>
      </trkpt>
      <trkpt lat="43.61016" lon="3.83559">
        <ele>62.932</ele>
        <time>2020-10-09T11:21:20.000Z</time>
      </trkpt>
      <trkpt lat="43.61017" lon="3.83552">
        <ele>63</ele>
        <time>2020-10-09T11:21:21.000Z</time>
      </trkpt>
      <trkpt lat="43.61018" lon="3.83545">
        <ele>63</ele>
        <time>2020-10-09T11:21:22.000Z</time>
      </trkpt>
      <trkpt lat="43.6102" lon="3.83539">
        <ele>63</ele>
        <time>2020-10-09T11:21:23.000Z</time>
      </trkpt>
      <trkpt lat="43.61021" lon="3.83532">
        <ele>63</ele>
        <time>2020-10-09T11:21:24.000Z</time>
      </trkpt>
      <trkpt lat="43.61023" lon="3.83524">
        <ele>63</ele>
        <time>2020-10-09T11:21:25.000Z</time>
      </trkpt>
      <trkpt lat="43.61024" lon="3.83517">
        <ele>63</ele>
        <time>2020-10-09T11:21:26.000Z</time>
      </trkpt>
      <trkpt lat="43.61026" lon="3.8351">
        <ele>63</ele>
        <time>2020-10-09T11:21:27.000Z</time>
      </trkpt>
      <trkpt lat="43.61027" lon="3.83503">
        <ele>63</ele>
        <time>2020-10-09T11:21:28.000Z</time>
      </trkpt>
      <trkpt lat="43.61029" lon="3.83495">
        <ele>63</ele>
        <time>2020-10-09T11:21:29.000Z</time>
      </trkpt>
      <trkpt lat="43.6103" lon="3.83488">
        <ele>63</ele>
        <time>2020-10-09T11:21:30.000Z</time>
      </trkpt>
      <trkpt lat="43.61032" lon="3.8348">
        <ele>63.001031661847</ele>
        <time>2020-10-09T11:21:31.000Z</time>
      </trkpt>
      <trkpt lat="43.61033" lon="3.83474">
        <ele>63.104230870334</ele>
        <time>2020-10-09T11:21:32.000Z</time>
      </trkpt>
      <trkpt lat="43.61035" lon="3.83467">
        <ele>63.207430078821</ele>
        <time>2020-10-09T11:21:33.000Z</time>
      </trkpt>
      <trkpt lat="43.61036" lon="3.83461">
        <ele>63.310629287308</ele>
        <time>2020-10-09T11:21:34.000Z</time>
      </trkpt>
      <trkpt lat="43.61037" lon="3.83455">
        <ele>63.413828495795</ele>
        <time>2020-10-09T11:21:35.000Z</time>
      </trkpt>
      <trkpt lat="43.61039" lon="3.8345">
        <ele>63.517027704282</ele>
        <time>2020-10-09T11:21:36.000Z</time>
      </trkpt>
      <trkpt lat="43.61042" lon="3.83447">
        <ele>63.620226912768</ele>
        <time>2020-10-09T11:21:37.000Z</time>
      </trkpt>
      <trkpt lat="43.61045" lon="3.83445">
        <ele>63.723426121255</ele>
        <time>2020-10-09T11:21:38.000Z</time>
      </trkpt>
      <trkpt lat="43.61049" lon="3.83444">
        <ele>63.826625329742</ele>
        <time>2020-10-09T11:21:39.000Z</time>
      </trkpt>
      <trkpt lat="43.61052" lon="3.83441">
        <ele>63.929824538229</ele>
        <time>2020-10-09T11:21:40.000Z</time>
      </trkpt>
      <trkpt lat="43.61054" lon="3.83437">
        <ele>64.032</ele>
        <time>2020-10-09T11:21:41.000Z</time>
      </trkpt>
      <trkpt lat="43.61056" lon="3.83432">
        <ele>64.132</ele>
        <time>2020-10-09T11:21:42.000Z</time>
      </trkpt>
      <trkpt lat="43.61058" lon="3.83427">
        <ele>64.232</ele>
        <time>2020-10-09T11:21:43.000Z</time>
      </trkpt>
      <trkpt lat="43.6106" lon="3.83422">
        <ele>64.332</ele>
        <time>2020-10-09T11:21:44.000Z</time>
      </trkpt>
      <trkpt lat="43.61061" lon="3.83417">
        <ele>64.432</ele>
        <time>2020-10-09T11:21:45.000Z</time>
      </trkpt>
      <trkpt lat="43.61063" lon="3.83412">
        <ele>64.532</ele>
        <time>2020-10-09T11:21:46.000Z</time>
      </trkpt>
      <trkpt lat="43.61064" lon="3.83407">
        <ele>64.632</ele>
        <time>2020-10-09T11:21:47.000Z</time>
      </trkpt>
      <trkpt lat="43.61065" lon="3.83401">
        <ele>64.732</ele>
        <time>2020-10-09T11:21:48.000Z</time>
      </trkpt>
      <trkpt lat="43.61067" lon="3.83395">
        <ele>64.832</ele>
        <time>2020-10-09T11:21:49.000Z</time>
      </trkpt>
      <trkpt lat="43.61068" lon="3.8339">
        <ele>64.932</ele>
        <time>2020-10-09T11:21:50.000Z</time>
      </trkpt>
      <trkpt lat="43.61069" lon="3.83384">
        <ele>65</ele>
        <time>2020-10-09T11:21:51.000Z</time>
      </trkpt>
      <trkpt lat="43.61071" lon="3.83378">
        <ele>65</ele>
        <time>2020-10-09T11:21:52.000Z</time>
      </trkpt>
      <trkpt lat="43.61072" lon="3.83373">
        <ele>65</ele>
        <time>2020-10-09T11:21:53.000Z</time>
      </trkpt>
      <trkpt lat="43.61073" lon="3.83367">
        <ele>65</ele>
        <time>2020-10-09T11:21:54.000Z</time>
      </trkpt>
      <trkpt lat="43.61075" lon="3.83362">
        <ele>65</ele>
        <time>2020-10-09T11:21:55.000Z</time>
      </trkpt>
      <trkpt lat="43.61076" lon="3.83357">
        <ele>65</ele>
        <time>2020-10-09T11:21:56.000Z</time>
      </trkpt>
      <trkpt lat="43.61078" lon="3.83352">
        <ele>65</ele>
        <time>2020-10-09T11:21:57.000Z</time>
      </trkpt>
      <trkpt lat="43.6108" lon="3.83347">
        <ele>65</ele>
        <time>2020-10-09T11:21:58.000Z</time>
      </trkpt>
      <trkpt lat="43.61081" lon="3.83342">
        <ele>65</ele>
        <time>2020-10-09T11:21:59.000Z</time>
      </trkpt>
      <trkpt lat="43.61083" lon="3.83337">
        <ele>65</ele>
        <time>2020-10-09T11:22:00.000Z</time>
      </trkpt>
      <trkpt lat="43.61084" lon="3.83332">
        <ele>65.032</ele>
        <time>2020-10-09T11:22:01.000Z</time>
      </trkpt>
      <trkpt lat="43.61086" lon="3.83327">
        <ele>65.132</ele>
        <time>2020-10-09T11:22:02.000Z</time>
      </trkpt>
      <trkpt lat="43.61087" lon="3.83321">
        <ele>65.232</ele>
        <time>2020-10-09T11:22:03.000Z</time>
      </trkpt>
      <trkpt lat="43.61089" lon="3.83316">
        <ele>65.332</ele>
        <time>2020-10-09T11:22:04.000Z</time>
      </trkpt>
      <trkpt lat="43.6109" lon="3.8331">
        <ele>65.432</ele>
        <time>2020-10-09T11:22:05.000Z</time>
      </trkpt>
      <trkpt lat="43.61092" lon="3.83305">
        <ele>65.532</ele>
        <time>2020-10-09T11:22:06.000Z</time>
      </trkpt>
      <trkpt lat="43.61094" lon="3.83299">
        <ele>65.632</ele>
        <time>2020-10-09T11:22:07.000Z</time>
      </trkpt>
      <trkpt lat="43.61095" lon="3.83293">
        <ele>65.732</ele>
        <time>2020-10-09T11:22:08.000Z</time>
      </trkpt>
      <trkpt lat="43.61097" lon="3.83287">
        <ele>65.832</ele>
        <time>2020-10-09T11:22:09.000Z</time>
      </trkpt>
      <trkpt lat="43.61099" lon="3.83281">
        <ele>65.932</ele>
        <time>2020-10-09T11:22:10.000Z</time>
      </trkpt>
      <trkpt lat="43.61101" lon="3.83274">
        <ele>66</ele>
        <time>2020-10-09T11:22:11.000Z</time>
      </trkpt>
      <trkpt lat="43.61103" lon="3.83267">
        <ele>66</ele>
        <time>2020-10-09T11:22:12.000Z</time>
      </trkpt>
      <trkpt lat="43.61104" lon="3.8326">
        <ele>66</ele>
        <time>2020-10-09T11:22:13.000Z</time>
      </trkpt>
      <trkpt lat="43.61106" lon="3.83253">
        <ele>66</ele>
        <time>2020-10-09T11:22:14.000Z</time>
      </trkpt>
      <trkpt lat="43.61108" lon="3.83247">
        <ele>66</ele>
        <time>2020-10-09T11:22:15.000Z</time>
      </trkpt>
      <trkpt lat="43.6111" lon="3.83241">
        <ele>66</ele>
        <time>2020-10-09T11:22:16.000Z</time>
      </trkpt>
      <trkpt lat="43.61111" lon="3.83237">
        <ele>66</ele>
        <time>2020-10-09T11:22:17.000Z</time>
      </trkpt>
      <trkpt lat="43.61112" lon="3.83234">
        <ele>66</ele>
        <time>2020-10-09T11:22:18.000Z</time>
      </trkpt>
      <trkpt lat="43.61114" lon="3.83232">
        <ele>66</ele>
        <time>2020-10-09T11:22:19.000Z</time>
      </trkpt>
      <trkpt lat="43.61116" lon="3.83229">
        <ele>66</ele>
        <time>2020-10-09T11:22:20.000Z</time>
      </trkpt>
      <trkpt lat="43.61118" lon="3.83225">
        <ele>66.064</ele>
        <time>2020-10-09T11:22:21.000Z</time>
      </trkpt>
      <trkpt lat="43.6112" lon="3.83221">
        <ele>66.264</ele>
        <time>2020-10-09T11:22:22.000Z</time>
      </trkpt>
      <trkpt lat="43.61121" lon="3.83216">
        <ele>66.464</ele>
        <time>2020-10-09T11:22:23.000Z</time>
      </trkpt>
      <trkpt lat="43.61123" lon="3.8321">
        <ele>66.664</ele>
        <time>2020-10-09T11:22:24.000Z</time>
      </trkpt>
      <trkpt lat="43.61124" lon="3.83204">
        <ele>66.864</ele>
        <time>2020-10-09T11:22:25.000Z</time>
      </trkpt>
      <trkpt lat="43.61126" lon="3.83198">
        <ele>67.064</ele>
        <time>2020-10-09T11:22:26.000Z</time>
      </trkpt>
      <trkpt lat="43.61128" lon="3.83192">
        <ele>67.264</ele>
        <time>2020-10-09T11:22:27.000Z</time>
      </trkpt>
      <trkpt lat="43.6113" lon="3.83185">
        <ele>67.464</ele>
        <time>2020-10-09T11:22:28.000Z</time>
      </trkpt>
      <trkpt lat="43.61132" lon="3.83178">
        <ele>67.664</ele>
        <time>2020-10-09T11:22:29.000Z</time>
      </trkpt>
      <trkpt lat="43.61133" lon="3.83171">
        <ele>67.864</ele>
        <time>2020-10-09T11:22:30.000Z</time>
      </trkpt>
      <trkpt lat="43.61135" lon="3.83164">
        <ele>67.968534896688</ele>
        <time>2020-10-09T11:22:31.000Z</time>
      </trkpt>
      <trkpt lat="43.61137" lon="3.83156">
        <ele>67.870206448836</ele>
        <time>2020-10-09T11:22:32.000Z</time>
      </trkpt>
      <trkpt lat="43.61138" lon="3.83149">
        <ele>67.771878000984</ele>
        <time>2020-10-09T11:22:33.000Z</time>
      </trkpt>
      <trkpt lat="43.6114" lon="3.83141">
        <ele>67.673549553133</ele>
        <time>2020-10-09T11:22:34.000Z</time>
      </trkpt>
      <trkpt lat="43.61142" lon="3.83134">
        <ele>67.575221105281</ele>
        <time>2020-10-09T11:22:35.000Z</time>
      </trkpt>
      <trkpt lat="43.61143" lon="3.83126">
        <ele>67.476892657429</ele>
        <time>2020-10-09T11:22:36.000Z</time>
      </trkpt>
      <trkpt lat="43.61145" lon="3.83118">
        <ele>67.378564209578</ele>
        <time>2020-10-09T11:22:37.000Z</time>
      </trkpt>
      <trkpt lat="43.61146" lon="3.8311">
        <ele>67.280235761726</ele>
        <time>2020-10-09T11:22:38.000Z</time>
      </trkpt>
      <trkpt lat="43.61148" lon="3.83102">
        <ele>67.181907313875</ele>
        <time>2020-10-09T11:22:39.000Z</time>
      </trkpt>
      <trkpt lat="43.6115" lon="3.83095">
        <ele>67.083578866023</ele>
        <time>2020-10-09T11:22:40.000Z</time>
      </trkpt>
      <trkpt lat="43.61152" lon="3.83087">
        <ele>67</ele>
        <time>2020-10-09T11:22:41.000Z</time>
      </trkpt>
      <trkpt lat="43.61154" lon="3.83079">
        <ele>67</ele>
        <time>2020-10-09T11:22:42.000Z</time>
      </trkpt>
      <trkpt lat="43.61156" lon="3.83071">
        <ele>67</ele>
        <time>2020-10-09T11:22:43.000Z</time>
      </trkpt>
      <trkpt lat="43.61158" lon="3.83064">
        <ele>67</ele>
        <time>2020-10-09T11:22:44.000Z</time>
      </trkpt>
      <trkpt lat="43.6116" lon="3.83056">
        <ele>67</ele>
        <time>2020-10-09T11:22:45.000Z</time>
      </trkpt>
      <trkpt lat="43.61162" lon="3.83049">
        <ele>67</ele>
        <time>2020-10-09T11:22:46.000Z</time>
      </trkpt>
      <trkpt lat="43.61164" lon="3.83042">
        <ele>67</ele>
        <time>2020-10-09T11:22:47.000Z</time>
      </trkpt>
      <trkpt lat="43.61166" lon="3.83035">
        <ele>67</ele>
        <time>2020-10-09T11:22:48.000Z</time>
      </trkpt>
      <trkpt lat="43.61169" lon="3.83029">
        <ele>67</ele>
        <time>2020-10-09T11:22:49.000Z</time>
      </trkpt>
      <trkpt lat="43.61171" lon="3.83022">
        <ele>67</ele>
        <time>2020-10-09T11:22:50.000Z</time>
      </trkpt>
      <trkpt lat="43.61173" lon="3.83015">
        <ele>66.941826099683</ele>
        <time>2020-10-09T11:22:51.000Z</time>
      </trkpt>
      <trkpt lat="43.61175" lon="3.83008">
        <ele>66.741224229881</ele>
        <time>2020-10-09T11:22:52.000Z</time>
      </trkpt>
      <trkpt lat="43.61177" lon="3.83002">
        <ele>66.540622360079</ele>
        <time>2020-10-09T11:22:53.000Z</time>
      </trkpt>
      <trkpt lat="43.6118" lon="3.82996">
        <ele>66.340020490277</ele>
        <time>2020-10-09T11:22:54.000Z</time>
      </trkpt>
      <trkpt lat="43.61183" lon="3.8299">
        <ele>66.139418620475</ele>
        <time>2020-10-09T11:22:55.000Z</time>
      </trkpt>
      <trkpt lat="43.61185" lon="3.82984">
        <ele>65.938816750673</ele>
        <time>2020-10-09T11:22:56.000Z</time>
      </trkpt>
      <trkpt lat="43.61187" lon="3.82978">
        <ele>65.738214880871</ele>
        <time>2020-10-09T11:22:57.000Z</time>
      </trkpt>
      <trkpt lat="43.61189" lon="3.82972">
        <ele>65.537613011069</ele>
        <time>2020-10-09T11:22:58.000Z</time>
      </trkpt>
      <trkpt lat="43.61191" lon="3.82966">
        <ele>65.337011141267</ele>
        <time>2020-10-09T11:22:59.000Z</time>
      </trkpt>
      <trkpt lat="43.61191" lon="3.82959">
        <ele>65.136409271465</ele>
        <time>2020-10-09T11:23:00.000Z</time>
      </trkpt>
      <trkpt lat="43.6119" lon="3.82952">
        <ele>64.968</ele>
        <time>2020-10-09T11:23:01.000Z</time>
      </trkpt>
      <trkpt lat="43.6119" lon="3.82945">
        <ele>64.868</ele>
        <time>2020-10-09T11:23:02.000Z</time>
      </trkpt>
      <trkpt lat="43.61189" lon="3.82938">
        <ele>64.768</ele>
        <time>2020-10-09T11:23:03.000Z</time>
      </trkpt>
      <trkpt lat="43.61189" lon="3.82931">
        <ele>64.668</ele>
        <time>2020-10-09T11:23:04.000Z</time>
      </trkpt>
      <trkpt lat="43.61188" lon="3.82924">
        <ele>64.568</ele>
        <time>2020-10-09T11:23:05.000Z</time>
      </trkpt>
      <trkpt lat="43.61187" lon="3.82917">
        <ele>64.468</ele>
        <time>2020-10-09T11:23:06.000Z</time>
      </trkpt>
      <trkpt lat="43.61185" lon="3.8291">
        <ele>64.368</ele>
        <time>2020-10-09T11:23:07.000Z</time>
      </trkpt>
      <trkpt lat="43.61184" lon="3.82903">
        <ele>64.268</ele>
        <time>2020-10-09T11:23:08.000Z</time>
      </trkpt>
      <trkpt lat="43.61182" lon="3.82897">
        <ele>64.168</ele>
        <time>2020-10-09T11:23:09.000Z</time>
      </trkpt>
      <trkpt lat="43.6118" lon="3.82891">
        <ele>64.068</ele>
        <time>2020-10-09T11:23:10.000Z</time>
      </trkpt>
      <trkpt lat="43.61179" lon="3.82885">
        <ele>64</ele>
        <time>2020-10-09T11:23:11.000Z</time>
      </trkpt>
      <trkpt lat="43.61177" lon="3.82879">
        <ele>64</ele>
        <time>2020-10-09T11:23:12.000Z</time>
      </trkpt>
      <trkpt lat="43.61176" lon="3.82873">
        <ele>64</ele>
        <time>2020-10-09T11:23:13.000Z</time>
      </trkpt>
      <trkpt lat="43.61174" lon="3.82868">
        <ele>64</ele>
        <time>2020-10-09T11:23:14.000Z</time>
      </trkpt>
      <trkpt lat="43.61173" lon="3.82862">
        <ele>64</ele>
        <time>2020-10-09T11:23:15.000Z</time>
      </trkpt>
      <trkpt lat="43.61171" lon="3.82856">
        <ele>64</ele>
        <time>2020-10-09T11:23:16.000Z</time>
      </trkpt>
      <trkpt lat="43.6117" lon="3.82851">
        <ele>64</ele>
        <time>2020-10-09T11:23:17.000Z</time>
      </trkpt>
      <trkpt lat="43.61169" lon="3.82845">
        <ele>64</ele>
        <time>2020-10-09T11:23:18.000Z</time>
      </trkpt>
      <trkpt lat="43.61167" lon="3.82839">
        <ele>64</ele>
        <time>2020-10-09T11:23:19.000Z</time>
      </trkpt>
      <trkpt lat="43.61166" lon="3.82833">
        <ele>64</ele>
        <time>2020-10-09T11:23:20.000Z</time>
      </trkpt>
      <trkpt lat="43.61165" lon="3.82827">
        <ele>63.995884773663</ele>
        <time>2020-10-09T11:23:21.000Z</time>
      </trkpt>
      <trkpt lat="43.61164" lon="3.82821">
        <ele>63.893004115226</ele>
        <time>2020-10-09T11:23:22.000Z</time>
      </trkpt>
      <trkpt lat="43.61163" lon="3.82814">
        <ele>63.79012345679</ele>
        <time>2020-10-09T11:23:23.000Z</time>
      </trkpt>
      <trkpt lat="43.61162" lon="3.82808">
        <ele>63.687242798354</ele>
        <time>2020-10-09T11:23:24.000Z</time>
      </trkpt>
      <trkpt lat="43.61163" lon="3.82801">
        <ele>63.584362139918</ele>
        <time>2020-10-09T11:23:25.000Z</time>
      </trkpt>
      <trkpt lat="43.61163" lon="3.82795">
        <ele>63.481481481482</ele>
        <time>2020-10-09T11:23:26.000Z</time>
      </trkpt>
      <trkpt lat="43.61165" lon="3.82788">
        <ele>63.378600823045</ele>
        <time>2020-10-09T11:23:27.000Z</time>
      </trkpt>
      <trkpt lat="43.61166" lon="3.82782">
        <ele>63.275720164609</ele>
        <time>2020-10-09T11:23:28.000Z</time>
      </trkpt>
      <trkpt lat="43.61166" lon="3.82775">
        <ele>63.172839506173</ele>
        <time>2020-10-09T11:23:29.000Z</time>
      </trkpt>
      <trkpt lat="43.61166" lon="3.82769">
        <ele>63.069958847737</ele>
        <time>2020-10-09T11:23:30.000Z</time>
      </trkpt>
      <trkpt lat="43.61168" lon="3.82764">
        <ele>62.936063915625</ele>
        <time>2020-10-09T11:23:31.000Z</time>
      </trkpt>
      <trkpt lat="43.61171" lon="3.82761">
        <ele>62.736263651952</ele>
        <time>2020-10-09T11:23:32.000Z</time>
      </trkpt>
      <trkpt lat="43.61173" lon="3.82758">
        <ele>62.53646338828</ele>
        <time>2020-10-09T11:23:33.000Z</time>
      </trkpt>
      <trkpt lat="43.61173" lon="3.82755">
        <ele>62.336663124608</ele>
        <time>2020-10-09T11:23:34.000Z</time>
      </trkpt>
      <trkpt lat="43.61172" lon="3.82753">
        <ele>62.136862860935</ele>
        <time>2020-10-09T11:23:35.000Z</time>
      </trkpt>
      <trkpt lat="43.61171" lon="3.8275">
        <ele>61.73726233359</ele>
        <time>2020-10-09T11:23:37.000Z</time>
      </trkpt>
      <trkpt lat="43.61171" lon="3.82752">
        <ele>60.985841466574</ele>
        <time>2020-10-09T11:23:42.000Z</time>
      </trkpt>
      <trkpt lat="43.61168" lon="3.82747">
        <ele>55</ele>
        <time>2020-10-09T11:28:00.000Z</time>
      </trkpt>
      <trkpt lat="43.61169" lon="3.82744">
        <ele>55.084299290807</ele>
        <time>2020-10-09T11:28:01.000Z</time>
      </trkpt>
      <trkpt lat="43.61169" lon="3.82741">
        <ele>55.189673404316</ele>
        <time>2020-10-09T11:28:02.000Z</time>
      </trkpt>
      <trkpt lat="43.6117" lon="3.82737">
        <ele>55.295047517824</ele>
        <time>2020-10-09T11:28:03.000Z</time>
      </trkpt>
      <trkpt lat="43.6117" lon="3.82734">
        <ele>55.400421631333</ele>
        <time>2020-10-09T11:28:04.000Z</time>
      </trkpt>
      <trkpt lat="43.61171" lon="3.8273">
        <ele>55.505795744842</ele>
        <time>2020-10-09T11:28:05.000Z</time>
      </trkpt>
      <trkpt lat="43.61172" lon="3.82726">
        <ele>55.61116985835</ele>
        <time>2020-10-09T11:28:06.000Z</time>
      </trkpt>
      <trkpt lat="43.61173" lon="3.82722">
        <ele>55.716543971859</ele>
        <time>2020-10-09T11:28:07.000Z</time>
      </trkpt>
      <trkpt lat="43.61173" lon="3.82718">
        <ele>55.821918085367</ele>
        <time>2020-10-09T11:28:08.000Z</time>
      </trkpt>
      <trkpt lat="43.61174" lon="3.82713">
        <ele>55.927292198876</ele>
        <time>2020-10-09T11:28:09.000Z</time>
      </trkpt>
      <trkpt lat="43.61175" lon="3.8271">
        <ele>56</ele>
        <time>2020-10-09T11:28:10.000Z</time>
      </trkpt>
      <trkpt lat="43.61176" lon="3.82706">
        <ele>56</ele>
        <time>2020-10-09T11:28:11.000Z</time>
      </trkpt>
      <trkpt lat="43.61176" lon="3.82703">
        <ele>56</ele>
        <time>2020-10-09T11:28:12.000Z</time>
      </trkpt>
      <trkpt lat="43.61176" lon="3.82699">
        <ele>56</ele>
        <time>2020-10-09T11:28:13.000Z</time>
      </trkpt>
      <trkpt lat="43.61177" lon="3.82695">
        <ele>56</ele>
        <time>2020-10-09T11:28:14.000Z</time>
      </trkpt>
      <trkpt lat="43.61178" lon="3.82692">
        <ele>56</ele>
        <time>2020-10-09T11:28:15.000Z</time>
      </trkpt>
      <trkpt lat="43.61178" lon="3.82689">
        <ele>56</ele>
        <time>2020-10-09T11:28:16.000Z</time>
      </trkpt>
      <trkpt lat="43.61179" lon="3.82685">
        <ele>56</ele>
        <time>2020-10-09T11:28:17.000Z</time>
      </trkpt>
      <trkpt lat="43.6118" lon="3.82681">
        <ele>56</ele>
        <time>2020-10-09T11:28:18.000Z</time>
      </trkpt>
      <trkpt lat="43.6118" lon="3.82677">
        <ele>56</ele>
        <time>2020-10-09T11:28:19.000Z</time>
      </trkpt>
      <trkpt lat="43.61181" lon="3.82673">
        <ele>56.003089926891</ele>
        <time>2020-10-09T11:28:20.000Z</time>
      </trkpt>
      <trkpt lat="43.61182" lon="3.82669">
        <ele>56.106076504692</ele>
        <time>2020-10-09T11:28:21.000Z</time>
      </trkpt>
      <trkpt lat="43.61183" lon="3.82665">
        <ele>56.209063082492</ele>
        <time>2020-10-09T11:28:22.000Z</time>
      </trkpt>
      <trkpt lat="43.61184" lon="3.82661">
        <ele>56.312049660293</ele>
        <time>2020-10-09T11:28:23.000Z</time>
      </trkpt>
      <trkpt lat="43.61184" lon="3.82657">
        <ele>56.415036238093</ele>
        <time>2020-10-09T11:28:24.000Z</time>
      </trkpt>
      <trkpt lat="43.61185" lon="3.82653">
        <ele>56.518022815894</ele>
        <time>2020-10-09T11:28:25.000Z</time>
      </trkpt>
      <trkpt lat="43.61185" lon="3.82648">
        <ele>56.621009393694</ele>
        <time>2020-10-09T11:28:26.000Z</time>
      </trkpt>
      <trkpt lat="43.61186" lon="3.82644">
        <ele>56.723995971495</ele>
        <time>2020-10-09T11:28:27.000Z</time>
      </trkpt>
      <trkpt lat="43.61187" lon="3.82639">
        <ele>56.826982549295</ele>
        <time>2020-10-09T11:28:28.000Z</time>
      </trkpt>
      <trkpt lat="43.61187" lon="3.82635">
        <ele>56.929969127096</ele>
        <time>2020-10-09T11:28:29.000Z</time>
      </trkpt>
      <trkpt lat="43.61188" lon="3.8263">
        <ele>57</ele>
        <time>2020-10-09T11:28:30.000Z</time>
      </trkpt>
      <trkpt lat="43.61189" lon="3.82625">
        <ele>57</ele>
        <time>2020-10-09T11:28:31.000Z</time>
      </trkpt>
      <trkpt lat="43.61189" lon="3.82621">
        <ele>57</ele>
        <time>2020-10-09T11:28:32.000Z</time>
      </trkpt>
      <trkpt lat="43.61189" lon="3.82616">
        <ele>57</ele>
        <time>2020-10-09T11:28:33.000Z</time>
      </trkpt>
      <trkpt lat="43.6119" lon="3.82611">
        <ele>57</ele>
        <time>2020-10-09T11:28:34.000Z</time>
      </trkpt>
      <trkpt lat="43.6119" lon="3.82606">
        <ele>57</ele>
        <time>2020-10-09T11:28:35.000Z</time>
      </trkpt>
      <trkpt lat="43.61191" lon="3.82602">
        <ele>57</ele>
        <time>2020-10-09T11:28:36.000Z</time>
      </trkpt>
      <trkpt lat="43.61192" lon="3.82597">
        <ele>57</ele>
        <time>2020-10-09T11:28:37.000Z</time>
      </trkpt>
      <trkpt lat="43.61192" lon="3.82592">
        <ele>57</ele>
        <time>2020-10-09T11:28:38.000Z</time>
      </trkpt>
      <trkpt lat="43.61193" lon="3.82588">
        <ele>57</ele>
        <time>2020-10-09T11:28:39.000Z</time>
      </trkpt>
      <trkpt lat="43.61193" lon="3.82583">
        <ele>56.969397541341</ele>
        <time>2020-10-09T11:28:40.000Z</time>
      </trkpt>
      <trkpt lat="43.61194" lon="3.82579">
        <ele>56.870680951773</ele>
        <time>2020-10-09T11:28:41.000Z</time>
      </trkpt>
      <trkpt lat="43.61195" lon="3.82574">
        <ele>56.771964362206</ele>
        <time>2020-10-09T11:28:42.000Z</time>
      </trkpt>
      <trkpt lat="43.61195" lon="3.8257">
        <ele>56.673247772638</ele>
        <time>2020-10-09T11:28:43.000Z</time>
      </trkpt>
      <trkpt lat="43.61196" lon="3.82566">
        <ele>56.57453118307</ele>
        <time>2020-10-09T11:28:44.000Z</time>
      </trkpt>
      <trkpt lat="43.61197" lon="3.82562">
        <ele>56.475814593502</ele>
        <time>2020-10-09T11:28:45.000Z</time>
      </trkpt>
      <trkpt lat="43.61198" lon="3.82558">
        <ele>56.377098003935</ele>
        <time>2020-10-09T11:28:46.000Z</time>
      </trkpt>
      <trkpt lat="43.61198" lon="3.82554">
        <ele>56.278381414367</ele>
        <time>2020-10-09T11:28:47.000Z</time>
      </trkpt>
      <trkpt lat="43.61199" lon="3.8255">
        <ele>56.179664824799</ele>
        <time>2020-10-09T11:28:48.000Z</time>
      </trkpt>
      <trkpt lat="43.61201" lon="3.82546">
        <ele>56.080948235232</ele>
        <time>2020-10-09T11:28:49.000Z</time>
      </trkpt>
      <trkpt lat="43.61202" lon="3.82544">
        <ele>55.981745059145</ele>
        <time>2020-10-09T11:28:50.000Z</time>
      </trkpt>
      <trkpt lat="43.61204" lon="3.82542">
        <ele>55.880325115018</ele>
        <time>2020-10-09T11:28:51.000Z</time>
      </trkpt>
      <trkpt lat="43.61207" lon="3.82541">
        <ele>55.778905170892</ele>
        <time>2020-10-09T11:28:52.000Z</time>
      </trkpt>
      <trkpt lat="43.61209" lon="3.82539">
        <ele>55.677485226765</ele>
        <time>2020-10-09T11:28:53.000Z</time>
      </trkpt>
      <trkpt lat="43.61211" lon="3.82537">
        <ele>55.576065282639</ele>
        <time>2020-10-09T11:28:54.000Z</time>
      </trkpt>
      <trkpt lat="43.61214" lon="3.82536">
        <ele>55.474645338512</ele>
        <time>2020-10-09T11:28:55.000Z</time>
      </trkpt>
      <trkpt lat="43.61216" lon="3.82534">
        <ele>55.373225394386</ele>
        <time>2020-10-09T11:28:56.000Z</time>
      </trkpt>
      <trkpt lat="43.61218" lon="3.82533">
        <ele>55.271805450259</ele>
        <time>2020-10-09T11:28:57.000Z</time>
      </trkpt>
      <trkpt lat="43.61221" lon="3.82531">
        <ele>55.170385506133</ele>
        <time>2020-10-09T11:28:58.000Z</time>
      </trkpt>
      <trkpt lat="43.61225" lon="3.82528">
        <ele>55.068965562006</ele>
        <time>2020-10-09T11:28:59.000Z</time>
      </trkpt>
      <trkpt lat="43.61229" lon="3.82526">
        <ele>55</ele>
        <time>2020-10-09T11:29:00.000Z</time>
      </trkpt>
      <trkpt lat="43.61232" lon="3.82524">
        <ele>55</ele>
        <time>2020-10-09T11:29:01.000Z</time>
      </trkpt>
      <trkpt lat="43.61236" lon="3.82521">
        <ele>55</ele>
        <time>2020-10-09T11:29:02.000Z</time>
      </trkpt>
      <trkpt lat="43.6124" lon="3.82519">
        <ele>55</ele>
        <time>2020-10-09T11:29:03.000Z</time>
      </trkpt>
      <trkpt lat="43.61245" lon="3.82517">
        <ele>55</ele>
        <time>2020-10-09T11:29:04.000Z</time>
      </trkpt>
      <trkpt lat="43.6125" lon="3.82515">
        <ele>55</ele>
        <time>2020-10-09T11:29:05.000Z</time>
      </trkpt>
      <trkpt lat="43.61256" lon="3.82512">
        <ele>55</ele>
        <time>2020-10-09T11:29:06.000Z</time>
      </trkpt>
      <trkpt lat="43.61261" lon="3.8251">
        <ele>55</ele>
        <time>2020-10-09T11:29:07.000Z</time>
      </trkpt>
      <trkpt lat="43.61266" lon="3.82507">
        <ele>55</ele>
        <time>2020-10-09T11:29:08.000Z</time>
      </trkpt>
      <trkpt lat="43.6127" lon="3.82504">
        <ele>55</ele>
        <time>2020-10-09T11:29:09.000Z</time>
      </trkpt>
      <trkpt lat="43.61275" lon="3.82501">
        <ele>54.968</ele>
        <time>2020-10-09T11:29:10.000Z</time>
      </trkpt>
      <trkpt lat="43.61279" lon="3.82497">
        <ele>54.868</ele>
        <time>2020-10-09T11:29:11.000Z</time>
      </trkpt>
      <trkpt lat="43.61283" lon="3.82493">
        <ele>54.768</ele>
        <time>2020-10-09T11:29:12.000Z</time>
      </trkpt>
      <trkpt lat="43.61286" lon="3.82488">
        <ele>54.668</ele>
        <time>2020-10-09T11:29:13.000Z</time>
      </trkpt>
      <trkpt lat="43.6129" lon="3.82484">
        <ele>54.568</ele>
        <time>2020-10-09T11:29:14.000Z</time>
      </trkpt>
      <trkpt lat="43.61293" lon="3.82479">
        <ele>54.468</ele>
        <time>2020-10-09T11:29:15.000Z</time>
      </trkpt>
      <trkpt lat="43.61296" lon="3.82473">
        <ele>54.368</ele>
        <time>2020-10-09T11:29:16.000Z</time>
      </trkpt>
      <trkpt lat="43.61299" lon="3.82467">
        <ele>54.268</ele>
        <time>2020-10-09T11:29:17.000Z</time>
      </trkpt>
      <trkpt lat="43.61301" lon="3.8246">
        <ele>54.168</ele>
        <time>2020-10-09T11:29:18.000Z</time>
      </trkpt>
      <trkpt lat="43.61303" lon="3.82454">
        <ele>54.068</ele>
        <time>2020-10-09T11:29:19.000Z</time>
      </trkpt>
      <trkpt lat="43.61306" lon="3.82447">
        <ele>53.969407284493</ele>
        <time>2020-10-09T11:29:20.000Z</time>
      </trkpt>
      <trkpt lat="43.61307" lon="3.82441">
        <ele>53.873805048532</ele>
        <time>2020-10-09T11:29:21.000Z</time>
      </trkpt>
      <trkpt lat="43.61309" lon="3.82435">
        <ele>53.778202812572</ele>
        <time>2020-10-09T11:29:22.000Z</time>
      </trkpt>
      <trkpt lat="43.6131" lon="3.82429">
        <ele>53.682600576611</ele>
        <time>2020-10-09T11:29:23.000Z</time>
      </trkpt>
      <trkpt lat="43.6131" lon="3.82422">
        <ele>53.586998340651</ele>
        <time>2020-10-09T11:29:24.000Z</time>
      </trkpt>
      <trkpt lat="43.61311" lon="3.82416">
        <ele>53.491396104691</ele>
        <time>2020-10-09T11:29:25.000Z</time>
      </trkpt>
      <trkpt lat="43.61311" lon="3.8241">
        <ele>53.39579386873</ele>
        <time>2020-10-09T11:29:26.000Z</time>
      </trkpt>
      <trkpt lat="43.61311" lon="3.82404">
        <ele>53.30019163277</ele>
        <time>2020-10-09T11:29:27.000Z</time>
      </trkpt>
      <trkpt lat="43.61312" lon="3.82398">
        <ele>53.20458939681</ele>
        <time>2020-10-09T11:29:28.000Z</time>
      </trkpt>
      <trkpt lat="43.61311" lon="3.82392">
        <ele>53.108987160849</ele>
        <time>2020-10-09T11:29:29.000Z</time>
      </trkpt>
      <trkpt lat="43.61309" lon="3.82386">
        <ele>53.013384924889</ele>
        <time>2020-10-09T11:29:30.000Z</time>
      </trkpt>
      <trkpt lat="43.61309" lon="3.8238">
        <ele>53</ele>
        <time>2020-10-09T11:29:31.000Z</time>
      </trkpt>
      <trkpt lat="43.61308" lon="3.82375">
        <ele>53</ele>
        <time>2020-10-09T11:29:32.000Z</time>
      </trkpt>
      <trkpt lat="43.61307" lon="3.82369">
        <ele>53</ele>
        <time>2020-10-09T11:29:33.000Z</time>
      </trkpt>
      <trkpt lat="43.61307" lon="3.82364">
        <ele>53</ele>
        <time>2020-10-09T11:29:34.000Z</time>
      </trkpt>
      <trkpt lat="43.61306" lon="3.82359">
        <ele>53</ele>
        <time>2020-10-09T11:29:35.000Z</time>
      </trkpt>
      <trkpt lat="43.61305" lon="3.82355">
        <ele>53</ele>
        <time>2020-10-09T11:29:36.000Z</time>
      </trkpt>
      <trkpt lat="43.61304" lon="3.82351">
        <ele>53</ele>
        <time>2020-10-09T11:29:37.000Z</time>
      </trkpt>
      <trkpt lat="43.61303" lon="3.82346">
        <ele>53</ele>
        <time>2020-10-09T11:29:38.000Z</time>
      </trkpt>
      <trkpt lat="43.61303" lon="3.82343">
        <ele>53</ele>
        <time>2020-10-09T11:29:39.000Z</time>
      </trkpt>
      <trkpt lat="43.61304" lon="3.82338">
        <ele>52.968</ele>
        <time>2020-10-09T11:29:40.000Z</time>
      </trkpt>
      <trkpt lat="43.61306" lon="3.82331">
        <ele>52.868</ele>
        <time>2020-10-09T11:29:41.000Z</time>
      </trkpt>
      <trkpt lat="43.61308" lon="3.82324">
        <ele>52.768</ele>
        <time>2020-10-09T11:29:42.000Z</time>
      </trkpt>
      <trkpt lat="43.61311" lon="3.82318">
        <ele>52.668</ele>
        <time>2020-10-09T11:29:43.000Z</time>
      </trkpt>
      <trkpt lat="43.61314" lon="3.82312">
        <ele>52.568</ele>
        <time>2020-10-09T11:29:44.000Z</time>
      </trkpt>
      <trkpt lat="43.61317" lon="3.82308">
        <ele>52.468</ele>
        <time>2020-10-09T11:29:45.000Z</time>
      </trkpt>
      <trkpt lat="43.61321" lon="3.82304">
        <ele>52.368</ele>
        <time>2020-10-09T11:29:46.000Z</time>
      </trkpt>
      <trkpt lat="43.61325" lon="3.82301">
        <ele>52.268</ele>
        <time>2020-10-09T11:29:47.000Z</time>
      </trkpt>
      <trkpt lat="43.61329" lon="3.82298">
        <ele>52.168</ele>
        <time>2020-10-09T11:29:48.000Z</time>
      </trkpt>
      <trkpt lat="43.61332" lon="3.82295">
        <ele>52.068</ele>
        <time>2020-10-09T11:29:49.000Z</time>
      </trkpt>
      <trkpt lat="43.61335" lon="3.82292">
        <ele>51.968</ele>
        <time>2020-10-09T11:29:50.000Z</time>
      </trkpt>
      <trkpt lat="43.61339" lon="3.82288">
        <ele>51.868</ele>
        <time>2020-10-09T11:29:51.000Z</time>
      </trkpt>
      <trkpt lat="43.61342" lon="3.82284">
        <ele>51.768</ele>
        <time>2020-10-09T11:29:52.000Z</time>
      </trkpt>
      <trkpt lat="43.61346" lon="3.82281">
        <ele>51.668</ele>
        <time>2020-10-09T11:29:53.000Z</time>
      </trkpt>
      <trkpt lat="43.61349" lon="3.82277">
        <ele>51.568</ele>
        <time>2020-10-09T11:29:54.000Z</time>
      </trkpt>
      <trkpt lat="43.61354" lon="3.82274">
        <ele>51.468</ele>
        <time>2020-10-09T11:29:55.000Z</time>
      </trkpt>
      <trkpt lat="43.61359" lon="3.82271">
        <ele>51.368</ele>
        <time>2020-10-09T11:29:56.000Z</time>
      </trkpt>
      <trkpt lat="43.61364" lon="3.82267">
        <ele>51.268</ele>
        <time>2020-10-09T11:29:57.000Z</time>
      </trkpt>
      <trkpt lat="43.6137" lon="3.82265">
        <ele>51.168</ele>
        <time>2020-10-09T11:29:58.000Z</time>
      </trkpt>
      <trkpt lat="43.61377" lon="3.82262">
        <ele>51.068</ele>
        <time>2020-10-09T11:29:59.000Z</time>
      </trkpt>
      <trkpt lat="43.61384" lon="3.8226">
        <ele>50.904</ele>
        <time>2020-10-09T11:30:00.000Z</time>
      </trkpt>
      <trkpt lat="43.6139" lon="3.82258">
        <ele>50.604</ele>
        <time>2020-10-09T11:30:01.000Z</time>
      </trkpt>
      <trkpt lat="43.61396" lon="3.82253">
        <ele>50.304</ele>
        <time>2020-10-09T11:30:02.000Z</time>
      </trkpt>
      <trkpt lat="43.61403" lon="3.82247">
        <ele>50.004</ele>
        <time>2020-10-09T11:30:03.000Z</time>
      </trkpt>
      <trkpt lat="43.6141" lon="3.82243">
        <ele>49.704</ele>
        <time>2020-10-09T11:30:04.000Z</time>
      </trkpt>
      <trkpt lat="43.61417" lon="3.82238">
        <ele>49.404</ele>
        <time>2020-10-09T11:30:05.000Z</time>
      </trkpt>
      <trkpt lat="43.61423" lon="3.82233">
        <ele>49.104</ele>
        <time>2020-10-09T11:30:06.000Z</time>
      </trkpt>
      <trkpt lat="43.6143" lon="3.82229">
        <ele>48.804</ele>
        <time>2020-10-09T11:30:07.000Z</time>
      </trkpt>
      <trkpt lat="43.61436" lon="3.82225">
        <ele>48.504</ele>
        <time>2020-10-09T11:30:08.000Z</time>
      </trkpt>
      <trkpt lat="43.61443" lon="3.82221">
        <ele>48.204</ele>
        <time>2020-10-09T11:30:09.000Z</time>
      </trkpt>
      <trkpt lat="43.6145" lon="3.82216">
        <ele>48.032</ele>
        <time>2020-10-09T11:30:10.000Z</time>
      </trkpt>
      <trkpt lat="43.61457" lon="3.82213">
        <ele>48.132</ele>
        <time>2020-10-09T11:30:11.000Z</time>
      </trkpt>
      <trkpt lat="43.61464" lon="3.8221">
        <ele>48.232</ele>
        <time>2020-10-09T11:30:12.000Z</time>
      </trkpt>
      <trkpt lat="43.61471" lon="3.82207">
        <ele>48.332</ele>
        <time>2020-10-09T11:30:13.000Z</time>
      </trkpt>
      <trkpt lat="43.61477" lon="3.82205">
        <ele>48.432</ele>
        <time>2020-10-09T11:30:14.000Z</time>
      </trkpt>
      <trkpt lat="43.61483" lon="3.82204">
        <ele>48.532</ele>
        <time>2020-10-09T11:30:15.000Z</time>
      </trkpt>
      <trkpt lat="43.61489" lon="3.82204">
        <ele>48.632</ele>
        <time>2020-10-09T11:30:16.000Z</time>
      </trkpt>
      <trkpt lat="43.61495" lon="3.82204">
        <ele>48.732</ele>
        <time>2020-10-09T11:30:17.000Z</time>
      </trkpt>
      <trkpt lat="43.615" lon="3.82205">
        <ele>48.832</ele>
        <time>2020-10-09T11:30:18.000Z</time>
      </trkpt>
      <trkpt lat="43.61506" lon="3.82205">
        <ele>48.932</ele>
        <time>2020-10-09T11:30:19.000Z</time>
      </trkpt>
      <trkpt lat="43.6151" lon="3.82204">
        <ele>48.936</ele>
        <time>2020-10-09T11:30:20.000Z</time>
      </trkpt>
      <trkpt lat="43.61514" lon="3.82201">
        <ele>48.736</ele>
        <time>2020-10-09T11:30:21.000Z</time>
      </trkpt>
      <trkpt lat="43.61517" lon="3.82196">
        <ele>48.536</ele>
        <time>2020-10-09T11:30:22.000Z</time>
      </trkpt>
      <trkpt lat="43.61518" lon="3.82189">
        <ele>48.336</ele>
        <time>2020-10-09T11:30:23.000Z</time>
      </trkpt>
      <trkpt lat="43.61519" lon="3.82182">
        <ele>48.136</ele>
        <time>2020-10-09T11:30:24.000Z</time>
      </trkpt>
      <trkpt lat="43.6152" lon="3.82175">
        <ele>47.936</ele>
        <time>2020-10-09T11:30:25.000Z</time>
      </trkpt>
      <trkpt lat="43.6152" lon="3.82168">
        <ele>47.736</ele>
        <time>2020-10-09T11:30:26.000Z</time>
      </trkpt>
      <trkpt lat="43.61521" lon="3.8216">
        <ele>47.536</ele>
        <time>2020-10-09T11:30:27.000Z</time>
      </trkpt>
      <trkpt lat="43.61521" lon="3.82152">
        <ele>47.336</ele>
        <time>2020-10-09T11:30:28.000Z</time>
      </trkpt>
      <trkpt lat="43.61523" lon="3.82145">
        <ele>47.136</ele>
        <time>2020-10-09T11:30:29.000Z</time>
      </trkpt>
      <trkpt lat="43.61523" lon="3.82137">
        <ele>46.968</ele>
        <time>2020-10-09T11:30:30.000Z</time>
      </trkpt>
      <trkpt lat="43.61523" lon="3.82129">
        <ele>46.868</ele>
        <time>2020-10-09T11:30:31.000Z</time>
      </trkpt>
      <trkpt lat="43.61522" lon="3.82122">
        <ele>46.768</ele>
        <time>2020-10-09T11:30:32.000Z</time>
      </trkpt>
      <trkpt lat="43.61522" lon="3.82116">
        <ele>46.668</ele>
        <time>2020-10-09T11:30:33.000Z</time>
      </trkpt>
      <trkpt lat="43.61522" lon="3.8211">
        <ele>46.568</ele>
        <time>2020-10-09T11:30:34.000Z</time>
      </trkpt>
      <trkpt lat="43.61522" lon="3.82105">
        <ele>46.468</ele>
        <time>2020-10-09T11:30:35.000Z</time>
      </trkpt>
      <trkpt lat="43.61523" lon="3.82101">
        <ele>46.368</ele>
        <time>2020-10-09T11:30:36.000Z</time>
      </trkpt>
      <trkpt lat="43.61524" lon="3.82096">
        <ele>46.268</ele>
        <time>2020-10-09T11:30:37.000Z</time>
      </trkpt>
      <trkpt lat="43.61524" lon="3.82092">
        <ele>46.168</ele>
        <time>2020-10-09T11:30:38.000Z</time>
      </trkpt>
      <trkpt lat="43.61525" lon="3.82086">
        <ele>46.068</ele>
        <time>2020-10-09T11:30:39.000Z</time>
      </trkpt>
      <trkpt lat="43.61526" lon="3.8208">
        <ele>45.936</ele>
        <time>2020-10-09T11:30:40.000Z</time>
      </trkpt>
      <trkpt lat="43.61526" lon="3.82072">
        <ele>45.736</ele>
        <time>2020-10-09T11:30:41.000Z</time>
      </trkpt>
      <trkpt lat="43.61527" lon="3.82064">
        <ele>45.536</ele>
        <time>2020-10-09T11:30:42.000Z</time>
      </trkpt>
      <trkpt lat="43.61527" lon="3.82055">
        <ele>45.336</ele>
        <time>2020-10-09T11:30:43.000Z</time>
      </trkpt>
      <trkpt lat="43.61527" lon="3.82047">
        <ele>45.136</ele>
        <time>2020-10-09T11:30:44.000Z</time>
      </trkpt>
      <trkpt lat="43.61528" lon="3.8204">
        <ele>44.936</ele>
        <time>2020-10-09T11:30:45.000Z</time>
      </trkpt>
      <trkpt lat="43.61529" lon="3.82035">
        <ele>44.736</ele>
        <time>2020-10-09T11:30:46.000Z</time>
      </trkpt>
      <trkpt lat="43.6153" lon="3.82029">
        <ele>44.536</ele>
        <time>2020-10-09T11:30:47.000Z</time>
      </trkpt>
      <trkpt lat="43.6153" lon="3.82023">
        <ele>44.336</ele>
        <time>2020-10-09T11:30:48.000Z</time>
      </trkpt>
      <trkpt lat="43.61531" lon="3.82017">
        <ele>44.136</ele>
        <time>2020-10-09T11:30:49.000Z</time>
      </trkpt>
      <trkpt lat="43.61533" lon="3.82011">
        <ele>43.968031957812</ele>
        <time>2020-10-09T11:30:50.000Z</time>
      </trkpt>
      <trkpt lat="43.61534" lon="3.82004">
        <ele>43.868131825976</ele>
        <time>2020-10-09T11:30:51.000Z</time>
      </trkpt>
      <trkpt lat="43.61535" lon="3.81998">
        <ele>43.76823169414</ele>
        <time>2020-10-09T11:30:52.000Z</time>
      </trkpt>
      <trkpt lat="43.61536" lon="3.81992">
        <ele>43.668331562304</ele>
        <time>2020-10-09T11:30:53.000Z</time>
      </trkpt>
      <trkpt lat="43.61537" lon="3.81986">
        <ele>43.568431430468</ele>
        <time>2020-10-09T11:30:54.000Z</time>
      </trkpt>
      <trkpt lat="43.61538" lon="3.81979">
        <ele>43.468531298631</ele>
        <time>2020-10-09T11:30:55.000Z</time>
      </trkpt>
      <trkpt lat="43.61539" lon="3.81973">
        <ele>43.368631166795</ele>
        <time>2020-10-09T11:30:56.000Z</time>
      </trkpt>
      <trkpt lat="43.6154" lon="3.81967">
        <ele>43.268731034959</ele>
        <time>2020-10-09T11:30:57.000Z</time>
      </trkpt>
      <trkpt lat="43.61541" lon="3.8196">
        <ele>43.168830903123</ele>
        <time>2020-10-09T11:30:58.000Z</time>
      </trkpt>
      <trkpt lat="43.61543" lon="3.81954">
        <ele>43.068930771287</ele>
        <time>2020-10-09T11:30:59.000Z</time>
      </trkpt>
      <trkpt lat="43.61544" lon="3.81947">
        <ele>42.969397541341</ele>
        <time>2020-10-09T11:31:00.000Z</time>
      </trkpt>
      <trkpt lat="43.61546" lon="3.81941">
        <ele>42.870680951773</ele>
        <time>2020-10-09T11:31:01.000Z</time>
      </trkpt>
      <trkpt lat="43.61547" lon="3.81934">
        <ele>42.771964362206</ele>
        <time>2020-10-09T11:31:02.000Z</time>
      </trkpt>
      <trkpt lat="43.61548" lon="3.81927">
        <ele>42.673247772638</ele>
        <time>2020-10-09T11:31:03.000Z</time>
      </trkpt>
      <trkpt lat="43.61549" lon="3.81921">
        <ele>42.57453118307</ele>
        <time>2020-10-09T11:31:04.000Z</time>
      </trkpt>
      <trkpt lat="43.6155" lon="3.81914">
        <ele>42.475814593502</ele>
        <time>2020-10-09T11:31:05.000Z</time>
      </trkpt>
      <trkpt lat="43.61551" lon="3.81907">
        <ele>42.377098003935</ele>
        <time>2020-10-09T11:31:06.000Z</time>
      </trkpt>
      <trkpt lat="43.61552" lon="3.81901">
        <ele>42.278381414367</ele>
        <time>2020-10-09T11:31:07.000Z</time>
      </trkpt>
      <trkpt lat="43.61552" lon="3.81894">
        <ele>42.179664824799</ele>
        <time>2020-10-09T11:31:08.000Z</time>
      </trkpt>
      <trkpt lat="43.61553" lon="3.81887">
        <ele>42.080948235232</ele>
        <time>2020-10-09T11:31:09.000Z</time>
      </trkpt>
      <trkpt lat="43.61553" lon="3.8188">
        <ele>41.981745059145</ele>
        <time>2020-10-09T11:31:10.000Z</time>
      </trkpt>
      <trkpt lat="43.61553" lon="3.81874">
        <ele>41.880325115018</ele>
        <time>2020-10-09T11:31:11.000Z</time>
      </trkpt>
      <trkpt lat="43.61552" lon="3.81867">
        <ele>41.778905170892</ele>
        <time>2020-10-09T11:31:12.000Z</time>
      </trkpt>
      <trkpt lat="43.61552" lon="3.81863">
        <ele>41.677485226765</ele>
        <time>2020-10-09T11:31:13.000Z</time>
      </trkpt>
      <trkpt lat="43.61551" lon="3.81859">
        <ele>41.576065282639</ele>
        <time>2020-10-09T11:31:14.000Z</time>
      </trkpt>
      <trkpt lat="43.61551" lon="3.81856">
        <ele>41.474645338512</ele>
        <time>2020-10-09T11:31:15.000Z</time>
      </trkpt>
      <trkpt lat="43.6155" lon="3.81852">
        <ele>41.373225394386</ele>
        <time>2020-10-09T11:31:16.000Z</time>
      </trkpt>
      <trkpt lat="43.61549" lon="3.81849">
        <ele>41.271805450259</ele>
        <time>2020-10-09T11:31:17.000Z</time>
      </trkpt>
      <trkpt lat="43.61548" lon="3.81845">
        <ele>41.170385506133</ele>
        <time>2020-10-09T11:31:18.000Z</time>
      </trkpt>
      <trkpt lat="43.61547" lon="3.81841">
        <ele>41.068965562006</ele>
        <time>2020-10-09T11:31:19.000Z</time>
      </trkpt>
      <trkpt lat="43.61546" lon="3.81836">
        <ele>41</ele>
        <time>2020-10-09T11:31:20.000Z</time>
      </trkpt>
      <trkpt lat="43.61545" lon="3.81831">
        <ele>41</ele>
        <time>2020-10-09T11:31:21.000Z</time>
      </trkpt>
      <trkpt lat="43.61543" lon="3.81827">
        <ele>41</ele>
        <time>2020-10-09T11:31:22.000Z</time>
      </trkpt>
      <trkpt lat="43.61542" lon="3.81822">
        <ele>41</ele>
        <time>2020-10-09T11:31:23.000Z</time>
      </trkpt>
      <trkpt lat="43.6154" lon="3.81816">
        <ele>41</ele>
        <time>2020-10-09T11:31:24.000Z</time>
      </trkpt>
      <trkpt lat="43.61539" lon="3.81811">
        <ele>41</ele>
        <time>2020-10-09T11:31:25.000Z</time>
      </trkpt>
      <trkpt lat="43.61538" lon="3.81806">
        <ele>41</ele>
        <time>2020-10-09T11:31:26.000Z</time>
      </trkpt>
      <trkpt lat="43.61536" lon="3.81801">
        <ele>41</ele>
        <time>2020-10-09T11:31:27.000Z</time>
      </trkpt>
      <trkpt lat="43.61535" lon="3.81796">
        <ele>41</ele>
        <time>2020-10-09T11:31:28.000Z</time>
      </trkpt>
      <trkpt lat="43.61533" lon="3.81791">
        <ele>41</ele>
        <time>2020-10-09T11:31:29.000Z</time>
      </trkpt>
      <trkpt lat="43.61532" lon="3.81786">
        <ele>41</ele>
        <time>2020-10-09T11:31:30.000Z</time>
      </trkpt>
      <trkpt lat="43.61531" lon="3.81781">
        <ele>41</ele>
        <time>2020-10-09T11:31:31.000Z</time>
      </trkpt>
      <trkpt lat="43.61529" lon="3.81776">
        <ele>41</ele>
        <time>2020-10-09T11:31:32.000Z</time>
      </trkpt>
      <trkpt lat="43.61528" lon="3.81772">
        <ele>41</ele>
        <time>2020-10-09T11:31:33.000Z</time>
      </trkpt>
      <trkpt lat="43.61527" lon="3.81767">
        <ele>41</ele>
        <time>2020-10-09T11:31:34.000Z</time>
      </trkpt>
      <trkpt lat="43.61526" lon="3.81763">
        <ele>41</ele>
        <time>2020-10-09T11:31:35.000Z</time>
      </trkpt>
      <trkpt lat="43.61525" lon="3.8176">
        <ele>41</ele>
        <time>2020-10-09T11:31:36.000Z</time>
      </trkpt>
      <trkpt lat="43.61524" lon="3.81757">
        <ele>41</ele>
        <time>2020-10-09T11:31:37.000Z</time>
      </trkpt>
      <trkpt lat="43.61523" lon="3.81753">
        <ele>41</ele>
        <time>2020-10-09T11:31:38.000Z</time>
      </trkpt>
      <trkpt lat="43.61522" lon="3.81749">
        <ele>41</ele>
        <time>2020-10-09T11:31:39.000Z</time>
      </trkpt>
      <trkpt lat="43.61521" lon="3.81745">
        <ele>41</ele>
        <time>2020-10-09T11:31:40.000Z</time>
      </trkpt>
      <trkpt lat="43.6152" lon="3.81741">
        <ele>41</ele>
        <time>2020-10-09T11:31:41.000Z</time>
      </trkpt>
      <trkpt lat="43.61519" lon="3.81737">
        <ele>41</ele>
        <time>2020-10-09T11:31:42.000Z</time>
      </trkpt>
      <trkpt lat="43.61518" lon="3.81733">
        <ele>41</ele>
        <time>2020-10-09T11:31:43.000Z</time>
      </trkpt>
      <trkpt lat="43.61517" lon="3.81729">
        <ele>41</ele>
        <time>2020-10-09T11:31:44.000Z</time>
      </trkpt>
      <trkpt lat="43.61515" lon="3.81725">
        <ele>41</ele>
        <time>2020-10-09T11:31:45.000Z</time>
      </trkpt>
      <trkpt lat="43.61514" lon="3.81721">
        <ele>41</ele>
        <time>2020-10-09T11:31:46.000Z</time>
      </trkpt>
      <trkpt lat="43.61513" lon="3.81717">
        <ele>41</ele>
        <time>2020-10-09T11:31:47.000Z</time>
      </trkpt>
      <trkpt lat="43.61512" lon="3.81712">
        <ele>41</ele>
        <time>2020-10-09T11:31:48.000Z</time>
      </trkpt>
      <trkpt lat="43.61511" lon="3.81708">
        <ele>41</ele>
        <time>2020-10-09T11:31:49.000Z</time>
      </trkpt>
      <trkpt lat="43.61509" lon="3.81703">
        <ele>41</ele>
        <time>2020-10-09T11:31:50.000Z</time>
      </trkpt>
      <trkpt lat="43.61508" lon="3.81698">
        <ele>41</ele>
        <time>2020-10-09T11:31:51.000Z</time>
      </trkpt>
      <trkpt lat="43.61507" lon="3.81692">
        <ele>41</ele>
        <time>2020-10-09T11:31:52.000Z</time>
      </trkpt>
      <trkpt lat="43.61505" lon="3.81687">
        <ele>41</ele>
        <time>2020-10-09T11:31:53.000Z</time>
      </trkpt>
      <trkpt lat="43.61504" lon="3.81683">
        <ele>41</ele>
        <time>2020-10-09T11:31:54.000Z</time>
      </trkpt>
      <trkpt lat="43.61502" lon="3.81679">
        <ele>41</ele>
        <time>2020-10-09T11:31:55.000Z</time>
      </trkpt>
      <trkpt lat="43.615" lon="3.81674">
        <ele>41</ele>
        <time>2020-10-09T11:31:56.000Z</time>
      </trkpt>
      <trkpt lat="43.61499" lon="3.8167">
        <ele>41</ele>
        <time>2020-10-09T11:31:57.000Z</time>
      </trkpt>
      <trkpt lat="43.61498" lon="3.81666">
        <ele>41</ele>
        <time>2020-10-09T11:31:58.000Z</time>
      </trkpt>
      <trkpt lat="43.61497" lon="3.81661">
        <ele>41</ele>
        <time>2020-10-09T11:31:59.000Z</time>
      </trkpt>
      <trkpt lat="43.61496" lon="3.81656">
        <ele>41</ele>
        <time>2020-10-09T11:32:00.000Z</time>
      </trkpt>
      <trkpt lat="43.61495" lon="3.81652">
        <ele>41</ele>
        <time>2020-10-09T11:32:01.000Z</time>
      </trkpt>
      <trkpt lat="43.61493" lon="3.81647">
        <ele>41</ele>
        <time>2020-10-09T11:32:02.000Z</time>
      </trkpt>
      <trkpt lat="43.61492" lon="3.81642">
        <ele>41</ele>
        <time>2020-10-09T11:32:03.000Z</time>
      </trkpt>
      <trkpt lat="43.6149" lon="3.81637">
        <ele>41</ele>
        <time>2020-10-09T11:32:04.000Z</time>
      </trkpt>
      <trkpt lat="43.61488" lon="3.81631">
        <ele>41</ele>
        <time>2020-10-09T11:32:05.000Z</time>
      </trkpt>
      <trkpt lat="43.61487" lon="3.81626">
        <ele>41</ele>
        <time>2020-10-09T11:32:06.000Z</time>
      </trkpt>
      <trkpt lat="43.61485" lon="3.8162">
        <ele>41</ele>
        <time>2020-10-09T11:32:07.000Z</time>
      </trkpt>
      <trkpt lat="43.61483" lon="3.81615">
        <ele>41</ele>
        <time>2020-10-09T11:32:08.000Z</time>
      </trkpt>
      <trkpt lat="43.61482" lon="3.81609">
        <ele>41</ele>
        <time>2020-10-09T11:32:09.000Z</time>
      </trkpt>
      <trkpt lat="43.61481" lon="3.81604">
        <ele>40.968</ele>
        <time>2020-10-09T11:32:10.000Z</time>
      </trkpt>
      <trkpt lat="43.61479" lon="3.81599">
        <ele>40.868</ele>
        <time>2020-10-09T11:32:11.000Z</time>
      </trkpt>
      <trkpt lat="43.61478" lon="3.81593">
        <ele>40.768</ele>
        <time>2020-10-09T11:32:12.000Z</time>
      </trkpt>
      <trkpt lat="43.61476" lon="3.81588">
        <ele>40.668</ele>
        <time>2020-10-09T11:32:13.000Z</time>
      </trkpt>
      <trkpt lat="43.61475" lon="3.81583">
        <ele>40.568</ele>
        <time>2020-10-09T11:32:14.000Z</time>
      </trkpt>
      <trkpt lat="43.61474" lon="3.81578">
        <ele>40.468</ele>
        <time>2020-10-09T11:32:15.000Z</time>
      </trkpt>
      <trkpt lat="43.61473" lon="3.81574">
        <ele>40.368</ele>
        <time>2020-10-09T11:32:16.000Z</time>
      </trkpt>
      <trkpt lat="43.61472" lon="3.8157">
        <ele>40.268</ele>
        <time>2020-10-09T11:32:17.000Z</time>
      </trkpt>
      <trkpt lat="43.61471" lon="3.81567">
        <ele>40.168</ele>
        <time>2020-10-09T11:32:18.000Z</time>
      </trkpt>
      <trkpt lat="43.6147" lon="3.81564">
        <ele>40.068</ele>
        <time>2020-10-09T11:32:19.000Z</time>
      </trkpt>
      <trkpt lat="43.61467" lon="3.81562">
        <ele>40</ele>
        <time>2020-10-09T11:32:21.000Z</time>
      </trkpt>
      <trkpt lat="43.61465" lon="3.81563">
        <ele>40</ele>
        <time>2020-10-09T11:32:22.000Z</time>
      </trkpt>
      <trkpt lat="43.61464" lon="3.81565">
        <ele>40</ele>
        <time>2020-10-09T11:32:23.000Z</time>
      </trkpt>
      <trkpt lat="43.61463" lon="3.81569">
        <ele>40</ele>
        <time>2020-10-09T11:32:24.000Z</time>
      </trkpt>
      <trkpt lat="43.61462" lon="3.81574">
        <ele>40</ele>
        <time>2020-10-09T11:32:25.000Z</time>
      </trkpt>
      <trkpt lat="43.6146" lon="3.81579">
        <ele>40</ele>
        <time>2020-10-09T11:32:26.000Z</time>
      </trkpt>
      <trkpt lat="43.61459" lon="3.81585">
        <ele>40</ele>
        <time>2020-10-09T11:32:27.000Z</time>
      </trkpt>
      <trkpt lat="43.61458" lon="3.81592">
        <ele>40</ele>
        <time>2020-10-09T11:32:28.000Z</time>
      </trkpt>
      <trkpt lat="43.61457" lon="3.81599">
        <ele>40</ele>
        <time>2020-10-09T11:32:29.000Z</time>
      </trkpt>
      <trkpt lat="43.61456" lon="3.81606">
        <ele>39.968</ele>
        <time>2020-10-09T11:32:30.000Z</time>
      </trkpt>
      <trkpt lat="43.61455" lon="3.81613">
        <ele>39.868</ele>
        <time>2020-10-09T11:32:31.000Z</time>
      </trkpt>
      <trkpt lat="43.61454" lon="3.8162">
        <ele>39.768</ele>
        <time>2020-10-09T11:32:32.000Z</time>
      </trkpt>
      <trkpt lat="43.61453" lon="3.81627">
        <ele>39.668</ele>
        <time>2020-10-09T11:32:33.000Z</time>
      </trkpt>
      <trkpt lat="43.61452" lon="3.81635">
        <ele>39.568</ele>
        <time>2020-10-09T11:32:34.000Z</time>
      </trkpt>
      <trkpt lat="43.61451" lon="3.81641">
        <ele>39.468</ele>
        <time>2020-10-09T11:32:35.000Z</time>
      </trkpt>
      <trkpt lat="43.6145" lon="3.81648">
        <ele>39.368</ele>
        <time>2020-10-09T11:32:36.000Z</time>
      </trkpt>
      <trkpt lat="43.6145" lon="3.81654">
        <ele>39.268</ele>
        <time>2020-10-09T11:32:37.000Z</time>
      </trkpt>
      <trkpt lat="43.61451" lon="3.8166">
        <ele>39.168</ele>
        <time>2020-10-09T11:32:38.000Z</time>
      </trkpt>
      <trkpt lat="43.61452" lon="3.81666">
        <ele>39.068</ele>
        <time>2020-10-09T11:32:39.000Z</time>
      </trkpt>
      <trkpt lat="43.61452" lon="3.81672">
        <ele>38.968063851857</ele>
        <time>2020-10-09T11:32:40.000Z</time>
      </trkpt>
      <trkpt lat="43.61451" lon="3.81678">
        <ele>38.868263388911</ele>
        <time>2020-10-09T11:32:41.000Z</time>
      </trkpt>
      <trkpt lat="43.61449" lon="3.81683">
        <ele>38.768462925964</ele>
        <time>2020-10-09T11:32:42.000Z</time>
      </trkpt>
      <trkpt lat="43.61445" lon="3.81687">
        <ele>38.668662463018</ele>
        <time>2020-10-09T11:32:43.000Z</time>
      </trkpt>
      <trkpt lat="43.61441" lon="3.81689">
        <ele>38.568862000071</ele>
        <time>2020-10-09T11:32:44.000Z</time>
      </trkpt>
      <trkpt lat="43.61437" lon="3.8169">
        <ele>38.469061537125</ele>
        <time>2020-10-09T11:32:45.000Z</time>
      </trkpt>
      <trkpt lat="43.61433" lon="3.81691">
        <ele>38.369261074179</ele>
        <time>2020-10-09T11:32:46.000Z</time>
      </trkpt>
      <trkpt lat="43.61429" lon="3.81692">
        <ele>38.269460611232</ele>
        <time>2020-10-09T11:32:47.000Z</time>
      </trkpt>
      <trkpt lat="43.61425" lon="3.81693">
        <ele>38.169660148286</ele>
        <time>2020-10-09T11:32:48.000Z</time>
      </trkpt>
      <trkpt lat="43.61421" lon="3.81694">
        <ele>38.06985968534</ele>
        <time>2020-10-09T11:32:49.000Z</time>
      </trkpt>
      <trkpt lat="43.61418" lon="3.81696">
        <ele>37.969936250176</ele>
        <time>2020-10-09T11:32:50.000Z</time>
      </trkpt>
      <trkpt lat="43.61417" lon="3.817">
        <ele>37.869725888585</ele>
        <time>2020-10-09T11:32:51.000Z</time>
      </trkpt>
      <trkpt lat="43.61416" lon="3.81705">
        <ele>37.769515526994</ele>
        <time>2020-10-09T11:32:52.000Z</time>
      </trkpt>
      <trkpt lat="43.61415" lon="3.81711">
        <ele>37.669305165403</ele>
        <time>2020-10-09T11:32:53.000Z</time>
      </trkpt>
      <trkpt lat="43.61412" lon="3.81716">
        <ele>37.569094803812</ele>
        <time>2020-10-09T11:32:54.000Z</time>
      </trkpt>
      <trkpt lat="43.6141" lon="3.81721">
        <ele>37.468884442221</ele>
        <time>2020-10-09T11:32:55.000Z</time>
      </trkpt>
      <trkpt lat="43.61407" lon="3.81725">
        <ele>37.36867408063</ele>
        <time>2020-10-09T11:32:56.000Z</time>
      </trkpt>
      <trkpt lat="43.61403" lon="3.8173">
        <ele>37.268463719039</ele>
        <time>2020-10-09T11:32:57.000Z</time>
      </trkpt>
      <trkpt lat="43.614" lon="3.81733">
        <ele>37.168253357448</ele>
        <time>2020-10-09T11:32:58.000Z</time>
      </trkpt>
      <trkpt lat="43.61397" lon="3.81736">
        <ele>37.068042995857</ele>
        <time>2020-10-09T11:32:59.000Z</time>
      </trkpt>
      <trkpt lat="43.61393" lon="3.81738">
        <ele>37.03209984</ele>
        <time>2020-10-09T11:33:00.000Z</time>
      </trkpt>
      <trkpt lat="43.61389" lon="3.8174">
        <ele>37.13209984</ele>
        <time>2020-10-09T11:33:01.000Z</time>
      </trkpt>
      <trkpt lat="43.61384" lon="3.81743">
        <ele>37.23209984</ele>
        <time>2020-10-09T11:33:02.000Z</time>
      </trkpt>
      <trkpt lat="43.6138" lon="3.81745">
        <ele>37.33209984</ele>
        <time>2020-10-09T11:33:03.000Z</time>
      </trkpt>
      <trkpt lat="43.61375" lon="3.81747">
        <ele>37.43209984</ele>
        <time>2020-10-09T11:33:04.000Z</time>
      </trkpt>
      <trkpt lat="43.6137" lon="3.81748">
        <ele>37.53209984</ele>
        <time>2020-10-09T11:33:05.000Z</time>
      </trkpt>
      <trkpt lat="43.61365" lon="3.8175">
        <ele>37.63209984</ele>
        <time>2020-10-09T11:33:06.000Z</time>
      </trkpt>
      <trkpt lat="43.6136" lon="3.81751">
        <ele>37.73209984</ele>
        <time>2020-10-09T11:33:07.000Z</time>
      </trkpt>
      <trkpt lat="43.61356" lon="3.81752">
        <ele>37.83209984</ele>
        <time>2020-10-09T11:33:08.000Z</time>
      </trkpt>
      <trkpt lat="43.6135" lon="3.81753">
        <ele>37.93209984</ele>
        <time>2020-10-09T11:33:09.000Z</time>
      </trkpt>
      <trkpt lat="43.61345" lon="3.81754">
        <ele>38</ele>
        <time>2020-10-09T11:33:10.000Z</time>
      </trkpt>
      <trkpt lat="43.6134" lon="3.81754">
        <ele>38</ele>
        <time>2020-10-09T11:33:11.000Z</time>
      </trkpt>
      <trkpt lat="43.61335" lon="3.81755">
        <ele>38</ele>
        <time>2020-10-09T11:33:12.000Z</time>
      </trkpt>
      <trkpt lat="43.6133" lon="3.81755">
        <ele>38</ele>
        <time>2020-10-09T11:33:13.000Z</time>
      </trkpt>
      <trkpt lat="43.61325" lon="3.81755">
        <ele>38</ele>
        <time>2020-10-09T11:33:14.000Z</time>
      </trkpt>
      <trkpt lat="43.61321" lon="3.81756">
        <ele>38</ele>
        <time>2020-10-09T11:33:15.000Z</time>
      </trkpt>
      <trkpt lat="43.61316" lon="3.81755">
        <ele>38</ele>
        <time>2020-10-09T11:33:16.000Z</time>
      </trkpt>
      <trkpt lat="43.61312" lon="3.81755">
        <ele>38</ele>
        <time>2020-10-09T11:33:17.000Z</time>
      </trkpt>
      <trkpt lat="43.61308" lon="3.81756">
        <ele>38</ele>
        <time>2020-10-09T11:33:18.000Z</time>
      </trkpt>
      <trkpt lat="43.61304" lon="3.81756">
        <ele>38</ele>
        <time>2020-10-09T11:33:19.000Z</time>
      </trkpt>
      <trkpt lat="43.613" lon="3.81756">
        <ele>37.93580032</ele>
        <time>2020-10-09T11:33:20.000Z</time>
      </trkpt>
      <trkpt lat="43.61295" lon="3.81757">
        <ele>37.73580032</ele>
        <time>2020-10-09T11:33:21.000Z</time>
      </trkpt>
      <trkpt lat="43.6129" lon="3.81758">
        <ele>37.53580032</ele>
        <time>2020-10-09T11:33:22.000Z</time>
      </trkpt>
      <trkpt lat="43.61285" lon="3.81759">
        <ele>37.33580032</ele>
        <time>2020-10-09T11:33:23.000Z</time>
      </trkpt>
      <trkpt lat="43.6128" lon="3.8176">
        <ele>37.13580032</ele>
        <time>2020-10-09T11:33:24.000Z</time>
      </trkpt>
      <trkpt lat="43.61275" lon="3.81761">
        <ele>36.93580032</ele>
        <time>2020-10-09T11:33:25.000Z</time>
      </trkpt>
      <trkpt lat="43.61271" lon="3.81763">
        <ele>36.73580032</ele>
        <time>2020-10-09T11:33:26.000Z</time>
      </trkpt>
      <trkpt lat="43.61266" lon="3.81764">
        <ele>36.53580032</ele>
        <time>2020-10-09T11:33:27.000Z</time>
      </trkpt>
      <trkpt lat="43.61262" lon="3.81766">
        <ele>36.33580032</ele>
        <time>2020-10-09T11:33:28.000Z</time>
      </trkpt>
      <trkpt lat="43.61257" lon="3.81769">
        <ele>36.13580032</ele>
        <time>2020-10-09T11:33:29.000Z</time>
      </trkpt>
      <trkpt lat="43.61253" lon="3.81771">
        <ele>35.967903364528</ele>
        <time>2020-10-09T11:33:30.000Z</time>
      </trkpt>
      <trkpt lat="43.61248" lon="3.81774">
        <ele>35.867913347531</ele>
        <time>2020-10-09T11:33:31.000Z</time>
      </trkpt>
      <trkpt lat="43.61244" lon="3.81777">
        <ele>35.767923330535</ele>
        <time>2020-10-09T11:33:32.000Z</time>
      </trkpt>
      <trkpt lat="43.6124" lon="3.81781">
        <ele>35.667933313538</ele>
        <time>2020-10-09T11:33:33.000Z</time>
      </trkpt>
      <trkpt lat="43.61236" lon="3.81784">
        <ele>35.567943296541</ele>
        <time>2020-10-09T11:33:34.000Z</time>
      </trkpt>
      <trkpt lat="43.61231" lon="3.81787">
        <ele>35.467953279545</ele>
        <time>2020-10-09T11:33:35.000Z</time>
      </trkpt>
      <trkpt lat="43.61227" lon="3.8179">
        <ele>35.367963262548</ele>
        <time>2020-10-09T11:33:36.000Z</time>
      </trkpt>
      <trkpt lat="43.61222" lon="3.81793">
        <ele>35.267973245551</ele>
        <time>2020-10-09T11:33:37.000Z</time>
      </trkpt>
      <trkpt lat="43.61218" lon="3.81796">
        <ele>35.167983228554</ele>
        <time>2020-10-09T11:33:38.000Z</time>
      </trkpt>
      <trkpt lat="43.61214" lon="3.818">
        <ele>35.067993211558</ele>
        <time>2020-10-09T11:33:39.000Z</time>
      </trkpt>
      <trkpt lat="43.61209" lon="3.81803">
        <ele>34.968</ele>
        <time>2020-10-09T11:33:40.000Z</time>
      </trkpt>
      <trkpt lat="43.61204" lon="3.81807">
        <ele>34.868</ele>
        <time>2020-10-09T11:33:41.000Z</time>
      </trkpt>
      <trkpt lat="43.612" lon="3.8181">
        <ele>34.768</ele>
        <time>2020-10-09T11:33:42.000Z</time>
      </trkpt>
      <trkpt lat="43.61195" lon="3.81813">
        <ele>34.668</ele>
        <time>2020-10-09T11:33:43.000Z</time>
      </trkpt>
      <trkpt lat="43.61191" lon="3.81817">
        <ele>34.568</ele>
        <time>2020-10-09T11:33:44.000Z</time>
      </trkpt>
      <trkpt lat="43.61186" lon="3.8182">
        <ele>34.468</ele>
        <time>2020-10-09T11:33:45.000Z</time>
      </trkpt>
      <trkpt lat="43.61182" lon="3.81823">
        <ele>34.368</ele>
        <time>2020-10-09T11:33:46.000Z</time>
      </trkpt>
      <trkpt lat="43.61178" lon="3.81826">
        <ele>34.268</ele>
        <time>2020-10-09T11:33:47.000Z</time>
      </trkpt>
      <trkpt lat="43.61174" lon="3.81829">
        <ele>34.168</ele>
        <time>2020-10-09T11:33:48.000Z</time>
      </trkpt>
      <trkpt lat="43.61171" lon="3.81832">
        <ele>34.068</ele>
        <time>2020-10-09T11:33:49.000Z</time>
      </trkpt>
      <trkpt lat="43.61167" lon="3.81835">
        <ele>34</ele>
        <time>2020-10-09T11:33:50.000Z</time>
      </trkpt>
      <trkpt lat="43.61163" lon="3.81838">
        <ele>34</ele>
        <time>2020-10-09T11:33:51.000Z</time>
      </trkpt>
      <trkpt lat="43.61159" lon="3.81841">
        <ele>34</ele>
        <time>2020-10-09T11:33:52.000Z</time>
      </trkpt>
      <trkpt lat="43.61155" lon="3.81844">
        <ele>34</ele>
        <time>2020-10-09T11:33:53.000Z</time>
      </trkpt>
      <trkpt lat="43.61152" lon="3.81847">
        <ele>34</ele>
        <time>2020-10-09T11:33:54.000Z</time>
      </trkpt>
      <trkpt lat="43.61148" lon="3.8185">
        <ele>34</ele>
        <time>2020-10-09T11:33:55.000Z</time>
      </trkpt>
      <trkpt lat="43.61144" lon="3.81853">
        <ele>34</ele>
        <time>2020-10-09T11:33:56.000Z</time>
      </trkpt>
      <trkpt lat="43.6114" lon="3.81856">
        <ele>34</ele>
        <time>2020-10-09T11:33:57.000Z</time>
      </trkpt>
      <trkpt lat="43.61136" lon="3.81859">
        <ele>34</ele>
        <time>2020-10-09T11:33:58.000Z</time>
      </trkpt>
      <trkpt lat="43.61132" lon="3.81863">
        <ele>34</ele>
        <time>2020-10-09T11:33:59.000Z</time>
      </trkpt>
      <trkpt lat="43.61128" lon="3.81866">
        <ele>34</ele>
        <time>2020-10-09T11:34:00.000Z</time>
      </trkpt>
      <trkpt lat="43.61124" lon="3.81869">
        <ele>34</ele>
        <time>2020-10-09T11:34:01.000Z</time>
      </trkpt>
      <trkpt lat="43.6112" lon="3.8187">
        <ele>34</ele>
        <time>2020-10-09T11:34:02.000Z</time>
      </trkpt>
      <trkpt lat="43.61115" lon="3.81872">
        <ele>34</ele>
        <time>2020-10-09T11:34:03.000Z</time>
      </trkpt>
      <trkpt lat="43.61111" lon="3.81872">
        <ele>34</ele>
        <time>2020-10-09T11:34:04.000Z</time>
      </trkpt>
      <trkpt lat="43.61107" lon="3.81873">
        <ele>34</ele>
        <time>2020-10-09T11:34:05.000Z</time>
      </trkpt>
      <trkpt lat="43.61103" lon="3.81874">
        <ele>34</ele>
        <time>2020-10-09T11:34:06.000Z</time>
      </trkpt>
      <trkpt lat="43.61099" lon="3.81875">
        <ele>34</ele>
        <time>2020-10-09T11:34:07.000Z</time>
      </trkpt>
      <trkpt lat="43.61095" lon="3.81877">
        <ele>34</ele>
        <time>2020-10-09T11:34:08.000Z</time>
      </trkpt>
      <trkpt lat="43.6109" lon="3.81879">
        <ele>34</ele>
        <time>2020-10-09T11:34:09.000Z</time>
      </trkpt>
      <trkpt lat="43.61086" lon="3.8188">
        <ele>34.032</ele>
        <time>2020-10-09T11:34:10.000Z</time>
      </trkpt>
      <trkpt lat="43.61082" lon="3.81882">
        <ele>34.132</ele>
        <time>2020-10-09T11:34:11.000Z</time>
      </trkpt>
      <trkpt lat="43.61078" lon="3.81883">
        <ele>34.232</ele>
        <time>2020-10-09T11:34:12.000Z</time>
      </trkpt>
      <trkpt lat="43.61075" lon="3.81885">
        <ele>34.332</ele>
        <time>2020-10-09T11:34:13.000Z</time>
      </trkpt>
      <trkpt lat="43.61071" lon="3.81886">
        <ele>34.432</ele>
        <time>2020-10-09T11:34:14.000Z</time>
      </trkpt>
      <trkpt lat="43.61067" lon="3.81887">
        <ele>34.532</ele>
        <time>2020-10-09T11:34:15.000Z</time>
      </trkpt>
      <trkpt lat="43.61063" lon="3.81889">
        <ele>34.632</ele>
        <time>2020-10-09T11:34:16.000Z</time>
      </trkpt>
      <trkpt lat="43.61059" lon="3.81891">
        <ele>34.732</ele>
        <time>2020-10-09T11:34:17.000Z</time>
      </trkpt>
      <trkpt lat="43.61056" lon="3.81893">
        <ele>34.832</ele>
        <time>2020-10-09T11:34:18.000Z</time>
      </trkpt>
      <trkpt lat="43.61052" lon="3.81895">
        <ele>34.932</ele>
        <time>2020-10-09T11:34:19.000Z</time>
      </trkpt>
      <trkpt lat="43.61048" lon="3.81896">
        <ele>35</ele>
        <time>2020-10-09T11:34:20.000Z</time>
      </trkpt>
      <trkpt lat="43.61045" lon="3.81897">
        <ele>35</ele>
        <time>2020-10-09T11:34:21.000Z</time>
      </trkpt>
      <trkpt lat="43.61042" lon="3.81898">
        <ele>35</ele>
        <time>2020-10-09T11:34:22.000Z</time>
      </trkpt>
      <trkpt lat="43.61038" lon="3.819">
        <ele>35</ele>
        <time>2020-10-09T11:34:23.000Z</time>
      </trkpt>
      <trkpt lat="43.61034" lon="3.81902">
        <ele>35</ele>
        <time>2020-10-09T11:34:24.000Z</time>
      </trkpt>
      <trkpt lat="43.61031" lon="3.81904">
        <ele>35</ele>
        <time>2020-10-09T11:34:25.000Z</time>
      </trkpt>
      <trkpt lat="43.61027" lon="3.81906">
        <ele>35</ele>
        <time>2020-10-09T11:34:26.000Z</time>
      </trkpt>
      <trkpt lat="43.61023" lon="3.81908">
        <ele>35</ele>
        <time>2020-10-09T11:34:27.000Z</time>
      </trkpt>
      <trkpt lat="43.61019" lon="3.8191">
        <ele>35</ele>
        <time>2020-10-09T11:34:28.000Z</time>
      </trkpt>
      <trkpt lat="43.61015" lon="3.81912">
        <ele>35</ele>
        <time>2020-10-09T11:34:29.000Z</time>
      </trkpt>
      <trkpt lat="43.61011" lon="3.81915">
        <ele>35</ele>
        <time>2020-10-09T11:34:30.000Z</time>
      </trkpt>
      <trkpt lat="43.61008" lon="3.81917">
        <ele>35</ele>
        <time>2020-10-09T11:34:31.000Z</time>
      </trkpt>
      <trkpt lat="43.61005" lon="3.81918">
        <ele>35</ele>
        <time>2020-10-09T11:34:32.000Z</time>
      </trkpt>
      <trkpt lat="43.61003" lon="3.81919">
        <ele>35</ele>
        <time>2020-10-09T11:34:33.000Z</time>
      </trkpt>
      <trkpt lat="43.61" lon="3.81922">
        <ele>35</ele>
        <time>2020-10-09T11:34:35.000Z</time>
      </trkpt>
      <trkpt lat="43.60999" lon="3.81925">
        <ele>35</ele>
        <time>2020-10-09T11:34:36.000Z</time>
      </trkpt>
      <trkpt lat="43.60997" lon="3.81927">
        <ele>35</ele>
        <time>2020-10-09T11:34:37.000Z</time>
      </trkpt>
      <trkpt lat="43.60993" lon="3.81929">
        <ele>35</ele>
        <time>2020-10-09T11:34:38.000Z</time>
      </trkpt>
      <trkpt lat="43.6099" lon="3.8193">
        <ele>35</ele>
        <time>2020-10-09T11:34:39.000Z</time>
      </trkpt>
      <trkpt lat="43.60987" lon="3.81931">
        <ele>35.003089926891</ele>
        <time>2020-10-09T11:34:40.000Z</time>
      </trkpt>
      <trkpt lat="43.60984" lon="3.81932">
        <ele>35.106076504692</ele>
        <time>2020-10-09T11:34:41.000Z</time>
      </trkpt>
      <trkpt lat="43.60981" lon="3.81932">
        <ele>35.209063082492</ele>
        <time>2020-10-09T11:34:42.000Z</time>
      </trkpt>
      <trkpt lat="43.60978" lon="3.81933">
        <ele>35.312049660293</ele>
        <time>2020-10-09T11:34:43.000Z</time>
      </trkpt>
      <trkpt lat="43.60976" lon="3.81933">
        <ele>35.415036238093</ele>
        <time>2020-10-09T11:34:44.000Z</time>
      </trkpt>
      <trkpt lat="43.60973" lon="3.81934">
        <ele>35.518022815894</ele>
        <time>2020-10-09T11:34:45.000Z</time>
      </trkpt>
      <trkpt lat="43.6097" lon="3.81935">
        <ele>35.621009393694</ele>
        <time>2020-10-09T11:34:46.000Z</time>
      </trkpt>
      <trkpt lat="43.60967" lon="3.81936">
        <ele>35.723995971495</ele>
        <time>2020-10-09T11:34:47.000Z</time>
      </trkpt>
      <trkpt lat="43.60964" lon="3.81937">
        <ele>35.826982549295</ele>
        <time>2020-10-09T11:34:48.000Z</time>
      </trkpt>
      <trkpt lat="43.60961" lon="3.81938">
        <ele>35.929969127096</ele>
        <time>2020-10-09T11:34:49.000Z</time>
      </trkpt>
      <trkpt lat="43.60958" lon="3.81938">
        <ele>36</ele>
        <time>2020-10-09T11:34:50.000Z</time>
      </trkpt>
      <trkpt lat="43.60956" lon="3.81939">
        <ele>36</ele>
        <time>2020-10-09T11:34:51.000Z</time>
      </trkpt>
      <trkpt lat="43.60954" lon="3.81939">
        <ele>36</ele>
        <time>2020-10-09T11:34:52.000Z</time>
      </trkpt>
      <trkpt lat="43.60951" lon="3.81939">
        <ele>36</ele>
        <time>2020-10-09T11:34:53.000Z</time>
      </trkpt>
      <trkpt lat="43.60948" lon="3.81939">
        <ele>36</ele>
        <time>2020-10-09T11:34:54.000Z</time>
      </trkpt>
      <trkpt lat="43.60946" lon="3.81939">
        <ele>36</ele>
        <time>2020-10-09T11:34:55.000Z</time>
      </trkpt>
      <trkpt lat="43.60943" lon="3.8194">
        <ele>36</ele>
        <time>2020-10-09T11:34:57.000Z</time>
      </trkpt>
      <trkpt lat="43.60941" lon="3.81941">
        <ele>36</ele>
        <time>2020-10-09T11:34:58.000Z</time>
      </trkpt>
      <trkpt lat="43.60939" lon="3.81943">
        <ele>36</ele>
        <time>2020-10-09T11:34:59.000Z</time>
      </trkpt>
      <trkpt lat="43.60936" lon="3.81945">
        <ele>36</ele>
        <time>2020-10-09T11:35:00.000Z</time>
      </trkpt>
      <trkpt lat="43.60934" lon="3.81947">
        <ele>36</ele>
        <time>2020-10-09T11:35:01.000Z</time>
      </trkpt>
      <trkpt lat="43.60932" lon="3.81947">
        <ele>36</ele>
        <time>2020-10-09T11:35:02.000Z</time>
      </trkpt>
      <trkpt lat="43.60929" lon="3.81948">
        <ele>36</ele>
        <time>2020-10-09T11:35:04.000Z</time>
      </trkpt>
      <trkpt lat="43.60926" lon="3.81947">
        <ele>36</ele>
        <time>2020-10-09T11:35:06.000Z</time>
      </trkpt>
      <trkpt lat="43.60925" lon="3.81945">
        <ele>36</ele>
        <time>2020-10-09T11:35:07.000Z</time>
      </trkpt>
      <trkpt lat="43.60925" lon="3.81942">
        <ele>36</ele>
        <time>2020-10-09T11:35:08.000Z</time>
      </trkpt>
      <trkpt lat="43.60923" lon="3.81942">
        <ele>35.967260952381</ele>
        <time>2020-10-09T11:35:16.000Z</time>
      </trkpt>
      <trkpt lat="43.60923" lon="3.81947">
        <ele>35.074403809524</ele>
        <time>2020-10-09T11:35:19.000Z</time>
      </trkpt>
      <trkpt lat="43.60924" lon="3.81949">
        <ele>34.804054774775</ele>
        <time>2020-10-09T11:35:21.000Z</time>
      </trkpt>
      <trkpt lat="43.60925" lon="3.81951">
        <ele>34.015766486486</ele>
        <time>2020-10-09T11:35:28.000Z</time>
      </trkpt>
      <trkpt lat="43.60922" lon="3.81951">
        <ele>34</ele>
        <time>2020-10-09T11:35:31.000Z</time>
      </trkpt>
      <trkpt lat="43.60919" lon="3.81951">
        <ele>34</ele>
        <time>2020-10-09T11:35:33.000Z</time>
      </trkpt>
      <trkpt lat="43.60917" lon="3.81951">
        <ele>34</ele>
        <time>2020-10-09T11:35:34.000Z</time>
      </trkpt>
      <trkpt lat="43.60915" lon="3.81951">
        <ele>34</ele>
        <time>2020-10-09T11:35:35.000Z</time>
      </trkpt>
      <trkpt lat="43.60913" lon="3.81952">
        <ele>34</ele>
        <time>2020-10-09T11:35:36.000Z</time>
      </trkpt>
      <trkpt lat="43.60911" lon="3.81953">
        <ele>34</ele>
        <time>2020-10-09T11:35:37.000Z</time>
      </trkpt>
      <trkpt lat="43.60909" lon="3.81953">
        <ele>34</ele>
        <time>2020-10-09T11:35:38.000Z</time>
      </trkpt>
      <trkpt lat="43.60907" lon="3.81953">
        <ele>34</ele>
        <time>2020-10-09T11:35:39.000Z</time>
      </trkpt>
      <trkpt lat="43.60904" lon="3.81954">
        <ele>34</ele>
        <time>2020-10-09T11:35:40.000Z</time>
      </trkpt>
      <trkpt lat="43.60901" lon="3.81955">
        <ele>34</ele>
        <time>2020-10-09T11:35:41.000Z</time>
      </trkpt>
      <trkpt lat="43.60899" lon="3.81956">
        <ele>34</ele>
        <time>2020-10-09T11:35:42.000Z</time>
      </trkpt>
      <trkpt lat="43.60897" lon="3.81957">
        <ele>34</ele>
        <time>2020-10-09T11:35:43.000Z</time>
      </trkpt>
      <trkpt lat="43.60894" lon="3.81958">
        <ele>34</ele>
        <time>2020-10-09T11:35:44.000Z</time>
      </trkpt>
      <trkpt lat="43.60891" lon="3.8196">
        <ele>34</ele>
        <time>2020-10-09T11:35:45.000Z</time>
      </trkpt>
      <trkpt lat="43.60889" lon="3.81961">
        <ele>34</ele>
        <time>2020-10-09T11:35:46.000Z</time>
      </trkpt>
      <trkpt lat="43.60887" lon="3.81961">
        <ele>34</ele>
        <time>2020-10-09T11:35:47.000Z</time>
      </trkpt>
      <trkpt lat="43.60885" lon="3.81961">
        <ele>34</ele>
        <time>2020-10-09T11:35:48.000Z</time>
      </trkpt>
      <trkpt lat="43.60883" lon="3.81961">
        <ele>34</ele>
        <time>2020-10-09T11:35:49.000Z</time>
      </trkpt>
      <trkpt lat="43.60881" lon="3.81961">
        <ele>34</ele>
        <time>2020-10-09T11:35:50.000Z</time>
      </trkpt>
      <trkpt lat="43.60878" lon="3.81958">
        <ele>34</ele>
        <time>2020-10-09T11:35:52.000Z</time>
      </trkpt>
      <trkpt lat="43.60877" lon="3.81955">
        <ele>34</ele>
        <time>2020-10-09T11:35:53.000Z</time>
      </trkpt>
      <trkpt lat="43.60876" lon="3.81951">
        <ele>34</ele>
        <time>2020-10-09T11:35:55.000Z</time>
      </trkpt>
      <trkpt lat="43.60875" lon="3.81948">
        <ele>34</ele>
        <time>2020-10-09T11:35:57.000Z</time>
      </trkpt>
      <trkpt lat="43.60874" lon="3.81945">
        <ele>34</ele>
        <time>2020-10-09T11:35:58.000Z</time>
      </trkpt>
      <trkpt lat="43.60871" lon="3.81942">
        <ele>34</ele>
        <time>2020-10-09T11:35:59.000Z</time>
      </trkpt>
      <trkpt lat="43.60868" lon="3.81941">
        <ele>34</ele>
        <time>2020-10-09T11:36:00.000Z</time>
      </trkpt>
      <trkpt lat="43.60864" lon="3.81941">
        <ele>34</ele>
        <time>2020-10-09T11:36:01.000Z</time>
      </trkpt>
      <trkpt lat="43.60861" lon="3.81942">
        <ele>34</ele>
        <time>2020-10-09T11:36:02.000Z</time>
      </trkpt>
      <trkpt lat="43.60857" lon="3.81942">
        <ele>34</ele>
        <time>2020-10-09T11:36:03.000Z</time>
      </trkpt>
      <trkpt lat="43.60853" lon="3.81943">
        <ele>34</ele>
        <time>2020-10-09T11:36:04.000Z</time>
      </trkpt>
      <trkpt lat="43.6085" lon="3.81943">
        <ele>34</ele>
        <time>2020-10-09T11:36:05.000Z</time>
      </trkpt>
      <trkpt lat="43.60845" lon="3.81943">
        <ele>34</ele>
        <time>2020-10-09T11:36:06.000Z</time>
      </trkpt>
      <trkpt lat="43.60841" lon="3.81943">
        <ele>34</ele>
        <time>2020-10-09T11:36:07.000Z</time>
      </trkpt>
      <trkpt lat="43.60837" lon="3.81943">
        <ele>34</ele>
        <time>2020-10-09T11:36:08.000Z</time>
      </trkpt>
      <trkpt lat="43.60833" lon="3.81943">
        <ele>34</ele>
        <time>2020-10-09T11:36:09.000Z</time>
      </trkpt>
      <trkpt lat="43.6083" lon="3.81943">
        <ele>34</ele>
        <time>2020-10-09T11:36:10.000Z</time>
      </trkpt>
      <trkpt lat="43.60827" lon="3.81942">
        <ele>34</ele>
        <time>2020-10-09T11:36:11.000Z</time>
      </trkpt>
      <trkpt lat="43.60823" lon="3.81941">
        <ele>34</ele>
        <time>2020-10-09T11:36:12.000Z</time>
      </trkpt>
      <trkpt lat="43.6082" lon="3.8194">
        <ele>34</ele>
        <time>2020-10-09T11:36:13.000Z</time>
      </trkpt>
      <trkpt lat="43.60817" lon="3.81939">
        <ele>34</ele>
        <time>2020-10-09T11:36:14.000Z</time>
      </trkpt>
      <trkpt lat="43.60813" lon="3.81938">
        <ele>34</ele>
        <time>2020-10-09T11:36:15.000Z</time>
      </trkpt>
      <trkpt lat="43.6081" lon="3.81938">
        <ele>34</ele>
        <time>2020-10-09T11:36:16.000Z</time>
      </trkpt>
      <trkpt lat="43.60807" lon="3.81938">
        <ele>34</ele>
        <time>2020-10-09T11:36:17.000Z</time>
      </trkpt>
      <trkpt lat="43.60804" lon="3.81937">
        <ele>34</ele>
        <time>2020-10-09T11:36:18.000Z</time>
      </trkpt>
      <trkpt lat="43.60801" lon="3.81936">
        <ele>34</ele>
        <time>2020-10-09T11:36:19.000Z</time>
      </trkpt>
      <trkpt lat="43.60798" lon="3.81935">
        <ele>34</ele>
        <time>2020-10-09T11:36:20.000Z</time>
      </trkpt>
      <trkpt lat="43.60795" lon="3.81933">
        <ele>34</ele>
        <time>2020-10-09T11:36:21.000Z</time>
      </trkpt>
      <trkpt lat="43.60791" lon="3.81932">
        <ele>34</ele>
        <time>2020-10-09T11:36:22.000Z</time>
      </trkpt>
      <trkpt lat="43.60788" lon="3.8193">
        <ele>34</ele>
        <time>2020-10-09T11:36:23.000Z</time>
      </trkpt>
      <trkpt lat="43.60786" lon="3.81928">
        <ele>34</ele>
        <time>2020-10-09T11:36:24.000Z</time>
      </trkpt>
      <trkpt lat="43.60783" lon="3.81925">
        <ele>34</ele>
        <time>2020-10-09T11:36:25.000Z</time>
      </trkpt>
      <trkpt lat="43.6078" lon="3.81923">
        <ele>34</ele>
        <time>2020-10-09T11:36:26.000Z</time>
      </trkpt>
      <trkpt lat="43.60777" lon="3.81921">
        <ele>34</ele>
        <time>2020-10-09T11:36:27.000Z</time>
      </trkpt>
      <trkpt lat="43.60774" lon="3.81918">
        <ele>34</ele>
        <time>2020-10-09T11:36:28.000Z</time>
      </trkpt>
      <trkpt lat="43.60771" lon="3.81916">
        <ele>34</ele>
        <time>2020-10-09T11:36:29.000Z</time>
      </trkpt>
      <trkpt lat="43.60768" lon="3.81914">
        <ele>34</ele>
        <time>2020-10-09T11:36:30.000Z</time>
      </trkpt>
      <trkpt lat="43.60765" lon="3.81911">
        <ele>34</ele>
        <time>2020-10-09T11:36:31.000Z</time>
      </trkpt>
      <trkpt lat="43.60763" lon="3.81908">
        <ele>34</ele>
        <time>2020-10-09T11:36:32.000Z</time>
      </trkpt>
      <trkpt lat="43.6076" lon="3.81906">
        <ele>34</ele>
        <time>2020-10-09T11:36:33.000Z</time>
      </trkpt>
      <trkpt lat="43.60757" lon="3.81903">
        <ele>34</ele>
        <time>2020-10-09T11:36:34.000Z</time>
      </trkpt>
      <trkpt lat="43.60755" lon="3.819">
        <ele>34</ele>
        <time>2020-10-09T11:36:35.000Z</time>
      </trkpt>
      <trkpt lat="43.60752" lon="3.81897">
        <ele>34</ele>
        <time>2020-10-09T11:36:36.000Z</time>
      </trkpt>
      <trkpt lat="43.6075" lon="3.81894">
        <ele>34</ele>
        <time>2020-10-09T11:36:37.000Z</time>
      </trkpt>
      <trkpt lat="43.60747" lon="3.81891">
        <ele>34</ele>
        <time>2020-10-09T11:36:38.000Z</time>
      </trkpt>
      <trkpt lat="43.60745" lon="3.81888">
        <ele>34</ele>
        <time>2020-10-09T11:36:39.000Z</time>
      </trkpt>
      <trkpt lat="43.60743" lon="3.81884">
        <ele>34</ele>
        <time>2020-10-09T11:36:40.000Z</time>
      </trkpt>
      <trkpt lat="43.60741" lon="3.8188">
        <ele>34</ele>
        <time>2020-10-09T11:36:41.000Z</time>
      </trkpt>
      <trkpt lat="43.60739" lon="3.81876">
        <ele>34</ele>
        <time>2020-10-09T11:36:42.000Z</time>
      </trkpt>
      <trkpt lat="43.60737" lon="3.81873">
        <ele>34</ele>
        <time>2020-10-09T11:36:43.000Z</time>
      </trkpt>
      <trkpt lat="43.60735" lon="3.81869">
        <ele>34</ele>
        <time>2020-10-09T11:36:44.000Z</time>
      </trkpt>
      <trkpt lat="43.60733" lon="3.81865">
        <ele>34</ele>
        <time>2020-10-09T11:36:45.000Z</time>
      </trkpt>
      <trkpt lat="43.6073" lon="3.81861">
        <ele>34</ele>
        <time>2020-10-09T11:36:46.000Z</time>
      </trkpt>
      <trkpt lat="43.60728" lon="3.81857">
        <ele>34</ele>
        <time>2020-10-09T11:36:47.000Z</time>
      </trkpt>
      <trkpt lat="43.60726" lon="3.81854">
        <ele>34</ele>
        <time>2020-10-09T11:36:48.000Z</time>
      </trkpt>
      <trkpt lat="43.60724" lon="3.8185">
        <ele>34</ele>
        <time>2020-10-09T11:36:49.000Z</time>
      </trkpt>
      <trkpt lat="43.60722" lon="3.81847">
        <ele>34</ele>
        <time>2020-10-09T11:36:50.000Z</time>
      </trkpt>
      <trkpt lat="43.6072" lon="3.81844">
        <ele>34</ele>
        <time>2020-10-09T11:36:51.000Z</time>
      </trkpt>
      <trkpt lat="43.60718" lon="3.81841">
        <ele>34</ele>
        <time>2020-10-09T11:36:52.000Z</time>
      </trkpt>
      <trkpt lat="43.60716" lon="3.81838">
        <ele>34</ele>
        <time>2020-10-09T11:36:53.000Z</time>
      </trkpt>
      <trkpt lat="43.60714" lon="3.81834">
        <ele>34</ele>
        <time>2020-10-09T11:36:54.000Z</time>
      </trkpt>
      <trkpt lat="43.60712" lon="3.81831">
        <ele>34</ele>
        <time>2020-10-09T11:36:55.000Z</time>
      </trkpt>
      <trkpt lat="43.6071" lon="3.81828">
        <ele>34</ele>
        <time>2020-10-09T11:36:56.000Z</time>
      </trkpt>
      <trkpt lat="43.60708" lon="3.81824">
        <ele>34</ele>
        <time>2020-10-09T11:36:57.000Z</time>
      </trkpt>
      <trkpt lat="43.60706" lon="3.81821">
        <ele>34</ele>
        <time>2020-10-09T11:36:58.000Z</time>
      </trkpt>
      <trkpt lat="43.60704" lon="3.81818">
        <ele>34</ele>
        <time>2020-10-09T11:36:59.000Z</time>
      </trkpt>
      <trkpt lat="43.60702" lon="3.81814">
        <ele>34</ele>
        <time>2020-10-09T11:37:00.000Z</time>
      </trkpt>
      <trkpt lat="43.60701" lon="3.81811">
        <ele>34</ele>
        <time>2020-10-09T11:37:01.000Z</time>
      </trkpt>
      <trkpt lat="43.60699" lon="3.81807">
        <ele>34</ele>
        <time>2020-10-09T11:37:02.000Z</time>
      </trkpt>
      <trkpt lat="43.60697" lon="3.81804">
        <ele>34</ele>
        <time>2020-10-09T11:37:03.000Z</time>
      </trkpt>
      <trkpt lat="43.60696" lon="3.81801">
        <ele>34</ele>
        <time>2020-10-09T11:37:04.000Z</time>
      </trkpt>
      <trkpt lat="43.60694" lon="3.81799">
        <ele>34</ele>
        <time>2020-10-09T11:37:05.000Z</time>
      </trkpt>
      <trkpt lat="43.60693" lon="3.81796">
        <ele>34</ele>
        <time>2020-10-09T11:37:06.000Z</time>
      </trkpt>
      <trkpt lat="43.60691" lon="3.81793">
        <ele>34</ele>
        <time>2020-10-09T11:37:07.000Z</time>
      </trkpt>
      <trkpt lat="43.60689" lon="3.81791">
        <ele>34</ele>
        <time>2020-10-09T11:37:08.000Z</time>
      </trkpt>
      <trkpt lat="43.60687" lon="3.81788">
        <ele>34</ele>
        <time>2020-10-09T11:37:09.000Z</time>
      </trkpt>
      <trkpt lat="43.60684" lon="3.81787">
        <ele>34</ele>
        <time>2020-10-09T11:37:10.000Z</time>
      </trkpt>
      <trkpt lat="43.60681" lon="3.81786">
        <ele>34</ele>
        <time>2020-10-09T11:37:11.000Z</time>
      </trkpt>
      <trkpt lat="43.60678" lon="3.81788">
        <ele>34</ele>
        <time>2020-10-09T11:37:12.000Z</time>
      </trkpt>
      <trkpt lat="43.60676" lon="3.81791">
        <ele>34</ele>
        <time>2020-10-09T11:37:13.000Z</time>
      </trkpt>
      <trkpt lat="43.60673" lon="3.81794">
        <ele>34</ele>
        <time>2020-10-09T11:37:14.000Z</time>
      </trkpt>
      <trkpt lat="43.60669" lon="3.81799">
        <ele>34</ele>
        <time>2020-10-09T11:37:16.000Z</time>
      </trkpt>
      <trkpt lat="43.6064" lon="3.81845">
        <ele>34</ele>
        <time>2020-10-09T11:37:28.000Z</time>
      </trkpt>
      <trkpt lat="43.6064" lon="3.81858">
        <ele>34</ele>
        <time>2020-10-09T11:37:31.000Z</time>
      </trkpt>
      <trkpt lat="43.60638" lon="3.81858">
        <ele>34</ele>
        <time>2020-10-09T11:37:35.000Z</time>
      </trkpt>
      <trkpt lat="43.60635" lon="3.8186">
        <ele>34</ele>
        <time>2020-10-09T11:37:37.000Z</time>
      </trkpt>
      <trkpt lat="43.60633" lon="3.81861">
        <ele>34</ele>
        <time>2020-10-09T11:37:38.000Z</time>
      </trkpt>
      <trkpt lat="43.60631" lon="3.81862">
        <ele>34</ele>
        <time>2020-10-09T11:37:39.000Z</time>
      </trkpt>
      <trkpt lat="43.60628" lon="3.81866">
        <ele>34</ele>
        <time>2020-10-09T11:37:40.000Z</time>
      </trkpt>
      <trkpt lat="43.60626" lon="3.8187">
        <ele>34.060311906615</ele>
        <time>2020-10-09T11:37:41.000Z</time>
      </trkpt>
      <trkpt lat="43.60624" lon="3.81874">
        <ele>34.254864435798</ele>
        <time>2020-10-09T11:37:42.000Z</time>
      </trkpt>
      <trkpt lat="43.60622" lon="3.81879">
        <ele>34.449416964981</ele>
        <time>2020-10-09T11:37:43.000Z</time>
      </trkpt>
      <trkpt lat="43.60619" lon="3.81883">
        <ele>34.643969494163</ele>
        <time>2020-10-09T11:37:44.000Z</time>
      </trkpt>
      <trkpt lat="43.60617" lon="3.81887">
        <ele>34.838522023346</ele>
        <time>2020-10-09T11:37:45.000Z</time>
      </trkpt>
      <trkpt lat="43.60614" lon="3.81891">
        <ele>35.033074552529</ele>
        <time>2020-10-09T11:37:46.000Z</time>
      </trkpt>
      <trkpt lat="43.60612" lon="3.81895">
        <ele>35.227627081712</ele>
        <time>2020-10-09T11:37:47.000Z</time>
      </trkpt>
      <trkpt lat="43.6061" lon="3.81899">
        <ele>35.422179610895</ele>
        <time>2020-10-09T11:37:48.000Z</time>
      </trkpt>
      <trkpt lat="43.60608" lon="3.81903">
        <ele>35.616732140078</ele>
        <time>2020-10-09T11:37:49.000Z</time>
      </trkpt>
      <trkpt lat="43.60606" lon="3.81907">
        <ele>35.811284669261</ele>
        <time>2020-10-09T11:37:50.000Z</time>
      </trkpt>
      <trkpt lat="43.60605" lon="3.8191">
        <ele>35.996910073109</ele>
        <time>2020-10-09T11:37:51.000Z</time>
      </trkpt>
      <trkpt lat="43.60603" lon="3.81913">
        <ele>35.893923495308</ele>
        <time>2020-10-09T11:37:52.000Z</time>
      </trkpt>
      <trkpt lat="43.60601" lon="3.81917">
        <ele>35.790936917508</ele>
        <time>2020-10-09T11:37:53.000Z</time>
      </trkpt>
      <trkpt lat="43.60599" lon="3.8192">
        <ele>35.687950339707</ele>
        <time>2020-10-09T11:37:54.000Z</time>
      </trkpt>
      <trkpt lat="43.60597" lon="3.81924">
        <ele>35.584963761907</ele>
        <time>2020-10-09T11:37:55.000Z</time>
      </trkpt>
      <trkpt lat="43.60595" lon="3.81927">
        <ele>35.481977184106</ele>
        <time>2020-10-09T11:37:56.000Z</time>
      </trkpt>
      <trkpt lat="43.60593" lon="3.8193">
        <ele>35.378990606306</ele>
        <time>2020-10-09T11:37:57.000Z</time>
      </trkpt>
      <trkpt lat="43.6059" lon="3.81932">
        <ele>35.276004028505</ele>
        <time>2020-10-09T11:37:58.000Z</time>
      </trkpt>
      <trkpt lat="43.60588" lon="3.81935">
        <ele>35.173017450705</ele>
        <time>2020-10-09T11:37:59.000Z</time>
      </trkpt>
      <trkpt lat="43.60585" lon="3.81936">
        <ele>35.070030872904</ele>
        <time>2020-10-09T11:38:00.000Z</time>
      </trkpt>
      <trkpt lat="43.60582" lon="3.81937">
        <ele>34.936</ele>
        <time>2020-10-09T11:38:01.000Z</time>
      </trkpt>
      <trkpt lat="43.60579" lon="3.81937">
        <ele>34.736</ele>
        <time>2020-10-09T11:38:02.000Z</time>
      </trkpt>
      <trkpt lat="43.60576" lon="3.81936">
        <ele>34.536</ele>
        <time>2020-10-09T11:38:03.000Z</time>
      </trkpt>
      <trkpt lat="43.60573" lon="3.81935">
        <ele>34.336</ele>
        <time>2020-10-09T11:38:04.000Z</time>
      </trkpt>
      <trkpt lat="43.6057" lon="3.81933">
        <ele>34.136</ele>
        <time>2020-10-09T11:38:05.000Z</time>
      </trkpt>
      <trkpt lat="43.60566" lon="3.8193">
        <ele>33.936</ele>
        <time>2020-10-09T11:38:06.000Z</time>
      </trkpt>
      <trkpt lat="43.60563" lon="3.81927">
        <ele>33.736</ele>
        <time>2020-10-09T11:38:07.000Z</time>
      </trkpt>
      <trkpt lat="43.6056" lon="3.81924">
        <ele>33.536</ele>
        <time>2020-10-09T11:38:08.000Z</time>
      </trkpt>
      <trkpt lat="43.60556" lon="3.81921">
        <ele>33.336</ele>
        <time>2020-10-09T11:38:09.000Z</time>
      </trkpt>
      <trkpt lat="43.60553" lon="3.81917">
        <ele>33.136</ele>
        <time>2020-10-09T11:38:10.000Z</time>
      </trkpt>
      <trkpt lat="43.60549" lon="3.81914">
        <ele>32.969022255651</ele>
        <time>2020-10-09T11:38:11.000Z</time>
      </trkpt>
      <trkpt lat="43.60546" lon="3.8191">
        <ele>32.872216804559</ele>
        <time>2020-10-09T11:38:12.000Z</time>
      </trkpt>
      <trkpt lat="43.60543" lon="3.81905">
        <ele>32.775411353467</ele>
        <time>2020-10-09T11:38:13.000Z</time>
      </trkpt>
      <trkpt lat="43.6054" lon="3.81901">
        <ele>32.678605902376</ele>
        <time>2020-10-09T11:38:14.000Z</time>
      </trkpt>
      <trkpt lat="43.60537" lon="3.81897">
        <ele>32.581800451284</ele>
        <time>2020-10-09T11:38:15.000Z</time>
      </trkpt>
      <trkpt lat="43.60534" lon="3.81894">
        <ele>32.484995000192</ele>
        <time>2020-10-09T11:38:16.000Z</time>
      </trkpt>
      <trkpt lat="43.60531" lon="3.8189">
        <ele>32.3881895491</ele>
        <time>2020-10-09T11:38:17.000Z</time>
      </trkpt>
      <trkpt lat="43.60528" lon="3.81887">
        <ele>32.291384098009</ele>
        <time>2020-10-09T11:38:18.000Z</time>
      </trkpt>
      <trkpt lat="43.60525" lon="3.81884">
        <ele>32.194578646917</ele>
        <time>2020-10-09T11:38:19.000Z</time>
      </trkpt>
      <trkpt lat="43.60522" lon="3.8188">
        <ele>32.097773195825</ele>
        <time>2020-10-09T11:38:20.000Z</time>
      </trkpt>
      <trkpt lat="43.60519" lon="3.81876">
        <ele>32.000967744734</ele>
        <time>2020-10-09T11:38:21.000Z</time>
      </trkpt>
      <trkpt lat="43.60516" lon="3.81873">
        <ele>32.099397911647</ele>
        <time>2020-10-09T11:38:22.000Z</time>
      </trkpt>
      <trkpt lat="43.60513" lon="3.81869">
        <ele>32.199799518072</ele>
        <time>2020-10-09T11:38:23.000Z</time>
      </trkpt>
      <trkpt lat="43.6051" lon="3.81866">
        <ele>32.300201124498</ele>
        <time>2020-10-09T11:38:24.000Z</time>
      </trkpt>
      <trkpt lat="43.60506" lon="3.81862">
        <ele>32.400602730924</ele>
        <time>2020-10-09T11:38:25.000Z</time>
      </trkpt>
      <trkpt lat="43.60503" lon="3.8186">
        <ele>32.501004337349</ele>
        <time>2020-10-09T11:38:26.000Z</time>
      </trkpt>
      <trkpt lat="43.60499" lon="3.81857">
        <ele>32.601405943775</ele>
        <time>2020-10-09T11:38:27.000Z</time>
      </trkpt>
      <trkpt lat="43.60495" lon="3.81855">
        <ele>32.701807550201</ele>
        <time>2020-10-09T11:38:28.000Z</time>
      </trkpt>
      <trkpt lat="43.60492" lon="3.81854">
        <ele>32.802209156627</ele>
        <time>2020-10-09T11:38:29.000Z</time>
      </trkpt>
      <trkpt lat="43.60488" lon="3.81852">
        <ele>32.902610763052</ele>
        <time>2020-10-09T11:38:30.000Z</time>
      </trkpt>
      <trkpt lat="43.60484" lon="3.81851">
        <ele>33</ele>
        <time>2020-10-09T11:38:31.000Z</time>
      </trkpt>
      <trkpt lat="43.60481" lon="3.8185">
        <ele>33</ele>
        <time>2020-10-09T11:38:32.000Z</time>
      </trkpt>
      <trkpt lat="43.60477" lon="3.81849">
        <ele>33</ele>
        <time>2020-10-09T11:38:33.000Z</time>
      </trkpt>
      <trkpt lat="43.60473" lon="3.81848">
        <ele>33</ele>
        <time>2020-10-09T11:38:34.000Z</time>
      </trkpt>
      <trkpt lat="43.6047" lon="3.81847">
        <ele>33</ele>
        <time>2020-10-09T11:38:35.000Z</time>
      </trkpt>
      <trkpt lat="43.60466" lon="3.81846">
        <ele>33</ele>
        <time>2020-10-09T11:38:36.000Z</time>
      </trkpt>
      <trkpt lat="43.60462" lon="3.81845">
        <ele>33</ele>
        <time>2020-10-09T11:38:37.000Z</time>
      </trkpt>
      <trkpt lat="43.60458" lon="3.81843">
        <ele>33</ele>
        <time>2020-10-09T11:38:38.000Z</time>
      </trkpt>
      <trkpt lat="43.60454" lon="3.81841">
        <ele>33</ele>
        <time>2020-10-09T11:38:39.000Z</time>
      </trkpt>
      <trkpt lat="43.6045" lon="3.81839">
        <ele>33</ele>
        <time>2020-10-09T11:38:40.000Z</time>
      </trkpt>
      <trkpt lat="43.60445" lon="3.81837">
        <ele>33</ele>
        <time>2020-10-09T11:38:41.000Z</time>
      </trkpt>
      <trkpt lat="43.60441" lon="3.81836">
        <ele>33</ele>
        <time>2020-10-09T11:38:42.000Z</time>
      </trkpt>
      <trkpt lat="43.60437" lon="3.81834">
        <ele>33</ele>
        <time>2020-10-09T11:38:43.000Z</time>
      </trkpt>
      <trkpt lat="43.60433" lon="3.81833">
        <ele>33</ele>
        <time>2020-10-09T11:38:44.000Z</time>
      </trkpt>
      <trkpt lat="43.6043" lon="3.81831">
        <ele>33</ele>
        <time>2020-10-09T11:38:45.000Z</time>
      </trkpt>
      <trkpt lat="43.60426" lon="3.8183">
        <ele>33</ele>
        <time>2020-10-09T11:38:46.000Z</time>
      </trkpt>
      <trkpt lat="43.60422" lon="3.8183">
        <ele>33</ele>
        <time>2020-10-09T11:38:47.000Z</time>
      </trkpt>
      <trkpt lat="43.60419" lon="3.8183">
        <ele>33</ele>
        <time>2020-10-09T11:38:48.000Z</time>
      </trkpt>
      <trkpt lat="43.60415" lon="3.81828">
        <ele>33</ele>
        <time>2020-10-09T11:38:49.000Z</time>
      </trkpt>
      <trkpt lat="43.60411" lon="3.81827">
        <ele>33</ele>
        <time>2020-10-09T11:38:50.000Z</time>
      </trkpt>
      <trkpt lat="43.60407" lon="3.81826">
        <ele>33</ele>
        <time>2020-10-09T11:38:51.000Z</time>
      </trkpt>
      <trkpt lat="43.60404" lon="3.81826">
        <ele>33</ele>
        <time>2020-10-09T11:38:52.000Z</time>
      </trkpt>
      <trkpt lat="43.604" lon="3.81824">
        <ele>33</ele>
        <time>2020-10-09T11:38:53.000Z</time>
      </trkpt>
      <trkpt lat="43.60397" lon="3.81823">
        <ele>33</ele>
        <time>2020-10-09T11:38:54.000Z</time>
      </trkpt>
      <trkpt lat="43.60394" lon="3.81823">
        <ele>33</ele>
        <time>2020-10-09T11:38:55.000Z</time>
      </trkpt>
      <trkpt lat="43.6039" lon="3.81822">
        <ele>33</ele>
        <time>2020-10-09T11:38:56.000Z</time>
      </trkpt>
      <trkpt lat="43.60387" lon="3.81821">
        <ele>33</ele>
        <time>2020-10-09T11:38:57.000Z</time>
      </trkpt>
      <trkpt lat="43.60383" lon="3.8182">
        <ele>33</ele>
        <time>2020-10-09T11:38:58.000Z</time>
      </trkpt>
      <trkpt lat="43.6038" lon="3.81818">
        <ele>33</ele>
        <time>2020-10-09T11:38:59.000Z</time>
      </trkpt>
      <trkpt lat="43.60376" lon="3.81817">
        <ele>33</ele>
        <time>2020-10-09T11:39:00.000Z</time>
      </trkpt>
      <trkpt lat="43.60373" lon="3.81815">
        <ele>33</ele>
        <time>2020-10-09T11:39:01.000Z</time>
      </trkpt>
      <trkpt lat="43.60369" lon="3.81812">
        <ele>33</ele>
        <time>2020-10-09T11:39:02.000Z</time>
      </trkpt>
      <trkpt lat="43.60366" lon="3.81809">
        <ele>33</ele>
        <time>2020-10-09T11:39:03.000Z</time>
      </trkpt>
      <trkpt lat="43.60363" lon="3.81805">
        <ele>33</ele>
        <time>2020-10-09T11:39:04.000Z</time>
      </trkpt>
      <trkpt lat="43.6036" lon="3.81802">
        <ele>33</ele>
        <time>2020-10-09T11:39:05.000Z</time>
      </trkpt>
      <trkpt lat="43.60357" lon="3.81798">
        <ele>33</ele>
        <time>2020-10-09T11:39:06.000Z</time>
      </trkpt>
      <trkpt lat="43.60355" lon="3.81795">
        <ele>33</ele>
        <time>2020-10-09T11:39:07.000Z</time>
      </trkpt>
      <trkpt lat="43.60352" lon="3.81791">
        <ele>33</ele>
        <time>2020-10-09T11:39:08.000Z</time>
      </trkpt>
      <trkpt lat="43.60348" lon="3.81787">
        <ele>33</ele>
        <time>2020-10-09T11:39:09.000Z</time>
      </trkpt>
      <trkpt lat="43.60345" lon="3.81784">
        <ele>33</ele>
        <time>2020-10-09T11:39:10.000Z</time>
      </trkpt>
      <trkpt lat="43.60342" lon="3.8178">
        <ele>32.968901836782</ele>
        <time>2020-10-09T11:39:11.000Z</time>
      </trkpt>
      <trkpt lat="43.60339" lon="3.81776">
        <ele>32.871720076725</ele>
        <time>2020-10-09T11:39:12.000Z</time>
      </trkpt>
      <trkpt lat="43.60335" lon="3.81772">
        <ele>32.774538316669</ele>
        <time>2020-10-09T11:39:13.000Z</time>
      </trkpt>
      <trkpt lat="43.60332" lon="3.81768">
        <ele>32.677356556612</ele>
        <time>2020-10-09T11:39:14.000Z</time>
      </trkpt>
      <trkpt lat="43.60329" lon="3.81764">
        <ele>32.580174796556</ele>
        <time>2020-10-09T11:39:15.000Z</time>
      </trkpt>
      <trkpt lat="43.60326" lon="3.8176">
        <ele>32.482993036499</ele>
        <time>2020-10-09T11:39:16.000Z</time>
      </trkpt>
      <trkpt lat="43.60323" lon="3.81756">
        <ele>32.385811276443</ele>
        <time>2020-10-09T11:39:17.000Z</time>
      </trkpt>
      <trkpt lat="43.6032" lon="3.81751">
        <ele>32.288629516386</ele>
        <time>2020-10-09T11:39:18.000Z</time>
      </trkpt>
      <trkpt lat="43.60318" lon="3.81746">
        <ele>32.19144775633</ele>
        <time>2020-10-09T11:39:19.000Z</time>
      </trkpt>
      <trkpt lat="43.60316" lon="3.8174">
        <ele>32.094265996273</ele>
        <time>2020-10-09T11:39:20.000Z</time>
      </trkpt>
      <trkpt lat="43.60315" lon="3.81734">
        <ele>32</ele>
        <time>2020-10-09T11:39:21.000Z</time>
      </trkpt>
      <trkpt lat="43.60315" lon="3.81728">
        <ele>32</ele>
        <time>2020-10-09T11:39:22.000Z</time>
      </trkpt>
      <trkpt lat="43.60315" lon="3.81722">
        <ele>32</ele>
        <time>2020-10-09T11:39:23.000Z</time>
      </trkpt>
      <trkpt lat="43.60315" lon="3.81716">
        <ele>32</ele>
        <time>2020-10-09T11:39:24.000Z</time>
      </trkpt>
      <trkpt lat="43.60316" lon="3.81711">
        <ele>32</ele>
        <time>2020-10-09T11:39:25.000Z</time>
      </trkpt>
      <trkpt lat="43.60317" lon="3.81704">
        <ele>32</ele>
        <time>2020-10-09T11:39:26.000Z</time>
      </trkpt>
      <trkpt lat="43.60317" lon="3.81698">
        <ele>32</ele>
        <time>2020-10-09T11:39:27.000Z</time>
      </trkpt>
      <trkpt lat="43.60318" lon="3.81692">
        <ele>32</ele>
        <time>2020-10-09T11:39:28.000Z</time>
      </trkpt>
      <trkpt lat="43.60319" lon="3.81685">
        <ele>32</ele>
        <time>2020-10-09T11:39:29.000Z</time>
      </trkpt>
      <trkpt lat="43.60319" lon="3.81679">
        <ele>32</ele>
        <time>2020-10-09T11:39:30.000Z</time>
      </trkpt>
      <trkpt lat="43.60319" lon="3.81673">
        <ele>32</ele>
        <time>2020-10-09T11:39:31.000Z</time>
      </trkpt>
      <trkpt lat="43.60319" lon="3.81668">
        <ele>32</ele>
        <time>2020-10-09T11:39:32.000Z</time>
      </trkpt>
      <trkpt lat="43.60318" lon="3.81661">
        <ele>32</ele>
        <time>2020-10-09T11:39:33.000Z</time>
      </trkpt>
      <trkpt lat="43.60316" lon="3.81656">
        <ele>32</ele>
        <time>2020-10-09T11:39:34.000Z</time>
      </trkpt>
      <trkpt lat="43.60315" lon="3.81651">
        <ele>32</ele>
        <time>2020-10-09T11:39:35.000Z</time>
      </trkpt>
      <trkpt lat="43.60313" lon="3.81647">
        <ele>32</ele>
        <time>2020-10-09T11:39:36.000Z</time>
      </trkpt>
      <trkpt lat="43.6031" lon="3.81642">
        <ele>32</ele>
        <time>2020-10-09T11:39:37.000Z</time>
      </trkpt>
      <trkpt lat="43.60306" lon="3.81638">
        <ele>32</ele>
        <time>2020-10-09T11:39:38.000Z</time>
      </trkpt>
      <trkpt lat="43.60303" lon="3.81635">
        <ele>32</ele>
        <time>2020-10-09T11:39:39.000Z</time>
      </trkpt>
      <trkpt lat="43.60299" lon="3.81632">
        <ele>32</ele>
        <time>2020-10-09T11:39:40.000Z</time>
      </trkpt>
      <trkpt lat="43.60295" lon="3.81629">
        <ele>32</ele>
        <time>2020-10-09T11:39:41.000Z</time>
      </trkpt>
      <trkpt lat="43.6029" lon="3.81626">
        <ele>32</ele>
        <time>2020-10-09T11:39:42.000Z</time>
      </trkpt>
      <trkpt lat="43.60286" lon="3.81625">
        <ele>32</ele>
        <time>2020-10-09T11:39:43.000Z</time>
      </trkpt>
      <trkpt lat="43.60282" lon="3.81624">
        <ele>32</ele>
        <time>2020-10-09T11:39:44.000Z</time>
      </trkpt>
      <trkpt lat="43.60278" lon="3.81623">
        <ele>32</ele>
        <time>2020-10-09T11:39:45.000Z</time>
      </trkpt>
      <trkpt lat="43.60274" lon="3.81622">
        <ele>32</ele>
        <time>2020-10-09T11:39:46.000Z</time>
      </trkpt>
      <trkpt lat="43.6027" lon="3.81619">
        <ele>32</ele>
        <time>2020-10-09T11:39:47.000Z</time>
      </trkpt>
      <trkpt lat="43.60267" lon="3.81616">
        <ele>32</ele>
        <time>2020-10-09T11:39:48.000Z</time>
      </trkpt>
      <trkpt lat="43.60265" lon="3.81613">
        <ele>32</ele>
        <time>2020-10-09T11:39:49.000Z</time>
      </trkpt>
      <trkpt lat="43.60263" lon="3.81609">
        <ele>32</ele>
        <time>2020-10-09T11:39:50.000Z</time>
      </trkpt>
      <trkpt lat="43.60261" lon="3.81605">
        <ele>32</ele>
        <time>2020-10-09T11:39:51.000Z</time>
      </trkpt>
      <trkpt lat="43.60261" lon="3.81601">
        <ele>32</ele>
        <time>2020-10-09T11:39:52.000Z</time>
      </trkpt>
      <trkpt lat="43.60262" lon="3.81596">
        <ele>32</ele>
        <time>2020-10-09T11:39:53.000Z</time>
      </trkpt>
      <trkpt lat="43.60262" lon="3.81591">
        <ele>32</ele>
        <time>2020-10-09T11:39:54.000Z</time>
      </trkpt>
      <trkpt lat="43.60263" lon="3.81586">
        <ele>32</ele>
        <time>2020-10-09T11:39:55.000Z</time>
      </trkpt>
      <trkpt lat="43.60264" lon="3.81581">
        <ele>32</ele>
        <time>2020-10-09T11:39:56.000Z</time>
      </trkpt>
      <trkpt lat="43.60265" lon="3.81577">
        <ele>32</ele>
        <time>2020-10-09T11:39:57.000Z</time>
      </trkpt>
      <trkpt lat="43.60267" lon="3.81571">
        <ele>32</ele>
        <time>2020-10-09T11:39:58.000Z</time>
      </trkpt>
      <trkpt lat="43.60268" lon="3.81566">
        <ele>32</ele>
        <time>2020-10-09T11:39:59.000Z</time>
      </trkpt>
      <trkpt lat="43.60269" lon="3.81561">
        <ele>32</ele>
        <time>2020-10-09T11:40:00.000Z</time>
      </trkpt>
      <trkpt lat="43.60271" lon="3.81556">
        <ele>32</ele>
        <time>2020-10-09T11:40:01.000Z</time>
      </trkpt>
      <trkpt lat="43.60272" lon="3.81551">
        <ele>32</ele>
        <time>2020-10-09T11:40:02.000Z</time>
      </trkpt>
      <trkpt lat="43.60274" lon="3.81546">
        <ele>32</ele>
        <time>2020-10-09T11:40:03.000Z</time>
      </trkpt>
      <trkpt lat="43.60276" lon="3.81541">
        <ele>32</ele>
        <time>2020-10-09T11:40:04.000Z</time>
      </trkpt>
      <trkpt lat="43.60279" lon="3.81538">
        <ele>32</ele>
        <time>2020-10-09T11:40:05.000Z</time>
      </trkpt>
      <trkpt lat="43.60282" lon="3.81535">
        <ele>32</ele>
        <time>2020-10-09T11:40:06.000Z</time>
      </trkpt>
      <trkpt lat="43.60285" lon="3.81533">
        <ele>32</ele>
        <time>2020-10-09T11:40:07.000Z</time>
      </trkpt>
      <trkpt lat="43.60289" lon="3.8153">
        <ele>32</ele>
        <time>2020-10-09T11:40:08.000Z</time>
      </trkpt>
      <trkpt lat="43.60291" lon="3.81527">
        <ele>32</ele>
        <time>2020-10-09T11:40:09.000Z</time>
      </trkpt>
      <trkpt lat="43.60292" lon="3.81524">
        <ele>32</ele>
        <time>2020-10-09T11:40:10.000Z</time>
      </trkpt>
      <trkpt lat="43.60292" lon="3.81521">
        <ele>31.968</ele>
        <time>2020-10-09T11:40:11.000Z</time>
      </trkpt>
      <trkpt lat="43.6029" lon="3.81519">
        <ele>31.868</ele>
        <time>2020-10-09T11:40:12.000Z</time>
      </trkpt>
      <trkpt lat="43.60287" lon="3.81519">
        <ele>31.768</ele>
        <time>2020-10-09T11:40:13.000Z</time>
      </trkpt>
      <trkpt lat="43.60285" lon="3.81518">
        <ele>31.668</ele>
        <time>2020-10-09T11:40:14.000Z</time>
      </trkpt>
      <trkpt lat="43.60282" lon="3.81517">
        <ele>31.568</ele>
        <time>2020-10-09T11:40:15.000Z</time>
      </trkpt>
      <trkpt lat="43.60279" lon="3.81516">
        <ele>31.468</ele>
        <time>2020-10-09T11:40:16.000Z</time>
      </trkpt>
      <trkpt lat="43.60276" lon="3.81515">
        <ele>31.368</ele>
        <time>2020-10-09T11:40:17.000Z</time>
      </trkpt>
      <trkpt lat="43.60273" lon="3.81513">
        <ele>31.268</ele>
        <time>2020-10-09T11:40:18.000Z</time>
      </trkpt>
      <trkpt lat="43.6027" lon="3.81512">
        <ele>31.168</ele>
        <time>2020-10-09T11:40:19.000Z</time>
      </trkpt>
      <trkpt lat="43.60267" lon="3.8151">
        <ele>31.068</ele>
        <time>2020-10-09T11:40:20.000Z</time>
      </trkpt>
      <trkpt lat="43.60264" lon="3.81509">
        <ele>31</ele>
        <time>2020-10-09T11:40:21.000Z</time>
      </trkpt>
      <trkpt lat="43.60261" lon="3.81507">
        <ele>31</ele>
        <time>2020-10-09T11:40:22.000Z</time>
      </trkpt>
      <trkpt lat="43.60258" lon="3.81505">
        <ele>31</ele>
        <time>2020-10-09T11:40:23.000Z</time>
      </trkpt>
      <trkpt lat="43.60255" lon="3.81502">
        <ele>31</ele>
        <time>2020-10-09T11:40:24.000Z</time>
      </trkpt>
      <trkpt lat="43.60252" lon="3.81501">
        <ele>31</ele>
        <time>2020-10-09T11:40:25.000Z</time>
      </trkpt>
      <trkpt lat="43.60249" lon="3.81499">
        <ele>31</ele>
        <time>2020-10-09T11:40:26.000Z</time>
      </trkpt>
      <trkpt lat="43.60246" lon="3.81498">
        <ele>31</ele>
        <time>2020-10-09T11:40:27.000Z</time>
      </trkpt>
      <trkpt lat="43.60242" lon="3.81496">
        <ele>31</ele>
        <time>2020-10-09T11:40:28.000Z</time>
      </trkpt>
      <trkpt lat="43.60239" lon="3.81494">
        <ele>31</ele>
        <time>2020-10-09T11:40:29.000Z</time>
      </trkpt>
      <trkpt lat="43.60235" lon="3.81492">
        <ele>31</ele>
        <time>2020-10-09T11:40:30.000Z</time>
      </trkpt>
      <trkpt lat="43.60232" lon="3.8149">
        <ele>31</ele>
        <time>2020-10-09T11:40:31.000Z</time>
      </trkpt>
      <trkpt lat="43.60228" lon="3.81488">
        <ele>31</ele>
        <time>2020-10-09T11:40:32.000Z</time>
      </trkpt>
      <trkpt lat="43.60224" lon="3.81485">
        <ele>31</ele>
        <time>2020-10-09T11:40:33.000Z</time>
      </trkpt>
      <trkpt lat="43.6022" lon="3.81484">
        <ele>31</ele>
        <time>2020-10-09T11:40:34.000Z</time>
      </trkpt>
      <trkpt lat="43.60216" lon="3.81483">
        <ele>31</ele>
        <time>2020-10-09T11:40:35.000Z</time>
      </trkpt>
      <trkpt lat="43.60212" lon="3.81483">
        <ele>31</ele>
        <time>2020-10-09T11:40:36.000Z</time>
      </trkpt>
      <trkpt lat="43.60208" lon="3.81483">
        <ele>31</ele>
        <time>2020-10-09T11:40:37.000Z</time>
      </trkpt>
      <trkpt lat="43.60205" lon="3.81485">
        <ele>31</ele>
        <time>2020-10-09T11:40:38.000Z</time>
      </trkpt>
      <trkpt lat="43.60202" lon="3.81488">
        <ele>31</ele>
        <time>2020-10-09T11:40:39.000Z</time>
      </trkpt>
      <trkpt lat="43.60198" lon="3.81492">
        <ele>31</ele>
        <time>2020-10-09T11:40:40.000Z</time>
      </trkpt>
      <trkpt lat="43.60194" lon="3.81494">
        <ele>30.996003994727</ele>
        <time>2020-10-09T11:40:41.000Z</time>
      </trkpt>
      <trkpt lat="43.6019" lon="3.81496">
        <ele>30.89610386289</ele>
        <time>2020-10-09T11:40:42.000Z</time>
      </trkpt>
      <trkpt lat="43.60185" lon="3.81498">
        <ele>30.796203731054</ele>
        <time>2020-10-09T11:40:43.000Z</time>
      </trkpt>
      <trkpt lat="43.6018" lon="3.81499">
        <ele>30.696303599218</ele>
        <time>2020-10-09T11:40:44.000Z</time>
      </trkpt>
      <trkpt lat="43.60175" lon="3.81499">
        <ele>30.596403467382</ele>
        <time>2020-10-09T11:40:45.000Z</time>
      </trkpt>
      <trkpt lat="43.60171" lon="3.815">
        <ele>30.496503335546</ele>
        <time>2020-10-09T11:40:46.000Z</time>
      </trkpt>
      <trkpt lat="43.60166" lon="3.81501">
        <ele>30.396603203709</ele>
        <time>2020-10-09T11:40:47.000Z</time>
      </trkpt>
      <trkpt lat="43.60162" lon="3.81502">
        <ele>30.296703071873</ele>
        <time>2020-10-09T11:40:48.000Z</time>
      </trkpt>
      <trkpt lat="43.60157" lon="3.81502">
        <ele>30.196802940037</ele>
        <time>2020-10-09T11:40:49.000Z</time>
      </trkpt>
      <trkpt lat="43.60153" lon="3.81503">
        <ele>30.096902808201</ele>
        <time>2020-10-09T11:40:50.000Z</time>
      </trkpt>
      <trkpt lat="43.60149" lon="3.81504">
        <ele>30</ele>
        <time>2020-10-09T11:40:51.000Z</time>
      </trkpt>
      <trkpt lat="43.60144" lon="3.81504">
        <ele>30</ele>
        <time>2020-10-09T11:40:52.000Z</time>
      </trkpt>
      <trkpt lat="43.6014" lon="3.81505">
        <ele>30</ele>
        <time>2020-10-09T11:40:53.000Z</time>
      </trkpt>
      <trkpt lat="43.60135" lon="3.81506">
        <ele>30</ele>
        <time>2020-10-09T11:40:54.000Z</time>
      </trkpt>
      <trkpt lat="43.6013" lon="3.81506">
        <ele>30</ele>
        <time>2020-10-09T11:40:55.000Z</time>
      </trkpt>
      <trkpt lat="43.60126" lon="3.81506">
        <ele>30</ele>
        <time>2020-10-09T11:40:56.000Z</time>
      </trkpt>
      <trkpt lat="43.60121" lon="3.81505">
        <ele>30</ele>
        <time>2020-10-09T11:40:57.000Z</time>
      </trkpt>
      <trkpt lat="43.60117" lon="3.81505">
        <ele>30</ele>
        <time>2020-10-09T11:40:58.000Z</time>
      </trkpt>
      <trkpt lat="43.60112" lon="3.81504">
        <ele>30</ele>
        <time>2020-10-09T11:40:59.000Z</time>
      </trkpt>
      <trkpt lat="43.60108" lon="3.81503">
        <ele>30</ele>
        <time>2020-10-09T11:41:00.000Z</time>
      </trkpt>
      <trkpt lat="43.60103" lon="3.81503">
        <ele>29.968</ele>
        <time>2020-10-09T11:41:01.000Z</time>
      </trkpt>
      <trkpt lat="43.60098" lon="3.81502">
        <ele>29.868</ele>
        <time>2020-10-09T11:41:02.000Z</time>
      </trkpt>
      <trkpt lat="43.60093" lon="3.81501">
        <ele>29.768</ele>
        <time>2020-10-09T11:41:03.000Z</time>
      </trkpt>
      <trkpt lat="43.60088" lon="3.81501">
        <ele>29.668</ele>
        <time>2020-10-09T11:41:04.000Z</time>
      </trkpt>
      <trkpt lat="43.60083" lon="3.815">
        <ele>29.568</ele>
        <time>2020-10-09T11:41:05.000Z</time>
      </trkpt>
      <trkpt lat="43.60078" lon="3.815">
        <ele>29.468</ele>
        <time>2020-10-09T11:41:06.000Z</time>
      </trkpt>
      <trkpt lat="43.60074" lon="3.815">
        <ele>29.368</ele>
        <time>2020-10-09T11:41:07.000Z</time>
      </trkpt>
      <trkpt lat="43.60069" lon="3.815">
        <ele>29.268</ele>
        <time>2020-10-09T11:41:08.000Z</time>
      </trkpt>
      <trkpt lat="43.60065" lon="3.815">
        <ele>29.168</ele>
        <time>2020-10-09T11:41:09.000Z</time>
      </trkpt>
      <trkpt lat="43.6006" lon="3.81501">
        <ele>29.068</ele>
        <time>2020-10-09T11:41:10.000Z</time>
      </trkpt>
      <trkpt lat="43.60055" lon="3.81501">
        <ele>29</ele>
        <time>2020-10-09T11:41:11.000Z</time>
      </trkpt>
      <trkpt lat="43.6005" lon="3.81502">
        <ele>29</ele>
        <time>2020-10-09T11:41:12.000Z</time>
      </trkpt>
      <trkpt lat="43.60046" lon="3.81503">
        <ele>29</ele>
        <time>2020-10-09T11:41:13.000Z</time>
      </trkpt>
      <trkpt lat="43.60042" lon="3.81503">
        <ele>29</ele>
        <time>2020-10-09T11:41:14.000Z</time>
      </trkpt>
      <trkpt lat="43.60038" lon="3.81504">
        <ele>29</ele>
        <time>2020-10-09T11:41:15.000Z</time>
      </trkpt>
      <trkpt lat="43.60034" lon="3.81504">
        <ele>29</ele>
        <time>2020-10-09T11:41:16.000Z</time>
      </trkpt>
      <trkpt lat="43.60031" lon="3.81504">
        <ele>29</ele>
        <time>2020-10-09T11:41:17.000Z</time>
      </trkpt>
      <trkpt lat="43.60027" lon="3.81505">
        <ele>29</ele>
        <time>2020-10-09T11:41:18.000Z</time>
      </trkpt>
      <trkpt lat="43.60024" lon="3.81504">
        <ele>29</ele>
        <time>2020-10-09T11:41:19.000Z</time>
      </trkpt>
      <trkpt lat="43.60021" lon="3.81504">
        <ele>29</ele>
        <time>2020-10-09T11:41:20.000Z</time>
      </trkpt>
      <trkpt lat="43.60018" lon="3.81503">
        <ele>29.032</ele>
        <time>2020-10-09T11:41:21.000Z</time>
      </trkpt>
      <trkpt lat="43.60015" lon="3.81501">
        <ele>29.132</ele>
        <time>2020-10-09T11:41:22.000Z</time>
      </trkpt>
      <trkpt lat="43.60012" lon="3.81498">
        <ele>29.232</ele>
        <time>2020-10-09T11:41:23.000Z</time>
      </trkpt>
      <trkpt lat="43.6001" lon="3.81495">
        <ele>29.332</ele>
        <time>2020-10-09T11:41:24.000Z</time>
      </trkpt>
      <trkpt lat="43.60007" lon="3.81492">
        <ele>29.432</ele>
        <time>2020-10-09T11:41:25.000Z</time>
      </trkpt>
      <trkpt lat="43.60006" lon="3.81488">
        <ele>29.532</ele>
        <time>2020-10-09T11:41:26.000Z</time>
      </trkpt>
      <trkpt lat="43.60006" lon="3.81483">
        <ele>29.632</ele>
        <time>2020-10-09T11:41:27.000Z</time>
      </trkpt>
      <trkpt lat="43.60007" lon="3.81478">
        <ele>29.732</ele>
        <time>2020-10-09T11:41:28.000Z</time>
      </trkpt>
      <trkpt lat="43.60009" lon="3.81474">
        <ele>29.832</ele>
        <time>2020-10-09T11:41:29.000Z</time>
      </trkpt>
      <trkpt lat="43.60011" lon="3.81469">
        <ele>29.932</ele>
        <time>2020-10-09T11:41:30.000Z</time>
      </trkpt>
      <trkpt lat="43.60013" lon="3.81464">
        <ele>30</ele>
        <time>2020-10-09T11:41:31.000Z</time>
      </trkpt>
      <trkpt lat="43.60015" lon="3.81459">
        <ele>30</ele>
        <time>2020-10-09T11:41:32.000Z</time>
      </trkpt>
      <trkpt lat="43.60017" lon="3.81454">
        <ele>30</ele>
        <time>2020-10-09T11:41:33.000Z</time>
      </trkpt>
      <trkpt lat="43.60018" lon="3.81448">
        <ele>30</ele>
        <time>2020-10-09T11:41:34.000Z</time>
      </trkpt>
      <trkpt lat="43.6002" lon="3.81443">
        <ele>30</ele>
        <time>2020-10-09T11:41:35.000Z</time>
      </trkpt>
      <trkpt lat="43.60021" lon="3.81437">
        <ele>30</ele>
        <time>2020-10-09T11:41:36.000Z</time>
      </trkpt>
      <trkpt lat="43.60023" lon="3.81431">
        <ele>30</ele>
        <time>2020-10-09T11:41:37.000Z</time>
      </trkpt>
      <trkpt lat="43.60025" lon="3.81426">
        <ele>30</ele>
        <time>2020-10-09T11:41:38.000Z</time>
      </trkpt>
      <trkpt lat="43.60027" lon="3.81421">
        <ele>30</ele>
        <time>2020-10-09T11:41:39.000Z</time>
      </trkpt>
      <trkpt lat="43.60028" lon="3.81415">
        <ele>30</ele>
        <time>2020-10-09T11:41:40.000Z</time>
      </trkpt>
      <trkpt lat="43.6003" lon="3.8141">
        <ele>29.968</ele>
        <time>2020-10-09T11:41:41.000Z</time>
      </trkpt>
      <trkpt lat="43.60031" lon="3.81405">
        <ele>29.868</ele>
        <time>2020-10-09T11:41:42.000Z</time>
      </trkpt>
      <trkpt lat="43.60032" lon="3.814">
        <ele>29.768</ele>
        <time>2020-10-09T11:41:43.000Z</time>
      </trkpt>
      <trkpt lat="43.60033" lon="3.81395">
        <ele>29.668</ele>
        <time>2020-10-09T11:41:44.000Z</time>
      </trkpt>
      <trkpt lat="43.60034" lon="3.8139">
        <ele>29.568</ele>
        <time>2020-10-09T11:41:45.000Z</time>
      </trkpt>
      <trkpt lat="43.60035" lon="3.81385">
        <ele>29.468</ele>
        <time>2020-10-09T11:41:46.000Z</time>
      </trkpt>
      <trkpt lat="43.60035" lon="3.81381">
        <ele>29.368</ele>
        <time>2020-10-09T11:41:47.000Z</time>
      </trkpt>
      <trkpt lat="43.60033" lon="3.81378">
        <ele>29.268</ele>
        <time>2020-10-09T11:41:48.000Z</time>
      </trkpt>
      <trkpt lat="43.60031" lon="3.81375">
        <ele>29.168</ele>
        <time>2020-10-09T11:41:49.000Z</time>
      </trkpt>
      <trkpt lat="43.60028" lon="3.81371">
        <ele>29.068</ele>
        <time>2020-10-09T11:41:50.000Z</time>
      </trkpt>
      <trkpt lat="43.60025" lon="3.81367">
        <ele>29</ele>
        <time>2020-10-09T11:41:51.000Z</time>
      </trkpt>
      <trkpt lat="43.60022" lon="3.81362">
        <ele>29</ele>
        <time>2020-10-09T11:41:52.000Z</time>
      </trkpt>
      <trkpt lat="43.60019" lon="3.81358">
        <ele>29</ele>
        <time>2020-10-09T11:41:53.000Z</time>
      </trkpt>
      <trkpt lat="43.60016" lon="3.81353">
        <ele>29</ele>
        <time>2020-10-09T11:41:54.000Z</time>
      </trkpt>
      <trkpt lat="43.60013" lon="3.81349">
        <ele>29</ele>
        <time>2020-10-09T11:41:55.000Z</time>
      </trkpt>
      <trkpt lat="43.60011" lon="3.81345">
        <ele>29</ele>
        <time>2020-10-09T11:41:56.000Z</time>
      </trkpt>
      <trkpt lat="43.60008" lon="3.81341">
        <ele>29</ele>
        <time>2020-10-09T11:41:57.000Z</time>
      </trkpt>
      <trkpt lat="43.60005" lon="3.81337">
        <ele>29</ele>
        <time>2020-10-09T11:41:58.000Z</time>
      </trkpt>
      <trkpt lat="43.60002" lon="3.81333">
        <ele>29</ele>
        <time>2020-10-09T11:41:59.000Z</time>
      </trkpt>
      <trkpt lat="43.59999" lon="3.81329">
        <ele>29</ele>
        <time>2020-10-09T11:42:00.000Z</time>
      </trkpt>
      <trkpt lat="43.59996" lon="3.81325">
        <ele>29.031098163218</ele>
        <time>2020-10-09T11:42:01.000Z</time>
      </trkpt>
      <trkpt lat="43.59993" lon="3.81321">
        <ele>29.128279923275</ele>
        <time>2020-10-09T11:42:02.000Z</time>
      </trkpt>
      <trkpt lat="43.5999" lon="3.81317">
        <ele>29.225461683331</ele>
        <time>2020-10-09T11:42:03.000Z</time>
      </trkpt>
      <trkpt lat="43.59988" lon="3.81313">
        <ele>29.322643443388</ele>
        <time>2020-10-09T11:42:04.000Z</time>
      </trkpt>
      <trkpt lat="43.59985" lon="3.81309">
        <ele>29.419825203444</ele>
        <time>2020-10-09T11:42:05.000Z</time>
      </trkpt>
      <trkpt lat="43.59982" lon="3.81305">
        <ele>29.517006963501</ele>
        <time>2020-10-09T11:42:06.000Z</time>
      </trkpt>
      <trkpt lat="43.5998" lon="3.81302">
        <ele>29.614188723557</ele>
        <time>2020-10-09T11:42:07.000Z</time>
      </trkpt>
      <trkpt lat="43.59977" lon="3.81299">
        <ele>29.711370483614</ele>
        <time>2020-10-09T11:42:08.000Z</time>
      </trkpt>
      <trkpt lat="43.59975" lon="3.81296">
        <ele>29.80855224367</ele>
        <time>2020-10-09T11:42:09.000Z</time>
      </trkpt>
      <trkpt lat="43.59972" lon="3.81292">
        <ele>29.905734003727</ele>
        <time>2020-10-09T11:42:10.000Z</time>
      </trkpt>
      <trkpt lat="43.5997" lon="3.81289">
        <ele>30.003089926891</ele>
        <time>2020-10-09T11:42:11.000Z</time>
      </trkpt>
      <trkpt lat="43.59967" lon="3.81286">
        <ele>30.106076504692</ele>
        <time>2020-10-09T11:42:12.000Z</time>
      </trkpt>
      <trkpt lat="43.59965" lon="3.81282">
        <ele>30.209063082492</ele>
        <time>2020-10-09T11:42:13.000Z</time>
      </trkpt>
      <trkpt lat="43.59962" lon="3.81279">
        <ele>30.312049660293</ele>
        <time>2020-10-09T11:42:14.000Z</time>
      </trkpt>
      <trkpt lat="43.5996" lon="3.81276">
        <ele>30.415036238093</ele>
        <time>2020-10-09T11:42:15.000Z</time>
      </trkpt>
      <trkpt lat="43.59957" lon="3.81273">
        <ele>30.518022815894</ele>
        <time>2020-10-09T11:42:16.000Z</time>
      </trkpt>
      <trkpt lat="43.59955" lon="3.8127">
        <ele>30.621009393694</ele>
        <time>2020-10-09T11:42:17.000Z</time>
      </trkpt>
      <trkpt lat="43.59953" lon="3.81268">
        <ele>30.723995971495</ele>
        <time>2020-10-09T11:42:18.000Z</time>
      </trkpt>
      <trkpt lat="43.5995" lon="3.81266">
        <ele>30.826982549295</ele>
        <time>2020-10-09T11:42:19.000Z</time>
      </trkpt>
      <trkpt lat="43.59948" lon="3.81263">
        <ele>30.929969127096</ele>
        <time>2020-10-09T11:42:20.000Z</time>
      </trkpt>
      <trkpt lat="43.59945" lon="3.81261">
        <ele>31.032</ele>
        <time>2020-10-09T11:42:21.000Z</time>
      </trkpt>
      <trkpt lat="43.59943" lon="3.81259">
        <ele>31.132</ele>
        <time>2020-10-09T11:42:22.000Z</time>
      </trkpt>
      <trkpt lat="43.5994" lon="3.81257">
        <ele>31.232</ele>
        <time>2020-10-09T11:42:23.000Z</time>
      </trkpt>
      <trkpt lat="43.59938" lon="3.81255">
        <ele>31.332</ele>
        <time>2020-10-09T11:42:24.000Z</time>
      </trkpt>
      <trkpt lat="43.59936" lon="3.81253">
        <ele>31.432</ele>
        <time>2020-10-09T11:42:25.000Z</time>
      </trkpt>
      <trkpt lat="43.59933" lon="3.81251">
        <ele>31.532</ele>
        <time>2020-10-09T11:42:26.000Z</time>
      </trkpt>
      <trkpt lat="43.59931" lon="3.81249">
        <ele>31.632</ele>
        <time>2020-10-09T11:42:27.000Z</time>
      </trkpt>
      <trkpt lat="43.59929" lon="3.81248">
        <ele>31.732</ele>
        <time>2020-10-09T11:42:28.000Z</time>
      </trkpt>
      <trkpt lat="43.59926" lon="3.81246">
        <ele>31.832</ele>
        <time>2020-10-09T11:42:29.000Z</time>
      </trkpt>
      <trkpt lat="43.59924" lon="3.81245">
        <ele>31.932</ele>
        <time>2020-10-09T11:42:30.000Z</time>
      </trkpt>
      <trkpt lat="43.59922" lon="3.81244">
        <ele>32.032</ele>
        <time>2020-10-09T11:42:31.000Z</time>
      </trkpt>
      <trkpt lat="43.5992" lon="3.81242">
        <ele>32.132</ele>
        <time>2020-10-09T11:42:32.000Z</time>
      </trkpt>
      <trkpt lat="43.59918" lon="3.8124">
        <ele>32.232</ele>
        <time>2020-10-09T11:42:33.000Z</time>
      </trkpt>
      <trkpt lat="43.59916" lon="3.81239">
        <ele>32.332</ele>
        <time>2020-10-09T11:42:34.000Z</time>
      </trkpt>
      <trkpt lat="43.59914" lon="3.81237">
        <ele>32.432</ele>
        <time>2020-10-09T11:42:35.000Z</time>
      </trkpt>
      <trkpt lat="43.59911" lon="3.81235">
        <ele>32.532</ele>
        <time>2020-10-09T11:42:36.000Z</time>
      </trkpt>
      <trkpt lat="43.59909" lon="3.81233">
        <ele>32.632</ele>
        <time>2020-10-09T11:42:37.000Z</time>
      </trkpt>
      <trkpt lat="43.59906" lon="3.81231">
        <ele>32.732</ele>
        <time>2020-10-09T11:42:38.000Z</time>
      </trkpt>
      <trkpt lat="43.59904" lon="3.81229">
        <ele>32.832</ele>
        <time>2020-10-09T11:42:39.000Z</time>
      </trkpt>
      <trkpt lat="43.59902" lon="3.81227">
        <ele>32.932</ele>
        <time>2020-10-09T11:42:40.000Z</time>
      </trkpt>
      <trkpt lat="43.59899" lon="3.81225">
        <ele>33.096</ele>
        <time>2020-10-09T11:42:41.000Z</time>
      </trkpt>
      <trkpt lat="43.59897" lon="3.81223">
        <ele>33.396</ele>
        <time>2020-10-09T11:42:42.000Z</time>
      </trkpt>
      <trkpt lat="43.59895" lon="3.81221">
        <ele>33.696</ele>
        <time>2020-10-09T11:42:43.000Z</time>
      </trkpt>
      <trkpt lat="43.59892" lon="3.81218">
        <ele>33.996</ele>
        <time>2020-10-09T11:42:44.000Z</time>
      </trkpt>
      <trkpt lat="43.5989" lon="3.81216">
        <ele>34.296</ele>
        <time>2020-10-09T11:42:45.000Z</time>
      </trkpt>
      <trkpt lat="43.59888" lon="3.81214">
        <ele>34.596</ele>
        <time>2020-10-09T11:42:46.000Z</time>
      </trkpt>
      <trkpt lat="43.59886" lon="3.81212">
        <ele>34.896</ele>
        <time>2020-10-09T11:42:47.000Z</time>
      </trkpt>
      <trkpt lat="43.59883" lon="3.81211">
        <ele>35.196</ele>
        <time>2020-10-09T11:42:48.000Z</time>
      </trkpt>
      <trkpt lat="43.59881" lon="3.81209">
        <ele>35.496</ele>
        <time>2020-10-09T11:42:49.000Z</time>
      </trkpt>
      <trkpt lat="43.59879" lon="3.81207">
        <ele>35.796</ele>
        <time>2020-10-09T11:42:50.000Z</time>
      </trkpt>
      <trkpt lat="43.59877" lon="3.81205">
        <ele>36.064</ele>
        <time>2020-10-09T11:42:51.000Z</time>
      </trkpt>
      <trkpt lat="43.59875" lon="3.81203">
        <ele>36.264</ele>
        <time>2020-10-09T11:42:52.000Z</time>
      </trkpt>
      <trkpt lat="43.59873" lon="3.812">
        <ele>36.464</ele>
        <time>2020-10-09T11:42:53.000Z</time>
      </trkpt>
      <trkpt lat="43.59871" lon="3.81198">
        <ele>36.664</ele>
        <time>2020-10-09T11:42:54.000Z</time>
      </trkpt>
      <trkpt lat="43.59869" lon="3.81196">
        <ele>36.864</ele>
        <time>2020-10-09T11:42:55.000Z</time>
      </trkpt>
      <trkpt lat="43.59867" lon="3.81194">
        <ele>37.064</ele>
        <time>2020-10-09T11:42:56.000Z</time>
      </trkpt>
      <trkpt lat="43.59865" lon="3.81192">
        <ele>37.264</ele>
        <time>2020-10-09T11:42:57.000Z</time>
      </trkpt>
      <trkpt lat="43.59863" lon="3.8119">
        <ele>37.464</ele>
        <time>2020-10-09T11:42:58.000Z</time>
      </trkpt>
      <trkpt lat="43.59861" lon="3.81188">
        <ele>37.664</ele>
        <time>2020-10-09T11:42:59.000Z</time>
      </trkpt>
      <trkpt lat="43.5986" lon="3.81185">
        <ele>37.864</ele>
        <time>2020-10-09T11:43:00.000Z</time>
      </trkpt>
      <trkpt lat="43.59858" lon="3.81183">
        <ele>38.032</ele>
        <time>2020-10-09T11:43:01.000Z</time>
      </trkpt>
      <trkpt lat="43.59856" lon="3.8118">
        <ele>38.132</ele>
        <time>2020-10-09T11:43:02.000Z</time>
      </trkpt>
      <trkpt lat="43.59854" lon="3.81178">
        <ele>38.232</ele>
        <time>2020-10-09T11:43:03.000Z</time>
      </trkpt>
      <trkpt lat="43.59852" lon="3.81175">
        <ele>38.332</ele>
        <time>2020-10-09T11:43:04.000Z</time>
      </trkpt>
      <trkpt lat="43.59851" lon="3.81173">
        <ele>38.432</ele>
        <time>2020-10-09T11:43:05.000Z</time>
      </trkpt>
      <trkpt lat="43.59849" lon="3.8117">
        <ele>38.532</ele>
        <time>2020-10-09T11:43:06.000Z</time>
      </trkpt>
      <trkpt lat="43.59847" lon="3.81167">
        <ele>38.632</ele>
        <time>2020-10-09T11:43:07.000Z</time>
      </trkpt>
      <trkpt lat="43.59846" lon="3.81164">
        <ele>38.732</ele>
        <time>2020-10-09T11:43:08.000Z</time>
      </trkpt>
      <trkpt lat="43.59844" lon="3.81162">
        <ele>38.832</ele>
        <time>2020-10-09T11:43:09.000Z</time>
      </trkpt>
      <trkpt lat="43.59843" lon="3.81159">
        <ele>38.932</ele>
        <time>2020-10-09T11:43:10.000Z</time>
      </trkpt>
      <trkpt lat="43.59842" lon="3.81156">
        <ele>39.032</ele>
        <time>2020-10-09T11:43:11.000Z</time>
      </trkpt>
      <trkpt lat="43.5984" lon="3.81153">
        <ele>39.132</ele>
        <time>2020-10-09T11:43:12.000Z</time>
      </trkpt>
      <trkpt lat="43.59839" lon="3.81151">
        <ele>39.232</ele>
        <time>2020-10-09T11:43:13.000Z</time>
      </trkpt>
      <trkpt lat="43.59837" lon="3.81148">
        <ele>39.332</ele>
        <time>2020-10-09T11:43:14.000Z</time>
      </trkpt>
      <trkpt lat="43.59836" lon="3.81145">
        <ele>39.432</ele>
        <time>2020-10-09T11:43:15.000Z</time>
      </trkpt>
      <trkpt lat="43.59835" lon="3.81143">
        <ele>39.532</ele>
        <time>2020-10-09T11:43:16.000Z</time>
      </trkpt>
      <trkpt lat="43.59834" lon="3.8114">
        <ele>39.632</ele>
        <time>2020-10-09T11:43:17.000Z</time>
      </trkpt>
      <trkpt lat="43.59832" lon="3.81136">
        <ele>39.732</ele>
        <time>2020-10-09T11:43:18.000Z</time>
      </trkpt>
      <trkpt lat="43.59831" lon="3.81133">
        <ele>39.832</ele>
        <time>2020-10-09T11:43:19.000Z</time>
      </trkpt>
      <trkpt lat="43.5983" lon="3.8113">
        <ele>39.932</ele>
        <time>2020-10-09T11:43:20.000Z</time>
      </trkpt>
      <trkpt lat="43.59829" lon="3.81126">
        <ele>40.032</ele>
        <time>2020-10-09T11:43:21.000Z</time>
      </trkpt>
      <trkpt lat="43.59828" lon="3.81123">
        <ele>40.132</ele>
        <time>2020-10-09T11:43:22.000Z</time>
      </trkpt>
      <trkpt lat="43.59826" lon="3.81119">
        <ele>40.232</ele>
        <time>2020-10-09T11:43:23.000Z</time>
      </trkpt>
      <trkpt lat="43.59825" lon="3.81115">
        <ele>40.332</ele>
        <time>2020-10-09T11:43:24.000Z</time>
      </trkpt>
      <trkpt lat="43.59824" lon="3.81112">
        <ele>40.432</ele>
        <time>2020-10-09T11:43:25.000Z</time>
      </trkpt>
      <trkpt lat="43.59822" lon="3.81108">
        <ele>40.532</ele>
        <time>2020-10-09T11:43:26.000Z</time>
      </trkpt>
      <trkpt lat="43.5982" lon="3.81105">
        <ele>40.632</ele>
        <time>2020-10-09T11:43:27.000Z</time>
      </trkpt>
      <trkpt lat="43.59819" lon="3.81101">
        <ele>40.732</ele>
        <time>2020-10-09T11:43:28.000Z</time>
      </trkpt>
      <trkpt lat="43.59817" lon="3.81098">
        <ele>40.832</ele>
        <time>2020-10-09T11:43:29.000Z</time>
      </trkpt>
      <trkpt lat="43.59816" lon="3.81094">
        <ele>40.932</ele>
        <time>2020-10-09T11:43:30.000Z</time>
      </trkpt>
      <trkpt lat="43.59814" lon="3.81091">
        <ele>41.032</ele>
        <time>2020-10-09T11:43:31.000Z</time>
      </trkpt>
      <trkpt lat="43.59813" lon="3.81087">
        <ele>41.132</ele>
        <time>2020-10-09T11:43:32.000Z</time>
      </trkpt>
      <trkpt lat="43.59811" lon="3.81084">
        <ele>41.232</ele>
        <time>2020-10-09T11:43:33.000Z</time>
      </trkpt>
      <trkpt lat="43.59809" lon="3.81081">
        <ele>41.332</ele>
        <time>2020-10-09T11:43:34.000Z</time>
      </trkpt>
      <trkpt lat="43.59808" lon="3.81077">
        <ele>41.432</ele>
        <time>2020-10-09T11:43:35.000Z</time>
      </trkpt>
      <trkpt lat="43.59806" lon="3.81074">
        <ele>41.532</ele>
        <time>2020-10-09T11:43:36.000Z</time>
      </trkpt>
      <trkpt lat="43.59805" lon="3.8107">
        <ele>41.632</ele>
        <time>2020-10-09T11:43:37.000Z</time>
      </trkpt>
      <trkpt lat="43.59803" lon="3.81067">
        <ele>41.732</ele>
        <time>2020-10-09T11:43:38.000Z</time>
      </trkpt>
      <trkpt lat="43.59802" lon="3.81064">
        <ele>41.832</ele>
        <time>2020-10-09T11:43:39.000Z</time>
      </trkpt>
      <trkpt lat="43.598" lon="3.81061">
        <ele>41.932</ele>
        <time>2020-10-09T11:43:40.000Z</time>
      </trkpt>
      <trkpt lat="43.59799" lon="3.81058">
        <ele>42.032</ele>
        <time>2020-10-09T11:43:41.000Z</time>
      </trkpt>
      <trkpt lat="43.59798" lon="3.81055">
        <ele>42.132</ele>
        <time>2020-10-09T11:43:42.000Z</time>
      </trkpt>
      <trkpt lat="43.59796" lon="3.81052">
        <ele>42.232</ele>
        <time>2020-10-09T11:43:43.000Z</time>
      </trkpt>
      <trkpt lat="43.59795" lon="3.81049">
        <ele>42.332</ele>
        <time>2020-10-09T11:43:44.000Z</time>
      </trkpt>
      <trkpt lat="43.59793" lon="3.81046">
        <ele>42.432</ele>
        <time>2020-10-09T11:43:45.000Z</time>
      </trkpt>
      <trkpt lat="43.59792" lon="3.81042">
        <ele>42.532</ele>
        <time>2020-10-09T11:43:46.000Z</time>
      </trkpt>
      <trkpt lat="43.5979" lon="3.81039">
        <ele>42.632</ele>
        <time>2020-10-09T11:43:47.000Z</time>
      </trkpt>
      <trkpt lat="43.59789" lon="3.81036">
        <ele>42.732</ele>
        <time>2020-10-09T11:43:48.000Z</time>
      </trkpt>
      <trkpt lat="43.59788" lon="3.81032">
        <ele>42.832</ele>
        <time>2020-10-09T11:43:49.000Z</time>
      </trkpt>
      <trkpt lat="43.59786" lon="3.81029">
        <ele>42.932</ele>
        <time>2020-10-09T11:43:50.000Z</time>
      </trkpt>
      <trkpt lat="43.59785" lon="3.81026">
        <ele>43.032</ele>
        <time>2020-10-09T11:43:51.000Z</time>
      </trkpt>
      <trkpt lat="43.59783" lon="3.81022">
        <ele>43.132</ele>
        <time>2020-10-09T11:43:52.000Z</time>
      </trkpt>
      <trkpt lat="43.59782" lon="3.81019">
        <ele>43.232</ele>
        <time>2020-10-09T11:43:53.000Z</time>
      </trkpt>
      <trkpt lat="43.5978" lon="3.81016">
        <ele>43.332</ele>
        <time>2020-10-09T11:43:54.000Z</time>
      </trkpt>
      <trkpt lat="43.59779" lon="3.81013">
        <ele>43.432</ele>
        <time>2020-10-09T11:43:55.000Z</time>
      </trkpt>
      <trkpt lat="43.59777" lon="3.8101">
        <ele>43.532</ele>
        <time>2020-10-09T11:43:56.000Z</time>
      </trkpt>
      <trkpt lat="43.59775" lon="3.81007">
        <ele>43.632</ele>
        <time>2020-10-09T11:43:57.000Z</time>
      </trkpt>
      <trkpt lat="43.59774" lon="3.81004">
        <ele>43.732</ele>
        <time>2020-10-09T11:43:58.000Z</time>
      </trkpt>
      <trkpt lat="43.59773" lon="3.81001">
        <ele>43.832</ele>
        <time>2020-10-09T11:43:59.000Z</time>
      </trkpt>
      <trkpt lat="43.59771" lon="3.80998">
        <ele>43.932</ele>
        <time>2020-10-09T11:44:00.000Z</time>
      </trkpt>
      <trkpt lat="43.5977" lon="3.80995">
        <ele>44.061244037893</ele>
        <time>2020-10-09T11:44:01.000Z</time>
      </trkpt>
      <trkpt lat="43.59768" lon="3.80992">
        <ele>44.252631656308</ele>
        <time>2020-10-09T11:44:02.000Z</time>
      </trkpt>
      <trkpt lat="43.59767" lon="3.80988">
        <ele>44.444019274724</ele>
        <time>2020-10-09T11:44:03.000Z</time>
      </trkpt>
      <trkpt lat="43.59766" lon="3.80985">
        <ele>44.635406893139</ele>
        <time>2020-10-09T11:44:04.000Z</time>
      </trkpt>
      <trkpt lat="43.59764" lon="3.80982">
        <ele>44.826794511554</ele>
        <time>2020-10-09T11:44:05.000Z</time>
      </trkpt>
      <trkpt lat="43.59763" lon="3.80979">
        <ele>45.01818212997</ele>
        <time>2020-10-09T11:44:06.000Z</time>
      </trkpt>
      <trkpt lat="43.59762" lon="3.80976">
        <ele>45.209569748385</ele>
        <time>2020-10-09T11:44:07.000Z</time>
      </trkpt>
      <trkpt lat="43.5976" lon="3.80973">
        <ele>45.4009573668</ele>
        <time>2020-10-09T11:44:08.000Z</time>
      </trkpt>
      <trkpt lat="43.59759" lon="3.8097">
        <ele>45.592344985216</ele>
        <time>2020-10-09T11:44:09.000Z</time>
      </trkpt>
      <trkpt lat="43.59757" lon="3.80967">
        <ele>45.783732603631</ele>
        <time>2020-10-09T11:44:10.000Z</time>
      </trkpt>
      <trkpt lat="43.59755" lon="3.80963">
        <ele>45.975120222046</ele>
        <time>2020-10-09T11:44:11.000Z</time>
      </trkpt>
      <trkpt lat="43.59754" lon="3.8096">
        <ele>46.091099780993</ele>
        <time>2020-10-09T11:44:12.000Z</time>
      </trkpt>
      <trkpt lat="43.59752" lon="3.80956">
        <ele>46.195811787791</ele>
        <time>2020-10-09T11:44:13.000Z</time>
      </trkpt>
      <trkpt lat="43.59751" lon="3.80953">
        <ele>46.300523794589</ele>
        <time>2020-10-09T11:44:14.000Z</time>
      </trkpt>
      <trkpt lat="43.59749" lon="3.80949">
        <ele>46.405235801387</ele>
        <time>2020-10-09T11:44:15.000Z</time>
      </trkpt>
      <trkpt lat="43.59747" lon="3.80946">
        <ele>46.509947808185</ele>
        <time>2020-10-09T11:44:16.000Z</time>
      </trkpt>
      <trkpt lat="43.59746" lon="3.80943">
        <ele>46.614659814983</ele>
        <time>2020-10-09T11:44:17.000Z</time>
      </trkpt>
      <trkpt lat="43.59745" lon="3.80939">
        <ele>46.719371821781</ele>
        <time>2020-10-09T11:44:18.000Z</time>
      </trkpt>
      <trkpt lat="43.59743" lon="3.80936">
        <ele>46.824083828579</ele>
        <time>2020-10-09T11:44:19.000Z</time>
      </trkpt>
      <trkpt lat="43.59742" lon="3.80932">
        <ele>46.928795835377</ele>
        <time>2020-10-09T11:44:20.000Z</time>
      </trkpt>
      <trkpt lat="43.59741" lon="3.80928">
        <ele>47.032</ele>
        <time>2020-10-09T11:44:21.000Z</time>
      </trkpt>
      <trkpt lat="43.5974" lon="3.80924">
        <ele>47.132</ele>
        <time>2020-10-09T11:44:22.000Z</time>
      </trkpt>
      <trkpt lat="43.59739" lon="3.8092">
        <ele>47.232</ele>
        <time>2020-10-09T11:44:23.000Z</time>
      </trkpt>
      <trkpt lat="43.59739" lon="3.80916">
        <ele>47.332</ele>
        <time>2020-10-09T11:44:24.000Z</time>
      </trkpt>
      <trkpt lat="43.59738" lon="3.80912">
        <ele>47.432</ele>
        <time>2020-10-09T11:44:25.000Z</time>
      </trkpt>
      <trkpt lat="43.59737" lon="3.80908">
        <ele>47.532</ele>
        <time>2020-10-09T11:44:26.000Z</time>
      </trkpt>
      <trkpt lat="43.59736" lon="3.80904">
        <ele>47.632</ele>
        <time>2020-10-09T11:44:27.000Z</time>
      </trkpt>
      <trkpt lat="43.59735" lon="3.809">
        <ele>47.732</ele>
        <time>2020-10-09T11:44:28.000Z</time>
      </trkpt>
      <trkpt lat="43.59735" lon="3.80895">
        <ele>47.832</ele>
        <time>2020-10-09T11:44:29.000Z</time>
      </trkpt>
      <trkpt lat="43.59734" lon="3.80891">
        <ele>47.932</ele>
        <time>2020-10-09T11:44:30.000Z</time>
      </trkpt>
      <trkpt lat="43.59733" lon="3.80887">
        <ele>48.031746031746</ele>
        <time>2020-10-09T11:44:31.000Z</time>
      </trkpt>
      <trkpt lat="43.59732" lon="3.80882">
        <ele>48.130952380952</ele>
        <time>2020-10-09T11:44:32.000Z</time>
      </trkpt>
      <trkpt lat="43.59731" lon="3.80878">
        <ele>48.230158730159</ele>
        <time>2020-10-09T11:44:33.000Z</time>
      </trkpt>
      <trkpt lat="43.5973" lon="3.80873">
        <ele>48.329365079365</ele>
        <time>2020-10-09T11:44:34.000Z</time>
      </trkpt>
      <trkpt lat="43.59729" lon="3.80869">
        <ele>48.428571428571</ele>
        <time>2020-10-09T11:44:35.000Z</time>
      </trkpt>
      <trkpt lat="43.59729" lon="3.80864">
        <ele>48.527777777778</ele>
        <time>2020-10-09T11:44:36.000Z</time>
      </trkpt>
      <trkpt lat="43.59728" lon="3.8086">
        <ele>48.626984126984</ele>
        <time>2020-10-09T11:44:37.000Z</time>
      </trkpt>
      <trkpt lat="43.59727" lon="3.80855">
        <ele>48.726190476191</ele>
        <time>2020-10-09T11:44:38.000Z</time>
      </trkpt>
      <trkpt lat="43.59727" lon="3.8085">
        <ele>48.825396825397</ele>
        <time>2020-10-09T11:44:39.000Z</time>
      </trkpt>
      <trkpt lat="43.59726" lon="3.80846">
        <ele>48.924603174603</ele>
        <time>2020-10-09T11:44:40.000Z</time>
      </trkpt>
      <trkpt lat="43.59725" lon="3.80841">
        <ele>49</ele>
        <time>2020-10-09T11:44:41.000Z</time>
      </trkpt>
      <trkpt lat="43.59724" lon="3.80837">
        <ele>49</ele>
        <time>2020-10-09T11:44:42.000Z</time>
      </trkpt>
      <trkpt lat="43.59723" lon="3.80832">
        <ele>49</ele>
        <time>2020-10-09T11:44:43.000Z</time>
      </trkpt>
      <trkpt lat="43.59722" lon="3.80827">
        <ele>49</ele>
        <time>2020-10-09T11:44:44.000Z</time>
      </trkpt>
      <trkpt lat="43.5972" lon="3.80822">
        <ele>49</ele>
        <time>2020-10-09T11:44:45.000Z</time>
      </trkpt>
      <trkpt lat="43.59719" lon="3.80818">
        <ele>49</ele>
        <time>2020-10-09T11:44:46.000Z</time>
      </trkpt>
      <trkpt lat="43.59718" lon="3.80813">
        <ele>49</ele>
        <time>2020-10-09T11:44:47.000Z</time>
      </trkpt>
      <trkpt lat="43.59717" lon="3.80808">
        <ele>49</ele>
        <time>2020-10-09T11:44:48.000Z</time>
      </trkpt>
      <trkpt lat="43.59716" lon="3.80804">
        <ele>49</ele>
        <time>2020-10-09T11:44:49.000Z</time>
      </trkpt>
      <trkpt lat="43.59715" lon="3.80799">
        <ele>49</ele>
        <time>2020-10-09T11:44:50.000Z</time>
      </trkpt>
      <trkpt lat="43.59714" lon="3.80794">
        <ele>49.032</ele>
        <time>2020-10-09T11:44:51.000Z</time>
      </trkpt>
      <trkpt lat="43.59712" lon="3.80789">
        <ele>49.132</ele>
        <time>2020-10-09T11:44:52.000Z</time>
      </trkpt>
      <trkpt lat="43.59711" lon="3.80784">
        <ele>49.232</ele>
        <time>2020-10-09T11:44:53.000Z</time>
      </trkpt>
      <trkpt lat="43.59709" lon="3.8078">
        <ele>49.332</ele>
        <time>2020-10-09T11:44:54.000Z</time>
      </trkpt>
      <trkpt lat="43.59708" lon="3.80775">
        <ele>49.432</ele>
        <time>2020-10-09T11:44:55.000Z</time>
      </trkpt>
      <trkpt lat="43.59706" lon="3.80771">
        <ele>49.532</ele>
        <time>2020-10-09T11:44:56.000Z</time>
      </trkpt>
      <trkpt lat="43.59705" lon="3.80766">
        <ele>49.632</ele>
        <time>2020-10-09T11:44:57.000Z</time>
      </trkpt>
      <trkpt lat="43.59704" lon="3.80762">
        <ele>49.732</ele>
        <time>2020-10-09T11:44:58.000Z</time>
      </trkpt>
      <trkpt lat="43.59702" lon="3.80757">
        <ele>49.832</ele>
        <time>2020-10-09T11:44:59.000Z</time>
      </trkpt>
      <trkpt lat="43.59701" lon="3.80752">
        <ele>49.932</ele>
        <time>2020-10-09T11:45:00.000Z</time>
      </trkpt>
      <trkpt lat="43.597" lon="3.80748">
        <ele>50.031098163218</ele>
        <time>2020-10-09T11:45:01.000Z</time>
      </trkpt>
      <trkpt lat="43.597" lon="3.80743">
        <ele>50.128279923275</ele>
        <time>2020-10-09T11:45:02.000Z</time>
      </trkpt>
      <trkpt lat="43.59699" lon="3.80738">
        <ele>50.225461683331</ele>
        <time>2020-10-09T11:45:03.000Z</time>
      </trkpt>
      <trkpt lat="43.59698" lon="3.80733">
        <ele>50.322643443388</ele>
        <time>2020-10-09T11:45:04.000Z</time>
      </trkpt>
      <trkpt lat="43.59697" lon="3.80728">
        <ele>50.419825203444</ele>
        <time>2020-10-09T11:45:05.000Z</time>
      </trkpt>
      <trkpt lat="43.59697" lon="3.80724">
        <ele>50.517006963501</ele>
        <time>2020-10-09T11:45:06.000Z</time>
      </trkpt>
      <trkpt lat="43.59696" lon="3.80719">
        <ele>50.614188723557</ele>
        <time>2020-10-09T11:45:07.000Z</time>
      </trkpt>
      <trkpt lat="43.59695" lon="3.80715">
        <ele>50.711370483614</ele>
        <time>2020-10-09T11:45:08.000Z</time>
      </trkpt>
      <trkpt lat="43.59695" lon="3.8071">
        <ele>50.80855224367</ele>
        <time>2020-10-09T11:45:09.000Z</time>
      </trkpt>
      <trkpt lat="43.59694" lon="3.80706">
        <ele>50.905734003727</ele>
        <time>2020-10-09T11:45:10.000Z</time>
      </trkpt>
      <trkpt lat="43.59693" lon="3.80701">
        <ele>51</ele>
        <time>2020-10-09T11:45:11.000Z</time>
      </trkpt>
      <trkpt lat="43.59693" lon="3.80696">
        <ele>51</ele>
        <time>2020-10-09T11:45:12.000Z</time>
      </trkpt>
      <trkpt lat="43.59693" lon="3.80691">
        <ele>51</ele>
        <time>2020-10-09T11:45:13.000Z</time>
      </trkpt>
      <trkpt lat="43.59692" lon="3.80687">
        <ele>51</ele>
        <time>2020-10-09T11:45:14.000Z</time>
      </trkpt>
      <trkpt lat="43.59692" lon="3.80682">
        <ele>51</ele>
        <time>2020-10-09T11:45:15.000Z</time>
      </trkpt>
      <trkpt lat="43.59691" lon="3.80677">
        <ele>51</ele>
        <time>2020-10-09T11:45:16.000Z</time>
      </trkpt>
      <trkpt lat="43.59691" lon="3.80673">
        <ele>51</ele>
        <time>2020-10-09T11:45:17.000Z</time>
      </trkpt>
      <trkpt lat="43.5969" lon="3.80668">
        <ele>51</ele>
        <time>2020-10-09T11:45:18.000Z</time>
      </trkpt>
      <trkpt lat="43.59689" lon="3.80664">
        <ele>51</ele>
        <time>2020-10-09T11:45:19.000Z</time>
      </trkpt>
      <trkpt lat="43.59688" lon="3.80659">
        <ele>51</ele>
        <time>2020-10-09T11:45:20.000Z</time>
      </trkpt>
      <trkpt lat="43.59688" lon="3.80655">
        <ele>51.003077250272</ele>
        <time>2020-10-09T11:45:21.000Z</time>
      </trkpt>
      <trkpt lat="43.59687" lon="3.80652">
        <ele>51.105641319174</ele>
        <time>2020-10-09T11:45:22.000Z</time>
      </trkpt>
      <trkpt lat="43.59687" lon="3.80648">
        <ele>51.208205388076</ele>
        <time>2020-10-09T11:45:23.000Z</time>
      </trkpt>
      <trkpt lat="43.59687" lon="3.80645">
        <ele>51.310769456978</ele>
        <time>2020-10-09T11:45:24.000Z</time>
      </trkpt>
      <trkpt lat="43.59687" lon="3.80641">
        <ele>51.41333352588</ele>
        <time>2020-10-09T11:45:25.000Z</time>
      </trkpt>
      <trkpt lat="43.59687" lon="3.80636">
        <ele>51.515897594782</ele>
        <time>2020-10-09T11:45:26.000Z</time>
      </trkpt>
      <trkpt lat="43.59687" lon="3.80632">
        <ele>51.618461663684</ele>
        <time>2020-10-09T11:45:27.000Z</time>
      </trkpt>
      <trkpt lat="43.59686" lon="3.80626">
        <ele>51.721025732586</ele>
        <time>2020-10-09T11:45:28.000Z</time>
      </trkpt>
      <trkpt lat="43.59685" lon="3.80621">
        <ele>51.823589801489</ele>
        <time>2020-10-09T11:45:29.000Z</time>
      </trkpt>
      <trkpt lat="43.59684" lon="3.80616">
        <ele>51.926153870391</ele>
        <time>2020-10-09T11:45:30.000Z</time>
      </trkpt>
      <trkpt lat="43.59683" lon="3.80611">
        <ele>52.028056094233</ele>
        <time>2020-10-09T11:45:31.000Z</time>
      </trkpt>
      <trkpt lat="43.59682" lon="3.80606">
        <ele>52.128256430777</ele>
        <time>2020-10-09T11:45:32.000Z</time>
      </trkpt>
      <trkpt lat="43.59682" lon="3.80601">
        <ele>52.228456767322</ele>
        <time>2020-10-09T11:45:33.000Z</time>
      </trkpt>
      <trkpt lat="43.59681" lon="3.80596">
        <ele>52.328657103867</ele>
        <time>2020-10-09T11:45:34.000Z</time>
      </trkpt>
      <trkpt lat="43.59682" lon="3.8059">
        <ele>52.428857440412</ele>
        <time>2020-10-09T11:45:35.000Z</time>
      </trkpt>
      <trkpt lat="43.59682" lon="3.80584">
        <ele>52.529057776957</ele>
        <time>2020-10-09T11:45:36.000Z</time>
      </trkpt>
      <trkpt lat="43.59682" lon="3.80579">
        <ele>52.629258113502</ele>
        <time>2020-10-09T11:45:37.000Z</time>
      </trkpt>
      <trkpt lat="43.59681" lon="3.80573">
        <ele>52.729458450047</ele>
        <time>2020-10-09T11:45:38.000Z</time>
      </trkpt>
      <trkpt lat="43.5968" lon="3.80568">
        <ele>52.829658786592</ele>
        <time>2020-10-09T11:45:39.000Z</time>
      </trkpt>
      <trkpt lat="43.59679" lon="3.80562">
        <ele>52.929859123136</ele>
        <time>2020-10-09T11:45:40.000Z</time>
      </trkpt>
      <trkpt lat="43.59678" lon="3.80556">
        <ele>53</ele>
        <time>2020-10-09T11:45:41.000Z</time>
      </trkpt>
      <trkpt lat="43.59677" lon="3.80551">
        <ele>53</ele>
        <time>2020-10-09T11:45:42.000Z</time>
      </trkpt>
      <trkpt lat="43.59676" lon="3.80546">
        <ele>53</ele>
        <time>2020-10-09T11:45:43.000Z</time>
      </trkpt>
      <trkpt lat="43.59674" lon="3.80541">
        <ele>53</ele>
        <time>2020-10-09T11:45:44.000Z</time>
      </trkpt>
      <trkpt lat="43.59673" lon="3.80536">
        <ele>53</ele>
        <time>2020-10-09T11:45:45.000Z</time>
      </trkpt>
      <trkpt lat="43.59672" lon="3.80531">
        <ele>53</ele>
        <time>2020-10-09T11:45:46.000Z</time>
      </trkpt>
      <trkpt lat="43.5967" lon="3.80526">
        <ele>53</ele>
        <time>2020-10-09T11:45:47.000Z</time>
      </trkpt>
      <trkpt lat="43.59669" lon="3.80522">
        <ele>53</ele>
        <time>2020-10-09T11:45:48.000Z</time>
      </trkpt>
      <trkpt lat="43.59667" lon="3.80517">
        <ele>53</ele>
        <time>2020-10-09T11:45:49.000Z</time>
      </trkpt>
      <trkpt lat="43.59666" lon="3.80513">
        <ele>53</ele>
        <time>2020-10-09T11:45:50.000Z</time>
      </trkpt>
      <trkpt lat="43.59664" lon="3.80508">
        <ele>53.030059498235</ele>
        <time>2020-10-09T11:45:51.000Z</time>
      </trkpt>
      <trkpt lat="43.59662" lon="3.80504">
        <ele>53.130259963293</ele>
        <time>2020-10-09T11:45:52.000Z</time>
      </trkpt>
      <trkpt lat="43.59661" lon="3.80499">
        <ele>53.230460428351</ele>
        <time>2020-10-09T11:45:53.000Z</time>
      </trkpt>
      <trkpt lat="43.59659" lon="3.80495">
        <ele>53.33066089341</ele>
        <time>2020-10-09T11:45:54.000Z</time>
      </trkpt>
      <trkpt lat="43.59657" lon="3.8049">
        <ele>53.430861358468</ele>
        <time>2020-10-09T11:45:55.000Z</time>
      </trkpt>
      <trkpt lat="43.59656" lon="3.80485">
        <ele>53.531061823527</ele>
        <time>2020-10-09T11:45:56.000Z</time>
      </trkpt>
      <trkpt lat="43.59654" lon="3.80481">
        <ele>53.631262288585</ele>
        <time>2020-10-09T11:45:57.000Z</time>
      </trkpt>
      <trkpt lat="43.59652" lon="3.80476">
        <ele>53.731462753643</ele>
        <time>2020-10-09T11:45:58.000Z</time>
      </trkpt>
      <trkpt lat="43.5965" lon="3.80471">
        <ele>53.831663218702</ele>
        <time>2020-10-09T11:45:59.000Z</time>
      </trkpt>
      <trkpt lat="43.59648" lon="3.80467">
        <ele>53.93186368376</ele>
        <time>2020-10-09T11:46:00.000Z</time>
      </trkpt>
      <trkpt lat="43.59646" lon="3.80462">
        <ele>54</ele>
        <time>2020-10-09T11:46:01.000Z</time>
      </trkpt>
      <trkpt lat="43.59645" lon="3.80457">
        <ele>54</ele>
        <time>2020-10-09T11:46:02.000Z</time>
      </trkpt>
      <trkpt lat="43.59643" lon="3.80453">
        <ele>54</ele>
        <time>2020-10-09T11:46:03.000Z</time>
      </trkpt>
      <trkpt lat="43.59641" lon="3.80448">
        <ele>54</ele>
        <time>2020-10-09T11:46:04.000Z</time>
      </trkpt>
      <trkpt lat="43.5964" lon="3.80443">
        <ele>54</ele>
        <time>2020-10-09T11:46:05.000Z</time>
      </trkpt>
      <trkpt lat="43.59639" lon="3.80438">
        <ele>54</ele>
        <time>2020-10-09T11:46:06.000Z</time>
      </trkpt>
      <trkpt lat="43.59638" lon="3.80433">
        <ele>54</ele>
        <time>2020-10-09T11:46:07.000Z</time>
      </trkpt>
      <trkpt lat="43.59637" lon="3.80428">
        <ele>54</ele>
        <time>2020-10-09T11:46:08.000Z</time>
      </trkpt>
      <trkpt lat="43.59637" lon="3.80423">
        <ele>54</ele>
        <time>2020-10-09T11:46:09.000Z</time>
      </trkpt>
      <trkpt lat="43.59636" lon="3.80417">
        <ele>54</ele>
        <time>2020-10-09T11:46:10.000Z</time>
      </trkpt>
      <trkpt lat="43.59635" lon="3.80412">
        <ele>54</ele>
        <time>2020-10-09T11:46:11.000Z</time>
      </trkpt>
      <trkpt lat="43.59634" lon="3.80407">
        <ele>54</ele>
        <time>2020-10-09T11:46:12.000Z</time>
      </trkpt>
      <trkpt lat="43.59633" lon="3.80402">
        <ele>54</ele>
        <time>2020-10-09T11:46:13.000Z</time>
      </trkpt>
      <trkpt lat="43.59632" lon="3.80398">
        <ele>54</ele>
        <time>2020-10-09T11:46:14.000Z</time>
      </trkpt>
      <trkpt lat="43.5963" lon="3.80394">
        <ele>54</ele>
        <time>2020-10-09T11:46:15.000Z</time>
      </trkpt>
      <trkpt lat="43.59628" lon="3.80389">
        <ele>54</ele>
        <time>2020-10-09T11:46:16.000Z</time>
      </trkpt>
      <trkpt lat="43.59626" lon="3.80385">
        <ele>54</ele>
        <time>2020-10-09T11:46:17.000Z</time>
      </trkpt>
      <trkpt lat="43.59623" lon="3.80381">
        <ele>54</ele>
        <time>2020-10-09T11:46:18.000Z</time>
      </trkpt>
      <trkpt lat="43.5962" lon="3.80377">
        <ele>54</ele>
        <time>2020-10-09T11:46:19.000Z</time>
      </trkpt>
      <trkpt lat="43.59617" lon="3.80372">
        <ele>54</ele>
        <time>2020-10-09T11:46:20.000Z</time>
      </trkpt>
      <trkpt lat="43.59614" lon="3.80368">
        <ele>54</ele>
        <time>2020-10-09T11:46:21.000Z</time>
      </trkpt>
      <trkpt lat="43.59612" lon="3.80364">
        <ele>54</ele>
        <time>2020-10-09T11:46:22.000Z</time>
      </trkpt>
      <trkpt lat="43.59609" lon="3.8036">
        <ele>54</ele>
        <time>2020-10-09T11:46:23.000Z</time>
      </trkpt>
      <trkpt lat="43.59606" lon="3.80356">
        <ele>54</ele>
        <time>2020-10-09T11:46:24.000Z</time>
      </trkpt>
      <trkpt lat="43.59603" lon="3.80352">
        <ele>54</ele>
        <time>2020-10-09T11:46:25.000Z</time>
      </trkpt>
      <trkpt lat="43.596" lon="3.80348">
        <ele>54</ele>
        <time>2020-10-09T11:46:26.000Z</time>
      </trkpt>
      <trkpt lat="43.59598" lon="3.80344">
        <ele>54</ele>
        <time>2020-10-09T11:46:27.000Z</time>
      </trkpt>
      <trkpt lat="43.59595" lon="3.8034">
        <ele>54</ele>
        <time>2020-10-09T11:46:28.000Z</time>
      </trkpt>
      <trkpt lat="43.59592" lon="3.80336">
        <ele>54</ele>
        <time>2020-10-09T11:46:29.000Z</time>
      </trkpt>
      <trkpt lat="43.59589" lon="3.80332">
        <ele>54</ele>
        <time>2020-10-09T11:46:30.000Z</time>
      </trkpt>
      <trkpt lat="43.59587" lon="3.80328">
        <ele>53.998968338153</ele>
        <time>2020-10-09T11:46:31.000Z</time>
      </trkpt>
      <trkpt lat="43.59584" lon="3.80324">
        <ele>53.895769129666</ele>
        <time>2020-10-09T11:46:32.000Z</time>
      </trkpt>
      <trkpt lat="43.59581" lon="3.8032">
        <ele>53.792569921179</ele>
        <time>2020-10-09T11:46:33.000Z</time>
      </trkpt>
      <trkpt lat="43.59578" lon="3.80316">
        <ele>53.689370712692</ele>
        <time>2020-10-09T11:46:34.000Z</time>
      </trkpt>
      <trkpt lat="43.59575" lon="3.80313">
        <ele>53.586171504205</ele>
        <time>2020-10-09T11:46:35.000Z</time>
      </trkpt>
      <trkpt lat="43.59572" lon="3.80309">
        <ele>53.482972295718</ele>
        <time>2020-10-09T11:46:36.000Z</time>
      </trkpt>
      <trkpt lat="43.59569" lon="3.80305">
        <ele>53.379773087232</ele>
        <time>2020-10-09T11:46:37.000Z</time>
      </trkpt>
      <trkpt lat="43.59566" lon="3.80301">
        <ele>53.276573878745</ele>
        <time>2020-10-09T11:46:38.000Z</time>
      </trkpt>
      <trkpt lat="43.59564" lon="3.80297">
        <ele>53.173374670258</ele>
        <time>2020-10-09T11:46:39.000Z</time>
      </trkpt>
      <trkpt lat="43.59561" lon="3.80292">
        <ele>53.070175461771</ele>
        <time>2020-10-09T11:46:40.000Z</time>
      </trkpt>
      <trkpt lat="43.59558" lon="3.80288">
        <ele>53</ele>
        <time>2020-10-09T11:46:41.000Z</time>
      </trkpt>
      <trkpt lat="43.59556" lon="3.80284">
        <ele>53</ele>
        <time>2020-10-09T11:46:42.000Z</time>
      </trkpt>
      <trkpt lat="43.59553" lon="3.8028">
        <ele>53</ele>
        <time>2020-10-09T11:46:43.000Z</time>
      </trkpt>
      <trkpt lat="43.5955" lon="3.80276">
        <ele>53</ele>
        <time>2020-10-09T11:46:44.000Z</time>
      </trkpt>
      <trkpt lat="43.59547" lon="3.80272">
        <ele>53</ele>
        <time>2020-10-09T11:46:45.000Z</time>
      </trkpt>
      <trkpt lat="43.59545" lon="3.80267">
        <ele>53</ele>
        <time>2020-10-09T11:46:46.000Z</time>
      </trkpt>
      <trkpt lat="43.59542" lon="3.80263">
        <ele>53</ele>
        <time>2020-10-09T11:46:47.000Z</time>
      </trkpt>
      <trkpt lat="43.5954" lon="3.80259">
        <ele>53</ele>
        <time>2020-10-09T11:46:48.000Z</time>
      </trkpt>
      <trkpt lat="43.59537" lon="3.80254">
        <ele>53</ele>
        <time>2020-10-09T11:46:49.000Z</time>
      </trkpt>
      <trkpt lat="43.59535" lon="3.8025">
        <ele>53</ele>
        <time>2020-10-09T11:46:50.000Z</time>
      </trkpt>
      <trkpt lat="43.59532" lon="3.80246">
        <ele>53.032</ele>
        <time>2020-10-09T11:46:51.000Z</time>
      </trkpt>
      <trkpt lat="43.5953" lon="3.80241">
        <ele>53.132</ele>
        <time>2020-10-09T11:46:52.000Z</time>
      </trkpt>
      <trkpt lat="43.59527" lon="3.80237">
        <ele>53.232</ele>
        <time>2020-10-09T11:46:53.000Z</time>
      </trkpt>
      <trkpt lat="43.59525" lon="3.80232">
        <ele>53.332</ele>
        <time>2020-10-09T11:46:54.000Z</time>
      </trkpt>
      <trkpt lat="43.59523" lon="3.80228">
        <ele>53.432</ele>
        <time>2020-10-09T11:46:55.000Z</time>
      </trkpt>
      <trkpt lat="43.5952" lon="3.80224">
        <ele>53.532</ele>
        <time>2020-10-09T11:46:56.000Z</time>
      </trkpt>
      <trkpt lat="43.59518" lon="3.80219">
        <ele>53.632</ele>
        <time>2020-10-09T11:46:57.000Z</time>
      </trkpt>
      <trkpt lat="43.59515" lon="3.80215">
        <ele>53.732</ele>
        <time>2020-10-09T11:46:58.000Z</time>
      </trkpt>
      <trkpt lat="43.59513" lon="3.8021">
        <ele>53.832</ele>
        <time>2020-10-09T11:46:59.000Z</time>
      </trkpt>
      <trkpt lat="43.59511" lon="3.80205">
        <ele>53.932</ele>
        <time>2020-10-09T11:47:00.000Z</time>
      </trkpt>
      <trkpt lat="43.59509" lon="3.802">
        <ele>54</ele>
        <time>2020-10-09T11:47:01.000Z</time>
      </trkpt>
      <trkpt lat="43.59507" lon="3.80195">
        <ele>54</ele>
        <time>2020-10-09T11:47:02.000Z</time>
      </trkpt>
      <trkpt lat="43.59505" lon="3.80189">
        <ele>54</ele>
        <time>2020-10-09T11:47:03.000Z</time>
      </trkpt>
      <trkpt lat="43.59504" lon="3.80184">
        <ele>54</ele>
        <time>2020-10-09T11:47:04.000Z</time>
      </trkpt>
      <trkpt lat="43.59502" lon="3.80179">
        <ele>54</ele>
        <time>2020-10-09T11:47:05.000Z</time>
      </trkpt>
      <trkpt lat="43.595" lon="3.80174">
        <ele>54</ele>
        <time>2020-10-09T11:47:06.000Z</time>
      </trkpt>
      <trkpt lat="43.59498" lon="3.80168">
        <ele>54</ele>
        <time>2020-10-09T11:47:07.000Z</time>
      </trkpt>
      <trkpt lat="43.59496" lon="3.80163">
        <ele>54</ele>
        <time>2020-10-09T11:47:08.000Z</time>
      </trkpt>
      <trkpt lat="43.59495" lon="3.80158">
        <ele>54</ele>
        <time>2020-10-09T11:47:09.000Z</time>
      </trkpt>
      <trkpt lat="43.59493" lon="3.80153">
        <ele>54</ele>
        <time>2020-10-09T11:47:10.000Z</time>
      </trkpt>
      <trkpt lat="43.59492" lon="3.80147">
        <ele>53.968</ele>
        <time>2020-10-09T11:47:11.000Z</time>
      </trkpt>
      <trkpt lat="43.5949" lon="3.80143">
        <ele>53.868</ele>
        <time>2020-10-09T11:47:12.000Z</time>
      </trkpt>
      <trkpt lat="43.59488" lon="3.80138">
        <ele>53.768</ele>
        <time>2020-10-09T11:47:13.000Z</time>
      </trkpt>
      <trkpt lat="43.59485" lon="3.80136">
        <ele>53.668</ele>
        <time>2020-10-09T11:47:14.000Z</time>
      </trkpt>
      <trkpt lat="43.59481" lon="3.80135">
        <ele>53.568</ele>
        <time>2020-10-09T11:47:15.000Z</time>
      </trkpt>
      <trkpt lat="43.59477" lon="3.80135">
        <ele>53.468</ele>
        <time>2020-10-09T11:47:16.000Z</time>
      </trkpt>
      <trkpt lat="43.59472" lon="3.80136">
        <ele>53.368</ele>
        <time>2020-10-09T11:47:17.000Z</time>
      </trkpt>
      <trkpt lat="43.59468" lon="3.80137">
        <ele>53.268</ele>
        <time>2020-10-09T11:47:18.000Z</time>
      </trkpt>
      <trkpt lat="43.59463" lon="3.80137">
        <ele>53.168</ele>
        <time>2020-10-09T11:47:19.000Z</time>
      </trkpt>
      <trkpt lat="43.59459" lon="3.80137">
        <ele>53.068</ele>
        <time>2020-10-09T11:47:20.000Z</time>
      </trkpt>
      <trkpt lat="43.59454" lon="3.80136">
        <ele>52.968901836782</ele>
        <time>2020-10-09T11:47:21.000Z</time>
      </trkpt>
      <trkpt lat="43.5945" lon="3.80135">
        <ele>52.871720076725</ele>
        <time>2020-10-09T11:47:22.000Z</time>
      </trkpt>
      <trkpt lat="43.59445" lon="3.80134">
        <ele>52.774538316669</ele>
        <time>2020-10-09T11:47:23.000Z</time>
      </trkpt>
      <trkpt lat="43.59441" lon="3.80133">
        <ele>52.677356556612</ele>
        <time>2020-10-09T11:47:24.000Z</time>
      </trkpt>
      <trkpt lat="43.59437" lon="3.80131">
        <ele>52.580174796556</ele>
        <time>2020-10-09T11:47:25.000Z</time>
      </trkpt>
      <trkpt lat="43.59433" lon="3.80129">
        <ele>52.482993036499</ele>
        <time>2020-10-09T11:47:26.000Z</time>
      </trkpt>
      <trkpt lat="43.59428" lon="3.80127">
        <ele>52.385811276443</ele>
        <time>2020-10-09T11:47:27.000Z</time>
      </trkpt>
      <trkpt lat="43.59424" lon="3.80124">
        <ele>52.288629516386</ele>
        <time>2020-10-09T11:47:28.000Z</time>
      </trkpt>
      <trkpt lat="43.5942" lon="3.80122">
        <ele>52.19144775633</ele>
        <time>2020-10-09T11:47:29.000Z</time>
      </trkpt>
      <trkpt lat="43.59415" lon="3.8012">
        <ele>52.094265996273</ele>
        <time>2020-10-09T11:47:30.000Z</time>
      </trkpt>
      <trkpt lat="43.5941" lon="3.80118">
        <ele>51.996910073109</ele>
        <time>2020-10-09T11:47:31.000Z</time>
      </trkpt>
      <trkpt lat="43.59405" lon="3.80116">
        <ele>51.893923495308</ele>
        <time>2020-10-09T11:47:32.000Z</time>
      </trkpt>
      <trkpt lat="43.594" lon="3.80114">
        <ele>51.790936917508</ele>
        <time>2020-10-09T11:47:33.000Z</time>
      </trkpt>
      <trkpt lat="43.59395" lon="3.80112">
        <ele>51.687950339707</ele>
        <time>2020-10-09T11:47:34.000Z</time>
      </trkpt>
      <trkpt lat="43.59389" lon="3.80109">
        <ele>51.584963761907</ele>
        <time>2020-10-09T11:47:35.000Z</time>
      </trkpt>
      <trkpt lat="43.59384" lon="3.80107">
        <ele>51.481977184106</ele>
        <time>2020-10-09T11:47:36.000Z</time>
      </trkpt>
      <trkpt lat="43.59379" lon="3.80105">
        <ele>51.378990606306</ele>
        <time>2020-10-09T11:47:37.000Z</time>
      </trkpt>
      <trkpt lat="43.59373" lon="3.80103">
        <ele>51.276004028505</ele>
        <time>2020-10-09T11:47:38.000Z</time>
      </trkpt>
      <trkpt lat="43.59368" lon="3.80101">
        <ele>51.173017450705</ele>
        <time>2020-10-09T11:47:39.000Z</time>
      </trkpt>
      <trkpt lat="43.59363" lon="3.80099">
        <ele>51.070030872904</ele>
        <time>2020-10-09T11:47:40.000Z</time>
      </trkpt>
      <trkpt lat="43.59357" lon="3.80097">
        <ele>50.968</ele>
        <time>2020-10-09T11:47:41.000Z</time>
      </trkpt>
      <trkpt lat="43.59352" lon="3.80094">
        <ele>50.868</ele>
        <time>2020-10-09T11:47:42.000Z</time>
      </trkpt>
      <trkpt lat="43.59346" lon="3.80091">
        <ele>50.768</ele>
        <time>2020-10-09T11:47:43.000Z</time>
      </trkpt>
      <trkpt lat="43.59341" lon="3.80088">
        <ele>50.668</ele>
        <time>2020-10-09T11:47:44.000Z</time>
      </trkpt>
      <trkpt lat="43.59335" lon="3.80086">
        <ele>50.568</ele>
        <time>2020-10-09T11:47:45.000Z</time>
      </trkpt>
      <trkpt lat="43.59329" lon="3.80082">
        <ele>50.468</ele>
        <time>2020-10-09T11:47:46.000Z</time>
      </trkpt>
      <trkpt lat="43.59324" lon="3.80079">
        <ele>50.368</ele>
        <time>2020-10-09T11:47:47.000Z</time>
      </trkpt>
      <trkpt lat="43.59318" lon="3.80076">
        <ele>50.268</ele>
        <time>2020-10-09T11:47:48.000Z</time>
      </trkpt>
      <trkpt lat="43.59312" lon="3.80073">
        <ele>50.168</ele>
        <time>2020-10-09T11:47:49.000Z</time>
      </trkpt>
      <trkpt lat="43.59307" lon="3.8007">
        <ele>50.068</ele>
        <time>2020-10-09T11:47:50.000Z</time>
      </trkpt>
      <trkpt lat="43.59301" lon="3.80068">
        <ele>49.968565835086</ele>
        <time>2020-10-09T11:47:51.000Z</time>
      </trkpt>
      <trkpt lat="43.59295" lon="3.80069">
        <ele>49.870334069731</ele>
        <time>2020-10-09T11:47:52.000Z</time>
      </trkpt>
      <trkpt lat="43.5929" lon="3.80072">
        <ele>49.772102304376</ele>
        <time>2020-10-09T11:47:53.000Z</time>
      </trkpt>
      <trkpt lat="43.59285" lon="3.80076">
        <ele>49.67387053902</ele>
        <time>2020-10-09T11:47:54.000Z</time>
      </trkpt>
      <trkpt lat="43.59281" lon="3.8008">
        <ele>49.575638773665</ele>
        <time>2020-10-09T11:47:55.000Z</time>
      </trkpt>
      <trkpt lat="43.59276" lon="3.80084">
        <ele>49.47740700831</ele>
        <time>2020-10-09T11:47:56.000Z</time>
      </trkpt>
      <trkpt lat="43.59272" lon="3.80088">
        <ele>49.379175242955</ele>
        <time>2020-10-09T11:47:57.000Z</time>
      </trkpt>
      <trkpt lat="43.59268" lon="3.80093">
        <ele>49.280943477599</ele>
        <time>2020-10-09T11:47:58.000Z</time>
      </trkpt>
      <trkpt lat="43.59264" lon="3.80097">
        <ele>49.182711712244</ele>
        <time>2020-10-09T11:47:59.000Z</time>
      </trkpt>
      <trkpt lat="43.5926" lon="3.80101">
        <ele>49.084479946889</ele>
        <time>2020-10-09T11:48:00.000Z</time>
      </trkpt>
      <trkpt lat="43.59256" lon="3.80103">
        <ele>48.985744023296</ele>
        <time>2020-10-09T11:48:01.000Z</time>
      </trkpt>
      <trkpt lat="43.59251" lon="3.80106">
        <ele>48.883910963038</ele>
        <time>2020-10-09T11:48:02.000Z</time>
      </trkpt>
      <trkpt lat="43.59247" lon="3.80107">
        <ele>48.78207790278</ele>
        <time>2020-10-09T11:48:03.000Z</time>
      </trkpt>
      <trkpt lat="43.59242" lon="3.80106">
        <ele>48.680244842522</ele>
        <time>2020-10-09T11:48:04.000Z</time>
      </trkpt>
      <trkpt lat="43.59239" lon="3.80102">
        <ele>48.578411782264</ele>
        <time>2020-10-09T11:48:05.000Z</time>
      </trkpt>
      <trkpt lat="43.59237" lon="3.80095">
        <ele>48.476578722007</ele>
        <time>2020-10-09T11:48:06.000Z</time>
      </trkpt>
      <trkpt lat="43.59236" lon="3.80089">
        <ele>48.374745661749</ele>
        <time>2020-10-09T11:48:07.000Z</time>
      </trkpt>
      <trkpt lat="43.59234" lon="3.80082">
        <ele>48.272912601491</ele>
        <time>2020-10-09T11:48:08.000Z</time>
      </trkpt>
      <trkpt lat="43.59231" lon="3.80076">
        <ele>48.171079541233</ele>
        <time>2020-10-09T11:48:09.000Z</time>
      </trkpt>
      <trkpt lat="43.59228" lon="3.8007">
        <ele>48.069246480975</ele>
        <time>2020-10-09T11:48:10.000Z</time>
      </trkpt>
      <trkpt lat="43.59225" lon="3.80064">
        <ele>47.936</ele>
        <time>2020-10-09T11:48:11.000Z</time>
      </trkpt>
      <trkpt lat="43.59221" lon="3.80058">
        <ele>47.736</ele>
        <time>2020-10-09T11:48:12.000Z</time>
      </trkpt>
      <trkpt lat="43.59218" lon="3.80052">
        <ele>47.536</ele>
        <time>2020-10-09T11:48:13.000Z</time>
      </trkpt>
      <trkpt lat="43.59214" lon="3.80046">
        <ele>47.336</ele>
        <time>2020-10-09T11:48:14.000Z</time>
      </trkpt>
      <trkpt lat="43.59211" lon="3.80039">
        <ele>47.136</ele>
        <time>2020-10-09T11:48:15.000Z</time>
      </trkpt>
      <trkpt lat="43.59207" lon="3.80033">
        <ele>46.936</ele>
        <time>2020-10-09T11:48:16.000Z</time>
      </trkpt>
      <trkpt lat="43.59203" lon="3.80027">
        <ele>46.736</ele>
        <time>2020-10-09T11:48:17.000Z</time>
      </trkpt>
      <trkpt lat="43.592" lon="3.8002">
        <ele>46.536</ele>
        <time>2020-10-09T11:48:18.000Z</time>
      </trkpt>
      <trkpt lat="43.59196" lon="3.80014">
        <ele>46.336</ele>
        <time>2020-10-09T11:48:19.000Z</time>
      </trkpt>
      <trkpt lat="43.59193" lon="3.80007">
        <ele>46.136</ele>
        <time>2020-10-09T11:48:20.000Z</time>
      </trkpt>
      <trkpt lat="43.5919" lon="3.80001">
        <ele>45.968901836782</ele>
        <time>2020-10-09T11:48:21.000Z</time>
      </trkpt>
      <trkpt lat="43.59186" lon="3.79995">
        <ele>45.871720076725</ele>
        <time>2020-10-09T11:48:22.000Z</time>
      </trkpt>
      <trkpt lat="43.59183" lon="3.79989">
        <ele>45.774538316669</ele>
        <time>2020-10-09T11:48:23.000Z</time>
      </trkpt>
      <trkpt lat="43.5918" lon="3.79984">
        <ele>45.677356556612</ele>
        <time>2020-10-09T11:48:24.000Z</time>
      </trkpt>
      <trkpt lat="43.59177" lon="3.79979">
        <ele>45.580174796556</ele>
        <time>2020-10-09T11:48:25.000Z</time>
      </trkpt>
      <trkpt lat="43.59175" lon="3.79974">
        <ele>45.482993036499</ele>
        <time>2020-10-09T11:48:26.000Z</time>
      </trkpt>
      <trkpt lat="43.59173" lon="3.79971">
        <ele>45.385811276443</ele>
        <time>2020-10-09T11:48:27.000Z</time>
      </trkpt>
      <trkpt lat="43.59172" lon="3.79969">
        <ele>45.288629516386</ele>
        <time>2020-10-09T11:48:28.000Z</time>
      </trkpt>
      <trkpt lat="43.5917" lon="3.79966">
        <ele>45.094265996273</ele>
        <time>2020-10-09T11:48:30.000Z</time>
      </trkpt>
      <trkpt lat="43.59169" lon="3.79963">
        <ele>44.996910073109</ele>
        <time>2020-10-09T11:48:31.000Z</time>
      </trkpt>
      <trkpt lat="43.59166" lon="3.79962">
        <ele>44.893923495308</ele>
        <time>2020-10-09T11:48:32.000Z</time>
      </trkpt>
      <trkpt lat="43.59163" lon="3.79962">
        <ele>44.790936917508</ele>
        <time>2020-10-09T11:48:33.000Z</time>
      </trkpt>
      <trkpt lat="43.5916" lon="3.79964">
        <ele>44.687950339707</ele>
        <time>2020-10-09T11:48:34.000Z</time>
      </trkpt>
      <trkpt lat="43.59156" lon="3.79968">
        <ele>44.584963761907</ele>
        <time>2020-10-09T11:48:35.000Z</time>
      </trkpt>
      <trkpt lat="43.59152" lon="3.79972">
        <ele>44.481977184106</ele>
        <time>2020-10-09T11:48:36.000Z</time>
      </trkpt>
      <trkpt lat="43.59148" lon="3.79976">
        <ele>44.378990606306</ele>
        <time>2020-10-09T11:48:37.000Z</time>
      </trkpt>
      <trkpt lat="43.59144" lon="3.79981">
        <ele>44.276004028505</ele>
        <time>2020-10-09T11:48:38.000Z</time>
      </trkpt>
      <trkpt lat="43.59139" lon="3.79985">
        <ele>44.173017450705</ele>
        <time>2020-10-09T11:48:39.000Z</time>
      </trkpt>
      <trkpt lat="43.59135" lon="3.79988">
        <ele>44.070030872904</ele>
        <time>2020-10-09T11:48:40.000Z</time>
      </trkpt>
      <trkpt lat="43.5913" lon="3.79992">
        <ele>43.968</ele>
        <time>2020-10-09T11:48:41.000Z</time>
      </trkpt>
      <trkpt lat="43.59126" lon="3.79995">
        <ele>43.868</ele>
        <time>2020-10-09T11:48:42.000Z</time>
      </trkpt>
      <trkpt lat="43.59122" lon="3.79999">
        <ele>43.768</ele>
        <time>2020-10-09T11:48:43.000Z</time>
      </trkpt>
      <trkpt lat="43.59118" lon="3.80002">
        <ele>43.668</ele>
        <time>2020-10-09T11:48:44.000Z</time>
      </trkpt>
      <trkpt lat="43.59113" lon="3.80006">
        <ele>43.568</ele>
        <time>2020-10-09T11:48:45.000Z</time>
      </trkpt>
      <trkpt lat="43.59108" lon="3.8001">
        <ele>43.468</ele>
        <time>2020-10-09T11:48:46.000Z</time>
      </trkpt>
      <trkpt lat="43.59104" lon="3.80014">
        <ele>43.368</ele>
        <time>2020-10-09T11:48:47.000Z</time>
      </trkpt>
      <trkpt lat="43.59099" lon="3.80018">
        <ele>43.268</ele>
        <time>2020-10-09T11:48:48.000Z</time>
      </trkpt>
      <trkpt lat="43.59094" lon="3.80022">
        <ele>43.168</ele>
        <time>2020-10-09T11:48:49.000Z</time>
      </trkpt>
      <trkpt lat="43.5909" lon="3.80026">
        <ele>43.068</ele>
        <time>2020-10-09T11:48:50.000Z</time>
      </trkpt>
      <trkpt lat="43.59085" lon="3.80029">
        <ele>42.968031957812</ele>
        <time>2020-10-09T11:48:51.000Z</time>
      </trkpt>
      <trkpt lat="43.59081" lon="3.80033">
        <ele>42.868131825976</ele>
        <time>2020-10-09T11:48:52.000Z</time>
      </trkpt>
      <trkpt lat="43.59077" lon="3.80037">
        <ele>42.76823169414</ele>
        <time>2020-10-09T11:48:53.000Z</time>
      </trkpt>
      <trkpt lat="43.59072" lon="3.8004">
        <ele>42.668331562304</ele>
        <time>2020-10-09T11:48:54.000Z</time>
      </trkpt>
      <trkpt lat="43.59068" lon="3.80044">
        <ele>42.568431430468</ele>
        <time>2020-10-09T11:48:55.000Z</time>
      </trkpt>
      <trkpt lat="43.59063" lon="3.80047">
        <ele>42.468531298631</ele>
        <time>2020-10-09T11:48:56.000Z</time>
      </trkpt>
      <trkpt lat="43.59059" lon="3.80051">
        <ele>42.368631166795</ele>
        <time>2020-10-09T11:48:57.000Z</time>
      </trkpt>
      <trkpt lat="43.59055" lon="3.80055">
        <ele>42.268731034959</ele>
        <time>2020-10-09T11:48:58.000Z</time>
      </trkpt>
      <trkpt lat="43.59051" lon="3.80058">
        <ele>42.168830903123</ele>
        <time>2020-10-09T11:48:59.000Z</time>
      </trkpt>
      <trkpt lat="43.59047" lon="3.80061">
        <ele>42.068930771287</ele>
        <time>2020-10-09T11:49:00.000Z</time>
      </trkpt>
      <trkpt lat="43.59042" lon="3.80065">
        <ele>42</ele>
        <time>2020-10-09T11:49:01.000Z</time>
      </trkpt>
      <trkpt lat="43.59038" lon="3.80068">
        <ele>42</ele>
        <time>2020-10-09T11:49:02.000Z</time>
      </trkpt>
      <trkpt lat="43.59034" lon="3.80072">
        <ele>42</ele>
        <time>2020-10-09T11:49:03.000Z</time>
      </trkpt>
      <trkpt lat="43.5903" lon="3.80075">
        <ele>42</ele>
        <time>2020-10-09T11:49:04.000Z</time>
      </trkpt>
      <trkpt lat="43.59026" lon="3.80077">
        <ele>42</ele>
        <time>2020-10-09T11:49:05.000Z</time>
      </trkpt>
      <trkpt lat="43.59021" lon="3.80078">
        <ele>42</ele>
        <time>2020-10-09T11:49:06.000Z</time>
      </trkpt>
      <trkpt lat="43.59017" lon="3.80077">
        <ele>42</ele>
        <time>2020-10-09T11:49:07.000Z</time>
      </trkpt>
      <trkpt lat="43.59013" lon="3.80074">
        <ele>42</ele>
        <time>2020-10-09T11:49:08.000Z</time>
      </trkpt>
      <trkpt lat="43.5901" lon="3.80069">
        <ele>42</ele>
        <time>2020-10-09T11:49:09.000Z</time>
      </trkpt>
      <trkpt lat="43.59008" lon="3.80064">
        <ele>42</ele>
        <time>2020-10-09T11:49:10.000Z</time>
      </trkpt>
      <trkpt lat="43.59006" lon="3.80058">
        <ele>42</ele>
        <time>2020-10-09T11:49:11.000Z</time>
      </trkpt>
      <trkpt lat="43.59004" lon="3.80053">
        <ele>42</ele>
        <time>2020-10-09T11:49:12.000Z</time>
      </trkpt>
      <trkpt lat="43.59001" lon="3.80048">
        <ele>42</ele>
        <time>2020-10-09T11:49:13.000Z</time>
      </trkpt>
      <trkpt lat="43.58998" lon="3.80043">
        <ele>42</ele>
        <time>2020-10-09T11:49:14.000Z</time>
      </trkpt>
      <trkpt lat="43.58995" lon="3.80038">
        <ele>42</ele>
        <time>2020-10-09T11:49:15.000Z</time>
      </trkpt>
      <trkpt lat="43.58993" lon="3.80032">
        <ele>42</ele>
        <time>2020-10-09T11:49:16.000Z</time>
      </trkpt>
      <trkpt lat="43.5899" lon="3.80027">
        <ele>42</ele>
        <time>2020-10-09T11:49:17.000Z</time>
      </trkpt>
      <trkpt lat="43.58988" lon="3.80021">
        <ele>42</ele>
        <time>2020-10-09T11:49:18.000Z</time>
      </trkpt>
      <trkpt lat="43.58985" lon="3.80016">
        <ele>42</ele>
        <time>2020-10-09T11:49:19.000Z</time>
      </trkpt>
      <trkpt lat="43.58982" lon="3.80011">
        <ele>42</ele>
        <time>2020-10-09T11:49:20.000Z</time>
      </trkpt>
      <trkpt lat="43.5898" lon="3.80005">
        <ele>41.998998315991</ele>
        <time>2020-10-09T11:49:21.000Z</time>
      </trkpt>
      <trkpt lat="43.58978" lon="3.8">
        <ele>41.898797850933</ele>
        <time>2020-10-09T11:49:22.000Z</time>
      </trkpt>
      <trkpt lat="43.58975" lon="3.79995">
        <ele>41.798597385874</ele>
        <time>2020-10-09T11:49:23.000Z</time>
      </trkpt>
      <trkpt lat="43.58972" lon="3.79989">
        <ele>41.698396920816</ele>
        <time>2020-10-09T11:49:24.000Z</time>
      </trkpt>
      <trkpt lat="43.5897" lon="3.79984">
        <ele>41.598196455757</ele>
        <time>2020-10-09T11:49:25.000Z</time>
      </trkpt>
      <trkpt lat="43.58967" lon="3.79978">
        <ele>41.497995990699</ele>
        <time>2020-10-09T11:49:26.000Z</time>
      </trkpt>
      <trkpt lat="43.58965" lon="3.79973">
        <ele>41.39779552564</ele>
        <time>2020-10-09T11:49:27.000Z</time>
      </trkpt>
      <trkpt lat="43.58962" lon="3.79967">
        <ele>41.297595060582</ele>
        <time>2020-10-09T11:49:28.000Z</time>
      </trkpt>
      <trkpt lat="43.58959" lon="3.79962">
        <ele>41.197394595524</ele>
        <time>2020-10-09T11:49:29.000Z</time>
      </trkpt>
      <trkpt lat="43.58957" lon="3.79957">
        <ele>41.097194130465</ele>
        <time>2020-10-09T11:49:30.000Z</time>
      </trkpt>
      <trkpt lat="43.58954" lon="3.79951">
        <ele>41</ele>
        <time>2020-10-09T11:49:31.000Z</time>
      </trkpt>
      <trkpt lat="43.58952" lon="3.79946">
        <ele>41</ele>
        <time>2020-10-09T11:49:32.000Z</time>
      </trkpt>
      <trkpt lat="43.58949" lon="3.7994">
        <ele>41</ele>
        <time>2020-10-09T11:49:33.000Z</time>
      </trkpt>
      <trkpt lat="43.58946" lon="3.79934">
        <ele>41</ele>
        <time>2020-10-09T11:49:34.000Z</time>
      </trkpt>
      <trkpt lat="43.58943" lon="3.79928">
        <ele>41</ele>
        <time>2020-10-09T11:49:35.000Z</time>
      </trkpt>
      <trkpt lat="43.5894" lon="3.79922">
        <ele>41</ele>
        <time>2020-10-09T11:49:36.000Z</time>
      </trkpt>
      <trkpt lat="43.58938" lon="3.79916">
        <ele>41</ele>
        <time>2020-10-09T11:49:37.000Z</time>
      </trkpt>
      <trkpt lat="43.58935" lon="3.79911">
        <ele>41</ele>
        <time>2020-10-09T11:49:38.000Z</time>
      </trkpt>
      <trkpt lat="43.58933" lon="3.79906">
        <ele>41</ele>
        <time>2020-10-09T11:49:39.000Z</time>
      </trkpt>
      <trkpt lat="43.5893" lon="3.799">
        <ele>41</ele>
        <time>2020-10-09T11:49:40.000Z</time>
      </trkpt>
      <trkpt lat="43.58928" lon="3.79895">
        <ele>40.968</ele>
        <time>2020-10-09T11:49:41.000Z</time>
      </trkpt>
      <trkpt lat="43.58925" lon="3.7989">
        <ele>40.868</ele>
        <time>2020-10-09T11:49:42.000Z</time>
      </trkpt>
      <trkpt lat="43.58922" lon="3.79884">
        <ele>40.768</ele>
        <time>2020-10-09T11:49:43.000Z</time>
      </trkpt>
      <trkpt lat="43.5892" lon="3.79879">
        <ele>40.668</ele>
        <time>2020-10-09T11:49:44.000Z</time>
      </trkpt>
      <trkpt lat="43.58918" lon="3.79874">
        <ele>40.568</ele>
        <time>2020-10-09T11:49:45.000Z</time>
      </trkpt>
      <trkpt lat="43.58915" lon="3.79869">
        <ele>40.468</ele>
        <time>2020-10-09T11:49:46.000Z</time>
      </trkpt>
      <trkpt lat="43.58913" lon="3.79864">
        <ele>40.368</ele>
        <time>2020-10-09T11:49:47.000Z</time>
      </trkpt>
      <trkpt lat="43.5891" lon="3.79859">
        <ele>40.268</ele>
        <time>2020-10-09T11:49:48.000Z</time>
      </trkpt>
      <trkpt lat="43.58908" lon="3.79855">
        <ele>40.168</ele>
        <time>2020-10-09T11:49:49.000Z</time>
      </trkpt>
      <trkpt lat="43.58906" lon="3.7985">
        <ele>40.068</ele>
        <time>2020-10-09T11:49:50.000Z</time>
      </trkpt>
      <trkpt lat="43.58903" lon="3.79845">
        <ele>40</ele>
        <time>2020-10-09T11:49:51.000Z</time>
      </trkpt>
      <trkpt lat="43.589" lon="3.7984">
        <ele>40</ele>
        <time>2020-10-09T11:49:52.000Z</time>
      </trkpt>
      <trkpt lat="43.58897" lon="3.79834">
        <ele>40</ele>
        <time>2020-10-09T11:49:53.000Z</time>
      </trkpt>
      <trkpt lat="43.58893" lon="3.79828">
        <ele>40.085078115183</ele>
        <time>2020-10-09T11:49:54.000Z</time>
      </trkpt>
      <trkpt lat="43.5889" lon="3.79822">
        <ele>40.215968167539</ele>
        <time>2020-10-09T11:49:55.000Z</time>
      </trkpt>
      <trkpt lat="43.58888" lon="3.79816">
        <ele>40.346858219895</ele>
        <time>2020-10-09T11:49:56.000Z</time>
      </trkpt>
      <trkpt lat="43.58888" lon="3.7981">
        <ele>40.477748272251</ele>
        <time>2020-10-09T11:49:57.000Z</time>
      </trkpt>
      <trkpt lat="43.58888" lon="3.79803">
        <ele>40.608638324607</ele>
        <time>2020-10-09T11:49:58.000Z</time>
      </trkpt>
      <trkpt lat="43.58891" lon="3.79797">
        <ele>40.739528376963</ele>
        <time>2020-10-09T11:49:59.000Z</time>
      </trkpt>
      <trkpt lat="43.58895" lon="3.79793">
        <ele>40.870418429319</ele>
        <time>2020-10-09T11:50:00.000Z</time>
      </trkpt>
      <trkpt lat="43.589" lon="3.79789">
        <ele>41</ele>
        <time>2020-10-09T11:50:01.000Z</time>
      </trkpt>
      <trkpt lat="43.58904" lon="3.79785">
        <ele>41</ele>
        <time>2020-10-09T11:50:02.000Z</time>
      </trkpt>
      <trkpt lat="43.58908" lon="3.79781">
        <ele>41</ele>
        <time>2020-10-09T11:50:03.000Z</time>
      </trkpt>
      <trkpt lat="43.58912" lon="3.79777">
        <ele>41</ele>
        <time>2020-10-09T11:50:04.000Z</time>
      </trkpt>
      <trkpt lat="43.58916" lon="3.79773">
        <ele>41</ele>
        <time>2020-10-09T11:50:05.000Z</time>
      </trkpt>
      <trkpt lat="43.5892" lon="3.79768">
        <ele>41</ele>
        <time>2020-10-09T11:50:06.000Z</time>
      </trkpt>
      <trkpt lat="43.58923" lon="3.79764">
        <ele>41</ele>
        <time>2020-10-09T11:50:07.000Z</time>
      </trkpt>
      <trkpt lat="43.58927" lon="3.7976">
        <ele>41</ele>
        <time>2020-10-09T11:50:08.000Z</time>
      </trkpt>
      <trkpt lat="43.58931" lon="3.79755">
        <ele>41</ele>
        <time>2020-10-09T11:50:09.000Z</time>
      </trkpt>
      <trkpt lat="43.58934" lon="3.79751">
        <ele>41</ele>
        <time>2020-10-09T11:50:10.000Z</time>
      </trkpt>
      <trkpt lat="43.58938" lon="3.79747">
        <ele>41.032</ele>
        <time>2020-10-09T11:50:11.000Z</time>
      </trkpt>
      <trkpt lat="43.58942" lon="3.79744">
        <ele>41.132</ele>
        <time>2020-10-09T11:50:12.000Z</time>
      </trkpt>
      <trkpt lat="43.58946" lon="3.7974">
        <ele>41.232</ele>
        <time>2020-10-09T11:50:13.000Z</time>
      </trkpt>
      <trkpt lat="43.58949" lon="3.79737">
        <ele>41.332</ele>
        <time>2020-10-09T11:50:14.000Z</time>
      </trkpt>
      <trkpt lat="43.58953" lon="3.79733">
        <ele>41.432</ele>
        <time>2020-10-09T11:50:15.000Z</time>
      </trkpt>
      <trkpt lat="43.58957" lon="3.7973">
        <ele>41.532</ele>
        <time>2020-10-09T11:50:16.000Z</time>
      </trkpt>
      <trkpt lat="43.58961" lon="3.79728">
        <ele>41.632</ele>
        <time>2020-10-09T11:50:17.000Z</time>
      </trkpt>
      <trkpt lat="43.58966" lon="3.79725">
        <ele>41.732</ele>
        <time>2020-10-09T11:50:18.000Z</time>
      </trkpt>
      <trkpt lat="43.5897" lon="3.79722">
        <ele>41.832</ele>
        <time>2020-10-09T11:50:19.000Z</time>
      </trkpt>
      <trkpt lat="43.58974" lon="3.79719">
        <ele>41.932</ele>
        <time>2020-10-09T11:50:20.000Z</time>
      </trkpt>
      <trkpt lat="43.58978" lon="3.79717">
        <ele>42</ele>
        <time>2020-10-09T11:50:21.000Z</time>
      </trkpt>
      <trkpt lat="43.58982" lon="3.79715">
        <ele>42</ele>
        <time>2020-10-09T11:50:22.000Z</time>
      </trkpt>
      <trkpt lat="43.58986" lon="3.79713">
        <ele>42</ele>
        <time>2020-10-09T11:50:23.000Z</time>
      </trkpt>
      <trkpt lat="43.58989" lon="3.79711">
        <ele>42</ele>
        <time>2020-10-09T11:50:24.000Z</time>
      </trkpt>
      <trkpt lat="43.58992" lon="3.79708">
        <ele>42</ele>
        <time>2020-10-09T11:50:25.000Z</time>
      </trkpt>
      <trkpt lat="43.58993" lon="3.79704">
        <ele>42</ele>
        <time>2020-10-09T11:50:26.000Z</time>
      </trkpt>
      <trkpt lat="43.58993" lon="3.79701">
        <ele>42</ele>
        <time>2020-10-09T11:50:27.000Z</time>
      </trkpt>
      <trkpt lat="43.58991" lon="3.79697">
        <ele>42</ele>
        <time>2020-10-09T11:50:28.000Z</time>
      </trkpt>
      <trkpt lat="43.58989" lon="3.79693">
        <ele>42</ele>
        <time>2020-10-09T11:50:29.000Z</time>
      </trkpt>
      <trkpt lat="43.58986" lon="3.79689">
        <ele>42</ele>
        <time>2020-10-09T11:50:30.000Z</time>
      </trkpt>
      <trkpt lat="43.58983" lon="3.79684">
        <ele>41.968</ele>
        <time>2020-10-09T11:50:31.000Z</time>
      </trkpt>
      <trkpt lat="43.58981" lon="3.79679">
        <ele>41.868</ele>
        <time>2020-10-09T11:50:32.000Z</time>
      </trkpt>
      <trkpt lat="43.58978" lon="3.79674">
        <ele>41.768</ele>
        <time>2020-10-09T11:50:33.000Z</time>
      </trkpt>
      <trkpt lat="43.58977" lon="3.79668">
        <ele>41.668</ele>
        <time>2020-10-09T11:50:34.000Z</time>
      </trkpt>
      <trkpt lat="43.58976" lon="3.79661">
        <ele>41.568</ele>
        <time>2020-10-09T11:50:35.000Z</time>
      </trkpt>
      <trkpt lat="43.58976" lon="3.79654">
        <ele>41.468</ele>
        <time>2020-10-09T11:50:36.000Z</time>
      </trkpt>
      <trkpt lat="43.58978" lon="3.79648">
        <ele>41.368</ele>
        <time>2020-10-09T11:50:37.000Z</time>
      </trkpt>
      <trkpt lat="43.5898" lon="3.79642">
        <ele>41.268</ele>
        <time>2020-10-09T11:50:38.000Z</time>
      </trkpt>
      <trkpt lat="43.58984" lon="3.79638">
        <ele>41.168</ele>
        <time>2020-10-09T11:50:39.000Z</time>
      </trkpt>
      <trkpt lat="43.58988" lon="3.79633">
        <ele>41.068</ele>
        <time>2020-10-09T11:50:40.000Z</time>
      </trkpt>
      <trkpt lat="43.58991" lon="3.79629">
        <ele>40.968</ele>
        <time>2020-10-09T11:50:41.000Z</time>
      </trkpt>
      <trkpt lat="43.58995" lon="3.79625">
        <ele>40.868</ele>
        <time>2020-10-09T11:50:42.000Z</time>
      </trkpt>
      <trkpt lat="43.58999" lon="3.79621">
        <ele>40.768</ele>
        <time>2020-10-09T11:50:43.000Z</time>
      </trkpt>
      <trkpt lat="43.59003" lon="3.79617">
        <ele>40.668</ele>
        <time>2020-10-09T11:50:44.000Z</time>
      </trkpt>
      <trkpt lat="43.59007" lon="3.79613">
        <ele>40.568</ele>
        <time>2020-10-09T11:50:45.000Z</time>
      </trkpt>
      <trkpt lat="43.5901" lon="3.7961">
        <ele>40.468</ele>
        <time>2020-10-09T11:50:46.000Z</time>
      </trkpt>
      <trkpt lat="43.59014" lon="3.79606">
        <ele>40.368</ele>
        <time>2020-10-09T11:50:47.000Z</time>
      </trkpt>
      <trkpt lat="43.59018" lon="3.79602">
        <ele>40.268</ele>
        <time>2020-10-09T11:50:48.000Z</time>
      </trkpt>
      <trkpt lat="43.59022" lon="3.79599">
        <ele>40.168</ele>
        <time>2020-10-09T11:50:49.000Z</time>
      </trkpt>
      <trkpt lat="43.59025" lon="3.79595">
        <ele>40.068</ele>
        <time>2020-10-09T11:50:50.000Z</time>
      </trkpt>
      <trkpt lat="43.59029" lon="3.79591">
        <ele>40</ele>
        <time>2020-10-09T11:50:51.000Z</time>
      </trkpt>
      <trkpt lat="43.59033" lon="3.79587">
        <ele>40</ele>
        <time>2020-10-09T11:50:52.000Z</time>
      </trkpt>
      <trkpt lat="43.59037" lon="3.79582">
        <ele>40</ele>
        <time>2020-10-09T11:50:53.000Z</time>
      </trkpt>
      <trkpt lat="43.59041" lon="3.79577">
        <ele>40</ele>
        <time>2020-10-09T11:50:54.000Z</time>
      </trkpt>
      <trkpt lat="43.59045" lon="3.79572">
        <ele>40</ele>
        <time>2020-10-09T11:50:55.000Z</time>
      </trkpt>
      <trkpt lat="43.59048" lon="3.79567">
        <ele>40</ele>
        <time>2020-10-09T11:50:56.000Z</time>
      </trkpt>
      <trkpt lat="43.59051" lon="3.79561">
        <ele>40</ele>
        <time>2020-10-09T11:50:57.000Z</time>
      </trkpt>
      <trkpt lat="43.59054" lon="3.79555">
        <ele>40</ele>
        <time>2020-10-09T11:50:58.000Z</time>
      </trkpt>
      <trkpt lat="43.59056" lon="3.79549">
        <ele>40</ele>
        <time>2020-10-09T11:50:59.000Z</time>
      </trkpt>
      <trkpt lat="43.59059" lon="3.79543">
        <ele>40</ele>
        <time>2020-10-09T11:51:00.000Z</time>
      </trkpt>
      <trkpt lat="43.59062" lon="3.79537">
        <ele>39.968</ele>
        <time>2020-10-09T11:51:01.000Z</time>
      </trkpt>
      <trkpt lat="43.59064" lon="3.79531">
        <ele>39.868</ele>
        <time>2020-10-09T11:51:02.000Z</time>
      </trkpt>
      <trkpt lat="43.59067" lon="3.79525">
        <ele>39.768</ele>
        <time>2020-10-09T11:51:03.000Z</time>
      </trkpt>
      <trkpt lat="43.59069" lon="3.79519">
        <ele>39.668</ele>
        <time>2020-10-09T11:51:04.000Z</time>
      </trkpt>
      <trkpt lat="43.59072" lon="3.79514">
        <ele>39.568</ele>
        <time>2020-10-09T11:51:05.000Z</time>
      </trkpt>
      <trkpt lat="43.59074" lon="3.79509">
        <ele>39.468</ele>
        <time>2020-10-09T11:51:06.000Z</time>
      </trkpt>
      <trkpt lat="43.59076" lon="3.79504">
        <ele>39.368</ele>
        <time>2020-10-09T11:51:07.000Z</time>
      </trkpt>
      <trkpt lat="43.59078" lon="3.79499">
        <ele>39.268</ele>
        <time>2020-10-09T11:51:08.000Z</time>
      </trkpt>
      <trkpt lat="43.5908" lon="3.79494">
        <ele>39.168</ele>
        <time>2020-10-09T11:51:09.000Z</time>
      </trkpt>
      <trkpt lat="43.59082" lon="3.79488">
        <ele>39.068</ele>
        <time>2020-10-09T11:51:10.000Z</time>
      </trkpt>
      <trkpt lat="43.59084" lon="3.79483">
        <ele>38.968</ele>
        <time>2020-10-09T11:51:11.000Z</time>
      </trkpt>
      <trkpt lat="43.59086" lon="3.79477">
        <ele>38.868</ele>
        <time>2020-10-09T11:51:12.000Z</time>
      </trkpt>
      <trkpt lat="43.59087" lon="3.79472">
        <ele>38.768</ele>
        <time>2020-10-09T11:51:13.000Z</time>
      </trkpt>
      <trkpt lat="43.59089" lon="3.79467">
        <ele>38.668</ele>
        <time>2020-10-09T11:51:14.000Z</time>
      </trkpt>
      <trkpt lat="43.59091" lon="3.79462">
        <ele>38.568</ele>
        <time>2020-10-09T11:51:15.000Z</time>
      </trkpt>
      <trkpt lat="43.59092" lon="3.79457">
        <ele>38.468</ele>
        <time>2020-10-09T11:51:16.000Z</time>
      </trkpt>
      <trkpt lat="43.59094" lon="3.79452">
        <ele>38.368</ele>
        <time>2020-10-09T11:51:17.000Z</time>
      </trkpt>
      <trkpt lat="43.59095" lon="3.79447">
        <ele>38.268</ele>
        <time>2020-10-09T11:51:18.000Z</time>
      </trkpt>
      <trkpt lat="43.59097" lon="3.79442">
        <ele>38.168</ele>
        <time>2020-10-09T11:51:19.000Z</time>
      </trkpt>
      <trkpt lat="43.59098" lon="3.79437">
        <ele>38.068</ele>
        <time>2020-10-09T11:51:20.000Z</time>
      </trkpt>
      <trkpt lat="43.591" lon="3.79431">
        <ele>37.936</ele>
        <time>2020-10-09T11:51:21.000Z</time>
      </trkpt>
      <trkpt lat="43.59101" lon="3.79425">
        <ele>37.736</ele>
        <time>2020-10-09T11:51:22.000Z</time>
      </trkpt>
      <trkpt lat="43.59103" lon="3.79419">
        <ele>37.536</ele>
        <time>2020-10-09T11:51:23.000Z</time>
      </trkpt>
      <trkpt lat="43.59104" lon="3.79412">
        <ele>37.336</ele>
        <time>2020-10-09T11:51:24.000Z</time>
      </trkpt>
      <trkpt lat="43.59106" lon="3.79406">
        <ele>37.136</ele>
        <time>2020-10-09T11:51:25.000Z</time>
      </trkpt>
      <trkpt lat="43.59107" lon="3.79399">
        <ele>36.936</ele>
        <time>2020-10-09T11:51:26.000Z</time>
      </trkpt>
      <trkpt lat="43.59108" lon="3.79392">
        <ele>36.736</ele>
        <time>2020-10-09T11:51:27.000Z</time>
      </trkpt>
      <trkpt lat="43.59109" lon="3.79384">
        <ele>36.536</ele>
        <time>2020-10-09T11:51:28.000Z</time>
      </trkpt>
      <trkpt lat="43.5911" lon="3.79377">
        <ele>36.336</ele>
        <time>2020-10-09T11:51:29.000Z</time>
      </trkpt>
      <trkpt lat="43.5911" lon="3.79369">
        <ele>36.136</ele>
        <time>2020-10-09T11:51:30.000Z</time>
      </trkpt>
      <trkpt lat="43.5911" lon="3.79362">
        <ele>36</ele>
        <time>2020-10-09T11:51:31.000Z</time>
      </trkpt>
      <trkpt lat="43.5911" lon="3.79354">
        <ele>36</ele>
        <time>2020-10-09T11:51:32.000Z</time>
      </trkpt>
      <trkpt lat="43.5911" lon="3.79347">
        <ele>36</ele>
        <time>2020-10-09T11:51:33.000Z</time>
      </trkpt>
      <trkpt lat="43.5911" lon="3.79341">
        <ele>36</ele>
        <time>2020-10-09T11:51:34.000Z</time>
      </trkpt>
      <trkpt lat="43.59111" lon="3.79335">
        <ele>36</ele>
        <time>2020-10-09T11:51:35.000Z</time>
      </trkpt>
      <trkpt lat="43.59111" lon="3.7933">
        <ele>36</ele>
        <time>2020-10-09T11:51:36.000Z</time>
      </trkpt>
      <trkpt lat="43.59112" lon="3.79326">
        <ele>36</ele>
        <time>2020-10-09T11:51:37.000Z</time>
      </trkpt>
      <trkpt lat="43.59115" lon="3.79322">
        <ele>36</ele>
        <time>2020-10-09T11:51:38.000Z</time>
      </trkpt>
      <trkpt lat="43.59118" lon="3.79319">
        <ele>36</ele>
        <time>2020-10-09T11:51:39.000Z</time>
      </trkpt>
      <trkpt lat="43.59122" lon="3.79315">
        <ele>36</ele>
        <time>2020-10-09T11:51:40.000Z</time>
      </trkpt>
      <trkpt lat="43.59125" lon="3.7931">
        <ele>36</ele>
        <time>2020-10-09T11:51:41.000Z</time>
      </trkpt>
      <trkpt lat="43.59129" lon="3.79305">
        <ele>36</ele>
        <time>2020-10-09T11:51:42.000Z</time>
      </trkpt>
      <trkpt lat="43.59132" lon="3.79299">
        <ele>36</ele>
        <time>2020-10-09T11:51:43.000Z</time>
      </trkpt>
      <trkpt lat="43.59134" lon="3.79293">
        <ele>36</ele>
        <time>2020-10-09T11:51:44.000Z</time>
      </trkpt>
      <trkpt lat="43.59135" lon="3.79286">
        <ele>36</ele>
        <time>2020-10-09T11:51:45.000Z</time>
      </trkpt>
      <trkpt lat="43.59138" lon="3.7928">
        <ele>36</ele>
        <time>2020-10-09T11:51:46.000Z</time>
      </trkpt>
      <trkpt lat="43.5914" lon="3.79274">
        <ele>36</ele>
        <time>2020-10-09T11:51:47.000Z</time>
      </trkpt>
      <trkpt lat="43.59142" lon="3.79268">
        <ele>36</ele>
        <time>2020-10-09T11:51:48.000Z</time>
      </trkpt>
      <trkpt lat="43.59144" lon="3.79262">
        <ele>36</ele>
        <time>2020-10-09T11:51:49.000Z</time>
      </trkpt>
      <trkpt lat="43.59146" lon="3.79257">
        <ele>36</ele>
        <time>2020-10-09T11:51:50.000Z</time>
      </trkpt>
      <trkpt lat="43.59148" lon="3.79251">
        <ele>36.001003694779</ele>
        <time>2020-10-09T11:51:51.000Z</time>
      </trkpt>
      <trkpt lat="43.5915" lon="3.79247">
        <ele>36.101405301205</ele>
        <time>2020-10-09T11:51:52.000Z</time>
      </trkpt>
      <trkpt lat="43.59152" lon="3.79242">
        <ele>36.20180690763</ele>
        <time>2020-10-09T11:51:53.000Z</time>
      </trkpt>
      <trkpt lat="43.59154" lon="3.79237">
        <ele>36.302208514056</ele>
        <time>2020-10-09T11:51:54.000Z</time>
      </trkpt>
      <trkpt lat="43.59155" lon="3.79232">
        <ele>36.402610120482</ele>
        <time>2020-10-09T11:51:55.000Z</time>
      </trkpt>
      <trkpt lat="43.59157" lon="3.79228">
        <ele>36.503011726908</ele>
        <time>2020-10-09T11:51:56.000Z</time>
      </trkpt>
      <trkpt lat="43.59159" lon="3.79223">
        <ele>36.603413333333</ele>
        <time>2020-10-09T11:51:57.000Z</time>
      </trkpt>
      <trkpt lat="43.59161" lon="3.79218">
        <ele>36.703814939759</ele>
        <time>2020-10-09T11:51:58.000Z</time>
      </trkpt>
      <trkpt lat="43.59162" lon="3.79213">
        <ele>36.804216546185</ele>
        <time>2020-10-09T11:51:59.000Z</time>
      </trkpt>
      <trkpt lat="43.59163" lon="3.79209">
        <ele>36.90461815261</ele>
        <time>2020-10-09T11:52:00.000Z</time>
      </trkpt>
      <trkpt lat="43.59163" lon="3.79204">
        <ele>37.010276837912</ele>
        <time>2020-10-09T11:52:01.000Z</time>
      </trkpt>
      <trkpt lat="43.59163" lon="3.792">
        <ele>37.215826751351</ele>
        <time>2020-10-09T11:52:02.000Z</time>
      </trkpt>
      <trkpt lat="43.59164" lon="3.79196">
        <ele>37.42137666479</ele>
        <time>2020-10-09T11:52:03.000Z</time>
      </trkpt>
      <trkpt lat="43.59164" lon="3.79191">
        <ele>37.626926578229</ele>
        <time>2020-10-09T11:52:04.000Z</time>
      </trkpt>
      <trkpt lat="43.59164" lon="3.79187">
        <ele>37.832476491667</ele>
        <time>2020-10-09T11:52:05.000Z</time>
      </trkpt>
      <trkpt lat="43.59163" lon="3.79183">
        <ele>38.038026405106</ele>
        <time>2020-10-09T11:52:06.000Z</time>
      </trkpt>
      <trkpt lat="43.59163" lon="3.7918">
        <ele>38.243576318545</ele>
        <time>2020-10-09T11:52:07.000Z</time>
      </trkpt>
      <trkpt lat="43.59162" lon="3.79177">
        <ele>38.449126231984</ele>
        <time>2020-10-09T11:52:08.000Z</time>
      </trkpt>
      <trkpt lat="43.59161" lon="3.79173">
        <ele>38.654676145423</ele>
        <time>2020-10-09T11:52:09.000Z</time>
      </trkpt>
      <trkpt lat="43.59161" lon="3.7917">
        <ele>38.860226058862</ele>
        <time>2020-10-09T11:52:10.000Z</time>
      </trkpt>
      <trkpt lat="43.59161" lon="3.79167">
        <ele>39.064</ele>
        <time>2020-10-09T11:52:11.000Z</time>
      </trkpt>
      <trkpt lat="43.59161" lon="3.79163">
        <ele>39.264</ele>
        <time>2020-10-09T11:52:12.000Z</time>
      </trkpt>
      <trkpt lat="43.59161" lon="3.7916">
        <ele>39.464</ele>
        <time>2020-10-09T11:52:13.000Z</time>
      </trkpt>
      <trkpt lat="43.59161" lon="3.79156">
        <ele>39.664</ele>
        <time>2020-10-09T11:52:14.000Z</time>
      </trkpt>
      <trkpt lat="43.59161" lon="3.79152">
        <ele>39.864</ele>
        <time>2020-10-09T11:52:15.000Z</time>
      </trkpt>
      <trkpt lat="43.59161" lon="3.79148">
        <ele>40.064</ele>
        <time>2020-10-09T11:52:16.000Z</time>
      </trkpt>
      <trkpt lat="43.59161" lon="3.79145">
        <ele>40.264</ele>
        <time>2020-10-09T11:52:17.000Z</time>
      </trkpt>
      <trkpt lat="43.59162" lon="3.79141">
        <ele>40.464</ele>
        <time>2020-10-09T11:52:18.000Z</time>
      </trkpt>
      <trkpt lat="43.59162" lon="3.79137">
        <ele>40.664</ele>
        <time>2020-10-09T11:52:19.000Z</time>
      </trkpt>
      <trkpt lat="43.59163" lon="3.79133">
        <ele>40.864</ele>
        <time>2020-10-09T11:52:20.000Z</time>
      </trkpt>
      <trkpt lat="43.59163" lon="3.79129">
        <ele>41.032</ele>
        <time>2020-10-09T11:52:21.000Z</time>
      </trkpt>
      <trkpt lat="43.59164" lon="3.79124">
        <ele>41.132</ele>
        <time>2020-10-09T11:52:22.000Z</time>
      </trkpt>
      <trkpt lat="43.59164" lon="3.7912">
        <ele>41.232</ele>
        <time>2020-10-09T11:52:23.000Z</time>
      </trkpt>
      <trkpt lat="43.59165" lon="3.79116">
        <ele>41.332</ele>
        <time>2020-10-09T11:52:24.000Z</time>
      </trkpt>
      <trkpt lat="43.59166" lon="3.79111">
        <ele>41.432</ele>
        <time>2020-10-09T11:52:25.000Z</time>
      </trkpt>
      <trkpt lat="43.59167" lon="3.79106">
        <ele>41.532</ele>
        <time>2020-10-09T11:52:26.000Z</time>
      </trkpt>
      <trkpt lat="43.59167" lon="3.79102">
        <ele>41.632</ele>
        <time>2020-10-09T11:52:27.000Z</time>
      </trkpt>
      <trkpt lat="43.59168" lon="3.79097">
        <ele>41.732</ele>
        <time>2020-10-09T11:52:28.000Z</time>
      </trkpt>
      <trkpt lat="43.59169" lon="3.79092">
        <ele>41.832</ele>
        <time>2020-10-09T11:52:29.000Z</time>
      </trkpt>
      <trkpt lat="43.5917" lon="3.79087">
        <ele>41.932</ele>
        <time>2020-10-09T11:52:30.000Z</time>
      </trkpt>
      <trkpt lat="43.59171" lon="3.79082">
        <ele>42</ele>
        <time>2020-10-09T11:52:31.000Z</time>
      </trkpt>
      <trkpt lat="43.59172" lon="3.79077">
        <ele>42</ele>
        <time>2020-10-09T11:52:32.000Z</time>
      </trkpt>
      <trkpt lat="43.59173" lon="3.79071">
        <ele>42</ele>
        <time>2020-10-09T11:52:33.000Z</time>
      </trkpt>
      <trkpt lat="43.59174" lon="3.79066">
        <ele>42</ele>
        <time>2020-10-09T11:52:34.000Z</time>
      </trkpt>
      <trkpt lat="43.59175" lon="3.79061">
        <ele>42</ele>
        <time>2020-10-09T11:52:35.000Z</time>
      </trkpt>
      <trkpt lat="43.59177" lon="3.79057">
        <ele>42</ele>
        <time>2020-10-09T11:52:36.000Z</time>
      </trkpt>
      <trkpt lat="43.59178" lon="3.79052">
        <ele>42</ele>
        <time>2020-10-09T11:52:37.000Z</time>
      </trkpt>
      <trkpt lat="43.59179" lon="3.79047">
        <ele>42</ele>
        <time>2020-10-09T11:52:38.000Z</time>
      </trkpt>
      <trkpt lat="43.59181" lon="3.79043">
        <ele>42</ele>
        <time>2020-10-09T11:52:39.000Z</time>
      </trkpt>
      <trkpt lat="43.59182" lon="3.79037">
        <ele>42</ele>
        <time>2020-10-09T11:52:40.000Z</time>
      </trkpt>
      <trkpt lat="43.59183" lon="3.79032">
        <ele>42</ele>
        <time>2020-10-09T11:52:41.000Z</time>
      </trkpt>
      <trkpt lat="43.59185" lon="3.79026">
        <ele>42</ele>
        <time>2020-10-09T11:52:42.000Z</time>
      </trkpt>
      <trkpt lat="43.59186" lon="3.79021">
        <ele>42</ele>
        <time>2020-10-09T11:52:43.000Z</time>
      </trkpt>
      <trkpt lat="43.59187" lon="3.79017">
        <ele>42</ele>
        <time>2020-10-09T11:52:44.000Z</time>
      </trkpt>
      <trkpt lat="43.59186" lon="3.79014">
        <ele>42</ele>
        <time>2020-10-09T11:52:45.000Z</time>
      </trkpt>
      <trkpt lat="43.59184" lon="3.79011">
        <ele>42</ele>
        <time>2020-10-09T11:52:46.000Z</time>
      </trkpt>
      <trkpt lat="43.59181" lon="3.79008">
        <ele>42</ele>
        <time>2020-10-09T11:52:47.000Z</time>
      </trkpt>
      <trkpt lat="43.59178" lon="3.79004">
        <ele>42</ele>
        <time>2020-10-09T11:52:48.000Z</time>
      </trkpt>
      <trkpt lat="43.59176" lon="3.78998">
        <ele>42</ele>
        <time>2020-10-09T11:52:49.000Z</time>
      </trkpt>
      <trkpt lat="43.59173" lon="3.78993">
        <ele>42</ele>
        <time>2020-10-09T11:52:50.000Z</time>
      </trkpt>
      <trkpt lat="43.59171" lon="3.78987">
        <ele>42</ele>
        <time>2020-10-09T11:52:51.000Z</time>
      </trkpt>
      <trkpt lat="43.59168" lon="3.7898">
        <ele>42</ele>
        <time>2020-10-09T11:52:52.000Z</time>
      </trkpt>
      <trkpt lat="43.59166" lon="3.78974">
        <ele>42</ele>
        <time>2020-10-09T11:52:53.000Z</time>
      </trkpt>
      <trkpt lat="43.59163" lon="3.78967">
        <ele>42</ele>
        <time>2020-10-09T11:52:54.000Z</time>
      </trkpt>
      <trkpt lat="43.59161" lon="3.7896">
        <ele>42</ele>
        <time>2020-10-09T11:52:55.000Z</time>
      </trkpt>
      <trkpt lat="43.59159" lon="3.78954">
        <ele>42</ele>
        <time>2020-10-09T11:52:56.000Z</time>
      </trkpt>
      <trkpt lat="43.59157" lon="3.78948">
        <ele>42</ele>
        <time>2020-10-09T11:52:57.000Z</time>
      </trkpt>
      <trkpt lat="43.59154" lon="3.78942">
        <ele>42</ele>
        <time>2020-10-09T11:52:58.000Z</time>
      </trkpt>
      <trkpt lat="43.59152" lon="3.78937">
        <ele>42</ele>
        <time>2020-10-09T11:52:59.000Z</time>
      </trkpt>
      <trkpt lat="43.5915" lon="3.78932">
        <ele>42</ele>
        <time>2020-10-09T11:53:00.000Z</time>
      </trkpt>
      <trkpt lat="43.59148" lon="3.78927">
        <ele>42</ele>
        <time>2020-10-09T11:53:01.000Z</time>
      </trkpt>
      <trkpt lat="43.59146" lon="3.78923">
        <ele>42</ele>
        <time>2020-10-09T11:53:02.000Z</time>
      </trkpt>
      <trkpt lat="43.59144" lon="3.7892">
        <ele>42</ele>
        <time>2020-10-09T11:53:03.000Z</time>
      </trkpt>
      <trkpt lat="43.59141" lon="3.78917">
        <ele>42</ele>
        <time>2020-10-09T11:53:04.000Z</time>
      </trkpt>
      <trkpt lat="43.59139" lon="3.78913">
        <ele>42</ele>
        <time>2020-10-09T11:53:05.000Z</time>
      </trkpt>
      <trkpt lat="43.59136" lon="3.7891">
        <ele>42</ele>
        <time>2020-10-09T11:53:06.000Z</time>
      </trkpt>
      <trkpt lat="43.59133" lon="3.78906">
        <ele>42</ele>
        <time>2020-10-09T11:53:07.000Z</time>
      </trkpt>
      <trkpt lat="43.5913" lon="3.78901">
        <ele>42</ele>
        <time>2020-10-09T11:53:08.000Z</time>
      </trkpt>
      <trkpt lat="43.59128" lon="3.78895">
        <ele>42</ele>
        <time>2020-10-09T11:53:09.000Z</time>
      </trkpt>
      <trkpt lat="43.59127" lon="3.78889">
        <ele>42</ele>
        <time>2020-10-09T11:53:10.000Z</time>
      </trkpt>
      <trkpt lat="43.59125" lon="3.78884">
        <ele>42</ele>
        <time>2020-10-09T11:53:11.000Z</time>
      </trkpt>
      <trkpt lat="43.59123" lon="3.78879">
        <ele>42</ele>
        <time>2020-10-09T11:53:12.000Z</time>
      </trkpt>
      <trkpt lat="43.59122" lon="3.78874">
        <ele>42</ele>
        <time>2020-10-09T11:53:13.000Z</time>
      </trkpt>
      <trkpt lat="43.5912" lon="3.7887">
        <ele>42</ele>
        <time>2020-10-09T11:53:14.000Z</time>
      </trkpt>
      <trkpt lat="43.59118" lon="3.78867">
        <ele>42</ele>
        <time>2020-10-09T11:53:15.000Z</time>
      </trkpt>
      <trkpt lat="43.59115" lon="3.78865">
        <ele>42</ele>
        <time>2020-10-09T11:53:16.000Z</time>
      </trkpt>
      <trkpt lat="43.59113" lon="3.78865">
        <ele>42</ele>
        <time>2020-10-09T11:53:17.000Z</time>
      </trkpt>
      <trkpt lat="43.5911" lon="3.78864">
        <ele>42</ele>
        <time>2020-10-09T11:53:18.000Z</time>
      </trkpt>
      <trkpt lat="43.59108" lon="3.7886">
        <ele>42</ele>
        <time>2020-10-09T11:53:19.000Z</time>
      </trkpt>
      <trkpt lat="43.59107" lon="3.78856">
        <ele>42</ele>
        <time>2020-10-09T11:53:20.000Z</time>
      </trkpt>
      <trkpt lat="43.59105" lon="3.78851">
        <ele>42.031936107346</ele>
        <time>2020-10-09T11:53:21.000Z</time>
      </trkpt>
      <trkpt lat="43.59104" lon="3.78846">
        <ele>42.131736442803</ele>
        <time>2020-10-09T11:53:22.000Z</time>
      </trkpt>
      <trkpt lat="43.59102" lon="3.78842">
        <ele>42.23153677826</ele>
        <time>2020-10-09T11:53:23.000Z</time>
      </trkpt>
      <trkpt lat="43.591" lon="3.78838">
        <ele>42.331337113717</ele>
        <time>2020-10-09T11:53:24.000Z</time>
      </trkpt>
      <trkpt lat="43.59098" lon="3.78833">
        <ele>42.431137449174</ele>
        <time>2020-10-09T11:53:25.000Z</time>
      </trkpt>
      <trkpt lat="43.59097" lon="3.78829">
        <ele>42.530937784631</ele>
        <time>2020-10-09T11:53:26.000Z</time>
      </trkpt>
      <trkpt lat="43.59095" lon="3.78825">
        <ele>42.630738120087</ele>
        <time>2020-10-09T11:53:27.000Z</time>
      </trkpt>
      <trkpt lat="43.59094" lon="3.78821">
        <ele>42.730538455544</ele>
        <time>2020-10-09T11:53:28.000Z</time>
      </trkpt>
      <trkpt lat="43.59092" lon="3.78818">
        <ele>42.830338791001</ele>
        <time>2020-10-09T11:53:29.000Z</time>
      </trkpt>
      <trkpt lat="43.59091" lon="3.78814">
        <ele>42.930139126458</ele>
        <time>2020-10-09T11:53:30.000Z</time>
      </trkpt>
      <trkpt lat="43.5909" lon="3.7881">
        <ele>43.060118996469</ele>
        <time>2020-10-09T11:53:31.000Z</time>
      </trkpt>
      <trkpt lat="43.59089" lon="3.78807">
        <ele>43.260519926586</ele>
        <time>2020-10-09T11:53:32.000Z</time>
      </trkpt>
      <trkpt lat="43.59087" lon="3.78803">
        <ele>43.460920856703</ele>
        <time>2020-10-09T11:53:33.000Z</time>
      </trkpt>
      <trkpt lat="43.59086" lon="3.788">
        <ele>43.66132178682</ele>
        <time>2020-10-09T11:53:34.000Z</time>
      </trkpt>
      <trkpt lat="43.59085" lon="3.78797">
        <ele>43.861722716936</ele>
        <time>2020-10-09T11:53:35.000Z</time>
      </trkpt>
      <trkpt lat="43.59084" lon="3.78793">
        <ele>44.062123647053</ele>
        <time>2020-10-09T11:53:36.000Z</time>
      </trkpt>
      <trkpt lat="43.59083" lon="3.7879">
        <ele>44.26252457717</ele>
        <time>2020-10-09T11:53:37.000Z</time>
      </trkpt>
      <trkpt lat="43.59083" lon="3.78786">
        <ele>44.462925507287</ele>
        <time>2020-10-09T11:53:38.000Z</time>
      </trkpt>
      <trkpt lat="43.59083" lon="3.78782">
        <ele>44.663326437404</ele>
        <time>2020-10-09T11:53:39.000Z</time>
      </trkpt>
      <trkpt lat="43.59082" lon="3.78778">
        <ele>44.863727367521</ele>
        <time>2020-10-09T11:53:40.000Z</time>
      </trkpt>
      <trkpt lat="43.59081" lon="3.78773">
        <ele>45</ele>
        <time>2020-10-09T11:53:41.000Z</time>
      </trkpt>
      <trkpt lat="43.59079" lon="3.78769">
        <ele>45</ele>
        <time>2020-10-09T11:53:42.000Z</time>
      </trkpt>
      <trkpt lat="43.59078" lon="3.78764">
        <ele>45</ele>
        <time>2020-10-09T11:53:43.000Z</time>
      </trkpt>
      <trkpt lat="43.59077" lon="3.7876">
        <ele>45</ele>
        <time>2020-10-09T11:53:44.000Z</time>
      </trkpt>
      <trkpt lat="43.59075" lon="3.78757">
        <ele>45</ele>
        <time>2020-10-09T11:53:45.000Z</time>
      </trkpt>
      <trkpt lat="43.59074" lon="3.78753">
        <ele>45</ele>
        <time>2020-10-09T11:53:46.000Z</time>
      </trkpt>
      <trkpt lat="43.59072" lon="3.7875">
        <ele>45</ele>
        <time>2020-10-09T11:53:47.000Z</time>
      </trkpt>
      <trkpt lat="43.59071" lon="3.78747">
        <ele>45</ele>
        <time>2020-10-09T11:53:48.000Z</time>
      </trkpt>
      <trkpt lat="43.59069" lon="3.78744">
        <ele>45</ele>
        <time>2020-10-09T11:53:49.000Z</time>
      </trkpt>
      <trkpt lat="43.59068" lon="3.78741">
        <ele>45</ele>
        <time>2020-10-09T11:53:50.000Z</time>
      </trkpt>
      <trkpt lat="43.59066" lon="3.78738">
        <ele>45.064</ele>
        <time>2020-10-09T11:53:51.000Z</time>
      </trkpt>
      <trkpt lat="43.59064" lon="3.78735">
        <ele>45.264</ele>
        <time>2020-10-09T11:53:52.000Z</time>
      </trkpt>
      <trkpt lat="43.59063" lon="3.78731">
        <ele>45.464</ele>
        <time>2020-10-09T11:53:53.000Z</time>
      </trkpt>
      <trkpt lat="43.59062" lon="3.78728">
        <ele>45.664</ele>
        <time>2020-10-09T11:53:54.000Z</time>
      </trkpt>
      <trkpt lat="43.59061" lon="3.78724">
        <ele>45.864</ele>
        <time>2020-10-09T11:53:55.000Z</time>
      </trkpt>
      <trkpt lat="43.59061" lon="3.78721">
        <ele>46.064</ele>
        <time>2020-10-09T11:53:56.000Z</time>
      </trkpt>
      <trkpt lat="43.59061" lon="3.78718">
        <ele>46.264</ele>
        <time>2020-10-09T11:53:57.000Z</time>
      </trkpt>
      <trkpt lat="43.59062" lon="3.78714">
        <ele>46.464</ele>
        <time>2020-10-09T11:53:58.000Z</time>
      </trkpt>
      <trkpt lat="43.59063" lon="3.7871">
        <ele>46.664</ele>
        <time>2020-10-09T11:53:59.000Z</time>
      </trkpt>
      <trkpt lat="43.59064" lon="3.78705">
        <ele>46.864</ele>
        <time>2020-10-09T11:54:00.000Z</time>
      </trkpt>
      <trkpt lat="43.59066" lon="3.78701">
        <ele>47.032</ele>
        <time>2020-10-09T11:54:01.000Z</time>
      </trkpt>
      <trkpt lat="43.59068" lon="3.78697">
        <ele>47.132</ele>
        <time>2020-10-09T11:54:02.000Z</time>
      </trkpt>
      <trkpt lat="43.59069" lon="3.78693">
        <ele>47.232</ele>
        <time>2020-10-09T11:54:03.000Z</time>
      </trkpt>
      <trkpt lat="43.59071" lon="3.78689">
        <ele>47.332</ele>
        <time>2020-10-09T11:54:04.000Z</time>
      </trkpt>
      <trkpt lat="43.59072" lon="3.78685">
        <ele>47.432</ele>
        <time>2020-10-09T11:54:05.000Z</time>
      </trkpt>
      <trkpt lat="43.59074" lon="3.78681">
        <ele>47.532</ele>
        <time>2020-10-09T11:54:06.000Z</time>
      </trkpt>
      <trkpt lat="43.59075" lon="3.78677">
        <ele>47.632</ele>
        <time>2020-10-09T11:54:07.000Z</time>
      </trkpt>
      <trkpt lat="43.59076" lon="3.78674">
        <ele>47.732</ele>
        <time>2020-10-09T11:54:08.000Z</time>
      </trkpt>
      <trkpt lat="43.59078" lon="3.7867">
        <ele>47.832</ele>
        <time>2020-10-09T11:54:09.000Z</time>
      </trkpt>
      <trkpt lat="43.5908" lon="3.78665">
        <ele>47.932</ele>
        <time>2020-10-09T11:54:10.000Z</time>
      </trkpt>
      <trkpt lat="43.59081" lon="3.78661">
        <ele>48.032</ele>
        <time>2020-10-09T11:54:11.000Z</time>
      </trkpt>
      <trkpt lat="43.59083" lon="3.78656">
        <ele>48.132</ele>
        <time>2020-10-09T11:54:12.000Z</time>
      </trkpt>
      <trkpt lat="43.59085" lon="3.78651">
        <ele>48.232</ele>
        <time>2020-10-09T11:54:13.000Z</time>
      </trkpt>
      <trkpt lat="43.59087" lon="3.78646">
        <ele>48.332</ele>
        <time>2020-10-09T11:54:14.000Z</time>
      </trkpt>
      <trkpt lat="43.59089" lon="3.78641">
        <ele>48.432</ele>
        <time>2020-10-09T11:54:15.000Z</time>
      </trkpt>
      <trkpt lat="43.5909" lon="3.78636">
        <ele>48.532</ele>
        <time>2020-10-09T11:54:16.000Z</time>
      </trkpt>
      <trkpt lat="43.59091" lon="3.78632">
        <ele>48.632</ele>
        <time>2020-10-09T11:54:17.000Z</time>
      </trkpt>
      <trkpt lat="43.59092" lon="3.78628">
        <ele>48.732</ele>
        <time>2020-10-09T11:54:18.000Z</time>
      </trkpt>
      <trkpt lat="43.59093" lon="3.78625">
        <ele>48.832</ele>
        <time>2020-10-09T11:54:19.000Z</time>
      </trkpt>
      <trkpt lat="43.59095" lon="3.78621">
        <ele>48.932</ele>
        <time>2020-10-09T11:54:20.000Z</time>
      </trkpt>
      <trkpt lat="43.59096" lon="3.78618">
        <ele>49.032</ele>
        <time>2020-10-09T11:54:21.000Z</time>
      </trkpt>
      <trkpt lat="43.59098" lon="3.78614">
        <ele>49.132</ele>
        <time>2020-10-09T11:54:22.000Z</time>
      </trkpt>
      <trkpt lat="43.59098" lon="3.7861">
        <ele>49.232</ele>
        <time>2020-10-09T11:54:23.000Z</time>
      </trkpt>
      <trkpt lat="43.59099" lon="3.78606">
        <ele>49.332</ele>
        <time>2020-10-09T11:54:24.000Z</time>
      </trkpt>
      <trkpt lat="43.59099" lon="3.78602">
        <ele>49.432</ele>
        <time>2020-10-09T11:54:25.000Z</time>
      </trkpt>
      <trkpt lat="43.591" lon="3.78599">
        <ele>49.532</ele>
        <time>2020-10-09T11:54:26.000Z</time>
      </trkpt>
      <trkpt lat="43.591" lon="3.78595">
        <ele>49.632</ele>
        <time>2020-10-09T11:54:27.000Z</time>
      </trkpt>
      <trkpt lat="43.591" lon="3.78588">
        <ele>49.832</ele>
        <time>2020-10-09T11:54:29.000Z</time>
      </trkpt>
      <trkpt lat="43.591" lon="3.78584">
        <ele>49.932</ele>
        <time>2020-10-09T11:54:30.000Z</time>
      </trkpt>
      <trkpt lat="43.591" lon="3.7858">
        <ele>50.032</ele>
        <time>2020-10-09T11:54:31.000Z</time>
      </trkpt>
      <trkpt lat="43.591" lon="3.78576">
        <ele>50.132</ele>
        <time>2020-10-09T11:54:32.000Z</time>
      </trkpt>
      <trkpt lat="43.59101" lon="3.78572">
        <ele>50.232</ele>
        <time>2020-10-09T11:54:33.000Z</time>
      </trkpt>
      <trkpt lat="43.59102" lon="3.78568">
        <ele>50.332</ele>
        <time>2020-10-09T11:54:34.000Z</time>
      </trkpt>
      <trkpt lat="43.59102" lon="3.78563">
        <ele>50.432</ele>
        <time>2020-10-09T11:54:35.000Z</time>
      </trkpt>
      <trkpt lat="43.59102" lon="3.78559">
        <ele>50.532</ele>
        <time>2020-10-09T11:54:36.000Z</time>
      </trkpt>
      <trkpt lat="43.59102" lon="3.78554">
        <ele>50.632</ele>
        <time>2020-10-09T11:54:37.000Z</time>
      </trkpt>
      <trkpt lat="43.59103" lon="3.78549">
        <ele>50.732</ele>
        <time>2020-10-09T11:54:38.000Z</time>
      </trkpt>
      <trkpt lat="43.59102" lon="3.78545">
        <ele>50.832</ele>
        <time>2020-10-09T11:54:39.000Z</time>
      </trkpt>
      <trkpt lat="43.59102" lon="3.78541">
        <ele>50.932</ele>
        <time>2020-10-09T11:54:40.000Z</time>
      </trkpt>
      <trkpt lat="43.59102" lon="3.78537">
        <ele>51.062196326436</ele>
        <time>2020-10-09T11:54:41.000Z</time>
      </trkpt>
      <trkpt lat="43.59102" lon="3.78533">
        <ele>51.256559846549</ele>
        <time>2020-10-09T11:54:42.000Z</time>
      </trkpt>
      <trkpt lat="43.59102" lon="3.78529">
        <ele>51.450923366662</ele>
        <time>2020-10-09T11:54:43.000Z</time>
      </trkpt>
      <trkpt lat="43.59102" lon="3.78525">
        <ele>51.645286886775</ele>
        <time>2020-10-09T11:54:44.000Z</time>
      </trkpt>
      <trkpt lat="43.59102" lon="3.78521">
        <ele>51.839650406888</ele>
        <time>2020-10-09T11:54:45.000Z</time>
      </trkpt>
      <trkpt lat="43.59102" lon="3.78516">
        <ele>52.034013927001</ele>
        <time>2020-10-09T11:54:46.000Z</time>
      </trkpt>
      <trkpt lat="43.59102" lon="3.78512">
        <ele>52.228377447114</ele>
        <time>2020-10-09T11:54:47.000Z</time>
      </trkpt>
      <trkpt lat="43.59102" lon="3.78508">
        <ele>52.422740967227</ele>
        <time>2020-10-09T11:54:48.000Z</time>
      </trkpt>
      <trkpt lat="43.59102" lon="3.78503">
        <ele>52.617104487341</ele>
        <time>2020-10-09T11:54:49.000Z</time>
      </trkpt>
      <trkpt lat="43.59102" lon="3.78499">
        <ele>52.811468007454</ele>
        <time>2020-10-09T11:54:50.000Z</time>
      </trkpt>
      <trkpt lat="43.59102" lon="3.78495">
        <ele>53.003089926891</ele>
        <time>2020-10-09T11:54:51.000Z</time>
      </trkpt>
      <trkpt lat="43.59102" lon="3.78491">
        <ele>53.106076504692</ele>
        <time>2020-10-09T11:54:52.000Z</time>
      </trkpt>
      <trkpt lat="43.59102" lon="3.78487">
        <ele>53.209063082492</ele>
        <time>2020-10-09T11:54:53.000Z</time>
      </trkpt>
      <trkpt lat="43.59101" lon="3.78483">
        <ele>53.312049660293</ele>
        <time>2020-10-09T11:54:54.000Z</time>
      </trkpt>
      <trkpt lat="43.591" lon="3.78479">
        <ele>53.415036238093</ele>
        <time>2020-10-09T11:54:55.000Z</time>
      </trkpt>
      <trkpt lat="43.591" lon="3.78475">
        <ele>53.518022815894</ele>
        <time>2020-10-09T11:54:56.000Z</time>
      </trkpt>
      <trkpt lat="43.59099" lon="3.78471">
        <ele>53.621009393694</ele>
        <time>2020-10-09T11:54:57.000Z</time>
      </trkpt>
      <trkpt lat="43.59098" lon="3.78467">
        <ele>53.723995971495</ele>
        <time>2020-10-09T11:54:58.000Z</time>
      </trkpt>
      <trkpt lat="43.59098" lon="3.78463">
        <ele>53.826982549295</ele>
        <time>2020-10-09T11:54:59.000Z</time>
      </trkpt>
      <trkpt lat="43.59097" lon="3.78459">
        <ele>53.929969127096</ele>
        <time>2020-10-09T11:55:00.000Z</time>
      </trkpt>
      <trkpt lat="43.59097" lon="3.78456">
        <ele>54.064</ele>
        <time>2020-10-09T11:55:01.000Z</time>
      </trkpt>
      <trkpt lat="43.59098" lon="3.78452">
        <ele>54.264</ele>
        <time>2020-10-09T11:55:02.000Z</time>
      </trkpt>
      <trkpt lat="43.59098" lon="3.78443">
        <ele>54.664</ele>
        <time>2020-10-09T11:55:04.000Z</time>
      </trkpt>
      <trkpt lat="43.59099" lon="3.78438">
        <ele>54.864</ele>
        <time>2020-10-09T11:55:05.000Z</time>
      </trkpt>
      <trkpt lat="43.59099" lon="3.78434">
        <ele>55.064</ele>
        <time>2020-10-09T11:55:06.000Z</time>
      </trkpt>
      <trkpt lat="43.59099" lon="3.7843">
        <ele>55.264</ele>
        <time>2020-10-09T11:55:07.000Z</time>
      </trkpt>
      <trkpt lat="43.59099" lon="3.78423">
        <ele>55.664</ele>
        <time>2020-10-09T11:55:09.000Z</time>
      </trkpt>
      <trkpt lat="43.59098" lon="3.78419">
        <ele>55.864</ele>
        <time>2020-10-09T11:55:10.000Z</time>
      </trkpt>
      <trkpt lat="43.59098" lon="3.78415">
        <ele>56.064</ele>
        <time>2020-10-09T11:55:11.000Z</time>
      </trkpt>
      <trkpt lat="43.59097" lon="3.78412">
        <ele>56.264</ele>
        <time>2020-10-09T11:55:12.000Z</time>
      </trkpt>
      <trkpt lat="43.59096" lon="3.78407">
        <ele>56.664</ele>
        <time>2020-10-09T11:55:14.000Z</time>
      </trkpt>
      <trkpt lat="43.59096" lon="3.78404">
        <ele>56.864</ele>
        <time>2020-10-09T11:55:15.000Z</time>
      </trkpt>
      <trkpt lat="43.59096" lon="3.784">
        <ele>57.064</ele>
        <time>2020-10-09T11:55:16.000Z</time>
      </trkpt>
      <trkpt lat="43.59095" lon="3.78397">
        <ele>57.264</ele>
        <time>2020-10-09T11:55:17.000Z</time>
      </trkpt>
      <trkpt lat="43.59095" lon="3.78395">
        <ele>57.464</ele>
        <time>2020-10-09T11:55:18.000Z</time>
      </trkpt>
      <trkpt lat="43.59094" lon="3.7839">
        <ele>57.864</ele>
        <time>2020-10-09T11:55:20.000Z</time>
      </trkpt>
      <trkpt lat="43.59094" lon="3.78385">
        <ele>58.256559846549</ele>
        <time>2020-10-09T11:55:22.000Z</time>
      </trkpt>
      <trkpt lat="43.59093" lon="3.78381">
        <ele>58.645286886775</ele>
        <time>2020-10-09T11:55:24.000Z</time>
      </trkpt>
      <trkpt lat="43.59092" lon="3.78378">
        <ele>59.034013927001</ele>
        <time>2020-10-09T11:55:26.000Z</time>
      </trkpt>
      <trkpt lat="43.59091" lon="3.78373">
        <ele>59.422740967227</ele>
        <time>2020-10-09T11:55:28.000Z</time>
      </trkpt>
      <trkpt lat="43.5909" lon="3.78368">
        <ele>59.811468007454</ele>
        <time>2020-10-09T11:55:30.000Z</time>
      </trkpt>
      <trkpt lat="43.5909" lon="3.78365">
        <ele>60.006179853782</ele>
        <time>2020-10-09T11:55:31.000Z</time>
      </trkpt>
      <trkpt lat="43.5909" lon="3.78362">
        <ele>60.212153009383</ele>
        <time>2020-10-09T11:55:32.000Z</time>
      </trkpt>
      <trkpt lat="43.5909" lon="3.78358">
        <ele>60.418126164984</ele>
        <time>2020-10-09T11:55:33.000Z</time>
      </trkpt>
      <trkpt lat="43.5909" lon="3.78354">
        <ele>60.624099320585</ele>
        <time>2020-10-09T11:55:34.000Z</time>
      </trkpt>
      <trkpt lat="43.5909" lon="3.7835">
        <ele>60.830072476186</ele>
        <time>2020-10-09T11:55:35.000Z</time>
      </trkpt>
      <trkpt lat="43.5909" lon="3.78346">
        <ele>61.036045631787</ele>
        <time>2020-10-09T11:55:36.000Z</time>
      </trkpt>
      <trkpt lat="43.59089" lon="3.78342">
        <ele>61.242018787388</ele>
        <time>2020-10-09T11:55:37.000Z</time>
      </trkpt>
      <trkpt lat="43.59088" lon="3.78337">
        <ele>61.447991942989</ele>
        <time>2020-10-09T11:55:38.000Z</time>
      </trkpt>
      <trkpt lat="43.59087" lon="3.78334">
        <ele>61.65396509859</ele>
        <time>2020-10-09T11:55:39.000Z</time>
      </trkpt>
      <trkpt lat="43.59086" lon="3.7833">
        <ele>61.859938254191</ele>
        <time>2020-10-09T11:55:40.000Z</time>
      </trkpt>
      <trkpt lat="43.59085" lon="3.78326">
        <ele>62.064</ele>
        <time>2020-10-09T11:55:41.000Z</time>
      </trkpt>
      <trkpt lat="43.59083" lon="3.78322">
        <ele>62.264</ele>
        <time>2020-10-09T11:55:42.000Z</time>
      </trkpt>
      <trkpt lat="43.59082" lon="3.78319">
        <ele>62.464</ele>
        <time>2020-10-09T11:55:43.000Z</time>
      </trkpt>
      <trkpt lat="43.59081" lon="3.78315">
        <ele>62.664</ele>
        <time>2020-10-09T11:55:44.000Z</time>
      </trkpt>
      <trkpt lat="43.59079" lon="3.78311">
        <ele>62.864</ele>
        <time>2020-10-09T11:55:45.000Z</time>
      </trkpt>
      <trkpt lat="43.59078" lon="3.78307">
        <ele>63.064</ele>
        <time>2020-10-09T11:55:46.000Z</time>
      </trkpt>
      <trkpt lat="43.59076" lon="3.78303">
        <ele>63.264</ele>
        <time>2020-10-09T11:55:47.000Z</time>
      </trkpt>
      <trkpt lat="43.59074" lon="3.78299">
        <ele>63.464</ele>
        <time>2020-10-09T11:55:48.000Z</time>
      </trkpt>
      <trkpt lat="43.59073" lon="3.78295">
        <ele>63.664</ele>
        <time>2020-10-09T11:55:49.000Z</time>
      </trkpt>
      <trkpt lat="43.59071" lon="3.7829">
        <ele>63.864</ele>
        <time>2020-10-09T11:55:50.000Z</time>
      </trkpt>
      <trkpt lat="43.59069" lon="3.78286">
        <ele>64.032</ele>
        <time>2020-10-09T11:55:51.000Z</time>
      </trkpt>
      <trkpt lat="43.59067" lon="3.78282">
        <ele>64.132</ele>
        <time>2020-10-09T11:55:52.000Z</time>
      </trkpt>
      <trkpt lat="43.59064" lon="3.78278">
        <ele>64.232</ele>
        <time>2020-10-09T11:55:53.000Z</time>
      </trkpt>
      <trkpt lat="43.59062" lon="3.78274">
        <ele>64.332</ele>
        <time>2020-10-09T11:55:54.000Z</time>
      </trkpt>
      <trkpt lat="43.59059" lon="3.7827">
        <ele>64.432</ele>
        <time>2020-10-09T11:55:55.000Z</time>
      </trkpt>
      <trkpt lat="43.59056" lon="3.78266">
        <ele>64.532</ele>
        <time>2020-10-09T11:55:56.000Z</time>
      </trkpt>
      <trkpt lat="43.59054" lon="3.78262">
        <ele>64.632</ele>
        <time>2020-10-09T11:55:57.000Z</time>
      </trkpt>
      <trkpt lat="43.59051" lon="3.78257">
        <ele>64.732</ele>
        <time>2020-10-09T11:55:58.000Z</time>
      </trkpt>
      <trkpt lat="43.59048" lon="3.78253">
        <ele>64.832</ele>
        <time>2020-10-09T11:55:59.000Z</time>
      </trkpt>
      <trkpt lat="43.59046" lon="3.78248">
        <ele>64.932</ele>
        <time>2020-10-09T11:56:00.000Z</time>
      </trkpt>
      <trkpt lat="43.59044" lon="3.78243">
        <ele>65</ele>
        <time>2020-10-09T11:56:01.000Z</time>
      </trkpt>
      <trkpt lat="43.59042" lon="3.78238">
        <ele>65</ele>
        <time>2020-10-09T11:56:02.000Z</time>
      </trkpt>
      <trkpt lat="43.59038" lon="3.78234">
        <ele>65</ele>
        <time>2020-10-09T11:56:03.000Z</time>
      </trkpt>
      <trkpt lat="43.59035" lon="3.78231">
        <ele>65</ele>
        <time>2020-10-09T11:56:04.000Z</time>
      </trkpt>
      <trkpt lat="43.59031" lon="3.78229">
        <ele>65</ele>
        <time>2020-10-09T11:56:05.000Z</time>
      </trkpt>
      <trkpt lat="43.59027" lon="3.78228">
        <ele>65</ele>
        <time>2020-10-09T11:56:06.000Z</time>
      </trkpt>
      <trkpt lat="43.59023" lon="3.78228">
        <ele>65</ele>
        <time>2020-10-09T11:56:07.000Z</time>
      </trkpt>
      <trkpt lat="43.59019" lon="3.78228">
        <ele>65</ele>
        <time>2020-10-09T11:56:08.000Z</time>
      </trkpt>
      <trkpt lat="43.59016" lon="3.78229">
        <ele>65</ele>
        <time>2020-10-09T11:56:09.000Z</time>
      </trkpt>
      <trkpt lat="43.59014" lon="3.7823">
        <ele>65</ele>
        <time>2020-10-09T11:56:10.000Z</time>
      </trkpt>
      <trkpt lat="43.59012" lon="3.78231">
        <ele>65.062868329827</ele>
        <time>2020-10-09T11:56:11.000Z</time>
      </trkpt>
      <trkpt lat="43.5901" lon="3.78231">
        <ele>65.259331860538</ele>
        <time>2020-10-09T11:56:12.000Z</time>
      </trkpt>
      <trkpt lat="43.59008" lon="3.78231">
        <ele>65.455795391249</ele>
        <time>2020-10-09T11:56:13.000Z</time>
      </trkpt>
      <trkpt lat="43.59006" lon="3.78233">
        <ele>65.652258921959</ele>
        <time>2020-10-09T11:56:14.000Z</time>
      </trkpt>
      <trkpt lat="43.59003" lon="3.78234">
        <ele>65.84872245267</ele>
        <time>2020-10-09T11:56:15.000Z</time>
      </trkpt>
      <trkpt lat="43.59001" lon="3.78234">
        <ele>66.04518598338</ele>
        <time>2020-10-09T11:56:16.000Z</time>
      </trkpt>
      <trkpt lat="43.58999" lon="3.78233">
        <ele>66.241649514091</ele>
        <time>2020-10-09T11:56:17.000Z</time>
      </trkpt>
      <trkpt lat="43.58998" lon="3.78229">
        <ele>66.634576575512</ele>
        <time>2020-10-09T11:56:19.000Z</time>
      </trkpt>
      <trkpt lat="43.58997" lon="3.78225">
        <ele>67.01422699187</ele>
        <time>2020-10-09T11:56:21.000Z</time>
      </trkpt>
      <trkpt lat="43.58997" lon="3.78222">
        <ele>67.11585300813</ele>
        <time>2020-10-09T11:56:22.000Z</time>
      </trkpt>
      <trkpt lat="43.58996" lon="3.78219">
        <ele>67.21747902439</ele>
        <time>2020-10-09T11:56:23.000Z</time>
      </trkpt>
      <trkpt lat="43.58995" lon="3.78216">
        <ele>67.31910504065</ele>
        <time>2020-10-09T11:56:24.000Z</time>
      </trkpt>
      <trkpt lat="43.58994" lon="3.78213">
        <ele>67.420731056911</ele>
        <time>2020-10-09T11:56:25.000Z</time>
      </trkpt>
      <trkpt lat="43.58992" lon="3.78209">
        <ele>67.623983089431</ele>
        <time>2020-10-09T11:56:27.000Z</time>
      </trkpt>
      <trkpt lat="43.5899" lon="3.78208">
        <ele>67.725609105691</ele>
        <time>2020-10-09T11:56:28.000Z</time>
      </trkpt>
      <trkpt lat="43.58988" lon="3.78206">
        <ele>67.827235121951</ele>
        <time>2020-10-09T11:56:29.000Z</time>
      </trkpt>
      <trkpt lat="43.58986" lon="3.78204">
        <ele>67.928861138211</ele>
        <time>2020-10-09T11:56:30.000Z</time>
      </trkpt>
      <trkpt lat="43.58985" lon="3.78201">
        <ele>68</ele>
        <time>2020-10-09T11:56:31.000Z</time>
      </trkpt>
      <trkpt lat="43.58983" lon="3.78198">
        <ele>68</ele>
        <time>2020-10-09T11:56:32.000Z</time>
      </trkpt>
      <trkpt lat="43.5898" lon="3.78195">
        <ele>68</ele>
        <time>2020-10-09T11:56:33.000Z</time>
      </trkpt>
      <trkpt lat="43.58978" lon="3.78193">
        <ele>68</ele>
        <time>2020-10-09T11:56:34.000Z</time>
      </trkpt>
      <trkpt lat="43.58974" lon="3.78191">
        <ele>68</ele>
        <time>2020-10-09T11:56:35.000Z</time>
      </trkpt>
      <trkpt lat="43.58971" lon="3.78188">
        <ele>68</ele>
        <time>2020-10-09T11:56:36.000Z</time>
      </trkpt>
      <trkpt lat="43.58968" lon="3.78184">
        <ele>68</ele>
        <time>2020-10-09T11:56:37.000Z</time>
      </trkpt>
      <trkpt lat="43.58965" lon="3.7818">
        <ele>68</ele>
        <time>2020-10-09T11:56:38.000Z</time>
      </trkpt>
      <trkpt lat="43.58963" lon="3.78177">
        <ele>68</ele>
        <time>2020-10-09T11:56:39.000Z</time>
      </trkpt>
      <trkpt lat="43.58959" lon="3.78175">
        <ele>68</ele>
        <time>2020-10-09T11:56:40.000Z</time>
      </trkpt>
      <trkpt lat="43.58955" lon="3.78175">
        <ele>67.968</ele>
        <time>2020-10-09T11:56:41.000Z</time>
      </trkpt>
      <trkpt lat="43.5895" lon="3.78177">
        <ele>67.868</ele>
        <time>2020-10-09T11:56:42.000Z</time>
      </trkpt>
      <trkpt lat="43.58945" lon="3.78179">
        <ele>67.768</ele>
        <time>2020-10-09T11:56:43.000Z</time>
      </trkpt>
      <trkpt lat="43.58941" lon="3.78181">
        <ele>67.668</ele>
        <time>2020-10-09T11:56:44.000Z</time>
      </trkpt>
      <trkpt lat="43.58937" lon="3.78182">
        <ele>67.568</ele>
        <time>2020-10-09T11:56:45.000Z</time>
      </trkpt>
      <trkpt lat="43.58932" lon="3.78183">
        <ele>67.468</ele>
        <time>2020-10-09T11:56:46.000Z</time>
      </trkpt>
      <trkpt lat="43.58927" lon="3.78185">
        <ele>67.368</ele>
        <time>2020-10-09T11:56:47.000Z</time>
      </trkpt>
      <trkpt lat="43.58922" lon="3.78187">
        <ele>67.268</ele>
        <time>2020-10-09T11:56:48.000Z</time>
      </trkpt>
      <trkpt lat="43.58917" lon="3.78189">
        <ele>67.168</ele>
        <time>2020-10-09T11:56:49.000Z</time>
      </trkpt>
      <trkpt lat="43.58912" lon="3.7819">
        <ele>67.068</ele>
        <time>2020-10-09T11:56:50.000Z</time>
      </trkpt>
      <trkpt lat="43.58907" lon="3.78189">
        <ele>67</ele>
        <time>2020-10-09T11:56:51.000Z</time>
      </trkpt>
      <trkpt lat="43.58902" lon="3.78186">
        <ele>67</ele>
        <time>2020-10-09T11:56:52.000Z</time>
      </trkpt>
      <trkpt lat="43.58898" lon="3.78183">
        <ele>67</ele>
        <time>2020-10-09T11:56:53.000Z</time>
      </trkpt>
      <trkpt lat="43.58893" lon="3.78183">
        <ele>67</ele>
        <time>2020-10-09T11:56:54.000Z</time>
      </trkpt>
      <trkpt lat="43.58888" lon="3.78186">
        <ele>67</ele>
        <time>2020-10-09T11:56:55.000Z</time>
      </trkpt>
      <trkpt lat="43.58884" lon="3.7819">
        <ele>67</ele>
        <time>2020-10-09T11:56:56.000Z</time>
      </trkpt>
      <trkpt lat="43.58879" lon="3.78193">
        <ele>67</ele>
        <time>2020-10-09T11:56:57.000Z</time>
      </trkpt>
      <trkpt lat="43.58874" lon="3.78192">
        <ele>67</ele>
        <time>2020-10-09T11:56:58.000Z</time>
      </trkpt>
      <trkpt lat="43.58868" lon="3.78191">
        <ele>67</ele>
        <time>2020-10-09T11:56:59.000Z</time>
      </trkpt>
      <trkpt lat="43.58862" lon="3.78189">
        <ele>67</ele>
        <time>2020-10-09T11:57:00.000Z</time>
      </trkpt>
      <trkpt lat="43.58857" lon="3.78189">
        <ele>66.968</ele>
        <time>2020-10-09T11:57:01.000Z</time>
      </trkpt>
      <trkpt lat="43.58851" lon="3.78189">
        <ele>66.868</ele>
        <time>2020-10-09T11:57:02.000Z</time>
      </trkpt>
      <trkpt lat="43.58845" lon="3.78189">
        <ele>66.768</ele>
        <time>2020-10-09T11:57:03.000Z</time>
      </trkpt>
      <trkpt lat="43.5884" lon="3.78188">
        <ele>66.668</ele>
        <time>2020-10-09T11:57:04.000Z</time>
      </trkpt>
      <trkpt lat="43.58835" lon="3.78189">
        <ele>66.568</ele>
        <time>2020-10-09T11:57:05.000Z</time>
      </trkpt>
      <trkpt lat="43.5883" lon="3.7819">
        <ele>66.468</ele>
        <time>2020-10-09T11:57:06.000Z</time>
      </trkpt>
      <trkpt lat="43.58824" lon="3.78193">
        <ele>66.368</ele>
        <time>2020-10-09T11:57:07.000Z</time>
      </trkpt>
      <trkpt lat="43.58818" lon="3.78196">
        <ele>66.268</ele>
        <time>2020-10-09T11:57:08.000Z</time>
      </trkpt>
      <trkpt lat="43.58813" lon="3.78199">
        <ele>66.168</ele>
        <time>2020-10-09T11:57:09.000Z</time>
      </trkpt>
      <trkpt lat="43.58808" lon="3.782">
        <ele>66.068</ele>
        <time>2020-10-09T11:57:10.000Z</time>
      </trkpt>
      <trkpt lat="43.58802" lon="3.78202">
        <ele>66</ele>
        <time>2020-10-09T11:57:11.000Z</time>
      </trkpt>
      <trkpt lat="43.58796" lon="3.78206">
        <ele>66</ele>
        <time>2020-10-09T11:57:12.000Z</time>
      </trkpt>
      <trkpt lat="43.5879" lon="3.78209">
        <ele>66</ele>
        <time>2020-10-09T11:57:13.000Z</time>
      </trkpt>
      <trkpt lat="43.58784" lon="3.7821">
        <ele>66</ele>
        <time>2020-10-09T11:57:14.000Z</time>
      </trkpt>
      <trkpt lat="43.58779" lon="3.78208">
        <ele>66</ele>
        <time>2020-10-09T11:57:15.000Z</time>
      </trkpt>
      <trkpt lat="43.58774" lon="3.78205">
        <ele>66</ele>
        <time>2020-10-09T11:57:16.000Z</time>
      </trkpt>
      <trkpt lat="43.58768" lon="3.78203">
        <ele>66</ele>
        <time>2020-10-09T11:57:17.000Z</time>
      </trkpt>
      <trkpt lat="43.58763" lon="3.78203">
        <ele>66</ele>
        <time>2020-10-09T11:57:18.000Z</time>
      </trkpt>
      <trkpt lat="43.58758" lon="3.78204">
        <ele>66</ele>
        <time>2020-10-09T11:57:19.000Z</time>
      </trkpt>
      <trkpt lat="43.58754" lon="3.78204">
        <ele>66</ele>
        <time>2020-10-09T11:57:20.000Z</time>
      </trkpt>
      <trkpt lat="43.5875" lon="3.78205">
        <ele>65.985744023295</ele>
        <time>2020-10-09T11:57:21.000Z</time>
      </trkpt>
      <trkpt lat="43.58745" lon="3.78206">
        <ele>65.883910963038</ele>
        <time>2020-10-09T11:57:22.000Z</time>
      </trkpt>
      <trkpt lat="43.58742" lon="3.78207">
        <ele>65.78207790278</ele>
        <time>2020-10-09T11:57:23.000Z</time>
      </trkpt>
      <trkpt lat="43.58738" lon="3.78208">
        <ele>65.680244842522</ele>
        <time>2020-10-09T11:57:24.000Z</time>
      </trkpt>
      <trkpt lat="43.58735" lon="3.78211">
        <ele>65.578411782264</ele>
        <time>2020-10-09T11:57:25.000Z</time>
      </trkpt>
      <trkpt lat="43.58731" lon="3.78213">
        <ele>65.476578722006</ele>
        <time>2020-10-09T11:57:26.000Z</time>
      </trkpt>
      <trkpt lat="43.58728" lon="3.78215">
        <ele>65.374745661749</ele>
        <time>2020-10-09T11:57:27.000Z</time>
      </trkpt>
      <trkpt lat="43.58723" lon="3.78215">
        <ele>65.272912601491</ele>
        <time>2020-10-09T11:57:28.000Z</time>
      </trkpt>
      <trkpt lat="43.58718" lon="3.78214">
        <ele>65.171079541233</ele>
        <time>2020-10-09T11:57:29.000Z</time>
      </trkpt>
      <trkpt lat="43.58713" lon="3.78214">
        <ele>65.069246480975</ele>
        <time>2020-10-09T11:57:30.000Z</time>
      </trkpt>
      <trkpt lat="43.58708" lon="3.78215">
        <ele>64.936</ele>
        <time>2020-10-09T11:57:31.000Z</time>
      </trkpt>
      <trkpt lat="43.58702" lon="3.78216">
        <ele>64.736</ele>
        <time>2020-10-09T11:57:32.000Z</time>
      </trkpt>
      <trkpt lat="43.58697" lon="3.78217">
        <ele>64.536</ele>
        <time>2020-10-09T11:57:33.000Z</time>
      </trkpt>
      <trkpt lat="43.58686" lon="3.78215">
        <ele>64.136</ele>
        <time>2020-10-09T11:57:35.000Z</time>
      </trkpt>
      <trkpt lat="43.58676" lon="3.78221">
        <ele>63.736</ele>
        <time>2020-10-09T11:57:37.000Z</time>
      </trkpt>
      <trkpt lat="43.58674" lon="3.78227">
        <ele>63.536</ele>
        <time>2020-10-09T11:57:38.000Z</time>
      </trkpt>
      <trkpt lat="43.58672" lon="3.78234">
        <ele>63.336</ele>
        <time>2020-10-09T11:57:39.000Z</time>
      </trkpt>
      <trkpt lat="43.58665" lon="3.78249">
        <ele>62.936</ele>
        <time>2020-10-09T11:57:41.000Z</time>
      </trkpt>
      <trkpt lat="43.58659" lon="3.78255">
        <ele>62.736</ele>
        <time>2020-10-09T11:57:42.000Z</time>
      </trkpt>
      <trkpt lat="43.58655" lon="3.78262">
        <ele>62.536</ele>
        <time>2020-10-09T11:57:43.000Z</time>
      </trkpt>
      <trkpt lat="43.58652" lon="3.78269">
        <ele>62.336</ele>
        <time>2020-10-09T11:57:44.000Z</time>
      </trkpt>
      <trkpt lat="43.5865" lon="3.78276">
        <ele>62.136</ele>
        <time>2020-10-09T11:57:45.000Z</time>
      </trkpt>
      <trkpt lat="43.58648" lon="3.78283">
        <ele>61.936</ele>
        <time>2020-10-09T11:57:46.000Z</time>
      </trkpt>
      <trkpt lat="43.58644" lon="3.78287">
        <ele>61.736</ele>
        <time>2020-10-09T11:57:47.000Z</time>
      </trkpt>
      <trkpt lat="43.58639" lon="3.78288">
        <ele>61.536</ele>
        <time>2020-10-09T11:57:48.000Z</time>
      </trkpt>
      <trkpt lat="43.58634" lon="3.78286">
        <ele>61.336</ele>
        <time>2020-10-09T11:57:49.000Z</time>
      </trkpt>
      <trkpt lat="43.5863" lon="3.78283">
        <ele>61.136</ele>
        <time>2020-10-09T11:57:50.000Z</time>
      </trkpt>
      <trkpt lat="43.58626" lon="3.78278">
        <ele>60.875607347128</ele>
        <time>2020-10-09T11:57:51.000Z</time>
      </trkpt>
      <trkpt lat="43.58622" lon="3.78274">
        <ele>60.486880306902</ele>
        <time>2020-10-09T11:57:52.000Z</time>
      </trkpt>
      <trkpt lat="43.58619" lon="3.78269">
        <ele>60.098153266676</ele>
        <time>2020-10-09T11:57:53.000Z</time>
      </trkpt>
      <trkpt lat="43.58615" lon="3.78266">
        <ele>59.709426226449</ele>
        <time>2020-10-09T11:57:54.000Z</time>
      </trkpt>
      <trkpt lat="43.5861" lon="3.78264">
        <ele>59.320699186223</ele>
        <time>2020-10-09T11:57:55.000Z</time>
      </trkpt>
      <trkpt lat="43.58606" lon="3.78262">
        <ele>58.931972145997</ele>
        <time>2020-10-09T11:57:56.000Z</time>
      </trkpt>
      <trkpt lat="43.58602" lon="3.78259">
        <ele>58.543245105771</ele>
        <time>2020-10-09T11:57:57.000Z</time>
      </trkpt>
      <trkpt lat="43.58597" lon="3.78255">
        <ele>58.154518065545</ele>
        <time>2020-10-09T11:57:58.000Z</time>
      </trkpt>
      <trkpt lat="43.58592" lon="3.78253">
        <ele>57.765791025319</ele>
        <time>2020-10-09T11:57:59.000Z</time>
      </trkpt>
      <trkpt lat="43.58587" lon="3.78253">
        <ele>57.377063985093</ele>
        <time>2020-10-09T11:58:00.000Z</time>
      </trkpt>
      <trkpt lat="43.58583" lon="3.78254">
        <ele>56.987640292436</ele>
        <time>2020-10-09T11:58:01.000Z</time>
      </trkpt>
      <trkpt lat="43.58579" lon="3.78256">
        <ele>56.575693981234</ele>
        <time>2020-10-09T11:58:02.000Z</time>
      </trkpt>
      <trkpt lat="43.58576" lon="3.78258">
        <ele>56.163747670032</ele>
        <time>2020-10-09T11:58:03.000Z</time>
      </trkpt>
      <trkpt lat="43.58572" lon="3.7826">
        <ele>55.75180135883</ele>
        <time>2020-10-09T11:58:04.000Z</time>
      </trkpt>
      <trkpt lat="43.58568" lon="3.78263">
        <ele>55.339855047628</ele>
        <time>2020-10-09T11:58:05.000Z</time>
      </trkpt>
      <trkpt lat="43.58563" lon="3.78266">
        <ele>54.927908736426</ele>
        <time>2020-10-09T11:58:06.000Z</time>
      </trkpt>
      <trkpt lat="43.58558" lon="3.78269">
        <ele>54.515962425223</ele>
        <time>2020-10-09T11:58:07.000Z</time>
      </trkpt>
      <trkpt lat="43.58552" lon="3.78272">
        <ele>54.104016114021</ele>
        <time>2020-10-09T11:58:08.000Z</time>
      </trkpt>
      <trkpt lat="43.58547" lon="3.78274">
        <ele>53.692069802819</ele>
        <time>2020-10-09T11:58:09.000Z</time>
      </trkpt>
      <trkpt lat="43.58542" lon="3.78273">
        <ele>53.280123491617</ele>
        <time>2020-10-09T11:58:10.000Z</time>
      </trkpt>
      <trkpt lat="43.58537" lon="3.78273">
        <ele>52.904191677961</ele>
        <time>2020-10-09T11:58:11.000Z</time>
      </trkpt>
      <trkpt lat="43.58532" lon="3.78273">
        <ele>52.604790671591</ele>
        <time>2020-10-09T11:58:12.000Z</time>
      </trkpt>
      <trkpt lat="43.58526" lon="3.78273">
        <ele>52.30538966522</ele>
        <time>2020-10-09T11:58:13.000Z</time>
      </trkpt>
      <trkpt lat="43.58521" lon="3.7827">
        <ele>52.00598865885</ele>
        <time>2020-10-09T11:58:14.000Z</time>
      </trkpt>
      <trkpt lat="43.58517" lon="3.78267">
        <ele>51.706587652479</ele>
        <time>2020-10-09T11:58:15.000Z</time>
      </trkpt>
      <trkpt lat="43.58513" lon="3.78264">
        <ele>51.407186646108</ele>
        <time>2020-10-09T11:58:16.000Z</time>
      </trkpt>
      <trkpt lat="43.58511" lon="3.78258">
        <ele>51.107785639738</ele>
        <time>2020-10-09T11:58:17.000Z</time>
      </trkpt>
      <trkpt lat="43.5851" lon="3.78252">
        <ele>50.808384633367</ele>
        <time>2020-10-09T11:58:18.000Z</time>
      </trkpt>
      <trkpt lat="43.58508" lon="3.78248">
        <ele>50.508983626997</ele>
        <time>2020-10-09T11:58:19.000Z</time>
      </trkpt>
      <trkpt lat="43.58505" lon="3.78245">
        <ele>50.209582620626</ele>
        <time>2020-10-09T11:58:20.000Z</time>
      </trkpt>
      <trkpt lat="43.58502" lon="3.78242">
        <ele>49.909821505296</ele>
        <time>2020-10-09T11:58:21.000Z</time>
      </trkpt>
      <trkpt lat="43.58499" lon="3.78238">
        <ele>49.609220110121</ele>
        <time>2020-10-09T11:58:22.000Z</time>
      </trkpt>
      <trkpt lat="43.58497" lon="3.78234">
        <ele>49.308618714946</ele>
        <time>2020-10-09T11:58:23.000Z</time>
      </trkpt>
      <trkpt lat="43.58494" lon="3.78229">
        <ele>49.008017319771</ele>
        <time>2020-10-09T11:58:24.000Z</time>
      </trkpt>
      <trkpt lat="43.58492" lon="3.78224">
        <ele>48.707415924595</ele>
        <time>2020-10-09T11:58:25.000Z</time>
      </trkpt>
      <trkpt lat="43.5849" lon="3.78219">
        <ele>48.40681452942</ele>
        <time>2020-10-09T11:58:26.000Z</time>
      </trkpt>
      <trkpt lat="43.58489" lon="3.78213">
        <ele>48.106213134245</ele>
        <time>2020-10-09T11:58:27.000Z</time>
      </trkpt>
      <trkpt lat="43.58489" lon="3.78206">
        <ele>47.80561173907</ele>
        <time>2020-10-09T11:58:28.000Z</time>
      </trkpt>
      <trkpt lat="43.58489" lon="3.78199">
        <ele>47.505010343894</ele>
        <time>2020-10-09T11:58:29.000Z</time>
      </trkpt>
      <trkpt lat="43.58489" lon="3.78193">
        <ele>47.204408948719</ele>
        <time>2020-10-09T11:58:30.000Z</time>
      </trkpt>
      <trkpt lat="43.58489" lon="3.78186">
        <ele>46.936063915625</ele>
        <time>2020-10-09T11:58:31.000Z</time>
      </trkpt>
      <trkpt lat="43.58489" lon="3.7818">
        <ele>46.736263651952</ele>
        <time>2020-10-09T11:58:32.000Z</time>
      </trkpt>
      <trkpt lat="43.58489" lon="3.78174">
        <ele>46.53646338828</ele>
        <time>2020-10-09T11:58:33.000Z</time>
      </trkpt>
      <trkpt lat="43.58489" lon="3.78168">
        <ele>46.336663124608</ele>
        <time>2020-10-09T11:58:34.000Z</time>
      </trkpt>
      <trkpt lat="43.58489" lon="3.78162">
        <ele>46.136862860935</ele>
        <time>2020-10-09T11:58:35.000Z</time>
      </trkpt>
      <trkpt lat="43.58489" lon="3.78156">
        <ele>45.937062597263</ele>
        <time>2020-10-09T11:58:36.000Z</time>
      </trkpt>
      <trkpt lat="43.58489" lon="3.78149">
        <ele>45.73726233359</ele>
        <time>2020-10-09T11:58:37.000Z</time>
      </trkpt>
      <trkpt lat="43.58488" lon="3.78143">
        <ele>45.537462069918</ele>
        <time>2020-10-09T11:58:38.000Z</time>
      </trkpt>
      <trkpt lat="43.58488" lon="3.78137">
        <ele>45.337661806245</ele>
        <time>2020-10-09T11:58:39.000Z</time>
      </trkpt>
      <trkpt lat="43.58488" lon="3.7813">
        <ele>45.137861542573</ele>
        <time>2020-10-09T11:58:40.000Z</time>
      </trkpt>
      <trkpt lat="43.58488" lon="3.78123">
        <ele>44.937937317177</ele>
        <time>2020-10-09T11:58:41.000Z</time>
      </trkpt>
      <trkpt lat="43.58488" lon="3.78117">
        <ele>44.737737181105</ele>
        <time>2020-10-09T11:58:42.000Z</time>
      </trkpt>
      <trkpt lat="43.58488" lon="3.7811">
        <ele>44.537537045033</ele>
        <time>2020-10-09T11:58:43.000Z</time>
      </trkpt>
      <trkpt lat="43.58488" lon="3.78103">
        <ele>44.337336908961</ele>
        <time>2020-10-09T11:58:44.000Z</time>
      </trkpt>
      <trkpt lat="43.58488" lon="3.78097">
        <ele>44.137136772889</ele>
        <time>2020-10-09T11:58:45.000Z</time>
      </trkpt>
      <trkpt lat="43.58488" lon="3.7809">
        <ele>43.936936636817</ele>
        <time>2020-10-09T11:58:46.000Z</time>
      </trkpt>
      <trkpt lat="43.58488" lon="3.78082">
        <ele>43.736736500745</ele>
        <time>2020-10-09T11:58:47.000Z</time>
      </trkpt>
      <trkpt lat="43.58488" lon="3.78075">
        <ele>43.536536364673</ele>
        <time>2020-10-09T11:58:48.000Z</time>
      </trkpt>
      <trkpt lat="43.58488" lon="3.78068">
        <ele>43.336336228601</ele>
        <time>2020-10-09T11:58:49.000Z</time>
      </trkpt>
      <trkpt lat="43.58488" lon="3.78061">
        <ele>43.136136092529</ele>
        <time>2020-10-09T11:58:50.000Z</time>
      </trkpt>
      <trkpt lat="43.58488" lon="3.78054">
        <ele>42.968</ele>
        <time>2020-10-09T11:58:51.000Z</time>
      </trkpt>
      <trkpt lat="43.58488" lon="3.78048">
        <ele>42.868</ele>
        <time>2020-10-09T11:58:52.000Z</time>
      </trkpt>
      <trkpt lat="43.58488" lon="3.78041">
        <ele>42.768</ele>
        <time>2020-10-09T11:58:53.000Z</time>
      </trkpt>
      <trkpt lat="43.58488" lon="3.78034">
        <ele>42.668</ele>
        <time>2020-10-09T11:58:54.000Z</time>
      </trkpt>
      <trkpt lat="43.58488" lon="3.78028">
        <ele>42.568</ele>
        <time>2020-10-09T11:58:55.000Z</time>
      </trkpt>
      <trkpt lat="43.58488" lon="3.78021">
        <ele>42.468</ele>
        <time>2020-10-09T11:58:56.000Z</time>
      </trkpt>
      <trkpt lat="43.58489" lon="3.78014">
        <ele>42.368</ele>
        <time>2020-10-09T11:58:57.000Z</time>
      </trkpt>
      <trkpt lat="43.5849" lon="3.78007">
        <ele>42.268</ele>
        <time>2020-10-09T11:58:58.000Z</time>
      </trkpt>
      <trkpt lat="43.5849" lon="3.78">
        <ele>42.168</ele>
        <time>2020-10-09T11:58:59.000Z</time>
      </trkpt>
      <trkpt lat="43.58491" lon="3.77993">
        <ele>42.068</ele>
        <time>2020-10-09T11:59:00.000Z</time>
      </trkpt>
      <trkpt lat="43.58492" lon="3.77986">
        <ele>41.968031957812</ele>
        <time>2020-10-09T11:59:01.000Z</time>
      </trkpt>
      <trkpt lat="43.58493" lon="3.77978">
        <ele>41.868131825976</ele>
        <time>2020-10-09T11:59:02.000Z</time>
      </trkpt>
      <trkpt lat="43.58494" lon="3.77971">
        <ele>41.76823169414</ele>
        <time>2020-10-09T11:59:03.000Z</time>
      </trkpt>
      <trkpt lat="43.58495" lon="3.77964">
        <ele>41.668331562304</ele>
        <time>2020-10-09T11:59:04.000Z</time>
      </trkpt>
      <trkpt lat="43.58495" lon="3.77957">
        <ele>41.568431430468</ele>
        <time>2020-10-09T11:59:05.000Z</time>
      </trkpt>
      <trkpt lat="43.58496" lon="3.7795">
        <ele>41.468531298631</ele>
        <time>2020-10-09T11:59:06.000Z</time>
      </trkpt>
      <trkpt lat="43.58497" lon="3.77943">
        <ele>41.368631166795</ele>
        <time>2020-10-09T11:59:07.000Z</time>
      </trkpt>
      <trkpt lat="43.58499" lon="3.77936">
        <ele>41.268731034959</ele>
        <time>2020-10-09T11:59:08.000Z</time>
      </trkpt>
      <trkpt lat="43.585" lon="3.7793">
        <ele>41.168830903123</ele>
        <time>2020-10-09T11:59:09.000Z</time>
      </trkpt>
      <trkpt lat="43.58501" lon="3.77924">
        <ele>41.068930771287</ele>
        <time>2020-10-09T11:59:10.000Z</time>
      </trkpt>
      <trkpt lat="43.58502" lon="3.77918">
        <ele>41</ele>
        <time>2020-10-09T11:59:11.000Z</time>
      </trkpt>
      <trkpt lat="43.58503" lon="3.77913">
        <ele>41</ele>
        <time>2020-10-09T11:59:12.000Z</time>
      </trkpt>
      <trkpt lat="43.58504" lon="3.77908">
        <ele>41</ele>
        <time>2020-10-09T11:59:13.000Z</time>
      </trkpt>
      <trkpt lat="43.58505" lon="3.77903">
        <ele>41</ele>
        <time>2020-10-09T11:59:14.000Z</time>
      </trkpt>
      <trkpt lat="43.58506" lon="3.77897">
        <ele>41</ele>
        <time>2020-10-09T11:59:15.000Z</time>
      </trkpt>
      <trkpt lat="43.58508" lon="3.77891">
        <ele>41</ele>
        <time>2020-10-09T11:59:16.000Z</time>
      </trkpt>
      <trkpt lat="43.5851" lon="3.77885">
        <ele>41</ele>
        <time>2020-10-09T11:59:17.000Z</time>
      </trkpt>
      <trkpt lat="43.58511" lon="3.77879">
        <ele>41</ele>
        <time>2020-10-09T11:59:18.000Z</time>
      </trkpt>
      <trkpt lat="43.58513" lon="3.77874">
        <ele>41</ele>
        <time>2020-10-09T11:59:19.000Z</time>
      </trkpt>
      <trkpt lat="43.58514" lon="3.77868">
        <ele>41</ele>
        <time>2020-10-09T11:59:20.000Z</time>
      </trkpt>
      <trkpt lat="43.58516" lon="3.77862">
        <ele>41</ele>
        <time>2020-10-09T11:59:21.000Z</time>
      </trkpt>
      <trkpt lat="43.58518" lon="3.77856">
        <ele>41</ele>
        <time>2020-10-09T11:59:22.000Z</time>
      </trkpt>
      <trkpt lat="43.58521" lon="3.7785">
        <ele>41</ele>
        <time>2020-10-09T11:59:23.000Z</time>
      </trkpt>
      <trkpt lat="43.58523" lon="3.77844">
        <ele>41</ele>
        <time>2020-10-09T11:59:24.000Z</time>
      </trkpt>
      <trkpt lat="43.58525" lon="3.77838">
        <ele>41</ele>
        <time>2020-10-09T11:59:25.000Z</time>
      </trkpt>
      <trkpt lat="43.58527" lon="3.77832">
        <ele>41</ele>
        <time>2020-10-09T11:59:26.000Z</time>
      </trkpt>
      <trkpt lat="43.5853" lon="3.77826">
        <ele>41</ele>
        <time>2020-10-09T11:59:27.000Z</time>
      </trkpt>
      <trkpt lat="43.58533" lon="3.7782">
        <ele>41</ele>
        <time>2020-10-09T11:59:28.000Z</time>
      </trkpt>
      <trkpt lat="43.58535" lon="3.77813">
        <ele>41</ele>
        <time>2020-10-09T11:59:29.000Z</time>
      </trkpt>
      <trkpt lat="43.58537" lon="3.77807">
        <ele>41</ele>
        <time>2020-10-09T11:59:30.000Z</time>
      </trkpt>
      <trkpt lat="43.5854" lon="3.77801">
        <ele>41</ele>
        <time>2020-10-09T11:59:31.000Z</time>
      </trkpt>
      <trkpt lat="43.58542" lon="3.77795">
        <ele>41</ele>
        <time>2020-10-09T11:59:32.000Z</time>
      </trkpt>
      <trkpt lat="43.58545" lon="3.77789">
        <ele>41</ele>
        <time>2020-10-09T11:59:33.000Z</time>
      </trkpt>
      <trkpt lat="43.58547" lon="3.77783">
        <ele>41</ele>
        <time>2020-10-09T11:59:34.000Z</time>
      </trkpt>
      <trkpt lat="43.5855" lon="3.77777">
        <ele>41</ele>
        <time>2020-10-09T11:59:35.000Z</time>
      </trkpt>
      <trkpt lat="43.58553" lon="3.77772">
        <ele>41</ele>
        <time>2020-10-09T11:59:36.000Z</time>
      </trkpt>
      <trkpt lat="43.58555" lon="3.77766">
        <ele>41</ele>
        <time>2020-10-09T11:59:37.000Z</time>
      </trkpt>
      <trkpt lat="43.58558" lon="3.77761">
        <ele>41</ele>
        <time>2020-10-09T11:59:38.000Z</time>
      </trkpt>
      <trkpt lat="43.58561" lon="3.77755">
        <ele>41</ele>
        <time>2020-10-09T11:59:39.000Z</time>
      </trkpt>
      <trkpt lat="43.58564" lon="3.7775">
        <ele>41</ele>
        <time>2020-10-09T11:59:40.000Z</time>
      </trkpt>
      <trkpt lat="43.58567" lon="3.77744">
        <ele>41</ele>
        <time>2020-10-09T11:59:41.000Z</time>
      </trkpt>
      <trkpt lat="43.5857" lon="3.77739">
        <ele>41</ele>
        <time>2020-10-09T11:59:42.000Z</time>
      </trkpt>
      <trkpt lat="43.58572" lon="3.77733">
        <ele>41</ele>
        <time>2020-10-09T11:59:43.000Z</time>
      </trkpt>
      <trkpt lat="43.58575" lon="3.77728">
        <ele>41</ele>
        <time>2020-10-09T11:59:44.000Z</time>
      </trkpt>
      <trkpt lat="43.58578" lon="3.77723">
        <ele>41</ele>
        <time>2020-10-09T11:59:45.000Z</time>
      </trkpt>
      <trkpt lat="43.58581" lon="3.77717">
        <ele>41</ele>
        <time>2020-10-09T11:59:46.000Z</time>
      </trkpt>
      <trkpt lat="43.58584" lon="3.77712">
        <ele>41</ele>
        <time>2020-10-09T11:59:47.000Z</time>
      </trkpt>
      <trkpt lat="43.58587" lon="3.77707">
        <ele>41</ele>
        <time>2020-10-09T11:59:48.000Z</time>
      </trkpt>
      <trkpt lat="43.5859" lon="3.77702">
        <ele>41</ele>
        <time>2020-10-09T11:59:49.000Z</time>
      </trkpt>
      <trkpt lat="43.58592" lon="3.77696">
        <ele>41</ele>
        <time>2020-10-09T11:59:50.000Z</time>
      </trkpt>
      <trkpt lat="43.58595" lon="3.77691">
        <ele>41.031403326743</ele>
        <time>2020-10-09T11:59:51.000Z</time>
      </trkpt>
      <trkpt lat="43.58598" lon="3.77686">
        <ele>41.129538722814</ele>
        <time>2020-10-09T11:59:52.000Z</time>
      </trkpt>
      <trkpt lat="43.586" lon="3.7768">
        <ele>41.227674118886</ele>
        <time>2020-10-09T11:59:53.000Z</time>
      </trkpt>
      <trkpt lat="43.58603" lon="3.77675">
        <ele>41.325809514957</ele>
        <time>2020-10-09T11:59:54.000Z</time>
      </trkpt>
      <trkpt lat="43.58606" lon="3.7767">
        <ele>41.423944911028</ele>
        <time>2020-10-09T11:59:55.000Z</time>
      </trkpt>
      <trkpt lat="43.58608" lon="3.77665">
        <ele>41.522080307099</ele>
        <time>2020-10-09T11:59:56.000Z</time>
      </trkpt>
      <trkpt lat="43.58611" lon="3.7766">
        <ele>41.620215703171</ele>
        <time>2020-10-09T11:59:57.000Z</time>
      </trkpt>
      <trkpt lat="43.58614" lon="3.77655">
        <ele>41.718351099242</ele>
        <time>2020-10-09T11:59:58.000Z</time>
      </trkpt>
      <trkpt lat="43.58616" lon="3.7765">
        <ele>41.816486495313</ele>
        <time>2020-10-09T11:59:59.000Z</time>
      </trkpt>
      <trkpt lat="43.58619" lon="3.77645">
        <ele>41.914621891385</ele>
        <time>2020-10-09T12:00:00.000Z</time>
      </trkpt>
      <trkpt lat="43.58621" lon="3.7764">
        <ele>42</ele>
        <time>2020-10-09T12:00:01.000Z</time>
      </trkpt>
      <trkpt lat="43.58624" lon="3.77635">
        <ele>42</ele>
        <time>2020-10-09T12:00:02.000Z</time>
      </trkpt>
      <trkpt lat="43.58627" lon="3.7763">
        <ele>42</ele>
        <time>2020-10-09T12:00:03.000Z</time>
      </trkpt>
      <trkpt lat="43.58629" lon="3.77625">
        <ele>42</ele>
        <time>2020-10-09T12:00:04.000Z</time>
      </trkpt>
      <trkpt lat="43.58632" lon="3.7762">
        <ele>42</ele>
        <time>2020-10-09T12:00:05.000Z</time>
      </trkpt>
      <trkpt lat="43.58634" lon="3.77615">
        <ele>42</ele>
        <time>2020-10-09T12:00:06.000Z</time>
      </trkpt>
      <trkpt lat="43.58637" lon="3.7761">
        <ele>42</ele>
        <time>2020-10-09T12:00:07.000Z</time>
      </trkpt>
      <trkpt lat="43.58639" lon="3.77605">
        <ele>42</ele>
        <time>2020-10-09T12:00:08.000Z</time>
      </trkpt>
      <trkpt lat="43.58642" lon="3.776">
        <ele>42</ele>
        <time>2020-10-09T12:00:09.000Z</time>
      </trkpt>
      <trkpt lat="43.58645" lon="3.77595">
        <ele>42</ele>
        <time>2020-10-09T12:00:10.000Z</time>
      </trkpt>
      <trkpt lat="43.58647" lon="3.77591">
        <ele>42.031031341411</ele>
        <time>2020-10-09T12:00:11.000Z</time>
      </trkpt>
      <trkpt lat="43.5865" lon="3.77586">
        <ele>42.131131409447</ele>
        <time>2020-10-09T12:00:12.000Z</time>
      </trkpt>
      <trkpt lat="43.58652" lon="3.77581">
        <ele>42.231231477483</ele>
        <time>2020-10-09T12:00:13.000Z</time>
      </trkpt>
      <trkpt lat="43.58655" lon="3.77576">
        <ele>42.331331545519</ele>
        <time>2020-10-09T12:00:14.000Z</time>
      </trkpt>
      <trkpt lat="43.58657" lon="3.77571">
        <ele>42.431431613555</ele>
        <time>2020-10-09T12:00:15.000Z</time>
      </trkpt>
      <trkpt lat="43.58659" lon="3.77566">
        <ele>42.531531681592</ele>
        <time>2020-10-09T12:00:16.000Z</time>
      </trkpt>
      <trkpt lat="43.58662" lon="3.77561">
        <ele>42.631631749628</ele>
        <time>2020-10-09T12:00:17.000Z</time>
      </trkpt>
      <trkpt lat="43.58664" lon="3.77556">
        <ele>42.731731817664</ele>
        <time>2020-10-09T12:00:18.000Z</time>
      </trkpt>
      <trkpt lat="43.58667" lon="3.77551">
        <ele>42.8318318857</ele>
        <time>2020-10-09T12:00:19.000Z</time>
      </trkpt>
      <trkpt lat="43.58669" lon="3.77546">
        <ele>42.931931953735</ele>
        <time>2020-10-09T12:00:20.000Z</time>
      </trkpt>
      <trkpt lat="43.58671" lon="3.77541">
        <ele>43.032</ele>
        <time>2020-10-09T12:00:21.000Z</time>
      </trkpt>
      <trkpt lat="43.58674" lon="3.77535">
        <ele>43.132</ele>
        <time>2020-10-09T12:00:22.000Z</time>
      </trkpt>
      <trkpt lat="43.58676" lon="3.7753">
        <ele>43.232</ele>
        <time>2020-10-09T12:00:23.000Z</time>
      </trkpt>
      <trkpt lat="43.58678" lon="3.77525">
        <ele>43.332</ele>
        <time>2020-10-09T12:00:24.000Z</time>
      </trkpt>
      <trkpt lat="43.5868" lon="3.7752">
        <ele>43.432</ele>
        <time>2020-10-09T12:00:25.000Z</time>
      </trkpt>
      <trkpt lat="43.58682" lon="3.77515">
        <ele>43.532</ele>
        <time>2020-10-09T12:00:26.000Z</time>
      </trkpt>
      <trkpt lat="43.58684" lon="3.7751">
        <ele>43.632</ele>
        <time>2020-10-09T12:00:27.000Z</time>
      </trkpt>
      <trkpt lat="43.58686" lon="3.77505">
        <ele>43.732</ele>
        <time>2020-10-09T12:00:28.000Z</time>
      </trkpt>
      <trkpt lat="43.58689" lon="3.775">
        <ele>43.832</ele>
        <time>2020-10-09T12:00:29.000Z</time>
      </trkpt>
      <trkpt lat="43.58691" lon="3.77495">
        <ele>43.932</ele>
        <time>2020-10-09T12:00:30.000Z</time>
      </trkpt>
      <trkpt lat="43.58693" lon="3.7749">
        <ele>44</ele>
        <time>2020-10-09T12:00:31.000Z</time>
      </trkpt>
      <trkpt lat="43.58694" lon="3.77485">
        <ele>44</ele>
        <time>2020-10-09T12:00:32.000Z</time>
      </trkpt>
      <trkpt lat="43.58695" lon="3.77479">
        <ele>44</ele>
        <time>2020-10-09T12:00:33.000Z</time>
      </trkpt>
      <trkpt lat="43.58697" lon="3.77473">
        <ele>44</ele>
        <time>2020-10-09T12:00:34.000Z</time>
      </trkpt>
      <trkpt lat="43.58699" lon="3.77467">
        <ele>44</ele>
        <time>2020-10-09T12:00:35.000Z</time>
      </trkpt>
      <trkpt lat="43.58701" lon="3.77462">
        <ele>44</ele>
        <time>2020-10-09T12:00:36.000Z</time>
      </trkpt>
      <trkpt lat="43.58703" lon="3.77456">
        <ele>44</ele>
        <time>2020-10-09T12:00:37.000Z</time>
      </trkpt>
      <trkpt lat="43.58705" lon="3.77451">
        <ele>44</ele>
        <time>2020-10-09T12:00:38.000Z</time>
      </trkpt>
      <trkpt lat="43.58707" lon="3.77446">
        <ele>44</ele>
        <time>2020-10-09T12:00:39.000Z</time>
      </trkpt>
      <trkpt lat="43.58708" lon="3.7744">
        <ele>44</ele>
        <time>2020-10-09T12:00:40.000Z</time>
      </trkpt>
      <trkpt lat="43.58709" lon="3.77434">
        <ele>44.023209195331</ele>
        <time>2020-10-09T12:00:41.000Z</time>
      </trkpt>
      <trkpt lat="43.58711" lon="3.77429">
        <ele>44.124117336309</ele>
        <time>2020-10-09T12:00:42.000Z</time>
      </trkpt>
      <trkpt lat="43.58712" lon="3.77423">
        <ele>44.225025477287</ele>
        <time>2020-10-09T12:00:43.000Z</time>
      </trkpt>
      <trkpt lat="43.58714" lon="3.77418">
        <ele>44.325933618266</ele>
        <time>2020-10-09T12:00:44.000Z</time>
      </trkpt>
      <trkpt lat="43.58715" lon="3.77412">
        <ele>44.426841759244</ele>
        <time>2020-10-09T12:00:45.000Z</time>
      </trkpt>
      <trkpt lat="43.58716" lon="3.77406">
        <ele>44.527749900222</ele>
        <time>2020-10-09T12:00:46.000Z</time>
      </trkpt>
      <trkpt lat="43.58718" lon="3.774">
        <ele>44.6286580412</ele>
        <time>2020-10-09T12:00:47.000Z</time>
      </trkpt>
      <trkpt lat="43.58719" lon="3.77395">
        <ele>44.729566182178</ele>
        <time>2020-10-09T12:00:48.000Z</time>
      </trkpt>
      <trkpt lat="43.5872" lon="3.77389">
        <ele>44.830474323157</ele>
        <time>2020-10-09T12:00:49.000Z</time>
      </trkpt>
      <trkpt lat="43.58721" lon="3.77383">
        <ele>44.931382464135</ele>
        <time>2020-10-09T12:00:50.000Z</time>
      </trkpt>
      <trkpt lat="43.58722" lon="3.77378">
        <ele>45</ele>
        <time>2020-10-09T12:00:51.000Z</time>
      </trkpt>
      <trkpt lat="43.58723" lon="3.77372">
        <ele>45</ele>
        <time>2020-10-09T12:00:52.000Z</time>
      </trkpt>
      <trkpt lat="43.58725" lon="3.77367">
        <ele>45</ele>
        <time>2020-10-09T12:00:53.000Z</time>
      </trkpt>
      <trkpt lat="43.58727" lon="3.77361">
        <ele>45</ele>
        <time>2020-10-09T12:00:54.000Z</time>
      </trkpt>
      <trkpt lat="43.58728" lon="3.77356">
        <ele>45</ele>
        <time>2020-10-09T12:00:55.000Z</time>
      </trkpt>
      <trkpt lat="43.58729" lon="3.7735">
        <ele>45</ele>
        <time>2020-10-09T12:00:56.000Z</time>
      </trkpt>
      <trkpt lat="43.5873" lon="3.77344">
        <ele>45</ele>
        <time>2020-10-09T12:00:57.000Z</time>
      </trkpt>
      <trkpt lat="43.58731" lon="3.77338">
        <ele>45</ele>
        <time>2020-10-09T12:00:58.000Z</time>
      </trkpt>
      <trkpt lat="43.58733" lon="3.77332">
        <ele>45</ele>
        <time>2020-10-09T12:00:59.000Z</time>
      </trkpt>
      <trkpt lat="43.58734" lon="3.77326">
        <ele>45</ele>
        <time>2020-10-09T12:01:00.000Z</time>
      </trkpt>
      <trkpt lat="43.58735" lon="3.7732">
        <ele>45.030360549745</ele>
        <time>2020-10-09T12:01:01.000Z</time>
      </trkpt>
      <trkpt lat="43.58737" lon="3.77314">
        <ele>45.125237267696</ele>
        <time>2020-10-09T12:01:02.000Z</time>
      </trkpt>
      <trkpt lat="43.58738" lon="3.77308">
        <ele>45.220113985648</ele>
        <time>2020-10-09T12:01:03.000Z</time>
      </trkpt>
      <trkpt lat="43.58739" lon="3.77302">
        <ele>45.3149907036</ele>
        <time>2020-10-09T12:01:04.000Z</time>
      </trkpt>
      <trkpt lat="43.5874" lon="3.77296">
        <ele>45.409867421551</ele>
        <time>2020-10-09T12:01:05.000Z</time>
      </trkpt>
      <trkpt lat="43.58741" lon="3.7729">
        <ele>45.504744139503</ele>
        <time>2020-10-09T12:01:06.000Z</time>
      </trkpt>
      <trkpt lat="43.58742" lon="3.77284">
        <ele>45.599620857455</ele>
        <time>2020-10-09T12:01:07.000Z</time>
      </trkpt>
      <trkpt lat="43.58744" lon="3.77278">
        <ele>45.694497575407</ele>
        <time>2020-10-09T12:01:08.000Z</time>
      </trkpt>
      <trkpt lat="43.58745" lon="3.77272">
        <ele>45.789374293358</ele>
        <time>2020-10-09T12:01:09.000Z</time>
      </trkpt>
      <trkpt lat="43.58747" lon="3.77267">
        <ele>45.88425101131</ele>
        <time>2020-10-09T12:01:10.000Z</time>
      </trkpt>
      <trkpt lat="43.58748" lon="3.77261">
        <ele>45.979127729262</ele>
        <time>2020-10-09T12:01:11.000Z</time>
      </trkpt>
      <trkpt lat="43.58749" lon="3.77255">
        <ele>46.080082739987</ele>
        <time>2020-10-09T12:01:12.000Z</time>
      </trkpt>
      <trkpt lat="43.5875" lon="3.77249">
        <ele>46.182752077042</ele>
        <time>2020-10-09T12:01:13.000Z</time>
      </trkpt>
      <trkpt lat="43.58752" lon="3.77244">
        <ele>46.285421414097</ele>
        <time>2020-10-09T12:01:14.000Z</time>
      </trkpt>
      <trkpt lat="43.58753" lon="3.77238">
        <ele>46.388090751152</ele>
        <time>2020-10-09T12:01:15.000Z</time>
      </trkpt>
      <trkpt lat="43.58754" lon="3.77232">
        <ele>46.490760088207</ele>
        <time>2020-10-09T12:01:16.000Z</time>
      </trkpt>
      <trkpt lat="43.58756" lon="3.77227">
        <ele>46.593429425262</ele>
        <time>2020-10-09T12:01:17.000Z</time>
      </trkpt>
      <trkpt lat="43.58757" lon="3.77221">
        <ele>46.696098762317</ele>
        <time>2020-10-09T12:01:18.000Z</time>
      </trkpt>
      <trkpt lat="43.58759" lon="3.77215">
        <ele>46.798768099372</ele>
        <time>2020-10-09T12:01:19.000Z</time>
      </trkpt>
      <trkpt lat="43.5876" lon="3.7721">
        <ele>46.901437436427</ele>
        <time>2020-10-09T12:01:20.000Z</time>
      </trkpt>
      <trkpt lat="43.58761" lon="3.77204">
        <ele>47.004106773482</ele>
        <time>2020-10-09T12:01:21.000Z</time>
      </trkpt>
      <trkpt lat="43.58762" lon="3.77198">
        <ele>47.106776110537</ele>
        <time>2020-10-09T12:01:22.000Z</time>
      </trkpt>
      <trkpt lat="43.58763" lon="3.77192">
        <ele>47.209445447592</ele>
        <time>2020-10-09T12:01:23.000Z</time>
      </trkpt>
      <trkpt lat="43.58765" lon="3.77186">
        <ele>47.312114784647</ele>
        <time>2020-10-09T12:01:24.000Z</time>
      </trkpt>
      <trkpt lat="43.58766" lon="3.7718">
        <ele>47.414784121702</ele>
        <time>2020-10-09T12:01:25.000Z</time>
      </trkpt>
      <trkpt lat="43.58767" lon="3.77175">
        <ele>47.517453458758</ele>
        <time>2020-10-09T12:01:26.000Z</time>
      </trkpt>
      <trkpt lat="43.58768" lon="3.77169">
        <ele>47.620122795812</ele>
        <time>2020-10-09T12:01:27.000Z</time>
      </trkpt>
      <trkpt lat="43.58769" lon="3.77163">
        <ele>47.722792132868</ele>
        <time>2020-10-09T12:01:28.000Z</time>
      </trkpt>
      <trkpt lat="43.58771" lon="3.77157">
        <ele>47.825461469923</ele>
        <time>2020-10-09T12:01:29.000Z</time>
      </trkpt>
      <trkpt lat="43.58772" lon="3.77151">
        <ele>47.928130806978</ele>
        <time>2020-10-09T12:01:30.000Z</time>
      </trkpt>
      <trkpt lat="43.58774" lon="3.77146">
        <ele>48</ele>
        <time>2020-10-09T12:01:31.000Z</time>
      </trkpt>
      <trkpt lat="43.58775" lon="3.7714">
        <ele>48</ele>
        <time>2020-10-09T12:01:32.000Z</time>
      </trkpt>
      <trkpt lat="43.58776" lon="3.77133">
        <ele>48</ele>
        <time>2020-10-09T12:01:33.000Z</time>
      </trkpt>
      <trkpt lat="43.58778" lon="3.77128">
        <ele>48</ele>
        <time>2020-10-09T12:01:34.000Z</time>
      </trkpt>
      <trkpt lat="43.58779" lon="3.77122">
        <ele>48</ele>
        <time>2020-10-09T12:01:35.000Z</time>
      </trkpt>
      <trkpt lat="43.5878" lon="3.77116">
        <ele>48</ele>
        <time>2020-10-09T12:01:36.000Z</time>
      </trkpt>
      <trkpt lat="43.58782" lon="3.7711">
        <ele>48</ele>
        <time>2020-10-09T12:01:37.000Z</time>
      </trkpt>
      <trkpt lat="43.58783" lon="3.77103">
        <ele>48</ele>
        <time>2020-10-09T12:01:38.000Z</time>
      </trkpt>
      <trkpt lat="43.58784" lon="3.77097">
        <ele>48</ele>
        <time>2020-10-09T12:01:39.000Z</time>
      </trkpt>
      <trkpt lat="43.58786" lon="3.77091">
        <ele>48</ele>
        <time>2020-10-09T12:01:40.000Z</time>
      </trkpt>
      <trkpt lat="43.58787" lon="3.77085">
        <ele>48</ele>
        <time>2020-10-09T12:01:41.000Z</time>
      </trkpt>
      <trkpt lat="43.58788" lon="3.77079">
        <ele>48</ele>
        <time>2020-10-09T12:01:42.000Z</time>
      </trkpt>
      <trkpt lat="43.5879" lon="3.77073">
        <ele>48</ele>
        <time>2020-10-09T12:01:43.000Z</time>
      </trkpt>
      <trkpt lat="43.58791" lon="3.77067">
        <ele>48</ele>
        <time>2020-10-09T12:01:44.000Z</time>
      </trkpt>
      <trkpt lat="43.58793" lon="3.77062">
        <ele>48</ele>
        <time>2020-10-09T12:01:45.000Z</time>
      </trkpt>
      <trkpt lat="43.58794" lon="3.77059">
        <ele>48</ele>
        <time>2020-10-09T12:01:46.000Z</time>
      </trkpt>
      <trkpt lat="43.58795" lon="3.77055">
        <ele>48</ele>
        <time>2020-10-09T12:01:48.000Z</time>
      </trkpt>
      <trkpt lat="43.58797" lon="3.77052">
        <ele>48</ele>
        <time>2020-10-09T12:01:50.000Z</time>
      </trkpt>
      <trkpt lat="43.58797" lon="3.7705">
        <ele>48.031936107346</ele>
        <time>2020-10-09T12:01:51.000Z</time>
      </trkpt>
      <trkpt lat="43.58797" lon="3.77046">
        <ele>48.131736442803</ele>
        <time>2020-10-09T12:01:52.000Z</time>
      </trkpt>
      <trkpt lat="43.58797" lon="3.77041">
        <ele>48.23153677826</ele>
        <time>2020-10-09T12:01:53.000Z</time>
      </trkpt>
      <trkpt lat="43.58798" lon="3.77036">
        <ele>48.331337113717</ele>
        <time>2020-10-09T12:01:54.000Z</time>
      </trkpt>
      <trkpt lat="43.588" lon="3.77031">
        <ele>48.431137449174</ele>
        <time>2020-10-09T12:01:55.000Z</time>
      </trkpt>
      <trkpt lat="43.58801" lon="3.77026">
        <ele>48.530937784631</ele>
        <time>2020-10-09T12:01:56.000Z</time>
      </trkpt>
      <trkpt lat="43.58802" lon="3.7702">
        <ele>48.630738120087</ele>
        <time>2020-10-09T12:01:57.000Z</time>
      </trkpt>
      <trkpt lat="43.58804" lon="3.77014">
        <ele>48.730538455544</ele>
        <time>2020-10-09T12:01:58.000Z</time>
      </trkpt>
      <trkpt lat="43.58805" lon="3.77008">
        <ele>48.830338791001</ele>
        <time>2020-10-09T12:01:59.000Z</time>
      </trkpt>
      <trkpt lat="43.58806" lon="3.77002">
        <ele>48.930139126458</ele>
        <time>2020-10-09T12:02:00.000Z</time>
      </trkpt>
      <trkpt lat="43.58807" lon="3.76996">
        <ele>49</ele>
        <time>2020-10-09T12:02:01.000Z</time>
      </trkpt>
      <trkpt lat="43.58808" lon="3.7699">
        <ele>49</ele>
        <time>2020-10-09T12:02:02.000Z</time>
      </trkpt>
      <trkpt lat="43.58809" lon="3.76984">
        <ele>49</ele>
        <time>2020-10-09T12:02:03.000Z</time>
      </trkpt>
      <trkpt lat="43.58811" lon="3.76978">
        <ele>49</ele>
        <time>2020-10-09T12:02:04.000Z</time>
      </trkpt>
      <trkpt lat="43.58812" lon="3.76974">
        <ele>49</ele>
        <time>2020-10-09T12:02:05.000Z</time>
      </trkpt>
      <trkpt lat="43.58814" lon="3.76969">
        <ele>49</ele>
        <time>2020-10-09T12:02:06.000Z</time>
      </trkpt>
      <trkpt lat="43.58814" lon="3.76964">
        <ele>49</ele>
        <time>2020-10-09T12:02:07.000Z</time>
      </trkpt>
      <trkpt lat="43.58815" lon="3.76959">
        <ele>49</ele>
        <time>2020-10-09T12:02:08.000Z</time>
      </trkpt>
      <trkpt lat="43.58817" lon="3.76953">
        <ele>49</ele>
        <time>2020-10-09T12:02:09.000Z</time>
      </trkpt>
      <trkpt lat="43.58818" lon="3.76948">
        <ele>49</ele>
        <time>2020-10-09T12:02:10.000Z</time>
      </trkpt>
      <trkpt lat="43.58819" lon="3.76942">
        <ele>49</ele>
        <time>2020-10-09T12:02:11.000Z</time>
      </trkpt>
      <trkpt lat="43.5882" lon="3.76937">
        <ele>49</ele>
        <time>2020-10-09T12:02:12.000Z</time>
      </trkpt>
      <trkpt lat="43.58822" lon="3.76931">
        <ele>49</ele>
        <time>2020-10-09T12:02:13.000Z</time>
      </trkpt>
      <trkpt lat="43.58823" lon="3.76926">
        <ele>49</ele>
        <time>2020-10-09T12:02:14.000Z</time>
      </trkpt>
      <trkpt lat="43.58824" lon="3.7692">
        <ele>49</ele>
        <time>2020-10-09T12:02:15.000Z</time>
      </trkpt>
      <trkpt lat="43.58825" lon="3.76914">
        <ele>49</ele>
        <time>2020-10-09T12:02:16.000Z</time>
      </trkpt>
      <trkpt lat="43.58826" lon="3.76908">
        <ele>49</ele>
        <time>2020-10-09T12:02:17.000Z</time>
      </trkpt>
      <trkpt lat="43.58828" lon="3.76903">
        <ele>49</ele>
        <time>2020-10-09T12:02:18.000Z</time>
      </trkpt>
      <trkpt lat="43.58829" lon="3.76898">
        <ele>49</ele>
        <time>2020-10-09T12:02:19.000Z</time>
      </trkpt>
      <trkpt lat="43.58831" lon="3.76892">
        <ele>49</ele>
        <time>2020-10-09T12:02:20.000Z</time>
      </trkpt>
      <trkpt lat="43.58832" lon="3.76886">
        <ele>49</ele>
        <time>2020-10-09T12:02:21.000Z</time>
      </trkpt>
      <trkpt lat="43.58833" lon="3.76881">
        <ele>49</ele>
        <time>2020-10-09T12:02:22.000Z</time>
      </trkpt>
      <trkpt lat="43.58834" lon="3.76875">
        <ele>49</ele>
        <time>2020-10-09T12:02:23.000Z</time>
      </trkpt>
      <trkpt lat="43.58835" lon="3.7687">
        <ele>49</ele>
        <time>2020-10-09T12:02:24.000Z</time>
      </trkpt>
      <trkpt lat="43.58837" lon="3.76864">
        <ele>49</ele>
        <time>2020-10-09T12:02:25.000Z</time>
      </trkpt>
      <trkpt lat="43.58838" lon="3.76859">
        <ele>49</ele>
        <time>2020-10-09T12:02:26.000Z</time>
      </trkpt>
      <trkpt lat="43.58839" lon="3.76853">
        <ele>49</ele>
        <time>2020-10-09T12:02:27.000Z</time>
      </trkpt>
      <trkpt lat="43.5884" lon="3.76847">
        <ele>49</ele>
        <time>2020-10-09T12:02:28.000Z</time>
      </trkpt>
      <trkpt lat="43.58841" lon="3.76842">
        <ele>49</ele>
        <time>2020-10-09T12:02:29.000Z</time>
      </trkpt>
      <trkpt lat="43.58842" lon="3.76836">
        <ele>49</ele>
        <time>2020-10-09T12:02:30.000Z</time>
      </trkpt>
      <trkpt lat="43.58843" lon="3.7683">
        <ele>49</ele>
        <time>2020-10-09T12:02:31.000Z</time>
      </trkpt>
      <trkpt lat="43.58844" lon="3.76825">
        <ele>49</ele>
        <time>2020-10-09T12:02:32.000Z</time>
      </trkpt>
      <trkpt lat="43.58845" lon="3.76819">
        <ele>49</ele>
        <time>2020-10-09T12:02:33.000Z</time>
      </trkpt>
      <trkpt lat="43.58845" lon="3.76813">
        <ele>49</ele>
        <time>2020-10-09T12:02:34.000Z</time>
      </trkpt>
      <trkpt lat="43.58846" lon="3.76807">
        <ele>49</ele>
        <time>2020-10-09T12:02:35.000Z</time>
      </trkpt>
      <trkpt lat="43.58846" lon="3.76802">
        <ele>49</ele>
        <time>2020-10-09T12:02:36.000Z</time>
      </trkpt>
      <trkpt lat="43.58847" lon="3.76797">
        <ele>49</ele>
        <time>2020-10-09T12:02:37.000Z</time>
      </trkpt>
      <trkpt lat="43.58847" lon="3.76792">
        <ele>49</ele>
        <time>2020-10-09T12:02:38.000Z</time>
      </trkpt>
      <trkpt lat="43.58847" lon="3.76788">
        <ele>49</ele>
        <time>2020-10-09T12:02:39.000Z</time>
      </trkpt>
      <trkpt lat="43.58848" lon="3.76783">
        <ele>49</ele>
        <time>2020-10-09T12:02:40.000Z</time>
      </trkpt>
      <trkpt lat="43.58849" lon="3.76779">
        <ele>48.968</ele>
        <time>2020-10-09T12:02:41.000Z</time>
      </trkpt>
      <trkpt lat="43.58851" lon="3.76775">
        <ele>48.868</ele>
        <time>2020-10-09T12:02:42.000Z</time>
      </trkpt>
      <trkpt lat="43.58853" lon="3.76771">
        <ele>48.768</ele>
        <time>2020-10-09T12:02:43.000Z</time>
      </trkpt>
      <trkpt lat="43.58854" lon="3.76767">
        <ele>48.668</ele>
        <time>2020-10-09T12:02:44.000Z</time>
      </trkpt>
      <trkpt lat="43.58853" lon="3.76762">
        <ele>48.568</ele>
        <time>2020-10-09T12:02:45.000Z</time>
      </trkpt>
      <trkpt lat="43.58852" lon="3.76757">
        <ele>48.468</ele>
        <time>2020-10-09T12:02:46.000Z</time>
      </trkpt>
      <trkpt lat="43.58851" lon="3.76751">
        <ele>48.368</ele>
        <time>2020-10-09T12:02:47.000Z</time>
      </trkpt>
      <trkpt lat="43.5885" lon="3.76745">
        <ele>48.268</ele>
        <time>2020-10-09T12:02:48.000Z</time>
      </trkpt>
      <trkpt lat="43.58849" lon="3.7674">
        <ele>48.168</ele>
        <time>2020-10-09T12:02:49.000Z</time>
      </trkpt>
      <trkpt lat="43.58849" lon="3.76734">
        <ele>48.068</ele>
        <time>2020-10-09T12:02:50.000Z</time>
      </trkpt>
      <trkpt lat="43.58848" lon="3.76728">
        <ele>48</ele>
        <time>2020-10-09T12:02:51.000Z</time>
      </trkpt>
      <trkpt lat="43.58848" lon="3.76722">
        <ele>48</ele>
        <time>2020-10-09T12:02:52.000Z</time>
      </trkpt>
      <trkpt lat="43.58848" lon="3.76717">
        <ele>48</ele>
        <time>2020-10-09T12:02:53.000Z</time>
      </trkpt>
      <trkpt lat="43.58848" lon="3.76711">
        <ele>48</ele>
        <time>2020-10-09T12:02:54.000Z</time>
      </trkpt>
      <trkpt lat="43.58847" lon="3.76705">
        <ele>48</ele>
        <time>2020-10-09T12:02:55.000Z</time>
      </trkpt>
      <trkpt lat="43.58846" lon="3.76699">
        <ele>48</ele>
        <time>2020-10-09T12:02:56.000Z</time>
      </trkpt>
      <trkpt lat="43.58846" lon="3.76694">
        <ele>48</ele>
        <time>2020-10-09T12:02:57.000Z</time>
      </trkpt>
      <trkpt lat="43.58845" lon="3.76688">
        <ele>48</ele>
        <time>2020-10-09T12:02:58.000Z</time>
      </trkpt>
      <trkpt lat="43.58845" lon="3.76682">
        <ele>48</ele>
        <time>2020-10-09T12:02:59.000Z</time>
      </trkpt>
      <trkpt lat="43.58844" lon="3.76676">
        <ele>48</ele>
        <time>2020-10-09T12:03:00.000Z</time>
      </trkpt>
      <trkpt lat="43.58843" lon="3.7667">
        <ele>48.031067980469</ele>
        <time>2020-10-09T12:03:01.000Z</time>
      </trkpt>
      <trkpt lat="43.58842" lon="3.76664">
        <ele>48.128155419436</ele>
        <time>2020-10-09T12:03:02.000Z</time>
      </trkpt>
      <trkpt lat="43.58841" lon="3.76657">
        <ele>48.225242858403</ele>
        <time>2020-10-09T12:03:03.000Z</time>
      </trkpt>
      <trkpt lat="43.5884" lon="3.76651">
        <ele>48.32233029737</ele>
        <time>2020-10-09T12:03:04.000Z</time>
      </trkpt>
      <trkpt lat="43.58839" lon="3.76645">
        <ele>48.419417736337</ele>
        <time>2020-10-09T12:03:05.000Z</time>
      </trkpt>
      <trkpt lat="43.58837" lon="3.76639">
        <ele>48.516505175304</ele>
        <time>2020-10-09T12:03:06.000Z</time>
      </trkpt>
      <trkpt lat="43.58835" lon="3.76633">
        <ele>48.613592614271</ele>
        <time>2020-10-09T12:03:07.000Z</time>
      </trkpt>
      <trkpt lat="43.58832" lon="3.76627">
        <ele>48.710680053238</ele>
        <time>2020-10-09T12:03:08.000Z</time>
      </trkpt>
      <trkpt lat="43.58831" lon="3.7662">
        <ele>48.807767492205</ele>
        <time>2020-10-09T12:03:09.000Z</time>
      </trkpt>
      <trkpt lat="43.58829" lon="3.76614">
        <ele>48.904854931172</ele>
        <time>2020-10-09T12:03:10.000Z</time>
      </trkpt>
      <trkpt lat="43.58827" lon="3.76608">
        <ele>49</ele>
        <time>2020-10-09T12:03:11.000Z</time>
      </trkpt>
      <trkpt lat="43.58825" lon="3.76602">
        <ele>49</ele>
        <time>2020-10-09T12:03:12.000Z</time>
      </trkpt>
      <trkpt lat="43.58823" lon="3.76596">
        <ele>49</ele>
        <time>2020-10-09T12:03:13.000Z</time>
      </trkpt>
      <trkpt lat="43.58821" lon="3.7659">
        <ele>49</ele>
        <time>2020-10-09T12:03:14.000Z</time>
      </trkpt>
      <trkpt lat="43.58819" lon="3.76584">
        <ele>49</ele>
        <time>2020-10-09T12:03:15.000Z</time>
      </trkpt>
      <trkpt lat="43.58817" lon="3.76578">
        <ele>49</ele>
        <time>2020-10-09T12:03:16.000Z</time>
      </trkpt>
      <trkpt lat="43.58815" lon="3.76572">
        <ele>49</ele>
        <time>2020-10-09T12:03:17.000Z</time>
      </trkpt>
      <trkpt lat="43.58813" lon="3.76566">
        <ele>49</ele>
        <time>2020-10-09T12:03:18.000Z</time>
      </trkpt>
      <trkpt lat="43.58811" lon="3.7656">
        <ele>49</ele>
        <time>2020-10-09T12:03:19.000Z</time>
      </trkpt>
      <trkpt lat="43.58809" lon="3.76554">
        <ele>49</ele>
        <time>2020-10-09T12:03:20.000Z</time>
      </trkpt>
      <trkpt lat="43.58806" lon="3.76548">
        <ele>49</ele>
        <time>2020-10-09T12:03:21.000Z</time>
      </trkpt>
      <trkpt lat="43.58804" lon="3.76543">
        <ele>49</ele>
        <time>2020-10-09T12:03:22.000Z</time>
      </trkpt>
      <trkpt lat="43.58802" lon="3.76537">
        <ele>49</ele>
        <time>2020-10-09T12:03:23.000Z</time>
      </trkpt>
      <trkpt lat="43.58799" lon="3.76531">
        <ele>49</ele>
        <time>2020-10-09T12:03:24.000Z</time>
      </trkpt>
      <trkpt lat="43.58797" lon="3.76526">
        <ele>49</ele>
        <time>2020-10-09T12:03:25.000Z</time>
      </trkpt>
      <trkpt lat="43.58794" lon="3.7652">
        <ele>49</ele>
        <time>2020-10-09T12:03:26.000Z</time>
      </trkpt>
      <trkpt lat="43.58792" lon="3.76515">
        <ele>49</ele>
        <time>2020-10-09T12:03:27.000Z</time>
      </trkpt>
      <trkpt lat="43.58789" lon="3.76509">
        <ele>49</ele>
        <time>2020-10-09T12:03:28.000Z</time>
      </trkpt>
      <trkpt lat="43.58787" lon="3.76503">
        <ele>49</ele>
        <time>2020-10-09T12:03:29.000Z</time>
      </trkpt>
      <trkpt lat="43.58785" lon="3.76498">
        <ele>49</ele>
        <time>2020-10-09T12:03:30.000Z</time>
      </trkpt>
      <trkpt lat="43.58782" lon="3.76492">
        <ele>49</ele>
        <time>2020-10-09T12:03:31.000Z</time>
      </trkpt>
      <trkpt lat="43.5878" lon="3.76486">
        <ele>49</ele>
        <time>2020-10-09T12:03:32.000Z</time>
      </trkpt>
      <trkpt lat="43.58777" lon="3.76481">
        <ele>49</ele>
        <time>2020-10-09T12:03:33.000Z</time>
      </trkpt>
      <trkpt lat="43.58774" lon="3.76475">
        <ele>49</ele>
        <time>2020-10-09T12:03:34.000Z</time>
      </trkpt>
      <trkpt lat="43.58771" lon="3.76469">
        <ele>49</ele>
        <time>2020-10-09T12:03:35.000Z</time>
      </trkpt>
      <trkpt lat="43.58768" lon="3.76462">
        <ele>49</ele>
        <time>2020-10-09T12:03:36.000Z</time>
      </trkpt>
      <trkpt lat="43.58765" lon="3.76456">
        <ele>49</ele>
        <time>2020-10-09T12:03:37.000Z</time>
      </trkpt>
      <trkpt lat="43.58762" lon="3.7645">
        <ele>49</ele>
        <time>2020-10-09T12:03:38.000Z</time>
      </trkpt>
      <trkpt lat="43.5876" lon="3.76444">
        <ele>49</ele>
        <time>2020-10-09T12:03:39.000Z</time>
      </trkpt>
      <trkpt lat="43.58757" lon="3.76438">
        <ele>49</ele>
        <time>2020-10-09T12:03:40.000Z</time>
      </trkpt>
      <trkpt lat="43.58754" lon="3.76432">
        <ele>49.00398803462</ele>
        <time>2020-10-09T12:03:41.000Z</time>
      </trkpt>
      <trkpt lat="43.58752" lon="3.76425">
        <ele>49.103688900119</ele>
        <time>2020-10-09T12:03:42.000Z</time>
      </trkpt>
      <trkpt lat="43.58749" lon="3.76419">
        <ele>49.203389765618</ele>
        <time>2020-10-09T12:03:43.000Z</time>
      </trkpt>
      <trkpt lat="43.58746" lon="3.76413">
        <ele>49.303090631118</ele>
        <time>2020-10-09T12:03:44.000Z</time>
      </trkpt>
      <trkpt lat="43.58744" lon="3.76407">
        <ele>49.402791496617</ele>
        <time>2020-10-09T12:03:45.000Z</time>
      </trkpt>
      <trkpt lat="43.58741" lon="3.76401">
        <ele>49.502492362116</ele>
        <time>2020-10-09T12:03:46.000Z</time>
      </trkpt>
      <trkpt lat="43.58739" lon="3.76396">
        <ele>49.602193227615</ele>
        <time>2020-10-09T12:03:47.000Z</time>
      </trkpt>
      <trkpt lat="43.58736" lon="3.7639">
        <ele>49.701894093114</ele>
        <time>2020-10-09T12:03:48.000Z</time>
      </trkpt>
      <trkpt lat="43.58734" lon="3.76384">
        <ele>49.801594958614</ele>
        <time>2020-10-09T12:03:49.000Z</time>
      </trkpt>
      <trkpt lat="43.58731" lon="3.76379">
        <ele>49.901295824113</ele>
        <time>2020-10-09T12:03:50.000Z</time>
      </trkpt>
      <trkpt lat="43.58728" lon="3.76373">
        <ele>50</ele>
        <time>2020-10-09T12:03:51.000Z</time>
      </trkpt>
      <trkpt lat="43.58726" lon="3.76367">
        <ele>50</ele>
        <time>2020-10-09T12:03:52.000Z</time>
      </trkpt>
      <trkpt lat="43.58723" lon="3.76361">
        <ele>50</ele>
        <time>2020-10-09T12:03:53.000Z</time>
      </trkpt>
      <trkpt lat="43.5872" lon="3.76355">
        <ele>50</ele>
        <time>2020-10-09T12:03:54.000Z</time>
      </trkpt>
      <trkpt lat="43.58718" lon="3.7635">
        <ele>50</ele>
        <time>2020-10-09T12:03:55.000Z</time>
      </trkpt>
      <trkpt lat="43.58715" lon="3.76344">
        <ele>50</ele>
        <time>2020-10-09T12:03:56.000Z</time>
      </trkpt>
      <trkpt lat="43.58713" lon="3.76339">
        <ele>50</ele>
        <time>2020-10-09T12:03:57.000Z</time>
      </trkpt>
      <trkpt lat="43.5871" lon="3.76333">
        <ele>50</ele>
        <time>2020-10-09T12:03:58.000Z</time>
      </trkpt>
      <trkpt lat="43.58708" lon="3.76328">
        <ele>50</ele>
        <time>2020-10-09T12:03:59.000Z</time>
      </trkpt>
      <trkpt lat="43.58705" lon="3.76322">
        <ele>50</ele>
        <time>2020-10-09T12:04:00.000Z</time>
      </trkpt>
      <trkpt lat="43.58703" lon="3.76316">
        <ele>50</ele>
        <time>2020-10-09T12:04:01.000Z</time>
      </trkpt>
      <trkpt lat="43.58702" lon="3.7631">
        <ele>50</ele>
        <time>2020-10-09T12:04:02.000Z</time>
      </trkpt>
      <trkpt lat="43.58702" lon="3.76304">
        <ele>50</ele>
        <time>2020-10-09T12:04:03.000Z</time>
      </trkpt>
      <trkpt lat="43.58701" lon="3.76297">
        <ele>50</ele>
        <time>2020-10-09T12:04:04.000Z</time>
      </trkpt>
      <trkpt lat="43.58701" lon="3.76291">
        <ele>50</ele>
        <time>2020-10-09T12:04:05.000Z</time>
      </trkpt>
      <trkpt lat="43.58699" lon="3.76285">
        <ele>50</ele>
        <time>2020-10-09T12:04:06.000Z</time>
      </trkpt>
      <trkpt lat="43.58697" lon="3.7628">
        <ele>50</ele>
        <time>2020-10-09T12:04:07.000Z</time>
      </trkpt>
      <trkpt lat="43.58695" lon="3.76275">
        <ele>50</ele>
        <time>2020-10-09T12:04:08.000Z</time>
      </trkpt>
      <trkpt lat="43.58692" lon="3.76269">
        <ele>50</ele>
        <time>2020-10-09T12:04:09.000Z</time>
      </trkpt>
      <trkpt lat="43.58689" lon="3.76264">
        <ele>50</ele>
        <time>2020-10-09T12:04:10.000Z</time>
      </trkpt>
      <trkpt lat="43.58686" lon="3.76259">
        <ele>50.031128404669</ele>
        <time>2020-10-09T12:04:11.000Z</time>
      </trkpt>
      <trkpt lat="43.58683" lon="3.76254">
        <ele>50.128404669261</ele>
        <time>2020-10-09T12:04:12.000Z</time>
      </trkpt>
      <trkpt lat="43.5868" lon="3.76249">
        <ele>50.225680933852</ele>
        <time>2020-10-09T12:04:13.000Z</time>
      </trkpt>
      <trkpt lat="43.58677" lon="3.76245">
        <ele>50.322957198444</ele>
        <time>2020-10-09T12:04:14.000Z</time>
      </trkpt>
      <trkpt lat="43.58674" lon="3.76239">
        <ele>50.420233463035</ele>
        <time>2020-10-09T12:04:15.000Z</time>
      </trkpt>
      <trkpt lat="43.58671" lon="3.76234">
        <ele>50.517509727627</ele>
        <time>2020-10-09T12:04:16.000Z</time>
      </trkpt>
      <trkpt lat="43.58669" lon="3.76229">
        <ele>50.614785992218</ele>
        <time>2020-10-09T12:04:17.000Z</time>
      </trkpt>
      <trkpt lat="43.58666" lon="3.76223">
        <ele>50.712062256809</ele>
        <time>2020-10-09T12:04:18.000Z</time>
      </trkpt>
      <trkpt lat="43.58663" lon="3.76218">
        <ele>50.809338521401</ele>
        <time>2020-10-09T12:04:19.000Z</time>
      </trkpt>
      <trkpt lat="43.58661" lon="3.76213">
        <ele>50.906614785992</ele>
        <time>2020-10-09T12:04:20.000Z</time>
      </trkpt>
      <trkpt lat="43.58658" lon="3.76207">
        <ele>51</ele>
        <time>2020-10-09T12:04:21.000Z</time>
      </trkpt>
      <trkpt lat="43.58656" lon="3.76202">
        <ele>51</ele>
        <time>2020-10-09T12:04:22.000Z</time>
      </trkpt>
      <trkpt lat="43.58654" lon="3.76196">
        <ele>51</ele>
        <time>2020-10-09T12:04:23.000Z</time>
      </trkpt>
      <trkpt lat="43.58652" lon="3.7619">
        <ele>51</ele>
        <time>2020-10-09T12:04:24.000Z</time>
      </trkpt>
      <trkpt lat="43.5865" lon="3.76184">
        <ele>51</ele>
        <time>2020-10-09T12:04:25.000Z</time>
      </trkpt>
      <trkpt lat="43.58647" lon="3.76179">
        <ele>51</ele>
        <time>2020-10-09T12:04:26.000Z</time>
      </trkpt>
      <trkpt lat="43.58644" lon="3.76174">
        <ele>51</ele>
        <time>2020-10-09T12:04:27.000Z</time>
      </trkpt>
      <trkpt lat="43.58642" lon="3.76168">
        <ele>51</ele>
        <time>2020-10-09T12:04:28.000Z</time>
      </trkpt>
      <trkpt lat="43.58639" lon="3.76163">
        <ele>51</ele>
        <time>2020-10-09T12:04:29.000Z</time>
      </trkpt>
      <trkpt lat="43.58636" lon="3.76157">
        <ele>51</ele>
        <time>2020-10-09T12:04:30.000Z</time>
      </trkpt>
      <trkpt lat="43.58633" lon="3.76152">
        <ele>51.031809165366</ele>
        <time>2020-10-09T12:04:31.000Z</time>
      </trkpt>
      <trkpt lat="43.5863" lon="3.76146">
        <ele>51.131212807133</ele>
        <time>2020-10-09T12:04:32.000Z</time>
      </trkpt>
      <trkpt lat="43.58627" lon="3.7614">
        <ele>51.230616448901</ele>
        <time>2020-10-09T12:04:33.000Z</time>
      </trkpt>
      <trkpt lat="43.58624" lon="3.76134">
        <ele>51.330020090669</ele>
        <time>2020-10-09T12:04:34.000Z</time>
      </trkpt>
      <trkpt lat="43.58621" lon="3.76129">
        <ele>51.429423732437</ele>
        <time>2020-10-09T12:04:35.000Z</time>
      </trkpt>
      <trkpt lat="43.58619" lon="3.76123">
        <ele>51.528827374204</ele>
        <time>2020-10-09T12:04:36.000Z</time>
      </trkpt>
      <trkpt lat="43.58617" lon="3.76117">
        <ele>51.628231015972</ele>
        <time>2020-10-09T12:04:37.000Z</time>
      </trkpt>
      <trkpt lat="43.58615" lon="3.76111">
        <ele>51.72763465774</ele>
        <time>2020-10-09T12:04:38.000Z</time>
      </trkpt>
      <trkpt lat="43.58613" lon="3.76105">
        <ele>51.827038299507</ele>
        <time>2020-10-09T12:04:39.000Z</time>
      </trkpt>
      <trkpt lat="43.5861" lon="3.761">
        <ele>51.926441941275</ele>
        <time>2020-10-09T12:04:40.000Z</time>
      </trkpt>
      <trkpt lat="43.58608" lon="3.76094">
        <ele>52</ele>
        <time>2020-10-09T12:04:41.000Z</time>
      </trkpt>
      <trkpt lat="43.58605" lon="3.76089">
        <ele>52</ele>
        <time>2020-10-09T12:04:42.000Z</time>
      </trkpt>
      <trkpt lat="43.58603" lon="3.76083">
        <ele>52</ele>
        <time>2020-10-09T12:04:43.000Z</time>
      </trkpt>
      <trkpt lat="43.586" lon="3.76078">
        <ele>52</ele>
        <time>2020-10-09T12:04:44.000Z</time>
      </trkpt>
      <trkpt lat="43.58598" lon="3.76072">
        <ele>52</ele>
        <time>2020-10-09T12:04:45.000Z</time>
      </trkpt>
      <trkpt lat="43.58596" lon="3.76066">
        <ele>52</ele>
        <time>2020-10-09T12:04:46.000Z</time>
      </trkpt>
      <trkpt lat="43.58593" lon="3.7606">
        <ele>52</ele>
        <time>2020-10-09T12:04:47.000Z</time>
      </trkpt>
      <trkpt lat="43.58591" lon="3.76054">
        <ele>52</ele>
        <time>2020-10-09T12:04:48.000Z</time>
      </trkpt>
      <trkpt lat="43.58588" lon="3.76048">
        <ele>52</ele>
        <time>2020-10-09T12:04:49.000Z</time>
      </trkpt>
      <trkpt lat="43.58586" lon="3.76042">
        <ele>52</ele>
        <time>2020-10-09T12:04:50.000Z</time>
      </trkpt>
      <trkpt lat="43.58584" lon="3.76037">
        <ele>52.032</ele>
        <time>2020-10-09T12:04:51.000Z</time>
      </trkpt>
      <trkpt lat="43.58581" lon="3.76032">
        <ele>52.132</ele>
        <time>2020-10-09T12:04:52.000Z</time>
      </trkpt>
      <trkpt lat="43.58579" lon="3.76028">
        <ele>52.232</ele>
        <time>2020-10-09T12:04:53.000Z</time>
      </trkpt>
      <trkpt lat="43.58578" lon="3.76023">
        <ele>52.332</ele>
        <time>2020-10-09T12:04:54.000Z</time>
      </trkpt>
      <trkpt lat="43.58575" lon="3.76018">
        <ele>52.432</ele>
        <time>2020-10-09T12:04:55.000Z</time>
      </trkpt>
      <trkpt lat="43.58573" lon="3.76013">
        <ele>52.532</ele>
        <time>2020-10-09T12:04:56.000Z</time>
      </trkpt>
      <trkpt lat="43.58571" lon="3.76009">
        <ele>52.632</ele>
        <time>2020-10-09T12:04:57.000Z</time>
      </trkpt>
      <trkpt lat="43.58569" lon="3.76004">
        <ele>52.732</ele>
        <time>2020-10-09T12:04:58.000Z</time>
      </trkpt>
      <trkpt lat="43.58567" lon="3.75998">
        <ele>52.832</ele>
        <time>2020-10-09T12:04:59.000Z</time>
      </trkpt>
      <trkpt lat="43.58565" lon="3.75993">
        <ele>52.932</ele>
        <time>2020-10-09T12:05:00.000Z</time>
      </trkpt>
      <trkpt lat="43.58562" lon="3.75988">
        <ele>53.032</ele>
        <time>2020-10-09T12:05:01.000Z</time>
      </trkpt>
      <trkpt lat="43.5856" lon="3.75982">
        <ele>53.132</ele>
        <time>2020-10-09T12:05:02.000Z</time>
      </trkpt>
      <trkpt lat="43.58557" lon="3.75977">
        <ele>53.232</ele>
        <time>2020-10-09T12:05:03.000Z</time>
      </trkpt>
      <trkpt lat="43.58555" lon="3.75971">
        <ele>53.332</ele>
        <time>2020-10-09T12:05:04.000Z</time>
      </trkpt>
      <trkpt lat="43.58553" lon="3.75965">
        <ele>53.432</ele>
        <time>2020-10-09T12:05:05.000Z</time>
      </trkpt>
      <trkpt lat="43.5855" lon="3.7596">
        <ele>53.532</ele>
        <time>2020-10-09T12:05:06.000Z</time>
      </trkpt>
      <trkpt lat="43.58548" lon="3.75954">
        <ele>53.632</ele>
        <time>2020-10-09T12:05:07.000Z</time>
      </trkpt>
      <trkpt lat="43.58545" lon="3.75949">
        <ele>53.732</ele>
        <time>2020-10-09T12:05:08.000Z</time>
      </trkpt>
      <trkpt lat="43.58543" lon="3.75943">
        <ele>53.832</ele>
        <time>2020-10-09T12:05:09.000Z</time>
      </trkpt>
      <trkpt lat="43.58541" lon="3.75938">
        <ele>53.932</ele>
        <time>2020-10-09T12:05:10.000Z</time>
      </trkpt>
      <trkpt lat="43.58538" lon="3.75933">
        <ele>53.968031957812</ele>
        <time>2020-10-09T12:05:11.000Z</time>
      </trkpt>
      <trkpt lat="43.58536" lon="3.75928">
        <ele>53.868131825976</ele>
        <time>2020-10-09T12:05:12.000Z</time>
      </trkpt>
      <trkpt lat="43.58534" lon="3.75923">
        <ele>53.76823169414</ele>
        <time>2020-10-09T12:05:13.000Z</time>
      </trkpt>
      <trkpt lat="43.58532" lon="3.75919">
        <ele>53.668331562304</ele>
        <time>2020-10-09T12:05:14.000Z</time>
      </trkpt>
      <trkpt lat="43.5853" lon="3.75914">
        <ele>53.568431430468</ele>
        <time>2020-10-09T12:05:15.000Z</time>
      </trkpt>
      <trkpt lat="43.58528" lon="3.75909">
        <ele>53.468531298631</ele>
        <time>2020-10-09T12:05:16.000Z</time>
      </trkpt>
      <trkpt lat="43.58525" lon="3.75904">
        <ele>53.368631166795</ele>
        <time>2020-10-09T12:05:17.000Z</time>
      </trkpt>
      <trkpt lat="43.58523" lon="3.75899">
        <ele>53.268731034959</ele>
        <time>2020-10-09T12:05:18.000Z</time>
      </trkpt>
      <trkpt lat="43.5852" lon="3.75894">
        <ele>53.168830903123</ele>
        <time>2020-10-09T12:05:19.000Z</time>
      </trkpt>
      <trkpt lat="43.58517" lon="3.75889">
        <ele>53.068930771287</ele>
        <time>2020-10-09T12:05:20.000Z</time>
      </trkpt>
      <trkpt lat="43.58515" lon="3.75883">
        <ele>53</ele>
        <time>2020-10-09T12:05:21.000Z</time>
      </trkpt>
      <trkpt lat="43.58513" lon="3.75878">
        <ele>53</ele>
        <time>2020-10-09T12:05:22.000Z</time>
      </trkpt>
      <trkpt lat="43.58511" lon="3.75872">
        <ele>53</ele>
        <time>2020-10-09T12:05:23.000Z</time>
      </trkpt>
      <trkpt lat="43.5851" lon="3.75866">
        <ele>53</ele>
        <time>2020-10-09T12:05:24.000Z</time>
      </trkpt>
      <trkpt lat="43.58508" lon="3.7586">
        <ele>53</ele>
        <time>2020-10-09T12:05:25.000Z</time>
      </trkpt>
      <trkpt lat="43.58506" lon="3.75854">
        <ele>53</ele>
        <time>2020-10-09T12:05:26.000Z</time>
      </trkpt>
      <trkpt lat="43.58504" lon="3.75849">
        <ele>53</ele>
        <time>2020-10-09T12:05:27.000Z</time>
      </trkpt>
      <trkpt lat="43.58501" lon="3.75843">
        <ele>53</ele>
        <time>2020-10-09T12:05:28.000Z</time>
      </trkpt>
      <trkpt lat="43.58498" lon="3.75838">
        <ele>53</ele>
        <time>2020-10-09T12:05:29.000Z</time>
      </trkpt>
      <trkpt lat="43.58495" lon="3.75832">
        <ele>53</ele>
        <time>2020-10-09T12:05:30.000Z</time>
      </trkpt>
      <trkpt lat="43.58492" lon="3.75827">
        <ele>53</ele>
        <time>2020-10-09T12:05:31.000Z</time>
      </trkpt>
      <trkpt lat="43.58489" lon="3.75821">
        <ele>53</ele>
        <time>2020-10-09T12:05:32.000Z</time>
      </trkpt>
      <trkpt lat="43.58486" lon="3.75815">
        <ele>53</ele>
        <time>2020-10-09T12:05:33.000Z</time>
      </trkpt>
      <trkpt lat="43.58484" lon="3.75809">
        <ele>53</ele>
        <time>2020-10-09T12:05:34.000Z</time>
      </trkpt>
      <trkpt lat="43.58481" lon="3.75803">
        <ele>53</ele>
        <time>2020-10-09T12:05:35.000Z</time>
      </trkpt>
      <trkpt lat="43.58479" lon="3.75798">
        <ele>53</ele>
        <time>2020-10-09T12:05:36.000Z</time>
      </trkpt>
      <trkpt lat="43.58476" lon="3.75792">
        <ele>53</ele>
        <time>2020-10-09T12:05:37.000Z</time>
      </trkpt>
      <trkpt lat="43.58474" lon="3.75787">
        <ele>53</ele>
        <time>2020-10-09T12:05:38.000Z</time>
      </trkpt>
      <trkpt lat="43.58473" lon="3.75781">
        <ele>53</ele>
        <time>2020-10-09T12:05:39.000Z</time>
      </trkpt>
      <trkpt lat="43.58472" lon="3.75776">
        <ele>53</ele>
        <time>2020-10-09T12:05:40.000Z</time>
      </trkpt>
      <trkpt lat="43.58473" lon="3.75771">
        <ele>53</ele>
        <time>2020-10-09T12:05:41.000Z</time>
      </trkpt>
      <trkpt lat="43.58472" lon="3.75766">
        <ele>53</ele>
        <time>2020-10-09T12:05:42.000Z</time>
      </trkpt>
      <trkpt lat="43.58471" lon="3.75761">
        <ele>53</ele>
        <time>2020-10-09T12:05:43.000Z</time>
      </trkpt>
      <trkpt lat="43.58471" lon="3.75756">
        <ele>53</ele>
        <time>2020-10-09T12:05:44.000Z</time>
      </trkpt>
      <trkpt lat="43.58471" lon="3.75752">
        <ele>53</ele>
        <time>2020-10-09T12:05:45.000Z</time>
      </trkpt>
      <trkpt lat="43.5847" lon="3.75748">
        <ele>53</ele>
        <time>2020-10-09T12:05:46.000Z</time>
      </trkpt>
      <trkpt lat="43.58467" lon="3.75745">
        <ele>53</ele>
        <time>2020-10-09T12:05:47.000Z</time>
      </trkpt>
      <trkpt lat="43.58464" lon="3.75742">
        <ele>53</ele>
        <time>2020-10-09T12:05:48.000Z</time>
      </trkpt>
      <trkpt lat="43.58461" lon="3.75738">
        <ele>53</ele>
        <time>2020-10-09T12:05:49.000Z</time>
      </trkpt>
      <trkpt lat="43.58458" lon="3.75734">
        <ele>53</ele>
        <time>2020-10-09T12:05:50.000Z</time>
      </trkpt>
      <trkpt lat="43.58456" lon="3.7573">
        <ele>53</ele>
        <time>2020-10-09T12:05:51.000Z</time>
      </trkpt>
      <trkpt lat="43.58453" lon="3.75726">
        <ele>53</ele>
        <time>2020-10-09T12:05:52.000Z</time>
      </trkpt>
      <trkpt lat="43.5845" lon="3.75723">
        <ele>53</ele>
        <time>2020-10-09T12:05:53.000Z</time>
      </trkpt>
      <trkpt lat="43.58447" lon="3.75719">
        <ele>53</ele>
        <time>2020-10-09T12:05:54.000Z</time>
      </trkpt>
      <trkpt lat="43.58444" lon="3.75715">
        <ele>53</ele>
        <time>2020-10-09T12:05:55.000Z</time>
      </trkpt>
      <trkpt lat="43.5844" lon="3.7571">
        <ele>53</ele>
        <time>2020-10-09T12:05:56.000Z</time>
      </trkpt>
      <trkpt lat="43.58436" lon="3.75704">
        <ele>53</ele>
        <time>2020-10-09T12:05:57.000Z</time>
      </trkpt>
      <trkpt lat="43.58433" lon="3.75698">
        <ele>53</ele>
        <time>2020-10-09T12:05:58.000Z</time>
      </trkpt>
      <trkpt lat="43.5843" lon="3.75692">
        <ele>53</ele>
        <time>2020-10-09T12:05:59.000Z</time>
      </trkpt>
      <trkpt lat="43.58428" lon="3.75685">
        <ele>53</ele>
        <time>2020-10-09T12:06:00.000Z</time>
      </trkpt>
      <trkpt lat="43.58425" lon="3.75679">
        <ele>53</ele>
        <time>2020-10-09T12:06:01.000Z</time>
      </trkpt>
      <trkpt lat="43.58423" lon="3.75672">
        <ele>53</ele>
        <time>2020-10-09T12:06:02.000Z</time>
      </trkpt>
      <trkpt lat="43.5842" lon="3.75666">
        <ele>53</ele>
        <time>2020-10-09T12:06:03.000Z</time>
      </trkpt>
      <trkpt lat="43.58418" lon="3.7566">
        <ele>53</ele>
        <time>2020-10-09T12:06:04.000Z</time>
      </trkpt>
      <trkpt lat="43.58415" lon="3.75653">
        <ele>53</ele>
        <time>2020-10-09T12:06:05.000Z</time>
      </trkpt>
      <trkpt lat="43.58413" lon="3.75647">
        <ele>53</ele>
        <time>2020-10-09T12:06:06.000Z</time>
      </trkpt>
      <trkpt lat="43.5841" lon="3.75641">
        <ele>53</ele>
        <time>2020-10-09T12:06:07.000Z</time>
      </trkpt>
      <trkpt lat="43.58407" lon="3.75635">
        <ele>53</ele>
        <time>2020-10-09T12:06:08.000Z</time>
      </trkpt>
      <trkpt lat="43.58405" lon="3.75628">
        <ele>53</ele>
        <time>2020-10-09T12:06:09.000Z</time>
      </trkpt>
      <trkpt lat="43.58402" lon="3.75622">
        <ele>53</ele>
        <time>2020-10-09T12:06:10.000Z</time>
      </trkpt>
      <trkpt lat="43.58399" lon="3.75616">
        <ele>53.031098163218</ele>
        <time>2020-10-09T12:06:11.000Z</time>
      </trkpt>
      <trkpt lat="43.58396" lon="3.75609">
        <ele>53.128279923275</ele>
        <time>2020-10-09T12:06:12.000Z</time>
      </trkpt>
      <trkpt lat="43.58393" lon="3.75603">
        <ele>53.225461683331</ele>
        <time>2020-10-09T12:06:13.000Z</time>
      </trkpt>
      <trkpt lat="43.58391" lon="3.75596">
        <ele>53.322643443388</ele>
        <time>2020-10-09T12:06:14.000Z</time>
      </trkpt>
      <trkpt lat="43.58388" lon="3.7559">
        <ele>53.419825203444</ele>
        <time>2020-10-09T12:06:15.000Z</time>
      </trkpt>
      <trkpt lat="43.58385" lon="3.75584">
        <ele>53.517006963501</ele>
        <time>2020-10-09T12:06:16.000Z</time>
      </trkpt>
      <trkpt lat="43.58382" lon="3.75577">
        <ele>53.614188723557</ele>
        <time>2020-10-09T12:06:17.000Z</time>
      </trkpt>
      <trkpt lat="43.58379" lon="3.75571">
        <ele>53.711370483614</ele>
        <time>2020-10-09T12:06:18.000Z</time>
      </trkpt>
      <trkpt lat="43.58377" lon="3.75565">
        <ele>53.80855224367</ele>
        <time>2020-10-09T12:06:19.000Z</time>
      </trkpt>
      <trkpt lat="43.58374" lon="3.75558">
        <ele>53.905734003727</ele>
        <time>2020-10-09T12:06:20.000Z</time>
      </trkpt>
      <trkpt lat="43.58371" lon="3.75552">
        <ele>54</ele>
        <time>2020-10-09T12:06:21.000Z</time>
      </trkpt>
      <trkpt lat="43.58368" lon="3.75546">
        <ele>54</ele>
        <time>2020-10-09T12:06:22.000Z</time>
      </trkpt>
      <trkpt lat="43.58365" lon="3.7554">
        <ele>54</ele>
        <time>2020-10-09T12:06:23.000Z</time>
      </trkpt>
      <trkpt lat="43.58363" lon="3.75533">
        <ele>54</ele>
        <time>2020-10-09T12:06:24.000Z</time>
      </trkpt>
      <trkpt lat="43.5836" lon="3.75527">
        <ele>54</ele>
        <time>2020-10-09T12:06:25.000Z</time>
      </trkpt>
      <trkpt lat="43.58357" lon="3.75521">
        <ele>54</ele>
        <time>2020-10-09T12:06:26.000Z</time>
      </trkpt>
      <trkpt lat="43.58354" lon="3.75515">
        <ele>54</ele>
        <time>2020-10-09T12:06:27.000Z</time>
      </trkpt>
      <trkpt lat="43.58351" lon="3.75509">
        <ele>54</ele>
        <time>2020-10-09T12:06:28.000Z</time>
      </trkpt>
      <trkpt lat="43.58348" lon="3.75503">
        <ele>54</ele>
        <time>2020-10-09T12:06:29.000Z</time>
      </trkpt>
      <trkpt lat="43.58345" lon="3.75497">
        <ele>54</ele>
        <time>2020-10-09T12:06:30.000Z</time>
      </trkpt>
      <trkpt lat="43.58342" lon="3.7549">
        <ele>54</ele>
        <time>2020-10-09T12:06:31.000Z</time>
      </trkpt>
      <trkpt lat="43.58339" lon="3.75484">
        <ele>54</ele>
        <time>2020-10-09T12:06:32.000Z</time>
      </trkpt>
      <trkpt lat="43.58336" lon="3.75477">
        <ele>54</ele>
        <time>2020-10-09T12:06:33.000Z</time>
      </trkpt>
      <trkpt lat="43.58334" lon="3.75471">
        <ele>54</ele>
        <time>2020-10-09T12:06:34.000Z</time>
      </trkpt>
      <trkpt lat="43.58331" lon="3.75465">
        <ele>54</ele>
        <time>2020-10-09T12:06:35.000Z</time>
      </trkpt>
      <trkpt lat="43.58328" lon="3.75458">
        <ele>54</ele>
        <time>2020-10-09T12:06:36.000Z</time>
      </trkpt>
      <trkpt lat="43.58325" lon="3.75452">
        <ele>54</ele>
        <time>2020-10-09T12:06:37.000Z</time>
      </trkpt>
      <trkpt lat="43.58322" lon="3.75446">
        <ele>54</ele>
        <time>2020-10-09T12:06:38.000Z</time>
      </trkpt>
      <trkpt lat="43.5832" lon="3.7544">
        <ele>54</ele>
        <time>2020-10-09T12:06:39.000Z</time>
      </trkpt>
      <trkpt lat="43.58317" lon="3.75433">
        <ele>54</ele>
        <time>2020-10-09T12:06:40.000Z</time>
      </trkpt>
      <trkpt lat="43.58314" lon="3.75427">
        <ele>54</ele>
        <time>2020-10-09T12:06:41.000Z</time>
      </trkpt>
      <trkpt lat="43.58312" lon="3.75421">
        <ele>54</ele>
        <time>2020-10-09T12:06:42.000Z</time>
      </trkpt>
      <trkpt lat="43.58309" lon="3.75415">
        <ele>54</ele>
        <time>2020-10-09T12:06:43.000Z</time>
      </trkpt>
      <trkpt lat="43.58306" lon="3.75409">
        <ele>54</ele>
        <time>2020-10-09T12:06:44.000Z</time>
      </trkpt>
      <trkpt lat="43.58303" lon="3.75403">
        <ele>54</ele>
        <time>2020-10-09T12:06:45.000Z</time>
      </trkpt>
      <trkpt lat="43.58301" lon="3.75396">
        <ele>54</ele>
        <time>2020-10-09T12:06:46.000Z</time>
      </trkpt>
      <trkpt lat="43.58298" lon="3.7539">
        <ele>54</ele>
        <time>2020-10-09T12:06:47.000Z</time>
      </trkpt>
      <trkpt lat="43.58295" lon="3.75384">
        <ele>54</ele>
        <time>2020-10-09T12:06:48.000Z</time>
      </trkpt>
      <trkpt lat="43.58293" lon="3.75378">
        <ele>54</ele>
        <time>2020-10-09T12:06:49.000Z</time>
      </trkpt>
      <trkpt lat="43.5829" lon="3.75372">
        <ele>54</ele>
        <time>2020-10-09T12:06:50.000Z</time>
      </trkpt>
      <trkpt lat="43.58287" lon="3.75365">
        <ele>54</ele>
        <time>2020-10-09T12:06:51.000Z</time>
      </trkpt>
      <trkpt lat="43.58285" lon="3.75359">
        <ele>54</ele>
        <time>2020-10-09T12:06:52.000Z</time>
      </trkpt>
      <trkpt lat="43.58282" lon="3.75353">
        <ele>54</ele>
        <time>2020-10-09T12:06:53.000Z</time>
      </trkpt>
      <trkpt lat="43.58279" lon="3.75347">
        <ele>54</ele>
        <time>2020-10-09T12:06:54.000Z</time>
      </trkpt>
      <trkpt lat="43.58276" lon="3.75341">
        <ele>54</ele>
        <time>2020-10-09T12:06:55.000Z</time>
      </trkpt>
      <trkpt lat="43.58274" lon="3.75335">
        <ele>54</ele>
        <time>2020-10-09T12:06:56.000Z</time>
      </trkpt>
      <trkpt lat="43.58271" lon="3.75329">
        <ele>54</ele>
        <time>2020-10-09T12:06:57.000Z</time>
      </trkpt>
      <trkpt lat="43.58269" lon="3.75323">
        <ele>54</ele>
        <time>2020-10-09T12:06:58.000Z</time>
      </trkpt>
      <trkpt lat="43.58266" lon="3.75317">
        <ele>54</ele>
        <time>2020-10-09T12:06:59.000Z</time>
      </trkpt>
      <trkpt lat="43.58263" lon="3.75311">
        <ele>54</ele>
        <time>2020-10-09T12:07:00.000Z</time>
      </trkpt>
      <trkpt lat="43.58261" lon="3.75305">
        <ele>54</ele>
        <time>2020-10-09T12:07:01.000Z</time>
      </trkpt>
      <trkpt lat="43.58258" lon="3.753">
        <ele>54</ele>
        <time>2020-10-09T12:07:02.000Z</time>
      </trkpt>
      <trkpt lat="43.58255" lon="3.75293">
        <ele>54</ele>
        <time>2020-10-09T12:07:03.000Z</time>
      </trkpt>
      <trkpt lat="43.58253" lon="3.75287">
        <ele>54</ele>
        <time>2020-10-09T12:07:04.000Z</time>
      </trkpt>
      <trkpt lat="43.5825" lon="3.75281">
        <ele>54</ele>
        <time>2020-10-09T12:07:05.000Z</time>
      </trkpt>
      <trkpt lat="43.58247" lon="3.75275">
        <ele>54</ele>
        <time>2020-10-09T12:07:06.000Z</time>
      </trkpt>
      <trkpt lat="43.58245" lon="3.7527">
        <ele>54</ele>
        <time>2020-10-09T12:07:07.000Z</time>
      </trkpt>
      <trkpt lat="43.58242" lon="3.75264">
        <ele>54</ele>
        <time>2020-10-09T12:07:08.000Z</time>
      </trkpt>
      <trkpt lat="43.58239" lon="3.75258">
        <ele>54</ele>
        <time>2020-10-09T12:07:09.000Z</time>
      </trkpt>
      <trkpt lat="43.58237" lon="3.75252">
        <ele>54</ele>
        <time>2020-10-09T12:07:10.000Z</time>
      </trkpt>
      <trkpt lat="43.58234" lon="3.75246">
        <ele>54.032</ele>
        <time>2020-10-09T12:07:11.000Z</time>
      </trkpt>
      <trkpt lat="43.58232" lon="3.7524">
        <ele>54.132</ele>
        <time>2020-10-09T12:07:12.000Z</time>
      </trkpt>
      <trkpt lat="43.5823" lon="3.75235">
        <ele>54.232</ele>
        <time>2020-10-09T12:07:13.000Z</time>
      </trkpt>
      <trkpt lat="43.58227" lon="3.75229">
        <ele>54.332</ele>
        <time>2020-10-09T12:07:14.000Z</time>
      </trkpt>
      <trkpt lat="43.58225" lon="3.75223">
        <ele>54.432</ele>
        <time>2020-10-09T12:07:15.000Z</time>
      </trkpt>
      <trkpt lat="43.58222" lon="3.75218">
        <ele>54.532</ele>
        <time>2020-10-09T12:07:16.000Z</time>
      </trkpt>
      <trkpt lat="43.5822" lon="3.75212">
        <ele>54.632</ele>
        <time>2020-10-09T12:07:17.000Z</time>
      </trkpt>
      <trkpt lat="43.58217" lon="3.75206">
        <ele>54.732</ele>
        <time>2020-10-09T12:07:18.000Z</time>
      </trkpt>
      <trkpt lat="43.58214" lon="3.752">
        <ele>54.832</ele>
        <time>2020-10-09T12:07:19.000Z</time>
      </trkpt>
      <trkpt lat="43.58212" lon="3.75194">
        <ele>54.932</ele>
        <time>2020-10-09T12:07:20.000Z</time>
      </trkpt>
      <trkpt lat="43.58209" lon="3.75188">
        <ele>55.031465103312</ele>
        <time>2020-10-09T12:07:21.000Z</time>
      </trkpt>
      <trkpt lat="43.58206" lon="3.75182">
        <ele>55.129793551164</ele>
        <time>2020-10-09T12:07:22.000Z</time>
      </trkpt>
      <trkpt lat="43.58204" lon="3.75177">
        <ele>55.228121999016</ele>
        <time>2020-10-09T12:07:23.000Z</time>
      </trkpt>
      <trkpt lat="43.58201" lon="3.75171">
        <ele>55.326450446867</ele>
        <time>2020-10-09T12:07:24.000Z</time>
      </trkpt>
      <trkpt lat="43.58199" lon="3.75165">
        <ele>55.424778894719</ele>
        <time>2020-10-09T12:07:25.000Z</time>
      </trkpt>
      <trkpt lat="43.58196" lon="3.75159">
        <ele>55.523107342571</ele>
        <time>2020-10-09T12:07:26.000Z</time>
      </trkpt>
      <trkpt lat="43.58194" lon="3.75154">
        <ele>55.621435790422</ele>
        <time>2020-10-09T12:07:27.000Z</time>
      </trkpt>
      <trkpt lat="43.58191" lon="3.75148">
        <ele>55.719764238274</ele>
        <time>2020-10-09T12:07:28.000Z</time>
      </trkpt>
      <trkpt lat="43.58189" lon="3.75142">
        <ele>55.818092686126</ele>
        <time>2020-10-09T12:07:29.000Z</time>
      </trkpt>
      <trkpt lat="43.58186" lon="3.75136">
        <ele>55.916421133977</ele>
        <time>2020-10-09T12:07:30.000Z</time>
      </trkpt>
      <trkpt lat="43.58184" lon="3.7513">
        <ele>56</ele>
        <time>2020-10-09T12:07:31.000Z</time>
      </trkpt>
      <trkpt lat="43.58181" lon="3.75125">
        <ele>56</ele>
        <time>2020-10-09T12:07:32.000Z</time>
      </trkpt>
      <trkpt lat="43.58179" lon="3.75119">
        <ele>56</ele>
        <time>2020-10-09T12:07:33.000Z</time>
      </trkpt>
      <trkpt lat="43.58176" lon="3.75113">
        <ele>56</ele>
        <time>2020-10-09T12:07:34.000Z</time>
      </trkpt>
      <trkpt lat="43.58174" lon="3.75108">
        <ele>56</ele>
        <time>2020-10-09T12:07:35.000Z</time>
      </trkpt>
      <trkpt lat="43.58171" lon="3.75103">
        <ele>56</ele>
        <time>2020-10-09T12:07:36.000Z</time>
      </trkpt>
      <trkpt lat="43.58169" lon="3.75097">
        <ele>56</ele>
        <time>2020-10-09T12:07:37.000Z</time>
      </trkpt>
      <trkpt lat="43.58166" lon="3.75092">
        <ele>56</ele>
        <time>2020-10-09T12:07:38.000Z</time>
      </trkpt>
      <trkpt lat="43.58164" lon="3.75087">
        <ele>56</ele>
        <time>2020-10-09T12:07:39.000Z</time>
      </trkpt>
      <trkpt lat="43.58162" lon="3.75081">
        <ele>56</ele>
        <time>2020-10-09T12:07:40.000Z</time>
      </trkpt>
      <trkpt lat="43.58159" lon="3.75075">
        <ele>56.030947756473</ele>
        <time>2020-10-09T12:07:41.000Z</time>
      </trkpt>
      <trkpt lat="43.58157" lon="3.7507">
        <ele>56.127659495452</ele>
        <time>2020-10-09T12:07:42.000Z</time>
      </trkpt>
      <trkpt lat="43.58155" lon="3.75064">
        <ele>56.224371234432</ele>
        <time>2020-10-09T12:07:43.000Z</time>
      </trkpt>
      <trkpt lat="43.58152" lon="3.75059">
        <ele>56.321082973411</ele>
        <time>2020-10-09T12:07:44.000Z</time>
      </trkpt>
      <trkpt lat="43.5815" lon="3.75054">
        <ele>56.41779471239</ele>
        <time>2020-10-09T12:07:45.000Z</time>
      </trkpt>
      <trkpt lat="43.58148" lon="3.75049">
        <ele>56.514506451369</ele>
        <time>2020-10-09T12:07:46.000Z</time>
      </trkpt>
      <trkpt lat="43.58145" lon="3.75044">
        <ele>56.611218190349</ele>
        <time>2020-10-09T12:07:47.000Z</time>
      </trkpt>
      <trkpt lat="43.58143" lon="3.75039">
        <ele>56.707929929328</ele>
        <time>2020-10-09T12:07:48.000Z</time>
      </trkpt>
      <trkpt lat="43.58141" lon="3.75034">
        <ele>56.804641668307</ele>
        <time>2020-10-09T12:07:49.000Z</time>
      </trkpt>
      <trkpt lat="43.58139" lon="3.75029">
        <ele>56.901353407286</ele>
        <time>2020-10-09T12:07:50.000Z</time>
      </trkpt>
      <trkpt lat="43.58137" lon="3.75024">
        <ele>56.998065146265</ele>
        <time>2020-10-09T12:07:51.000Z</time>
      </trkpt>
      <trkpt lat="43.58135" lon="3.75019">
        <ele>57.098491914123</ele>
        <time>2020-10-09T12:07:52.000Z</time>
      </trkpt>
      <trkpt lat="43.58132" lon="3.75014">
        <ele>57.198994523653</ele>
        <time>2020-10-09T12:07:53.000Z</time>
      </trkpt>
      <trkpt lat="43.5813" lon="3.75008">
        <ele>57.299497133183</ele>
        <time>2020-10-09T12:07:54.000Z</time>
      </trkpt>
      <trkpt lat="43.58127" lon="3.75003">
        <ele>57.399999742713</ele>
        <time>2020-10-09T12:07:55.000Z</time>
      </trkpt>
      <trkpt lat="43.58124" lon="3.74997">
        <ele>57.500502352244</ele>
        <time>2020-10-09T12:07:56.000Z</time>
      </trkpt>
      <trkpt lat="43.58122" lon="3.74991">
        <ele>57.601004961774</ele>
        <time>2020-10-09T12:07:57.000Z</time>
      </trkpt>
      <trkpt lat="43.58119" lon="3.74986">
        <ele>57.701507571304</ele>
        <time>2020-10-09T12:07:58.000Z</time>
      </trkpt>
      <trkpt lat="43.58116" lon="3.7498">
        <ele>57.802010180834</ele>
        <time>2020-10-09T12:07:59.000Z</time>
      </trkpt>
      <trkpt lat="43.58113" lon="3.74974">
        <ele>57.902512790364</ele>
        <time>2020-10-09T12:08:00.000Z</time>
      </trkpt>
      <trkpt lat="43.58111" lon="3.74968">
        <ele>58</ele>
        <time>2020-10-09T12:08:01.000Z</time>
      </trkpt>
      <trkpt lat="43.58108" lon="3.74963">
        <ele>58</ele>
        <time>2020-10-09T12:08:02.000Z</time>
      </trkpt>
      <trkpt lat="43.58105" lon="3.74958">
        <ele>58</ele>
        <time>2020-10-09T12:08:03.000Z</time>
      </trkpt>
      <trkpt lat="43.58102" lon="3.74953">
        <ele>58</ele>
        <time>2020-10-09T12:08:04.000Z</time>
      </trkpt>
      <trkpt lat="43.581" lon="3.74947">
        <ele>58</ele>
        <time>2020-10-09T12:08:05.000Z</time>
      </trkpt>
      <trkpt lat="43.58097" lon="3.74942">
        <ele>58</ele>
        <time>2020-10-09T12:08:06.000Z</time>
      </trkpt>
      <trkpt lat="43.58095" lon="3.74936">
        <ele>58</ele>
        <time>2020-10-09T12:08:07.000Z</time>
      </trkpt>
      <trkpt lat="43.58092" lon="3.74931">
        <ele>58</ele>
        <time>2020-10-09T12:08:08.000Z</time>
      </trkpt>
      <trkpt lat="43.5809" lon="3.74925">
        <ele>58</ele>
        <time>2020-10-09T12:08:09.000Z</time>
      </trkpt>
      <trkpt lat="43.58087" lon="3.7492">
        <ele>58</ele>
        <time>2020-10-09T12:08:10.000Z</time>
      </trkpt>
      <trkpt lat="43.58084" lon="3.74914">
        <ele>58.02999936</ele>
        <time>2020-10-09T12:08:11.000Z</time>
      </trkpt>
      <trkpt lat="43.58081" lon="3.74909">
        <ele>58.12999936</ele>
        <time>2020-10-09T12:08:12.000Z</time>
      </trkpt>
      <trkpt lat="43.58078" lon="3.74904">
        <ele>58.22999936</ele>
        <time>2020-10-09T12:08:13.000Z</time>
      </trkpt>
      <trkpt lat="43.58075" lon="3.74899">
        <ele>58.32999936</ele>
        <time>2020-10-09T12:08:14.000Z</time>
      </trkpt>
      <trkpt lat="43.58072" lon="3.74893">
        <ele>58.42999936</ele>
        <time>2020-10-09T12:08:15.000Z</time>
      </trkpt>
      <trkpt lat="43.5807" lon="3.74887">
        <ele>58.52999936</ele>
        <time>2020-10-09T12:08:16.000Z</time>
      </trkpt>
      <trkpt lat="43.58067" lon="3.74882">
        <ele>58.62999936</ele>
        <time>2020-10-09T12:08:17.000Z</time>
      </trkpt>
      <trkpt lat="43.58065" lon="3.74876">
        <ele>58.72999936</ele>
        <time>2020-10-09T12:08:18.000Z</time>
      </trkpt>
      <trkpt lat="43.58062" lon="3.7487">
        <ele>58.82999936</ele>
        <time>2020-10-09T12:08:19.000Z</time>
      </trkpt>
      <trkpt lat="43.58059" lon="3.74865">
        <ele>58.92999936</ele>
        <time>2020-10-09T12:08:20.000Z</time>
      </trkpt>
      <trkpt lat="43.58056" lon="3.74859">
        <ele>59</ele>
        <time>2020-10-09T12:08:21.000Z</time>
      </trkpt>
      <trkpt lat="43.58054" lon="3.74854">
        <ele>59</ele>
        <time>2020-10-09T12:08:22.000Z</time>
      </trkpt>
      <trkpt lat="43.58051" lon="3.74848">
        <ele>59</ele>
        <time>2020-10-09T12:08:23.000Z</time>
      </trkpt>
      <trkpt lat="43.58048" lon="3.74843">
        <ele>59</ele>
        <time>2020-10-09T12:08:24.000Z</time>
      </trkpt>
      <trkpt lat="43.58046" lon="3.74837">
        <ele>59</ele>
        <time>2020-10-09T12:08:25.000Z</time>
      </trkpt>
      <trkpt lat="43.58043" lon="3.74832">
        <ele>59</ele>
        <time>2020-10-09T12:08:26.000Z</time>
      </trkpt>
      <trkpt lat="43.58041" lon="3.74826">
        <ele>59</ele>
        <time>2020-10-09T12:08:27.000Z</time>
      </trkpt>
      <trkpt lat="43.58038" lon="3.74821">
        <ele>59</ele>
        <time>2020-10-09T12:08:28.000Z</time>
      </trkpt>
      <trkpt lat="43.58035" lon="3.74816">
        <ele>59</ele>
        <time>2020-10-09T12:08:29.000Z</time>
      </trkpt>
      <trkpt lat="43.58033" lon="3.7481">
        <ele>59</ele>
        <time>2020-10-09T12:08:30.000Z</time>
      </trkpt>
      <trkpt lat="43.5803" lon="3.74805">
        <ele>59</ele>
        <time>2020-10-09T12:08:31.000Z</time>
      </trkpt>
      <trkpt lat="43.58028" lon="3.74799">
        <ele>59</ele>
        <time>2020-10-09T12:08:32.000Z</time>
      </trkpt>
      <trkpt lat="43.58025" lon="3.74794">
        <ele>59</ele>
        <time>2020-10-09T12:08:33.000Z</time>
      </trkpt>
      <trkpt lat="43.58022" lon="3.74788">
        <ele>59</ele>
        <time>2020-10-09T12:08:34.000Z</time>
      </trkpt>
      <trkpt lat="43.5802" lon="3.74782">
        <ele>59</ele>
        <time>2020-10-09T12:08:35.000Z</time>
      </trkpt>
      <trkpt lat="43.58017" lon="3.74777">
        <ele>59</ele>
        <time>2020-10-09T12:08:36.000Z</time>
      </trkpt>
      <trkpt lat="43.58015" lon="3.74771">
        <ele>59</ele>
        <time>2020-10-09T12:08:37.000Z</time>
      </trkpt>
      <trkpt lat="43.58013" lon="3.74766">
        <ele>59</ele>
        <time>2020-10-09T12:08:38.000Z</time>
      </trkpt>
      <trkpt lat="43.5801" lon="3.7476">
        <ele>59</ele>
        <time>2020-10-09T12:08:39.000Z</time>
      </trkpt>
      <trkpt lat="43.58007" lon="3.74755">
        <ele>59</ele>
        <time>2020-10-09T12:08:40.000Z</time>
      </trkpt>
      <trkpt lat="43.58005" lon="3.74749">
        <ele>59</ele>
        <time>2020-10-09T12:08:41.000Z</time>
      </trkpt>
      <trkpt lat="43.58002" lon="3.74743">
        <ele>59</ele>
        <time>2020-10-09T12:08:42.000Z</time>
      </trkpt>
      <trkpt lat="43.57999" lon="3.74737">
        <ele>59</ele>
        <time>2020-10-09T12:08:43.000Z</time>
      </trkpt>
      <trkpt lat="43.57996" lon="3.74731">
        <ele>59</ele>
        <time>2020-10-09T12:08:44.000Z</time>
      </trkpt>
      <trkpt lat="43.57993" lon="3.74726">
        <ele>59</ele>
        <time>2020-10-09T12:08:45.000Z</time>
      </trkpt>
      <trkpt lat="43.57991" lon="3.7472">
        <ele>59</ele>
        <time>2020-10-09T12:08:46.000Z</time>
      </trkpt>
      <trkpt lat="43.57988" lon="3.74714">
        <ele>59</ele>
        <time>2020-10-09T12:08:47.000Z</time>
      </trkpt>
      <trkpt lat="43.57986" lon="3.74709">
        <ele>59</ele>
        <time>2020-10-09T12:08:48.000Z</time>
      </trkpt>
      <trkpt lat="43.57983" lon="3.74703">
        <ele>59</ele>
        <time>2020-10-09T12:08:49.000Z</time>
      </trkpt>
      <trkpt lat="43.5798" lon="3.74698">
        <ele>59</ele>
        <time>2020-10-09T12:08:50.000Z</time>
      </trkpt>
      <trkpt lat="43.57978" lon="3.74692">
        <ele>59.032</ele>
        <time>2020-10-09T12:08:51.000Z</time>
      </trkpt>
      <trkpt lat="43.57975" lon="3.74686">
        <ele>59.132</ele>
        <time>2020-10-09T12:08:52.000Z</time>
      </trkpt>
      <trkpt lat="43.57973" lon="3.74681">
        <ele>59.232</ele>
        <time>2020-10-09T12:08:53.000Z</time>
      </trkpt>
      <trkpt lat="43.5797" lon="3.74675">
        <ele>59.332</ele>
        <time>2020-10-09T12:08:54.000Z</time>
      </trkpt>
      <trkpt lat="43.57968" lon="3.7467">
        <ele>59.432</ele>
        <time>2020-10-09T12:08:55.000Z</time>
      </trkpt>
      <trkpt lat="43.57965" lon="3.74664">
        <ele>59.532</ele>
        <time>2020-10-09T12:08:56.000Z</time>
      </trkpt>
      <trkpt lat="43.57962" lon="3.74659">
        <ele>59.632</ele>
        <time>2020-10-09T12:08:57.000Z</time>
      </trkpt>
      <trkpt lat="43.5796" lon="3.74654">
        <ele>59.732</ele>
        <time>2020-10-09T12:08:58.000Z</time>
      </trkpt>
      <trkpt lat="43.57957" lon="3.74648">
        <ele>59.832</ele>
        <time>2020-10-09T12:08:59.000Z</time>
      </trkpt>
      <trkpt lat="43.57954" lon="3.74643">
        <ele>59.932</ele>
        <time>2020-10-09T12:09:00.000Z</time>
      </trkpt>
      <trkpt lat="43.57952" lon="3.74637">
        <ele>60</ele>
        <time>2020-10-09T12:09:01.000Z</time>
      </trkpt>
      <trkpt lat="43.57949" lon="3.74631">
        <ele>60</ele>
        <time>2020-10-09T12:09:02.000Z</time>
      </trkpt>
      <trkpt lat="43.57947" lon="3.74626">
        <ele>60</ele>
        <time>2020-10-09T12:09:03.000Z</time>
      </trkpt>
      <trkpt lat="43.57944" lon="3.7462">
        <ele>60</ele>
        <time>2020-10-09T12:09:04.000Z</time>
      </trkpt>
      <trkpt lat="43.57941" lon="3.74614">
        <ele>60</ele>
        <time>2020-10-09T12:09:05.000Z</time>
      </trkpt>
      <trkpt lat="43.57939" lon="3.74609">
        <ele>60</ele>
        <time>2020-10-09T12:09:06.000Z</time>
      </trkpt>
      <trkpt lat="43.57936" lon="3.74604">
        <ele>60</ele>
        <time>2020-10-09T12:09:07.000Z</time>
      </trkpt>
      <trkpt lat="43.57934" lon="3.74599">
        <ele>60</ele>
        <time>2020-10-09T12:09:08.000Z</time>
      </trkpt>
      <trkpt lat="43.57931" lon="3.74593">
        <ele>60</ele>
        <time>2020-10-09T12:09:09.000Z</time>
      </trkpt>
      <trkpt lat="43.57929" lon="3.74588">
        <ele>60</ele>
        <time>2020-10-09T12:09:10.000Z</time>
      </trkpt>
      <trkpt lat="43.57927" lon="3.74583">
        <ele>60.048338384157</ele>
        <time>2020-10-09T12:09:11.000Z</time>
      </trkpt>
      <trkpt lat="43.57926" lon="3.74577">
        <ele>60.249748318147</ele>
        <time>2020-10-09T12:09:12.000Z</time>
      </trkpt>
      <trkpt lat="43.57925" lon="3.74571">
        <ele>60.451158252136</ele>
        <time>2020-10-09T12:09:13.000Z</time>
      </trkpt>
      <trkpt lat="43.57924" lon="3.74566">
        <ele>60.652568186125</ele>
        <time>2020-10-09T12:09:14.000Z</time>
      </trkpt>
      <trkpt lat="43.57923" lon="3.74561">
        <ele>60.853978120114</ele>
        <time>2020-10-09T12:09:15.000Z</time>
      </trkpt>
      <trkpt lat="43.57922" lon="3.74556">
        <ele>61.055388054103</ele>
        <time>2020-10-09T12:09:16.000Z</time>
      </trkpt>
      <trkpt lat="43.57921" lon="3.74552">
        <ele>61.256797988092</ele>
        <time>2020-10-09T12:09:17.000Z</time>
      </trkpt>
      <trkpt lat="43.5792" lon="3.74548">
        <ele>61.458207922081</ele>
        <time>2020-10-09T12:09:18.000Z</time>
      </trkpt>
      <trkpt lat="43.57919" lon="3.74544">
        <ele>61.65961785607</ele>
        <time>2020-10-09T12:09:19.000Z</time>
      </trkpt>
      <trkpt lat="43.57918" lon="3.74541">
        <ele>61.861027790059</ele>
        <time>2020-10-09T12:09:20.000Z</time>
      </trkpt>
      <trkpt lat="43.57918" lon="3.74537">
        <ele>62.031031341411</ele>
        <time>2020-10-09T12:09:21.000Z</time>
      </trkpt>
      <trkpt lat="43.57917" lon="3.74534">
        <ele>62.131131409447</ele>
        <time>2020-10-09T12:09:22.000Z</time>
      </trkpt>
      <trkpt lat="43.57916" lon="3.7453">
        <ele>62.231231477483</ele>
        <time>2020-10-09T12:09:23.000Z</time>
      </trkpt>
      <trkpt lat="43.57916" lon="3.74527">
        <ele>62.331331545519</ele>
        <time>2020-10-09T12:09:24.000Z</time>
      </trkpt>
      <trkpt lat="43.57915" lon="3.74524">
        <ele>62.431431613555</ele>
        <time>2020-10-09T12:09:25.000Z</time>
      </trkpt>
      <trkpt lat="43.57914" lon="3.7452">
        <ele>62.531531681592</ele>
        <time>2020-10-09T12:09:26.000Z</time>
      </trkpt>
      <trkpt lat="43.57913" lon="3.74517">
        <ele>62.631631749628</ele>
        <time>2020-10-09T12:09:27.000Z</time>
      </trkpt>
      <trkpt lat="43.57912" lon="3.74515">
        <ele>62.731731817664</ele>
        <time>2020-10-09T12:09:28.000Z</time>
      </trkpt>
      <trkpt lat="43.57911" lon="3.74512">
        <ele>62.8318318857</ele>
        <time>2020-10-09T12:09:29.000Z</time>
      </trkpt>
      <trkpt lat="43.57909" lon="3.74509">
        <ele>62.931931953735</ele>
        <time>2020-10-09T12:09:30.000Z</time>
      </trkpt>
      <trkpt lat="43.57908" lon="3.74506">
        <ele>63.031219521942</ele>
        <time>2020-10-09T12:09:31.000Z</time>
      </trkpt>
      <trkpt lat="43.57907" lon="3.74503">
        <ele>63.12878052801</ele>
        <time>2020-10-09T12:09:32.000Z</time>
      </trkpt>
      <trkpt lat="43.57905" lon="3.745">
        <ele>63.226341534077</ele>
        <time>2020-10-09T12:09:33.000Z</time>
      </trkpt>
      <trkpt lat="43.57903" lon="3.74496">
        <ele>63.323902540145</ele>
        <time>2020-10-09T12:09:34.000Z</time>
      </trkpt>
      <trkpt lat="43.57902" lon="3.74493">
        <ele>63.421463546213</ele>
        <time>2020-10-09T12:09:35.000Z</time>
      </trkpt>
      <trkpt lat="43.579" lon="3.7449">
        <ele>63.519024552281</ele>
        <time>2020-10-09T12:09:36.000Z</time>
      </trkpt>
      <trkpt lat="43.57899" lon="3.74487">
        <ele>63.616585558349</ele>
        <time>2020-10-09T12:09:37.000Z</time>
      </trkpt>
      <trkpt lat="43.57897" lon="3.74484">
        <ele>63.714146564417</ele>
        <time>2020-10-09T12:09:38.000Z</time>
      </trkpt>
      <trkpt lat="43.57896" lon="3.74481">
        <ele>63.811707570484</ele>
        <time>2020-10-09T12:09:39.000Z</time>
      </trkpt>
      <trkpt lat="43.57894" lon="3.74478">
        <ele>63.909268576552</ele>
        <time>2020-10-09T12:09:40.000Z</time>
      </trkpt>
      <trkpt lat="43.57893" lon="3.74475">
        <ele>64.006972430279</ele>
        <time>2020-10-09T12:09:41.000Z</time>
      </trkpt>
      <trkpt lat="43.57891" lon="3.74471">
        <ele>64.106574023904</ele>
        <time>2020-10-09T12:09:42.000Z</time>
      </trkpt>
      <trkpt lat="43.5789" lon="3.74468">
        <ele>64.20617561753</ele>
        <time>2020-10-09T12:09:43.000Z</time>
      </trkpt>
      <trkpt lat="43.57888" lon="3.74465">
        <ele>64.305777211155</ele>
        <time>2020-10-09T12:09:44.000Z</time>
      </trkpt>
      <trkpt lat="43.57887" lon="3.74462">
        <ele>64.405378804781</ele>
        <time>2020-10-09T12:09:45.000Z</time>
      </trkpt>
      <trkpt lat="43.57886" lon="3.74459">
        <ele>64.504980398406</ele>
        <time>2020-10-09T12:09:46.000Z</time>
      </trkpt>
      <trkpt lat="43.57884" lon="3.74456">
        <ele>64.604581992032</ele>
        <time>2020-10-09T12:09:47.000Z</time>
      </trkpt>
      <trkpt lat="43.57883" lon="3.74452">
        <ele>64.704183585657</ele>
        <time>2020-10-09T12:09:48.000Z</time>
      </trkpt>
      <trkpt lat="43.57881" lon="3.74449">
        <ele>64.803785179283</ele>
        <time>2020-10-09T12:09:49.000Z</time>
      </trkpt>
      <trkpt lat="43.5788" lon="3.74445">
        <ele>64.903386772908</ele>
        <time>2020-10-09T12:09:50.000Z</time>
      </trkpt>
      <trkpt lat="43.57878" lon="3.74442">
        <ele>65.006173497942</ele>
        <time>2020-10-09T12:09:51.000Z</time>
      </trkpt>
      <trkpt lat="43.57877" lon="3.74439">
        <ele>65.211934814815</ele>
        <time>2020-10-09T12:09:52.000Z</time>
      </trkpt>
      <trkpt lat="43.57875" lon="3.74436">
        <ele>65.417696131687</ele>
        <time>2020-10-09T12:09:53.000Z</time>
      </trkpt>
      <trkpt lat="43.57873" lon="3.74432">
        <ele>65.62345744856</ele>
        <time>2020-10-09T12:09:54.000Z</time>
      </trkpt>
      <trkpt lat="43.57872" lon="3.74429">
        <ele>65.829218765432</ele>
        <time>2020-10-09T12:09:55.000Z</time>
      </trkpt>
      <trkpt lat="43.5787" lon="3.74426">
        <ele>66.034980082305</ele>
        <time>2020-10-09T12:09:56.000Z</time>
      </trkpt>
      <trkpt lat="43.57868" lon="3.74423">
        <ele>66.240741399177</ele>
        <time>2020-10-09T12:09:57.000Z</time>
      </trkpt>
      <trkpt lat="43.57867" lon="3.7442">
        <ele>66.446502716049</ele>
        <time>2020-10-09T12:09:58.000Z</time>
      </trkpt>
      <trkpt lat="43.57865" lon="3.74418">
        <ele>66.652264032922</ele>
        <time>2020-10-09T12:09:59.000Z</time>
      </trkpt>
      <trkpt lat="43.57863" lon="3.74416">
        <ele>66.858025349794</ele>
        <time>2020-10-09T12:10:00.000Z</time>
      </trkpt>
      <trkpt lat="43.57861" lon="3.74413">
        <ele>66.968968658589</ele>
        <time>2020-10-09T12:10:01.000Z</time>
      </trkpt>
      <trkpt lat="43.57859" lon="3.7441">
        <ele>66.868868590553</ele>
        <time>2020-10-09T12:10:02.000Z</time>
      </trkpt>
      <trkpt lat="43.57857" lon="3.74407">
        <ele>66.768768522517</ele>
        <time>2020-10-09T12:10:03.000Z</time>
      </trkpt>
      <trkpt lat="43.57855" lon="3.74403">
        <ele>66.668668454481</ele>
        <time>2020-10-09T12:10:04.000Z</time>
      </trkpt>
      <trkpt lat="43.57853" lon="3.744">
        <ele>66.568568386445</ele>
        <time>2020-10-09T12:10:05.000Z</time>
      </trkpt>
      <trkpt lat="43.5785" lon="3.74396">
        <ele>66.468468318408</ele>
        <time>2020-10-09T12:10:06.000Z</time>
      </trkpt>
      <trkpt lat="43.57848" lon="3.74392">
        <ele>66.368368250372</ele>
        <time>2020-10-09T12:10:07.000Z</time>
      </trkpt>
      <trkpt lat="43.57845" lon="3.74387">
        <ele>66.268268182336</ele>
        <time>2020-10-09T12:10:08.000Z</time>
      </trkpt>
      <trkpt lat="43.57842" lon="3.74382">
        <ele>66.1681681143</ele>
        <time>2020-10-09T12:10:09.000Z</time>
      </trkpt>
      <trkpt lat="43.57839" lon="3.74376">
        <ele>66.068068046265</ele>
        <time>2020-10-09T12:10:10.000Z</time>
      </trkpt>
      <trkpt lat="43.57835" lon="3.74371">
        <ele>65.936</ele>
        <time>2020-10-09T12:10:11.000Z</time>
      </trkpt>
      <trkpt lat="43.57831" lon="3.74365">
        <ele>65.736</ele>
        <time>2020-10-09T12:10:12.000Z</time>
      </trkpt>
      <trkpt lat="43.57827" lon="3.74358">
        <ele>65.536</ele>
        <time>2020-10-09T12:10:13.000Z</time>
      </trkpt>
      <trkpt lat="43.57824" lon="3.74351">
        <ele>65.336</ele>
        <time>2020-10-09T12:10:14.000Z</time>
      </trkpt>
      <trkpt lat="43.5782" lon="3.74343">
        <ele>65.136</ele>
        <time>2020-10-09T12:10:15.000Z</time>
      </trkpt>
      <trkpt lat="43.57815" lon="3.74336">
        <ele>64.936</ele>
        <time>2020-10-09T12:10:16.000Z</time>
      </trkpt>
      <trkpt lat="43.57811" lon="3.74329">
        <ele>64.736</ele>
        <time>2020-10-09T12:10:17.000Z</time>
      </trkpt>
      <trkpt lat="43.57807" lon="3.74321">
        <ele>64.536</ele>
        <time>2020-10-09T12:10:18.000Z</time>
      </trkpt>
      <trkpt lat="43.57804" lon="3.74313">
        <ele>64.336</ele>
        <time>2020-10-09T12:10:19.000Z</time>
      </trkpt>
      <trkpt lat="43.578" lon="3.74305">
        <ele>64.136</ele>
        <time>2020-10-09T12:10:20.000Z</time>
      </trkpt>
      <trkpt lat="43.57796" lon="3.74297">
        <ele>63.904</ele>
        <time>2020-10-09T12:10:21.000Z</time>
      </trkpt>
      <trkpt lat="43.57792" lon="3.7429">
        <ele>63.604</ele>
        <time>2020-10-09T12:10:22.000Z</time>
      </trkpt>
      <trkpt lat="43.57788" lon="3.74282">
        <ele>63.304</ele>
        <time>2020-10-09T12:10:23.000Z</time>
      </trkpt>
      <trkpt lat="43.57784" lon="3.74275">
        <ele>63.004</ele>
        <time>2020-10-09T12:10:24.000Z</time>
      </trkpt>
      <trkpt lat="43.5778" lon="3.74267">
        <ele>62.704</ele>
        <time>2020-10-09T12:10:25.000Z</time>
      </trkpt>
      <trkpt lat="43.57776" lon="3.7426">
        <ele>62.404</ele>
        <time>2020-10-09T12:10:26.000Z</time>
      </trkpt>
      <trkpt lat="43.57773" lon="3.74253">
        <ele>62.104</ele>
        <time>2020-10-09T12:10:27.000Z</time>
      </trkpt>
      <trkpt lat="43.57771" lon="3.74245">
        <ele>61.804</ele>
        <time>2020-10-09T12:10:28.000Z</time>
      </trkpt>
      <trkpt lat="43.57769" lon="3.74237">
        <ele>61.504</ele>
        <time>2020-10-09T12:10:29.000Z</time>
      </trkpt>
      <trkpt lat="43.57768" lon="3.74229">
        <ele>61.204</ele>
        <time>2020-10-09T12:10:30.000Z</time>
      </trkpt>
      <trkpt lat="43.57768" lon="3.74221">
        <ele>61</ele>
        <time>2020-10-09T12:10:31.000Z</time>
      </trkpt>
      <trkpt lat="43.57767" lon="3.74213">
        <ele>61</ele>
        <time>2020-10-09T12:10:32.000Z</time>
      </trkpt>
      <trkpt lat="43.57766" lon="3.74206">
        <ele>61</ele>
        <time>2020-10-09T12:10:33.000Z</time>
      </trkpt>
      <trkpt lat="43.57765" lon="3.742">
        <ele>61</ele>
        <time>2020-10-09T12:10:34.000Z</time>
      </trkpt>
      <trkpt lat="43.57765" lon="3.74192">
        <ele>61</ele>
        <time>2020-10-09T12:10:35.000Z</time>
      </trkpt>
      <trkpt lat="43.57764" lon="3.74185">
        <ele>61</ele>
        <time>2020-10-09T12:10:36.000Z</time>
      </trkpt>
      <trkpt lat="43.57764" lon="3.74179">
        <ele>61</ele>
        <time>2020-10-09T12:10:37.000Z</time>
      </trkpt>
      <trkpt lat="43.57764" lon="3.74172">
        <ele>61</ele>
        <time>2020-10-09T12:10:38.000Z</time>
      </trkpt>
      <trkpt lat="43.57765" lon="3.74166">
        <ele>61</ele>
        <time>2020-10-09T12:10:39.000Z</time>
      </trkpt>
      <trkpt lat="43.57765" lon="3.7416">
        <ele>61</ele>
        <time>2020-10-09T12:10:40.000Z</time>
      </trkpt>
      <trkpt lat="43.57766" lon="3.74153">
        <ele>60.996910073109</ele>
        <time>2020-10-09T12:10:41.000Z</time>
      </trkpt>
      <trkpt lat="43.57767" lon="3.74147">
        <ele>60.893923495308</ele>
        <time>2020-10-09T12:10:42.000Z</time>
      </trkpt>
      <trkpt lat="43.57768" lon="3.74141">
        <ele>60.790936917508</ele>
        <time>2020-10-09T12:10:43.000Z</time>
      </trkpt>
      <trkpt lat="43.5777" lon="3.74135">
        <ele>60.687950339707</ele>
        <time>2020-10-09T12:10:44.000Z</time>
      </trkpt>
      <trkpt lat="43.57772" lon="3.74129">
        <ele>60.584963761907</ele>
        <time>2020-10-09T12:10:45.000Z</time>
      </trkpt>
      <trkpt lat="43.57775" lon="3.74123">
        <ele>60.481977184106</ele>
        <time>2020-10-09T12:10:46.000Z</time>
      </trkpt>
      <trkpt lat="43.57777" lon="3.74118">
        <ele>60.378990606306</ele>
        <time>2020-10-09T12:10:47.000Z</time>
      </trkpt>
      <trkpt lat="43.57779" lon="3.74112">
        <ele>60.276004028505</ele>
        <time>2020-10-09T12:10:48.000Z</time>
      </trkpt>
      <trkpt lat="43.57782" lon="3.74107">
        <ele>60.173017450705</ele>
        <time>2020-10-09T12:10:49.000Z</time>
      </trkpt>
      <trkpt lat="43.57785" lon="3.74102">
        <ele>60.070030872904</ele>
        <time>2020-10-09T12:10:50.000Z</time>
      </trkpt>
      <trkpt lat="43.57788" lon="3.74098">
        <ele>59.968</ele>
        <time>2020-10-09T12:10:51.000Z</time>
      </trkpt>
      <trkpt lat="43.57792" lon="3.74095">
        <ele>59.868</ele>
        <time>2020-10-09T12:10:52.000Z</time>
      </trkpt>
      <trkpt lat="43.57795" lon="3.74091">
        <ele>59.768</ele>
        <time>2020-10-09T12:10:53.000Z</time>
      </trkpt>
      <trkpt lat="43.57798" lon="3.74088">
        <ele>59.668</ele>
        <time>2020-10-09T12:10:54.000Z</time>
      </trkpt>
      <trkpt lat="43.57801" lon="3.74085">
        <ele>59.568</ele>
        <time>2020-10-09T12:10:55.000Z</time>
      </trkpt>
      <trkpt lat="43.57804" lon="3.74082">
        <ele>59.468</ele>
        <time>2020-10-09T12:10:56.000Z</time>
      </trkpt>
      <trkpt lat="43.57807" lon="3.74079">
        <ele>59.368</ele>
        <time>2020-10-09T12:10:57.000Z</time>
      </trkpt>
      <trkpt lat="43.57809" lon="3.74076">
        <ele>59.268</ele>
        <time>2020-10-09T12:10:58.000Z</time>
      </trkpt>
      <trkpt lat="43.57812" lon="3.74073">
        <ele>59.168</ele>
        <time>2020-10-09T12:10:59.000Z</time>
      </trkpt>
      <trkpt lat="43.57814" lon="3.7407">
        <ele>59.068</ele>
        <time>2020-10-09T12:11:00.000Z</time>
      </trkpt>
      <trkpt lat="43.57816" lon="3.74067">
        <ele>59</ele>
        <time>2020-10-09T12:11:01.000Z</time>
      </trkpt>
      <trkpt lat="43.57818" lon="3.74064">
        <ele>59</ele>
        <time>2020-10-09T12:11:02.000Z</time>
      </trkpt>
      <trkpt lat="43.57821" lon="3.74061">
        <ele>59</ele>
        <time>2020-10-09T12:11:03.000Z</time>
      </trkpt>
      <trkpt lat="43.57823" lon="3.74058">
        <ele>59</ele>
        <time>2020-10-09T12:11:04.000Z</time>
      </trkpt>
      <trkpt lat="43.57826" lon="3.74055">
        <ele>59</ele>
        <time>2020-10-09T12:11:05.000Z</time>
      </trkpt>
      <trkpt lat="43.57828" lon="3.74053">
        <ele>59</ele>
        <time>2020-10-09T12:11:06.000Z</time>
      </trkpt>
      <trkpt lat="43.57831" lon="3.74051">
        <ele>59</ele>
        <time>2020-10-09T12:11:07.000Z</time>
      </trkpt>
      <trkpt lat="43.57834" lon="3.74049">
        <ele>59</ele>
        <time>2020-10-09T12:11:08.000Z</time>
      </trkpt>
      <trkpt lat="43.57837" lon="3.74046">
        <ele>59</ele>
        <time>2020-10-09T12:11:09.000Z</time>
      </trkpt>
      <trkpt lat="43.57839" lon="3.74043">
        <ele>59</ele>
        <time>2020-10-09T12:11:10.000Z</time>
      </trkpt>
      <trkpt lat="43.57842" lon="3.7404">
        <ele>59.032</ele>
        <time>2020-10-09T12:11:11.000Z</time>
      </trkpt>
      <trkpt lat="43.57845" lon="3.74038">
        <ele>59.132</ele>
        <time>2020-10-09T12:11:12.000Z</time>
      </trkpt>
      <trkpt lat="43.57848" lon="3.74035">
        <ele>59.232</ele>
        <time>2020-10-09T12:11:13.000Z</time>
      </trkpt>
      <trkpt lat="43.57851" lon="3.74033">
        <ele>59.332</ele>
        <time>2020-10-09T12:11:14.000Z</time>
      </trkpt>
      <trkpt lat="43.57854" lon="3.74031">
        <ele>59.432</ele>
        <time>2020-10-09T12:11:15.000Z</time>
      </trkpt>
      <trkpt lat="43.57857" lon="3.74028">
        <ele>59.532</ele>
        <time>2020-10-09T12:11:16.000Z</time>
      </trkpt>
      <trkpt lat="43.5786" lon="3.74027">
        <ele>59.632</ele>
        <time>2020-10-09T12:11:17.000Z</time>
      </trkpt>
      <trkpt lat="43.57864" lon="3.74025">
        <ele>59.732</ele>
        <time>2020-10-09T12:11:18.000Z</time>
      </trkpt>
      <trkpt lat="43.57867" lon="3.74025">
        <ele>59.832</ele>
        <time>2020-10-09T12:11:19.000Z</time>
      </trkpt>
      <trkpt lat="43.57871" lon="3.74024">
        <ele>59.932</ele>
        <time>2020-10-09T12:11:20.000Z</time>
      </trkpt>
      <trkpt lat="43.57874" lon="3.74023">
        <ele>60</ele>
        <time>2020-10-09T12:11:21.000Z</time>
      </trkpt>
      <trkpt lat="43.57878" lon="3.74023">
        <ele>60</ele>
        <time>2020-10-09T12:11:22.000Z</time>
      </trkpt>
      <trkpt lat="43.57881" lon="3.74021">
        <ele>60</ele>
        <time>2020-10-09T12:11:23.000Z</time>
      </trkpt>
      <trkpt lat="43.57884" lon="3.74019">
        <ele>60</ele>
        <time>2020-10-09T12:11:24.000Z</time>
      </trkpt>
      <trkpt lat="43.57887" lon="3.74017">
        <ele>60</ele>
        <time>2020-10-09T12:11:25.000Z</time>
      </trkpt>
      <trkpt lat="43.5789" lon="3.74017">
        <ele>60</ele>
        <time>2020-10-09T12:11:26.000Z</time>
      </trkpt>
      <trkpt lat="43.57892" lon="3.74017">
        <ele>60</ele>
        <time>2020-10-09T12:11:27.000Z</time>
      </trkpt>
      <trkpt lat="43.57895" lon="3.74017">
        <ele>60</ele>
        <time>2020-10-09T12:11:28.000Z</time>
      </trkpt>
      <trkpt lat="43.57897" lon="3.74017">
        <ele>60</ele>
        <time>2020-10-09T12:11:29.000Z</time>
      </trkpt>
      <trkpt lat="43.57899" lon="3.74016">
        <ele>60</ele>
        <time>2020-10-09T12:11:30.000Z</time>
      </trkpt>
      <trkpt lat="43.57902" lon="3.74016">
        <ele>60</ele>
        <time>2020-10-09T12:11:32.000Z</time>
      </trkpt>
      <trkpt lat="43.57905" lon="3.74015">
        <ele>60</ele>
        <time>2020-10-09T12:11:34.000Z</time>
      </trkpt>
      <trkpt lat="43.57908" lon="3.74014">
        <ele>60</ele>
        <time>2020-10-09T12:11:36.000Z</time>
      </trkpt>
      <trkpt lat="43.57911" lon="3.74014">
        <ele>60</ele>
        <time>2020-10-09T12:11:38.000Z</time>
      </trkpt>
      <trkpt lat="43.57914" lon="3.74013">
        <ele>60</ele>
        <time>2020-10-09T12:11:40.000Z</time>
      </trkpt>
      <trkpt lat="43.57917" lon="3.74013">
        <ele>60.264</ele>
        <time>2020-10-09T12:11:42.000Z</time>
      </trkpt>
      <trkpt lat="43.57919" lon="3.74011">
        <ele>60.664</ele>
        <time>2020-10-09T12:11:44.000Z</time>
      </trkpt>
      <trkpt lat="43.57922" lon="3.7401">
        <ele>61.064</ele>
        <time>2020-10-09T12:11:46.000Z</time>
      </trkpt>
      <trkpt lat="43.57925" lon="3.74008">
        <ele>61.464</ele>
        <time>2020-10-09T12:11:48.000Z</time>
      </trkpt>
      <trkpt lat="43.57928" lon="3.74005">
        <ele>61.864</ele>
        <time>2020-10-09T12:11:50.000Z</time>
      </trkpt>
      <trkpt lat="43.5793" lon="3.74002">
        <ele>62.132</ele>
        <time>2020-10-09T12:11:52.000Z</time>
      </trkpt>
      <trkpt lat="43.57931" lon="3.74">
        <ele>62.232</ele>
        <time>2020-10-09T12:11:53.000Z</time>
      </trkpt>
      <trkpt lat="43.57932" lon="3.73998">
        <ele>62.332</ele>
        <time>2020-10-09T12:11:54.000Z</time>
      </trkpt>
      <trkpt lat="43.57934" lon="3.73994">
        <ele>62.532</ele>
        <time>2020-10-09T12:11:56.000Z</time>
      </trkpt>
      <trkpt lat="43.57935" lon="3.7399">
        <ele>62.732</ele>
        <time>2020-10-09T12:11:58.000Z</time>
      </trkpt>
      <trkpt lat="43.57935" lon="3.73987">
        <ele>62.932</ele>
        <time>2020-10-09T12:12:00.000Z</time>
      </trkpt>
      <trkpt lat="43.57935" lon="3.73983">
        <ele>63.264</ele>
        <time>2020-10-09T12:12:02.000Z</time>
      </trkpt>
      <trkpt lat="43.57933" lon="3.73981">
        <ele>63.664</ele>
        <time>2020-10-09T12:12:04.000Z</time>
      </trkpt>
      <trkpt lat="43.57932" lon="3.73978">
        <ele>64.064</ele>
        <time>2020-10-09T12:12:06.000Z</time>
      </trkpt>
      <trkpt lat="43.57931" lon="3.73975">
        <ele>64.464</ele>
        <time>2020-10-09T12:12:08.000Z</time>
      </trkpt>
      <trkpt lat="43.5793" lon="3.73971">
        <ele>64.864</ele>
        <time>2020-10-09T12:12:10.000Z</time>
      </trkpt>
      <trkpt lat="43.57929" lon="3.73968">
        <ele>65.396</ele>
        <time>2020-10-09T12:12:12.000Z</time>
      </trkpt>
      <trkpt lat="43.57928" lon="3.73964">
        <ele>65.996</ele>
        <time>2020-10-09T12:12:14.000Z</time>
      </trkpt>
      <trkpt lat="43.57928" lon="3.73961">
        <ele>66.596</ele>
        <time>2020-10-09T12:12:16.000Z</time>
      </trkpt>
      <trkpt lat="43.57927" lon="3.73957">
        <ele>67.196</ele>
        <time>2020-10-09T12:12:18.000Z</time>
      </trkpt>
      <trkpt lat="43.57926" lon="3.73954">
        <ele>67.796</ele>
        <time>2020-10-09T12:12:20.000Z</time>
      </trkpt>
      <trkpt lat="43.57923" lon="3.73951">
        <ele>68</ele>
        <time>2020-10-09T12:12:22.000Z</time>
      </trkpt>
      <trkpt lat="43.57921" lon="3.73947">
        <ele>68</ele>
        <time>2020-10-09T12:12:24.000Z</time>
      </trkpt>
      <trkpt lat="43.5792" lon="3.73945">
        <ele>68</ele>
        <time>2020-10-09T12:12:25.000Z</time>
      </trkpt>
      <trkpt lat="43.57919" lon="3.73943">
        <ele>68</ele>
        <time>2020-10-09T12:12:26.000Z</time>
      </trkpt>
      <trkpt lat="43.57918" lon="3.73941">
        <ele>68</ele>
        <time>2020-10-09T12:12:27.000Z</time>
      </trkpt>
      <trkpt lat="43.57917" lon="3.73938">
        <ele>68</ele>
        <time>2020-10-09T12:12:28.000Z</time>
      </trkpt>
      <trkpt lat="43.57916" lon="3.73936">
        <ele>68</ele>
        <time>2020-10-09T12:12:29.000Z</time>
      </trkpt>
      <trkpt lat="43.57914" lon="3.73934">
        <ele>68</ele>
        <time>2020-10-09T12:12:30.000Z</time>
      </trkpt>
      <trkpt lat="43.57913" lon="3.73932">
        <ele>68.032</ele>
        <time>2020-10-09T12:12:31.000Z</time>
      </trkpt>
      <trkpt lat="43.57912" lon="3.7393">
        <ele>68.132</ele>
        <time>2020-10-09T12:12:32.000Z</time>
      </trkpt>
      <trkpt lat="43.5791" lon="3.73928">
        <ele>68.232</ele>
        <time>2020-10-09T12:12:33.000Z</time>
      </trkpt>
      <trkpt lat="43.5791" lon="3.73925">
        <ele>68.332</ele>
        <time>2020-10-09T12:12:34.000Z</time>
      </trkpt>
      <trkpt lat="43.57909" lon="3.73923">
        <ele>68.432</ele>
        <time>2020-10-09T12:12:35.000Z</time>
      </trkpt>
      <trkpt lat="43.57908" lon="3.7392">
        <ele>68.532</ele>
        <time>2020-10-09T12:12:36.000Z</time>
      </trkpt>
      <trkpt lat="43.57907" lon="3.73918">
        <ele>68.632</ele>
        <time>2020-10-09T12:12:37.000Z</time>
      </trkpt>
      <trkpt lat="43.57906" lon="3.73916">
        <ele>68.732</ele>
        <time>2020-10-09T12:12:38.000Z</time>
      </trkpt>
      <trkpt lat="43.57904" lon="3.73913">
        <ele>68.832</ele>
        <time>2020-10-09T12:12:39.000Z</time>
      </trkpt>
      <trkpt lat="43.57903" lon="3.73911">
        <ele>68.932</ele>
        <time>2020-10-09T12:12:40.000Z</time>
      </trkpt>
      <trkpt lat="43.57902" lon="3.73908">
        <ele>69.032</ele>
        <time>2020-10-09T12:12:41.000Z</time>
      </trkpt>
      <trkpt lat="43.57902" lon="3.73905">
        <ele>69.132</ele>
        <time>2020-10-09T12:12:42.000Z</time>
      </trkpt>
      <trkpt lat="43.57901" lon="3.73903">
        <ele>69.232</ele>
        <time>2020-10-09T12:12:43.000Z</time>
      </trkpt>
      <trkpt lat="43.57901" lon="3.739">
        <ele>69.332</ele>
        <time>2020-10-09T12:12:44.000Z</time>
      </trkpt>
      <trkpt lat="43.579" lon="3.73897">
        <ele>69.532</ele>
        <time>2020-10-09T12:12:46.000Z</time>
      </trkpt>
      <trkpt lat="43.579" lon="3.73897">
        <ele>70</ele>
        <time>2020-10-09T12:12:51.000Z</time>
      </trkpt>
      <trkpt lat="43.57901" lon="3.73902">
        <ele>70</ele>
        <time>2020-10-09T12:12:56.000Z</time>
      </trkpt>
      <trkpt lat="43.57901" lon="3.73903">
        <ele>70</ele>
        <time>2020-10-09T12:13:03.000Z</time>
      </trkpt>
      <trkpt lat="43.579" lon="3.73893">
        <ele>71.010224301169</ele>
        <time>2020-10-09T12:13:10.000Z</time>
      </trkpt>
      <trkpt lat="43.579" lon="3.73891">
        <ele>71.112473856834</ele>
        <time>2020-10-09T12:13:11.000Z</time>
      </trkpt>
      <trkpt lat="43.57899" lon="3.73887">
        <ele>71.316972968162</ele>
        <time>2020-10-09T12:13:13.000Z</time>
      </trkpt>
      <trkpt lat="43.57898" lon="3.73883">
        <ele>71.521472079491</ele>
        <time>2020-10-09T12:13:15.000Z</time>
      </trkpt>
      <trkpt lat="43.57897" lon="3.73879">
        <ele>71.72597119082</ele>
        <time>2020-10-09T12:13:17.000Z</time>
      </trkpt>
      <trkpt lat="43.57897" lon="3.73875">
        <ele>71.930470302148</ele>
        <time>2020-10-09T12:13:19.000Z</time>
      </trkpt>
      <trkpt lat="43.57896" lon="3.73872">
        <ele>72.253602383432</ele>
        <time>2020-10-09T12:13:21.000Z</time>
      </trkpt>
      <trkpt lat="43.57897" lon="3.73868">
        <ele>72.637848418935</ele>
        <time>2020-10-09T12:13:23.000Z</time>
      </trkpt>
      <trkpt lat="43.57896" lon="3.73865">
        <ele>73.598463507693</ele>
        <time>2020-10-09T12:13:28.000Z</time>
      </trkpt>
      <trkpt lat="43.57895" lon="3.73863">
        <ele>74.094890812967</ele>
        <time>2020-10-09T12:13:31.000Z</time>
      </trkpt>
      <trkpt lat="43.57895" lon="3.73859">
        <ele>74.407716568854</ele>
        <time>2020-10-09T12:13:34.000Z</time>
      </trkpt>
      <trkpt lat="43.57893" lon="3.73857">
        <ele>74.720542324741</ele>
        <time>2020-10-09T12:13:37.000Z</time>
      </trkpt>
      <trkpt lat="43.57893" lon="3.73855">
        <ele>75</ele>
        <time>2020-10-09T12:13:43.000Z</time>
      </trkpt>
      <trkpt lat="43.57892" lon="3.73851">
        <ele>75</ele>
        <time>2020-10-09T12:13:46.000Z</time>
      </trkpt>
      <trkpt lat="43.57891" lon="3.73849">
        <ele>75.299055378487</ele>
        <time>2020-10-09T12:13:49.000Z</time>
      </trkpt>
      <trkpt lat="43.5789" lon="3.73847">
        <ele>75.508919037622</ele>
        <time>2020-10-09T12:13:51.000Z</time>
      </trkpt>
      <trkpt lat="43.57888" lon="3.73845">
        <ele>75.718782696758</ele>
        <time>2020-10-09T12:13:53.000Z</time>
      </trkpt>
      <trkpt lat="43.57886" lon="3.73843">
        <ele>75.928646355894</ele>
        <time>2020-10-09T12:13:55.000Z</time>
      </trkpt>
      <trkpt lat="43.57884" lon="3.73841">
        <ele>76.256310520351</ele>
        <time>2020-10-09T12:13:57.000Z</time>
      </trkpt>
      <trkpt lat="43.57882" lon="3.73839">
        <ele>76.644659793609</ele>
        <time>2020-10-09T12:13:59.000Z</time>
      </trkpt>
      <trkpt lat="43.57879" lon="3.73837">
        <ele>77.033009066868</ele>
        <time>2020-10-09T12:14:01.000Z</time>
      </trkpt>
      <trkpt lat="43.57876" lon="3.73834">
        <ele>77.421358340127</ele>
        <time>2020-10-09T12:14:03.000Z</time>
      </trkpt>
      <trkpt lat="43.57874" lon="3.73831">
        <ele>77.809707613386</ele>
        <time>2020-10-09T12:14:05.000Z</time>
      </trkpt>
      <trkpt lat="43.57873" lon="3.73828">
        <ele>78.105154048761</ele>
        <time>2020-10-09T12:14:07.000Z</time>
      </trkpt>
      <trkpt lat="43.5787" lon="3.73826">
        <ele>78.311339751812</ele>
        <time>2020-10-09T12:14:09.000Z</time>
      </trkpt>
      <trkpt lat="43.57869" lon="3.73823">
        <ele>78.517525454862</ele>
        <time>2020-10-09T12:14:11.000Z</time>
      </trkpt>
      <trkpt lat="43.57867" lon="3.7382">
        <ele>78.723711157913</ele>
        <time>2020-10-09T12:14:13.000Z</time>
      </trkpt>
      <trkpt lat="43.57865" lon="3.73817">
        <ele>78.929896860963</ele>
        <time>2020-10-09T12:14:15.000Z</time>
      </trkpt>
      <trkpt lat="43.57863" lon="3.73815">
        <ele>79.264</ele>
        <time>2020-10-09T12:14:17.000Z</time>
      </trkpt>
      <trkpt lat="43.57861" lon="3.73813">
        <ele>79.664</ele>
        <time>2020-10-09T12:14:19.000Z</time>
      </trkpt>
      <trkpt lat="43.57859" lon="3.73812">
        <ele>80.064</ele>
        <time>2020-10-09T12:14:21.000Z</time>
      </trkpt>
      <trkpt lat="43.57856" lon="3.7381">
        <ele>80.464</ele>
        <time>2020-10-09T12:14:23.000Z</time>
      </trkpt>
      <trkpt lat="43.57853" lon="3.73808">
        <ele>80.864</ele>
        <time>2020-10-09T12:14:25.000Z</time>
      </trkpt>
      <trkpt lat="43.57851" lon="3.73807">
        <ele>81.13017743263</ele>
        <time>2020-10-09T12:14:27.000Z</time>
      </trkpt>
      <trkpt lat="43.57849" lon="3.73805">
        <ele>81.327415966917</ele>
        <time>2020-10-09T12:14:29.000Z</time>
      </trkpt>
      <trkpt lat="43.57846" lon="3.73803">
        <ele>81.524654501204</ele>
        <time>2020-10-09T12:14:31.000Z</time>
      </trkpt>
      <trkpt lat="43.57844" lon="3.73801">
        <ele>81.721893035492</ele>
        <time>2020-10-09T12:14:33.000Z</time>
      </trkpt>
      <trkpt lat="43.57842" lon="3.73798">
        <ele>81.919131569779</ele>
        <time>2020-10-09T12:14:35.000Z</time>
      </trkpt>
      <trkpt lat="43.57841" lon="3.73795">
        <ele>82.239349769963</ele>
        <time>2020-10-09T12:14:37.000Z</time>
      </trkpt>
      <trkpt lat="43.57838" lon="3.73793">
        <ele>82.64502954647</ele>
        <time>2020-10-09T12:14:39.000Z</time>
      </trkpt>
      <trkpt lat="43.57836" lon="3.73791">
        <ele>83.050709322976</ele>
        <time>2020-10-09T12:14:41.000Z</time>
      </trkpt>
      <trkpt lat="43.57834" lon="3.7379">
        <ele>83.456389099482</ele>
        <time>2020-10-09T12:14:43.000Z</time>
      </trkpt>
      <trkpt lat="43.57831" lon="3.73788">
        <ele>83.862068875988</ele>
        <time>2020-10-09T12:14:45.000Z</time>
      </trkpt>
      <trkpt lat="43.57829" lon="3.73787">
        <ele>84.263736348048</ele>
        <time>2020-10-09T12:14:47.000Z</time>
      </trkpt>
      <trkpt lat="43.57827" lon="3.73786">
        <ele>84.663336875392</ele>
        <time>2020-10-09T12:14:49.000Z</time>
      </trkpt>
      <trkpt lat="43.57824" lon="3.73785">
        <ele>85.062937402737</ele>
        <time>2020-10-09T12:14:51.000Z</time>
      </trkpt>
      <trkpt lat="43.57822" lon="3.73784">
        <ele>85.462537930082</ele>
        <time>2020-10-09T12:14:53.000Z</time>
      </trkpt>
      <trkpt lat="43.57819" lon="3.73784">
        <ele>85.862138457427</ele>
        <time>2020-10-09T12:14:55.000Z</time>
      </trkpt>
      <trkpt lat="43.57816" lon="3.73782">
        <ele>86.262262818895</ele>
        <time>2020-10-09T12:14:57.000Z</time>
      </trkpt>
      <trkpt lat="43.57814" lon="3.7378">
        <ele>86.662663091039</ele>
        <time>2020-10-09T12:14:59.000Z</time>
      </trkpt>
      <trkpt lat="43.57812" lon="3.73778">
        <ele>87.063063363183</ele>
        <time>2020-10-09T12:15:01.000Z</time>
      </trkpt>
      <trkpt lat="43.57809" lon="3.73777">
        <ele>87.463463635327</ele>
        <time>2020-10-09T12:15:03.000Z</time>
      </trkpt>
      <trkpt lat="43.57807" lon="3.73775">
        <ele>87.863863907471</ele>
        <time>2020-10-09T12:15:05.000Z</time>
      </trkpt>
      <trkpt lat="43.57805" lon="3.73773">
        <ele>88.2578125</ele>
        <time>2020-10-09T12:15:07.000Z</time>
      </trkpt>
      <trkpt lat="43.57803" lon="3.73772">
        <ele>88.6484375</ele>
        <time>2020-10-09T12:15:09.000Z</time>
      </trkpt>
      <trkpt lat="43.57801" lon="3.7377">
        <ele>89.0390625</ele>
        <time>2020-10-09T12:15:11.000Z</time>
      </trkpt>
      <trkpt lat="43.57799" lon="3.73767">
        <ele>89.4296875</ele>
        <time>2020-10-09T12:15:13.000Z</time>
      </trkpt>
      <trkpt lat="43.57798" lon="3.73763">
        <ele>89.8203125</ele>
        <time>2020-10-09T12:15:15.000Z</time>
      </trkpt>
      <trkpt lat="43.57796" lon="3.7376">
        <ele>90</ele>
        <time>2020-10-09T12:15:17.000Z</time>
      </trkpt>
      <trkpt lat="43.57794" lon="3.73756">
        <ele>90</ele>
        <time>2020-10-09T12:15:19.000Z</time>
      </trkpt>
      <trkpt lat="43.57793" lon="3.73752">
        <ele>90</ele>
        <time>2020-10-09T12:15:21.000Z</time>
      </trkpt>
      <trkpt lat="43.57791" lon="3.73748">
        <ele>90</ele>
        <time>2020-10-09T12:15:23.000Z</time>
      </trkpt>
      <trkpt lat="43.57788" lon="3.73745">
        <ele>90</ele>
        <time>2020-10-09T12:15:25.000Z</time>
      </trkpt>
      <trkpt lat="43.57786" lon="3.73743">
        <ele>90.031968042188</ele>
        <time>2020-10-09T12:15:26.000Z</time>
      </trkpt>
      <trkpt lat="43.57784" lon="3.73741">
        <ele>90.131868174024</ele>
        <time>2020-10-09T12:15:27.000Z</time>
      </trkpt>
      <trkpt lat="43.57782" lon="3.73739">
        <ele>90.23176830586</ele>
        <time>2020-10-09T12:15:28.000Z</time>
      </trkpt>
      <trkpt lat="43.5778" lon="3.73737">
        <ele>90.331668437696</ele>
        <time>2020-10-09T12:15:29.000Z</time>
      </trkpt>
      <trkpt lat="43.57778" lon="3.73735">
        <ele>90.431568569532</ele>
        <time>2020-10-09T12:15:30.000Z</time>
      </trkpt>
      <trkpt lat="43.57777" lon="3.73733">
        <ele>90.531468701369</ele>
        <time>2020-10-09T12:15:31.000Z</time>
      </trkpt>
      <trkpt lat="43.57775" lon="3.73731">
        <ele>90.631368833205</ele>
        <time>2020-10-09T12:15:32.000Z</time>
      </trkpt>
      <trkpt lat="43.57773" lon="3.73729">
        <ele>90.731268965041</ele>
        <time>2020-10-09T12:15:33.000Z</time>
      </trkpt>
      <trkpt lat="43.5777" lon="3.73727">
        <ele>90.831169096877</ele>
        <time>2020-10-09T12:15:34.000Z</time>
      </trkpt>
      <trkpt lat="43.57768" lon="3.73725">
        <ele>90.931069228713</ele>
        <time>2020-10-09T12:15:35.000Z</time>
      </trkpt>
      <trkpt lat="43.57765" lon="3.73724">
        <ele>91</ele>
        <time>2020-10-09T12:15:36.000Z</time>
      </trkpt>
      <trkpt lat="43.57763" lon="3.73722">
        <ele>91</ele>
        <time>2020-10-09T12:15:37.000Z</time>
      </trkpt>
      <trkpt lat="43.5776" lon="3.73719">
        <ele>91</ele>
        <time>2020-10-09T12:15:38.000Z</time>
      </trkpt>
      <trkpt lat="43.57758" lon="3.73717">
        <ele>91</ele>
        <time>2020-10-09T12:15:39.000Z</time>
      </trkpt>
      <trkpt lat="43.57755" lon="3.73714">
        <ele>91</ele>
        <time>2020-10-09T12:15:40.000Z</time>
      </trkpt>
      <trkpt lat="43.57754" lon="3.7371">
        <ele>91</ele>
        <time>2020-10-09T12:15:41.000Z</time>
      </trkpt>
      <trkpt lat="43.57752" lon="3.73707">
        <ele>91</ele>
        <time>2020-10-09T12:15:42.000Z</time>
      </trkpt>
      <trkpt lat="43.57752" lon="3.73703">
        <ele>91</ele>
        <time>2020-10-09T12:15:43.000Z</time>
      </trkpt>
      <trkpt lat="43.57752" lon="3.73701">
        <ele>91</ele>
        <time>2020-10-09T12:15:44.000Z</time>
      </trkpt>
      <trkpt lat="43.57752" lon="3.73699">
        <ele>90.99678111588</ele>
        <time>2020-10-09T12:15:49.000Z</time>
      </trkpt>
      <trkpt lat="43.57747" lon="3.73695">
        <ele>90.004291845494</ele>
        <time>2020-10-09T12:16:26.000Z</time>
      </trkpt>
      <trkpt lat="43.57745" lon="3.73693">
        <ele>89.746435032873</ele>
        <time>2020-10-09T12:16:27.000Z</time>
      </trkpt>
      <trkpt lat="43.57742" lon="3.7369">
        <ele>89.440936250306</ele>
        <time>2020-10-09T12:16:28.000Z</time>
      </trkpt>
      <trkpt lat="43.57739" lon="3.73686">
        <ele>89.135437467739</ele>
        <time>2020-10-09T12:16:29.000Z</time>
      </trkpt>
      <trkpt lat="43.57736" lon="3.73682">
        <ele>88.829938685172</ele>
        <time>2020-10-09T12:16:30.000Z</time>
      </trkpt>
      <trkpt lat="43.57732" lon="3.73677">
        <ele>88.524439902605</ele>
        <time>2020-10-09T12:16:31.000Z</time>
      </trkpt>
      <trkpt lat="43.57728" lon="3.73672">
        <ele>88.218941120038</ele>
        <time>2020-10-09T12:16:32.000Z</time>
      </trkpt>
      <trkpt lat="43.57724" lon="3.73667">
        <ele>87.913442337471</ele>
        <time>2020-10-09T12:16:33.000Z</time>
      </trkpt>
      <trkpt lat="43.57719" lon="3.73661">
        <ele>87.607943554904</ele>
        <time>2020-10-09T12:16:34.000Z</time>
      </trkpt>
      <trkpt lat="43.57713" lon="3.73656">
        <ele>87.302444772337</ele>
        <time>2020-10-09T12:16:35.000Z</time>
      </trkpt>
      <trkpt lat="43.57708" lon="3.73651">
        <ele>87.00100068036</ele>
        <time>2020-10-09T12:16:36.000Z</time>
      </trkpt>
      <trkpt lat="43.57703" lon="3.73647">
        <ele>87.101100748396</ele>
        <time>2020-10-09T12:16:37.000Z</time>
      </trkpt>
      <trkpt lat="43.57698" lon="3.73643">
        <ele>87.201200816432</ele>
        <time>2020-10-09T12:16:38.000Z</time>
      </trkpt>
      <trkpt lat="43.57694" lon="3.73639">
        <ele>87.301300884468</ele>
        <time>2020-10-09T12:16:39.000Z</time>
      </trkpt>
      <trkpt lat="43.57691" lon="3.73636">
        <ele>87.401400952504</ele>
        <time>2020-10-09T12:16:40.000Z</time>
      </trkpt>
      <trkpt lat="43.57688" lon="3.73634">
        <ele>87.50150102054</ele>
        <time>2020-10-09T12:16:41.000Z</time>
      </trkpt>
      <trkpt lat="43.57686" lon="3.73632">
        <ele>87.601601088576</ele>
        <time>2020-10-09T12:16:42.000Z</time>
      </trkpt>
      <trkpt lat="43.57684" lon="3.73629">
        <ele>87.701701156612</ele>
        <time>2020-10-09T12:16:43.000Z</time>
      </trkpt>
      <trkpt lat="43.57682" lon="3.73627">
        <ele>87.801801224648</ele>
        <time>2020-10-09T12:16:44.000Z</time>
      </trkpt>
      <trkpt lat="43.5768" lon="3.73625">
        <ele>87.901901292684</ele>
        <time>2020-10-09T12:16:45.000Z</time>
      </trkpt>
      <trkpt lat="43.57678" lon="3.73623">
        <ele>88.002061197236</ele>
        <time>2020-10-09T12:16:46.000Z</time>
      </trkpt>
      <trkpt lat="43.57676" lon="3.73621">
        <ele>88.105154048761</ele>
        <time>2020-10-09T12:16:47.000Z</time>
      </trkpt>
      <trkpt lat="43.57675" lon="3.7362">
        <ele>88.208246900287</ele>
        <time>2020-10-09T12:16:48.000Z</time>
      </trkpt>
      <trkpt lat="43.57673" lon="3.7362">
        <ele>88.311339751812</ele>
        <time>2020-10-09T12:16:49.000Z</time>
      </trkpt>
      <trkpt lat="43.5767" lon="3.7362">
        <ele>88.414432603337</ele>
        <time>2020-10-09T12:16:50.000Z</time>
      </trkpt>
      <trkpt lat="43.57668" lon="3.7362">
        <ele>88.517525454862</ele>
        <time>2020-10-09T12:16:51.000Z</time>
      </trkpt>
      <trkpt lat="43.57666" lon="3.7362">
        <ele>88.620618306387</ele>
        <time>2020-10-09T12:16:52.000Z</time>
      </trkpt>
      <trkpt lat="43.57663" lon="3.73619">
        <ele>88.723711157913</ele>
        <time>2020-10-09T12:16:53.000Z</time>
      </trkpt>
      <trkpt lat="43.57661" lon="3.73617">
        <ele>88.826804009438</ele>
        <time>2020-10-09T12:16:54.000Z</time>
      </trkpt>
      <trkpt lat="43.57659" lon="3.73615">
        <ele>88.929896860963</ele>
        <time>2020-10-09T12:16:55.000Z</time>
      </trkpt>
      <trkpt lat="43.57657" lon="3.73613">
        <ele>89.031936148143</ele>
        <time>2020-10-09T12:16:56.000Z</time>
      </trkpt>
      <trkpt lat="43.57655" lon="3.73612">
        <ele>89.131736611089</ele>
        <time>2020-10-09T12:16:57.000Z</time>
      </trkpt>
      <trkpt lat="43.57653" lon="3.7361">
        <ele>89.231537074036</ele>
        <time>2020-10-09T12:16:58.000Z</time>
      </trkpt>
      <trkpt lat="43.5765" lon="3.73608">
        <ele>89.331337536982</ele>
        <time>2020-10-09T12:16:59.000Z</time>
      </trkpt>
      <trkpt lat="43.57648" lon="3.73606">
        <ele>89.431137999928</ele>
        <time>2020-10-09T12:17:00.000Z</time>
      </trkpt>
      <trkpt lat="43.57646" lon="3.73604">
        <ele>89.530938462875</ele>
        <time>2020-10-09T12:17:01.000Z</time>
      </trkpt>
      <trkpt lat="43.57644" lon="3.73603">
        <ele>89.630738925821</ele>
        <time>2020-10-09T12:17:02.000Z</time>
      </trkpt>
      <trkpt lat="43.57642" lon="3.73601">
        <ele>89.730539388768</ele>
        <time>2020-10-09T12:17:03.000Z</time>
      </trkpt>
      <trkpt lat="43.5764" lon="3.736">
        <ele>89.830339851714</ele>
        <time>2020-10-09T12:17:04.000Z</time>
      </trkpt>
      <trkpt lat="43.57637" lon="3.73598">
        <ele>89.930140314661</ele>
        <time>2020-10-09T12:17:05.000Z</time>
      </trkpt>
      <trkpt lat="43.57635" lon="3.73597">
        <ele>90.03000064</ele>
        <time>2020-10-09T12:17:06.000Z</time>
      </trkpt>
      <trkpt lat="43.57633" lon="3.73595">
        <ele>90.13000064</ele>
        <time>2020-10-09T12:17:07.000Z</time>
      </trkpt>
      <trkpt lat="43.5763" lon="3.73594">
        <ele>90.23000064</ele>
        <time>2020-10-09T12:17:08.000Z</time>
      </trkpt>
      <trkpt lat="43.57628" lon="3.73593">
        <ele>90.33000064</ele>
        <time>2020-10-09T12:17:09.000Z</time>
      </trkpt>
      <trkpt lat="43.57625" lon="3.73592">
        <ele>90.43000064</ele>
        <time>2020-10-09T12:17:10.000Z</time>
      </trkpt>
      <trkpt lat="43.57623" lon="3.7359">
        <ele>90.53000064</ele>
        <time>2020-10-09T12:17:11.000Z</time>
      </trkpt>
      <trkpt lat="43.57622" lon="3.73587">
        <ele>90.63000064</ele>
        <time>2020-10-09T12:17:12.000Z</time>
      </trkpt>
      <trkpt lat="43.57622" lon="3.73584">
        <ele>90.73000064</ele>
        <time>2020-10-09T12:17:13.000Z</time>
      </trkpt>
      <trkpt lat="43.57622" lon="3.7358">
        <ele>90.83000064</ele>
        <time>2020-10-09T12:17:14.000Z</time>
      </trkpt>
      <trkpt lat="43.57621" lon="3.73576">
        <ele>90.93000064</ele>
        <time>2020-10-09T12:17:15.000Z</time>
      </trkpt>
      <trkpt lat="43.57621" lon="3.73573">
        <ele>90.969939257754</ele>
        <time>2020-10-09T12:17:16.000Z</time>
      </trkpt>
      <trkpt lat="43.57619" lon="3.7357">
        <ele>90.86973892121</ele>
        <time>2020-10-09T12:17:17.000Z</time>
      </trkpt>
      <trkpt lat="43.57618" lon="3.73567">
        <ele>90.769538584665</ele>
        <time>2020-10-09T12:17:18.000Z</time>
      </trkpt>
      <trkpt lat="43.57617" lon="3.73565">
        <ele>90.66933824812</ele>
        <time>2020-10-09T12:17:19.000Z</time>
      </trkpt>
      <trkpt lat="43.57615" lon="3.73562">
        <ele>90.569137911575</ele>
        <time>2020-10-09T12:17:20.000Z</time>
      </trkpt>
      <trkpt lat="43.57614" lon="3.73559">
        <ele>90.46893757503</ele>
        <time>2020-10-09T12:17:21.000Z</time>
      </trkpt>
      <trkpt lat="43.57612" lon="3.73556">
        <ele>90.368737238485</ele>
        <time>2020-10-09T12:17:22.000Z</time>
      </trkpt>
      <trkpt lat="43.57611" lon="3.73553">
        <ele>90.26853690194</ele>
        <time>2020-10-09T12:17:23.000Z</time>
      </trkpt>
      <trkpt lat="43.57609" lon="3.73549">
        <ele>90.168336565395</ele>
        <time>2020-10-09T12:17:24.000Z</time>
      </trkpt>
      <trkpt lat="43.57608" lon="3.73545">
        <ele>90.068136228851</ele>
        <time>2020-10-09T12:17:25.000Z</time>
      </trkpt>
      <trkpt lat="43.57606" lon="3.73541">
        <ele>89.968</ele>
        <time>2020-10-09T12:17:26.000Z</time>
      </trkpt>
      <trkpt lat="43.57604" lon="3.73537">
        <ele>89.868</ele>
        <time>2020-10-09T12:17:27.000Z</time>
      </trkpt>
      <trkpt lat="43.57601" lon="3.73533">
        <ele>89.768</ele>
        <time>2020-10-09T12:17:28.000Z</time>
      </trkpt>
      <trkpt lat="43.57598" lon="3.7353">
        <ele>89.668</ele>
        <time>2020-10-09T12:17:29.000Z</time>
      </trkpt>
      <trkpt lat="43.57595" lon="3.73526">
        <ele>89.568</ele>
        <time>2020-10-09T12:17:30.000Z</time>
      </trkpt>
      <trkpt lat="43.57592" lon="3.7352">
        <ele>89.468</ele>
        <time>2020-10-09T12:17:31.000Z</time>
      </trkpt>
      <trkpt lat="43.57589" lon="3.73514">
        <ele>89.368</ele>
        <time>2020-10-09T12:17:32.000Z</time>
      </trkpt>
      <trkpt lat="43.57587" lon="3.73508">
        <ele>89.268</ele>
        <time>2020-10-09T12:17:33.000Z</time>
      </trkpt>
      <trkpt lat="43.57586" lon="3.73502">
        <ele>89.168</ele>
        <time>2020-10-09T12:17:34.000Z</time>
      </trkpt>
      <trkpt lat="43.57585" lon="3.73495">
        <ele>89.068</ele>
        <time>2020-10-09T12:17:35.000Z</time>
      </trkpt>
      <trkpt lat="43.57585" lon="3.73489">
        <ele>89</ele>
        <time>2020-10-09T12:17:36.000Z</time>
      </trkpt>
      <trkpt lat="43.57584" lon="3.73483">
        <ele>89</ele>
        <time>2020-10-09T12:17:37.000Z</time>
      </trkpt>
      <trkpt lat="43.57583" lon="3.73477">
        <ele>89</ele>
        <time>2020-10-09T12:17:38.000Z</time>
      </trkpt>
      <trkpt lat="43.57582" lon="3.73472">
        <ele>89</ele>
        <time>2020-10-09T12:17:39.000Z</time>
      </trkpt>
      <trkpt lat="43.5758" lon="3.73468">
        <ele>89</ele>
        <time>2020-10-09T12:17:40.000Z</time>
      </trkpt>
      <trkpt lat="43.57578" lon="3.73465">
        <ele>89</ele>
        <time>2020-10-09T12:17:41.000Z</time>
      </trkpt>
      <trkpt lat="43.57575" lon="3.73463">
        <ele>89</ele>
        <time>2020-10-09T12:17:42.000Z</time>
      </trkpt>
      <trkpt lat="43.57572" lon="3.73463">
        <ele>89</ele>
        <time>2020-10-09T12:17:43.000Z</time>
      </trkpt>
      <trkpt lat="43.57569" lon="3.73463">
        <ele>89</ele>
        <time>2020-10-09T12:17:44.000Z</time>
      </trkpt>
      <trkpt lat="43.57565" lon="3.73463">
        <ele>89</ele>
        <time>2020-10-09T12:17:45.000Z</time>
      </trkpt>
      <trkpt lat="43.57562" lon="3.73464">
        <ele>89</ele>
        <time>2020-10-09T12:17:46.000Z</time>
      </trkpt>
      <trkpt lat="43.57558" lon="3.73464">
        <ele>89</ele>
        <time>2020-10-09T12:17:47.000Z</time>
      </trkpt>
      <trkpt lat="43.57554" lon="3.73465">
        <ele>89</ele>
        <time>2020-10-09T12:17:48.000Z</time>
      </trkpt>
      <trkpt lat="43.5755" lon="3.73466">
        <ele>89</ele>
        <time>2020-10-09T12:17:49.000Z</time>
      </trkpt>
      <trkpt lat="43.57546" lon="3.73467">
        <ele>89</ele>
        <time>2020-10-09T12:17:50.000Z</time>
      </trkpt>
      <trkpt lat="43.57542" lon="3.7347">
        <ele>89</ele>
        <time>2020-10-09T12:17:51.000Z</time>
      </trkpt>
      <trkpt lat="43.57539" lon="3.73474">
        <ele>89</ele>
        <time>2020-10-09T12:17:52.000Z</time>
      </trkpt>
      <trkpt lat="43.57535" lon="3.73478">
        <ele>89</ele>
        <time>2020-10-09T12:17:53.000Z</time>
      </trkpt>
      <trkpt lat="43.57531" lon="3.73483">
        <ele>89</ele>
        <time>2020-10-09T12:17:54.000Z</time>
      </trkpt>
      <trkpt lat="43.57526" lon="3.73487">
        <ele>89</ele>
        <time>2020-10-09T12:17:55.000Z</time>
      </trkpt>
      <trkpt lat="43.57522" lon="3.73491">
        <ele>88.936</ele>
        <time>2020-10-09T12:17:56.000Z</time>
      </trkpt>
      <trkpt lat="43.57518" lon="3.73495">
        <ele>88.736</ele>
        <time>2020-10-09T12:17:57.000Z</time>
      </trkpt>
      <trkpt lat="43.57513" lon="3.73499">
        <ele>88.536</ele>
        <time>2020-10-09T12:17:58.000Z</time>
      </trkpt>
      <trkpt lat="43.57509" lon="3.73503">
        <ele>88.336</ele>
        <time>2020-10-09T12:17:59.000Z</time>
      </trkpt>
      <trkpt lat="43.57504" lon="3.73507">
        <ele>88.136</ele>
        <time>2020-10-09T12:18:00.000Z</time>
      </trkpt>
      <trkpt lat="43.57499" lon="3.7351">
        <ele>87.936</ele>
        <time>2020-10-09T12:18:01.000Z</time>
      </trkpt>
      <trkpt lat="43.57494" lon="3.73513">
        <ele>87.736</ele>
        <time>2020-10-09T12:18:02.000Z</time>
      </trkpt>
      <trkpt lat="43.57489" lon="3.73516">
        <ele>87.536</ele>
        <time>2020-10-09T12:18:03.000Z</time>
      </trkpt>
      <trkpt lat="43.57484" lon="3.73519">
        <ele>87.336</ele>
        <time>2020-10-09T12:18:04.000Z</time>
      </trkpt>
      <trkpt lat="43.57478" lon="3.73522">
        <ele>87.136</ele>
        <time>2020-10-09T12:18:05.000Z</time>
      </trkpt>
      <trkpt lat="43.57472" lon="3.73524">
        <ele>86.968</ele>
        <time>2020-10-09T12:18:06.000Z</time>
      </trkpt>
      <trkpt lat="43.57467" lon="3.73526">
        <ele>86.868</ele>
        <time>2020-10-09T12:18:07.000Z</time>
      </trkpt>
      <trkpt lat="43.57461" lon="3.73528">
        <ele>86.768</ele>
        <time>2020-10-09T12:18:08.000Z</time>
      </trkpt>
      <trkpt lat="43.57456" lon="3.73529">
        <ele>86.668</ele>
        <time>2020-10-09T12:18:09.000Z</time>
      </trkpt>
      <trkpt lat="43.57452" lon="3.73531">
        <ele>86.568</ele>
        <time>2020-10-09T12:18:10.000Z</time>
      </trkpt>
      <trkpt lat="43.57447" lon="3.73534">
        <ele>86.468</ele>
        <time>2020-10-09T12:18:11.000Z</time>
      </trkpt>
      <trkpt lat="43.57441" lon="3.73537">
        <ele>86.368</ele>
        <time>2020-10-09T12:18:12.000Z</time>
      </trkpt>
      <trkpt lat="43.57436" lon="3.73541">
        <ele>86.268</ele>
        <time>2020-10-09T12:18:13.000Z</time>
      </trkpt>
      <trkpt lat="43.5743" lon="3.73545">
        <ele>86.168</ele>
        <time>2020-10-09T12:18:14.000Z</time>
      </trkpt>
      <trkpt lat="43.57423" lon="3.73549">
        <ele>86.068</ele>
        <time>2020-10-09T12:18:15.000Z</time>
      </trkpt>
      <trkpt lat="43.57417" lon="3.73553">
        <ele>85.872</ele>
        <time>2020-10-09T12:18:16.000Z</time>
      </trkpt>
      <trkpt lat="43.5741" lon="3.73558">
        <ele>85.472</ele>
        <time>2020-10-09T12:18:17.000Z</time>
      </trkpt>
      <trkpt lat="43.57403" lon="3.73563">
        <ele>85.072</ele>
        <time>2020-10-09T12:18:18.000Z</time>
      </trkpt>
      <trkpt lat="43.57397" lon="3.73567">
        <ele>84.672</ele>
        <time>2020-10-09T12:18:19.000Z</time>
      </trkpt>
      <trkpt lat="43.5739" lon="3.7357">
        <ele>84.272</ele>
        <time>2020-10-09T12:18:20.000Z</time>
      </trkpt>
      <trkpt lat="43.57384" lon="3.73571">
        <ele>83.872</ele>
        <time>2020-10-09T12:18:21.000Z</time>
      </trkpt>
      <trkpt lat="43.57379" lon="3.7357">
        <ele>83.472</ele>
        <time>2020-10-09T12:18:22.000Z</time>
      </trkpt>
      <trkpt lat="43.57375" lon="3.73568">
        <ele>83.072</ele>
        <time>2020-10-09T12:18:23.000Z</time>
      </trkpt>
      <trkpt lat="43.57371" lon="3.73563">
        <ele>82.672</ele>
        <time>2020-10-09T12:18:24.000Z</time>
      </trkpt>
      <trkpt lat="43.57368" lon="3.73557">
        <ele>82.272</ele>
        <time>2020-10-09T12:18:25.000Z</time>
      </trkpt>
      <trkpt lat="43.57365" lon="3.73551">
        <ele>81.872</ele>
        <time>2020-10-09T12:18:26.000Z</time>
      </trkpt>
      <trkpt lat="43.57363" lon="3.73546">
        <ele>81.472</ele>
        <time>2020-10-09T12:18:27.000Z</time>
      </trkpt>
      <trkpt lat="43.57361" lon="3.7354">
        <ele>81.072</ele>
        <time>2020-10-09T12:18:28.000Z</time>
      </trkpt>
      <trkpt lat="43.5736" lon="3.73534">
        <ele>80.672</ele>
        <time>2020-10-09T12:18:29.000Z</time>
      </trkpt>
      <trkpt lat="43.57358" lon="3.73529">
        <ele>80.272</ele>
        <time>2020-10-09T12:18:30.000Z</time>
      </trkpt>
      <trkpt lat="43.57356" lon="3.73524">
        <ele>79.872</ele>
        <time>2020-10-09T12:18:31.000Z</time>
      </trkpt>
      <trkpt lat="43.57355" lon="3.73519">
        <ele>79.472</ele>
        <time>2020-10-09T12:18:32.000Z</time>
      </trkpt>
      <trkpt lat="43.57353" lon="3.73514">
        <ele>79.072</ele>
        <time>2020-10-09T12:18:33.000Z</time>
      </trkpt>
      <trkpt lat="43.57351" lon="3.73509">
        <ele>78.672</ele>
        <time>2020-10-09T12:18:34.000Z</time>
      </trkpt>
      <trkpt lat="43.57349" lon="3.73504">
        <ele>78.272</ele>
        <time>2020-10-09T12:18:35.000Z</time>
      </trkpt>
      <trkpt lat="43.57347" lon="3.73498">
        <ele>77.84</ele>
        <time>2020-10-09T12:18:36.000Z</time>
      </trkpt>
      <trkpt lat="43.57345" lon="3.73493">
        <ele>77.34</ele>
        <time>2020-10-09T12:18:37.000Z</time>
      </trkpt>
      <trkpt lat="43.57342" lon="3.7349">
        <ele>76.84</ele>
        <time>2020-10-09T12:18:38.000Z</time>
      </trkpt>
      <trkpt lat="43.57337" lon="3.7349">
        <ele>76.34</ele>
        <time>2020-10-09T12:18:39.000Z</time>
      </trkpt>
      <trkpt lat="43.57332" lon="3.73492">
        <ele>75.84</ele>
        <time>2020-10-09T12:18:40.000Z</time>
      </trkpt>
      <trkpt lat="43.57327" lon="3.73497">
        <ele>75.34</ele>
        <time>2020-10-09T12:18:41.000Z</time>
      </trkpt>
      <trkpt lat="43.57322" lon="3.73502">
        <ele>74.84</ele>
        <time>2020-10-09T12:18:42.000Z</time>
      </trkpt>
      <trkpt lat="43.57317" lon="3.73507">
        <ele>74.34</ele>
        <time>2020-10-09T12:18:43.000Z</time>
      </trkpt>
      <trkpt lat="43.57311" lon="3.73512">
        <ele>73.84</ele>
        <time>2020-10-09T12:18:44.000Z</time>
      </trkpt>
      <trkpt lat="43.57306" lon="3.73516">
        <ele>73.34</ele>
        <time>2020-10-09T12:18:45.000Z</time>
      </trkpt>
      <trkpt lat="43.573" lon="3.73521">
        <ele>72.813773093688</ele>
        <time>2020-10-09T12:18:46.000Z</time>
      </trkpt>
      <trkpt lat="43.57294" lon="3.73525">
        <ele>72.231814011464</ele>
        <time>2020-10-09T12:18:47.000Z</time>
      </trkpt>
      <trkpt lat="43.57288" lon="3.7353">
        <ele>71.64985492924</ele>
        <time>2020-10-09T12:18:48.000Z</time>
      </trkpt>
      <trkpt lat="43.57282" lon="3.73536">
        <ele>71.067895847016</ele>
        <time>2020-10-09T12:18:49.000Z</time>
      </trkpt>
      <trkpt lat="43.57277" lon="3.73541">
        <ele>70.485936764792</ele>
        <time>2020-10-09T12:18:50.000Z</time>
      </trkpt>
      <trkpt lat="43.57271" lon="3.73545">
        <ele>69.903977682568</ele>
        <time>2020-10-09T12:18:51.000Z</time>
      </trkpt>
      <trkpt lat="43.57264" lon="3.73546">
        <ele>69.322018600343</ele>
        <time>2020-10-09T12:18:52.000Z</time>
      </trkpt>
      <trkpt lat="43.57257" lon="3.73547">
        <ele>68.740059518119</ele>
        <time>2020-10-09T12:18:53.000Z</time>
      </trkpt>
      <trkpt lat="43.5725" lon="3.73547">
        <ele>68.158100435895</ele>
        <time>2020-10-09T12:18:54.000Z</time>
      </trkpt>
      <trkpt lat="43.57245" lon="3.73549">
        <ele>67.576141353671</ele>
        <time>2020-10-09T12:18:55.000Z</time>
      </trkpt>
      <trkpt lat="43.57242" lon="3.7355">
        <ele>66.997936676305</ele>
        <time>2020-10-09T12:18:56.000Z</time>
      </trkpt>
      <trkpt lat="43.5724" lon="3.73551">
        <ele>66.791538259332</ele>
        <time>2020-10-09T12:18:57.000Z</time>
      </trkpt>
      <trkpt lat="43.57238" lon="3.73553">
        <ele>65.965944591437</ele>
        <time>2020-10-09T12:19:01.000Z</time>
      </trkpt>
      <trkpt lat="43.57237" lon="3.73556">
        <ele>65.553147757489</ele>
        <time>2020-10-09T12:19:03.000Z</time>
      </trkpt>
      <trkpt lat="43.57237" lon="3.7356">
        <ele>65.140350923542</ele>
        <time>2020-10-09T12:19:05.000Z</time>
      </trkpt>
      <trkpt lat="43.57239" lon="3.7356">
        <ele>64.768</ele>
        <time>2020-10-09T12:19:08.000Z</time>
      </trkpt>
      <trkpt lat="43.57238" lon="3.73555">
        <ele>64.568</ele>
        <time>2020-10-09T12:19:10.000Z</time>
      </trkpt>
      <trkpt lat="43.57236" lon="3.73552">
        <ele>64.468</ele>
        <time>2020-10-09T12:19:11.000Z</time>
      </trkpt>
      <trkpt lat="43.57234" lon="3.73548">
        <ele>64.368</ele>
        <time>2020-10-09T12:19:12.000Z</time>
      </trkpt>
      <trkpt lat="43.57232" lon="3.73544">
        <ele>64.268</ele>
        <time>2020-10-09T12:19:13.000Z</time>
      </trkpt>
      <trkpt lat="43.5723" lon="3.7354">
        <ele>64.168</ele>
        <time>2020-10-09T12:19:14.000Z</time>
      </trkpt>
      <trkpt lat="43.57228" lon="3.73536">
        <ele>64.068</ele>
        <time>2020-10-09T12:19:15.000Z</time>
      </trkpt>
      <trkpt lat="43.57224" lon="3.73532">
        <ele>63.936</ele>
        <time>2020-10-09T12:19:16.000Z</time>
      </trkpt>
      <trkpt lat="43.57221" lon="3.73527">
        <ele>63.736</ele>
        <time>2020-10-09T12:19:17.000Z</time>
      </trkpt>
      <trkpt lat="43.57219" lon="3.73522">
        <ele>63.536</ele>
        <time>2020-10-09T12:19:18.000Z</time>
      </trkpt>
      <trkpt lat="43.57216" lon="3.73518">
        <ele>63.336</ele>
        <time>2020-10-09T12:19:19.000Z</time>
      </trkpt>
      <trkpt lat="43.57214" lon="3.73514">
        <ele>63.136</ele>
        <time>2020-10-09T12:19:20.000Z</time>
      </trkpt>
      <trkpt lat="43.57211" lon="3.7351">
        <ele>62.936</ele>
        <time>2020-10-09T12:19:21.000Z</time>
      </trkpt>
      <trkpt lat="43.57209" lon="3.73506">
        <ele>62.736</ele>
        <time>2020-10-09T12:19:22.000Z</time>
      </trkpt>
      <trkpt lat="43.57207" lon="3.73502">
        <ele>62.536</ele>
        <time>2020-10-09T12:19:23.000Z</time>
      </trkpt>
      <trkpt lat="43.57204" lon="3.73498">
        <ele>62.336</ele>
        <time>2020-10-09T12:19:24.000Z</time>
      </trkpt>
      <trkpt lat="43.57202" lon="3.73494">
        <ele>62.136</ele>
        <time>2020-10-09T12:19:25.000Z</time>
      </trkpt>
      <trkpt lat="43.572" lon="3.73491">
        <ele>62</ele>
        <time>2020-10-09T12:19:26.000Z</time>
      </trkpt>
      <trkpt lat="43.57198" lon="3.73487">
        <ele>62</ele>
        <time>2020-10-09T12:19:27.000Z</time>
      </trkpt>
      <trkpt lat="43.57196" lon="3.73483">
        <ele>62</ele>
        <time>2020-10-09T12:19:28.000Z</time>
      </trkpt>
      <trkpt lat="43.57194" lon="3.73479">
        <ele>62</ele>
        <time>2020-10-09T12:19:29.000Z</time>
      </trkpt>
      <trkpt lat="43.57193" lon="3.73476">
        <ele>62</ele>
        <time>2020-10-09T12:19:30.000Z</time>
      </trkpt>
      <trkpt lat="43.57191" lon="3.73472">
        <ele>62</ele>
        <time>2020-10-09T12:19:31.000Z</time>
      </trkpt>
      <trkpt lat="43.57189" lon="3.73468">
        <ele>62</ele>
        <time>2020-10-09T12:19:32.000Z</time>
      </trkpt>
      <trkpt lat="43.57187" lon="3.73465">
        <ele>62</ele>
        <time>2020-10-09T12:19:33.000Z</time>
      </trkpt>
      <trkpt lat="43.57185" lon="3.73461">
        <ele>62</ele>
        <time>2020-10-09T12:19:34.000Z</time>
      </trkpt>
      <trkpt lat="43.57183" lon="3.73458">
        <ele>62</ele>
        <time>2020-10-09T12:19:35.000Z</time>
      </trkpt>
      <trkpt lat="43.57181" lon="3.73454">
        <ele>62</ele>
        <time>2020-10-09T12:19:36.000Z</time>
      </trkpt>
      <trkpt lat="43.57178" lon="3.7345">
        <ele>62</ele>
        <time>2020-10-09T12:19:37.000Z</time>
      </trkpt>
      <trkpt lat="43.57176" lon="3.73446">
        <ele>62</ele>
        <time>2020-10-09T12:19:38.000Z</time>
      </trkpt>
      <trkpt lat="43.57174" lon="3.73443">
        <ele>62</ele>
        <time>2020-10-09T12:19:39.000Z</time>
      </trkpt>
      <trkpt lat="43.57173" lon="3.73439">
        <ele>62</ele>
        <time>2020-10-09T12:19:40.000Z</time>
      </trkpt>
      <trkpt lat="43.57171" lon="3.73435">
        <ele>62</ele>
        <time>2020-10-09T12:19:41.000Z</time>
      </trkpt>
      <trkpt lat="43.5717" lon="3.73432">
        <ele>62</ele>
        <time>2020-10-09T12:19:42.000Z</time>
      </trkpt>
      <trkpt lat="43.57169" lon="3.73428">
        <ele>62</ele>
        <time>2020-10-09T12:19:43.000Z</time>
      </trkpt>
      <trkpt lat="43.5717" lon="3.73425">
        <ele>62</ele>
        <time>2020-10-09T12:19:44.000Z</time>
      </trkpt>
      <trkpt lat="43.57172" lon="3.73423">
        <ele>62</ele>
        <time>2020-10-09T12:19:45.000Z</time>
      </trkpt>
      <trkpt lat="43.57175" lon="3.73422">
        <ele>61.937803673564</ele>
        <time>2020-10-09T12:19:46.000Z</time>
      </trkpt>
      <trkpt lat="43.57178" lon="3.73423">
        <ele>61.743440153451</ele>
        <time>2020-10-09T12:19:47.000Z</time>
      </trkpt>
      <trkpt lat="43.57181" lon="3.73425">
        <ele>61.549076633338</ele>
        <time>2020-10-09T12:19:48.000Z</time>
      </trkpt>
      <trkpt lat="43.57184" lon="3.73427">
        <ele>61.354713113225</ele>
        <time>2020-10-09T12:19:49.000Z</time>
      </trkpt>
      <trkpt lat="43.57187" lon="3.73429">
        <ele>61.160349593112</ele>
        <time>2020-10-09T12:19:50.000Z</time>
      </trkpt>
      <trkpt lat="43.5719" lon="3.73432">
        <ele>60.965986072999</ele>
        <time>2020-10-09T12:19:51.000Z</time>
      </trkpt>
      <trkpt lat="43.57194" lon="3.73435">
        <ele>60.771622552886</ele>
        <time>2020-10-09T12:19:52.000Z</time>
      </trkpt>
      <trkpt lat="43.57199" lon="3.73437">
        <ele>60.577259032773</ele>
        <time>2020-10-09T12:19:53.000Z</time>
      </trkpt>
      <trkpt lat="43.57204" lon="3.7344">
        <ele>60.382895512659</ele>
        <time>2020-10-09T12:19:54.000Z</time>
      </trkpt>
      <trkpt lat="43.57209" lon="3.73441">
        <ele>60.188531992546</ele>
        <time>2020-10-09T12:19:55.000Z</time>
      </trkpt>
      <trkpt lat="43.57215" lon="3.73443">
        <ele>60.003089926891</ele>
        <time>2020-10-09T12:19:56.000Z</time>
      </trkpt>
      <trkpt lat="43.57219" lon="3.73443">
        <ele>60.106076504692</ele>
        <time>2020-10-09T12:19:57.000Z</time>
      </trkpt>
      <trkpt lat="43.57223" lon="3.73441">
        <ele>60.209063082492</ele>
        <time>2020-10-09T12:19:58.000Z</time>
      </trkpt>
      <trkpt lat="43.57226" lon="3.73439">
        <ele>60.312049660293</ele>
        <time>2020-10-09T12:19:59.000Z</time>
      </trkpt>
      <trkpt lat="43.57229" lon="3.73435">
        <ele>60.415036238093</ele>
        <time>2020-10-09T12:20:00.000Z</time>
      </trkpt>
      <trkpt lat="43.57231" lon="3.73432">
        <ele>60.518022815894</ele>
        <time>2020-10-09T12:20:01.000Z</time>
      </trkpt>
      <trkpt lat="43.57234" lon="3.73428">
        <ele>60.621009393694</ele>
        <time>2020-10-09T12:20:02.000Z</time>
      </trkpt>
      <trkpt lat="43.57236" lon="3.73424">
        <ele>60.723995971495</ele>
        <time>2020-10-09T12:20:03.000Z</time>
      </trkpt>
      <trkpt lat="43.57239" lon="3.7342">
        <ele>60.826982549295</ele>
        <time>2020-10-09T12:20:04.000Z</time>
      </trkpt>
      <trkpt lat="43.57241" lon="3.73416">
        <ele>60.929969127096</ele>
        <time>2020-10-09T12:20:05.000Z</time>
      </trkpt>
      <trkpt lat="43.57243" lon="3.73411">
        <ele>61.031840806158</ele>
        <time>2020-10-09T12:20:06.000Z</time>
      </trkpt>
      <trkpt lat="43.57245" lon="3.73407">
        <ele>61.131343325403</ele>
        <time>2020-10-09T12:20:07.000Z</time>
      </trkpt>
      <trkpt lat="43.57248" lon="3.73403">
        <ele>61.230845844647</ele>
        <time>2020-10-09T12:20:08.000Z</time>
      </trkpt>
      <trkpt lat="43.5725" lon="3.734">
        <ele>61.330348363892</ele>
        <time>2020-10-09T12:20:09.000Z</time>
      </trkpt>
      <trkpt lat="43.57252" lon="3.73396">
        <ele>61.429850883137</ele>
        <time>2020-10-09T12:20:10.000Z</time>
      </trkpt>
      <trkpt lat="43.57255" lon="3.73392">
        <ele>61.529353402381</ele>
        <time>2020-10-09T12:20:11.000Z</time>
      </trkpt>
      <trkpt lat="43.57258" lon="3.73388">
        <ele>61.628855921626</ele>
        <time>2020-10-09T12:20:12.000Z</time>
      </trkpt>
      <trkpt lat="43.5726" lon="3.73385">
        <ele>61.72835844087</ele>
        <time>2020-10-09T12:20:13.000Z</time>
      </trkpt>
      <trkpt lat="43.57263" lon="3.73381">
        <ele>61.827860960115</ele>
        <time>2020-10-09T12:20:14.000Z</time>
      </trkpt>
      <trkpt lat="43.57266" lon="3.73378">
        <ele>61.927363479359</ele>
        <time>2020-10-09T12:20:15.000Z</time>
      </trkpt>
      <trkpt lat="43.57269" lon="3.73374">
        <ele>62</ele>
        <time>2020-10-09T12:20:16.000Z</time>
      </trkpt>
      <trkpt lat="43.57272" lon="3.73371">
        <ele>62</ele>
        <time>2020-10-09T12:20:17.000Z</time>
      </trkpt>
      <trkpt lat="43.57275" lon="3.73367">
        <ele>62</ele>
        <time>2020-10-09T12:20:18.000Z</time>
      </trkpt>
      <trkpt lat="43.57278" lon="3.73362">
        <ele>62</ele>
        <time>2020-10-09T12:20:19.000Z</time>
      </trkpt>
      <trkpt lat="43.57281" lon="3.73358">
        <ele>62</ele>
        <time>2020-10-09T12:20:20.000Z</time>
      </trkpt>
      <trkpt lat="43.57284" lon="3.73354">
        <ele>62</ele>
        <time>2020-10-09T12:20:21.000Z</time>
      </trkpt>
      <trkpt lat="43.57286" lon="3.73349">
        <ele>62</ele>
        <time>2020-10-09T12:20:22.000Z</time>
      </trkpt>
      <trkpt lat="43.57288" lon="3.73345">
        <ele>62</ele>
        <time>2020-10-09T12:20:23.000Z</time>
      </trkpt>
      <trkpt lat="43.5729" lon="3.7334">
        <ele>62</ele>
        <time>2020-10-09T12:20:24.000Z</time>
      </trkpt>
      <trkpt lat="43.57292" lon="3.73336">
        <ele>62</ele>
        <time>2020-10-09T12:20:25.000Z</time>
      </trkpt>
      <trkpt lat="43.57294" lon="3.73331">
        <ele>62.004115226337</ele>
        <time>2020-10-09T12:20:26.000Z</time>
      </trkpt>
      <trkpt lat="43.57296" lon="3.73326">
        <ele>62.106995884774</ele>
        <time>2020-10-09T12:20:27.000Z</time>
      </trkpt>
      <trkpt lat="43.57298" lon="3.73322">
        <ele>62.20987654321</ele>
        <time>2020-10-09T12:20:28.000Z</time>
      </trkpt>
      <trkpt lat="43.573" lon="3.73318">
        <ele>62.312757201646</ele>
        <time>2020-10-09T12:20:29.000Z</time>
      </trkpt>
      <trkpt lat="43.57301" lon="3.73315">
        <ele>62.415637860082</ele>
        <time>2020-10-09T12:20:30.000Z</time>
      </trkpt>
      <trkpt lat="43.57303" lon="3.73311">
        <ele>62.518518518518</ele>
        <time>2020-10-09T12:20:31.000Z</time>
      </trkpt>
      <trkpt lat="43.57305" lon="3.73307">
        <ele>62.621399176955</ele>
        <time>2020-10-09T12:20:32.000Z</time>
      </trkpt>
      <trkpt lat="43.57306" lon="3.73303">
        <ele>62.724279835391</ele>
        <time>2020-10-09T12:20:33.000Z</time>
      </trkpt>
      <trkpt lat="43.57308" lon="3.73299">
        <ele>62.827160493827</ele>
        <time>2020-10-09T12:20:34.000Z</time>
      </trkpt>
      <trkpt lat="43.57309" lon="3.73295">
        <ele>62.930041152263</ele>
        <time>2020-10-09T12:20:35.000Z</time>
      </trkpt>
      <trkpt lat="43.57311" lon="3.7329">
        <ele>63</ele>
        <time>2020-10-09T12:20:36.000Z</time>
      </trkpt>
      <trkpt lat="43.57312" lon="3.73285">
        <ele>63</ele>
        <time>2020-10-09T12:20:37.000Z</time>
      </trkpt>
      <trkpt lat="43.57314" lon="3.7328">
        <ele>63</ele>
        <time>2020-10-09T12:20:38.000Z</time>
      </trkpt>
      <trkpt lat="43.57315" lon="3.73275">
        <ele>63</ele>
        <time>2020-10-09T12:20:39.000Z</time>
      </trkpt>
      <trkpt lat="43.57316" lon="3.73271">
        <ele>63</ele>
        <time>2020-10-09T12:20:40.000Z</time>
      </trkpt>
      <trkpt lat="43.57316" lon="3.73267">
        <ele>63</ele>
        <time>2020-10-09T12:20:41.000Z</time>
      </trkpt>
      <trkpt lat="43.57316" lon="3.73263">
        <ele>63</ele>
        <time>2020-10-09T12:20:42.000Z</time>
      </trkpt>
      <trkpt lat="43.57316" lon="3.7326">
        <ele>63</ele>
        <time>2020-10-09T12:20:43.000Z</time>
      </trkpt>
      <trkpt lat="43.57317" lon="3.73257">
        <ele>63</ele>
        <time>2020-10-09T12:20:44.000Z</time>
      </trkpt>
      <trkpt lat="43.57318" lon="3.73254">
        <ele>63</ele>
        <time>2020-10-09T12:20:45.000Z</time>
      </trkpt>
      <trkpt lat="43.57319" lon="3.7325">
        <ele>63.032</ele>
        <time>2020-10-09T12:20:46.000Z</time>
      </trkpt>
      <trkpt lat="43.5732" lon="3.73248">
        <ele>63.132</ele>
        <time>2020-10-09T12:20:47.000Z</time>
      </trkpt>
      <trkpt lat="43.57321" lon="3.73245">
        <ele>63.232</ele>
        <time>2020-10-09T12:20:48.000Z</time>
      </trkpt>
      <trkpt lat="43.57322" lon="3.73242">
        <ele>63.332</ele>
        <time>2020-10-09T12:20:49.000Z</time>
      </trkpt>
      <trkpt lat="43.57324" lon="3.73239">
        <ele>63.432</ele>
        <time>2020-10-09T12:20:50.000Z</time>
      </trkpt>
      <trkpt lat="43.57325" lon="3.73236">
        <ele>63.532</ele>
        <time>2020-10-09T12:20:51.000Z</time>
      </trkpt>
      <trkpt lat="43.57327" lon="3.73233">
        <ele>63.632</ele>
        <time>2020-10-09T12:20:52.000Z</time>
      </trkpt>
      <trkpt lat="43.57328" lon="3.7323">
        <ele>63.732</ele>
        <time>2020-10-09T12:20:53.000Z</time>
      </trkpt>
      <trkpt lat="43.5733" lon="3.73226">
        <ele>63.832</ele>
        <time>2020-10-09T12:20:54.000Z</time>
      </trkpt>
      <trkpt lat="43.57332" lon="3.73223">
        <ele>63.932</ele>
        <time>2020-10-09T12:20:55.000Z</time>
      </trkpt>
      <trkpt lat="43.57334" lon="3.73219">
        <ele>64.032</ele>
        <time>2020-10-09T12:20:56.000Z</time>
      </trkpt>
      <trkpt lat="43.57336" lon="3.73216">
        <ele>64.132</ele>
        <time>2020-10-09T12:20:57.000Z</time>
      </trkpt>
      <trkpt lat="43.57338" lon="3.73212">
        <ele>64.232</ele>
        <time>2020-10-09T12:20:58.000Z</time>
      </trkpt>
      <trkpt lat="43.5734" lon="3.73209">
        <ele>64.332</ele>
        <time>2020-10-09T12:20:59.000Z</time>
      </trkpt>
      <trkpt lat="43.57342" lon="3.73205">
        <ele>64.432</ele>
        <time>2020-10-09T12:21:00.000Z</time>
      </trkpt>
      <trkpt lat="43.57344" lon="3.73202">
        <ele>64.532</ele>
        <time>2020-10-09T12:21:01.000Z</time>
      </trkpt>
      <trkpt lat="43.57346" lon="3.73198">
        <ele>64.632</ele>
        <time>2020-10-09T12:21:02.000Z</time>
      </trkpt>
      <trkpt lat="43.57349" lon="3.73195">
        <ele>64.732</ele>
        <time>2020-10-09T12:21:03.000Z</time>
      </trkpt>
      <trkpt lat="43.57351" lon="3.73191">
        <ele>64.832</ele>
        <time>2020-10-09T12:21:04.000Z</time>
      </trkpt>
      <trkpt lat="43.57353" lon="3.73187">
        <ele>64.932</ele>
        <time>2020-10-09T12:21:05.000Z</time>
      </trkpt>
      <trkpt lat="43.57355" lon="3.73184">
        <ele>65</ele>
        <time>2020-10-09T12:21:06.000Z</time>
      </trkpt>
      <trkpt lat="43.57357" lon="3.7318">
        <ele>65</ele>
        <time>2020-10-09T12:21:07.000Z</time>
      </trkpt>
      <trkpt lat="43.57359" lon="3.73176">
        <ele>65</ele>
        <time>2020-10-09T12:21:08.000Z</time>
      </trkpt>
      <trkpt lat="43.57361" lon="3.73172">
        <ele>65</ele>
        <time>2020-10-09T12:21:09.000Z</time>
      </trkpt>
      <trkpt lat="43.57363" lon="3.73168">
        <ele>65</ele>
        <time>2020-10-09T12:21:10.000Z</time>
      </trkpt>
      <trkpt lat="43.57364" lon="3.73163">
        <ele>65</ele>
        <time>2020-10-09T12:21:11.000Z</time>
      </trkpt>
      <trkpt lat="43.57364" lon="3.73159">
        <ele>65</ele>
        <time>2020-10-09T12:21:12.000Z</time>
      </trkpt>
      <trkpt lat="43.57364" lon="3.73154">
        <ele>65</ele>
        <time>2020-10-09T12:21:13.000Z</time>
      </trkpt>
      <trkpt lat="43.57365" lon="3.7315">
        <ele>65</ele>
        <time>2020-10-09T12:21:14.000Z</time>
      </trkpt>
      <trkpt lat="43.57364" lon="3.73146">
        <ele>65</ele>
        <time>2020-10-09T12:21:15.000Z</time>
      </trkpt>
      <trkpt lat="43.57364" lon="3.73143">
        <ele>65</ele>
        <time>2020-10-09T12:21:16.000Z</time>
      </trkpt>
      <trkpt lat="43.57363" lon="3.73139">
        <ele>65</ele>
        <time>2020-10-09T12:21:17.000Z</time>
      </trkpt>
      <trkpt lat="43.57363" lon="3.73135">
        <ele>65</ele>
        <time>2020-10-09T12:21:18.000Z</time>
      </trkpt>
      <trkpt lat="43.57362" lon="3.73131">
        <ele>65</ele>
        <time>2020-10-09T12:21:19.000Z</time>
      </trkpt>
      <trkpt lat="43.57361" lon="3.73128">
        <ele>65</ele>
        <time>2020-10-09T12:21:20.000Z</time>
      </trkpt>
      <trkpt lat="43.5736" lon="3.73123">
        <ele>65</ele>
        <time>2020-10-09T12:21:21.000Z</time>
      </trkpt>
      <trkpt lat="43.57359" lon="3.73119">
        <ele>65</ele>
        <time>2020-10-09T12:21:22.000Z</time>
      </trkpt>
      <trkpt lat="43.57357" lon="3.73115">
        <ele>65</ele>
        <time>2020-10-09T12:21:23.000Z</time>
      </trkpt>
      <trkpt lat="43.57356" lon="3.7311">
        <ele>65</ele>
        <time>2020-10-09T12:21:24.000Z</time>
      </trkpt>
      <trkpt lat="43.57354" lon="3.73106">
        <ele>65</ele>
        <time>2020-10-09T12:21:25.000Z</time>
      </trkpt>
      <trkpt lat="43.57353" lon="3.73102">
        <ele>65.015259730536</ele>
        <time>2020-10-09T12:21:26.000Z</time>
      </trkpt>
      <trkpt lat="43.57351" lon="3.73098">
        <ele>65.116989097216</ele>
        <time>2020-10-09T12:21:27.000Z</time>
      </trkpt>
      <trkpt lat="43.5735" lon="3.73094">
        <ele>65.218718463896</ele>
        <time>2020-10-09T12:21:28.000Z</time>
      </trkpt>
      <trkpt lat="43.57348" lon="3.7309">
        <ele>65.320447830576</ele>
        <time>2020-10-09T12:21:29.000Z</time>
      </trkpt>
      <trkpt lat="43.57347" lon="3.73085">
        <ele>65.422177197257</ele>
        <time>2020-10-09T12:21:30.000Z</time>
      </trkpt>
      <trkpt lat="43.57345" lon="3.73081">
        <ele>65.523906563937</ele>
        <time>2020-10-09T12:21:31.000Z</time>
      </trkpt>
      <trkpt lat="43.57343" lon="3.73077">
        <ele>65.625635930617</ele>
        <time>2020-10-09T12:21:32.000Z</time>
      </trkpt>
      <trkpt lat="43.57341" lon="3.73074">
        <ele>65.727365297297</ele>
        <time>2020-10-09T12:21:33.000Z</time>
      </trkpt>
      <trkpt lat="43.5734" lon="3.7307">
        <ele>65.829094663977</ele>
        <time>2020-10-09T12:21:34.000Z</time>
      </trkpt>
      <trkpt lat="43.57338" lon="3.73066">
        <ele>65.930824030658</ele>
        <time>2020-10-09T12:21:35.000Z</time>
      </trkpt>
      <trkpt lat="43.57337" lon="3.73062">
        <ele>66.032</ele>
        <time>2020-10-09T12:21:36.000Z</time>
      </trkpt>
      <trkpt lat="43.57336" lon="3.73058">
        <ele>66.132</ele>
        <time>2020-10-09T12:21:37.000Z</time>
      </trkpt>
      <trkpt lat="43.57334" lon="3.73054">
        <ele>66.232</ele>
        <time>2020-10-09T12:21:38.000Z</time>
      </trkpt>
      <trkpt lat="43.57333" lon="3.7305">
        <ele>66.332</ele>
        <time>2020-10-09T12:21:39.000Z</time>
      </trkpt>
      <trkpt lat="43.57332" lon="3.73046">
        <ele>66.432</ele>
        <time>2020-10-09T12:21:40.000Z</time>
      </trkpt>
      <trkpt lat="43.57331" lon="3.73041">
        <ele>66.532</ele>
        <time>2020-10-09T12:21:41.000Z</time>
      </trkpt>
      <trkpt lat="43.5733" lon="3.73037">
        <ele>66.632</ele>
        <time>2020-10-09T12:21:42.000Z</time>
      </trkpt>
      <trkpt lat="43.57329" lon="3.73032">
        <ele>66.732</ele>
        <time>2020-10-09T12:21:43.000Z</time>
      </trkpt>
      <trkpt lat="43.57329" lon="3.73028">
        <ele>66.832</ele>
        <time>2020-10-09T12:21:44.000Z</time>
      </trkpt>
      <trkpt lat="43.57328" lon="3.73023">
        <ele>66.932</ele>
        <time>2020-10-09T12:21:45.000Z</time>
      </trkpt>
      <trkpt lat="43.57328" lon="3.73019">
        <ele>67</ele>
        <time>2020-10-09T12:21:46.000Z</time>
      </trkpt>
      <trkpt lat="43.57327" lon="3.73014">
        <ele>67</ele>
        <time>2020-10-09T12:21:47.000Z</time>
      </trkpt>
      <trkpt lat="43.57327" lon="3.7301">
        <ele>67</ele>
        <time>2020-10-09T12:21:48.000Z</time>
      </trkpt>
      <trkpt lat="43.57326" lon="3.73006">
        <ele>67</ele>
        <time>2020-10-09T12:21:49.000Z</time>
      </trkpt>
      <trkpt lat="43.57325" lon="3.73002">
        <ele>67</ele>
        <time>2020-10-09T12:21:50.000Z</time>
      </trkpt>
      <trkpt lat="43.57324" lon="3.72998">
        <ele>67</ele>
        <time>2020-10-09T12:21:51.000Z</time>
      </trkpt>
      <trkpt lat="43.57324" lon="3.72994">
        <ele>67</ele>
        <time>2020-10-09T12:21:52.000Z</time>
      </trkpt>
      <trkpt lat="43.57323" lon="3.72991">
        <ele>67</ele>
        <time>2020-10-09T12:21:53.000Z</time>
      </trkpt>
      <trkpt lat="43.57322" lon="3.72987">
        <ele>67</ele>
        <time>2020-10-09T12:21:54.000Z</time>
      </trkpt>
      <trkpt lat="43.57321" lon="3.72984">
        <ele>67</ele>
        <time>2020-10-09T12:21:55.000Z</time>
      </trkpt>
      <trkpt lat="43.5732" lon="3.72981">
        <ele>67.064</ele>
        <time>2020-10-09T12:21:56.000Z</time>
      </trkpt>
      <trkpt lat="43.57319" lon="3.72978">
        <ele>67.264</ele>
        <time>2020-10-09T12:21:57.000Z</time>
      </trkpt>
      <trkpt lat="43.57318" lon="3.72975">
        <ele>67.464</ele>
        <time>2020-10-09T12:21:58.000Z</time>
      </trkpt>
      <trkpt lat="43.57317" lon="3.72973">
        <ele>67.664</ele>
        <time>2020-10-09T12:21:59.000Z</time>
      </trkpt>
      <trkpt lat="43.57317" lon="3.7297">
        <ele>67.864</ele>
        <time>2020-10-09T12:22:00.000Z</time>
      </trkpt>
      <trkpt lat="43.57316" lon="3.72968">
        <ele>68.064</ele>
        <time>2020-10-09T12:22:01.000Z</time>
      </trkpt>
      <trkpt lat="43.57316" lon="3.72965">
        <ele>68.264</ele>
        <time>2020-10-09T12:22:02.000Z</time>
      </trkpt>
      <trkpt lat="43.57316" lon="3.72962">
        <ele>68.464</ele>
        <time>2020-10-09T12:22:03.000Z</time>
      </trkpt>
      <trkpt lat="43.57316" lon="3.7296">
        <ele>68.664</ele>
        <time>2020-10-09T12:22:04.000Z</time>
      </trkpt>
      <trkpt lat="43.57317" lon="3.72957">
        <ele>68.864</ele>
        <time>2020-10-09T12:22:05.000Z</time>
      </trkpt>
      <trkpt lat="43.57318" lon="3.72954">
        <ele>69.064</ele>
        <time>2020-10-09T12:22:06.000Z</time>
      </trkpt>
      <trkpt lat="43.57318" lon="3.72952">
        <ele>69.264</ele>
        <time>2020-10-09T12:22:07.000Z</time>
      </trkpt>
      <trkpt lat="43.57319" lon="3.72949">
        <ele>69.464</ele>
        <time>2020-10-09T12:22:08.000Z</time>
      </trkpt>
      <trkpt lat="43.5732" lon="3.72947">
        <ele>69.664</ele>
        <time>2020-10-09T12:22:09.000Z</time>
      </trkpt>
      <trkpt lat="43.57321" lon="3.72945">
        <ele>69.864</ele>
        <time>2020-10-09T12:22:10.000Z</time>
      </trkpt>
      <trkpt lat="43.57323" lon="3.72942">
        <ele>70.064</ele>
        <time>2020-10-09T12:22:11.000Z</time>
      </trkpt>
      <trkpt lat="43.57324" lon="3.7294">
        <ele>70.264</ele>
        <time>2020-10-09T12:22:12.000Z</time>
      </trkpt>
      <trkpt lat="43.57326" lon="3.72938">
        <ele>70.464</ele>
        <time>2020-10-09T12:22:13.000Z</time>
      </trkpt>
      <trkpt lat="43.57328" lon="3.72936">
        <ele>70.664</ele>
        <time>2020-10-09T12:22:14.000Z</time>
      </trkpt>
      <trkpt lat="43.57331" lon="3.72933">
        <ele>70.864</ele>
        <time>2020-10-09T12:22:15.000Z</time>
      </trkpt>
      <trkpt lat="43.57333" lon="3.7293">
        <ele>71</ele>
        <time>2020-10-09T12:22:16.000Z</time>
      </trkpt>
      <trkpt lat="43.57336" lon="3.72926">
        <ele>71</ele>
        <time>2020-10-09T12:22:17.000Z</time>
      </trkpt>
      <trkpt lat="43.57338" lon="3.72922">
        <ele>71</ele>
        <time>2020-10-09T12:22:18.000Z</time>
      </trkpt>
      <trkpt lat="43.57341" lon="3.72918">
        <ele>71</ele>
        <time>2020-10-09T12:22:19.000Z</time>
      </trkpt>
      <trkpt lat="43.57343" lon="3.72913">
        <ele>71</ele>
        <time>2020-10-09T12:22:20.000Z</time>
      </trkpt>
      <trkpt lat="43.57346" lon="3.72907">
        <ele>71</ele>
        <time>2020-10-09T12:22:21.000Z</time>
      </trkpt>
      <trkpt lat="43.57348" lon="3.72902">
        <ele>71</ele>
        <time>2020-10-09T12:22:22.000Z</time>
      </trkpt>
      <trkpt lat="43.57351" lon="3.72898">
        <ele>71</ele>
        <time>2020-10-09T12:22:23.000Z</time>
      </trkpt>
      <trkpt lat="43.57354" lon="3.72893">
        <ele>71</ele>
        <time>2020-10-09T12:22:24.000Z</time>
      </trkpt>
      <trkpt lat="43.57356" lon="3.72889">
        <ele>71</ele>
        <time>2020-10-09T12:22:25.000Z</time>
      </trkpt>
      <trkpt lat="43.57359" lon="3.72885">
        <ele>71</ele>
        <time>2020-10-09T12:22:26.000Z</time>
      </trkpt>
      <trkpt lat="43.57361" lon="3.72881">
        <ele>71</ele>
        <time>2020-10-09T12:22:27.000Z</time>
      </trkpt>
      <trkpt lat="43.57364" lon="3.72877">
        <ele>71</ele>
        <time>2020-10-09T12:22:28.000Z</time>
      </trkpt>
      <trkpt lat="43.57367" lon="3.72874">
        <ele>71</ele>
        <time>2020-10-09T12:22:29.000Z</time>
      </trkpt>
      <trkpt lat="43.5737" lon="3.72871">
        <ele>71</ele>
        <time>2020-10-09T12:22:30.000Z</time>
      </trkpt>
      <trkpt lat="43.57373" lon="3.72868">
        <ele>71</ele>
        <time>2020-10-09T12:22:31.000Z</time>
      </trkpt>
      <trkpt lat="43.57376" lon="3.72865">
        <ele>71</ele>
        <time>2020-10-09T12:22:32.000Z</time>
      </trkpt>
      <trkpt lat="43.57379" lon="3.72861">
        <ele>71</ele>
        <time>2020-10-09T12:22:33.000Z</time>
      </trkpt>
      <trkpt lat="43.57382" lon="3.72858">
        <ele>71</ele>
        <time>2020-10-09T12:22:34.000Z</time>
      </trkpt>
      <trkpt lat="43.57385" lon="3.72855">
        <ele>71</ele>
        <time>2020-10-09T12:22:35.000Z</time>
      </trkpt>
      <trkpt lat="43.57388" lon="3.72852">
        <ele>71</ele>
        <time>2020-10-09T12:22:36.000Z</time>
      </trkpt>
      <trkpt lat="43.5739" lon="3.7285">
        <ele>71</ele>
        <time>2020-10-09T12:22:37.000Z</time>
      </trkpt>
      <trkpt lat="43.57393" lon="3.72847">
        <ele>71</ele>
        <time>2020-10-09T12:22:38.000Z</time>
      </trkpt>
      <trkpt lat="43.57396" lon="3.72845">
        <ele>71</ele>
        <time>2020-10-09T12:22:39.000Z</time>
      </trkpt>
      <trkpt lat="43.57399" lon="3.72843">
        <ele>71</ele>
        <time>2020-10-09T12:22:40.000Z</time>
      </trkpt>
      <trkpt lat="43.57402" lon="3.72841">
        <ele>71</ele>
        <time>2020-10-09T12:22:41.000Z</time>
      </trkpt>
      <trkpt lat="43.57405" lon="3.72838">
        <ele>71</ele>
        <time>2020-10-09T12:22:42.000Z</time>
      </trkpt>
      <trkpt lat="43.57408" lon="3.72837">
        <ele>71</ele>
        <time>2020-10-09T12:22:43.000Z</time>
      </trkpt>
      <trkpt lat="43.57411" lon="3.72835">
        <ele>71</ele>
        <time>2020-10-09T12:22:44.000Z</time>
      </trkpt>
      <trkpt lat="43.57414" lon="3.72833">
        <ele>71</ele>
        <time>2020-10-09T12:22:45.000Z</time>
      </trkpt>
      <trkpt lat="43.57417" lon="3.72831">
        <ele>71.032</ele>
        <time>2020-10-09T12:22:46.000Z</time>
      </trkpt>
      <trkpt lat="43.5742" lon="3.72829">
        <ele>71.132</ele>
        <time>2020-10-09T12:22:47.000Z</time>
      </trkpt>
      <trkpt lat="43.57422" lon="3.72827">
        <ele>71.232</ele>
        <time>2020-10-09T12:22:48.000Z</time>
      </trkpt>
      <trkpt lat="43.57424" lon="3.72826">
        <ele>71.332</ele>
        <time>2020-10-09T12:22:49.000Z</time>
      </trkpt>
      <trkpt lat="43.57427" lon="3.72824">
        <ele>71.432</ele>
        <time>2020-10-09T12:22:50.000Z</time>
      </trkpt>
      <trkpt lat="43.5743" lon="3.72822">
        <ele>71.532</ele>
        <time>2020-10-09T12:22:51.000Z</time>
      </trkpt>
      <trkpt lat="43.57433" lon="3.7282">
        <ele>71.632</ele>
        <time>2020-10-09T12:22:52.000Z</time>
      </trkpt>
      <trkpt lat="43.57436" lon="3.72818">
        <ele>71.732</ele>
        <time>2020-10-09T12:22:53.000Z</time>
      </trkpt>
      <trkpt lat="43.57439" lon="3.72817">
        <ele>71.832</ele>
        <time>2020-10-09T12:22:54.000Z</time>
      </trkpt>
      <trkpt lat="43.57442" lon="3.72814">
        <ele>71.932</ele>
        <time>2020-10-09T12:22:55.000Z</time>
      </trkpt>
      <trkpt lat="43.57446" lon="3.72812">
        <ele>72</ele>
        <time>2020-10-09T12:22:56.000Z</time>
      </trkpt>
      <trkpt lat="43.57449" lon="3.72809">
        <ele>72</ele>
        <time>2020-10-09T12:22:57.000Z</time>
      </trkpt>
      <trkpt lat="43.57452" lon="3.72806">
        <ele>72</ele>
        <time>2020-10-09T12:22:58.000Z</time>
      </trkpt>
      <trkpt lat="43.57456" lon="3.72803">
        <ele>72</ele>
        <time>2020-10-09T12:22:59.000Z</time>
      </trkpt>
      <trkpt lat="43.57459" lon="3.728">
        <ele>72</ele>
        <time>2020-10-09T12:23:00.000Z</time>
      </trkpt>
      <trkpt lat="43.57464" lon="3.72798">
        <ele>72</ele>
        <time>2020-10-09T12:23:01.000Z</time>
      </trkpt>
      <trkpt lat="43.57468" lon="3.72796">
        <ele>72</ele>
        <time>2020-10-09T12:23:02.000Z</time>
      </trkpt>
      <trkpt lat="43.57472" lon="3.72794">
        <ele>72</ele>
        <time>2020-10-09T12:23:03.000Z</time>
      </trkpt>
      <trkpt lat="43.57476" lon="3.72792">
        <ele>72</ele>
        <time>2020-10-09T12:23:04.000Z</time>
      </trkpt>
      <trkpt lat="43.57479" lon="3.72791">
        <ele>72</ele>
        <time>2020-10-09T12:23:05.000Z</time>
      </trkpt>
      <trkpt lat="43.57482" lon="3.72789">
        <ele>72.003089926891</ele>
        <time>2020-10-09T12:23:06.000Z</time>
      </trkpt>
      <trkpt lat="43.57484" lon="3.72787">
        <ele>72.106076504692</ele>
        <time>2020-10-09T12:23:07.000Z</time>
      </trkpt>
      <trkpt lat="43.57486" lon="3.72784">
        <ele>72.209063082492</ele>
        <time>2020-10-09T12:23:08.000Z</time>
      </trkpt>
      <trkpt lat="43.57488" lon="3.72781">
        <ele>72.312049660293</ele>
        <time>2020-10-09T12:23:09.000Z</time>
      </trkpt>
      <trkpt lat="43.5749" lon="3.72778">
        <ele>72.415036238093</ele>
        <time>2020-10-09T12:23:10.000Z</time>
      </trkpt>
      <trkpt lat="43.57492" lon="3.72776">
        <ele>72.518022815894</ele>
        <time>2020-10-09T12:23:11.000Z</time>
      </trkpt>
      <trkpt lat="43.57495" lon="3.72774">
        <ele>72.621009393694</ele>
        <time>2020-10-09T12:23:12.000Z</time>
      </trkpt>
      <trkpt lat="43.57498" lon="3.72773">
        <ele>72.723995971495</ele>
        <time>2020-10-09T12:23:13.000Z</time>
      </trkpt>
      <trkpt lat="43.57501" lon="3.72772">
        <ele>72.826982549295</ele>
        <time>2020-10-09T12:23:14.000Z</time>
      </trkpt>
      <trkpt lat="43.57504" lon="3.72771">
        <ele>72.929969127096</ele>
        <time>2020-10-09T12:23:15.000Z</time>
      </trkpt>
      <trkpt lat="43.57506" lon="3.72769">
        <ele>73.03187250996</ele>
        <time>2020-10-09T12:23:16.000Z</time>
      </trkpt>
      <trkpt lat="43.57509" lon="3.72767">
        <ele>73.131474103586</ele>
        <time>2020-10-09T12:23:17.000Z</time>
      </trkpt>
      <trkpt lat="43.57511" lon="3.72764">
        <ele>73.231075697211</ele>
        <time>2020-10-09T12:23:18.000Z</time>
      </trkpt>
      <trkpt lat="43.57513" lon="3.7276">
        <ele>73.330677290837</ele>
        <time>2020-10-09T12:23:19.000Z</time>
      </trkpt>
      <trkpt lat="43.57515" lon="3.72756">
        <ele>73.430278884462</ele>
        <time>2020-10-09T12:23:20.000Z</time>
      </trkpt>
      <trkpt lat="43.57516" lon="3.72753">
        <ele>73.529880478088</ele>
        <time>2020-10-09T12:23:21.000Z</time>
      </trkpt>
      <trkpt lat="43.57517" lon="3.72749">
        <ele>73.629482071713</ele>
        <time>2020-10-09T12:23:22.000Z</time>
      </trkpt>
      <trkpt lat="43.57519" lon="3.72745">
        <ele>73.729083665339</ele>
        <time>2020-10-09T12:23:23.000Z</time>
      </trkpt>
      <trkpt lat="43.5752" lon="3.72741">
        <ele>73.828685258964</ele>
        <time>2020-10-09T12:23:24.000Z</time>
      </trkpt>
      <trkpt lat="43.57521" lon="3.72737">
        <ele>73.92828685259</ele>
        <time>2020-10-09T12:23:25.000Z</time>
      </trkpt>
      <trkpt lat="43.57522" lon="3.72734">
        <ele>74</ele>
        <time>2020-10-09T12:23:26.000Z</time>
      </trkpt>
      <trkpt lat="43.57524" lon="3.7273">
        <ele>74</ele>
        <time>2020-10-09T12:23:27.000Z</time>
      </trkpt>
      <trkpt lat="43.57524" lon="3.72727">
        <ele>74</ele>
        <time>2020-10-09T12:23:28.000Z</time>
      </trkpt>
      <trkpt lat="43.57525" lon="3.72723">
        <ele>74</ele>
        <time>2020-10-09T12:23:29.000Z</time>
      </trkpt>
      <trkpt lat="43.57525" lon="3.72719">
        <ele>74</ele>
        <time>2020-10-09T12:23:30.000Z</time>
      </trkpt>
      <trkpt lat="43.57525" lon="3.72715">
        <ele>74</ele>
        <time>2020-10-09T12:23:31.000Z</time>
      </trkpt>
      <trkpt lat="43.57525" lon="3.72711">
        <ele>74</ele>
        <time>2020-10-09T12:23:32.000Z</time>
      </trkpt>
      <trkpt lat="43.57525" lon="3.72708">
        <ele>74</ele>
        <time>2020-10-09T12:23:33.000Z</time>
      </trkpt>
      <trkpt lat="43.57525" lon="3.72704">
        <ele>74</ele>
        <time>2020-10-09T12:23:34.000Z</time>
      </trkpt>
      <trkpt lat="43.57525" lon="3.727">
        <ele>74</ele>
        <time>2020-10-09T12:23:35.000Z</time>
      </trkpt>
      <trkpt lat="43.57524" lon="3.72696">
        <ele>74.032</ele>
        <time>2020-10-09T12:23:36.000Z</time>
      </trkpt>
      <trkpt lat="43.57524" lon="3.72692">
        <ele>74.132</ele>
        <time>2020-10-09T12:23:37.000Z</time>
      </trkpt>
      <trkpt lat="43.57523" lon="3.72688">
        <ele>74.232</ele>
        <time>2020-10-09T12:23:38.000Z</time>
      </trkpt>
      <trkpt lat="43.57523" lon="3.72684">
        <ele>74.332</ele>
        <time>2020-10-09T12:23:39.000Z</time>
      </trkpt>
      <trkpt lat="43.57523" lon="3.7268">
        <ele>74.432</ele>
        <time>2020-10-09T12:23:40.000Z</time>
      </trkpt>
      <trkpt lat="43.57523" lon="3.72677">
        <ele>74.532</ele>
        <time>2020-10-09T12:23:41.000Z</time>
      </trkpt>
      <trkpt lat="43.57522" lon="3.72673">
        <ele>74.632</ele>
        <time>2020-10-09T12:23:42.000Z</time>
      </trkpt>
      <trkpt lat="43.57521" lon="3.72669">
        <ele>74.732</ele>
        <time>2020-10-09T12:23:43.000Z</time>
      </trkpt>
      <trkpt lat="43.5752" lon="3.72665">
        <ele>74.832</ele>
        <time>2020-10-09T12:23:44.000Z</time>
      </trkpt>
      <trkpt lat="43.57519" lon="3.72662">
        <ele>74.932</ele>
        <time>2020-10-09T12:23:45.000Z</time>
      </trkpt>
      <trkpt lat="43.57518" lon="3.72658">
        <ele>75.031098163218</ele>
        <time>2020-10-09T12:23:46.000Z</time>
      </trkpt>
      <trkpt lat="43.57517" lon="3.72655">
        <ele>75.128279923275</ele>
        <time>2020-10-09T12:23:47.000Z</time>
      </trkpt>
      <trkpt lat="43.57517" lon="3.72651">
        <ele>75.225461683331</ele>
        <time>2020-10-09T12:23:48.000Z</time>
      </trkpt>
      <trkpt lat="43.57516" lon="3.72648">
        <ele>75.322643443388</ele>
        <time>2020-10-09T12:23:49.000Z</time>
      </trkpt>
      <trkpt lat="43.57516" lon="3.72645">
        <ele>75.419825203444</ele>
        <time>2020-10-09T12:23:50.000Z</time>
      </trkpt>
      <trkpt lat="43.57515" lon="3.72642">
        <ele>75.517006963501</ele>
        <time>2020-10-09T12:23:51.000Z</time>
      </trkpt>
      <trkpt lat="43.57514" lon="3.72639">
        <ele>75.614188723557</ele>
        <time>2020-10-09T12:23:52.000Z</time>
      </trkpt>
      <trkpt lat="43.57513" lon="3.72636">
        <ele>75.711370483614</ele>
        <time>2020-10-09T12:23:53.000Z</time>
      </trkpt>
      <trkpt lat="43.57512" lon="3.72633">
        <ele>75.80855224367</ele>
        <time>2020-10-09T12:23:54.000Z</time>
      </trkpt>
      <trkpt lat="43.57512" lon="3.7263">
        <ele>75.905734003727</ele>
        <time>2020-10-09T12:23:55.000Z</time>
      </trkpt>
      <trkpt lat="43.57511" lon="3.72627">
        <ele>76.003089926891</ele>
        <time>2020-10-09T12:23:56.000Z</time>
      </trkpt>
      <trkpt lat="43.57511" lon="3.72624">
        <ele>76.106076504692</ele>
        <time>2020-10-09T12:23:57.000Z</time>
      </trkpt>
      <trkpt lat="43.5751" lon="3.72621">
        <ele>76.209063082492</ele>
        <time>2020-10-09T12:23:58.000Z</time>
      </trkpt>
      <trkpt lat="43.5751" lon="3.72617">
        <ele>76.312049660293</ele>
        <time>2020-10-09T12:23:59.000Z</time>
      </trkpt>
      <trkpt lat="43.57509" lon="3.72614">
        <ele>76.415036238093</ele>
        <time>2020-10-09T12:24:00.000Z</time>
      </trkpt>
      <trkpt lat="43.57508" lon="3.72611">
        <ele>76.518022815894</ele>
        <time>2020-10-09T12:24:01.000Z</time>
      </trkpt>
      <trkpt lat="43.57507" lon="3.72608">
        <ele>76.621009393694</ele>
        <time>2020-10-09T12:24:02.000Z</time>
      </trkpt>
      <trkpt lat="43.57507" lon="3.72606">
        <ele>76.723995971495</ele>
        <time>2020-10-09T12:24:03.000Z</time>
      </trkpt>
      <trkpt lat="43.57506" lon="3.72603">
        <ele>76.826982549295</ele>
        <time>2020-10-09T12:24:04.000Z</time>
      </trkpt>
      <trkpt lat="43.57505" lon="3.726">
        <ele>76.929969127096</ele>
        <time>2020-10-09T12:24:05.000Z</time>
      </trkpt>
      <trkpt lat="43.57504" lon="3.72597">
        <ele>77.031098163218</ele>
        <time>2020-10-09T12:24:06.000Z</time>
      </trkpt>
      <trkpt lat="43.57502" lon="3.72594">
        <ele>77.128279923275</ele>
        <time>2020-10-09T12:24:07.000Z</time>
      </trkpt>
      <trkpt lat="43.57501" lon="3.72591">
        <ele>77.225461683331</ele>
        <time>2020-10-09T12:24:08.000Z</time>
      </trkpt>
      <trkpt lat="43.575" lon="3.72588">
        <ele>77.322643443388</ele>
        <time>2020-10-09T12:24:09.000Z</time>
      </trkpt>
      <trkpt lat="43.57499" lon="3.72584">
        <ele>77.419825203444</ele>
        <time>2020-10-09T12:24:10.000Z</time>
      </trkpt>
      <trkpt lat="43.57498" lon="3.72581">
        <ele>77.517006963501</ele>
        <time>2020-10-09T12:24:11.000Z</time>
      </trkpt>
      <trkpt lat="43.57497" lon="3.72578">
        <ele>77.614188723557</ele>
        <time>2020-10-09T12:24:12.000Z</time>
      </trkpt>
      <trkpt lat="43.57495" lon="3.72575">
        <ele>77.711370483614</ele>
        <time>2020-10-09T12:24:13.000Z</time>
      </trkpt>
      <trkpt lat="43.57494" lon="3.72572">
        <ele>77.80855224367</ele>
        <time>2020-10-09T12:24:14.000Z</time>
      </trkpt>
      <trkpt lat="43.57492" lon="3.72569">
        <ele>77.905734003727</ele>
        <time>2020-10-09T12:24:15.000Z</time>
      </trkpt>
      <trkpt lat="43.57491" lon="3.72566">
        <ele>78.003086748971</ele>
        <time>2020-10-09T12:24:16.000Z</time>
      </trkpt>
      <trkpt lat="43.57489" lon="3.72564">
        <ele>78.105967407407</ele>
        <time>2020-10-09T12:24:17.000Z</time>
      </trkpt>
      <trkpt lat="43.57487" lon="3.72561">
        <ele>78.208848065844</ele>
        <time>2020-10-09T12:24:18.000Z</time>
      </trkpt>
      <trkpt lat="43.57486" lon="3.72559">
        <ele>78.31172872428</ele>
        <time>2020-10-09T12:24:19.000Z</time>
      </trkpt>
      <trkpt lat="43.57484" lon="3.72556">
        <ele>78.414609382716</ele>
        <time>2020-10-09T12:24:20.000Z</time>
      </trkpt>
      <trkpt lat="43.57483" lon="3.72553">
        <ele>78.517490041152</ele>
        <time>2020-10-09T12:24:21.000Z</time>
      </trkpt>
      <trkpt lat="43.57482" lon="3.7255">
        <ele>78.620370699589</ele>
        <time>2020-10-09T12:24:22.000Z</time>
      </trkpt>
      <trkpt lat="43.5748" lon="3.72548">
        <ele>78.723251358025</ele>
        <time>2020-10-09T12:24:23.000Z</time>
      </trkpt>
      <trkpt lat="43.57479" lon="3.72545">
        <ele>78.826132016461</ele>
        <time>2020-10-09T12:24:24.000Z</time>
      </trkpt>
      <trkpt lat="43.57478" lon="3.72543">
        <ele>78.929012674897</ele>
        <time>2020-10-09T12:24:25.000Z</time>
      </trkpt>
      <trkpt lat="43.57477" lon="3.7254">
        <ele>79</ele>
        <time>2020-10-09T12:24:26.000Z</time>
      </trkpt>
      <trkpt lat="43.57475" lon="3.72538">
        <ele>79</ele>
        <time>2020-10-09T12:24:28.000Z</time>
      </trkpt>
      <trkpt lat="43.57475" lon="3.72537">
        <ele>79</ele>
        <time>2020-10-09T12:24:33.000Z</time>
      </trkpt>
      <trkpt lat="43.57481" lon="3.72544">
        <ele>78.989786139116</ele>
        <time>2020-10-09T12:24:50.000Z</time>
      </trkpt>
      <trkpt lat="43.57482" lon="3.72546">
        <ele>78.78549584686</ele>
        <time>2020-10-09T12:24:52.000Z</time>
      </trkpt>
      <trkpt lat="43.57484" lon="3.72549">
        <ele>78.581205554604</ele>
        <time>2020-10-09T12:24:54.000Z</time>
      </trkpt>
      <trkpt lat="43.57484" lon="3.7255">
        <ele>78.091104965626</ele>
        <time>2020-10-09T12:25:02.000Z</time>
      </trkpt>
      <trkpt lat="43.57479" lon="3.72544">
        <ele>78.958784526705</ele>
        <time>2020-10-09T12:25:06.000Z</time>
      </trkpt>
      <trkpt lat="43.57478" lon="3.72542">
        <ele>79</ele>
        <time>2020-10-09T12:25:07.000Z</time>
      </trkpt>
      <trkpt lat="43.57476" lon="3.72538">
        <ele>79</ele>
        <time>2020-10-09T12:25:09.000Z</time>
      </trkpt>
      <trkpt lat="43.57474" lon="3.72536">
        <ele>79</ele>
        <time>2020-10-09T12:25:11.000Z</time>
      </trkpt>
      <trkpt lat="43.57472" lon="3.72536">
        <ele>79</ele>
        <time>2020-10-09T12:25:13.000Z</time>
      </trkpt>
      <trkpt lat="43.5747" lon="3.72535">
        <ele>79</ele>
        <time>2020-10-09T12:25:14.000Z</time>
      </trkpt>
      <trkpt lat="43.57469" lon="3.72533">
        <ele>79</ele>
        <time>2020-10-09T12:25:15.000Z</time>
      </trkpt>
      <trkpt lat="43.57466" lon="3.72531">
        <ele>79</ele>
        <time>2020-10-09T12:25:17.000Z</time>
      </trkpt>
      <trkpt lat="43.57464" lon="3.72529">
        <ele>79</ele>
        <time>2020-10-09T12:25:19.000Z</time>
      </trkpt>
      <trkpt lat="43.5746" lon="3.72529">
        <ele>79</ele>
        <time>2020-10-09T12:25:21.000Z</time>
      </trkpt>
      <trkpt lat="43.57458" lon="3.72528">
        <ele>79</ele>
        <time>2020-10-09T12:25:22.000Z</time>
      </trkpt>
      <trkpt lat="43.57456" lon="3.72527">
        <ele>79</ele>
        <time>2020-10-09T12:25:23.000Z</time>
      </trkpt>
      <trkpt lat="43.57454" lon="3.72526">
        <ele>79</ele>
        <time>2020-10-09T12:25:24.000Z</time>
      </trkpt>
      <trkpt lat="43.57452" lon="3.72524">
        <ele>79</ele>
        <time>2020-10-09T12:25:25.000Z</time>
      </trkpt>
      <trkpt lat="43.5745" lon="3.72523">
        <ele>79.003089926891</ele>
        <time>2020-10-09T12:25:26.000Z</time>
      </trkpt>
      <trkpt lat="43.57448" lon="3.72521">
        <ele>79.106076504692</ele>
        <time>2020-10-09T12:25:27.000Z</time>
      </trkpt>
      <trkpt lat="43.57446" lon="3.7252">
        <ele>79.209063082492</ele>
        <time>2020-10-09T12:25:28.000Z</time>
      </trkpt>
      <trkpt lat="43.57444" lon="3.72518">
        <ele>79.312049660293</ele>
        <time>2020-10-09T12:25:29.000Z</time>
      </trkpt>
      <trkpt lat="43.57443" lon="3.72517">
        <ele>79.415036238093</ele>
        <time>2020-10-09T12:25:30.000Z</time>
      </trkpt>
      <trkpt lat="43.57441" lon="3.72515">
        <ele>79.518022815894</ele>
        <time>2020-10-09T12:25:31.000Z</time>
      </trkpt>
      <trkpt lat="43.57439" lon="3.72513">
        <ele>79.621009393694</ele>
        <time>2020-10-09T12:25:32.000Z</time>
      </trkpt>
      <trkpt lat="43.57437" lon="3.72511">
        <ele>79.723995971495</ele>
        <time>2020-10-09T12:25:33.000Z</time>
      </trkpt>
      <trkpt lat="43.57436" lon="3.72509">
        <ele>79.826982549295</ele>
        <time>2020-10-09T12:25:34.000Z</time>
      </trkpt>
      <trkpt lat="43.57434" lon="3.72507">
        <ele>79.929969127096</ele>
        <time>2020-10-09T12:25:35.000Z</time>
      </trkpt>
      <trkpt lat="43.57433" lon="3.72505">
        <ele>80</ele>
        <time>2020-10-09T12:25:36.000Z</time>
      </trkpt>
      <trkpt lat="43.57431" lon="3.72503">
        <ele>80</ele>
        <time>2020-10-09T12:25:37.000Z</time>
      </trkpt>
      <trkpt lat="43.5743" lon="3.72501">
        <ele>80</ele>
        <time>2020-10-09T12:25:38.000Z</time>
      </trkpt>
      <trkpt lat="43.57428" lon="3.72499">
        <ele>80</ele>
        <time>2020-10-09T12:25:39.000Z</time>
      </trkpt>
      <trkpt lat="43.57427" lon="3.72496">
        <ele>80</ele>
        <time>2020-10-09T12:25:40.000Z</time>
      </trkpt>
      <trkpt lat="43.57425" lon="3.72494">
        <ele>80</ele>
        <time>2020-10-09T12:25:41.000Z</time>
      </trkpt>
      <trkpt lat="43.57424" lon="3.72492">
        <ele>80</ele>
        <time>2020-10-09T12:25:42.000Z</time>
      </trkpt>
      <trkpt lat="43.57422" lon="3.7249">
        <ele>80</ele>
        <time>2020-10-09T12:25:43.000Z</time>
      </trkpt>
      <trkpt lat="43.57421" lon="3.72488">
        <ele>80</ele>
        <time>2020-10-09T12:25:44.000Z</time>
      </trkpt>
      <trkpt lat="43.57419" lon="3.72486">
        <ele>80</ele>
        <time>2020-10-09T12:25:45.000Z</time>
      </trkpt>
      <trkpt lat="43.57418" lon="3.72484">
        <ele>80.027135991273</ele>
        <time>2020-10-09T12:25:46.000Z</time>
      </trkpt>
      <trkpt lat="43.57416" lon="3.72481">
        <ele>80.127638471513</ele>
        <time>2020-10-09T12:25:47.000Z</time>
      </trkpt>
      <trkpt lat="43.57415" lon="3.72479">
        <ele>80.228140951754</ele>
        <time>2020-10-09T12:25:48.000Z</time>
      </trkpt>
      <trkpt lat="43.57414" lon="3.72477">
        <ele>80.328643431994</ele>
        <time>2020-10-09T12:25:49.000Z</time>
      </trkpt>
      <trkpt lat="43.57412" lon="3.72475">
        <ele>80.429145912235</ele>
        <time>2020-10-09T12:25:50.000Z</time>
      </trkpt>
      <trkpt lat="43.57411" lon="3.72473">
        <ele>80.529648392475</ele>
        <time>2020-10-09T12:25:51.000Z</time>
      </trkpt>
      <trkpt lat="43.57409" lon="3.72472">
        <ele>80.630150872715</ele>
        <time>2020-10-09T12:25:52.000Z</time>
      </trkpt>
      <trkpt lat="43.57408" lon="3.7247">
        <ele>80.730653352956</ele>
        <time>2020-10-09T12:25:53.000Z</time>
      </trkpt>
      <trkpt lat="43.57406" lon="3.72468">
        <ele>80.831155833196</ele>
        <time>2020-10-09T12:25:54.000Z</time>
      </trkpt>
      <trkpt lat="43.57404" lon="3.72465">
        <ele>80.931658313437</ele>
        <time>2020-10-09T12:25:55.000Z</time>
      </trkpt>
      <trkpt lat="43.57402" lon="3.72463">
        <ele>81</ele>
        <time>2020-10-09T12:25:56.000Z</time>
      </trkpt>
      <trkpt lat="43.574" lon="3.7246">
        <ele>81</ele>
        <time>2020-10-09T12:25:57.000Z</time>
      </trkpt>
      <trkpt lat="43.57398" lon="3.72458">
        <ele>81</ele>
        <time>2020-10-09T12:25:58.000Z</time>
      </trkpt>
      <trkpt lat="43.57397" lon="3.72455">
        <ele>81</ele>
        <time>2020-10-09T12:25:59.000Z</time>
      </trkpt>
      <trkpt lat="43.57395" lon="3.72453">
        <ele>81</ele>
        <time>2020-10-09T12:26:00.000Z</time>
      </trkpt>
      <trkpt lat="43.57394" lon="3.7245">
        <ele>81</ele>
        <time>2020-10-09T12:26:01.000Z</time>
      </trkpt>
      <trkpt lat="43.57393" lon="3.72448">
        <ele>81</ele>
        <time>2020-10-09T12:26:02.000Z</time>
      </trkpt>
      <trkpt lat="43.57391" lon="3.72446">
        <ele>81</ele>
        <time>2020-10-09T12:26:03.000Z</time>
      </trkpt>
      <trkpt lat="43.5739" lon="3.72444">
        <ele>81</ele>
        <time>2020-10-09T12:26:04.000Z</time>
      </trkpt>
      <trkpt lat="43.57389" lon="3.72442">
        <ele>81</ele>
        <time>2020-10-09T12:26:05.000Z</time>
      </trkpt>
      <trkpt lat="43.57387" lon="3.7244">
        <ele>81.004115226337</ele>
        <time>2020-10-09T12:26:06.000Z</time>
      </trkpt>
      <trkpt lat="43.57386" lon="3.72438">
        <ele>81.106995884774</ele>
        <time>2020-10-09T12:26:07.000Z</time>
      </trkpt>
      <trkpt lat="43.57385" lon="3.72436">
        <ele>81.20987654321</ele>
        <time>2020-10-09T12:26:08.000Z</time>
      </trkpt>
      <trkpt lat="43.57383" lon="3.72434">
        <ele>81.312757201646</ele>
        <time>2020-10-09T12:26:09.000Z</time>
      </trkpt>
      <trkpt lat="43.57381" lon="3.72432">
        <ele>81.415637860082</ele>
        <time>2020-10-09T12:26:10.000Z</time>
      </trkpt>
      <trkpt lat="43.5738" lon="3.7243">
        <ele>81.518518518519</ele>
        <time>2020-10-09T12:26:11.000Z</time>
      </trkpt>
      <trkpt lat="43.57378" lon="3.72428">
        <ele>81.621399176955</ele>
        <time>2020-10-09T12:26:12.000Z</time>
      </trkpt>
      <trkpt lat="43.57377" lon="3.72426">
        <ele>81.724279835391</ele>
        <time>2020-10-09T12:26:13.000Z</time>
      </trkpt>
      <trkpt lat="43.57374" lon="3.72422">
        <ele>81.930041152263</ele>
        <time>2020-10-09T12:26:15.000Z</time>
      </trkpt>
      <trkpt lat="43.57373" lon="3.7242">
        <ele>82</ele>
        <time>2020-10-09T12:26:16.000Z</time>
      </trkpt>
      <trkpt lat="43.57372" lon="3.72418">
        <ele>82</ele>
        <time>2020-10-09T12:26:17.000Z</time>
      </trkpt>
      <trkpt lat="43.5737" lon="3.72416">
        <ele>82</ele>
        <time>2020-10-09T12:26:18.000Z</time>
      </trkpt>
      <trkpt lat="43.57369" lon="3.72413">
        <ele>82</ele>
        <time>2020-10-09T12:26:19.000Z</time>
      </trkpt>
      <trkpt lat="43.57367" lon="3.72411">
        <ele>82</ele>
        <time>2020-10-09T12:26:20.000Z</time>
      </trkpt>
      <trkpt lat="43.57366" lon="3.72409">
        <ele>82</ele>
        <time>2020-10-09T12:26:21.000Z</time>
      </trkpt>
      <trkpt lat="43.57365" lon="3.72407">
        <ele>82</ele>
        <time>2020-10-09T12:26:22.000Z</time>
      </trkpt>
      <trkpt lat="43.57363" lon="3.72405">
        <ele>82</ele>
        <time>2020-10-09T12:26:23.000Z</time>
      </trkpt>
      <trkpt lat="43.57362" lon="3.72403">
        <ele>82</ele>
        <time>2020-10-09T12:26:24.000Z</time>
      </trkpt>
      <trkpt lat="43.57361" lon="3.72401">
        <ele>82</ele>
        <time>2020-10-09T12:26:25.000Z</time>
      </trkpt>
      <trkpt lat="43.57359" lon="3.72399">
        <ele>82.032</ele>
        <time>2020-10-09T12:26:26.000Z</time>
      </trkpt>
      <trkpt lat="43.57358" lon="3.72398">
        <ele>82.132</ele>
        <time>2020-10-09T12:26:27.000Z</time>
      </trkpt>
      <trkpt lat="43.57356" lon="3.72394">
        <ele>82.332</ele>
        <time>2020-10-09T12:26:29.000Z</time>
      </trkpt>
      <trkpt lat="43.57354" lon="3.72391">
        <ele>82.532</ele>
        <time>2020-10-09T12:26:31.000Z</time>
      </trkpt>
      <trkpt lat="43.57353" lon="3.72389">
        <ele>82.632</ele>
        <time>2020-10-09T12:26:32.000Z</time>
      </trkpt>
      <trkpt lat="43.57351" lon="3.72387">
        <ele>82.732</ele>
        <time>2020-10-09T12:26:33.000Z</time>
      </trkpt>
      <trkpt lat="43.5735" lon="3.72385">
        <ele>82.832</ele>
        <time>2020-10-09T12:26:34.000Z</time>
      </trkpt>
      <trkpt lat="43.57348" lon="3.72381">
        <ele>83.094955459559</ele>
        <time>2020-10-09T12:26:36.000Z</time>
      </trkpt>
      <trkpt lat="43.57346" lon="3.72378">
        <ele>83.688427081803</ele>
        <time>2020-10-09T12:26:38.000Z</time>
      </trkpt>
      <trkpt lat="43.57345" lon="3.72373">
        <ele>84.281898704048</ele>
        <time>2020-10-09T12:26:40.000Z</time>
      </trkpt>
      <trkpt lat="43.57344" lon="3.72371">
        <ele>84.57863451517</ele>
        <time>2020-10-09T12:26:41.000Z</time>
      </trkpt>
      <trkpt lat="43.57343" lon="3.72368">
        <ele>84.875370326292</ele>
        <time>2020-10-09T12:26:42.000Z</time>
      </trkpt>
      <trkpt lat="43.57343" lon="3.72366">
        <ele>85.172106137415</ele>
        <time>2020-10-09T12:26:43.000Z</time>
      </trkpt>
      <trkpt lat="43.57342" lon="3.72362">
        <ele>85.765577759659</ele>
        <time>2020-10-09T12:26:45.000Z</time>
      </trkpt>
      <trkpt lat="43.57342" lon="3.72358">
        <ele>86.244691039738</ele>
        <time>2020-10-09T12:26:47.000Z</time>
      </trkpt>
      <trkpt lat="43.57343" lon="3.72354">
        <ele>86.649140108923</ele>
        <time>2020-10-09T12:26:49.000Z</time>
      </trkpt>
      <trkpt lat="43.57345" lon="3.72351">
        <ele>87.053589178108</ele>
        <time>2020-10-09T12:26:51.000Z</time>
      </trkpt>
      <trkpt lat="43.57346" lon="3.72347">
        <ele>87.458038247292</ele>
        <time>2020-10-09T12:26:53.000Z</time>
      </trkpt>
      <trkpt lat="43.57345" lon="3.72343">
        <ele>87.862487316477</ele>
        <time>2020-10-09T12:26:55.000Z</time>
      </trkpt>
      <trkpt lat="43.57345" lon="3.72339">
        <ele>88.264</ele>
        <time>2020-10-09T12:26:57.000Z</time>
      </trkpt>
      <trkpt lat="43.57344" lon="3.72334">
        <ele>88.664</ele>
        <time>2020-10-09T12:26:59.000Z</time>
      </trkpt>
      <trkpt lat="43.57345" lon="3.72331">
        <ele>89.064</ele>
        <time>2020-10-09T12:27:01.000Z</time>
      </trkpt>
      <trkpt lat="43.57345" lon="3.72327">
        <ele>89.464</ele>
        <time>2020-10-09T12:27:03.000Z</time>
      </trkpt>
      <trkpt lat="43.57345" lon="3.72323">
        <ele>89.864</ele>
        <time>2020-10-09T12:27:05.000Z</time>
      </trkpt>
      <trkpt lat="43.57344" lon="3.7232">
        <ele>90.260098440166</ele>
        <time>2020-10-09T12:27:07.000Z</time>
      </trkpt>
      <trkpt lat="43.57344" lon="3.72316">
        <ele>90.654186985872</ele>
        <time>2020-10-09T12:27:09.000Z</time>
      </trkpt>
      <trkpt lat="43.57343" lon="3.72313">
        <ele>91.048275531578</ele>
        <time>2020-10-09T12:27:11.000Z</time>
      </trkpt>
      <trkpt lat="43.57343" lon="3.7231">
        <ele>91.442364077284</ele>
        <time>2020-10-09T12:27:13.000Z</time>
      </trkpt>
      <trkpt lat="43.57341" lon="3.72306">
        <ele>91.83645262299</ele>
        <time>2020-10-09T12:27:15.000Z</time>
      </trkpt>
      <trkpt lat="43.57338" lon="3.72303">
        <ele>92.117469558233</ele>
        <time>2020-10-09T12:27:17.000Z</time>
      </trkpt>
      <trkpt lat="43.57336" lon="3.72299">
        <ele>92.318272771084</ele>
        <time>2020-10-09T12:27:19.000Z</time>
      </trkpt>
      <trkpt lat="43.57334" lon="3.72297">
        <ele>92.41867437751</ele>
        <time>2020-10-09T12:27:20.000Z</time>
      </trkpt>
      <trkpt lat="43.57333" lon="3.72295">
        <ele>92.519075983936</ele>
        <time>2020-10-09T12:27:21.000Z</time>
      </trkpt>
      <trkpt lat="43.57331" lon="3.72293">
        <ele>92.619477590361</ele>
        <time>2020-10-09T12:27:22.000Z</time>
      </trkpt>
      <trkpt lat="43.5733" lon="3.72291">
        <ele>92.719879196787</ele>
        <time>2020-10-09T12:27:23.000Z</time>
      </trkpt>
      <trkpt lat="43.57329" lon="3.72288">
        <ele>92.820280803213</ele>
        <time>2020-10-09T12:27:24.000Z</time>
      </trkpt>
      <trkpt lat="43.57328" lon="3.72285">
        <ele>92.920682409639</ele>
        <time>2020-10-09T12:27:25.000Z</time>
      </trkpt>
      <trkpt lat="43.57327" lon="3.72282">
        <ele>93.021233252573</ele>
        <time>2020-10-09T12:27:26.000Z</time>
      </trkpt>
      <trkpt lat="43.57326" lon="3.72279">
        <ele>93.122345519869</ele>
        <time>2020-10-09T12:27:27.000Z</time>
      </trkpt>
      <trkpt lat="43.57324" lon="3.72276">
        <ele>93.223457787165</ele>
        <time>2020-10-09T12:27:28.000Z</time>
      </trkpt>
      <trkpt lat="43.57323" lon="3.72273">
        <ele>93.324570054462</ele>
        <time>2020-10-09T12:27:29.000Z</time>
      </trkpt>
      <trkpt lat="43.57321" lon="3.7227">
        <ele>93.425682321758</ele>
        <time>2020-10-09T12:27:30.000Z</time>
      </trkpt>
      <trkpt lat="43.57319" lon="3.72267">
        <ele>93.526794589054</ele>
        <time>2020-10-09T12:27:31.000Z</time>
      </trkpt>
      <trkpt lat="43.57317" lon="3.72263">
        <ele>93.62790685635</ele>
        <time>2020-10-09T12:27:32.000Z</time>
      </trkpt>
      <trkpt lat="43.57315" lon="3.72259">
        <ele>93.729019123646</ele>
        <time>2020-10-09T12:27:33.000Z</time>
      </trkpt>
      <trkpt lat="43.57313" lon="3.72255">
        <ele>93.830131390942</ele>
        <time>2020-10-09T12:27:34.000Z</time>
      </trkpt>
      <trkpt lat="43.57311" lon="3.72251">
        <ele>93.931243658239</ele>
        <time>2020-10-09T12:27:35.000Z</time>
      </trkpt>
      <trkpt lat="43.57309" lon="3.72247">
        <ele>94</ele>
        <time>2020-10-09T12:27:36.000Z</time>
      </trkpt>
      <trkpt lat="43.57307" lon="3.72242">
        <ele>94</ele>
        <time>2020-10-09T12:27:37.000Z</time>
      </trkpt>
      <trkpt lat="43.57305" lon="3.72239">
        <ele>94</ele>
        <time>2020-10-09T12:27:38.000Z</time>
      </trkpt>
      <trkpt lat="43.57303" lon="3.72234">
        <ele>94</ele>
        <time>2020-10-09T12:27:39.000Z</time>
      </trkpt>
      <trkpt lat="43.57301" lon="3.7223">
        <ele>94</ele>
        <time>2020-10-09T12:27:40.000Z</time>
      </trkpt>
      <trkpt lat="43.573" lon="3.72226">
        <ele>94</ele>
        <time>2020-10-09T12:27:41.000Z</time>
      </trkpt>
      <trkpt lat="43.57298" lon="3.72222">
        <ele>94</ele>
        <time>2020-10-09T12:27:42.000Z</time>
      </trkpt>
      <trkpt lat="43.57296" lon="3.72218">
        <ele>94</ele>
        <time>2020-10-09T12:27:43.000Z</time>
      </trkpt>
      <trkpt lat="43.57294" lon="3.72214">
        <ele>94</ele>
        <time>2020-10-09T12:27:44.000Z</time>
      </trkpt>
      <trkpt lat="43.57293" lon="3.72211">
        <ele>94</ele>
        <time>2020-10-09T12:27:45.000Z</time>
      </trkpt>
      <trkpt lat="43.57291" lon="3.72207">
        <ele>94.063366376787</ele>
        <time>2020-10-09T12:27:46.000Z</time>
      </trkpt>
      <trkpt lat="43.5729" lon="3.72204">
        <ele>94.261386304245</ele>
        <time>2020-10-09T12:27:47.000Z</time>
      </trkpt>
      <trkpt lat="43.57288" lon="3.722">
        <ele>94.459406231703</ele>
        <time>2020-10-09T12:27:48.000Z</time>
      </trkpt>
      <trkpt lat="43.57287" lon="3.72197">
        <ele>94.657426159161</ele>
        <time>2020-10-09T12:27:49.000Z</time>
      </trkpt>
      <trkpt lat="43.57285" lon="3.72194">
        <ele>94.855446086619</ele>
        <time>2020-10-09T12:27:50.000Z</time>
      </trkpt>
      <trkpt lat="43.57283" lon="3.72192">
        <ele>95.053466014078</ele>
        <time>2020-10-09T12:27:51.000Z</time>
      </trkpt>
      <trkpt lat="43.57281" lon="3.72189">
        <ele>95.251485941536</ele>
        <time>2020-10-09T12:27:52.000Z</time>
      </trkpt>
      <trkpt lat="43.57279" lon="3.72187">
        <ele>95.449505868994</ele>
        <time>2020-10-09T12:27:53.000Z</time>
      </trkpt>
      <trkpt lat="43.57277" lon="3.72185">
        <ele>95.647525796452</ele>
        <time>2020-10-09T12:27:54.000Z</time>
      </trkpt>
      <trkpt lat="43.57275" lon="3.72184">
        <ele>95.84554572391</ele>
        <time>2020-10-09T12:27:55.000Z</time>
      </trkpt>
      <trkpt lat="43.57273" lon="3.72183">
        <ele>96.022222854321</ele>
        <time>2020-10-09T12:27:56.000Z</time>
      </trkpt>
      <trkpt lat="43.5727" lon="3.72182">
        <ele>96.224242925742</ele>
        <time>2020-10-09T12:27:58.000Z</time>
      </trkpt>
      <trkpt lat="43.57268" lon="3.72181">
        <ele>96.325252961453</ele>
        <time>2020-10-09T12:27:59.000Z</time>
      </trkpt>
      <trkpt lat="43.57265" lon="3.72179">
        <ele>96.527273032874</ele>
        <time>2020-10-09T12:28:01.000Z</time>
      </trkpt>
      <trkpt lat="43.57262" lon="3.72178">
        <ele>96.729293104295</ele>
        <time>2020-10-09T12:28:03.000Z</time>
      </trkpt>
      <trkpt lat="43.57259" lon="3.72175">
        <ele>96.931313175717</ele>
        <time>2020-10-09T12:28:05.000Z</time>
      </trkpt>
      <trkpt lat="43.57258" lon="3.72173">
        <ele>97.031968042188</ele>
        <time>2020-10-09T12:28:06.000Z</time>
      </trkpt>
      <trkpt lat="43.57256" lon="3.7217">
        <ele>97.131868174024</ele>
        <time>2020-10-09T12:28:07.000Z</time>
      </trkpt>
      <trkpt lat="43.57255" lon="3.72168">
        <ele>97.23176830586</ele>
        <time>2020-10-09T12:28:08.000Z</time>
      </trkpt>
      <trkpt lat="43.57254" lon="3.72165">
        <ele>97.331668437696</ele>
        <time>2020-10-09T12:28:09.000Z</time>
      </trkpt>
      <trkpt lat="43.57253" lon="3.72162">
        <ele>97.431568569532</ele>
        <time>2020-10-09T12:28:10.000Z</time>
      </trkpt>
      <trkpt lat="43.57252" lon="3.72159">
        <ele>97.531468701369</ele>
        <time>2020-10-09T12:28:11.000Z</time>
      </trkpt>
      <trkpt lat="43.57251" lon="3.72156">
        <ele>97.631368833205</ele>
        <time>2020-10-09T12:28:12.000Z</time>
      </trkpt>
      <trkpt lat="43.5725" lon="3.72153">
        <ele>97.731268965041</ele>
        <time>2020-10-09T12:28:13.000Z</time>
      </trkpt>
      <trkpt lat="43.57248" lon="3.72151">
        <ele>97.831169096877</ele>
        <time>2020-10-09T12:28:14.000Z</time>
      </trkpt>
      <trkpt lat="43.57247" lon="3.72149">
        <ele>97.931069228713</ele>
        <time>2020-10-09T12:28:15.000Z</time>
      </trkpt>
      <trkpt lat="43.57245" lon="3.72146">
        <ele>98.060311906615</ele>
        <time>2020-10-09T12:28:16.000Z</time>
      </trkpt>
      <trkpt lat="43.57243" lon="3.72143">
        <ele>98.254864435798</ele>
        <time>2020-10-09T12:28:17.000Z</time>
      </trkpt>
      <trkpt lat="43.57241" lon="3.72141">
        <ele>98.449416964981</ele>
        <time>2020-10-09T12:28:18.000Z</time>
      </trkpt>
      <trkpt lat="43.57239" lon="3.72138">
        <ele>98.643969494163</ele>
        <time>2020-10-09T12:28:19.000Z</time>
      </trkpt>
      <trkpt lat="43.57237" lon="3.72135">
        <ele>98.838522023346</ele>
        <time>2020-10-09T12:28:20.000Z</time>
      </trkpt>
      <trkpt lat="43.57235" lon="3.72133">
        <ele>99.033074552529</ele>
        <time>2020-10-09T12:28:21.000Z</time>
      </trkpt>
      <trkpt lat="43.57232" lon="3.72131">
        <ele>99.227627081712</ele>
        <time>2020-10-09T12:28:22.000Z</time>
      </trkpt>
      <trkpt lat="43.5723" lon="3.72128">
        <ele>99.422179610895</ele>
        <time>2020-10-09T12:28:23.000Z</time>
      </trkpt>
      <trkpt lat="43.57228" lon="3.72126">
        <ele>99.616732140078</ele>
        <time>2020-10-09T12:28:24.000Z</time>
      </trkpt>
      <trkpt lat="43.57225" lon="3.72124">
        <ele>99.811284669261</ele>
        <time>2020-10-09T12:28:25.000Z</time>
      </trkpt>
      <trkpt lat="43.57223" lon="3.72122">
        <ele>100</ele>
        <time>2020-10-09T12:28:26.000Z</time>
      </trkpt>
      <trkpt lat="43.5722" lon="3.72121">
        <ele>100</ele>
        <time>2020-10-09T12:28:27.000Z</time>
      </trkpt>
      <trkpt lat="43.57218" lon="3.72119">
        <ele>100</ele>
        <time>2020-10-09T12:28:28.000Z</time>
      </trkpt>
      <trkpt lat="43.57216" lon="3.72118">
        <ele>100</ele>
        <time>2020-10-09T12:28:29.000Z</time>
      </trkpt>
      <trkpt lat="43.57213" lon="3.72116">
        <ele>100</ele>
        <time>2020-10-09T12:28:30.000Z</time>
      </trkpt>
      <trkpt lat="43.57211" lon="3.72114">
        <ele>100</ele>
        <time>2020-10-09T12:28:31.000Z</time>
      </trkpt>
      <trkpt lat="43.57208" lon="3.72112">
        <ele>100</ele>
        <time>2020-10-09T12:28:32.000Z</time>
      </trkpt>
      <trkpt lat="43.57207" lon="3.7211">
        <ele>100</ele>
        <time>2020-10-09T12:28:33.000Z</time>
      </trkpt>
      <trkpt lat="43.57207" lon="3.72107">
        <ele>100</ele>
        <time>2020-10-09T12:28:34.000Z</time>
      </trkpt>
      <trkpt lat="43.57206" lon="3.72104">
        <ele>100</ele>
        <time>2020-10-09T12:28:35.000Z</time>
      </trkpt>
      <trkpt lat="43.57206" lon="3.72101">
        <ele>100</ele>
        <time>2020-10-09T12:28:36.000Z</time>
      </trkpt>
      <trkpt lat="43.57206" lon="3.72098">
        <ele>100</ele>
        <time>2020-10-09T12:28:37.000Z</time>
      </trkpt>
      <trkpt lat="43.57206" lon="3.72094">
        <ele>100</ele>
        <time>2020-10-09T12:28:38.000Z</time>
      </trkpt>
      <trkpt lat="43.57207" lon="3.7209">
        <ele>100</ele>
        <time>2020-10-09T12:28:39.000Z</time>
      </trkpt>
      <trkpt lat="43.57209" lon="3.72086">
        <ele>100</ele>
        <time>2020-10-09T12:28:40.000Z</time>
      </trkpt>
      <trkpt lat="43.57211" lon="3.72082">
        <ele>100</ele>
        <time>2020-10-09T12:28:41.000Z</time>
      </trkpt>
      <trkpt lat="43.57213" lon="3.72079">
        <ele>100</ele>
        <time>2020-10-09T12:28:42.000Z</time>
      </trkpt>
      <trkpt lat="43.57214" lon="3.72075">
        <ele>100</ele>
        <time>2020-10-09T12:28:43.000Z</time>
      </trkpt>
      <trkpt lat="43.57214" lon="3.7207">
        <ele>100</ele>
        <time>2020-10-09T12:28:44.000Z</time>
      </trkpt>
      <trkpt lat="43.57213" lon="3.72065">
        <ele>100</ele>
        <time>2020-10-09T12:28:45.000Z</time>
      </trkpt>
      <trkpt lat="43.57211" lon="3.72059">
        <ele>100</ele>
        <time>2020-10-09T12:28:46.000Z</time>
      </trkpt>
      <trkpt lat="43.5721" lon="3.72053">
        <ele>100</ele>
        <time>2020-10-09T12:28:47.000Z</time>
      </trkpt>
      <trkpt lat="43.57208" lon="3.72048">
        <ele>100</ele>
        <time>2020-10-09T12:28:48.000Z</time>
      </trkpt>
      <trkpt lat="43.57206" lon="3.72043">
        <ele>100</ele>
        <time>2020-10-09T12:28:49.000Z</time>
      </trkpt>
      <trkpt lat="43.57204" lon="3.72038">
        <ele>100</ele>
        <time>2020-10-09T12:28:50.000Z</time>
      </trkpt>
      <trkpt lat="43.57201" lon="3.72033">
        <ele>100</ele>
        <time>2020-10-09T12:28:51.000Z</time>
      </trkpt>
      <trkpt lat="43.572" lon="3.72027">
        <ele>100</ele>
        <time>2020-10-09T12:28:52.000Z</time>
      </trkpt>
      <trkpt lat="43.57198" lon="3.72022">
        <ele>100</ele>
        <time>2020-10-09T12:28:53.000Z</time>
      </trkpt>
      <trkpt lat="43.57198" lon="3.72016">
        <ele>100</ele>
        <time>2020-10-09T12:28:54.000Z</time>
      </trkpt>
      <trkpt lat="43.57198" lon="3.72011">
        <ele>100</ele>
        <time>2020-10-09T12:28:55.000Z</time>
      </trkpt>
      <trkpt lat="43.57198" lon="3.72005">
        <ele>100</ele>
        <time>2020-10-09T12:28:56.000Z</time>
      </trkpt>
      <trkpt lat="43.57201" lon="3.72">
        <ele>100</ele>
        <time>2020-10-09T12:28:57.000Z</time>
      </trkpt>
      <trkpt lat="43.57205" lon="3.71998">
        <ele>100</ele>
        <time>2020-10-09T12:28:58.000Z</time>
      </trkpt>
      <trkpt lat="43.57208" lon="3.71997">
        <ele>100</ele>
        <time>2020-10-09T12:28:59.000Z</time>
      </trkpt>
      <trkpt lat="43.57211" lon="3.71995">
        <ele>100</ele>
        <time>2020-10-09T12:29:00.000Z</time>
      </trkpt>
      <trkpt lat="43.57211" lon="3.71991">
        <ele>100</ele>
        <time>2020-10-09T12:29:01.000Z</time>
      </trkpt>
      <trkpt lat="43.57209" lon="3.71988">
        <ele>100</ele>
        <time>2020-10-09T12:29:02.000Z</time>
      </trkpt>
      <trkpt lat="43.57206" lon="3.71986">
        <ele>100</ele>
        <time>2020-10-09T12:29:03.000Z</time>
      </trkpt>
      <trkpt lat="43.57204" lon="3.71987">
        <ele>100</ele>
        <time>2020-10-09T12:29:04.000Z</time>
      </trkpt>
      <trkpt lat="43.57202" lon="3.7199">
        <ele>100.03171457894</ele>
        <time>2020-10-09T12:29:06.000Z</time>
      </trkpt>
      <trkpt lat="43.57203" lon="3.71995">
        <ele>100.2299306973</ele>
        <time>2020-10-09T12:29:08.000Z</time>
      </trkpt>
      <trkpt lat="43.57205" lon="3.71997">
        <ele>100.32903875648</ele>
        <time>2020-10-09T12:29:09.000Z</time>
      </trkpt>
      <trkpt lat="43.57207" lon="3.71997">
        <ele>100.42814681567</ele>
        <time>2020-10-09T12:29:10.000Z</time>
      </trkpt>
      <trkpt lat="43.57211" lon="3.71997">
        <ele>100.52725487485</ele>
        <time>2020-10-09T12:29:11.000Z</time>
      </trkpt>
      <trkpt lat="43.57214" lon="3.71996">
        <ele>100.62636293403</ele>
        <time>2020-10-09T12:29:12.000Z</time>
      </trkpt>
      <trkpt lat="43.57218" lon="3.71995">
        <ele>100.72547099321</ele>
        <time>2020-10-09T12:29:13.000Z</time>
      </trkpt>
      <trkpt lat="43.57221" lon="3.71993">
        <ele>100.82457905239</ele>
        <time>2020-10-09T12:29:14.000Z</time>
      </trkpt>
      <trkpt lat="43.57225" lon="3.71993">
        <ele>100.92368711158</ele>
        <time>2020-10-09T12:29:15.000Z</time>
      </trkpt>
      <trkpt lat="43.57229" lon="3.71992">
        <ele>101</ele>
        <time>2020-10-09T12:29:16.000Z</time>
      </trkpt>
      <trkpt lat="43.57233" lon="3.71992">
        <ele>101</ele>
        <time>2020-10-09T12:29:17.000Z</time>
      </trkpt>
      <trkpt lat="43.57237" lon="3.71991">
        <ele>101</ele>
        <time>2020-10-09T12:29:18.000Z</time>
      </trkpt>
      <trkpt lat="43.57241" lon="3.7199">
        <ele>101</ele>
        <time>2020-10-09T12:29:19.000Z</time>
      </trkpt>
      <trkpt lat="43.57246" lon="3.71989">
        <ele>101</ele>
        <time>2020-10-09T12:29:20.000Z</time>
      </trkpt>
      <trkpt lat="43.5725" lon="3.71988">
        <ele>101</ele>
        <time>2020-10-09T12:29:21.000Z</time>
      </trkpt>
      <trkpt lat="43.57254" lon="3.71986">
        <ele>101</ele>
        <time>2020-10-09T12:29:22.000Z</time>
      </trkpt>
      <trkpt lat="43.57259" lon="3.71984">
        <ele>101</ele>
        <time>2020-10-09T12:29:23.000Z</time>
      </trkpt>
      <trkpt lat="43.57263" lon="3.71982">
        <ele>101</ele>
        <time>2020-10-09T12:29:24.000Z</time>
      </trkpt>
      <trkpt lat="43.57268" lon="3.7198">
        <ele>101</ele>
        <time>2020-10-09T12:29:25.000Z</time>
      </trkpt>
      <trkpt lat="43.57272" lon="3.71979">
        <ele>101.032</ele>
        <time>2020-10-09T12:29:26.000Z</time>
      </trkpt>
      <trkpt lat="43.57276" lon="3.71977">
        <ele>101.132</ele>
        <time>2020-10-09T12:29:27.000Z</time>
      </trkpt>
      <trkpt lat="43.5728" lon="3.71974">
        <ele>101.232</ele>
        <time>2020-10-09T12:29:28.000Z</time>
      </trkpt>
      <trkpt lat="43.57284" lon="3.71972">
        <ele>101.332</ele>
        <time>2020-10-09T12:29:29.000Z</time>
      </trkpt>
      <trkpt lat="43.57287" lon="3.71969">
        <ele>101.432</ele>
        <time>2020-10-09T12:29:30.000Z</time>
      </trkpt>
      <trkpt lat="43.57289" lon="3.71967">
        <ele>101.532</ele>
        <time>2020-10-09T12:29:31.000Z</time>
      </trkpt>
      <trkpt lat="43.5729" lon="3.71963">
        <ele>101.732</ele>
        <time>2020-10-09T12:29:33.000Z</time>
      </trkpt>
      <trkpt lat="43.57289" lon="3.7196">
        <ele>101.832</ele>
        <time>2020-10-09T12:29:34.000Z</time>
      </trkpt>
      <trkpt lat="43.57289" lon="3.71957">
        <ele>101.932</ele>
        <time>2020-10-09T12:29:35.000Z</time>
      </trkpt>
      <trkpt lat="43.57291" lon="3.71954">
        <ele>102.032</ele>
        <time>2020-10-09T12:29:36.000Z</time>
      </trkpt>
      <trkpt lat="43.57293" lon="3.71952">
        <ele>102.132</ele>
        <time>2020-10-09T12:29:37.000Z</time>
      </trkpt>
      <trkpt lat="43.57295" lon="3.7195">
        <ele>102.232</ele>
        <time>2020-10-09T12:29:38.000Z</time>
      </trkpt>
      <trkpt lat="43.57298" lon="3.71947">
        <ele>102.332</ele>
        <time>2020-10-09T12:29:39.000Z</time>
      </trkpt>
      <trkpt lat="43.573" lon="3.71945">
        <ele>102.432</ele>
        <time>2020-10-09T12:29:40.000Z</time>
      </trkpt>
      <trkpt lat="43.57303" lon="3.71942">
        <ele>102.532</ele>
        <time>2020-10-09T12:29:41.000Z</time>
      </trkpt>
      <trkpt lat="43.57306" lon="3.71938">
        <ele>102.632</ele>
        <time>2020-10-09T12:29:42.000Z</time>
      </trkpt>
      <trkpt lat="43.5731" lon="3.71935">
        <ele>102.732</ele>
        <time>2020-10-09T12:29:43.000Z</time>
      </trkpt>
      <trkpt lat="43.57313" lon="3.71931">
        <ele>102.832</ele>
        <time>2020-10-09T12:29:44.000Z</time>
      </trkpt>
      <trkpt lat="43.57317" lon="3.71928">
        <ele>102.932</ele>
        <time>2020-10-09T12:29:45.000Z</time>
      </trkpt>
      <trkpt lat="43.57321" lon="3.71925">
        <ele>103</ele>
        <time>2020-10-09T12:29:46.000Z</time>
      </trkpt>
      <trkpt lat="43.57325" lon="3.71922">
        <ele>103</ele>
        <time>2020-10-09T12:29:47.000Z</time>
      </trkpt>
      <trkpt lat="43.57329" lon="3.71919">
        <ele>103</ele>
        <time>2020-10-09T12:29:48.000Z</time>
      </trkpt>
      <trkpt lat="43.57332" lon="3.71916">
        <ele>103</ele>
        <time>2020-10-09T12:29:49.000Z</time>
      </trkpt>
      <trkpt lat="43.57336" lon="3.71914">
        <ele>103</ele>
        <time>2020-10-09T12:29:50.000Z</time>
      </trkpt>
      <trkpt lat="43.5734" lon="3.71911">
        <ele>103</ele>
        <time>2020-10-09T12:29:51.000Z</time>
      </trkpt>
      <trkpt lat="43.57344" lon="3.71907">
        <ele>103</ele>
        <time>2020-10-09T12:29:52.000Z</time>
      </trkpt>
      <trkpt lat="43.57349" lon="3.71904">
        <ele>103</ele>
        <time>2020-10-09T12:29:53.000Z</time>
      </trkpt>
      <trkpt lat="43.57353" lon="3.71901">
        <ele>103</ele>
        <time>2020-10-09T12:29:54.000Z</time>
      </trkpt>
      <trkpt lat="43.57357" lon="3.71897">
        <ele>103</ele>
        <time>2020-10-09T12:29:55.000Z</time>
      </trkpt>
      <trkpt lat="43.57362" lon="3.71894">
        <ele>103</ele>
        <time>2020-10-09T12:29:56.000Z</time>
      </trkpt>
      <trkpt lat="43.57367" lon="3.71891">
        <ele>103</ele>
        <time>2020-10-09T12:29:57.000Z</time>
      </trkpt>
      <trkpt lat="43.57371" lon="3.71887">
        <ele>103</ele>
        <time>2020-10-09T12:29:58.000Z</time>
      </trkpt>
      <trkpt lat="43.57375" lon="3.71883">
        <ele>103</ele>
        <time>2020-10-09T12:29:59.000Z</time>
      </trkpt>
      <trkpt lat="43.5738" lon="3.71879">
        <ele>103</ele>
        <time>2020-10-09T12:30:00.000Z</time>
      </trkpt>
      <trkpt lat="43.57384" lon="3.71875">
        <ele>103</ele>
        <time>2020-10-09T12:30:01.000Z</time>
      </trkpt>
      <trkpt lat="43.57388" lon="3.71871">
        <ele>103</ele>
        <time>2020-10-09T12:30:02.000Z</time>
      </trkpt>
      <trkpt lat="43.57392" lon="3.71868">
        <ele>103</ele>
        <time>2020-10-09T12:30:03.000Z</time>
      </trkpt>
      <trkpt lat="43.57397" lon="3.71868">
        <ele>103</ele>
        <time>2020-10-09T12:30:04.000Z</time>
      </trkpt>
      <trkpt lat="43.57401" lon="3.7187">
        <ele>103</ele>
        <time>2020-10-09T12:30:05.000Z</time>
      </trkpt>
      <trkpt lat="43.57403" lon="3.71875">
        <ele>103.032</ele>
        <time>2020-10-09T12:30:06.000Z</time>
      </trkpt>
      <trkpt lat="43.57405" lon="3.71879">
        <ele>103.132</ele>
        <time>2020-10-09T12:30:07.000Z</time>
      </trkpt>
      <trkpt lat="43.57407" lon="3.71884">
        <ele>103.232</ele>
        <time>2020-10-09T12:30:08.000Z</time>
      </trkpt>
      <trkpt lat="43.5741" lon="3.71886">
        <ele>103.332</ele>
        <time>2020-10-09T12:30:09.000Z</time>
      </trkpt>
      <trkpt lat="43.57413" lon="3.71886">
        <ele>103.432</ele>
        <time>2020-10-09T12:30:10.000Z</time>
      </trkpt>
      <trkpt lat="43.57416" lon="3.71884">
        <ele>103.532</ele>
        <time>2020-10-09T12:30:11.000Z</time>
      </trkpt>
      <trkpt lat="43.57419" lon="3.71882">
        <ele>103.632</ele>
        <time>2020-10-09T12:30:12.000Z</time>
      </trkpt>
      <trkpt lat="43.57421" lon="3.71879">
        <ele>103.732</ele>
        <time>2020-10-09T12:30:13.000Z</time>
      </trkpt>
      <trkpt lat="43.57423" lon="3.71876">
        <ele>103.832</ele>
        <time>2020-10-09T12:30:14.000Z</time>
      </trkpt>
      <trkpt lat="43.57425" lon="3.71873">
        <ele>103.932</ele>
        <time>2020-10-09T12:30:15.000Z</time>
      </trkpt>
      <trkpt lat="43.57427" lon="3.7187">
        <ele>104.03196804219</ele>
        <time>2020-10-09T12:30:16.000Z</time>
      </trkpt>
      <trkpt lat="43.5743" lon="3.71868">
        <ele>104.13186817402</ele>
        <time>2020-10-09T12:30:17.000Z</time>
      </trkpt>
      <trkpt lat="43.57432" lon="3.71865">
        <ele>104.23176830586</ele>
        <time>2020-10-09T12:30:18.000Z</time>
      </trkpt>
      <trkpt lat="43.57435" lon="3.71862">
        <ele>104.3316684377</ele>
        <time>2020-10-09T12:30:19.000Z</time>
      </trkpt>
      <trkpt lat="43.57438" lon="3.71858">
        <ele>104.43156856953</ele>
        <time>2020-10-09T12:30:20.000Z</time>
      </trkpt>
      <trkpt lat="43.57441" lon="3.71855">
        <ele>104.53146870137</ele>
        <time>2020-10-09T12:30:21.000Z</time>
      </trkpt>
      <trkpt lat="43.57443" lon="3.71852">
        <ele>104.63136883321</ele>
        <time>2020-10-09T12:30:22.000Z</time>
      </trkpt>
      <trkpt lat="43.57446" lon="3.71848">
        <ele>104.73126896504</ele>
        <time>2020-10-09T12:30:23.000Z</time>
      </trkpt>
      <trkpt lat="43.57449" lon="3.71845">
        <ele>104.83116909688</ele>
        <time>2020-10-09T12:30:24.000Z</time>
      </trkpt>
      <trkpt lat="43.57452" lon="3.71841">
        <ele>104.93106922871</ele>
        <time>2020-10-09T12:30:25.000Z</time>
      </trkpt>
      <trkpt lat="43.57455" lon="3.71838">
        <ele>105.03103134141</ele>
        <time>2020-10-09T12:30:26.000Z</time>
      </trkpt>
      <trkpt lat="43.57458" lon="3.71835">
        <ele>105.13113140945</ele>
        <time>2020-10-09T12:30:27.000Z</time>
      </trkpt>
      <trkpt lat="43.57461" lon="3.71832">
        <ele>105.23123147748</ele>
        <time>2020-10-09T12:30:28.000Z</time>
      </trkpt>
      <trkpt lat="43.57464" lon="3.71829">
        <ele>105.33133154552</ele>
        <time>2020-10-09T12:30:29.000Z</time>
      </trkpt>
      <trkpt lat="43.57467" lon="3.71827">
        <ele>105.43143161356</ele>
        <time>2020-10-09T12:30:30.000Z</time>
      </trkpt>
      <trkpt lat="43.5747" lon="3.71824">
        <ele>105.53153168159</ele>
        <time>2020-10-09T12:30:31.000Z</time>
      </trkpt>
      <trkpt lat="43.57474" lon="3.71821">
        <ele>105.63163174963</ele>
        <time>2020-10-09T12:30:32.000Z</time>
      </trkpt>
      <trkpt lat="43.57476" lon="3.71818">
        <ele>105.73173181766</ele>
        <time>2020-10-09T12:30:33.000Z</time>
      </trkpt>
      <trkpt lat="43.57479" lon="3.71815">
        <ele>105.8318318857</ele>
        <time>2020-10-09T12:30:34.000Z</time>
      </trkpt>
      <trkpt lat="43.57482" lon="3.71812">
        <ele>105.93193195374</ele>
        <time>2020-10-09T12:30:35.000Z</time>
      </trkpt>
      <trkpt lat="43.57485" lon="3.71809">
        <ele>106.032</ele>
        <time>2020-10-09T12:30:36.000Z</time>
      </trkpt>
      <trkpt lat="43.57488" lon="3.71807">
        <ele>106.132</ele>
        <time>2020-10-09T12:30:37.000Z</time>
      </trkpt>
      <trkpt lat="43.57491" lon="3.71804">
        <ele>106.232</ele>
        <time>2020-10-09T12:30:38.000Z</time>
      </trkpt>
      <trkpt lat="43.57494" lon="3.71802">
        <ele>106.332</ele>
        <time>2020-10-09T12:30:39.000Z</time>
      </trkpt>
      <trkpt lat="43.57498" lon="3.718">
        <ele>106.432</ele>
        <time>2020-10-09T12:30:40.000Z</time>
      </trkpt>
      <trkpt lat="43.57501" lon="3.71799">
        <ele>106.532</ele>
        <time>2020-10-09T12:30:41.000Z</time>
      </trkpt>
      <trkpt lat="43.57504" lon="3.71798">
        <ele>106.632</ele>
        <time>2020-10-09T12:30:42.000Z</time>
      </trkpt>
      <trkpt lat="43.57508" lon="3.71798">
        <ele>106.732</ele>
        <time>2020-10-09T12:30:43.000Z</time>
      </trkpt>
      <trkpt lat="43.57511" lon="3.71797">
        <ele>106.832</ele>
        <time>2020-10-09T12:30:44.000Z</time>
      </trkpt>
      <trkpt lat="43.57514" lon="3.71796">
        <ele>106.932</ele>
        <time>2020-10-09T12:30:45.000Z</time>
      </trkpt>
      <trkpt lat="43.57518" lon="3.71795">
        <ele>107.06324110672</ele>
        <time>2020-10-09T12:30:46.000Z</time>
      </trkpt>
      <trkpt lat="43.57521" lon="3.71794">
        <ele>107.26086956522</ele>
        <time>2020-10-09T12:30:47.000Z</time>
      </trkpt>
      <trkpt lat="43.57523" lon="3.71792">
        <ele>107.45849802371</ele>
        <time>2020-10-09T12:30:48.000Z</time>
      </trkpt>
      <trkpt lat="43.57526" lon="3.71791">
        <ele>107.65612648221</ele>
        <time>2020-10-09T12:30:49.000Z</time>
      </trkpt>
      <trkpt lat="43.57529" lon="3.71788">
        <ele>107.85375494071</ele>
        <time>2020-10-09T12:30:50.000Z</time>
      </trkpt>
      <trkpt lat="43.57532" lon="3.71787">
        <ele>108.05138339921</ele>
        <time>2020-10-09T12:30:51.000Z</time>
      </trkpt>
      <trkpt lat="43.57534" lon="3.71785">
        <ele>108.24901185771</ele>
        <time>2020-10-09T12:30:52.000Z</time>
      </trkpt>
      <trkpt lat="43.57537" lon="3.71782">
        <ele>108.44664031621</ele>
        <time>2020-10-09T12:30:53.000Z</time>
      </trkpt>
      <trkpt lat="43.57539" lon="3.7178">
        <ele>108.6442687747</ele>
        <time>2020-10-09T12:30:54.000Z</time>
      </trkpt>
      <trkpt lat="43.57542" lon="3.71778">
        <ele>108.8418972332</ele>
        <time>2020-10-09T12:30:55.000Z</time>
      </trkpt>
      <trkpt lat="43.57544" lon="3.71776">
        <ele>109.02024291498</ele>
        <time>2020-10-09T12:30:56.000Z</time>
      </trkpt>
      <trkpt lat="43.57547" lon="3.71774">
        <ele>109.12145748988</ele>
        <time>2020-10-09T12:30:57.000Z</time>
      </trkpt>
      <trkpt lat="43.57549" lon="3.71772">
        <ele>109.22267206478</ele>
        <time>2020-10-09T12:30:58.000Z</time>
      </trkpt>
      <trkpt lat="43.57552" lon="3.7177">
        <ele>109.32388663968</ele>
        <time>2020-10-09T12:30:59.000Z</time>
      </trkpt>
      <trkpt lat="43.57554" lon="3.71769">
        <ele>109.42510121457</ele>
        <time>2020-10-09T12:31:00.000Z</time>
      </trkpt>
      <trkpt lat="43.57556" lon="3.71768">
        <ele>109.52631578947</ele>
        <time>2020-10-09T12:31:01.000Z</time>
      </trkpt>
      <trkpt lat="43.57558" lon="3.71767">
        <ele>109.62753036437</ele>
        <time>2020-10-09T12:31:02.000Z</time>
      </trkpt>
      <trkpt lat="43.57561" lon="3.71765">
        <ele>109.72874493927</ele>
        <time>2020-10-09T12:31:03.000Z</time>
      </trkpt>
      <trkpt lat="43.57563" lon="3.71764">
        <ele>109.82995951417</ele>
        <time>2020-10-09T12:31:04.000Z</time>
      </trkpt>
      <trkpt lat="43.57565" lon="3.71763">
        <ele>109.93117408907</ele>
        <time>2020-10-09T12:31:05.000Z</time>
      </trkpt>
      <trkpt lat="43.57566" lon="3.71762">
        <ele>110.032</ele>
        <time>2020-10-09T12:31:06.000Z</time>
      </trkpt>
      <trkpt lat="43.57568" lon="3.71761">
        <ele>110.132</ele>
        <time>2020-10-09T12:31:07.000Z</time>
      </trkpt>
      <trkpt lat="43.5757" lon="3.71759">
        <ele>110.232</ele>
        <time>2020-10-09T12:31:08.000Z</time>
      </trkpt>
      <trkpt lat="43.57572" lon="3.71758">
        <ele>110.332</ele>
        <time>2020-10-09T12:31:09.000Z</time>
      </trkpt>
      <trkpt lat="43.57575" lon="3.71757">
        <ele>110.532</ele>
        <time>2020-10-09T12:31:11.000Z</time>
      </trkpt>
      <trkpt lat="43.57578" lon="3.71755">
        <ele>110.732</ele>
        <time>2020-10-09T12:31:13.000Z</time>
      </trkpt>
      <trkpt lat="43.5758" lon="3.71755">
        <ele>110.832</ele>
        <time>2020-10-09T12:31:14.000Z</time>
      </trkpt>
      <trkpt lat="43.57582" lon="3.71756">
        <ele>110.932</ele>
        <time>2020-10-09T12:31:15.000Z</time>
      </trkpt>
      <trkpt lat="43.57584" lon="3.71756">
        <ele>111.03001877975</ele>
        <time>2020-10-09T12:31:16.000Z</time>
      </trkpt>
      <trkpt lat="43.57586" lon="3.71756">
        <ele>111.12382746646</ele>
        <time>2020-10-09T12:31:17.000Z</time>
      </trkpt>
      <trkpt lat="43.57588" lon="3.71757">
        <ele>111.21763615318</ele>
        <time>2020-10-09T12:31:18.000Z</time>
      </trkpt>
      <trkpt lat="43.5759" lon="3.71758">
        <ele>111.31144483989</ele>
        <time>2020-10-09T12:31:19.000Z</time>
      </trkpt>
      <trkpt lat="43.57592" lon="3.71759">
        <ele>111.40525352661</ele>
        <time>2020-10-09T12:31:20.000Z</time>
      </trkpt>
      <trkpt lat="43.57594" lon="3.71761">
        <ele>111.49906221332</ele>
        <time>2020-10-09T12:31:21.000Z</time>
      </trkpt>
      <trkpt lat="43.57596" lon="3.71762">
        <ele>111.59287090003</ele>
        <time>2020-10-09T12:31:22.000Z</time>
      </trkpt>
      <trkpt lat="43.57598" lon="3.71763">
        <ele>111.68667958675</ele>
        <time>2020-10-09T12:31:23.000Z</time>
      </trkpt>
      <trkpt lat="43.576" lon="3.71764">
        <ele>111.78048827346</ele>
        <time>2020-10-09T12:31:24.000Z</time>
      </trkpt>
      <trkpt lat="43.57602" lon="3.71764">
        <ele>111.87429696018</ele>
        <time>2020-10-09T12:31:25.000Z</time>
      </trkpt>
      <trkpt lat="43.57605" lon="3.71764">
        <ele>111.96810564689</ele>
        <time>2020-10-09T12:31:26.000Z</time>
      </trkpt>
      <trkpt lat="43.57607" lon="3.71763">
        <ele>112.14102700855</ele>
        <time>2020-10-09T12:31:27.000Z</time>
      </trkpt>
      <trkpt lat="43.57609" lon="3.71761">
        <ele>112.35470222222</ele>
        <time>2020-10-09T12:31:28.000Z</time>
      </trkpt>
      <trkpt lat="43.57611" lon="3.7176">
        <ele>112.5683774359</ele>
        <time>2020-10-09T12:31:29.000Z</time>
      </trkpt>
      <trkpt lat="43.57613" lon="3.71759">
        <ele>112.78205264957</ele>
        <time>2020-10-09T12:31:30.000Z</time>
      </trkpt>
      <trkpt lat="43.57615" lon="3.71758">
        <ele>112.99572786325</ele>
        <time>2020-10-09T12:31:31.000Z</time>
      </trkpt>
      <trkpt lat="43.57617" lon="3.71756">
        <ele>113.20940307692</ele>
        <time>2020-10-09T12:31:32.000Z</time>
      </trkpt>
      <trkpt lat="43.57619" lon="3.71755">
        <ele>113.4230782906</ele>
        <time>2020-10-09T12:31:33.000Z</time>
      </trkpt>
      <trkpt lat="43.57621" lon="3.71754">
        <ele>113.63675350427</ele>
        <time>2020-10-09T12:31:34.000Z</time>
      </trkpt>
      <trkpt lat="43.57623" lon="3.71752">
        <ele>113.85042871795</ele>
        <time>2020-10-09T12:31:35.000Z</time>
      </trkpt>
      <trkpt lat="43.57624" lon="3.7175">
        <ele>114</ele>
        <time>2020-10-09T12:31:36.000Z</time>
      </trkpt>
      <trkpt lat="43.57626" lon="3.71749">
        <ele>114</ele>
        <time>2020-10-09T12:31:37.000Z</time>
      </trkpt>
      <trkpt lat="43.57627" lon="3.71747">
        <ele>114</ele>
        <time>2020-10-09T12:31:38.000Z</time>
      </trkpt>
      <trkpt lat="43.57629" lon="3.71746">
        <ele>114</ele>
        <time>2020-10-09T12:31:39.000Z</time>
      </trkpt>
      <trkpt lat="43.57631" lon="3.71745">
        <ele>114</ele>
        <time>2020-10-09T12:31:40.000Z</time>
      </trkpt>
      <trkpt lat="43.57633" lon="3.71744">
        <ele>114</ele>
        <time>2020-10-09T12:31:41.000Z</time>
      </trkpt>
      <trkpt lat="43.57634" lon="3.71743">
        <ele>114</ele>
        <time>2020-10-09T12:31:42.000Z</time>
      </trkpt>
      <trkpt lat="43.57636" lon="3.71741">
        <ele>114</ele>
        <time>2020-10-09T12:31:43.000Z</time>
      </trkpt>
      <trkpt lat="43.57637" lon="3.7174">
        <ele>114</ele>
        <time>2020-10-09T12:31:44.000Z</time>
      </trkpt>
      <trkpt lat="43.57639" lon="3.71739">
        <ele>114</ele>
        <time>2020-10-09T12:31:45.000Z</time>
      </trkpt>
      <trkpt lat="43.57641" lon="3.71737">
        <ele>114.00617985378</ele>
        <time>2020-10-09T12:31:46.000Z</time>
      </trkpt>
      <trkpt lat="43.57643" lon="3.71736">
        <ele>114.21215300938</ele>
        <time>2020-10-09T12:31:47.000Z</time>
      </trkpt>
      <trkpt lat="43.57644" lon="3.71734">
        <ele>114.41812616498</ele>
        <time>2020-10-09T12:31:48.000Z</time>
      </trkpt>
      <trkpt lat="43.57646" lon="3.71731">
        <ele>114.83007247619</ele>
        <time>2020-10-09T12:31:50.000Z</time>
      </trkpt>
      <trkpt lat="43.57648" lon="3.71727">
        <ele>115.24201878739</ele>
        <time>2020-10-09T12:31:52.000Z</time>
      </trkpt>
      <trkpt lat="43.5765" lon="3.71723">
        <ele>115.65396509859</ele>
        <time>2020-10-09T12:31:54.000Z</time>
      </trkpt>
      <trkpt lat="43.57651" lon="3.7172">
        <ele>115.85993825419</ele>
        <time>2020-10-09T12:31:55.000Z</time>
      </trkpt>
      <trkpt lat="43.57652" lon="3.71718">
        <ele>116.03174603175</ele>
        <time>2020-10-09T12:31:56.000Z</time>
      </trkpt>
      <trkpt lat="43.57654" lon="3.71714">
        <ele>116.23015873016</ele>
        <time>2020-10-09T12:31:58.000Z</time>
      </trkpt>
      <trkpt lat="43.57657" lon="3.71711">
        <ele>116.42857142857</ele>
        <time>2020-10-09T12:32:00.000Z</time>
      </trkpt>
      <trkpt lat="43.57659" lon="3.71707">
        <ele>116.62698412698</ele>
        <time>2020-10-09T12:32:02.000Z</time>
      </trkpt>
      <trkpt lat="43.57661" lon="3.71704">
        <ele>116.8253968254</ele>
        <time>2020-10-09T12:32:04.000Z</time>
      </trkpt>
      <trkpt lat="43.57664" lon="3.717">
        <ele>117.02419354839</ele>
        <time>2020-10-09T12:32:06.000Z</time>
      </trkpt>
      <trkpt lat="43.57666" lon="3.71699">
        <ele>117.125</ele>
        <time>2020-10-09T12:32:07.000Z</time>
      </trkpt>
      <trkpt lat="43.57667" lon="3.71698">
        <ele>117.22580645161</ele>
        <time>2020-10-09T12:32:08.000Z</time>
      </trkpt>
      <trkpt lat="43.57669" lon="3.71696">
        <ele>117.32661290323</ele>
        <time>2020-10-09T12:32:09.000Z</time>
      </trkpt>
      <trkpt lat="43.57671" lon="3.71695">
        <ele>117.42741935484</ele>
        <time>2020-10-09T12:32:10.000Z</time>
      </trkpt>
      <trkpt lat="43.57672" lon="3.71694">
        <ele>117.52822580645</ele>
        <time>2020-10-09T12:32:11.000Z</time>
      </trkpt>
      <trkpt lat="43.57674" lon="3.71693">
        <ele>117.62903225806</ele>
        <time>2020-10-09T12:32:12.000Z</time>
      </trkpt>
      <trkpt lat="43.57676" lon="3.71693">
        <ele>117.72983870968</ele>
        <time>2020-10-09T12:32:13.000Z</time>
      </trkpt>
      <trkpt lat="43.57678" lon="3.71692">
        <ele>117.83064516129</ele>
        <time>2020-10-09T12:32:14.000Z</time>
      </trkpt>
      <trkpt lat="43.5768" lon="3.71691">
        <ele>117.9314516129</ele>
        <time>2020-10-09T12:32:15.000Z</time>
      </trkpt>
      <trkpt lat="43.57681" lon="3.7169">
        <ele>118.032</ele>
        <time>2020-10-09T12:32:16.000Z</time>
      </trkpt>
      <trkpt lat="43.57683" lon="3.71689">
        <ele>118.132</ele>
        <time>2020-10-09T12:32:17.000Z</time>
      </trkpt>
      <trkpt lat="43.57685" lon="3.71688">
        <ele>118.232</ele>
        <time>2020-10-09T12:32:18.000Z</time>
      </trkpt>
      <trkpt lat="43.57687" lon="3.71687">
        <ele>118.332</ele>
        <time>2020-10-09T12:32:19.000Z</time>
      </trkpt>
      <trkpt lat="43.57689" lon="3.71686">
        <ele>118.432</ele>
        <time>2020-10-09T12:32:20.000Z</time>
      </trkpt>
      <trkpt lat="43.57691" lon="3.71685">
        <ele>118.532</ele>
        <time>2020-10-09T12:32:21.000Z</time>
      </trkpt>
      <trkpt lat="43.57693" lon="3.71685">
        <ele>118.632</ele>
        <time>2020-10-09T12:32:22.000Z</time>
      </trkpt>
      <trkpt lat="43.57695" lon="3.71684">
        <ele>118.732</ele>
        <time>2020-10-09T12:32:23.000Z</time>
      </trkpt>
      <trkpt lat="43.57697" lon="3.71683">
        <ele>118.832</ele>
        <time>2020-10-09T12:32:24.000Z</time>
      </trkpt>
      <trkpt lat="43.57699" lon="3.71683">
        <ele>118.932</ele>
        <time>2020-10-09T12:32:25.000Z</time>
      </trkpt>
      <trkpt lat="43.57701" lon="3.71682">
        <ele>119.032</ele>
        <time>2020-10-09T12:32:26.000Z</time>
      </trkpt>
      <trkpt lat="43.57704" lon="3.71681">
        <ele>119.132</ele>
        <time>2020-10-09T12:32:27.000Z</time>
      </trkpt>
      <trkpt lat="43.57706" lon="3.71681">
        <ele>119.232</ele>
        <time>2020-10-09T12:32:28.000Z</time>
      </trkpt>
      <trkpt lat="43.57708" lon="3.7168">
        <ele>119.332</ele>
        <time>2020-10-09T12:32:29.000Z</time>
      </trkpt>
      <trkpt lat="43.5771" lon="3.7168">
        <ele>119.432</ele>
        <time>2020-10-09T12:32:30.000Z</time>
      </trkpt>
      <trkpt lat="43.57712" lon="3.71679">
        <ele>119.532</ele>
        <time>2020-10-09T12:32:31.000Z</time>
      </trkpt>
      <trkpt lat="43.57714" lon="3.71679">
        <ele>119.632</ele>
        <time>2020-10-09T12:32:32.000Z</time>
      </trkpt>
      <trkpt lat="43.57717" lon="3.71679">
        <ele>119.732</ele>
        <time>2020-10-09T12:32:33.000Z</time>
      </trkpt>
      <trkpt lat="43.57719" lon="3.71679">
        <ele>119.832</ele>
        <time>2020-10-09T12:32:34.000Z</time>
      </trkpt>
      <trkpt lat="43.57722" lon="3.71678">
        <ele>119.932</ele>
        <time>2020-10-09T12:32:35.000Z</time>
      </trkpt>
      <trkpt lat="43.57725" lon="3.71678">
        <ele>120.032</ele>
        <time>2020-10-09T12:32:36.000Z</time>
      </trkpt>
      <trkpt lat="43.57727" lon="3.71677">
        <ele>120.132</ele>
        <time>2020-10-09T12:32:37.000Z</time>
      </trkpt>
      <trkpt lat="43.5773" lon="3.71676">
        <ele>120.232</ele>
        <time>2020-10-09T12:32:38.000Z</time>
      </trkpt>
      <trkpt lat="43.57732" lon="3.71675">
        <ele>120.332</ele>
        <time>2020-10-09T12:32:39.000Z</time>
      </trkpt>
      <trkpt lat="43.57734" lon="3.71674">
        <ele>120.432</ele>
        <time>2020-10-09T12:32:40.000Z</time>
      </trkpt>
      <trkpt lat="43.57736" lon="3.71673">
        <ele>120.532</ele>
        <time>2020-10-09T12:32:41.000Z</time>
      </trkpt>
      <trkpt lat="43.57738" lon="3.71673">
        <ele>120.632</ele>
        <time>2020-10-09T12:32:42.000Z</time>
      </trkpt>
      <trkpt lat="43.5774" lon="3.71671">
        <ele>120.732</ele>
        <time>2020-10-09T12:32:43.000Z</time>
      </trkpt>
      <trkpt lat="43.57741" lon="3.71669">
        <ele>120.832</ele>
        <time>2020-10-09T12:32:44.000Z</time>
      </trkpt>
      <trkpt lat="43.57741" lon="3.71666">
        <ele>120.932</ele>
        <time>2020-10-09T12:32:45.000Z</time>
      </trkpt>
      <trkpt lat="43.57742" lon="3.71662">
        <ele>120.968</ele>
        <time>2020-10-09T12:32:46.000Z</time>
      </trkpt>
      <trkpt lat="43.57741" lon="3.71659">
        <ele>120.868</ele>
        <time>2020-10-09T12:32:47.000Z</time>
      </trkpt>
      <trkpt lat="43.5774" lon="3.71655">
        <ele>120.768</ele>
        <time>2020-10-09T12:32:48.000Z</time>
      </trkpt>
      <trkpt lat="43.5774" lon="3.71651">
        <ele>120.668</ele>
        <time>2020-10-09T12:32:49.000Z</time>
      </trkpt>
      <trkpt lat="43.57739" lon="3.71647">
        <ele>120.568</ele>
        <time>2020-10-09T12:32:50.000Z</time>
      </trkpt>
      <trkpt lat="43.57738" lon="3.71643">
        <ele>120.468</ele>
        <time>2020-10-09T12:32:51.000Z</time>
      </trkpt>
      <trkpt lat="43.57737" lon="3.71638">
        <ele>120.368</ele>
        <time>2020-10-09T12:32:52.000Z</time>
      </trkpt>
      <trkpt lat="43.57736" lon="3.71634">
        <ele>120.268</ele>
        <time>2020-10-09T12:32:53.000Z</time>
      </trkpt>
      <trkpt lat="43.57735" lon="3.71629">
        <ele>120.168</ele>
        <time>2020-10-09T12:32:54.000Z</time>
      </trkpt>
      <trkpt lat="43.57734" lon="3.71625">
        <ele>120.068</ele>
        <time>2020-10-09T12:32:55.000Z</time>
      </trkpt>
      <trkpt lat="43.57733" lon="3.7162">
        <ele>119.968</ele>
        <time>2020-10-09T12:32:56.000Z</time>
      </trkpt>
      <trkpt lat="43.57733" lon="3.71615">
        <ele>119.868</ele>
        <time>2020-10-09T12:32:57.000Z</time>
      </trkpt>
      <trkpt lat="43.57732" lon="3.7161">
        <ele>119.768</ele>
        <time>2020-10-09T12:32:58.000Z</time>
      </trkpt>
      <trkpt lat="43.57732" lon="3.71604">
        <ele>119.668</ele>
        <time>2020-10-09T12:32:59.000Z</time>
      </trkpt>
      <trkpt lat="43.57732" lon="3.71599">
        <ele>119.568</ele>
        <time>2020-10-09T12:33:00.000Z</time>
      </trkpt>
      <trkpt lat="43.57732" lon="3.71594">
        <ele>119.468</ele>
        <time>2020-10-09T12:33:01.000Z</time>
      </trkpt>
      <trkpt lat="43.57732" lon="3.71588">
        <ele>119.368</ele>
        <time>2020-10-09T12:33:02.000Z</time>
      </trkpt>
      <trkpt lat="43.57732" lon="3.71583">
        <ele>119.268</ele>
        <time>2020-10-09T12:33:03.000Z</time>
      </trkpt>
      <trkpt lat="43.57732" lon="3.71578">
        <ele>119.168</ele>
        <time>2020-10-09T12:33:04.000Z</time>
      </trkpt>
      <trkpt lat="43.57732" lon="3.71573">
        <ele>119.068</ele>
        <time>2020-10-09T12:33:05.000Z</time>
      </trkpt>
      <trkpt lat="43.57732" lon="3.71568">
        <ele>119.03190427696</ele>
        <time>2020-10-09T12:33:06.000Z</time>
      </trkpt>
      <trkpt lat="43.57731" lon="3.71563">
        <ele>119.13160514246</ele>
        <time>2020-10-09T12:33:07.000Z</time>
      </trkpt>
      <trkpt lat="43.57731" lon="3.71559">
        <ele>119.23130600796</ele>
        <time>2020-10-09T12:33:08.000Z</time>
      </trkpt>
      <trkpt lat="43.57732" lon="3.71554">
        <ele>119.33100687346</ele>
        <time>2020-10-09T12:33:09.000Z</time>
      </trkpt>
      <trkpt lat="43.57732" lon="3.7155">
        <ele>119.43070773896</ele>
        <time>2020-10-09T12:33:10.000Z</time>
      </trkpt>
      <trkpt lat="43.57732" lon="3.71545">
        <ele>119.53040860446</ele>
        <time>2020-10-09T12:33:11.000Z</time>
      </trkpt>
      <trkpt lat="43.57732" lon="3.7154">
        <ele>119.63010946996</ele>
        <time>2020-10-09T12:33:12.000Z</time>
      </trkpt>
      <trkpt lat="43.57732" lon="3.71536">
        <ele>119.72981033545</ele>
        <time>2020-10-09T12:33:13.000Z</time>
      </trkpt>
      <trkpt lat="43.57732" lon="3.71531">
        <ele>119.82951120095</ele>
        <time>2020-10-09T12:33:14.000Z</time>
      </trkpt>
      <trkpt lat="43.57732" lon="3.71526">
        <ele>119.92921206645</ele>
        <time>2020-10-09T12:33:15.000Z</time>
      </trkpt>
      <trkpt lat="43.57732" lon="3.71521">
        <ele>120</ele>
        <time>2020-10-09T12:33:16.000Z</time>
      </trkpt>
      <trkpt lat="43.57732" lon="3.71517">
        <ele>120</ele>
        <time>2020-10-09T12:33:17.000Z</time>
      </trkpt>
      <trkpt lat="43.57733" lon="3.71512">
        <ele>120</ele>
        <time>2020-10-09T12:33:18.000Z</time>
      </trkpt>
      <trkpt lat="43.57733" lon="3.71508">
        <ele>120</ele>
        <time>2020-10-09T12:33:19.000Z</time>
      </trkpt>
      <trkpt lat="43.57732" lon="3.71504">
        <ele>120</ele>
        <time>2020-10-09T12:33:20.000Z</time>
      </trkpt>
      <trkpt lat="43.57732" lon="3.715">
        <ele>120</ele>
        <time>2020-10-09T12:33:21.000Z</time>
      </trkpt>
      <trkpt lat="43.5773" lon="3.71496">
        <ele>120</ele>
        <time>2020-10-09T12:33:22.000Z</time>
      </trkpt>
      <trkpt lat="43.57728" lon="3.71492">
        <ele>120</ele>
        <time>2020-10-09T12:33:23.000Z</time>
      </trkpt>
      <trkpt lat="43.57726" lon="3.71488">
        <ele>120</ele>
        <time>2020-10-09T12:33:24.000Z</time>
      </trkpt>
      <trkpt lat="43.57724" lon="3.71484">
        <ele>120</ele>
        <time>2020-10-09T12:33:25.000Z</time>
      </trkpt>
      <trkpt lat="43.57722" lon="3.7148">
        <ele>119.99896833815</ele>
        <time>2020-10-09T12:33:26.000Z</time>
      </trkpt>
      <trkpt lat="43.5772" lon="3.71476">
        <ele>119.89576912967</ele>
        <time>2020-10-09T12:33:27.000Z</time>
      </trkpt>
      <trkpt lat="43.57719" lon="3.71471">
        <ele>119.79256992118</ele>
        <time>2020-10-09T12:33:28.000Z</time>
      </trkpt>
      <trkpt lat="43.57718" lon="3.71466">
        <ele>119.68937071269</ele>
        <time>2020-10-09T12:33:29.000Z</time>
      </trkpt>
      <trkpt lat="43.57716" lon="3.71461">
        <ele>119.5861715042</ele>
        <time>2020-10-09T12:33:30.000Z</time>
      </trkpt>
      <trkpt lat="43.57716" lon="3.71456">
        <ele>119.48297229572</ele>
        <time>2020-10-09T12:33:31.000Z</time>
      </trkpt>
      <trkpt lat="43.57715" lon="3.71451">
        <ele>119.37977308723</ele>
        <time>2020-10-09T12:33:32.000Z</time>
      </trkpt>
      <trkpt lat="43.57715" lon="3.71446">
        <ele>119.27657387874</ele>
        <time>2020-10-09T12:33:33.000Z</time>
      </trkpt>
      <trkpt lat="43.57714" lon="3.7144">
        <ele>119.17337467026</ele>
        <time>2020-10-09T12:33:34.000Z</time>
      </trkpt>
      <trkpt lat="43.57714" lon="3.71435">
        <ele>119.07017546177</ele>
        <time>2020-10-09T12:33:35.000Z</time>
      </trkpt>
      <trkpt lat="43.57714" lon="3.7143">
        <ele>119.032</ele>
        <time>2020-10-09T12:33:36.000Z</time>
      </trkpt>
      <trkpt lat="43.57715" lon="3.71425">
        <ele>119.132</ele>
        <time>2020-10-09T12:33:37.000Z</time>
      </trkpt>
      <trkpt lat="43.57715" lon="3.7142">
        <ele>119.232</ele>
        <time>2020-10-09T12:33:38.000Z</time>
      </trkpt>
      <trkpt lat="43.57715" lon="3.71416">
        <ele>119.332</ele>
        <time>2020-10-09T12:33:39.000Z</time>
      </trkpt>
      <trkpt lat="43.57716" lon="3.71411">
        <ele>119.432</ele>
        <time>2020-10-09T12:33:40.000Z</time>
      </trkpt>
      <trkpt lat="43.57717" lon="3.71406">
        <ele>119.532</ele>
        <time>2020-10-09T12:33:41.000Z</time>
      </trkpt>
      <trkpt lat="43.57717" lon="3.71402">
        <ele>119.632</ele>
        <time>2020-10-09T12:33:42.000Z</time>
      </trkpt>
      <trkpt lat="43.57718" lon="3.71397">
        <ele>119.732</ele>
        <time>2020-10-09T12:33:43.000Z</time>
      </trkpt>
      <trkpt lat="43.57718" lon="3.71392">
        <ele>119.832</ele>
        <time>2020-10-09T12:33:44.000Z</time>
      </trkpt>
      <trkpt lat="43.57718" lon="3.71388">
        <ele>119.932</ele>
        <time>2020-10-09T12:33:45.000Z</time>
      </trkpt>
      <trkpt lat="43.57718" lon="3.71383">
        <ele>119.96896218228</ele>
        <time>2020-10-09T12:33:46.000Z</time>
      </trkpt>
      <trkpt lat="43.57717" lon="3.71379">
        <ele>119.87196900191</ele>
        <time>2020-10-09T12:33:47.000Z</time>
      </trkpt>
      <trkpt lat="43.57715" lon="3.71374">
        <ele>119.77497582154</ele>
        <time>2020-10-09T12:33:48.000Z</time>
      </trkpt>
      <trkpt lat="43.57714" lon="3.71371">
        <ele>119.67798264117</ele>
        <time>2020-10-09T12:33:49.000Z</time>
      </trkpt>
      <trkpt lat="43.57712" lon="3.71367">
        <ele>119.5809894608</ele>
        <time>2020-10-09T12:33:50.000Z</time>
      </trkpt>
      <trkpt lat="43.5771" lon="3.71364">
        <ele>119.48399628043</ele>
        <time>2020-10-09T12:33:51.000Z</time>
      </trkpt>
      <trkpt lat="43.57708" lon="3.71362">
        <ele>119.38700310006</ele>
        <time>2020-10-09T12:33:52.000Z</time>
      </trkpt>
      <trkpt lat="43.57706" lon="3.71359">
        <ele>119.29000991969</ele>
        <time>2020-10-09T12:33:53.000Z</time>
      </trkpt>
      <trkpt lat="43.57703" lon="3.71357">
        <ele>119.19301673932</ele>
        <time>2020-10-09T12:33:54.000Z</time>
      </trkpt>
      <trkpt lat="43.57701" lon="3.71355">
        <ele>119.09602355895</ele>
        <time>2020-10-09T12:33:55.000Z</time>
      </trkpt>
      <trkpt lat="43.57698" lon="3.71353">
        <ele>119</ele>
        <time>2020-10-09T12:33:56.000Z</time>
      </trkpt>
      <trkpt lat="43.57695" lon="3.71351">
        <ele>119</ele>
        <time>2020-10-09T12:33:57.000Z</time>
      </trkpt>
      <trkpt lat="43.57692" lon="3.71349">
        <ele>119</ele>
        <time>2020-10-09T12:33:58.000Z</time>
      </trkpt>
      <trkpt lat="43.57689" lon="3.71347">
        <ele>119</ele>
        <time>2020-10-09T12:33:59.000Z</time>
      </trkpt>
      <trkpt lat="43.57686" lon="3.71344">
        <ele>119</ele>
        <time>2020-10-09T12:34:00.000Z</time>
      </trkpt>
      <trkpt lat="43.57684" lon="3.71342">
        <ele>119</ele>
        <time>2020-10-09T12:34:01.000Z</time>
      </trkpt>
      <trkpt lat="43.57681" lon="3.71339">
        <ele>119</ele>
        <time>2020-10-09T12:34:02.000Z</time>
      </trkpt>
      <trkpt lat="43.57679" lon="3.71337">
        <ele>119</ele>
        <time>2020-10-09T12:34:03.000Z</time>
      </trkpt>
      <trkpt lat="43.57677" lon="3.71334">
        <ele>119</ele>
        <time>2020-10-09T12:34:04.000Z</time>
      </trkpt>
      <trkpt lat="43.57675" lon="3.71331">
        <ele>119</ele>
        <time>2020-10-09T12:34:05.000Z</time>
      </trkpt>
      <trkpt lat="43.57673" lon="3.71328">
        <ele>118.95202401102</ele>
        <time>2020-10-09T12:34:06.000Z</time>
      </trkpt>
      <trkpt lat="43.57671" lon="3.71326">
        <ele>118.80209904547</ele>
        <time>2020-10-09T12:34:07.000Z</time>
      </trkpt>
      <trkpt lat="43.57669" lon="3.71323">
        <ele>118.65217407992</ele>
        <time>2020-10-09T12:34:08.000Z</time>
      </trkpt>
      <trkpt lat="43.57667" lon="3.71321">
        <ele>118.50224911436</ele>
        <time>2020-10-09T12:34:09.000Z</time>
      </trkpt>
      <trkpt lat="43.57665" lon="3.71318">
        <ele>118.35232414881</ele>
        <time>2020-10-09T12:34:10.000Z</time>
      </trkpt>
      <trkpt lat="43.57663" lon="3.71315">
        <ele>118.20239918326</ele>
        <time>2020-10-09T12:34:11.000Z</time>
      </trkpt>
      <trkpt lat="43.57661" lon="3.71313">
        <ele>118.0524742177</ele>
        <time>2020-10-09T12:34:12.000Z</time>
      </trkpt>
      <trkpt lat="43.57659" lon="3.7131">
        <ele>118</ele>
        <time>2020-10-09T12:34:13.000Z</time>
      </trkpt>
      <trkpt lat="43.57656" lon="3.71308">
        <ele>118</ele>
        <time>2020-10-09T12:34:14.000Z</time>
      </trkpt>
      <trkpt lat="43.57654" lon="3.71305">
        <ele>118</ele>
        <time>2020-10-09T12:34:15.000Z</time>
      </trkpt>
      <trkpt lat="43.57653" lon="3.71302">
        <ele>117.968</ele>
        <time>2020-10-09T12:34:16.000Z</time>
      </trkpt>
      <trkpt lat="43.57651" lon="3.71299">
        <ele>117.868</ele>
        <time>2020-10-09T12:34:17.000Z</time>
      </trkpt>
      <trkpt lat="43.5765" lon="3.71296">
        <ele>117.768</ele>
        <time>2020-10-09T12:34:18.000Z</time>
      </trkpt>
      <trkpt lat="43.57648" lon="3.71293">
        <ele>117.668</ele>
        <time>2020-10-09T12:34:19.000Z</time>
      </trkpt>
      <trkpt lat="43.57647" lon="3.71291">
        <ele>117.568</ele>
        <time>2020-10-09T12:34:20.000Z</time>
      </trkpt>
      <trkpt lat="43.57645" lon="3.71288">
        <ele>117.468</ele>
        <time>2020-10-09T12:34:21.000Z</time>
      </trkpt>
      <trkpt lat="43.57644" lon="3.71285">
        <ele>117.368</ele>
        <time>2020-10-09T12:34:22.000Z</time>
      </trkpt>
      <trkpt lat="43.57642" lon="3.71283">
        <ele>117.268</ele>
        <time>2020-10-09T12:34:23.000Z</time>
      </trkpt>
      <trkpt lat="43.57641" lon="3.7128">
        <ele>117.168</ele>
        <time>2020-10-09T12:34:24.000Z</time>
      </trkpt>
      <trkpt lat="43.57639" lon="3.71278">
        <ele>117.068</ele>
        <time>2020-10-09T12:34:25.000Z</time>
      </trkpt>
      <trkpt lat="43.57638" lon="3.71275">
        <ele>116.904</ele>
        <time>2020-10-09T12:34:26.000Z</time>
      </trkpt>
      <trkpt lat="43.57636" lon="3.71273">
        <ele>116.604</ele>
        <time>2020-10-09T12:34:27.000Z</time>
      </trkpt>
      <trkpt lat="43.57634" lon="3.71271">
        <ele>116.304</ele>
        <time>2020-10-09T12:34:28.000Z</time>
      </trkpt>
      <trkpt lat="43.57631" lon="3.71269">
        <ele>116.004</ele>
        <time>2020-10-09T12:34:29.000Z</time>
      </trkpt>
      <trkpt lat="43.57628" lon="3.71268">
        <ele>115.704</ele>
        <time>2020-10-09T12:34:30.000Z</time>
      </trkpt>
      <trkpt lat="43.57624" lon="3.71269">
        <ele>115.404</ele>
        <time>2020-10-09T12:34:31.000Z</time>
      </trkpt>
      <trkpt lat="43.57621" lon="3.71269">
        <ele>115.104</ele>
        <time>2020-10-09T12:34:32.000Z</time>
      </trkpt>
      <trkpt lat="43.57617" lon="3.7127">
        <ele>114.804</ele>
        <time>2020-10-09T12:34:33.000Z</time>
      </trkpt>
      <trkpt lat="43.57612" lon="3.7127">
        <ele>114.504</ele>
        <time>2020-10-09T12:34:34.000Z</time>
      </trkpt>
      <trkpt lat="43.57608" lon="3.71269">
        <ele>114.204</ele>
        <time>2020-10-09T12:34:35.000Z</time>
      </trkpt>
      <trkpt lat="43.57604" lon="3.71268">
        <ele>113.9399624405</ele>
        <time>2020-10-09T12:34:36.000Z</time>
      </trkpt>
      <trkpt lat="43.57601" lon="3.71267">
        <ele>113.75234506707</ele>
        <time>2020-10-09T12:34:37.000Z</time>
      </trkpt>
      <trkpt lat="43.57599" lon="3.71267">
        <ele>113.56472769364</ele>
        <time>2020-10-09T12:34:38.000Z</time>
      </trkpt>
      <trkpt lat="43.57597" lon="3.71266">
        <ele>113.37711032022</ele>
        <time>2020-10-09T12:34:39.000Z</time>
      </trkpt>
      <trkpt lat="43.57595" lon="3.71265">
        <ele>113.18949294679</ele>
        <time>2020-10-09T12:34:40.000Z</time>
      </trkpt>
      <trkpt lat="43.57593" lon="3.71264">
        <ele>113.00187557336</ele>
        <time>2020-10-09T12:34:41.000Z</time>
      </trkpt>
      <trkpt lat="43.5759" lon="3.71263">
        <ele>112.81425819993</ele>
        <time>2020-10-09T12:34:42.000Z</time>
      </trkpt>
      <trkpt lat="43.57586" lon="3.71261">
        <ele>112.6266408265</ele>
        <time>2020-10-09T12:34:43.000Z</time>
      </trkpt>
      <trkpt lat="43.57582" lon="3.7126">
        <ele>112.43902345307</ele>
        <time>2020-10-09T12:34:44.000Z</time>
      </trkpt>
      <trkpt lat="43.57578" lon="3.71259">
        <ele>112.25140607964</ele>
        <time>2020-10-09T12:34:45.000Z</time>
      </trkpt>
      <trkpt lat="43.57574" lon="3.71258">
        <ele>112.06378870622</ele>
        <time>2020-10-09T12:34:46.000Z</time>
      </trkpt>
      <trkpt lat="43.5757" lon="3.71256">
        <ele>111.79439059792</ele>
        <time>2020-10-09T12:34:47.000Z</time>
      </trkpt>
      <trkpt lat="43.57567" lon="3.71255">
        <ele>111.48286422169</ele>
        <time>2020-10-09T12:34:48.000Z</time>
      </trkpt>
      <trkpt lat="43.57563" lon="3.71254">
        <ele>111.17133784545</ele>
        <time>2020-10-09T12:34:49.000Z</time>
      </trkpt>
      <trkpt lat="43.5756" lon="3.71253">
        <ele>110.85981146922</ele>
        <time>2020-10-09T12:34:50.000Z</time>
      </trkpt>
      <trkpt lat="43.57556" lon="3.71251">
        <ele>110.54828509299</ele>
        <time>2020-10-09T12:34:51.000Z</time>
      </trkpt>
      <trkpt lat="43.57553" lon="3.71249">
        <ele>110.23675871676</ele>
        <time>2020-10-09T12:34:52.000Z</time>
      </trkpt>
      <trkpt lat="43.57549" lon="3.71246">
        <ele>109.92523234052</ele>
        <time>2020-10-09T12:34:53.000Z</time>
      </trkpt>
      <trkpt lat="43.57545" lon="3.71243">
        <ele>109.61370596429</ele>
        <time>2020-10-09T12:34:54.000Z</time>
      </trkpt>
      <trkpt lat="43.57542" lon="3.7124">
        <ele>109.30217958806</ele>
        <time>2020-10-09T12:34:55.000Z</time>
      </trkpt>
      <trkpt lat="43.57539" lon="3.71238">
        <ele>108.99382014622</ele>
        <time>2020-10-09T12:34:56.000Z</time>
      </trkpt>
      <trkpt lat="43.57537" lon="3.71236">
        <ele>108.78784699062</ele>
        <time>2020-10-09T12:34:57.000Z</time>
      </trkpt>
      <trkpt lat="43.57535" lon="3.71235">
        <ele>108.58187383502</ele>
        <time>2020-10-09T12:34:58.000Z</time>
      </trkpt>
      <trkpt lat="43.57533" lon="3.71233">
        <ele>108.16992752381</ele>
        <time>2020-10-09T12:35:00.000Z</time>
      </trkpt>
      <trkpt lat="43.57533" lon="3.7123">
        <ele>107.75798121261</ele>
        <time>2020-10-09T12:35:02.000Z</time>
      </trkpt>
      <trkpt lat="43.57534" lon="3.71227">
        <ele>107.55200805701</ele>
        <time>2020-10-09T12:35:03.000Z</time>
      </trkpt>
      <trkpt lat="43.57535" lon="3.71225">
        <ele>107.34603490141</ele>
        <time>2020-10-09T12:35:04.000Z</time>
      </trkpt>
      <trkpt lat="43.57538" lon="3.71223">
        <ele>107.14006174581</ele>
        <time>2020-10-09T12:35:05.000Z</time>
      </trkpt>
      <trkpt lat="43.57541" lon="3.7122">
        <ele>106.936444906</ele>
        <time>2020-10-09T12:35:06.000Z</time>
      </trkpt>
      <trkpt lat="43.57543" lon="3.71217">
        <ele>106.73783523723</ele>
        <time>2020-10-09T12:35:07.000Z</time>
      </trkpt>
      <trkpt lat="43.57546" lon="3.71214">
        <ele>106.53922556847</ele>
        <time>2020-10-09T12:35:08.000Z</time>
      </trkpt>
      <trkpt lat="43.5755" lon="3.71209">
        <ele>106.3406158997</ele>
        <time>2020-10-09T12:35:09.000Z</time>
      </trkpt>
      <trkpt lat="43.57553" lon="3.71205">
        <ele>106.14200623094</ele>
        <time>2020-10-09T12:35:10.000Z</time>
      </trkpt>
      <trkpt lat="43.57556" lon="3.712">
        <ele>105.94339656218</ele>
        <time>2020-10-09T12:35:11.000Z</time>
      </trkpt>
      <trkpt lat="43.57559" lon="3.71196">
        <ele>105.74478689341</ele>
        <time>2020-10-09T12:35:12.000Z</time>
      </trkpt>
      <trkpt lat="43.57562" lon="3.71193">
        <ele>105.54617722465</ele>
        <time>2020-10-09T12:35:13.000Z</time>
      </trkpt>
      <trkpt lat="43.57564" lon="3.7119">
        <ele>105.34756755589</ele>
        <time>2020-10-09T12:35:14.000Z</time>
      </trkpt>
      <trkpt lat="43.57566" lon="3.71186">
        <ele>105.14895788712</ele>
        <time>2020-10-09T12:35:15.000Z</time>
      </trkpt>
      <trkpt lat="43.57566" lon="3.71182">
        <ele>104.8753753543</ele>
        <time>2020-10-09T12:35:16.000Z</time>
      </trkpt>
      <trkpt lat="43.57566" lon="3.71179">
        <ele>104.37687039062</ele>
        <time>2020-10-09T12:35:17.000Z</time>
      </trkpt>
      <trkpt lat="43.57566" lon="3.71176">
        <ele>103.87836542695</ele>
        <time>2020-10-09T12:35:18.000Z</time>
      </trkpt>
      <trkpt lat="43.57566" lon="3.71173">
        <ele>103.37986046328</ele>
        <time>2020-10-09T12:35:19.000Z</time>
      </trkpt>
      <trkpt lat="43.57565" lon="3.71169">
        <ele>102.8813554996</ele>
        <time>2020-10-09T12:35:20.000Z</time>
      </trkpt>
      <trkpt lat="43.57565" lon="3.71165">
        <ele>102.38285053593</ele>
        <time>2020-10-09T12:35:21.000Z</time>
      </trkpt>
      <trkpt lat="43.57564" lon="3.71161">
        <ele>101.88434557226</ele>
        <time>2020-10-09T12:35:22.000Z</time>
      </trkpt>
      <trkpt lat="43.57565" lon="3.71157">
        <ele>101.38584060858</ele>
        <time>2020-10-09T12:35:23.000Z</time>
      </trkpt>
      <trkpt lat="43.57565" lon="3.71154">
        <ele>100.88733564491</ele>
        <time>2020-10-09T12:35:24.000Z</time>
      </trkpt>
      <trkpt lat="43.57565" lon="3.71151">
        <ele>100.38883068123</ele>
        <time>2020-10-09T12:35:25.000Z</time>
      </trkpt>
      <trkpt lat="43.57565" lon="3.71147">
        <ele>99.913807563903</ele>
        <time>2020-10-09T12:35:26.000Z</time>
      </trkpt>
      <trkpt lat="43.57566" lon="3.71143">
        <ele>99.522035160476</ele>
        <time>2020-10-09T12:35:27.000Z</time>
      </trkpt>
      <trkpt lat="43.57566" lon="3.7114">
        <ele>99.13026275705</ele>
        <time>2020-10-09T12:35:28.000Z</time>
      </trkpt>
      <trkpt lat="43.57567" lon="3.71137">
        <ele>98.738490353623</ele>
        <time>2020-10-09T12:35:29.000Z</time>
      </trkpt>
      <trkpt lat="43.57568" lon="3.71133">
        <ele>98.346717950197</ele>
        <time>2020-10-09T12:35:30.000Z</time>
      </trkpt>
      <trkpt lat="43.57568" lon="3.7113">
        <ele>97.95494554677</ele>
        <time>2020-10-09T12:35:31.000Z</time>
      </trkpt>
      <trkpt lat="43.57568" lon="3.71126">
        <ele>97.563173143344</ele>
        <time>2020-10-09T12:35:32.000Z</time>
      </trkpt>
      <trkpt lat="43.57569" lon="3.71122">
        <ele>97.171400739917</ele>
        <time>2020-10-09T12:35:33.000Z</time>
      </trkpt>
      <trkpt lat="43.57569" lon="3.71118">
        <ele>96.779628336491</ele>
        <time>2020-10-09T12:35:34.000Z</time>
      </trkpt>
      <trkpt lat="43.57569" lon="3.71115">
        <ele>96.387855933064</ele>
        <time>2020-10-09T12:35:35.000Z</time>
      </trkpt>
      <trkpt lat="43.5757" lon="3.71111">
        <ele>95.99587335261</ele>
        <time>2020-10-09T12:35:36.000Z</time>
      </trkpt>
      <trkpt lat="43.5757" lon="3.71108">
        <ele>95.583076518663</ele>
        <time>2020-10-09T12:35:37.000Z</time>
      </trkpt>
      <trkpt lat="43.5757" lon="3.71105">
        <ele>95.170279684716</ele>
        <time>2020-10-09T12:35:38.000Z</time>
      </trkpt>
      <trkpt lat="43.57571" lon="3.71101">
        <ele>94.757482850768</ele>
        <time>2020-10-09T12:35:39.000Z</time>
      </trkpt>
      <trkpt lat="43.57572" lon="3.71098">
        <ele>94.344686016821</ele>
        <time>2020-10-09T12:35:40.000Z</time>
      </trkpt>
      <trkpt lat="43.57571" lon="3.71096">
        <ele>93.931889182874</ele>
        <time>2020-10-09T12:35:41.000Z</time>
      </trkpt>
      <trkpt lat="43.57571" lon="3.71093">
        <ele>93.519092348926</ele>
        <time>2020-10-09T12:35:42.000Z</time>
      </trkpt>
      <trkpt lat="43.57571" lon="3.71089">
        <ele>93.106295514979</ele>
        <time>2020-10-09T12:35:43.000Z</time>
      </trkpt>
      <trkpt lat="43.57571" lon="3.71085">
        <ele>92.693498681032</ele>
        <time>2020-10-09T12:35:44.000Z</time>
      </trkpt>
      <trkpt lat="43.57572" lon="3.7108">
        <ele>92.280701847084</ele>
        <time>2020-10-09T12:35:45.000Z</time>
      </trkpt>
      <trkpt lat="43.57573" lon="3.71074">
        <ele>91.84</ele>
        <time>2020-10-09T12:35:46.000Z</time>
      </trkpt>
      <trkpt lat="43.57573" lon="3.71067">
        <ele>91.34</ele>
        <time>2020-10-09T12:35:47.000Z</time>
      </trkpt>
      <trkpt lat="43.57573" lon="3.7106">
        <ele>90.84</ele>
        <time>2020-10-09T12:35:48.000Z</time>
      </trkpt>
      <trkpt lat="43.57574" lon="3.71053">
        <ele>90.34</ele>
        <time>2020-10-09T12:35:49.000Z</time>
      </trkpt>
      <trkpt lat="43.57574" lon="3.71047">
        <ele>89.84</ele>
        <time>2020-10-09T12:35:50.000Z</time>
      </trkpt>
      <trkpt lat="43.57574" lon="3.7104">
        <ele>89.34</ele>
        <time>2020-10-09T12:35:51.000Z</time>
      </trkpt>
      <trkpt lat="43.57574" lon="3.71034">
        <ele>88.84</ele>
        <time>2020-10-09T12:35:52.000Z</time>
      </trkpt>
      <trkpt lat="43.57574" lon="3.71029">
        <ele>88.34</ele>
        <time>2020-10-09T12:35:53.000Z</time>
      </trkpt>
      <trkpt lat="43.57574" lon="3.71023">
        <ele>87.84</ele>
        <time>2020-10-09T12:35:54.000Z</time>
      </trkpt>
      <trkpt lat="43.57574" lon="3.71017">
        <ele>87.34</ele>
        <time>2020-10-09T12:35:55.000Z</time>
      </trkpt>
      <trkpt lat="43.57575" lon="3.71011">
        <ele>86.84</ele>
        <time>2020-10-09T12:35:56.000Z</time>
      </trkpt>
      <trkpt lat="43.57575" lon="3.71005">
        <ele>86.34</ele>
        <time>2020-10-09T12:35:57.000Z</time>
      </trkpt>
      <trkpt lat="43.57576" lon="3.71">
        <ele>85.84</ele>
        <time>2020-10-09T12:35:58.000Z</time>
      </trkpt>
      <trkpt lat="43.57575" lon="3.70994">
        <ele>85.34</ele>
        <time>2020-10-09T12:35:59.000Z</time>
      </trkpt>
      <trkpt lat="43.57574" lon="3.70989">
        <ele>84.84</ele>
        <time>2020-10-09T12:36:00.000Z</time>
      </trkpt>
      <trkpt lat="43.57573" lon="3.70984">
        <ele>84.34</ele>
        <time>2020-10-09T12:36:01.000Z</time>
      </trkpt>
      <trkpt lat="43.57572" lon="3.7098">
        <ele>83.84</ele>
        <time>2020-10-09T12:36:02.000Z</time>
      </trkpt>
      <trkpt lat="43.57571" lon="3.70977">
        <ele>83.34</ele>
        <time>2020-10-09T12:36:03.000Z</time>
      </trkpt>
      <trkpt lat="43.5757" lon="3.70974">
        <ele>82.84</ele>
        <time>2020-10-09T12:36:04.000Z</time>
      </trkpt>
      <trkpt lat="43.5757" lon="3.7097">
        <ele>82.34</ele>
        <time>2020-10-09T12:36:05.000Z</time>
      </trkpt>
      <trkpt lat="43.5757" lon="3.70967">
        <ele>81.872</ele>
        <time>2020-10-09T12:36:06.000Z</time>
      </trkpt>
      <trkpt lat="43.5757" lon="3.70963">
        <ele>81.472</ele>
        <time>2020-10-09T12:36:07.000Z</time>
      </trkpt>
      <trkpt lat="43.5757" lon="3.70959">
        <ele>81.072</ele>
        <time>2020-10-09T12:36:08.000Z</time>
      </trkpt>
      <trkpt lat="43.5757" lon="3.70956">
        <ele>80.672</ele>
        <time>2020-10-09T12:36:09.000Z</time>
      </trkpt>
      <trkpt lat="43.5757" lon="3.70953">
        <ele>80.272</ele>
        <time>2020-10-09T12:36:10.000Z</time>
      </trkpt>
      <trkpt lat="43.5757" lon="3.7095">
        <ele>79.872</ele>
        <time>2020-10-09T12:36:11.000Z</time>
      </trkpt>
      <trkpt lat="43.5757" lon="3.70947">
        <ele>79.472</ele>
        <time>2020-10-09T12:36:12.000Z</time>
      </trkpt>
      <trkpt lat="43.57569" lon="3.70945">
        <ele>79.072</ele>
        <time>2020-10-09T12:36:13.000Z</time>
      </trkpt>
      <trkpt lat="43.5757" lon="3.70941">
        <ele>78.672</ele>
        <time>2020-10-09T12:36:14.000Z</time>
      </trkpt>
      <trkpt lat="43.57571" lon="3.70938">
        <ele>78.272</ele>
        <time>2020-10-09T12:36:15.000Z</time>
      </trkpt>
      <trkpt lat="43.57572" lon="3.70935">
        <ele>77.340659129881</ele>
        <time>2020-10-09T12:36:17.000Z</time>
      </trkpt>
      <trkpt lat="43.57573" lon="3.70932">
        <ele>76.341657811519</ele>
        <time>2020-10-09T12:36:19.000Z</time>
      </trkpt>
      <trkpt lat="43.57574" lon="3.70928">
        <ele>75.342656493157</ele>
        <time>2020-10-09T12:36:21.000Z</time>
      </trkpt>
      <trkpt lat="43.57573" lon="3.70926">
        <ele>74.843155833976</ele>
        <time>2020-10-09T12:36:22.000Z</time>
      </trkpt>
      <trkpt lat="43.57573" lon="3.70923">
        <ele>74.343655174795</ele>
        <time>2020-10-09T12:36:23.000Z</time>
      </trkpt>
      <trkpt lat="43.57573" lon="3.7092">
        <ele>73.844154515614</ele>
        <time>2020-10-09T12:36:24.000Z</time>
      </trkpt>
      <trkpt lat="43.57573" lon="3.70917">
        <ele>73.344653856433</ele>
        <time>2020-10-09T12:36:25.000Z</time>
      </trkpt>
      <trkpt lat="43.57574" lon="3.70915">
        <ele>72.875874634355</ele>
        <time>2020-10-09T12:36:26.000Z</time>
      </trkpt>
      <trkpt lat="43.57574" lon="3.70912">
        <ele>72.47547436221</ele>
        <time>2020-10-09T12:36:27.000Z</time>
      </trkpt>
      <trkpt lat="43.57574" lon="3.7091">
        <ele>72.075074090066</ele>
        <time>2020-10-09T12:36:28.000Z</time>
      </trkpt>
      <trkpt lat="43.57574" lon="3.70907">
        <ele>71.674673817922</ele>
        <time>2020-10-09T12:36:29.000Z</time>
      </trkpt>
      <trkpt lat="43.57575" lon="3.70904">
        <ele>71.274273545778</ele>
        <time>2020-10-09T12:36:30.000Z</time>
      </trkpt>
      <trkpt lat="43.57575" lon="3.70901">
        <ele>70.873873273634</ele>
        <time>2020-10-09T12:36:31.000Z</time>
      </trkpt>
      <trkpt lat="43.57576" lon="3.70898">
        <ele>70.47347300149</ele>
        <time>2020-10-09T12:36:32.000Z</time>
      </trkpt>
      <trkpt lat="43.57576" lon="3.70895">
        <ele>70.073072729346</ele>
        <time>2020-10-09T12:36:33.000Z</time>
      </trkpt>
      <trkpt lat="43.57578" lon="3.70893">
        <ele>69.272272185058</ele>
        <time>2020-10-09T12:36:35.000Z</time>
      </trkpt>
      <trkpt lat="43.57578" lon="3.70893">
        <ele>69</ele>
        <time>2020-10-09T12:36:40.000Z</time>
      </trkpt>
      <trkpt lat="43.57582" lon="3.70885">
        <ele>66.012638791998</ele>
        <time>2020-10-09T12:37:25.000Z</time>
      </trkpt>
      <trkpt lat="43.57582" lon="3.70883">
        <ele>65.909502262443</ele>
        <time>2020-10-09T12:37:26.000Z</time>
      </trkpt>
      <trkpt lat="43.57583" lon="3.70879">
        <ele>65.683257918552</ele>
        <time>2020-10-09T12:37:28.000Z</time>
      </trkpt>
      <trkpt lat="43.57584" lon="3.70876">
        <ele>65.457013574661</ele>
        <time>2020-10-09T12:37:30.000Z</time>
      </trkpt>
      <trkpt lat="43.57585" lon="3.70876">
        <ele>65.004524886878</ele>
        <time>2020-10-09T12:37:34.000Z</time>
      </trkpt>
      <trkpt lat="43.57586" lon="3.70873">
        <ele>65</ele>
        <time>2020-10-09T12:37:37.000Z</time>
      </trkpt>
      <trkpt lat="43.57587" lon="3.70872">
        <ele>65</ele>
        <time>2020-10-09T12:37:39.000Z</time>
      </trkpt>
      <trkpt lat="43.57589" lon="3.7087">
        <ele>65</ele>
        <time>2020-10-09T12:37:42.000Z</time>
      </trkpt>
      <trkpt lat="43.57591" lon="3.70868">
        <ele>65</ele>
        <time>2020-10-09T12:37:45.000Z</time>
      </trkpt>
      <trkpt lat="43.57593" lon="3.70866">
        <ele>65</ele>
        <time>2020-10-09T12:37:48.000Z</time>
      </trkpt>
      <trkpt lat="43.57594" lon="3.70865">
        <ele>65</ele>
        <time>2020-10-09T12:37:54.000Z</time>
      </trkpt>
      <trkpt lat="43.57597" lon="3.70857">
        <ele>65</ele>
        <time>2020-10-09T12:38:01.000Z</time>
      </trkpt>
      <trkpt lat="43.57598" lon="3.70855">
        <ele>65</ele>
        <time>2020-10-09T12:38:02.000Z</time>
      </trkpt>
      <trkpt lat="43.576" lon="3.70853">
        <ele>65</ele>
        <time>2020-10-09T12:38:04.000Z</time>
      </trkpt>
      <trkpt lat="43.57601" lon="3.70851">
        <ele>65</ele>
        <time>2020-10-09T12:38:06.000Z</time>
      </trkpt>
      <trkpt lat="43.57603" lon="3.7085">
        <ele>65</ele>
        <time>2020-10-09T12:38:08.000Z</time>
      </trkpt>
      <trkpt lat="43.57605" lon="3.70848">
        <ele>65</ele>
        <time>2020-10-09T12:38:11.000Z</time>
      </trkpt>
      <trkpt lat="43.57607" lon="3.70848">
        <ele>65</ele>
        <time>2020-10-09T12:38:13.000Z</time>
      </trkpt>
      <trkpt lat="43.57609" lon="3.70847">
        <ele>65</ele>
        <time>2020-10-09T12:38:16.000Z</time>
      </trkpt>
      <trkpt lat="43.5761" lon="3.70845">
        <ele>65</ele>
        <time>2020-10-09T12:38:18.000Z</time>
      </trkpt>
      <trkpt lat="43.57612" lon="3.70843">
        <ele>65</ele>
        <time>2020-10-09T12:38:20.000Z</time>
      </trkpt>
      <trkpt lat="43.57615" lon="3.70841">
        <ele>65.183333333333</ele>
        <time>2020-10-09T12:38:22.000Z</time>
      </trkpt>
      <trkpt lat="43.57615" lon="3.70839">
        <ele>66</ele>
        <time>2020-10-09T12:38:28.000Z</time>
      </trkpt>
      <trkpt lat="43.57623" lon="3.7084">
        <ele>66</ele>
        <time>2020-10-09T12:38:41.000Z</time>
      </trkpt>
      <trkpt lat="43.57626" lon="3.7084">
        <ele>66.190228896313</ele>
        <time>2020-10-09T12:38:43.000Z</time>
      </trkpt>
      <trkpt lat="43.57629" lon="3.70841">
        <ele>66.398128965902</ele>
        <time>2020-10-09T12:38:45.000Z</time>
      </trkpt>
      <trkpt lat="43.57633" lon="3.70842">
        <ele>66.60602903549</ele>
        <time>2020-10-09T12:38:47.000Z</time>
      </trkpt>
      <trkpt lat="43.57635" lon="3.70842">
        <ele>66.709979070284</ele>
        <time>2020-10-09T12:38:48.000Z</time>
      </trkpt>
      <trkpt lat="43.57637" lon="3.70843">
        <ele>66.813929105078</ele>
        <time>2020-10-09T12:38:49.000Z</time>
      </trkpt>
      <trkpt lat="43.57639" lon="3.70843">
        <ele>66.917879139872</ele>
        <time>2020-10-09T12:38:50.000Z</time>
      </trkpt>
      <trkpt lat="43.57642" lon="3.70844">
        <ele>66.976795925497</ele>
        <time>2020-10-09T12:38:51.000Z</time>
      </trkpt>
      <trkpt lat="43.57643" lon="3.70844">
        <ele>66.866298648857</ele>
        <time>2020-10-09T12:38:52.000Z</time>
      </trkpt>
      <trkpt lat="43.57646" lon="3.70845">
        <ele>66.645304095577</ele>
        <time>2020-10-09T12:38:54.000Z</time>
      </trkpt>
      <trkpt lat="43.57646" lon="3.70846">
        <ele>66</ele>
        <time>2020-10-09T12:39:00.000Z</time>
      </trkpt>
      <trkpt lat="43.57658" lon="3.70727">
        <ele>94.986190736135</ele>
        <time>2020-10-09T12:44:57.000Z</time>
      </trkpt>
      <trkpt lat="43.57658" lon="3.70725">
        <ele>95.296841631557</ele>
        <time>2020-10-09T12:45:00.000Z</time>
      </trkpt>
      <trkpt lat="43.57659" lon="3.70721">
        <ele>95.612631317983</ele>
        <time>2020-10-09T12:45:03.000Z</time>
      </trkpt>
      <trkpt lat="43.57658" lon="3.70718">
        <ele>95.92842100441</ele>
        <time>2020-10-09T12:45:06.000Z</time>
      </trkpt>
      <trkpt lat="43.57658" lon="3.70717">
        <ele>97</ele>
        <time>2020-10-09T12:45:12.000Z</time>
      </trkpt>
      <trkpt lat="43.57658" lon="3.70711">
        <ele>97</ele>
        <time>2020-10-09T12:45:19.000Z</time>
      </trkpt>
      <trkpt lat="43.57658" lon="3.70709">
        <ele>97.38485858764</ele>
        <time>2020-10-09T12:45:21.000Z</time>
      </trkpt>
      <trkpt lat="43.57659" lon="3.70706">
        <ele>98.015773201843</ele>
        <time>2020-10-09T12:45:24.000Z</time>
      </trkpt>
      <trkpt lat="43.5766" lon="3.70703">
        <ele>98.646687816046</ele>
        <time>2020-10-09T12:45:27.000Z</time>
      </trkpt>
      <trkpt lat="43.57661" lon="3.70699">
        <ele>99.132</ele>
        <time>2020-10-09T12:45:30.000Z</time>
      </trkpt>
      <trkpt lat="43.57662" lon="3.70696">
        <ele>99.432</ele>
        <time>2020-10-09T12:45:33.000Z</time>
      </trkpt>
      <trkpt lat="43.57663" lon="3.70694">
        <ele>99.632</ele>
        <time>2020-10-09T12:45:35.000Z</time>
      </trkpt>
      <trkpt lat="43.57664" lon="3.70693">
        <ele>100.01000029091</ele>
        <time>2020-10-09T12:45:42.000Z</time>
      </trkpt>
      <trkpt lat="43.57667" lon="3.7069">
        <ele>101.02045119316</ele>
        <time>2020-10-09T12:45:53.000Z</time>
      </trkpt>
      <trkpt lat="43.57668" lon="3.70689">
        <ele>101.22495003684</ele>
        <time>2020-10-09T12:45:54.000Z</time>
      </trkpt>
      <trkpt lat="43.5767" lon="3.70687">
        <ele>101.63394772421</ele>
        <time>2020-10-09T12:45:56.000Z</time>
      </trkpt>
      <trkpt lat="43.57672" lon="3.70686">
        <ele>102.04294541157</ele>
        <time>2020-10-09T12:45:58.000Z</time>
      </trkpt>
      <trkpt lat="43.57675" lon="3.70684">
        <ele>102.45194309893</ele>
        <time>2020-10-09T12:46:00.000Z</time>
      </trkpt>
      <trkpt lat="43.57677" lon="3.70682">
        <ele>102.8609407863</ele>
        <time>2020-10-09T12:46:02.000Z</time>
      </trkpt>
      <trkpt lat="43.5768" lon="3.7068">
        <ele>103.12827992328</ele>
        <time>2020-10-09T12:46:04.000Z</time>
      </trkpt>
      <trkpt lat="43.57682" lon="3.70677">
        <ele>103.32264344339</ele>
        <time>2020-10-09T12:46:06.000Z</time>
      </trkpt>
      <trkpt lat="43.57684" lon="3.70675">
        <ele>103.5170069635</ele>
        <time>2020-10-09T12:46:08.000Z</time>
      </trkpt>
      <trkpt lat="43.57685" lon="3.70672">
        <ele>103.71137048361</ele>
        <time>2020-10-09T12:46:10.000Z</time>
      </trkpt>
      <trkpt lat="43.57686" lon="3.70669">
        <ele>103.90573400373</ele>
        <time>2020-10-09T12:46:12.000Z</time>
      </trkpt>
      <trkpt lat="43.57687" lon="3.70666">
        <ele>104.10607650469</ele>
        <time>2020-10-09T12:46:14.000Z</time>
      </trkpt>
      <trkpt lat="43.57687" lon="3.70662">
        <ele>104.31204966029</ele>
        <time>2020-10-09T12:46:16.000Z</time>
      </trkpt>
      <trkpt lat="43.57687" lon="3.70659">
        <ele>104.51802281589</ele>
        <time>2020-10-09T12:46:18.000Z</time>
      </trkpt>
      <trkpt lat="43.57687" lon="3.70655">
        <ele>104.7239959715</ele>
        <time>2020-10-09T12:46:20.000Z</time>
      </trkpt>
      <trkpt lat="43.57687" lon="3.70651">
        <ele>104.9299691271</ele>
        <time>2020-10-09T12:46:22.000Z</time>
      </trkpt>
      <trkpt lat="43.57687" lon="3.70648">
        <ele>105.13147410359</ele>
        <time>2020-10-09T12:46:24.000Z</time>
      </trkpt>
      <trkpt lat="43.57687" lon="3.70644">
        <ele>105.33067729084</ele>
        <time>2020-10-09T12:46:26.000Z</time>
      </trkpt>
      <trkpt lat="43.57687" lon="3.70641">
        <ele>105.62948207171</ele>
        <time>2020-10-09T12:46:29.000Z</time>
      </trkpt>
      <trkpt lat="43.57687" lon="3.70639">
        <ele>106.06077874592</ele>
        <time>2020-10-09T12:46:35.000Z</time>
      </trkpt>
      <trkpt lat="43.57687" lon="3.70632">
        <ele>107.00993111899</ele>
        <time>2020-10-09T12:46:45.000Z</time>
      </trkpt>
      <trkpt lat="43.57687" lon="3.70628">
        <ele>107.20854078775</ele>
        <time>2020-10-09T12:46:47.000Z</time>
      </trkpt>
      <trkpt lat="43.57687" lon="3.70625">
        <ele>107.40715045652</ele>
        <time>2020-10-09T12:46:49.000Z</time>
      </trkpt>
      <trkpt lat="43.57687" lon="3.70622">
        <ele>107.60576012528</ele>
        <time>2020-10-09T12:46:51.000Z</time>
      </trkpt>
      <trkpt lat="43.57688" lon="3.70619">
        <ele>107.80436979404</ele>
        <time>2020-10-09T12:46:53.000Z</time>
      </trkpt>
      <trkpt lat="43.57689" lon="3.70615">
        <ele>108.00299732364</ele>
        <time>2020-10-09T12:46:55.000Z</time>
      </trkpt>
      <trkpt lat="43.57689" lon="3.70612">
        <ele>108.20279758731</ele>
        <time>2020-10-09T12:46:57.000Z</time>
      </trkpt>
      <trkpt lat="43.57689" lon="3.70609">
        <ele>108.40259785098</ele>
        <time>2020-10-09T12:46:59.000Z</time>
      </trkpt>
      <trkpt lat="43.5769" lon="3.70606">
        <ele>108.60239811465</ele>
        <time>2020-10-09T12:47:01.000Z</time>
      </trkpt>
      <trkpt lat="43.57691" lon="3.70602">
        <ele>108.80219837833</ele>
        <time>2020-10-09T12:47:03.000Z</time>
      </trkpt>
      <trkpt lat="43.57691" lon="3.70599">
        <ele>109.00206039067</ele>
        <time>2020-10-09T12:47:05.000Z</time>
      </trkpt>
      <trkpt lat="43.57692" lon="3.70596">
        <ele>109.20803354627</ele>
        <time>2020-10-09T12:47:07.000Z</time>
      </trkpt>
      <trkpt lat="43.57693" lon="3.70594">
        <ele>109.41400670187</ele>
        <time>2020-10-09T12:47:09.000Z</time>
      </trkpt>
      <trkpt lat="43.57693" lon="3.7059">
        <ele>109.61997985747</ele>
        <time>2020-10-09T12:47:11.000Z</time>
      </trkpt>
      <trkpt lat="43.57693" lon="3.70587">
        <ele>109.82595301307</ele>
        <time>2020-10-09T12:47:13.000Z</time>
      </trkpt>
      <trkpt lat="43.57693" lon="3.70584">
        <ele>110.03096932095</ele>
        <time>2020-10-09T12:47:15.000Z</time>
      </trkpt>
      <trkpt lat="43.57693" lon="3.7058">
        <ele>110.23076932913</ele>
        <time>2020-10-09T12:47:17.000Z</time>
      </trkpt>
      <trkpt lat="43.57693" lon="3.70577">
        <ele>110.43056933732</ele>
        <time>2020-10-09T12:47:19.000Z</time>
      </trkpt>
      <trkpt lat="43.57693" lon="3.70573">
        <ele>110.6303693455</ele>
        <time>2020-10-09T12:47:21.000Z</time>
      </trkpt>
      <trkpt lat="43.57692" lon="3.70569">
        <ele>110.83016935368</ele>
        <time>2020-10-09T12:47:23.000Z</time>
      </trkpt>
      <trkpt lat="43.57692" lon="3.70565">
        <ele>111.02923916054</ele>
        <time>2020-10-09T12:47:25.000Z</time>
      </trkpt>
      <trkpt lat="43.57691" lon="3.70561">
        <ele>111.22417105601</ele>
        <time>2020-10-09T12:47:27.000Z</time>
      </trkpt>
      <trkpt lat="43.57691" lon="3.70557">
        <ele>111.41910295149</ele>
        <time>2020-10-09T12:47:29.000Z</time>
      </trkpt>
      <trkpt lat="43.5769" lon="3.70553">
        <ele>111.61403484696</ele>
        <time>2020-10-09T12:47:31.000Z</time>
      </trkpt>
      <trkpt lat="43.57689" lon="3.70548">
        <ele>111.80896674244</ele>
        <time>2020-10-09T12:47:33.000Z</time>
      </trkpt>
      <trkpt lat="43.57688" lon="3.70544">
        <ele>112.00821354696</ele>
        <time>2020-10-09T12:47:35.000Z</time>
      </trkpt>
      <trkpt lat="43.57687" lon="3.7054">
        <ele>112.41889089519</ele>
        <time>2020-10-09T12:47:37.000Z</time>
      </trkpt>
      <trkpt lat="43.57685" lon="3.70536">
        <ele>112.82956824341</ele>
        <time>2020-10-09T12:47:39.000Z</time>
      </trkpt>
      <trkpt lat="43.57685" lon="3.70532">
        <ele>113.24024559162</ele>
        <time>2020-10-09T12:47:41.000Z</time>
      </trkpt>
      <trkpt lat="43.57685" lon="3.70528">
        <ele>113.65092293985</ele>
        <time>2020-10-09T12:47:43.000Z</time>
      </trkpt>
      <trkpt lat="43.57684" lon="3.70523">
        <ele>114.03005949824</ele>
        <time>2020-10-09T12:47:45.000Z</time>
      </trkpt>
      <trkpt lat="43.57682" lon="3.70518">
        <ele>114.23046042835</ele>
        <time>2020-10-09T12:47:47.000Z</time>
      </trkpt>
      <trkpt lat="43.57682" lon="3.70514">
        <ele>114.43086135847</ele>
        <time>2020-10-09T12:47:49.000Z</time>
      </trkpt>
      <trkpt lat="43.57681" lon="3.7051">
        <ele>114.63126228859</ele>
        <time>2020-10-09T12:47:51.000Z</time>
      </trkpt>
      <trkpt lat="43.5768" lon="3.70506">
        <ele>114.8316632187</ele>
        <time>2020-10-09T12:47:53.000Z</time>
      </trkpt>
      <trkpt lat="43.5768" lon="3.70502">
        <ele>115.032</ele>
        <time>2020-10-09T12:47:55.000Z</time>
      </trkpt>
      <trkpt lat="43.57679" lon="3.70498">
        <ele>115.232</ele>
        <time>2020-10-09T12:47:57.000Z</time>
      </trkpt>
      <trkpt lat="43.57678" lon="3.70494">
        <ele>115.432</ele>
        <time>2020-10-09T12:47:59.000Z</time>
      </trkpt>
      <trkpt lat="43.57678" lon="3.7049">
        <ele>115.632</ele>
        <time>2020-10-09T12:48:01.000Z</time>
      </trkpt>
      <trkpt lat="43.57677" lon="3.70486">
        <ele>115.832</ele>
        <time>2020-10-09T12:48:03.000Z</time>
      </trkpt>
      <trkpt lat="43.57677" lon="3.70482">
        <ele>116.064</ele>
        <time>2020-10-09T12:48:05.000Z</time>
      </trkpt>
      <trkpt lat="43.57676" lon="3.70477">
        <ele>116.464</ele>
        <time>2020-10-09T12:48:07.000Z</time>
      </trkpt>
      <trkpt lat="43.57676" lon="3.70472">
        <ele>116.864</ele>
        <time>2020-10-09T12:48:09.000Z</time>
      </trkpt>
      <trkpt lat="43.57676" lon="3.70467">
        <ele>117.264</ele>
        <time>2020-10-09T12:48:11.000Z</time>
      </trkpt>
      <trkpt lat="43.57676" lon="3.70465">
        <ele>117.464</ele>
        <time>2020-10-09T12:48:12.000Z</time>
      </trkpt>
      <trkpt lat="43.57676" lon="3.70462">
        <ele>117.664</ele>
        <time>2020-10-09T12:48:13.000Z</time>
      </trkpt>
      <trkpt lat="43.57676" lon="3.70457">
        <ele>118</ele>
        <time>2020-10-09T12:48:15.000Z</time>
      </trkpt>
      <trkpt lat="43.57676" lon="3.70453">
        <ele>118</ele>
        <time>2020-10-09T12:48:17.000Z</time>
      </trkpt>
      <trkpt lat="43.57675" lon="3.70448">
        <ele>118</ele>
        <time>2020-10-09T12:48:19.000Z</time>
      </trkpt>
      <trkpt lat="43.57675" lon="3.70444">
        <ele>118</ele>
        <time>2020-10-09T12:48:21.000Z</time>
      </trkpt>
      <trkpt lat="43.57675" lon="3.70439">
        <ele>118</ele>
        <time>2020-10-09T12:48:23.000Z</time>
      </trkpt>
      <trkpt lat="43.57675" lon="3.70435">
        <ele>118.03165181985</ele>
        <time>2020-10-09T12:48:25.000Z</time>
      </trkpt>
      <trkpt lat="43.57675" lon="3.70431">
        <ele>118.22947569394</ele>
        <time>2020-10-09T12:48:27.000Z</time>
      </trkpt>
      <trkpt lat="43.57674" lon="3.70427">
        <ele>118.42729956802</ele>
        <time>2020-10-09T12:48:29.000Z</time>
      </trkpt>
      <trkpt lat="43.57673" lon="3.70422">
        <ele>118.6251234421</ele>
        <time>2020-10-09T12:48:31.000Z</time>
      </trkpt>
      <trkpt lat="43.57673" lon="3.70418">
        <ele>118.82294731618</ele>
        <time>2020-10-09T12:48:33.000Z</time>
      </trkpt>
      <trkpt lat="43.57673" lon="3.70414">
        <ele>119.02123325257</ele>
        <time>2020-10-09T12:48:35.000Z</time>
      </trkpt>
      <trkpt lat="43.57673" lon="3.7041">
        <ele>119.22345778717</ele>
        <time>2020-10-09T12:48:37.000Z</time>
      </trkpt>
      <trkpt lat="43.57673" lon="3.70405">
        <ele>119.42568232176</ele>
        <time>2020-10-09T12:48:39.000Z</time>
      </trkpt>
      <trkpt lat="43.57674" lon="3.70401">
        <ele>119.62790685635</ele>
        <time>2020-10-09T12:48:41.000Z</time>
      </trkpt>
      <trkpt lat="43.57673" lon="3.70397">
        <ele>119.83013139094</ele>
        <time>2020-10-09T12:48:43.000Z</time>
      </trkpt>
      <trkpt lat="43.57673" lon="3.70393">
        <ele>120.032</ele>
        <time>2020-10-09T12:48:45.000Z</time>
      </trkpt>
      <trkpt lat="43.57673" lon="3.7039">
        <ele>120.232</ele>
        <time>2020-10-09T12:48:47.000Z</time>
      </trkpt>
      <trkpt lat="43.57673" lon="3.70386">
        <ele>120.432</ele>
        <time>2020-10-09T12:48:49.000Z</time>
      </trkpt>
      <trkpt lat="43.57672" lon="3.70382">
        <ele>120.632</ele>
        <time>2020-10-09T12:48:51.000Z</time>
      </trkpt>
      <trkpt lat="43.57672" lon="3.70378">
        <ele>120.832</ele>
        <time>2020-10-09T12:48:53.000Z</time>
      </trkpt>
      <trkpt lat="43.57672" lon="3.70374">
        <ele>121.03165181985</ele>
        <time>2020-10-09T12:48:55.000Z</time>
      </trkpt>
      <trkpt lat="43.57672" lon="3.7037">
        <ele>121.22947569394</ele>
        <time>2020-10-09T12:48:57.000Z</time>
      </trkpt>
      <trkpt lat="43.57672" lon="3.70366">
        <ele>121.42729956802</ele>
        <time>2020-10-09T12:48:59.000Z</time>
      </trkpt>
      <trkpt lat="43.57672" lon="3.70362">
        <ele>121.6251234421</ele>
        <time>2020-10-09T12:49:01.000Z</time>
      </trkpt>
      <trkpt lat="43.57673" lon="3.70358">
        <ele>121.82294731618</ele>
        <time>2020-10-09T12:49:03.000Z</time>
      </trkpt>
      <trkpt lat="43.57674" lon="3.70353">
        <ele>122.02123325257</ele>
        <time>2020-10-09T12:49:05.000Z</time>
      </trkpt>
      <trkpt lat="43.57675" lon="3.70348">
        <ele>122.22345778717</ele>
        <time>2020-10-09T12:49:07.000Z</time>
      </trkpt>
      <trkpt lat="43.57676" lon="3.70344">
        <ele>122.42568232176</ele>
        <time>2020-10-09T12:49:09.000Z</time>
      </trkpt>
      <trkpt lat="43.57676" lon="3.70341">
        <ele>122.52679458905</ele>
        <time>2020-10-09T12:49:10.000Z</time>
      </trkpt>
      <trkpt lat="43.57677" lon="3.70339">
        <ele>122.62790685635</ele>
        <time>2020-10-09T12:49:11.000Z</time>
      </trkpt>
      <trkpt lat="43.57678" lon="3.70337">
        <ele>122.72901912365</ele>
        <time>2020-10-09T12:49:12.000Z</time>
      </trkpt>
      <trkpt lat="43.57679" lon="3.70334">
        <ele>122.83013139094</ele>
        <time>2020-10-09T12:49:13.000Z</time>
      </trkpt>
      <trkpt lat="43.57679" lon="3.70332">
        <ele>122.93124365824</ele>
        <time>2020-10-09T12:49:14.000Z</time>
      </trkpt>
      <trkpt lat="43.5768" lon="3.7033">
        <ele>123</ele>
        <time>2020-10-09T12:49:15.000Z</time>
      </trkpt>
      <trkpt lat="43.57682" lon="3.70325">
        <ele>123</ele>
        <time>2020-10-09T12:49:17.000Z</time>
      </trkpt>
      <trkpt lat="43.57683" lon="3.70321">
        <ele>123</ele>
        <time>2020-10-09T12:49:19.000Z</time>
      </trkpt>
      <trkpt lat="43.57684" lon="3.70318">
        <ele>123</ele>
        <time>2020-10-09T12:49:20.000Z</time>
      </trkpt>
      <trkpt lat="43.57685" lon="3.70316">
        <ele>123</ele>
        <time>2020-10-09T12:49:21.000Z</time>
      </trkpt>
      <trkpt lat="43.57686" lon="3.70314">
        <ele>123</ele>
        <time>2020-10-09T12:49:22.000Z</time>
      </trkpt>
      <trkpt lat="43.57687" lon="3.70311">
        <ele>123</ele>
        <time>2020-10-09T12:49:23.000Z</time>
      </trkpt>
      <trkpt lat="43.57688" lon="3.70309">
        <ele>123</ele>
        <time>2020-10-09T12:49:24.000Z</time>
      </trkpt>
      <trkpt lat="43.57689" lon="3.70307">
        <ele>123.03125</ele>
        <time>2020-10-09T12:49:25.000Z</time>
      </trkpt>
      <trkpt lat="43.57689" lon="3.70305">
        <ele>123.12890625</ele>
        <time>2020-10-09T12:49:26.000Z</time>
      </trkpt>
      <trkpt lat="43.5769" lon="3.70302">
        <ele>123.2265625</ele>
        <time>2020-10-09T12:49:27.000Z</time>
      </trkpt>
      <trkpt lat="43.57691" lon="3.703">
        <ele>123.32421875</ele>
        <time>2020-10-09T12:49:28.000Z</time>
      </trkpt>
      <trkpt lat="43.57692" lon="3.70298">
        <ele>123.421875</ele>
        <time>2020-10-09T12:49:29.000Z</time>
      </trkpt>
      <trkpt lat="43.57693" lon="3.70295">
        <ele>123.51953125</ele>
        <time>2020-10-09T12:49:30.000Z</time>
      </trkpt>
      <trkpt lat="43.57695" lon="3.70293">
        <ele>123.6171875</ele>
        <time>2020-10-09T12:49:31.000Z</time>
      </trkpt>
      <trkpt lat="43.57696" lon="3.70291">
        <ele>123.71484375</ele>
        <time>2020-10-09T12:49:32.000Z</time>
      </trkpt>
      <trkpt lat="43.57697" lon="3.70289">
        <ele>123.8125</ele>
        <time>2020-10-09T12:49:33.000Z</time>
      </trkpt>
      <trkpt lat="43.57699" lon="3.70286">
        <ele>123.91015625</ele>
        <time>2020-10-09T12:49:34.000Z</time>
      </trkpt>
      <trkpt lat="43.577" lon="3.70284">
        <ele>124</ele>
        <time>2020-10-09T12:49:35.000Z</time>
      </trkpt>
      <trkpt lat="43.57701" lon="3.70282">
        <ele>124</ele>
        <time>2020-10-09T12:49:36.000Z</time>
      </trkpt>
      <trkpt lat="43.57702" lon="3.70279">
        <ele>124</ele>
        <time>2020-10-09T12:49:37.000Z</time>
      </trkpt>
      <trkpt lat="43.57704" lon="3.70276">
        <ele>124</ele>
        <time>2020-10-09T12:49:38.000Z</time>
      </trkpt>
      <trkpt lat="43.57705" lon="3.70274">
        <ele>124</ele>
        <time>2020-10-09T12:49:39.000Z</time>
      </trkpt>
      <trkpt lat="43.57706" lon="3.70271">
        <ele>124</ele>
        <time>2020-10-09T12:49:40.000Z</time>
      </trkpt>
      <trkpt lat="43.57708" lon="3.70269">
        <ele>124</ele>
        <time>2020-10-09T12:49:41.000Z</time>
      </trkpt>
      <trkpt lat="43.57709" lon="3.70266">
        <ele>124</ele>
        <time>2020-10-09T12:49:42.000Z</time>
      </trkpt>
      <trkpt lat="43.5771" lon="3.70263">
        <ele>124</ele>
        <time>2020-10-09T12:49:43.000Z</time>
      </trkpt>
      <trkpt lat="43.57711" lon="3.7026">
        <ele>124</ele>
        <time>2020-10-09T12:49:44.000Z</time>
      </trkpt>
      <trkpt lat="43.57713" lon="3.70257">
        <ele>124.032</ele>
        <time>2020-10-09T12:49:45.000Z</time>
      </trkpt>
      <trkpt lat="43.57714" lon="3.70254">
        <ele>124.132</ele>
        <time>2020-10-09T12:49:46.000Z</time>
      </trkpt>
      <trkpt lat="43.57715" lon="3.7025">
        <ele>124.232</ele>
        <time>2020-10-09T12:49:47.000Z</time>
      </trkpt>
      <trkpt lat="43.57717" lon="3.70247">
        <ele>124.332</ele>
        <time>2020-10-09T12:49:48.000Z</time>
      </trkpt>
      <trkpt lat="43.57717" lon="3.70244">
        <ele>124.432</ele>
        <time>2020-10-09T12:49:49.000Z</time>
      </trkpt>
      <trkpt lat="43.57718" lon="3.70241">
        <ele>124.532</ele>
        <time>2020-10-09T12:49:50.000Z</time>
      </trkpt>
      <trkpt lat="43.57719" lon="3.70237">
        <ele>124.632</ele>
        <time>2020-10-09T12:49:51.000Z</time>
      </trkpt>
      <trkpt lat="43.5772" lon="3.70234">
        <ele>124.732</ele>
        <time>2020-10-09T12:49:52.000Z</time>
      </trkpt>
      <trkpt lat="43.57721" lon="3.7023">
        <ele>124.832</ele>
        <time>2020-10-09T12:49:53.000Z</time>
      </trkpt>
      <trkpt lat="43.57721" lon="3.70227">
        <ele>124.932</ele>
        <time>2020-10-09T12:49:54.000Z</time>
      </trkpt>
      <trkpt lat="43.57722" lon="3.70223">
        <ele>125.032</ele>
        <time>2020-10-09T12:49:55.000Z</time>
      </trkpt>
      <trkpt lat="43.57723" lon="3.7022">
        <ele>125.132</ele>
        <time>2020-10-09T12:49:56.000Z</time>
      </trkpt>
      <trkpt lat="43.57724" lon="3.70216">
        <ele>125.232</ele>
        <time>2020-10-09T12:49:57.000Z</time>
      </trkpt>
      <trkpt lat="43.57724" lon="3.70213">
        <ele>125.332</ele>
        <time>2020-10-09T12:49:58.000Z</time>
      </trkpt>
      <trkpt lat="43.57725" lon="3.7021">
        <ele>125.432</ele>
        <time>2020-10-09T12:49:59.000Z</time>
      </trkpt>
      <trkpt lat="43.57725" lon="3.70206">
        <ele>125.532</ele>
        <time>2020-10-09T12:50:00.000Z</time>
      </trkpt>
      <trkpt lat="43.57726" lon="3.70203">
        <ele>125.632</ele>
        <time>2020-10-09T12:50:01.000Z</time>
      </trkpt>
      <trkpt lat="43.57726" lon="3.702">
        <ele>125.732</ele>
        <time>2020-10-09T12:50:02.000Z</time>
      </trkpt>
      <trkpt lat="43.57727" lon="3.70197">
        <ele>125.832</ele>
        <time>2020-10-09T12:50:03.000Z</time>
      </trkpt>
      <trkpt lat="43.57728" lon="3.70194">
        <ele>125.932</ele>
        <time>2020-10-09T12:50:04.000Z</time>
      </trkpt>
      <trkpt lat="43.57729" lon="3.70192">
        <ele>126</ele>
        <time>2020-10-09T12:50:05.000Z</time>
      </trkpt>
      <trkpt lat="43.57731" lon="3.70189">
        <ele>126</ele>
        <time>2020-10-09T12:50:06.000Z</time>
      </trkpt>
      <trkpt lat="43.57732" lon="3.70187">
        <ele>126</ele>
        <time>2020-10-09T12:50:07.000Z</time>
      </trkpt>
      <trkpt lat="43.57734" lon="3.70183">
        <ele>126</ele>
        <time>2020-10-09T12:50:09.000Z</time>
      </trkpt>
      <trkpt lat="43.57736" lon="3.7018">
        <ele>126</ele>
        <time>2020-10-09T12:50:11.000Z</time>
      </trkpt>
      <trkpt lat="43.57738" lon="3.70177">
        <ele>126</ele>
        <time>2020-10-09T12:50:12.000Z</time>
      </trkpt>
      <trkpt lat="43.57739" lon="3.70175">
        <ele>126</ele>
        <time>2020-10-09T12:50:13.000Z</time>
      </trkpt>
      <trkpt lat="43.57741" lon="3.70173">
        <ele>126</ele>
        <time>2020-10-09T12:50:14.000Z</time>
      </trkpt>
      <trkpt lat="43.57742" lon="3.70171">
        <ele>126.00308992689</ele>
        <time>2020-10-09T12:50:15.000Z</time>
      </trkpt>
      <trkpt lat="43.57744" lon="3.70169">
        <ele>126.10607650469</ele>
        <time>2020-10-09T12:50:16.000Z</time>
      </trkpt>
      <trkpt lat="43.57745" lon="3.70167">
        <ele>126.20906308249</ele>
        <time>2020-10-09T12:50:17.000Z</time>
      </trkpt>
      <trkpt lat="43.57747" lon="3.70165">
        <ele>126.31204966029</ele>
        <time>2020-10-09T12:50:18.000Z</time>
      </trkpt>
      <trkpt lat="43.57749" lon="3.70163">
        <ele>126.41503623809</ele>
        <time>2020-10-09T12:50:19.000Z</time>
      </trkpt>
      <trkpt lat="43.5775" lon="3.70161">
        <ele>126.51802281589</ele>
        <time>2020-10-09T12:50:20.000Z</time>
      </trkpt>
      <trkpt lat="43.57752" lon="3.70158">
        <ele>126.62100939369</ele>
        <time>2020-10-09T12:50:21.000Z</time>
      </trkpt>
      <trkpt lat="43.57753" lon="3.70155">
        <ele>126.7239959715</ele>
        <time>2020-10-09T12:50:22.000Z</time>
      </trkpt>
      <trkpt lat="43.57755" lon="3.70152">
        <ele>126.82698254929</ele>
        <time>2020-10-09T12:50:23.000Z</time>
      </trkpt>
      <trkpt lat="43.57756" lon="3.70149">
        <ele>126.9299691271</ele>
        <time>2020-10-09T12:50:24.000Z</time>
      </trkpt>
      <trkpt lat="43.57758" lon="3.70146">
        <ele>127</ele>
        <time>2020-10-09T12:50:25.000Z</time>
      </trkpt>
      <trkpt lat="43.57759" lon="3.70142">
        <ele>127</ele>
        <time>2020-10-09T12:50:26.000Z</time>
      </trkpt>
      <trkpt lat="43.5776" lon="3.70139">
        <ele>127</ele>
        <time>2020-10-09T12:50:27.000Z</time>
      </trkpt>
      <trkpt lat="43.57761" lon="3.70136">
        <ele>127</ele>
        <time>2020-10-09T12:50:28.000Z</time>
      </trkpt>
      <trkpt lat="43.57762" lon="3.70132">
        <ele>127</ele>
        <time>2020-10-09T12:50:29.000Z</time>
      </trkpt>
      <trkpt lat="43.57762" lon="3.70129">
        <ele>127</ele>
        <time>2020-10-09T12:50:30.000Z</time>
      </trkpt>
      <trkpt lat="43.57763" lon="3.70125">
        <ele>127</ele>
        <time>2020-10-09T12:50:31.000Z</time>
      </trkpt>
      <trkpt lat="43.57764" lon="3.70122">
        <ele>127</ele>
        <time>2020-10-09T12:50:32.000Z</time>
      </trkpt>
      <trkpt lat="43.57764" lon="3.70118">
        <ele>127</ele>
        <time>2020-10-09T12:50:33.000Z</time>
      </trkpt>
      <trkpt lat="43.57765" lon="3.70114">
        <ele>127</ele>
        <time>2020-10-09T12:50:34.000Z</time>
      </trkpt>
      <trkpt lat="43.57766" lon="3.7011">
        <ele>126.95161290323</ele>
        <time>2020-10-09T12:50:35.000Z</time>
      </trkpt>
      <trkpt lat="43.57767" lon="3.70106">
        <ele>126.75</ele>
        <time>2020-10-09T12:50:36.000Z</time>
      </trkpt>
      <trkpt lat="43.57768" lon="3.70102">
        <ele>126.54838709677</ele>
        <time>2020-10-09T12:50:37.000Z</time>
      </trkpt>
      <trkpt lat="43.57769" lon="3.70097">
        <ele>126.34677419355</ele>
        <time>2020-10-09T12:50:38.000Z</time>
      </trkpt>
      <trkpt lat="43.57769" lon="3.70093">
        <ele>126.14516129032</ele>
        <time>2020-10-09T12:50:39.000Z</time>
      </trkpt>
      <trkpt lat="43.5777" lon="3.70088">
        <ele>125.9435483871</ele>
        <time>2020-10-09T12:50:40.000Z</time>
      </trkpt>
      <trkpt lat="43.57771" lon="3.70083">
        <ele>125.74193548387</ele>
        <time>2020-10-09T12:50:41.000Z</time>
      </trkpt>
      <trkpt lat="43.57772" lon="3.70078">
        <ele>125.54032258064</ele>
        <time>2020-10-09T12:50:42.000Z</time>
      </trkpt>
      <trkpt lat="43.57774" lon="3.70073">
        <ele>125.33870967742</ele>
        <time>2020-10-09T12:50:43.000Z</time>
      </trkpt>
      <trkpt lat="43.57777" lon="3.7007">
        <ele>125.13709677419</ele>
        <time>2020-10-09T12:50:44.000Z</time>
      </trkpt>
      <trkpt lat="43.57779" lon="3.70067">
        <ele>125</ele>
        <time>2020-10-09T12:50:45.000Z</time>
      </trkpt>
      <trkpt lat="43.57782" lon="3.70065">
        <ele>125</ele>
        <time>2020-10-09T12:50:46.000Z</time>
      </trkpt>
      <trkpt lat="43.57785" lon="3.70064">
        <ele>125</ele>
        <time>2020-10-09T12:50:47.000Z</time>
      </trkpt>
      <trkpt lat="43.57788" lon="3.70063">
        <ele>125</ele>
        <time>2020-10-09T12:50:48.000Z</time>
      </trkpt>
      <trkpt lat="43.57791" lon="3.70062">
        <ele>125</ele>
        <time>2020-10-09T12:50:49.000Z</time>
      </trkpt>
      <trkpt lat="43.57794" lon="3.70061">
        <ele>125</ele>
        <time>2020-10-09T12:50:50.000Z</time>
      </trkpt>
      <trkpt lat="43.57796" lon="3.70059">
        <ele>125</ele>
        <time>2020-10-09T12:50:51.000Z</time>
      </trkpt>
      <trkpt lat="43.57799" lon="3.70058">
        <ele>125</ele>
        <time>2020-10-09T12:50:52.000Z</time>
      </trkpt>
      <trkpt lat="43.57801" lon="3.70057">
        <ele>125</ele>
        <time>2020-10-09T12:50:53.000Z</time>
      </trkpt>
      <trkpt lat="43.57803" lon="3.70056">
        <ele>125</ele>
        <time>2020-10-09T12:50:54.000Z</time>
      </trkpt>
      <trkpt lat="43.57806" lon="3.70055">
        <ele>125.032</ele>
        <time>2020-10-09T12:50:55.000Z</time>
      </trkpt>
      <trkpt lat="43.57808" lon="3.70054">
        <ele>125.132</ele>
        <time>2020-10-09T12:50:56.000Z</time>
      </trkpt>
      <trkpt lat="43.5781" lon="3.70053">
        <ele>125.232</ele>
        <time>2020-10-09T12:50:57.000Z</time>
      </trkpt>
      <trkpt lat="43.57813" lon="3.70052">
        <ele>125.332</ele>
        <time>2020-10-09T12:50:58.000Z</time>
      </trkpt>
      <trkpt lat="43.57816" lon="3.70051">
        <ele>125.432</ele>
        <time>2020-10-09T12:50:59.000Z</time>
      </trkpt>
      <trkpt lat="43.57819" lon="3.70051">
        <ele>125.532</ele>
        <time>2020-10-09T12:51:00.000Z</time>
      </trkpt>
      <trkpt lat="43.57822" lon="3.7005">
        <ele>125.632</ele>
        <time>2020-10-09T12:51:01.000Z</time>
      </trkpt>
      <trkpt lat="43.57825" lon="3.70049">
        <ele>125.732</ele>
        <time>2020-10-09T12:51:02.000Z</time>
      </trkpt>
      <trkpt lat="43.57827" lon="3.70048">
        <ele>125.832</ele>
        <time>2020-10-09T12:51:03.000Z</time>
      </trkpt>
      <trkpt lat="43.5783" lon="3.70047">
        <ele>125.932</ele>
        <time>2020-10-09T12:51:04.000Z</time>
      </trkpt>
      <trkpt lat="43.57832" lon="3.70046">
        <ele>126</ele>
        <time>2020-10-09T12:51:05.000Z</time>
      </trkpt>
      <trkpt lat="43.57834" lon="3.70045">
        <ele>126</ele>
        <time>2020-10-09T12:51:06.000Z</time>
      </trkpt>
      <trkpt lat="43.57837" lon="3.70044">
        <ele>126</ele>
        <time>2020-10-09T12:51:07.000Z</time>
      </trkpt>
      <trkpt lat="43.57839" lon="3.70043">
        <ele>126</ele>
        <time>2020-10-09T12:51:08.000Z</time>
      </trkpt>
      <trkpt lat="43.57842" lon="3.70042">
        <ele>126</ele>
        <time>2020-10-09T12:51:09.000Z</time>
      </trkpt>
      <trkpt lat="43.57844" lon="3.70041">
        <ele>126</ele>
        <time>2020-10-09T12:51:10.000Z</time>
      </trkpt>
      <trkpt lat="43.57847" lon="3.7004">
        <ele>126</ele>
        <time>2020-10-09T12:51:11.000Z</time>
      </trkpt>
      <trkpt lat="43.57849" lon="3.70039">
        <ele>126</ele>
        <time>2020-10-09T12:51:12.000Z</time>
      </trkpt>
      <trkpt lat="43.57851" lon="3.70038">
        <ele>126</ele>
        <time>2020-10-09T12:51:13.000Z</time>
      </trkpt>
      <trkpt lat="43.57853" lon="3.70038">
        <ele>126</ele>
        <time>2020-10-09T12:51:14.000Z</time>
      </trkpt>
      <trkpt lat="43.57856" lon="3.70037">
        <ele>126.032</ele>
        <time>2020-10-09T12:51:15.000Z</time>
      </trkpt>
      <trkpt lat="43.57859" lon="3.70036">
        <ele>126.132</ele>
        <time>2020-10-09T12:51:16.000Z</time>
      </trkpt>
      <trkpt lat="43.57861" lon="3.70035">
        <ele>126.232</ele>
        <time>2020-10-09T12:51:17.000Z</time>
      </trkpt>
      <trkpt lat="43.57864" lon="3.70033">
        <ele>126.332</ele>
        <time>2020-10-09T12:51:18.000Z</time>
      </trkpt>
      <trkpt lat="43.57867" lon="3.70032">
        <ele>126.432</ele>
        <time>2020-10-09T12:51:19.000Z</time>
      </trkpt>
      <trkpt lat="43.5787" lon="3.70032">
        <ele>126.532</ele>
        <time>2020-10-09T12:51:20.000Z</time>
      </trkpt>
      <trkpt lat="43.57873" lon="3.70031">
        <ele>126.632</ele>
        <time>2020-10-09T12:51:21.000Z</time>
      </trkpt>
      <trkpt lat="43.57875" lon="3.7003">
        <ele>126.732</ele>
        <time>2020-10-09T12:51:22.000Z</time>
      </trkpt>
      <trkpt lat="43.57878" lon="3.7003">
        <ele>126.832</ele>
        <time>2020-10-09T12:51:23.000Z</time>
      </trkpt>
      <trkpt lat="43.5788" lon="3.70029">
        <ele>126.932</ele>
        <time>2020-10-09T12:51:24.000Z</time>
      </trkpt>
      <trkpt lat="43.57883" lon="3.70028">
        <ele>127</ele>
        <time>2020-10-09T12:51:25.000Z</time>
      </trkpt>
      <trkpt lat="43.57886" lon="3.70027">
        <ele>127</ele>
        <time>2020-10-09T12:51:26.000Z</time>
      </trkpt>
      <trkpt lat="43.57889" lon="3.70026">
        <ele>127</ele>
        <time>2020-10-09T12:51:27.000Z</time>
      </trkpt>
      <trkpt lat="43.57891" lon="3.70025">
        <ele>127</ele>
        <time>2020-10-09T12:51:28.000Z</time>
      </trkpt>
      <trkpt lat="43.57894" lon="3.70024">
        <ele>127</ele>
        <time>2020-10-09T12:51:29.000Z</time>
      </trkpt>
      <trkpt lat="43.57896" lon="3.70022">
        <ele>127</ele>
        <time>2020-10-09T12:51:30.000Z</time>
      </trkpt>
      <trkpt lat="43.57899" lon="3.70021">
        <ele>127</ele>
        <time>2020-10-09T12:51:31.000Z</time>
      </trkpt>
      <trkpt lat="43.57902" lon="3.7002">
        <ele>127</ele>
        <time>2020-10-09T12:51:32.000Z</time>
      </trkpt>
      <trkpt lat="43.57905" lon="3.70019">
        <ele>127</ele>
        <time>2020-10-09T12:51:33.000Z</time>
      </trkpt>
      <trkpt lat="43.57907" lon="3.70018">
        <ele>127</ele>
        <time>2020-10-09T12:51:34.000Z</time>
      </trkpt>
      <trkpt lat="43.5791" lon="3.70017">
        <ele>127</ele>
        <time>2020-10-09T12:51:35.000Z</time>
      </trkpt>
      <trkpt lat="43.57913" lon="3.70017">
        <ele>127</ele>
        <time>2020-10-09T12:51:36.000Z</time>
      </trkpt>
      <trkpt lat="43.57916" lon="3.70016">
        <ele>127</ele>
        <time>2020-10-09T12:51:37.000Z</time>
      </trkpt>
      <trkpt lat="43.57919" lon="3.70015">
        <ele>127</ele>
        <time>2020-10-09T12:51:38.000Z</time>
      </trkpt>
      <trkpt lat="43.57923" lon="3.70014">
        <ele>127</ele>
        <time>2020-10-09T12:51:39.000Z</time>
      </trkpt>
      <trkpt lat="43.57926" lon="3.70013">
        <ele>127</ele>
        <time>2020-10-09T12:51:40.000Z</time>
      </trkpt>
      <trkpt lat="43.57929" lon="3.70013">
        <ele>127</ele>
        <time>2020-10-09T12:51:41.000Z</time>
      </trkpt>
      <trkpt lat="43.57932" lon="3.70012">
        <ele>127</ele>
        <time>2020-10-09T12:51:42.000Z</time>
      </trkpt>
      <trkpt lat="43.57935" lon="3.70011">
        <ele>127</ele>
        <time>2020-10-09T12:51:43.000Z</time>
      </trkpt>
      <trkpt lat="43.57937" lon="3.70009">
        <ele>127</ele>
        <time>2020-10-09T12:51:44.000Z</time>
      </trkpt>
      <trkpt lat="43.5794" lon="3.70007">
        <ele>127</ele>
        <time>2020-10-09T12:51:45.000Z</time>
      </trkpt>
      <trkpt lat="43.57942" lon="3.70004">
        <ele>127</ele>
        <time>2020-10-09T12:51:46.000Z</time>
      </trkpt>
      <trkpt lat="43.57944" lon="3.70001">
        <ele>127</ele>
        <time>2020-10-09T12:51:47.000Z</time>
      </trkpt>
      <trkpt lat="43.57945" lon="3.69997">
        <ele>127</ele>
        <time>2020-10-09T12:51:48.000Z</time>
      </trkpt>
      <trkpt lat="43.57946" lon="3.69993">
        <ele>127</ele>
        <time>2020-10-09T12:51:49.000Z</time>
      </trkpt>
      <trkpt lat="43.57947" lon="3.69988">
        <ele>127</ele>
        <time>2020-10-09T12:51:50.000Z</time>
      </trkpt>
      <trkpt lat="43.57947" lon="3.69983">
        <ele>127</ele>
        <time>2020-10-09T12:51:51.000Z</time>
      </trkpt>
      <trkpt lat="43.57948" lon="3.69978">
        <ele>127</ele>
        <time>2020-10-09T12:51:52.000Z</time>
      </trkpt>
      <trkpt lat="43.57948" lon="3.69973">
        <ele>127</ele>
        <time>2020-10-09T12:51:53.000Z</time>
      </trkpt>
      <trkpt lat="43.57948" lon="3.69968">
        <ele>127</ele>
        <time>2020-10-09T12:51:54.000Z</time>
      </trkpt>
      <trkpt lat="43.57948" lon="3.69963">
        <ele>127</ele>
        <time>2020-10-09T12:51:55.000Z</time>
      </trkpt>
      <trkpt lat="43.57947" lon="3.69958">
        <ele>127</ele>
        <time>2020-10-09T12:51:56.000Z</time>
      </trkpt>
      <trkpt lat="43.57947" lon="3.69953">
        <ele>127</ele>
        <time>2020-10-09T12:51:57.000Z</time>
      </trkpt>
      <trkpt lat="43.57948" lon="3.69948">
        <ele>127</ele>
        <time>2020-10-09T12:51:58.000Z</time>
      </trkpt>
      <trkpt lat="43.57948" lon="3.69943">
        <ele>127</ele>
        <time>2020-10-09T12:51:59.000Z</time>
      </trkpt>
      <trkpt lat="43.57948" lon="3.69939">
        <ele>127</ele>
        <time>2020-10-09T12:52:00.000Z</time>
      </trkpt>
      <trkpt lat="43.57949" lon="3.69934">
        <ele>127</ele>
        <time>2020-10-09T12:52:01.000Z</time>
      </trkpt>
      <trkpt lat="43.57949" lon="3.69929">
        <ele>127</ele>
        <time>2020-10-09T12:52:02.000Z</time>
      </trkpt>
      <trkpt lat="43.57949" lon="3.69925">
        <ele>127</ele>
        <time>2020-10-09T12:52:03.000Z</time>
      </trkpt>
      <trkpt lat="43.57949" lon="3.6992">
        <ele>127</ele>
        <time>2020-10-09T12:52:04.000Z</time>
      </trkpt>
      <trkpt lat="43.5795" lon="3.69915">
        <ele>127</ele>
        <time>2020-10-09T12:52:05.000Z</time>
      </trkpt>
      <trkpt lat="43.57951" lon="3.69911">
        <ele>127</ele>
        <time>2020-10-09T12:52:06.000Z</time>
      </trkpt>
      <trkpt lat="43.57952" lon="3.69907">
        <ele>127</ele>
        <time>2020-10-09T12:52:07.000Z</time>
      </trkpt>
      <trkpt lat="43.57952" lon="3.69903">
        <ele>127</ele>
        <time>2020-10-09T12:52:08.000Z</time>
      </trkpt>
      <trkpt lat="43.57952" lon="3.69899">
        <ele>127</ele>
        <time>2020-10-09T12:52:09.000Z</time>
      </trkpt>
      <trkpt lat="43.57953" lon="3.69895">
        <ele>127</ele>
        <time>2020-10-09T12:52:10.000Z</time>
      </trkpt>
      <trkpt lat="43.57953" lon="3.69891">
        <ele>127</ele>
        <time>2020-10-09T12:52:11.000Z</time>
      </trkpt>
      <trkpt lat="43.57953" lon="3.69887">
        <ele>127</ele>
        <time>2020-10-09T12:52:12.000Z</time>
      </trkpt>
      <trkpt lat="43.57954" lon="3.69883">
        <ele>127</ele>
        <time>2020-10-09T12:52:13.000Z</time>
      </trkpt>
      <trkpt lat="43.57955" lon="3.69879">
        <ele>127</ele>
        <time>2020-10-09T12:52:14.000Z</time>
      </trkpt>
      <trkpt lat="43.57956" lon="3.69875">
        <ele>126.968</ele>
        <time>2020-10-09T12:52:15.000Z</time>
      </trkpt>
      <trkpt lat="43.57958" lon="3.6987">
        <ele>126.868</ele>
        <time>2020-10-09T12:52:16.000Z</time>
      </trkpt>
      <trkpt lat="43.57959" lon="3.69867">
        <ele>126.768</ele>
        <time>2020-10-09T12:52:17.000Z</time>
      </trkpt>
      <trkpt lat="43.57961" lon="3.69863">
        <ele>126.668</ele>
        <time>2020-10-09T12:52:18.000Z</time>
      </trkpt>
      <trkpt lat="43.57962" lon="3.69859">
        <ele>126.568</ele>
        <time>2020-10-09T12:52:19.000Z</time>
      </trkpt>
      <trkpt lat="43.57963" lon="3.69856">
        <ele>126.468</ele>
        <time>2020-10-09T12:52:20.000Z</time>
      </trkpt>
      <trkpt lat="43.57965" lon="3.69852">
        <ele>126.368</ele>
        <time>2020-10-09T12:52:21.000Z</time>
      </trkpt>
      <trkpt lat="43.57966" lon="3.6985">
        <ele>126.268</ele>
        <time>2020-10-09T12:52:22.000Z</time>
      </trkpt>
      <trkpt lat="43.57968" lon="3.69846">
        <ele>126.168</ele>
        <time>2020-10-09T12:52:23.000Z</time>
      </trkpt>
      <trkpt lat="43.5797" lon="3.69843">
        <ele>126.068</ele>
        <time>2020-10-09T12:52:24.000Z</time>
      </trkpt>
      <trkpt lat="43.57971" lon="3.6984">
        <ele>126</ele>
        <time>2020-10-09T12:52:25.000Z</time>
      </trkpt>
      <trkpt lat="43.57973" lon="3.69838">
        <ele>126</ele>
        <time>2020-10-09T12:52:26.000Z</time>
      </trkpt>
      <trkpt lat="43.57975" lon="3.69835">
        <ele>126</ele>
        <time>2020-10-09T12:52:27.000Z</time>
      </trkpt>
      <trkpt lat="43.57976" lon="3.69832">
        <ele>126</ele>
        <time>2020-10-09T12:52:28.000Z</time>
      </trkpt>
      <trkpt lat="43.57978" lon="3.69829">
        <ele>126</ele>
        <time>2020-10-09T12:52:29.000Z</time>
      </trkpt>
      <trkpt lat="43.5798" lon="3.69826">
        <ele>126</ele>
        <time>2020-10-09T12:52:30.000Z</time>
      </trkpt>
      <trkpt lat="43.57981" lon="3.69822">
        <ele>126</ele>
        <time>2020-10-09T12:52:31.000Z</time>
      </trkpt>
      <trkpt lat="43.57983" lon="3.69817">
        <ele>126</ele>
        <time>2020-10-09T12:52:32.000Z</time>
      </trkpt>
      <trkpt lat="43.57985" lon="3.69813">
        <ele>126</ele>
        <time>2020-10-09T12:52:33.000Z</time>
      </trkpt>
      <trkpt lat="43.57987" lon="3.69808">
        <ele>126</ele>
        <time>2020-10-09T12:52:34.000Z</time>
      </trkpt>
      <trkpt lat="43.57989" lon="3.69804">
        <ele>125.93774319066</ele>
        <time>2020-10-09T12:52:35.000Z</time>
      </trkpt>
      <trkpt lat="43.57992" lon="3.698">
        <ele>125.74319066148</ele>
        <time>2020-10-09T12:52:36.000Z</time>
      </trkpt>
      <trkpt lat="43.57995" lon="3.69797">
        <ele>125.5486381323</ele>
        <time>2020-10-09T12:52:37.000Z</time>
      </trkpt>
      <trkpt lat="43.57998" lon="3.69794">
        <ele>125.35408560311</ele>
        <time>2020-10-09T12:52:38.000Z</time>
      </trkpt>
      <trkpt lat="43.58002" lon="3.69791">
        <ele>125.15953307393</ele>
        <time>2020-10-09T12:52:39.000Z</time>
      </trkpt>
      <trkpt lat="43.58005" lon="3.69787">
        <ele>124.96498054475</ele>
        <time>2020-10-09T12:52:40.000Z</time>
      </trkpt>
      <trkpt lat="43.58009" lon="3.69783">
        <ele>124.77042801556</ele>
        <time>2020-10-09T12:52:41.000Z</time>
      </trkpt>
      <trkpt lat="43.58013" lon="3.69779">
        <ele>124.57587548638</ele>
        <time>2020-10-09T12:52:42.000Z</time>
      </trkpt>
      <trkpt lat="43.58017" lon="3.69774">
        <ele>124.3813229572</ele>
        <time>2020-10-09T12:52:43.000Z</time>
      </trkpt>
      <trkpt lat="43.5802" lon="3.69769">
        <ele>124.18677042802</ele>
        <time>2020-10-09T12:52:44.000Z</time>
      </trkpt>
      <trkpt lat="43.58024" lon="3.69764">
        <ele>123.99600399473</ele>
        <time>2020-10-09T12:52:45.000Z</time>
      </trkpt>
      <trkpt lat="43.58028" lon="3.69759">
        <ele>123.89610386289</ele>
        <time>2020-10-09T12:52:46.000Z</time>
      </trkpt>
      <trkpt lat="43.58031" lon="3.69754">
        <ele>123.79620373105</ele>
        <time>2020-10-09T12:52:47.000Z</time>
      </trkpt>
      <trkpt lat="43.58035" lon="3.69749">
        <ele>123.69630359922</ele>
        <time>2020-10-09T12:52:48.000Z</time>
      </trkpt>
      <trkpt lat="43.58038" lon="3.69745">
        <ele>123.59640346738</ele>
        <time>2020-10-09T12:52:49.000Z</time>
      </trkpt>
      <trkpt lat="43.58042" lon="3.69741">
        <ele>123.49650333555</ele>
        <time>2020-10-09T12:52:50.000Z</time>
      </trkpt>
      <trkpt lat="43.58047" lon="3.69737">
        <ele>123.39660320371</ele>
        <time>2020-10-09T12:52:51.000Z</time>
      </trkpt>
      <trkpt lat="43.58051" lon="3.69733">
        <ele>123.29670307187</ele>
        <time>2020-10-09T12:52:52.000Z</time>
      </trkpt>
      <trkpt lat="43.58055" lon="3.6973">
        <ele>123.19680294004</ele>
        <time>2020-10-09T12:52:53.000Z</time>
      </trkpt>
      <trkpt lat="43.58059" lon="3.69727">
        <ele>123.0969028082</ele>
        <time>2020-10-09T12:52:54.000Z</time>
      </trkpt>
      <trkpt lat="43.58063" lon="3.69725">
        <ele>122.99691007311</ele>
        <time>2020-10-09T12:52:55.000Z</time>
      </trkpt>
      <trkpt lat="43.58067" lon="3.69723">
        <ele>122.89392349531</ele>
        <time>2020-10-09T12:52:56.000Z</time>
      </trkpt>
      <trkpt lat="43.58071" lon="3.6972">
        <ele>122.79093691751</ele>
        <time>2020-10-09T12:52:57.000Z</time>
      </trkpt>
      <trkpt lat="43.58075" lon="3.69718">
        <ele>122.68795033971</ele>
        <time>2020-10-09T12:52:58.000Z</time>
      </trkpt>
      <trkpt lat="43.58079" lon="3.69716">
        <ele>122.58496376191</ele>
        <time>2020-10-09T12:52:59.000Z</time>
      </trkpt>
      <trkpt lat="43.58083" lon="3.69714">
        <ele>122.48197718411</ele>
        <time>2020-10-09T12:53:00.000Z</time>
      </trkpt>
      <trkpt lat="43.58087" lon="3.69713">
        <ele>122.37899060631</ele>
        <time>2020-10-09T12:53:01.000Z</time>
      </trkpt>
      <trkpt lat="43.5809" lon="3.69712">
        <ele>122.2760040285</ele>
        <time>2020-10-09T12:53:02.000Z</time>
      </trkpt>
      <trkpt lat="43.58094" lon="3.6971">
        <ele>122.17301745071</ele>
        <time>2020-10-09T12:53:03.000Z</time>
      </trkpt>
      <trkpt lat="43.58097" lon="3.69709">
        <ele>122.0700308729</ele>
        <time>2020-10-09T12:53:04.000Z</time>
      </trkpt>
      <trkpt lat="43.58101" lon="3.69706">
        <ele>121.968</ele>
        <time>2020-10-09T12:53:05.000Z</time>
      </trkpt>
      <trkpt lat="43.58105" lon="3.69704">
        <ele>121.868</ele>
        <time>2020-10-09T12:53:06.000Z</time>
      </trkpt>
      <trkpt lat="43.58109" lon="3.69701">
        <ele>121.768</ele>
        <time>2020-10-09T12:53:07.000Z</time>
      </trkpt>
      <trkpt lat="43.58113" lon="3.69698">
        <ele>121.668</ele>
        <time>2020-10-09T12:53:08.000Z</time>
      </trkpt>
      <trkpt lat="43.58117" lon="3.69694">
        <ele>121.568</ele>
        <time>2020-10-09T12:53:09.000Z</time>
      </trkpt>
      <trkpt lat="43.58121" lon="3.6969">
        <ele>121.468</ele>
        <time>2020-10-09T12:53:10.000Z</time>
      </trkpt>
      <trkpt lat="43.58126" lon="3.69686">
        <ele>121.368</ele>
        <time>2020-10-09T12:53:11.000Z</time>
      </trkpt>
      <trkpt lat="43.5813" lon="3.69683">
        <ele>121.268</ele>
        <time>2020-10-09T12:53:12.000Z</time>
      </trkpt>
      <trkpt lat="43.58135" lon="3.69679">
        <ele>121.168</ele>
        <time>2020-10-09T12:53:13.000Z</time>
      </trkpt>
      <trkpt lat="43.5814" lon="3.69676">
        <ele>121.068</ele>
        <time>2020-10-09T12:53:14.000Z</time>
      </trkpt>
      <trkpt lat="43.58145" lon="3.69674">
        <ele>120.96887159533</ele>
        <time>2020-10-09T12:53:15.000Z</time>
      </trkpt>
      <trkpt lat="43.5815" lon="3.69672">
        <ele>120.87159533074</ele>
        <time>2020-10-09T12:53:16.000Z</time>
      </trkpt>
      <trkpt lat="43.58155" lon="3.6967">
        <ele>120.77431906615</ele>
        <time>2020-10-09T12:53:17.000Z</time>
      </trkpt>
      <trkpt lat="43.58159" lon="3.69669">
        <ele>120.67704280156</ele>
        <time>2020-10-09T12:53:18.000Z</time>
      </trkpt>
      <trkpt lat="43.58164" lon="3.69668">
        <ele>120.57976653696</ele>
        <time>2020-10-09T12:53:19.000Z</time>
      </trkpt>
      <trkpt lat="43.58169" lon="3.69667">
        <ele>120.48249027237</ele>
        <time>2020-10-09T12:53:20.000Z</time>
      </trkpt>
      <trkpt lat="43.58173" lon="3.69665">
        <ele>120.38521400778</ele>
        <time>2020-10-09T12:53:21.000Z</time>
      </trkpt>
      <trkpt lat="43.58178" lon="3.69663">
        <ele>120.28793774319</ele>
        <time>2020-10-09T12:53:22.000Z</time>
      </trkpt>
      <trkpt lat="43.58183" lon="3.6966">
        <ele>120.1906614786</ele>
        <time>2020-10-09T12:53:23.000Z</time>
      </trkpt>
      <trkpt lat="43.58188" lon="3.69656">
        <ele>120.09338521401</ele>
        <time>2020-10-09T12:53:24.000Z</time>
      </trkpt>
      <trkpt lat="43.58192" lon="3.69651">
        <ele>119.99588477366</ele>
        <time>2020-10-09T12:53:25.000Z</time>
      </trkpt>
      <trkpt lat="43.58197" lon="3.69645">
        <ele>119.89300411523</ele>
        <time>2020-10-09T12:53:26.000Z</time>
      </trkpt>
      <trkpt lat="43.58202" lon="3.69638">
        <ele>119.79012345679</ele>
        <time>2020-10-09T12:53:27.000Z</time>
      </trkpt>
      <trkpt lat="43.58206" lon="3.69631">
        <ele>119.68724279835</ele>
        <time>2020-10-09T12:53:28.000Z</time>
      </trkpt>
      <trkpt lat="43.58211" lon="3.69624">
        <ele>119.58436213992</ele>
        <time>2020-10-09T12:53:29.000Z</time>
      </trkpt>
      <trkpt lat="43.58216" lon="3.69617">
        <ele>119.48148148148</ele>
        <time>2020-10-09T12:53:30.000Z</time>
      </trkpt>
      <trkpt lat="43.5822" lon="3.6961">
        <ele>119.37860082305</ele>
        <time>2020-10-09T12:53:31.000Z</time>
      </trkpt>
      <trkpt lat="43.58225" lon="3.69603">
        <ele>119.27572016461</ele>
        <time>2020-10-09T12:53:32.000Z</time>
      </trkpt>
      <trkpt lat="43.58229" lon="3.69596">
        <ele>119.17283950617</ele>
        <time>2020-10-09T12:53:33.000Z</time>
      </trkpt>
      <trkpt lat="43.58233" lon="3.69589">
        <ele>119.06995884774</ele>
        <time>2020-10-09T12:53:34.000Z</time>
      </trkpt>
      <trkpt lat="43.58237" lon="3.69582">
        <ele>119.06324110672</ele>
        <time>2020-10-09T12:53:35.000Z</time>
      </trkpt>
      <trkpt lat="43.58241" lon="3.69575">
        <ele>119.26086956522</ele>
        <time>2020-10-09T12:53:36.000Z</time>
      </trkpt>
      <trkpt lat="43.58244" lon="3.69569">
        <ele>119.45849802371</ele>
        <time>2020-10-09T12:53:37.000Z</time>
      </trkpt>
      <trkpt lat="43.58248" lon="3.69563">
        <ele>119.65612648221</ele>
        <time>2020-10-09T12:53:38.000Z</time>
      </trkpt>
      <trkpt lat="43.58251" lon="3.69557">
        <ele>119.85375494071</ele>
        <time>2020-10-09T12:53:39.000Z</time>
      </trkpt>
      <trkpt lat="43.58254" lon="3.69551">
        <ele>120.05138339921</ele>
        <time>2020-10-09T12:53:40.000Z</time>
      </trkpt>
      <trkpt lat="43.58256" lon="3.69546">
        <ele>120.24901185771</ele>
        <time>2020-10-09T12:53:41.000Z</time>
      </trkpt>
      <trkpt lat="43.58259" lon="3.6954">
        <ele>120.44664031621</ele>
        <time>2020-10-09T12:53:42.000Z</time>
      </trkpt>
      <trkpt lat="43.58261" lon="3.69535">
        <ele>120.6442687747</ele>
        <time>2020-10-09T12:53:43.000Z</time>
      </trkpt>
      <trkpt lat="43.58264" lon="3.69529">
        <ele>120.8418972332</ele>
        <time>2020-10-09T12:53:44.000Z</time>
      </trkpt>
      <trkpt lat="43.58266" lon="3.69524">
        <ele>121.01966568957</ele>
        <time>2020-10-09T12:53:45.000Z</time>
      </trkpt>
      <trkpt lat="43.58269" lon="3.69519">
        <ele>121.11799413742</ele>
        <time>2020-10-09T12:53:46.000Z</time>
      </trkpt>
      <trkpt lat="43.58271" lon="3.69514">
        <ele>121.21632258527</ele>
        <time>2020-10-09T12:53:47.000Z</time>
      </trkpt>
      <trkpt lat="43.58274" lon="3.69509">
        <ele>121.31465103313</ele>
        <time>2020-10-09T12:53:48.000Z</time>
      </trkpt>
      <trkpt lat="43.58276" lon="3.69505">
        <ele>121.41297948098</ele>
        <time>2020-10-09T12:53:49.000Z</time>
      </trkpt>
      <trkpt lat="43.58279" lon="3.695">
        <ele>121.51130792883</ele>
        <time>2020-10-09T12:53:50.000Z</time>
      </trkpt>
      <trkpt lat="43.58281" lon="3.69496">
        <ele>121.60963637668</ele>
        <time>2020-10-09T12:53:51.000Z</time>
      </trkpt>
      <trkpt lat="43.58283" lon="3.69492">
        <ele>121.70796482453</ele>
        <time>2020-10-09T12:53:52.000Z</time>
      </trkpt>
      <trkpt lat="43.58286" lon="3.69488">
        <ele>121.80629327238</ele>
        <time>2020-10-09T12:53:53.000Z</time>
      </trkpt>
      <trkpt lat="43.58288" lon="3.69484">
        <ele>121.90462172023</ele>
        <time>2020-10-09T12:53:54.000Z</time>
      </trkpt>
      <trkpt lat="43.5829" lon="3.69481">
        <ele>122.00617985378</ele>
        <time>2020-10-09T12:53:55.000Z</time>
      </trkpt>
      <trkpt lat="43.58291" lon="3.69478">
        <ele>122.21215300938</ele>
        <time>2020-10-09T12:53:56.000Z</time>
      </trkpt>
      <trkpt lat="43.58293" lon="3.69474">
        <ele>122.41812616498</ele>
        <time>2020-10-09T12:53:57.000Z</time>
      </trkpt>
      <trkpt lat="43.58294" lon="3.6947">
        <ele>122.62409932059</ele>
        <time>2020-10-09T12:53:58.000Z</time>
      </trkpt>
      <trkpt lat="43.58295" lon="3.69467">
        <ele>122.83007247619</ele>
        <time>2020-10-09T12:53:59.000Z</time>
      </trkpt>
      <trkpt lat="43.58296" lon="3.69463">
        <ele>123.03604563179</ele>
        <time>2020-10-09T12:54:00.000Z</time>
      </trkpt>
      <trkpt lat="43.58296" lon="3.6946">
        <ele>123.24201878739</ele>
        <time>2020-10-09T12:54:01.000Z</time>
      </trkpt>
      <trkpt lat="43.58297" lon="3.69457">
        <ele>123.44799194299</ele>
        <time>2020-10-09T12:54:02.000Z</time>
      </trkpt>
      <trkpt lat="43.58298" lon="3.69453">
        <ele>123.65396509859</ele>
        <time>2020-10-09T12:54:03.000Z</time>
      </trkpt>
      <trkpt lat="43.58298" lon="3.69451">
        <ele>123.85993825419</ele>
        <time>2020-10-09T12:54:04.000Z</time>
      </trkpt>
      <trkpt lat="43.58299" lon="3.69448">
        <ele>124.06368161232</ele>
        <time>2020-10-09T12:54:05.000Z</time>
      </trkpt>
      <trkpt lat="43.58299" lon="3.69445">
        <ele>124.26268665081</ele>
        <time>2020-10-09T12:54:06.000Z</time>
      </trkpt>
      <trkpt lat="43.583" lon="3.69443">
        <ele>124.46169168929</ele>
        <time>2020-10-09T12:54:07.000Z</time>
      </trkpt>
      <trkpt lat="43.583" lon="3.6944">
        <ele>124.66069672778</ele>
        <time>2020-10-09T12:54:08.000Z</time>
      </trkpt>
      <trkpt lat="43.58301" lon="3.69437">
        <ele>124.85970176627</ele>
        <time>2020-10-09T12:54:09.000Z</time>
      </trkpt>
      <trkpt lat="43.58301" lon="3.69435">
        <ele>125.05870680476</ele>
        <time>2020-10-09T12:54:10.000Z</time>
      </trkpt>
      <trkpt lat="43.58302" lon="3.69433">
        <ele>125.25771184325</ele>
        <time>2020-10-09T12:54:11.000Z</time>
      </trkpt>
      <trkpt lat="43.58303" lon="3.6943">
        <ele>125.45671688174</ele>
        <time>2020-10-09T12:54:12.000Z</time>
      </trkpt>
      <trkpt lat="43.58303" lon="3.69428">
        <ele>125.65572192023</ele>
        <time>2020-10-09T12:54:13.000Z</time>
      </trkpt>
      <trkpt lat="43.58304" lon="3.69425">
        <ele>125.85472695872</ele>
        <time>2020-10-09T12:54:14.000Z</time>
      </trkpt>
      <trkpt lat="43.58304" lon="3.69423">
        <ele>126.05427198255</ele>
        <time>2020-10-09T12:54:15.000Z</time>
      </trkpt>
      <trkpt lat="43.58305" lon="3.6942">
        <ele>126.25527694303</ele>
        <time>2020-10-09T12:54:16.000Z</time>
      </trkpt>
      <trkpt lat="43.58306" lon="3.69418">
        <ele>126.45628190351</ele>
        <time>2020-10-09T12:54:17.000Z</time>
      </trkpt>
      <trkpt lat="43.58308" lon="3.69416">
        <ele>126.65728686399</ele>
        <time>2020-10-09T12:54:18.000Z</time>
      </trkpt>
      <trkpt lat="43.58308" lon="3.69413">
        <ele>126.85829182447</ele>
        <time>2020-10-09T12:54:19.000Z</time>
      </trkpt>
      <trkpt lat="43.58309" lon="3.69411">
        <ele>127.05929678495</ele>
        <time>2020-10-09T12:54:20.000Z</time>
      </trkpt>
      <trkpt lat="43.5831" lon="3.69409">
        <ele>127.26030174543</ele>
        <time>2020-10-09T12:54:21.000Z</time>
      </trkpt>
      <trkpt lat="43.58311" lon="3.69407">
        <ele>127.46130670591</ele>
        <time>2020-10-09T12:54:22.000Z</time>
      </trkpt>
      <trkpt lat="43.58312" lon="3.69404">
        <ele>127.66231166639</ele>
        <time>2020-10-09T12:54:23.000Z</time>
      </trkpt>
      <trkpt lat="43.58313" lon="3.69402">
        <ele>127.86331662687</ele>
        <time>2020-10-09T12:54:24.000Z</time>
      </trkpt>
      <trkpt lat="43.58314" lon="3.694">
        <ele>128.032</ele>
        <time>2020-10-09T12:54:25.000Z</time>
      </trkpt>
      <trkpt lat="43.58315" lon="3.69398">
        <ele>128.132</ele>
        <time>2020-10-09T12:54:26.000Z</time>
      </trkpt>
      <trkpt lat="43.58316" lon="3.69396">
        <ele>128.232</ele>
        <time>2020-10-09T12:54:27.000Z</time>
      </trkpt>
      <trkpt lat="43.58317" lon="3.69394">
        <ele>128.332</ele>
        <time>2020-10-09T12:54:28.000Z</time>
      </trkpt>
      <trkpt lat="43.5832" lon="3.6939">
        <ele>128.532</ele>
        <time>2020-10-09T12:54:30.000Z</time>
      </trkpt>
      <trkpt lat="43.58322" lon="3.69387">
        <ele>128.732</ele>
        <time>2020-10-09T12:54:32.000Z</time>
      </trkpt>
      <trkpt lat="43.58324" lon="3.69385">
        <ele>128.932</ele>
        <time>2020-10-09T12:54:34.000Z</time>
      </trkpt>
      <trkpt lat="43.58327" lon="3.69382">
        <ele>129.264</ele>
        <time>2020-10-09T12:54:36.000Z</time>
      </trkpt>
      <trkpt lat="43.5833" lon="3.6938">
        <ele>129.664</ele>
        <time>2020-10-09T12:54:38.000Z</time>
      </trkpt>
      <trkpt lat="43.58331" lon="3.69378">
        <ele>129.864</ele>
        <time>2020-10-09T12:54:39.000Z</time>
      </trkpt>
      <trkpt lat="43.58333" lon="3.69377">
        <ele>130.064</ele>
        <time>2020-10-09T12:54:40.000Z</time>
      </trkpt>
      <trkpt lat="43.58334" lon="3.69375">
        <ele>130.264</ele>
        <time>2020-10-09T12:54:41.000Z</time>
      </trkpt>
      <trkpt lat="43.58337" lon="3.69372">
        <ele>130.664</ele>
        <time>2020-10-09T12:54:43.000Z</time>
      </trkpt>
      <trkpt lat="43.5834" lon="3.69369">
        <ele>131.032</ele>
        <time>2020-10-09T12:54:45.000Z</time>
      </trkpt>
      <trkpt lat="43.58343" lon="3.69367">
        <ele>131.232</ele>
        <time>2020-10-09T12:54:47.000Z</time>
      </trkpt>
      <trkpt lat="43.58345" lon="3.69366">
        <ele>131.332</ele>
        <time>2020-10-09T12:54:48.000Z</time>
      </trkpt>
      <trkpt lat="43.58346" lon="3.69365">
        <ele>131.432</ele>
        <time>2020-10-09T12:54:49.000Z</time>
      </trkpt>
      <trkpt lat="43.58349" lon="3.69363">
        <ele>131.632</ele>
        <time>2020-10-09T12:54:51.000Z</time>
      </trkpt>
      <trkpt lat="43.58351" lon="3.69361">
        <ele>131.732</ele>
        <time>2020-10-09T12:54:52.000Z</time>
      </trkpt>
      <trkpt lat="43.58353" lon="3.6936">
        <ele>131.832</ele>
        <time>2020-10-09T12:54:53.000Z</time>
      </trkpt>
      <trkpt lat="43.58354" lon="3.69359">
        <ele>131.932</ele>
        <time>2020-10-09T12:54:54.000Z</time>
      </trkpt>
      <trkpt lat="43.58356" lon="3.69357">
        <ele>132.064</ele>
        <time>2020-10-09T12:54:55.000Z</time>
      </trkpt>
      <trkpt lat="43.58358" lon="3.69356">
        <ele>132.264</ele>
        <time>2020-10-09T12:54:56.000Z</time>
      </trkpt>
      <trkpt lat="43.58359" lon="3.69354">
        <ele>132.464</ele>
        <time>2020-10-09T12:54:57.000Z</time>
      </trkpt>
      <trkpt lat="43.58361" lon="3.69353">
        <ele>132.664</ele>
        <time>2020-10-09T12:54:58.000Z</time>
      </trkpt>
      <trkpt lat="43.58363" lon="3.69351">
        <ele>132.864</ele>
        <time>2020-10-09T12:54:59.000Z</time>
      </trkpt>
      <trkpt lat="43.58365" lon="3.6935">
        <ele>133.064</ele>
        <time>2020-10-09T12:55:00.000Z</time>
      </trkpt>
      <trkpt lat="43.58367" lon="3.69348">
        <ele>133.264</ele>
        <time>2020-10-09T12:55:01.000Z</time>
      </trkpt>
      <trkpt lat="43.58369" lon="3.69347">
        <ele>133.464</ele>
        <time>2020-10-09T12:55:02.000Z</time>
      </trkpt>
      <trkpt lat="43.58371" lon="3.69345">
        <ele>133.664</ele>
        <time>2020-10-09T12:55:03.000Z</time>
      </trkpt>
      <trkpt lat="43.58372" lon="3.69344">
        <ele>133.864</ele>
        <time>2020-10-09T12:55:04.000Z</time>
      </trkpt>
      <trkpt lat="43.58374" lon="3.69343">
        <ele>134</ele>
        <time>2020-10-09T12:55:05.000Z</time>
      </trkpt>
      <trkpt lat="43.58376" lon="3.69342">
        <ele>134</ele>
        <time>2020-10-09T12:55:06.000Z</time>
      </trkpt>
      <trkpt lat="43.58378" lon="3.69341">
        <ele>134</ele>
        <time>2020-10-09T12:55:07.000Z</time>
      </trkpt>
      <trkpt lat="43.5838" lon="3.6934">
        <ele>134</ele>
        <time>2020-10-09T12:55:08.000Z</time>
      </trkpt>
      <trkpt lat="43.58382" lon="3.69338">
        <ele>134</ele>
        <time>2020-10-09T12:55:09.000Z</time>
      </trkpt>
      <trkpt lat="43.58384" lon="3.69337">
        <ele>134</ele>
        <time>2020-10-09T12:55:10.000Z</time>
      </trkpt>
      <trkpt lat="43.58386" lon="3.69335">
        <ele>134</ele>
        <time>2020-10-09T12:55:11.000Z</time>
      </trkpt>
      <trkpt lat="43.58388" lon="3.69334">
        <ele>134</ele>
        <time>2020-10-09T12:55:12.000Z</time>
      </trkpt>
      <trkpt lat="43.5839" lon="3.69332">
        <ele>134</ele>
        <time>2020-10-09T12:55:13.000Z</time>
      </trkpt>
      <trkpt lat="43.58391" lon="3.69331">
        <ele>134</ele>
        <time>2020-10-09T12:55:14.000Z</time>
      </trkpt>
      <trkpt lat="43.58393" lon="3.6933">
        <ele>134</ele>
        <time>2020-10-09T12:55:15.000Z</time>
      </trkpt>
      <trkpt lat="43.58396" lon="3.69329">
        <ele>134</ele>
        <time>2020-10-09T12:55:17.000Z</time>
      </trkpt>
      <trkpt lat="43.58396" lon="3.6933">
        <ele>134</ele>
        <time>2020-10-09T12:55:22.000Z</time>
      </trkpt>
      <trkpt lat="43.58404" lon="3.69318">
        <ele>132.01022559658</ele>
        <time>2020-10-09T12:59:09.000Z</time>
      </trkpt>
      <trkpt lat="43.58407" lon="3.69315">
        <ele>132.11247501842</ele>
        <time>2020-10-09T12:59:10.000Z</time>
      </trkpt>
      <trkpt lat="43.58409" lon="3.69312">
        <ele>132.21472444026</ele>
        <time>2020-10-09T12:59:11.000Z</time>
      </trkpt>
      <trkpt lat="43.58412" lon="3.6931">
        <ele>132.3169738621</ele>
        <time>2020-10-09T12:59:12.000Z</time>
      </trkpt>
      <trkpt lat="43.58414" lon="3.69306">
        <ele>132.41922328394</ele>
        <time>2020-10-09T12:59:13.000Z</time>
      </trkpt>
      <trkpt lat="43.58416" lon="3.69303">
        <ele>132.52147270578</ele>
        <time>2020-10-09T12:59:14.000Z</time>
      </trkpt>
      <trkpt lat="43.58418" lon="3.69299">
        <ele>132.62372212763</ele>
        <time>2020-10-09T12:59:15.000Z</time>
      </trkpt>
      <trkpt lat="43.58419" lon="3.69295">
        <ele>132.72597154947</ele>
        <time>2020-10-09T12:59:16.000Z</time>
      </trkpt>
      <trkpt lat="43.58421" lon="3.69292">
        <ele>132.82822097131</ele>
        <time>2020-10-09T12:59:17.000Z</time>
      </trkpt>
      <trkpt lat="43.58424" lon="3.69289">
        <ele>132.93047039315</ele>
        <time>2020-10-09T12:59:18.000Z</time>
      </trkpt>
      <trkpt lat="43.58426" lon="3.69286">
        <ele>133.03109816322</ele>
        <time>2020-10-09T12:59:19.000Z</time>
      </trkpt>
      <trkpt lat="43.58428" lon="3.69283">
        <ele>133.12827992327</ele>
        <time>2020-10-09T12:59:20.000Z</time>
      </trkpt>
      <trkpt lat="43.58431" lon="3.69279">
        <ele>133.22546168333</ele>
        <time>2020-10-09T12:59:21.000Z</time>
      </trkpt>
      <trkpt lat="43.58433" lon="3.69277">
        <ele>133.32264344339</ele>
        <time>2020-10-09T12:59:22.000Z</time>
      </trkpt>
      <trkpt lat="43.58435" lon="3.69274">
        <ele>133.41982520344</ele>
        <time>2020-10-09T12:59:23.000Z</time>
      </trkpt>
      <trkpt lat="43.58437" lon="3.69271">
        <ele>133.5170069635</ele>
        <time>2020-10-09T12:59:24.000Z</time>
      </trkpt>
      <trkpt lat="43.5844" lon="3.69269">
        <ele>133.61418872356</ele>
        <time>2020-10-09T12:59:25.000Z</time>
      </trkpt>
      <trkpt lat="43.58442" lon="3.69266">
        <ele>133.71137048361</ele>
        <time>2020-10-09T12:59:26.000Z</time>
      </trkpt>
      <trkpt lat="43.58444" lon="3.69264">
        <ele>133.80855224367</ele>
        <time>2020-10-09T12:59:27.000Z</time>
      </trkpt>
      <trkpt lat="43.58446" lon="3.69261">
        <ele>133.90573400373</ele>
        <time>2020-10-09T12:59:28.000Z</time>
      </trkpt>
      <trkpt lat="43.58447" lon="3.69258">
        <ele>134.00308992689</ele>
        <time>2020-10-09T12:59:29.000Z</time>
      </trkpt>
      <trkpt lat="43.58449" lon="3.69254">
        <ele>134.10607650469</ele>
        <time>2020-10-09T12:59:30.000Z</time>
      </trkpt>
      <trkpt lat="43.5845" lon="3.69251">
        <ele>134.20906308249</ele>
        <time>2020-10-09T12:59:31.000Z</time>
      </trkpt>
      <trkpt lat="43.58451" lon="3.69247">
        <ele>134.31204966029</ele>
        <time>2020-10-09T12:59:32.000Z</time>
      </trkpt>
      <trkpt lat="43.58453" lon="3.69243">
        <ele>134.41503623809</ele>
        <time>2020-10-09T12:59:33.000Z</time>
      </trkpt>
      <trkpt lat="43.58454" lon="3.69239">
        <ele>134.51802281589</ele>
        <time>2020-10-09T12:59:34.000Z</time>
      </trkpt>
      <trkpt lat="43.58455" lon="3.69236">
        <ele>134.62100939369</ele>
        <time>2020-10-09T12:59:35.000Z</time>
      </trkpt>
      <trkpt lat="43.58456" lon="3.69232">
        <ele>134.72399597149</ele>
        <time>2020-10-09T12:59:36.000Z</time>
      </trkpt>
      <trkpt lat="43.58457" lon="3.69228">
        <ele>134.82698254929</ele>
        <time>2020-10-09T12:59:37.000Z</time>
      </trkpt>
      <trkpt lat="43.58458" lon="3.69224">
        <ele>134.9299691271</ele>
        <time>2020-10-09T12:59:38.000Z</time>
      </trkpt>
      <trkpt lat="43.58459" lon="3.6922">
        <ele>135.09458125097</ele>
        <time>2020-10-09T12:59:39.000Z</time>
      </trkpt>
      <trkpt lat="43.5846" lon="3.69216">
        <ele>135.39014766025</ele>
        <time>2020-10-09T12:59:40.000Z</time>
      </trkpt>
      <trkpt lat="43.58461" lon="3.69212">
        <ele>135.68571406953</ele>
        <time>2020-10-09T12:59:41.000Z</time>
      </trkpt>
      <trkpt lat="43.58461" lon="3.69208">
        <ele>135.98128047881</ele>
        <time>2020-10-09T12:59:42.000Z</time>
      </trkpt>
      <trkpt lat="43.58462" lon="3.69205">
        <ele>136.27684688809</ele>
        <time>2020-10-09T12:59:43.000Z</time>
      </trkpt>
      <trkpt lat="43.58463" lon="3.69202">
        <ele>136.57241329737</ele>
        <time>2020-10-09T12:59:44.000Z</time>
      </trkpt>
      <trkpt lat="43.58463" lon="3.692">
        <ele>136.86797970665</ele>
        <time>2020-10-09T12:59:45.000Z</time>
      </trkpt>
      <trkpt lat="43.58464" lon="3.69197">
        <ele>137.16354611593</ele>
        <time>2020-10-09T12:59:46.000Z</time>
      </trkpt>
      <trkpt lat="43.58465" lon="3.69194">
        <ele>137.45911252521</ele>
        <time>2020-10-09T12:59:47.000Z</time>
      </trkpt>
      <trkpt lat="43.58465" lon="3.69192">
        <ele>137.75467893449</ele>
        <time>2020-10-09T12:59:48.000Z</time>
      </trkpt>
      <trkpt lat="43.58466" lon="3.69189">
        <ele>138.01725856398</ele>
        <time>2020-10-09T12:59:49.000Z</time>
      </trkpt>
      <trkpt lat="43.58467" lon="3.69187">
        <ele>138.1187814396</ele>
        <time>2020-10-09T12:59:50.000Z</time>
      </trkpt>
      <trkpt lat="43.58468" lon="3.69185">
        <ele>138.22030431523</ele>
        <time>2020-10-09T12:59:51.000Z</time>
      </trkpt>
      <trkpt lat="43.58469" lon="3.6918">
        <ele>138.42335006647</ele>
        <time>2020-10-09T12:59:53.000Z</time>
      </trkpt>
      <trkpt lat="43.5847" lon="3.69178">
        <ele>138.52487294209</ele>
        <time>2020-10-09T12:59:54.000Z</time>
      </trkpt>
      <trkpt lat="43.58471" lon="3.69175">
        <ele>138.62639581771</ele>
        <time>2020-10-09T12:59:55.000Z</time>
      </trkpt>
      <trkpt lat="43.58472" lon="3.69171">
        <ele>138.82944156896</ele>
        <time>2020-10-09T12:59:57.000Z</time>
      </trkpt>
      <trkpt lat="43.58473" lon="3.69167">
        <ele>139.06262234841</ele>
        <time>2020-10-09T12:59:59.000Z</time>
      </trkpt>
      <trkpt lat="43.58475" lon="3.69164">
        <ele>139.454012026</ele>
        <time>2020-10-09T13:00:01.000Z</time>
      </trkpt>
      <trkpt lat="43.58476" lon="3.6916">
        <ele>139.84540170358</ele>
        <time>2020-10-09T13:00:03.000Z</time>
      </trkpt>
      <trkpt lat="43.58478" lon="3.69156">
        <ele>140.23679138116</ele>
        <time>2020-10-09T13:00:05.000Z</time>
      </trkpt>
      <trkpt lat="43.58479" lon="3.69152">
        <ele>140.62818105874</ele>
        <time>2020-10-09T13:00:07.000Z</time>
      </trkpt>
      <trkpt lat="43.58481" lon="3.69148">
        <ele>141.02045119316</ele>
        <time>2020-10-09T13:00:09.000Z</time>
      </trkpt>
      <trkpt lat="43.58481" lon="3.69145">
        <ele>141.22495003684</ele>
        <time>2020-10-09T13:00:10.000Z</time>
      </trkpt>
      <trkpt lat="43.58483" lon="3.69141">
        <ele>141.63394772421</ele>
        <time>2020-10-09T13:00:12.000Z</time>
      </trkpt>
      <trkpt lat="43.58484" lon="3.69137">
        <ele>142.04294541157</ele>
        <time>2020-10-09T13:00:14.000Z</time>
      </trkpt>
      <trkpt lat="43.58485" lon="3.69134">
        <ele>142.24744425525</ele>
        <time>2020-10-09T13:00:15.000Z</time>
      </trkpt>
      <trkpt lat="43.58486" lon="3.69132">
        <ele>142.45194309893</ele>
        <time>2020-10-09T13:00:16.000Z</time>
      </trkpt>
      <trkpt lat="43.58486" lon="3.6913">
        <ele>142.65644194262</ele>
        <time>2020-10-09T13:00:17.000Z</time>
      </trkpt>
      <trkpt lat="43.58487" lon="3.69127">
        <ele>142.8609407863</ele>
        <time>2020-10-09T13:00:18.000Z</time>
      </trkpt>
      <trkpt lat="43.58488" lon="3.69125">
        <ele>143.032</ele>
        <time>2020-10-09T13:00:19.000Z</time>
      </trkpt>
      <trkpt lat="43.58489" lon="3.69123">
        <ele>143.132</ele>
        <time>2020-10-09T13:00:20.000Z</time>
      </trkpt>
      <trkpt lat="43.5849" lon="3.6912">
        <ele>143.232</ele>
        <time>2020-10-09T13:00:21.000Z</time>
      </trkpt>
      <trkpt lat="43.58491" lon="3.69118">
        <ele>143.332</ele>
        <time>2020-10-09T13:00:22.000Z</time>
      </trkpt>
      <trkpt lat="43.58491" lon="3.69115">
        <ele>143.432</ele>
        <time>2020-10-09T13:00:23.000Z</time>
      </trkpt>
      <trkpt lat="43.58492" lon="3.69113">
        <ele>143.532</ele>
        <time>2020-10-09T13:00:24.000Z</time>
      </trkpt>
      <trkpt lat="43.58493" lon="3.6911">
        <ele>143.632</ele>
        <time>2020-10-09T13:00:25.000Z</time>
      </trkpt>
      <trkpt lat="43.58494" lon="3.69108">
        <ele>143.732</ele>
        <time>2020-10-09T13:00:26.000Z</time>
      </trkpt>
      <trkpt lat="43.58495" lon="3.69106">
        <ele>143.832</ele>
        <time>2020-10-09T13:00:27.000Z</time>
      </trkpt>
      <trkpt lat="43.58496" lon="3.69103">
        <ele>143.932</ele>
        <time>2020-10-09T13:00:28.000Z</time>
      </trkpt>
      <trkpt lat="43.58497" lon="3.69101">
        <ele>144.064</ele>
        <time>2020-10-09T13:00:29.000Z</time>
      </trkpt>
      <trkpt lat="43.58497" lon="3.69099">
        <ele>144.264</ele>
        <time>2020-10-09T13:00:30.000Z</time>
      </trkpt>
      <trkpt lat="43.58498" lon="3.69096">
        <ele>144.464</ele>
        <time>2020-10-09T13:00:31.000Z</time>
      </trkpt>
      <trkpt lat="43.58499" lon="3.69094">
        <ele>144.664</ele>
        <time>2020-10-09T13:00:32.000Z</time>
      </trkpt>
      <trkpt lat="43.585" lon="3.69092">
        <ele>144.864</ele>
        <time>2020-10-09T13:00:33.000Z</time>
      </trkpt>
      <trkpt lat="43.58501" lon="3.69089">
        <ele>145.064</ele>
        <time>2020-10-09T13:00:34.000Z</time>
      </trkpt>
      <trkpt lat="43.58503" lon="3.69088">
        <ele>145.264</ele>
        <time>2020-10-09T13:00:35.000Z</time>
      </trkpt>
      <trkpt lat="43.58504" lon="3.69086">
        <ele>145.464</ele>
        <time>2020-10-09T13:00:36.000Z</time>
      </trkpt>
      <trkpt lat="43.58506" lon="3.69084">
        <ele>145.664</ele>
        <time>2020-10-09T13:00:37.000Z</time>
      </trkpt>
      <trkpt lat="43.58507" lon="3.69081">
        <ele>145.864</ele>
        <time>2020-10-09T13:00:38.000Z</time>
      </trkpt>
      <trkpt lat="43.58509" lon="3.69079">
        <ele>146.032</ele>
        <time>2020-10-09T13:00:39.000Z</time>
      </trkpt>
      <trkpt lat="43.5851" lon="3.69076">
        <ele>146.132</ele>
        <time>2020-10-09T13:00:40.000Z</time>
      </trkpt>
      <trkpt lat="43.58512" lon="3.69074">
        <ele>146.232</ele>
        <time>2020-10-09T13:00:41.000Z</time>
      </trkpt>
      <trkpt lat="43.58514" lon="3.69073">
        <ele>146.332</ele>
        <time>2020-10-09T13:00:42.000Z</time>
      </trkpt>
      <trkpt lat="43.58516" lon="3.69071">
        <ele>146.432</ele>
        <time>2020-10-09T13:00:43.000Z</time>
      </trkpt>
      <trkpt lat="43.58518" lon="3.69069">
        <ele>146.532</ele>
        <time>2020-10-09T13:00:44.000Z</time>
      </trkpt>
      <trkpt lat="43.5852" lon="3.69068">
        <ele>146.632</ele>
        <time>2020-10-09T13:00:45.000Z</time>
      </trkpt>
      <trkpt lat="43.58522" lon="3.69066">
        <ele>146.732</ele>
        <time>2020-10-09T13:00:46.000Z</time>
      </trkpt>
      <trkpt lat="43.58523" lon="3.69064">
        <ele>146.832</ele>
        <time>2020-10-09T13:00:47.000Z</time>
      </trkpt>
      <trkpt lat="43.58525" lon="3.69063">
        <ele>146.932</ele>
        <time>2020-10-09T13:00:48.000Z</time>
      </trkpt>
      <trkpt lat="43.58527" lon="3.69061">
        <ele>147.064</ele>
        <time>2020-10-09T13:00:49.000Z</time>
      </trkpt>
      <trkpt lat="43.58528" lon="3.69059">
        <ele>147.264</ele>
        <time>2020-10-09T13:00:50.000Z</time>
      </trkpt>
      <trkpt lat="43.5853" lon="3.69057">
        <ele>147.464</ele>
        <time>2020-10-09T13:00:51.000Z</time>
      </trkpt>
      <trkpt lat="43.58532" lon="3.69055">
        <ele>147.664</ele>
        <time>2020-10-09T13:00:52.000Z</time>
      </trkpt>
      <trkpt lat="43.58534" lon="3.69054">
        <ele>147.864</ele>
        <time>2020-10-09T13:00:53.000Z</time>
      </trkpt>
      <trkpt lat="43.58535" lon="3.69052">
        <ele>148.064</ele>
        <time>2020-10-09T13:00:54.000Z</time>
      </trkpt>
      <trkpt lat="43.58537" lon="3.6905">
        <ele>148.264</ele>
        <time>2020-10-09T13:00:55.000Z</time>
      </trkpt>
      <trkpt lat="43.58539" lon="3.69049">
        <ele>148.464</ele>
        <time>2020-10-09T13:00:56.000Z</time>
      </trkpt>
      <trkpt lat="43.58541" lon="3.69048">
        <ele>148.664</ele>
        <time>2020-10-09T13:00:57.000Z</time>
      </trkpt>
      <trkpt lat="43.58544" lon="3.69047">
        <ele>148.864</ele>
        <time>2020-10-09T13:00:58.000Z</time>
      </trkpt>
      <trkpt lat="43.58546" lon="3.69045">
        <ele>149.032</ele>
        <time>2020-10-09T13:00:59.000Z</time>
      </trkpt>
      <trkpt lat="43.58548" lon="3.69044">
        <ele>149.132</ele>
        <time>2020-10-09T13:01:00.000Z</time>
      </trkpt>
      <trkpt lat="43.5855" lon="3.69042">
        <ele>149.232</ele>
        <time>2020-10-09T13:01:01.000Z</time>
      </trkpt>
      <trkpt lat="43.58552" lon="3.6904">
        <ele>149.332</ele>
        <time>2020-10-09T13:01:02.000Z</time>
      </trkpt>
      <trkpt lat="43.58554" lon="3.69038">
        <ele>149.432</ele>
        <time>2020-10-09T13:01:03.000Z</time>
      </trkpt>
      <trkpt lat="43.58556" lon="3.69036">
        <ele>149.532</ele>
        <time>2020-10-09T13:01:04.000Z</time>
      </trkpt>
      <trkpt lat="43.58558" lon="3.69034">
        <ele>149.632</ele>
        <time>2020-10-09T13:01:05.000Z</time>
      </trkpt>
      <trkpt lat="43.5856" lon="3.69033">
        <ele>149.732</ele>
        <time>2020-10-09T13:01:06.000Z</time>
      </trkpt>
      <trkpt lat="43.58562" lon="3.69031">
        <ele>149.832</ele>
        <time>2020-10-09T13:01:07.000Z</time>
      </trkpt>
      <trkpt lat="43.58564" lon="3.69029">
        <ele>149.932</ele>
        <time>2020-10-09T13:01:08.000Z</time>
      </trkpt>
      <trkpt lat="43.58566" lon="3.69028">
        <ele>150.032</ele>
        <time>2020-10-09T13:01:09.000Z</time>
      </trkpt>
      <trkpt lat="43.58568" lon="3.69026">
        <ele>150.132</ele>
        <time>2020-10-09T13:01:10.000Z</time>
      </trkpt>
      <trkpt lat="43.5857" lon="3.69025">
        <ele>150.232</ele>
        <time>2020-10-09T13:01:11.000Z</time>
      </trkpt>
      <trkpt lat="43.58571" lon="3.69023">
        <ele>150.332</ele>
        <time>2020-10-09T13:01:12.000Z</time>
      </trkpt>
      <trkpt lat="43.58573" lon="3.69022">
        <ele>150.432</ele>
        <time>2020-10-09T13:01:13.000Z</time>
      </trkpt>
      <trkpt lat="43.58575" lon="3.69021">
        <ele>150.532</ele>
        <time>2020-10-09T13:01:14.000Z</time>
      </trkpt>
      <trkpt lat="43.58577" lon="3.69019">
        <ele>150.632</ele>
        <time>2020-10-09T13:01:15.000Z</time>
      </trkpt>
      <trkpt lat="43.58579" lon="3.69018">
        <ele>150.732</ele>
        <time>2020-10-09T13:01:16.000Z</time>
      </trkpt>
      <trkpt lat="43.58581" lon="3.69017">
        <ele>150.832</ele>
        <time>2020-10-09T13:01:17.000Z</time>
      </trkpt>
      <trkpt lat="43.58583" lon="3.69015">
        <ele>150.932</ele>
        <time>2020-10-09T13:01:18.000Z</time>
      </trkpt>
      <trkpt lat="43.58586" lon="3.69014">
        <ele>151</ele>
        <time>2020-10-09T13:01:19.000Z</time>
      </trkpt>
      <trkpt lat="43.58588" lon="3.69012">
        <ele>151</ele>
        <time>2020-10-09T13:01:20.000Z</time>
      </trkpt>
      <trkpt lat="43.5859" lon="3.69011">
        <ele>151</ele>
        <time>2020-10-09T13:01:21.000Z</time>
      </trkpt>
      <trkpt lat="43.58592" lon="3.69009">
        <ele>151</ele>
        <time>2020-10-09T13:01:22.000Z</time>
      </trkpt>
      <trkpt lat="43.58595" lon="3.69008">
        <ele>151</ele>
        <time>2020-10-09T13:01:23.000Z</time>
      </trkpt>
      <trkpt lat="43.58597" lon="3.69006">
        <ele>151</ele>
        <time>2020-10-09T13:01:24.000Z</time>
      </trkpt>
      <trkpt lat="43.58599" lon="3.69004">
        <ele>151</ele>
        <time>2020-10-09T13:01:25.000Z</time>
      </trkpt>
      <trkpt lat="43.58601" lon="3.69002">
        <ele>151</ele>
        <time>2020-10-09T13:01:26.000Z</time>
      </trkpt>
      <trkpt lat="43.58604" lon="3.69">
        <ele>151</ele>
        <time>2020-10-09T13:01:27.000Z</time>
      </trkpt>
      <trkpt lat="43.58606" lon="3.68998">
        <ele>151</ele>
        <time>2020-10-09T13:01:28.000Z</time>
      </trkpt>
      <trkpt lat="43.58608" lon="3.68996">
        <ele>150.95727635024</ele>
        <time>2020-10-09T13:01:29.000Z</time>
      </trkpt>
      <trkpt lat="43.58609" lon="3.68995">
        <ele>150.82376494473</ele>
        <time>2020-10-09T13:01:30.000Z</time>
      </trkpt>
      <trkpt lat="43.58612" lon="3.68995">
        <ele>150.55674213372</ele>
        <time>2020-10-09T13:01:32.000Z</time>
      </trkpt>
      <trkpt lat="43.58612" lon="3.68995">
        <ele>150.0226965117</ele>
        <time>2020-10-09T13:01:36.000Z</time>
      </trkpt>
      <trkpt lat="43.5862" lon="3.68989">
        <ele>148.97954880684</ele>
        <time>2020-10-09T13:02:53.000Z</time>
      </trkpt>
      <trkpt lat="43.58622" lon="3.68987">
        <ele>148.77504996316</ele>
        <time>2020-10-09T13:02:54.000Z</time>
      </trkpt>
      <trkpt lat="43.58624" lon="3.68985">
        <ele>148.57055111948</ele>
        <time>2020-10-09T13:02:55.000Z</time>
      </trkpt>
      <trkpt lat="43.58627" lon="3.68984">
        <ele>148.36605227579</ele>
        <time>2020-10-09T13:02:56.000Z</time>
      </trkpt>
      <trkpt lat="43.5863" lon="3.68982">
        <ele>148.16155343211</ele>
        <time>2020-10-09T13:02:57.000Z</time>
      </trkpt>
      <trkpt lat="43.58632" lon="3.68981">
        <ele>147.95705458843</ele>
        <time>2020-10-09T13:02:58.000Z</time>
      </trkpt>
      <trkpt lat="43.58635" lon="3.68978">
        <ele>147.75255574475</ele>
        <time>2020-10-09T13:02:59.000Z</time>
      </trkpt>
      <trkpt lat="43.58638" lon="3.68976">
        <ele>147.54805690107</ele>
        <time>2020-10-09T13:03:00.000Z</time>
      </trkpt>
      <trkpt lat="43.58641" lon="3.68973">
        <ele>147.34355805738</ele>
        <time>2020-10-09T13:03:01.000Z</time>
      </trkpt>
      <trkpt lat="43.58644" lon="3.6897">
        <ele>147.1390592137</ele>
        <time>2020-10-09T13:03:02.000Z</time>
      </trkpt>
      <trkpt lat="43.58647" lon="3.68967">
        <ele>146.96887159533</ele>
        <time>2020-10-09T13:03:03.000Z</time>
      </trkpt>
      <trkpt lat="43.5865" lon="3.68964">
        <ele>146.87159533074</ele>
        <time>2020-10-09T13:03:04.000Z</time>
      </trkpt>
      <trkpt lat="43.58652" lon="3.6896">
        <ele>146.77431906615</ele>
        <time>2020-10-09T13:03:05.000Z</time>
      </trkpt>
      <trkpt lat="43.58655" lon="3.68955">
        <ele>146.67704280156</ele>
        <time>2020-10-09T13:03:06.000Z</time>
      </trkpt>
      <trkpt lat="43.58657" lon="3.68951">
        <ele>146.57976653696</ele>
        <time>2020-10-09T13:03:07.000Z</time>
      </trkpt>
      <trkpt lat="43.58659" lon="3.68946">
        <ele>146.48249027237</ele>
        <time>2020-10-09T13:03:08.000Z</time>
      </trkpt>
      <trkpt lat="43.58661" lon="3.6894">
        <ele>146.38521400778</ele>
        <time>2020-10-09T13:03:09.000Z</time>
      </trkpt>
      <trkpt lat="43.58663" lon="3.68935">
        <ele>146.28793774319</ele>
        <time>2020-10-09T13:03:10.000Z</time>
      </trkpt>
      <trkpt lat="43.58665" lon="3.68928">
        <ele>146.1906614786</ele>
        <time>2020-10-09T13:03:11.000Z</time>
      </trkpt>
      <trkpt lat="43.58666" lon="3.68922">
        <ele>146.09338521401</ele>
        <time>2020-10-09T13:03:12.000Z</time>
      </trkpt>
      <trkpt lat="43.58667" lon="3.68915">
        <ele>145.98765432099</ele>
        <time>2020-10-09T13:03:13.000Z</time>
      </trkpt>
      <trkpt lat="43.58667" lon="3.68908">
        <ele>145.67901234568</ele>
        <time>2020-10-09T13:03:14.000Z</time>
      </trkpt>
      <trkpt lat="43.58667" lon="3.68901">
        <ele>145.37037037037</ele>
        <time>2020-10-09T13:03:15.000Z</time>
      </trkpt>
      <trkpt lat="43.58667" lon="3.68894">
        <ele>145.06172839506</ele>
        <time>2020-10-09T13:03:16.000Z</time>
      </trkpt>
      <trkpt lat="43.58665" lon="3.68888">
        <ele>144.75308641975</ele>
        <time>2020-10-09T13:03:17.000Z</time>
      </trkpt>
      <trkpt lat="43.58662" lon="3.68883">
        <ele>144.44444444444</ele>
        <time>2020-10-09T13:03:18.000Z</time>
      </trkpt>
      <trkpt lat="43.58658" lon="3.68879">
        <ele>144.13580246914</ele>
        <time>2020-10-09T13:03:19.000Z</time>
      </trkpt>
      <trkpt lat="43.58654" lon="3.68877">
        <ele>143.82716049383</ele>
        <time>2020-10-09T13:03:20.000Z</time>
      </trkpt>
      <trkpt lat="43.58649" lon="3.68876">
        <ele>143.51851851852</ele>
        <time>2020-10-09T13:03:21.000Z</time>
      </trkpt>
      <trkpt lat="43.58644" lon="3.68875">
        <ele>143.20987654321</ele>
        <time>2020-10-09T13:03:22.000Z</time>
      </trkpt>
      <trkpt lat="43.58639" lon="3.68873">
        <ele>142.87339272059</ele>
        <time>2020-10-09T13:03:23.000Z</time>
      </trkpt>
      <trkpt lat="43.58634" lon="3.68871">
        <ele>142.47774497243</ele>
        <time>2020-10-09T13:03:24.000Z</time>
      </trkpt>
      <trkpt lat="43.58629" lon="3.68868">
        <ele>142.08209722426</ele>
        <time>2020-10-09T13:03:25.000Z</time>
      </trkpt>
      <trkpt lat="43.58625" lon="3.68862">
        <ele>141.6864494761</ele>
        <time>2020-10-09T13:03:26.000Z</time>
      </trkpt>
      <trkpt lat="43.58623" lon="3.68855">
        <ele>141.29080172794</ele>
        <time>2020-10-09T13:03:27.000Z</time>
      </trkpt>
      <trkpt lat="43.58622" lon="3.68846">
        <ele>140.89515397977</ele>
        <time>2020-10-09T13:03:28.000Z</time>
      </trkpt>
      <trkpt lat="43.58623" lon="3.68838">
        <ele>140.49950623161</ele>
        <time>2020-10-09T13:03:29.000Z</time>
      </trkpt>
      <trkpt lat="43.58624" lon="3.68829">
        <ele>140.10385848345</ele>
        <time>2020-10-09T13:03:30.000Z</time>
      </trkpt>
      <trkpt lat="43.58626" lon="3.68821">
        <ele>139.70821073528</ele>
        <time>2020-10-09T13:03:31.000Z</time>
      </trkpt>
      <trkpt lat="43.5863" lon="3.68813">
        <ele>139.31256298712</ele>
        <time>2020-10-09T13:03:32.000Z</time>
      </trkpt>
      <trkpt lat="43.58635" lon="3.68808">
        <ele>138.93630024228</ele>
        <time>2020-10-09T13:03:33.000Z</time>
      </trkpt>
      <trkpt lat="43.58642" lon="3.68805">
        <ele>138.63296344039</ele>
        <time>2020-10-09T13:03:34.000Z</time>
      </trkpt>
      <trkpt lat="43.58648" lon="3.68802">
        <ele>138.3296266385</ele>
        <time>2020-10-09T13:03:35.000Z</time>
      </trkpt>
      <trkpt lat="43.58654" lon="3.68798">
        <ele>138.02628983662</ele>
        <time>2020-10-09T13:03:36.000Z</time>
      </trkpt>
      <trkpt lat="43.58659" lon="3.68792">
        <ele>137.72295303473</ele>
        <time>2020-10-09T13:03:37.000Z</time>
      </trkpt>
      <trkpt lat="43.58663" lon="3.68786">
        <ele>137.41961623284</ele>
        <time>2020-10-09T13:03:38.000Z</time>
      </trkpt>
      <trkpt lat="43.58667" lon="3.68779">
        <ele>137.11627943095</ele>
        <time>2020-10-09T13:03:39.000Z</time>
      </trkpt>
      <trkpt lat="43.58669" lon="3.68771">
        <ele>136.81294262906</ele>
        <time>2020-10-09T13:03:40.000Z</time>
      </trkpt>
      <trkpt lat="43.5867" lon="3.68763">
        <ele>136.50960582717</ele>
        <time>2020-10-09T13:03:41.000Z</time>
      </trkpt>
      <trkpt lat="43.58671" lon="3.68755">
        <ele>136.20626902528</ele>
        <time>2020-10-09T13:03:42.000Z</time>
      </trkpt>
      <trkpt lat="43.58672" lon="3.68746">
        <ele>135.81377309369</ele>
        <time>2020-10-09T13:03:43.000Z</time>
      </trkpt>
      <trkpt lat="43.58674" lon="3.68737">
        <ele>135.23181401146</ele>
        <time>2020-10-09T13:03:44.000Z</time>
      </trkpt>
      <trkpt lat="43.58675" lon="3.68727">
        <ele>134.64985492924</ele>
        <time>2020-10-09T13:03:45.000Z</time>
      </trkpt>
      <trkpt lat="43.58677" lon="3.68717">
        <ele>134.06789584702</ele>
        <time>2020-10-09T13:03:46.000Z</time>
      </trkpt>
      <trkpt lat="43.58679" lon="3.68707">
        <ele>133.48593676479</ele>
        <time>2020-10-09T13:03:47.000Z</time>
      </trkpt>
      <trkpt lat="43.5868" lon="3.68697">
        <ele>132.90397768257</ele>
        <time>2020-10-09T13:03:48.000Z</time>
      </trkpt>
      <trkpt lat="43.5868" lon="3.68688">
        <ele>132.32201860034</ele>
        <time>2020-10-09T13:03:49.000Z</time>
      </trkpt>
      <trkpt lat="43.58679" lon="3.6868">
        <ele>131.74005951812</ele>
        <time>2020-10-09T13:03:50.000Z</time>
      </trkpt>
      <trkpt lat="43.58678" lon="3.68672">
        <ele>131.15810043589</ele>
        <time>2020-10-09T13:03:51.000Z</time>
      </trkpt>
      <trkpt lat="43.58675" lon="3.68663">
        <ele>130.57614135367</ele>
        <time>2020-10-09T13:03:52.000Z</time>
      </trkpt>
      <trkpt lat="43.58672" lon="3.68655">
        <ele>129.9979366763</ele>
        <time>2020-10-09T13:03:53.000Z</time>
      </trkpt>
      <trkpt lat="43.58668" lon="3.68646">
        <ele>129.79153825933</ele>
        <time>2020-10-09T13:03:54.000Z</time>
      </trkpt>
      <trkpt lat="43.58664" lon="3.68637">
        <ele>129.58513984236</ele>
        <time>2020-10-09T13:03:55.000Z</time>
      </trkpt>
      <trkpt lat="43.58662" lon="3.68627">
        <ele>129.37874142538</ele>
        <time>2020-10-09T13:03:56.000Z</time>
      </trkpt>
      <trkpt lat="43.58661" lon="3.68617">
        <ele>129.17234300841</ele>
        <time>2020-10-09T13:03:57.000Z</time>
      </trkpt>
      <trkpt lat="43.58663" lon="3.68608">
        <ele>128.96594459144</ele>
        <time>2020-10-09T13:03:58.000Z</time>
      </trkpt>
      <trkpt lat="43.58666" lon="3.68602">
        <ele>128.75954617446</ele>
        <time>2020-10-09T13:03:59.000Z</time>
      </trkpt>
      <trkpt lat="43.5867" lon="3.68598">
        <ele>128.55314775749</ele>
        <time>2020-10-09T13:04:00.000Z</time>
      </trkpt>
      <trkpt lat="43.58674" lon="3.68594">
        <ele>128.34674934052</ele>
        <time>2020-10-09T13:04:01.000Z</time>
      </trkpt>
      <trkpt lat="43.58678" lon="3.6859">
        <ele>128.14035092354</ele>
        <time>2020-10-09T13:04:02.000Z</time>
      </trkpt>
      <trkpt lat="43.58682" lon="3.68585">
        <ele>127.87301587302</ele>
        <time>2020-10-09T13:04:03.000Z</time>
      </trkpt>
      <trkpt lat="43.58687" lon="3.68581">
        <ele>127.47619047619</ele>
        <time>2020-10-09T13:04:04.000Z</time>
      </trkpt>
      <trkpt lat="43.58692" lon="3.68575">
        <ele>127.07936507937</ele>
        <time>2020-10-09T13:04:05.000Z</time>
      </trkpt>
      <trkpt lat="43.58696" lon="3.68568">
        <ele>126.68253968254</ele>
        <time>2020-10-09T13:04:06.000Z</time>
      </trkpt>
      <trkpt lat="43.58699" lon="3.6856">
        <ele>126.28571428571</ele>
        <time>2020-10-09T13:04:07.000Z</time>
      </trkpt>
      <trkpt lat="43.58702" lon="3.68551">
        <ele>125.88888888889</ele>
        <time>2020-10-09T13:04:08.000Z</time>
      </trkpt>
      <trkpt lat="43.58703" lon="3.68542">
        <ele>125.49206349206</ele>
        <time>2020-10-09T13:04:09.000Z</time>
      </trkpt>
      <trkpt lat="43.58701" lon="3.68532">
        <ele>125.09523809524</ele>
        <time>2020-10-09T13:04:10.000Z</time>
      </trkpt>
      <trkpt lat="43.58698" lon="3.68524">
        <ele>124.69841269841</ele>
        <time>2020-10-09T13:04:11.000Z</time>
      </trkpt>
      <trkpt lat="43.58695" lon="3.68516">
        <ele>124.30158730159</ele>
        <time>2020-10-09T13:04:12.000Z</time>
      </trkpt>
      <trkpt lat="43.58691" lon="3.68508">
        <ele>123.90322580645</ele>
        <time>2020-10-09T13:04:13.000Z</time>
      </trkpt>
      <trkpt lat="43.58686" lon="3.685">
        <ele>123.5</ele>
        <time>2020-10-09T13:04:14.000Z</time>
      </trkpt>
      <trkpt lat="43.58682" lon="3.68493">
        <ele>123.09677419355</ele>
        <time>2020-10-09T13:04:15.000Z</time>
      </trkpt>
      <trkpt lat="43.58678" lon="3.68487">
        <ele>122.6935483871</ele>
        <time>2020-10-09T13:04:16.000Z</time>
      </trkpt>
      <trkpt lat="43.58676" lon="3.68481">
        <ele>122.29032258064</ele>
        <time>2020-10-09T13:04:17.000Z</time>
      </trkpt>
      <trkpt lat="43.58676" lon="3.68474">
        <ele>121.88709677419</ele>
        <time>2020-10-09T13:04:18.000Z</time>
      </trkpt>
      <trkpt lat="43.58677" lon="3.68468">
        <ele>121.48387096774</ele>
        <time>2020-10-09T13:04:19.000Z</time>
      </trkpt>
      <trkpt lat="43.5868" lon="3.68463">
        <ele>121.08064516129</ele>
        <time>2020-10-09T13:04:20.000Z</time>
      </trkpt>
      <trkpt lat="43.58684" lon="3.68461">
        <ele>120.67741935484</ele>
        <time>2020-10-09T13:04:21.000Z</time>
      </trkpt>
      <trkpt lat="43.58689" lon="3.68463">
        <ele>120.27419354839</ele>
        <time>2020-10-09T13:04:22.000Z</time>
      </trkpt>
      <trkpt lat="43.58694" lon="3.68466">
        <ele>119.87596899225</ele>
        <time>2020-10-09T13:04:23.000Z</time>
      </trkpt>
      <trkpt lat="43.58699" lon="3.68469">
        <ele>119.48837209302</ele>
        <time>2020-10-09T13:04:24.000Z</time>
      </trkpt>
      <trkpt lat="43.58704" lon="3.68472">
        <ele>119.1007751938</ele>
        <time>2020-10-09T13:04:25.000Z</time>
      </trkpt>
      <trkpt lat="43.5871" lon="3.68474">
        <ele>118.71317829457</ele>
        <time>2020-10-09T13:04:26.000Z</time>
      </trkpt>
      <trkpt lat="43.58716" lon="3.68477">
        <ele>118.32558139535</ele>
        <time>2020-10-09T13:04:27.000Z</time>
      </trkpt>
      <trkpt lat="43.58722" lon="3.68478">
        <ele>117.93798449612</ele>
        <time>2020-10-09T13:04:28.000Z</time>
      </trkpt>
      <trkpt lat="43.58729" lon="3.68478">
        <ele>117.5503875969</ele>
        <time>2020-10-09T13:04:29.000Z</time>
      </trkpt>
      <trkpt lat="43.58736" lon="3.68478">
        <ele>117.16279069767</ele>
        <time>2020-10-09T13:04:30.000Z</time>
      </trkpt>
      <trkpt lat="43.58743" lon="3.68477">
        <ele>116.77519379845</ele>
        <time>2020-10-09T13:04:31.000Z</time>
      </trkpt>
      <trkpt lat="43.58749" lon="3.68475">
        <ele>116.38759689923</ele>
        <time>2020-10-09T13:04:32.000Z</time>
      </trkpt>
      <trkpt lat="43.58755" lon="3.6847">
        <ele>116</ele>
        <time>2020-10-09T13:04:33.000Z</time>
      </trkpt>
      <trkpt lat="43.5876" lon="3.68464">
        <ele>115.69008264463</ele>
        <time>2020-10-09T13:04:34.000Z</time>
      </trkpt>
      <trkpt lat="43.58765" lon="3.68457">
        <ele>115.38016528926</ele>
        <time>2020-10-09T13:04:35.000Z</time>
      </trkpt>
      <trkpt lat="43.58769" lon="3.68448">
        <ele>115.07024793388</ele>
        <time>2020-10-09T13:04:36.000Z</time>
      </trkpt>
      <trkpt lat="43.58773" lon="3.68439">
        <ele>114.76033057851</ele>
        <time>2020-10-09T13:04:37.000Z</time>
      </trkpt>
      <trkpt lat="43.58776" lon="3.68431">
        <ele>114.45041322314</ele>
        <time>2020-10-09T13:04:38.000Z</time>
      </trkpt>
      <trkpt lat="43.58779" lon="3.68423">
        <ele>114.14049586777</ele>
        <time>2020-10-09T13:04:39.000Z</time>
      </trkpt>
      <trkpt lat="43.58783" lon="3.68417">
        <ele>113.8305785124</ele>
        <time>2020-10-09T13:04:40.000Z</time>
      </trkpt>
      <trkpt lat="43.58786" lon="3.68412">
        <ele>113.52066115703</ele>
        <time>2020-10-09T13:04:41.000Z</time>
      </trkpt>
      <trkpt lat="43.5879" lon="3.68409">
        <ele>113.21074380165</ele>
        <time>2020-10-09T13:04:42.000Z</time>
      </trkpt>
      <trkpt lat="43.58793" lon="3.68409">
        <ele>112.936</ele>
        <time>2020-10-09T13:04:43.000Z</time>
      </trkpt>
      <trkpt lat="43.58794" lon="3.68412">
        <ele>112.736</ele>
        <time>2020-10-09T13:04:44.000Z</time>
      </trkpt>
      <trkpt lat="43.58795" lon="3.68414">
        <ele>112.536</ele>
        <time>2020-10-09T13:04:45.000Z</time>
      </trkpt>
      <trkpt lat="43.58794" lon="3.68418">
        <ele>111.336</ele>
        <time>2020-10-09T13:04:51.000Z</time>
      </trkpt>
      <trkpt lat="43.58793" lon="3.68421">
        <ele>111.136</ele>
        <time>2020-10-09T13:04:52.000Z</time>
      </trkpt>
      <trkpt lat="43.58792" lon="3.68424">
        <ele>111</ele>
        <time>2020-10-09T13:04:53.000Z</time>
      </trkpt>
      <trkpt lat="43.58791" lon="3.68427">
        <ele>111</ele>
        <time>2020-10-09T13:04:54.000Z</time>
      </trkpt>
      <trkpt lat="43.5879" lon="3.68432">
        <ele>111</ele>
        <time>2020-10-09T13:04:55.000Z</time>
      </trkpt>
      <trkpt lat="43.5879" lon="3.68437">
        <ele>111</ele>
        <time>2020-10-09T13:04:56.000Z</time>
      </trkpt>
      <trkpt lat="43.58789" lon="3.68443">
        <ele>111</ele>
        <time>2020-10-09T13:04:57.000Z</time>
      </trkpt>
      <trkpt lat="43.58789" lon="3.68448">
        <ele>111</ele>
        <time>2020-10-09T13:04:58.000Z</time>
      </trkpt>
      <trkpt lat="43.58789" lon="3.68454">
        <ele>111</ele>
        <time>2020-10-09T13:04:59.000Z</time>
      </trkpt>
      <trkpt lat="43.58789" lon="3.6846">
        <ele>111</ele>
        <time>2020-10-09T13:05:00.000Z</time>
      </trkpt>
      <trkpt lat="43.58789" lon="3.68466">
        <ele>111</ele>
        <time>2020-10-09T13:05:01.000Z</time>
      </trkpt>
      <trkpt lat="43.5879" lon="3.68471">
        <ele>111</ele>
        <time>2020-10-09T13:05:02.000Z</time>
      </trkpt>
      <trkpt lat="43.5879" lon="3.68476">
        <ele>110.96875</ele>
        <time>2020-10-09T13:05:03.000Z</time>
      </trkpt>
      <trkpt lat="43.5879" lon="3.68481">
        <ele>110.87109375</ele>
        <time>2020-10-09T13:05:04.000Z</time>
      </trkpt>
      <trkpt lat="43.5879" lon="3.68486">
        <ele>110.7734375</ele>
        <time>2020-10-09T13:05:05.000Z</time>
      </trkpt>
      <trkpt lat="43.5879" lon="3.68491">
        <ele>110.67578125</ele>
        <time>2020-10-09T13:05:06.000Z</time>
      </trkpt>
      <trkpt lat="43.5879" lon="3.68496">
        <ele>110.578125</ele>
        <time>2020-10-09T13:05:07.000Z</time>
      </trkpt>
      <trkpt lat="43.5879" lon="3.68501">
        <ele>110.48046875</ele>
        <time>2020-10-09T13:05:08.000Z</time>
      </trkpt>
      <trkpt lat="43.58789" lon="3.68506">
        <ele>110.3828125</ele>
        <time>2020-10-09T13:05:09.000Z</time>
      </trkpt>
      <trkpt lat="43.58789" lon="3.68511">
        <ele>110.28515625</ele>
        <time>2020-10-09T13:05:10.000Z</time>
      </trkpt>
      <trkpt lat="43.58789" lon="3.68515">
        <ele>110.1875</ele>
        <time>2020-10-09T13:05:11.000Z</time>
      </trkpt>
      <trkpt lat="43.58788" lon="3.68519">
        <ele>110.08984375</ele>
        <time>2020-10-09T13:05:12.000Z</time>
      </trkpt>
      <trkpt lat="43.58788" lon="3.68523">
        <ele>109.99180327869</ele>
        <time>2020-10-09T13:05:13.000Z</time>
      </trkpt>
      <trkpt lat="43.58788" lon="3.68526">
        <ele>109.88934426229</ele>
        <time>2020-10-09T13:05:14.000Z</time>
      </trkpt>
      <trkpt lat="43.58788" lon="3.6853">
        <ele>109.68442622951</ele>
        <time>2020-10-09T13:05:16.000Z</time>
      </trkpt>
      <trkpt lat="43.58785" lon="3.6853">
        <ele>109.37704918033</ele>
        <time>2020-10-09T13:05:19.000Z</time>
      </trkpt>
      <trkpt lat="43.58784" lon="3.68528">
        <ele>109.17213114754</ele>
        <time>2020-10-09T13:05:21.000Z</time>
      </trkpt>
      <trkpt lat="43.58784" lon="3.68524">
        <ele>109</ele>
        <time>2020-10-09T13:05:23.000Z</time>
      </trkpt>
      <trkpt lat="43.58784" lon="3.68522">
        <ele>109</ele>
        <time>2020-10-09T13:05:24.000Z</time>
      </trkpt>
      <trkpt lat="43.58785" lon="3.68519">
        <ele>109</ele>
        <time>2020-10-09T13:05:25.000Z</time>
      </trkpt>
      <trkpt lat="43.58786" lon="3.68515">
        <ele>109</ele>
        <time>2020-10-09T13:05:26.000Z</time>
      </trkpt>
      <trkpt lat="43.58786" lon="3.68511">
        <ele>109</ele>
        <time>2020-10-09T13:05:27.000Z</time>
      </trkpt>
      <trkpt lat="43.58786" lon="3.68507">
        <ele>109</ele>
        <time>2020-10-09T13:05:28.000Z</time>
      </trkpt>
      <trkpt lat="43.58787" lon="3.68503">
        <ele>109</ele>
        <time>2020-10-09T13:05:29.000Z</time>
      </trkpt>
      <trkpt lat="43.58787" lon="3.68499">
        <ele>109</ele>
        <time>2020-10-09T13:05:30.000Z</time>
      </trkpt>
      <trkpt lat="43.58787" lon="3.68495">
        <ele>109</ele>
        <time>2020-10-09T13:05:31.000Z</time>
      </trkpt>
      <trkpt lat="43.58788" lon="3.68491">
        <ele>109</ele>
        <time>2020-10-09T13:05:32.000Z</time>
      </trkpt>
      <trkpt lat="43.58788" lon="3.68486">
        <ele>109</ele>
        <time>2020-10-09T13:05:33.000Z</time>
      </trkpt>
      <trkpt lat="43.58788" lon="3.68481">
        <ele>109</ele>
        <time>2020-10-09T13:05:34.000Z</time>
      </trkpt>
      <trkpt lat="43.58788" lon="3.68477">
        <ele>109</ele>
        <time>2020-10-09T13:05:35.000Z</time>
      </trkpt>
      <trkpt lat="43.58788" lon="3.68472">
        <ele>109</ele>
        <time>2020-10-09T13:05:36.000Z</time>
      </trkpt>
      <trkpt lat="43.58788" lon="3.68467">
        <ele>109</ele>
        <time>2020-10-09T13:05:37.000Z</time>
      </trkpt>
      <trkpt lat="43.58788" lon="3.68462">
        <ele>109</ele>
        <time>2020-10-09T13:05:38.000Z</time>
      </trkpt>
      <trkpt lat="43.58788" lon="3.68457">
        <ele>109</ele>
        <time>2020-10-09T13:05:39.000Z</time>
      </trkpt>
      <trkpt lat="43.58788" lon="3.68452">
        <ele>109</ele>
        <time>2020-10-09T13:05:40.000Z</time>
      </trkpt>
      <trkpt lat="43.58788" lon="3.68447">
        <ele>109</ele>
        <time>2020-10-09T13:05:41.000Z</time>
      </trkpt>
      <trkpt lat="43.58788" lon="3.68443">
        <ele>109</ele>
        <time>2020-10-09T13:05:42.000Z</time>
      </trkpt>
      <trkpt lat="43.58788" lon="3.68438">
        <ele>109</ele>
        <time>2020-10-09T13:05:43.000Z</time>
      </trkpt>
      <trkpt lat="43.58788" lon="3.68433">
        <ele>109</ele>
        <time>2020-10-09T13:05:44.000Z</time>
      </trkpt>
      <trkpt lat="43.58789" lon="3.68428">
        <ele>109</ele>
        <time>2020-10-09T13:05:45.000Z</time>
      </trkpt>
      <trkpt lat="43.5879" lon="3.68424">
        <ele>109</ele>
        <time>2020-10-09T13:05:46.000Z</time>
      </trkpt>
      <trkpt lat="43.58791" lon="3.6842">
        <ele>109</ele>
        <time>2020-10-09T13:05:47.000Z</time>
      </trkpt>
      <trkpt lat="43.58793" lon="3.68417">
        <ele>109</ele>
        <time>2020-10-09T13:05:48.000Z</time>
      </trkpt>
      <trkpt lat="43.58795" lon="3.68417">
        <ele>109</ele>
        <time>2020-10-09T13:05:49.000Z</time>
      </trkpt>
      <trkpt lat="43.58797" lon="3.68418">
        <ele>109</ele>
        <time>2020-10-09T13:05:50.000Z</time>
      </trkpt>
      <trkpt lat="43.58798" lon="3.68421">
        <ele>109</ele>
        <time>2020-10-09T13:05:51.000Z</time>
      </trkpt>
      <trkpt lat="43.58798" lon="3.68425">
        <ele>109</ele>
        <time>2020-10-09T13:05:52.000Z</time>
      </trkpt>
      <trkpt lat="43.58798" lon="3.68429">
        <ele>109.032</ele>
        <time>2020-10-09T13:05:53.000Z</time>
      </trkpt>
      <trkpt lat="43.58799" lon="3.68432">
        <ele>109.132</ele>
        <time>2020-10-09T13:05:54.000Z</time>
      </trkpt>
      <trkpt lat="43.58798" lon="3.68436">
        <ele>109.232</ele>
        <time>2020-10-09T13:05:55.000Z</time>
      </trkpt>
      <trkpt lat="43.58798" lon="3.68439">
        <ele>109.332</ele>
        <time>2020-10-09T13:05:56.000Z</time>
      </trkpt>
      <trkpt lat="43.58798" lon="3.68442">
        <ele>109.432</ele>
        <time>2020-10-09T13:05:57.000Z</time>
      </trkpt>
      <trkpt lat="43.58798" lon="3.68446">
        <ele>109.532</ele>
        <time>2020-10-09T13:05:58.000Z</time>
      </trkpt>
      <trkpt lat="43.58798" lon="3.68449">
        <ele>109.632</ele>
        <time>2020-10-09T13:05:59.000Z</time>
      </trkpt>
      <trkpt lat="43.58799" lon="3.68452">
        <ele>109.732</ele>
        <time>2020-10-09T13:06:00.000Z</time>
      </trkpt>
      <trkpt lat="43.58799" lon="3.68455">
        <ele>109.832</ele>
        <time>2020-10-09T13:06:01.000Z</time>
      </trkpt>
      <trkpt lat="43.588" lon="3.68459">
        <ele>109.932</ele>
        <time>2020-10-09T13:06:02.000Z</time>
      </trkpt>
      <trkpt lat="43.588" lon="3.68462">
        <ele>110.03165181985</ele>
        <time>2020-10-09T13:06:03.000Z</time>
      </trkpt>
      <trkpt lat="43.588" lon="3.68465">
        <ele>110.13056375689</ele>
        <time>2020-10-09T13:06:04.000Z</time>
      </trkpt>
      <trkpt lat="43.588" lon="3.68469">
        <ele>110.22947569394</ele>
        <time>2020-10-09T13:06:05.000Z</time>
      </trkpt>
      <trkpt lat="43.588" lon="3.68472">
        <ele>110.32838763098</ele>
        <time>2020-10-09T13:06:06.000Z</time>
      </trkpt>
      <trkpt lat="43.58801" lon="3.68475">
        <ele>110.42729956802</ele>
        <time>2020-10-09T13:06:07.000Z</time>
      </trkpt>
      <trkpt lat="43.58801" lon="3.68478">
        <ele>110.52621150506</ele>
        <time>2020-10-09T13:06:08.000Z</time>
      </trkpt>
      <trkpt lat="43.58801" lon="3.68481">
        <ele>110.6251234421</ele>
        <time>2020-10-09T13:06:09.000Z</time>
      </trkpt>
      <trkpt lat="43.58801" lon="3.68484">
        <ele>110.72403537914</ele>
        <time>2020-10-09T13:06:10.000Z</time>
      </trkpt>
      <trkpt lat="43.58801" lon="3.68488">
        <ele>110.82294731618</ele>
        <time>2020-10-09T13:06:11.000Z</time>
      </trkpt>
      <trkpt lat="43.58802" lon="3.68491">
        <ele>110.92185925322</ele>
        <time>2020-10-09T13:06:12.000Z</time>
      </trkpt>
      <trkpt lat="43.58802" lon="3.68494">
        <ele>111.06188514696</ele>
        <time>2020-10-09T13:06:13.000Z</time>
      </trkpt>
      <trkpt lat="43.58802" lon="3.68497">
        <ele>111.35658081357</ele>
        <time>2020-10-09T13:06:14.000Z</time>
      </trkpt>
      <trkpt lat="43.58802" lon="3.685">
        <ele>111.65127648017</ele>
        <time>2020-10-09T13:06:15.000Z</time>
      </trkpt>
      <trkpt lat="43.58802" lon="3.68504">
        <ele>111.94597214678</ele>
        <time>2020-10-09T13:06:16.000Z</time>
      </trkpt>
      <trkpt lat="43.58801" lon="3.68507">
        <ele>112.24066781339</ele>
        <time>2020-10-09T13:06:17.000Z</time>
      </trkpt>
      <trkpt lat="43.58801" lon="3.6851">
        <ele>112.53536347999</ele>
        <time>2020-10-09T13:06:18.000Z</time>
      </trkpt>
      <trkpt lat="43.58802" lon="3.68513">
        <ele>112.8300591466</ele>
        <time>2020-10-09T13:06:19.000Z</time>
      </trkpt>
      <trkpt lat="43.58802" lon="3.68516">
        <ele>113.12475481321</ele>
        <time>2020-10-09T13:06:20.000Z</time>
      </trkpt>
      <trkpt lat="43.58802" lon="3.6852">
        <ele>113.41945047981</ele>
        <time>2020-10-09T13:06:21.000Z</time>
      </trkpt>
      <trkpt lat="43.58802" lon="3.68523">
        <ele>113.71414614642</ele>
        <time>2020-10-09T13:06:22.000Z</time>
      </trkpt>
      <trkpt lat="43.58802" lon="3.68526">
        <ele>114.00308992689</ele>
        <time>2020-10-09T13:06:23.000Z</time>
      </trkpt>
      <trkpt lat="43.58802" lon="3.68529">
        <ele>114.10607650469</ele>
        <time>2020-10-09T13:06:24.000Z</time>
      </trkpt>
      <trkpt lat="43.58802" lon="3.68533">
        <ele>114.20906308249</ele>
        <time>2020-10-09T13:06:25.000Z</time>
      </trkpt>
      <trkpt lat="43.58802" lon="3.68536">
        <ele>114.31204966029</ele>
        <time>2020-10-09T13:06:26.000Z</time>
      </trkpt>
      <trkpt lat="43.58803" lon="3.68539">
        <ele>114.41503623809</ele>
        <time>2020-10-09T13:06:27.000Z</time>
      </trkpt>
      <trkpt lat="43.58803" lon="3.68542">
        <ele>114.51802281589</ele>
        <time>2020-10-09T13:06:28.000Z</time>
      </trkpt>
      <trkpt lat="43.58803" lon="3.68545">
        <ele>114.62100939369</ele>
        <time>2020-10-09T13:06:29.000Z</time>
      </trkpt>
      <trkpt lat="43.58803" lon="3.68548">
        <ele>114.7239959715</ele>
        <time>2020-10-09T13:06:30.000Z</time>
      </trkpt>
      <trkpt lat="43.58803" lon="3.68551">
        <ele>114.82698254929</ele>
        <time>2020-10-09T13:06:31.000Z</time>
      </trkpt>
      <trkpt lat="43.58803" lon="3.68554">
        <ele>114.9299691271</ele>
        <time>2020-10-09T13:06:32.000Z</time>
      </trkpt>
      <trkpt lat="43.58803" lon="3.68557">
        <ele>115.03143416491</ele>
        <time>2020-10-09T13:06:33.000Z</time>
      </trkpt>
      <trkpt lat="43.58803" lon="3.68561">
        <ele>115.12966593027</ele>
        <time>2020-10-09T13:06:34.000Z</time>
      </trkpt>
      <trkpt lat="43.58803" lon="3.68564">
        <ele>115.22789769562</ele>
        <time>2020-10-09T13:06:35.000Z</time>
      </trkpt>
      <trkpt lat="43.58804" lon="3.68568">
        <ele>115.32612946098</ele>
        <time>2020-10-09T13:06:36.000Z</time>
      </trkpt>
      <trkpt lat="43.58804" lon="3.68572">
        <ele>115.42436122633</ele>
        <time>2020-10-09T13:06:37.000Z</time>
      </trkpt>
      <trkpt lat="43.58804" lon="3.68575">
        <ele>115.52259299169</ele>
        <time>2020-10-09T13:06:38.000Z</time>
      </trkpt>
      <trkpt lat="43.58804" lon="3.68578">
        <ele>115.62082475704</ele>
        <time>2020-10-09T13:06:39.000Z</time>
      </trkpt>
      <trkpt lat="43.58804" lon="3.68581">
        <ele>115.7190565224</ele>
        <time>2020-10-09T13:06:40.000Z</time>
      </trkpt>
      <trkpt lat="43.58804" lon="3.68584">
        <ele>115.81728828776</ele>
        <time>2020-10-09T13:06:41.000Z</time>
      </trkpt>
      <trkpt lat="43.58804" lon="3.68587">
        <ele>115.91552005311</ele>
        <time>2020-10-09T13:06:42.000Z</time>
      </trkpt>
      <trkpt lat="43.58805" lon="3.6859">
        <ele>116.01424147881</ele>
        <time>2020-10-09T13:06:43.000Z</time>
      </trkpt>
      <trkpt lat="43.58806" lon="3.68593">
        <ele>116.11597097796</ele>
        <time>2020-10-09T13:06:44.000Z</time>
      </trkpt>
      <trkpt lat="43.58807" lon="3.68596">
        <ele>116.2177004771</ele>
        <time>2020-10-09T13:06:45.000Z</time>
      </trkpt>
      <trkpt lat="43.58808" lon="3.68599">
        <ele>116.31942997625</ele>
        <time>2020-10-09T13:06:46.000Z</time>
      </trkpt>
      <trkpt lat="43.58809" lon="3.68602">
        <ele>116.4211594754</ele>
        <time>2020-10-09T13:06:47.000Z</time>
      </trkpt>
      <trkpt lat="43.58811" lon="3.68604">
        <ele>116.52288897454</ele>
        <time>2020-10-09T13:06:48.000Z</time>
      </trkpt>
      <trkpt lat="43.58813" lon="3.68606">
        <ele>116.62461847369</ele>
        <time>2020-10-09T13:06:49.000Z</time>
      </trkpt>
      <trkpt lat="43.58815" lon="3.68608">
        <ele>116.72634797283</ele>
        <time>2020-10-09T13:06:50.000Z</time>
      </trkpt>
      <trkpt lat="43.58816" lon="3.6861">
        <ele>116.82807747198</ele>
        <time>2020-10-09T13:06:51.000Z</time>
      </trkpt>
      <trkpt lat="43.58818" lon="3.68612">
        <ele>116.92980697112</ele>
        <time>2020-10-09T13:06:52.000Z</time>
      </trkpt>
      <trkpt lat="43.58821" lon="3.68613">
        <ele>117.03103134141</ele>
        <time>2020-10-09T13:06:53.000Z</time>
      </trkpt>
      <trkpt lat="43.58824" lon="3.68614">
        <ele>117.13113140945</ele>
        <time>2020-10-09T13:06:54.000Z</time>
      </trkpt>
      <trkpt lat="43.58827" lon="3.68614">
        <ele>117.23123147748</ele>
        <time>2020-10-09T13:06:55.000Z</time>
      </trkpt>
      <trkpt lat="43.5883" lon="3.68613">
        <ele>117.33133154552</ele>
        <time>2020-10-09T13:06:56.000Z</time>
      </trkpt>
      <trkpt lat="43.58832" lon="3.68613">
        <ele>117.43143161356</ele>
        <time>2020-10-09T13:06:57.000Z</time>
      </trkpt>
      <trkpt lat="43.58835" lon="3.68612">
        <ele>117.53153168159</ele>
        <time>2020-10-09T13:06:58.000Z</time>
      </trkpt>
      <trkpt lat="43.58837" lon="3.68611">
        <ele>117.63163174963</ele>
        <time>2020-10-09T13:06:59.000Z</time>
      </trkpt>
      <trkpt lat="43.5884" lon="3.68611">
        <ele>117.73173181766</ele>
        <time>2020-10-09T13:07:00.000Z</time>
      </trkpt>
      <trkpt lat="43.58842" lon="3.6861">
        <ele>117.8318318857</ele>
        <time>2020-10-09T13:07:01.000Z</time>
      </trkpt>
      <trkpt lat="43.58845" lon="3.68609">
        <ele>117.93193195374</ele>
        <time>2020-10-09T13:07:02.000Z</time>
      </trkpt>
      <trkpt lat="43.58847" lon="3.68608">
        <ele>118.03184080616</ele>
        <time>2020-10-09T13:07:03.000Z</time>
      </trkpt>
      <trkpt lat="43.5885" lon="3.68608">
        <ele>118.1313433254</ele>
        <time>2020-10-09T13:07:04.000Z</time>
      </trkpt>
      <trkpt lat="43.58852" lon="3.68607">
        <ele>118.23084584465</ele>
        <time>2020-10-09T13:07:05.000Z</time>
      </trkpt>
      <trkpt lat="43.58854" lon="3.68606">
        <ele>118.33034836389</ele>
        <time>2020-10-09T13:07:06.000Z</time>
      </trkpt>
      <trkpt lat="43.58857" lon="3.68605">
        <ele>118.42985088314</ele>
        <time>2020-10-09T13:07:07.000Z</time>
      </trkpt>
      <trkpt lat="43.58859" lon="3.68605">
        <ele>118.52935340238</ele>
        <time>2020-10-09T13:07:08.000Z</time>
      </trkpt>
      <trkpt lat="43.58861" lon="3.68604">
        <ele>118.62885592163</ele>
        <time>2020-10-09T13:07:09.000Z</time>
      </trkpt>
      <trkpt lat="43.58864" lon="3.68603">
        <ele>118.72835844087</ele>
        <time>2020-10-09T13:07:10.000Z</time>
      </trkpt>
      <trkpt lat="43.58866" lon="3.68602">
        <ele>118.82786096012</ele>
        <time>2020-10-09T13:07:11.000Z</time>
      </trkpt>
      <trkpt lat="43.58868" lon="3.68602">
        <ele>118.92736347936</ele>
        <time>2020-10-09T13:07:12.000Z</time>
      </trkpt>
      <trkpt lat="43.58871" lon="3.68601">
        <ele>119.05427198255</ele>
        <time>2020-10-09T13:07:13.000Z</time>
      </trkpt>
      <trkpt lat="43.58873" lon="3.686">
        <ele>119.25527694303</ele>
        <time>2020-10-09T13:07:14.000Z</time>
      </trkpt>
      <trkpt lat="43.58876" lon="3.68599">
        <ele>119.45628190351</ele>
        <time>2020-10-09T13:07:15.000Z</time>
      </trkpt>
      <trkpt lat="43.58878" lon="3.68599">
        <ele>119.65728686399</ele>
        <time>2020-10-09T13:07:16.000Z</time>
      </trkpt>
      <trkpt lat="43.5888" lon="3.68598">
        <ele>119.85829182447</ele>
        <time>2020-10-09T13:07:17.000Z</time>
      </trkpt>
      <trkpt lat="43.58883" lon="3.68597">
        <ele>120.05929678495</ele>
        <time>2020-10-09T13:07:18.000Z</time>
      </trkpt>
      <trkpt lat="43.58885" lon="3.68596">
        <ele>120.26030174543</ele>
        <time>2020-10-09T13:07:19.000Z</time>
      </trkpt>
      <trkpt lat="43.58888" lon="3.68596">
        <ele>120.46130670591</ele>
        <time>2020-10-09T13:07:20.000Z</time>
      </trkpt>
      <trkpt lat="43.5889" lon="3.68595">
        <ele>120.66231166639</ele>
        <time>2020-10-09T13:07:21.000Z</time>
      </trkpt>
      <trkpt lat="43.58893" lon="3.68594">
        <ele>120.86331662687</ele>
        <time>2020-10-09T13:07:22.000Z</time>
      </trkpt>
      <trkpt lat="43.58895" lon="3.68594">
        <ele>121.032</ele>
        <time>2020-10-09T13:07:23.000Z</time>
      </trkpt>
      <trkpt lat="43.58897" lon="3.68593">
        <ele>121.132</ele>
        <time>2020-10-09T13:07:24.000Z</time>
      </trkpt>
      <trkpt lat="43.589" lon="3.68592">
        <ele>121.232</ele>
        <time>2020-10-09T13:07:25.000Z</time>
      </trkpt>
      <trkpt lat="43.58902" lon="3.6859">
        <ele>121.332</ele>
        <time>2020-10-09T13:07:26.000Z</time>
      </trkpt>
      <trkpt lat="43.58905" lon="3.68588">
        <ele>121.432</ele>
        <time>2020-10-09T13:07:27.000Z</time>
      </trkpt>
      <trkpt lat="43.58908" lon="3.68587">
        <ele>121.532</ele>
        <time>2020-10-09T13:07:28.000Z</time>
      </trkpt>
      <trkpt lat="43.58911" lon="3.68585">
        <ele>121.632</ele>
        <time>2020-10-09T13:07:29.000Z</time>
      </trkpt>
      <trkpt lat="43.58914" lon="3.68584">
        <ele>121.732</ele>
        <time>2020-10-09T13:07:30.000Z</time>
      </trkpt>
      <trkpt lat="43.58917" lon="3.68583">
        <ele>121.832</ele>
        <time>2020-10-09T13:07:31.000Z</time>
      </trkpt>
      <trkpt lat="43.5892" lon="3.68582">
        <ele>121.932</ele>
        <time>2020-10-09T13:07:32.000Z</time>
      </trkpt>
      <trkpt lat="43.58923" lon="3.6858">
        <ele>122.064</ele>
        <time>2020-10-09T13:07:33.000Z</time>
      </trkpt>
      <trkpt lat="43.58925" lon="3.68579">
        <ele>122.264</ele>
        <time>2020-10-09T13:07:34.000Z</time>
      </trkpt>
      <trkpt lat="43.58928" lon="3.68577">
        <ele>122.464</ele>
        <time>2020-10-09T13:07:35.000Z</time>
      </trkpt>
      <trkpt lat="43.5893" lon="3.68576">
        <ele>122.664</ele>
        <time>2020-10-09T13:07:36.000Z</time>
      </trkpt>
      <trkpt lat="43.58933" lon="3.68574">
        <ele>122.864</ele>
        <time>2020-10-09T13:07:37.000Z</time>
      </trkpt>
      <trkpt lat="43.58936" lon="3.68573">
        <ele>123.064</ele>
        <time>2020-10-09T13:07:38.000Z</time>
      </trkpt>
      <trkpt lat="43.58938" lon="3.68571">
        <ele>123.264</ele>
        <time>2020-10-09T13:07:39.000Z</time>
      </trkpt>
      <trkpt lat="43.58941" lon="3.6857">
        <ele>123.464</ele>
        <time>2020-10-09T13:07:40.000Z</time>
      </trkpt>
      <trkpt lat="43.58943" lon="3.68568">
        <ele>123.664</ele>
        <time>2020-10-09T13:07:41.000Z</time>
      </trkpt>
      <trkpt lat="43.58945" lon="3.68567">
        <ele>123.864</ele>
        <time>2020-10-09T13:07:42.000Z</time>
      </trkpt>
      <trkpt lat="43.58948" lon="3.68565">
        <ele>124.06213596094</ele>
        <time>2020-10-09T13:07:43.000Z</time>
      </trkpt>
      <trkpt lat="43.5895" lon="3.68564">
        <ele>124.25631083887</ele>
        <time>2020-10-09T13:07:44.000Z</time>
      </trkpt>
      <trkpt lat="43.58953" lon="3.68562">
        <ele>124.45048571681</ele>
        <time>2020-10-09T13:07:45.000Z</time>
      </trkpt>
      <trkpt lat="43.58956" lon="3.6856">
        <ele>124.64466059474</ele>
        <time>2020-10-09T13:07:46.000Z</time>
      </trkpt>
      <trkpt lat="43.58958" lon="3.68558">
        <ele>124.83883547267</ele>
        <time>2020-10-09T13:07:47.000Z</time>
      </trkpt>
      <trkpt lat="43.58961" lon="3.68556">
        <ele>125.03301035061</ele>
        <time>2020-10-09T13:07:48.000Z</time>
      </trkpt>
      <trkpt lat="43.58963" lon="3.68554">
        <ele>125.22718522854</ele>
        <time>2020-10-09T13:07:49.000Z</time>
      </trkpt>
      <trkpt lat="43.58966" lon="3.68553">
        <ele>125.42136010648</ele>
        <time>2020-10-09T13:07:50.000Z</time>
      </trkpt>
      <trkpt lat="43.58969" lon="3.68552">
        <ele>125.61553498441</ele>
        <time>2020-10-09T13:07:51.000Z</time>
      </trkpt>
      <trkpt lat="43.58971" lon="3.68551">
        <ele>125.80970986234</ele>
        <time>2020-10-09T13:07:52.000Z</time>
      </trkpt>
      <trkpt lat="43.58974" lon="3.68549">
        <ele>126.00412502821</ele>
        <time>2020-10-09T13:07:53.000Z</time>
      </trkpt>
      <trkpt lat="43.58976" lon="3.68549">
        <ele>126.21031045918</ele>
        <time>2020-10-09T13:07:54.000Z</time>
      </trkpt>
      <trkpt lat="43.58979" lon="3.68548">
        <ele>126.41649589015</ele>
        <time>2020-10-09T13:07:55.000Z</time>
      </trkpt>
      <trkpt lat="43.58981" lon="3.68547">
        <ele>126.62268132112</ele>
        <time>2020-10-09T13:07:56.000Z</time>
      </trkpt>
      <trkpt lat="43.58984" lon="3.68545">
        <ele>126.82886675209</ele>
        <time>2020-10-09T13:07:57.000Z</time>
      </trkpt>
      <trkpt lat="43.58986" lon="3.68544">
        <ele>127.03505218306</ele>
        <time>2020-10-09T13:07:58.000Z</time>
      </trkpt>
      <trkpt lat="43.58989" lon="3.68544">
        <ele>127.24123761403</ele>
        <time>2020-10-09T13:07:59.000Z</time>
      </trkpt>
      <trkpt lat="43.58991" lon="3.68543">
        <ele>127.447423045</ele>
        <time>2020-10-09T13:08:00.000Z</time>
      </trkpt>
      <trkpt lat="43.58994" lon="3.68543">
        <ele>127.65360847597</ele>
        <time>2020-10-09T13:08:01.000Z</time>
      </trkpt>
      <trkpt lat="43.58996" lon="3.68542">
        <ele>127.85979390694</ele>
        <time>2020-10-09T13:08:02.000Z</time>
      </trkpt>
      <trkpt lat="43.58999" lon="3.68542">
        <ele>128</ele>
        <time>2020-10-09T13:08:03.000Z</time>
      </trkpt>
      <trkpt lat="43.59002" lon="3.68542">
        <ele>128</ele>
        <time>2020-10-09T13:08:04.000Z</time>
      </trkpt>
      <trkpt lat="43.59004" lon="3.68542">
        <ele>128</ele>
        <time>2020-10-09T13:08:05.000Z</time>
      </trkpt>
      <trkpt lat="43.59007" lon="3.68542">
        <ele>128</ele>
        <time>2020-10-09T13:08:06.000Z</time>
      </trkpt>
      <trkpt lat="43.5901" lon="3.68542">
        <ele>128</ele>
        <time>2020-10-09T13:08:07.000Z</time>
      </trkpt>
      <trkpt lat="43.59012" lon="3.68542">
        <ele>128</ele>
        <time>2020-10-09T13:08:08.000Z</time>
      </trkpt>
      <trkpt lat="43.59015" lon="3.68543">
        <ele>128</ele>
        <time>2020-10-09T13:08:09.000Z</time>
      </trkpt>
      <trkpt lat="43.59018" lon="3.68543">
        <ele>128</ele>
        <time>2020-10-09T13:08:10.000Z</time>
      </trkpt>
      <trkpt lat="43.5902" lon="3.68544">
        <ele>128</ele>
        <time>2020-10-09T13:08:11.000Z</time>
      </trkpt>
      <trkpt lat="43.59023" lon="3.68544">
        <ele>128</ele>
        <time>2020-10-09T13:08:12.000Z</time>
      </trkpt>
      <trkpt lat="43.59025" lon="3.68545">
        <ele>128.0020633237</ele>
        <time>2020-10-09T13:08:13.000Z</time>
      </trkpt>
      <trkpt lat="43.59027" lon="3.68546">
        <ele>128.20846174067</ele>
        <time>2020-10-09T13:08:14.000Z</time>
      </trkpt>
      <trkpt lat="43.5903" lon="3.68546">
        <ele>128.41486015764</ele>
        <time>2020-10-09T13:08:15.000Z</time>
      </trkpt>
      <trkpt lat="43.59032" lon="3.68546">
        <ele>128.62125857462</ele>
        <time>2020-10-09T13:08:16.000Z</time>
      </trkpt>
      <trkpt lat="43.59035" lon="3.68546">
        <ele>128.82765699159</ele>
        <time>2020-10-09T13:08:17.000Z</time>
      </trkpt>
      <trkpt lat="43.59038" lon="3.68546">
        <ele>129.03405540856</ele>
        <time>2020-10-09T13:08:18.000Z</time>
      </trkpt>
      <trkpt lat="43.5904" lon="3.68546">
        <ele>129.24045382554</ele>
        <time>2020-10-09T13:08:19.000Z</time>
      </trkpt>
      <trkpt lat="43.59042" lon="3.68546">
        <ele>129.44685224251</ele>
        <time>2020-10-09T13:08:20.000Z</time>
      </trkpt>
      <trkpt lat="43.59044" lon="3.68547">
        <ele>129.65325065948</ele>
        <time>2020-10-09T13:08:21.000Z</time>
      </trkpt>
      <trkpt lat="43.59046" lon="3.68548">
        <ele>129.85964907646</ele>
        <time>2020-10-09T13:08:22.000Z</time>
      </trkpt>
      <trkpt lat="43.59048" lon="3.68549">
        <ele>130.032</ele>
        <time>2020-10-09T13:08:23.000Z</time>
      </trkpt>
      <trkpt lat="43.5905" lon="3.6855">
        <ele>130.132</ele>
        <time>2020-10-09T13:08:24.000Z</time>
      </trkpt>
      <trkpt lat="43.59052" lon="3.68552">
        <ele>130.232</ele>
        <time>2020-10-09T13:08:25.000Z</time>
      </trkpt>
      <trkpt lat="43.59054" lon="3.68553">
        <ele>130.332</ele>
        <time>2020-10-09T13:08:26.000Z</time>
      </trkpt>
      <trkpt lat="43.59056" lon="3.68555">
        <ele>130.432</ele>
        <time>2020-10-09T13:08:27.000Z</time>
      </trkpt>
      <trkpt lat="43.59058" lon="3.68556">
        <ele>130.532</ele>
        <time>2020-10-09T13:08:28.000Z</time>
      </trkpt>
      <trkpt lat="43.59061" lon="3.68558">
        <ele>130.632</ele>
        <time>2020-10-09T13:08:29.000Z</time>
      </trkpt>
      <trkpt lat="43.59063" lon="3.6856">
        <ele>130.732</ele>
        <time>2020-10-09T13:08:30.000Z</time>
      </trkpt>
      <trkpt lat="43.59065" lon="3.68561">
        <ele>130.832</ele>
        <time>2020-10-09T13:08:31.000Z</time>
      </trkpt>
      <trkpt lat="43.59067" lon="3.68564">
        <ele>130.932</ele>
        <time>2020-10-09T13:08:32.000Z</time>
      </trkpt>
      <trkpt lat="43.59068" lon="3.68566">
        <ele>131.032</ele>
        <time>2020-10-09T13:08:33.000Z</time>
      </trkpt>
      <trkpt lat="43.5907" lon="3.68568">
        <ele>131.132</ele>
        <time>2020-10-09T13:08:34.000Z</time>
      </trkpt>
      <trkpt lat="43.59072" lon="3.6857">
        <ele>131.232</ele>
        <time>2020-10-09T13:08:35.000Z</time>
      </trkpt>
      <trkpt lat="43.59074" lon="3.68572">
        <ele>131.332</ele>
        <time>2020-10-09T13:08:36.000Z</time>
      </trkpt>
      <trkpt lat="43.59076" lon="3.68574">
        <ele>131.432</ele>
        <time>2020-10-09T13:08:37.000Z</time>
      </trkpt>
      <trkpt lat="43.59077" lon="3.68576">
        <ele>131.532</ele>
        <time>2020-10-09T13:08:38.000Z</time>
      </trkpt>
      <trkpt lat="43.59079" lon="3.68578">
        <ele>131.632</ele>
        <time>2020-10-09T13:08:39.000Z</time>
      </trkpt>
      <trkpt lat="43.59081" lon="3.68581">
        <ele>131.732</ele>
        <time>2020-10-09T13:08:40.000Z</time>
      </trkpt>
      <trkpt lat="43.59083" lon="3.68583">
        <ele>131.832</ele>
        <time>2020-10-09T13:08:41.000Z</time>
      </trkpt>
      <trkpt lat="43.59085" lon="3.68586">
        <ele>131.932</ele>
        <time>2020-10-09T13:08:42.000Z</time>
      </trkpt>
      <trkpt lat="43.59088" lon="3.68589">
        <ele>132.06207563544</ele>
        <time>2020-10-09T13:08:43.000Z</time>
      </trkpt>
      <trkpt lat="43.5909" lon="3.68591">
        <ele>132.25606199618</ele>
        <time>2020-10-09T13:08:44.000Z</time>
      </trkpt>
      <trkpt lat="43.59092" lon="3.68594">
        <ele>132.45004835692</ele>
        <time>2020-10-09T13:08:45.000Z</time>
      </trkpt>
      <trkpt lat="43.59094" lon="3.68596">
        <ele>132.64403471766</ele>
        <time>2020-10-09T13:08:46.000Z</time>
      </trkpt>
      <trkpt lat="43.59097" lon="3.68598">
        <ele>132.8380210784</ele>
        <time>2020-10-09T13:08:47.000Z</time>
      </trkpt>
      <trkpt lat="43.59099" lon="3.686">
        <ele>133.03200743914</ele>
        <time>2020-10-09T13:08:48.000Z</time>
      </trkpt>
      <trkpt lat="43.591" lon="3.68602">
        <ele>133.22599379989</ele>
        <time>2020-10-09T13:08:49.000Z</time>
      </trkpt>
      <trkpt lat="43.59102" lon="3.68604">
        <ele>133.41998016063</ele>
        <time>2020-10-09T13:08:50.000Z</time>
      </trkpt>
      <trkpt lat="43.59104" lon="3.68606">
        <ele>133.61396652137</ele>
        <time>2020-10-09T13:08:51.000Z</time>
      </trkpt>
      <trkpt lat="43.59106" lon="3.68608">
        <ele>133.80795288211</ele>
        <time>2020-10-09T13:08:52.000Z</time>
      </trkpt>
      <trkpt lat="43.59108" lon="3.68609">
        <ele>134.00103166185</ele>
        <time>2020-10-09T13:08:53.000Z</time>
      </trkpt>
      <trkpt lat="43.5911" lon="3.68611">
        <ele>134.10423087033</ele>
        <time>2020-10-09T13:08:54.000Z</time>
      </trkpt>
      <trkpt lat="43.59111" lon="3.68613">
        <ele>134.20743007882</ele>
        <time>2020-10-09T13:08:55.000Z</time>
      </trkpt>
      <trkpt lat="43.59113" lon="3.68615">
        <ele>134.31062928731</ele>
        <time>2020-10-09T13:08:56.000Z</time>
      </trkpt>
      <trkpt lat="43.59115" lon="3.68616">
        <ele>134.4138284958</ele>
        <time>2020-10-09T13:08:57.000Z</time>
      </trkpt>
      <trkpt lat="43.59117" lon="3.68618">
        <ele>134.51702770428</ele>
        <time>2020-10-09T13:08:58.000Z</time>
      </trkpt>
      <trkpt lat="43.59119" lon="3.6862">
        <ele>134.62022691277</ele>
        <time>2020-10-09T13:08:59.000Z</time>
      </trkpt>
      <trkpt lat="43.5912" lon="3.68621">
        <ele>134.72342612125</ele>
        <time>2020-10-09T13:09:00.000Z</time>
      </trkpt>
      <trkpt lat="43.59122" lon="3.68622">
        <ele>134.82662532974</ele>
        <time>2020-10-09T13:09:01.000Z</time>
      </trkpt>
      <trkpt lat="43.59124" lon="3.68623">
        <ele>134.92982453823</ele>
        <time>2020-10-09T13:09:02.000Z</time>
      </trkpt>
      <trkpt lat="43.59127" lon="3.68625">
        <ele>135.064</ele>
        <time>2020-10-09T13:09:03.000Z</time>
      </trkpt>
      <trkpt lat="43.59129" lon="3.68627">
        <ele>135.264</ele>
        <time>2020-10-09T13:09:04.000Z</time>
      </trkpt>
      <trkpt lat="43.59131" lon="3.68628">
        <ele>135.464</ele>
        <time>2020-10-09T13:09:05.000Z</time>
      </trkpt>
      <trkpt lat="43.59134" lon="3.6863">
        <ele>135.664</ele>
        <time>2020-10-09T13:09:06.000Z</time>
      </trkpt>
      <trkpt lat="43.59137" lon="3.68632">
        <ele>135.864</ele>
        <time>2020-10-09T13:09:07.000Z</time>
      </trkpt>
      <trkpt lat="43.59139" lon="3.68633">
        <ele>136.064</ele>
        <time>2020-10-09T13:09:08.000Z</time>
      </trkpt>
      <trkpt lat="43.59141" lon="3.68634">
        <ele>136.264</ele>
        <time>2020-10-09T13:09:09.000Z</time>
      </trkpt>
      <trkpt lat="43.59143" lon="3.68635">
        <ele>136.464</ele>
        <time>2020-10-09T13:09:10.000Z</time>
      </trkpt>
      <trkpt lat="43.59145" lon="3.68637">
        <ele>136.664</ele>
        <time>2020-10-09T13:09:11.000Z</time>
      </trkpt>
      <trkpt lat="43.59147" lon="3.68638">
        <ele>136.864</ele>
        <time>2020-10-09T13:09:12.000Z</time>
      </trkpt>
      <trkpt lat="43.59149" lon="3.6864">
        <ele>137.096</ele>
        <time>2020-10-09T13:09:13.000Z</time>
      </trkpt>
      <trkpt lat="43.5915" lon="3.68641">
        <ele>137.396</ele>
        <time>2020-10-09T13:09:14.000Z</time>
      </trkpt>
      <trkpt lat="43.59152" lon="3.68643">
        <ele>137.696</ele>
        <time>2020-10-09T13:09:15.000Z</time>
      </trkpt>
      <trkpt lat="43.59153" lon="3.68645">
        <ele>137.996</ele>
        <time>2020-10-09T13:09:16.000Z</time>
      </trkpt>
      <trkpt lat="43.59154" lon="3.68647">
        <ele>138.296</ele>
        <time>2020-10-09T13:09:17.000Z</time>
      </trkpt>
      <trkpt lat="43.59155" lon="3.68651">
        <ele>138.896</ele>
        <time>2020-10-09T13:09:19.000Z</time>
      </trkpt>
      <trkpt lat="43.59155" lon="3.68656">
        <ele>139.496</ele>
        <time>2020-10-09T13:09:21.000Z</time>
      </trkpt>
      <trkpt lat="43.59154" lon="3.68661">
        <ele>140.03056350546</ele>
        <time>2020-10-09T13:09:23.000Z</time>
      </trkpt>
      <trkpt lat="43.59153" lon="3.68665">
        <ele>140.22158541461</ele>
        <time>2020-10-09T13:09:25.000Z</time>
      </trkpt>
      <trkpt lat="43.59153" lon="3.6867">
        <ele>140.41260732375</ele>
        <time>2020-10-09T13:09:27.000Z</time>
      </trkpt>
      <trkpt lat="43.59153" lon="3.68674">
        <ele>140.60362923289</ele>
        <time>2020-10-09T13:09:29.000Z</time>
      </trkpt>
      <trkpt lat="43.59153" lon="3.68677">
        <ele>140.69914018746</ele>
        <time>2020-10-09T13:09:30.000Z</time>
      </trkpt>
      <trkpt lat="43.59152" lon="3.6868">
        <ele>140.79465114204</ele>
        <time>2020-10-09T13:09:31.000Z</time>
      </trkpt>
      <trkpt lat="43.59153" lon="3.68683">
        <ele>140.89016209661</ele>
        <time>2020-10-09T13:09:32.000Z</time>
      </trkpt>
      <trkpt lat="43.59153" lon="3.68686">
        <ele>140.98567305118</ele>
        <time>2020-10-09T13:09:33.000Z</time>
      </trkpt>
      <trkpt lat="43.59154" lon="3.68689">
        <ele>141.1783834387</ele>
        <time>2020-10-09T13:09:34.000Z</time>
      </trkpt>
      <trkpt lat="43.59155" lon="3.68692">
        <ele>141.38824709784</ele>
        <time>2020-10-09T13:09:35.000Z</time>
      </trkpt>
      <trkpt lat="43.59156" lon="3.68694">
        <ele>141.59811075697</ele>
        <time>2020-10-09T13:09:36.000Z</time>
      </trkpt>
      <trkpt lat="43.59157" lon="3.68697">
        <ele>141.80797441611</ele>
        <time>2020-10-09T13:09:37.000Z</time>
      </trkpt>
      <trkpt lat="43.59158" lon="3.68699">
        <ele>142.01783807525</ele>
        <time>2020-10-09T13:09:38.000Z</time>
      </trkpt>
      <trkpt lat="43.59159" lon="3.68702">
        <ele>142.22770173438</ele>
        <time>2020-10-09T13:09:39.000Z</time>
      </trkpt>
      <trkpt lat="43.5916" lon="3.68705">
        <ele>142.43756539352</ele>
        <time>2020-10-09T13:09:40.000Z</time>
      </trkpt>
      <trkpt lat="43.59161" lon="3.68707">
        <ele>142.64742905265</ele>
        <time>2020-10-09T13:09:41.000Z</time>
      </trkpt>
      <trkpt lat="43.59162" lon="3.6871">
        <ele>142.85729271179</ele>
        <time>2020-10-09T13:09:42.000Z</time>
      </trkpt>
      <trkpt lat="43.59163" lon="3.68712">
        <ele>143.06336629648</ele>
        <time>2020-10-09T13:09:43.000Z</time>
      </trkpt>
      <trkpt lat="43.59164" lon="3.68714">
        <ele>143.26138597298</ele>
        <time>2020-10-09T13:09:44.000Z</time>
      </trkpt>
      <trkpt lat="43.59165" lon="3.68717">
        <ele>143.45940564949</ele>
        <time>2020-10-09T13:09:45.000Z</time>
      </trkpt>
      <trkpt lat="43.59166" lon="3.68719">
        <ele>143.65742532599</ele>
        <time>2020-10-09T13:09:46.000Z</time>
      </trkpt>
      <trkpt lat="43.59167" lon="3.68722">
        <ele>143.85544500249</ele>
        <time>2020-10-09T13:09:47.000Z</time>
      </trkpt>
      <trkpt lat="43.59169" lon="3.68725">
        <ele>144.05346467899</ele>
        <time>2020-10-09T13:09:48.000Z</time>
      </trkpt>
      <trkpt lat="43.5917" lon="3.68727">
        <ele>144.25148435549</ele>
        <time>2020-10-09T13:09:49.000Z</time>
      </trkpt>
      <trkpt lat="43.59172" lon="3.68729">
        <ele>144.449504032</ele>
        <time>2020-10-09T13:09:50.000Z</time>
      </trkpt>
      <trkpt lat="43.59173" lon="3.68731">
        <ele>144.6475237085</ele>
        <time>2020-10-09T13:09:51.000Z</time>
      </trkpt>
      <trkpt lat="43.59174" lon="3.68733">
        <ele>144.845543385</ele>
        <time>2020-10-09T13:09:52.000Z</time>
      </trkpt>
      <trkpt lat="43.59176" lon="3.68736">
        <ele>145.04364952381</ele>
        <time>2020-10-09T13:09:53.000Z</time>
      </trkpt>
      <trkpt lat="43.59177" lon="3.68738">
        <ele>145.24206222222</ele>
        <time>2020-10-09T13:09:54.000Z</time>
      </trkpt>
      <trkpt lat="43.59177" lon="3.6874">
        <ele>145.44047492064</ele>
        <time>2020-10-09T13:09:55.000Z</time>
      </trkpt>
      <trkpt lat="43.59179" lon="3.68742">
        <ele>145.63888761905</ele>
        <time>2020-10-09T13:09:56.000Z</time>
      </trkpt>
      <trkpt lat="43.5918" lon="3.68745">
        <ele>145.83730031746</ele>
        <time>2020-10-09T13:09:57.000Z</time>
      </trkpt>
      <trkpt lat="43.59181" lon="3.68747">
        <ele>146.03571301587</ele>
        <time>2020-10-09T13:09:58.000Z</time>
      </trkpt>
      <trkpt lat="43.59182" lon="3.68749">
        <ele>146.23412571429</ele>
        <time>2020-10-09T13:09:59.000Z</time>
      </trkpt>
      <trkpt lat="43.59184" lon="3.68751">
        <ele>146.4325384127</ele>
        <time>2020-10-09T13:10:00.000Z</time>
      </trkpt>
      <trkpt lat="43.59185" lon="3.68754">
        <ele>146.63095111111</ele>
        <time>2020-10-09T13:10:01.000Z</time>
      </trkpt>
      <trkpt lat="43.59186" lon="3.68756">
        <ele>146.82936380952</ele>
        <time>2020-10-09T13:10:02.000Z</time>
      </trkpt>
      <trkpt lat="43.59187" lon="3.68758">
        <ele>147</ele>
        <time>2020-10-09T13:10:03.000Z</time>
      </trkpt>
      <trkpt lat="43.59188" lon="3.68761">
        <ele>147</ele>
        <time>2020-10-09T13:10:05.000Z</time>
      </trkpt>
      <trkpt lat="43.59189" lon="3.68764">
        <ele>147</ele>
        <time>2020-10-09T13:10:06.000Z</time>
      </trkpt>
      <trkpt lat="43.5919" lon="3.68766">
        <ele>147</ele>
        <time>2020-10-09T13:10:07.000Z</time>
      </trkpt>
      <trkpt lat="43.59191" lon="3.68769">
        <ele>147</ele>
        <time>2020-10-09T13:10:08.000Z</time>
      </trkpt>
      <trkpt lat="43.59192" lon="3.68772">
        <ele>147</ele>
        <time>2020-10-09T13:10:09.000Z</time>
      </trkpt>
      <trkpt lat="43.59193" lon="3.68775">
        <ele>147</ele>
        <time>2020-10-09T13:10:10.000Z</time>
      </trkpt>
      <trkpt lat="43.59194" lon="3.68778">
        <ele>147</ele>
        <time>2020-10-09T13:10:11.000Z</time>
      </trkpt>
      <trkpt lat="43.59195" lon="3.68781">
        <ele>147</ele>
        <time>2020-10-09T13:10:12.000Z</time>
      </trkpt>
      <trkpt lat="43.59195" lon="3.68785">
        <ele>147.064</ele>
        <time>2020-10-09T13:10:13.000Z</time>
      </trkpt>
      <trkpt lat="43.59196" lon="3.68787">
        <ele>147.264</ele>
        <time>2020-10-09T13:10:14.000Z</time>
      </trkpt>
      <trkpt lat="43.59196" lon="3.6879">
        <ele>147.464</ele>
        <time>2020-10-09T13:10:15.000Z</time>
      </trkpt>
      <trkpt lat="43.59197" lon="3.68793">
        <ele>147.664</ele>
        <time>2020-10-09T13:10:16.000Z</time>
      </trkpt>
      <trkpt lat="43.59197" lon="3.68795">
        <ele>147.864</ele>
        <time>2020-10-09T13:10:17.000Z</time>
      </trkpt>
      <trkpt lat="43.59198" lon="3.68798">
        <ele>148.064</ele>
        <time>2020-10-09T13:10:18.000Z</time>
      </trkpt>
      <trkpt lat="43.59199" lon="3.688">
        <ele>148.264</ele>
        <time>2020-10-09T13:10:19.000Z</time>
      </trkpt>
      <trkpt lat="43.592" lon="3.68802">
        <ele>148.464</ele>
        <time>2020-10-09T13:10:20.000Z</time>
      </trkpt>
      <trkpt lat="43.59201" lon="3.68805">
        <ele>148.664</ele>
        <time>2020-10-09T13:10:21.000Z</time>
      </trkpt>
      <trkpt lat="43.59202" lon="3.68809">
        <ele>149.032</ele>
        <time>2020-10-09T13:10:23.000Z</time>
      </trkpt>
      <trkpt lat="43.59203" lon="3.68814">
        <ele>149.232</ele>
        <time>2020-10-09T13:10:25.000Z</time>
      </trkpt>
      <trkpt lat="43.59203" lon="3.68817">
        <ele>149.332</ele>
        <time>2020-10-09T13:10:26.000Z</time>
      </trkpt>
      <trkpt lat="43.59205" lon="3.68821">
        <ele>149.532</ele>
        <time>2020-10-09T13:10:28.000Z</time>
      </trkpt>
      <trkpt lat="43.59206" lon="3.68826">
        <ele>149.732</ele>
        <time>2020-10-09T13:10:30.000Z</time>
      </trkpt>
      <trkpt lat="43.59208" lon="3.68829">
        <ele>149.932</ele>
        <time>2020-10-09T13:10:32.000Z</time>
      </trkpt>
      <trkpt lat="43.5921" lon="3.68831">
        <ele>150.132</ele>
        <time>2020-10-09T13:10:34.000Z</time>
      </trkpt>
      <trkpt lat="43.59212" lon="3.68832">
        <ele>150.332</ele>
        <time>2020-10-09T13:10:36.000Z</time>
      </trkpt>
      <trkpt lat="43.59215" lon="3.68832">
        <ele>150.532</ele>
        <time>2020-10-09T13:10:38.000Z</time>
      </trkpt>
      <trkpt lat="43.59217" lon="3.68831">
        <ele>150.732</ele>
        <time>2020-10-09T13:10:40.000Z</time>
      </trkpt>
      <trkpt lat="43.59219" lon="3.6883">
        <ele>150.932</ele>
        <time>2020-10-09T13:10:42.000Z</time>
      </trkpt>
      <trkpt lat="43.59221" lon="3.68828">
        <ele>151</ele>
        <time>2020-10-09T13:10:44.000Z</time>
      </trkpt>
      <trkpt lat="43.59223" lon="3.68825">
        <ele>151</ele>
        <time>2020-10-09T13:10:46.000Z</time>
      </trkpt>
      <trkpt lat="43.59224" lon="3.68822">
        <ele>151</ele>
        <time>2020-10-09T13:10:48.000Z</time>
      </trkpt>
      <trkpt lat="43.59224" lon="3.68821">
        <ele>151</ele>
        <time>2020-10-09T13:10:53.000Z</time>
      </trkpt>
      <trkpt lat="43.59224" lon="3.68812">
        <ele>152.02044860234</ele>
        <time>2020-10-09T13:11:12.000Z</time>
      </trkpt>
      <trkpt lat="43.59224" lon="3.6881">
        <ele>152.22494771367</ele>
        <time>2020-10-09T13:11:13.000Z</time>
      </trkpt>
      <trkpt lat="43.59224" lon="3.68807">
        <ele>152.429446825</ele>
        <time>2020-10-09T13:11:14.000Z</time>
      </trkpt>
      <trkpt lat="43.59223" lon="3.68804">
        <ele>152.63394593633</ele>
        <time>2020-10-09T13:11:15.000Z</time>
      </trkpt>
      <trkpt lat="43.59223" lon="3.68801">
        <ele>152.83844504765</ele>
        <time>2020-10-09T13:11:16.000Z</time>
      </trkpt>
      <trkpt lat="43.59223" lon="3.68799">
        <ele>153.04294415898</ele>
        <time>2020-10-09T13:11:17.000Z</time>
      </trkpt>
      <trkpt lat="43.59223" lon="3.68796">
        <ele>153.24744327031</ele>
        <time>2020-10-09T13:11:18.000Z</time>
      </trkpt>
      <trkpt lat="43.59223" lon="3.68793">
        <ele>153.45194238164</ele>
        <time>2020-10-09T13:11:19.000Z</time>
      </trkpt>
      <trkpt lat="43.59223" lon="3.68789">
        <ele>153.8609406043</ele>
        <time>2020-10-09T13:11:21.000Z</time>
      </trkpt>
      <trkpt lat="43.59223" lon="3.68786">
        <ele>154.0609524181</ele>
        <time>2020-10-09T13:11:22.000Z</time>
      </trkpt>
      <trkpt lat="43.59223" lon="3.68783">
        <ele>154.25142872468</ele>
        <time>2020-10-09T13:11:23.000Z</time>
      </trkpt>
      <trkpt lat="43.59223" lon="3.68781">
        <ele>154.44190503126</ele>
        <time>2020-10-09T13:11:24.000Z</time>
      </trkpt>
      <trkpt lat="43.59222" lon="3.68778">
        <ele>154.63238133783</ele>
        <time>2020-10-09T13:11:25.000Z</time>
      </trkpt>
      <trkpt lat="43.59222" lon="3.68775">
        <ele>154.82285764441</ele>
        <time>2020-10-09T13:11:26.000Z</time>
      </trkpt>
      <trkpt lat="43.59222" lon="3.68772">
        <ele>155.01333395098</ele>
        <time>2020-10-09T13:11:27.000Z</time>
      </trkpt>
      <trkpt lat="43.59222" lon="3.6877">
        <ele>155.20381025756</ele>
        <time>2020-10-09T13:11:28.000Z</time>
      </trkpt>
      <trkpt lat="43.59222" lon="3.68767">
        <ele>155.39428656414</ele>
        <time>2020-10-09T13:11:29.000Z</time>
      </trkpt>
      <trkpt lat="43.59222" lon="3.68764">
        <ele>155.58476287071</ele>
        <time>2020-10-09T13:11:30.000Z</time>
      </trkpt>
      <trkpt lat="43.59222" lon="3.68761">
        <ele>155.77523917729</ele>
        <time>2020-10-09T13:11:31.000Z</time>
      </trkpt>
      <trkpt lat="43.59222" lon="3.68758">
        <ele>155.96571548387</ele>
        <time>2020-10-09T13:11:32.000Z</time>
      </trkpt>
      <trkpt lat="43.59222" lon="3.68755">
        <ele>156.08541733333</ele>
        <time>2020-10-09T13:11:33.000Z</time>
      </trkpt>
      <trkpt lat="43.59222" lon="3.68751">
        <ele>156.189584</ele>
        <time>2020-10-09T13:11:34.000Z</time>
      </trkpt>
      <trkpt lat="43.59223" lon="3.68748">
        <ele>156.29375066667</ele>
        <time>2020-10-09T13:11:35.000Z</time>
      </trkpt>
      <trkpt lat="43.59223" lon="3.68745">
        <ele>156.39791733333</ele>
        <time>2020-10-09T13:11:36.000Z</time>
      </trkpt>
      <trkpt lat="43.59223" lon="3.68741">
        <ele>156.502084</ele>
        <time>2020-10-09T13:11:37.000Z</time>
      </trkpt>
      <trkpt lat="43.59224" lon="3.68738">
        <ele>156.60625066667</ele>
        <time>2020-10-09T13:11:38.000Z</time>
      </trkpt>
      <trkpt lat="43.59224" lon="3.68734">
        <ele>156.71041733333</ele>
        <time>2020-10-09T13:11:39.000Z</time>
      </trkpt>
      <trkpt lat="43.59224" lon="3.68731">
        <ele>156.814584</ele>
        <time>2020-10-09T13:11:40.000Z</time>
      </trkpt>
      <trkpt lat="43.59224" lon="3.68727">
        <ele>156.91875066667</ele>
        <time>2020-10-09T13:11:41.000Z</time>
      </trkpt>
      <trkpt lat="43.59225" lon="3.68724">
        <ele>157.04408943064</ele>
        <time>2020-10-09T13:11:42.000Z</time>
      </trkpt>
      <trkpt lat="43.59226" lon="3.6872">
        <ele>157.24449010373</ele>
        <time>2020-10-09T13:11:43.000Z</time>
      </trkpt>
      <trkpt lat="43.59226" lon="3.68717">
        <ele>157.44489077682</ele>
        <time>2020-10-09T13:11:44.000Z</time>
      </trkpt>
      <trkpt lat="43.59227" lon="3.68713">
        <ele>157.64529144991</ele>
        <time>2020-10-09T13:11:45.000Z</time>
      </trkpt>
      <trkpt lat="43.59228" lon="3.6871">
        <ele>157.845692123</ele>
        <time>2020-10-09T13:11:46.000Z</time>
      </trkpt>
      <trkpt lat="43.59229" lon="3.68707">
        <ele>158.04609279609</ele>
        <time>2020-10-09T13:11:47.000Z</time>
      </trkpt>
      <trkpt lat="43.5923" lon="3.68704">
        <ele>158.24649346918</ele>
        <time>2020-10-09T13:11:48.000Z</time>
      </trkpt>
      <trkpt lat="43.5923" lon="3.68702">
        <ele>158.44689414227</ele>
        <time>2020-10-09T13:11:49.000Z</time>
      </trkpt>
      <trkpt lat="43.59231" lon="3.68699">
        <ele>158.64729481536</ele>
        <time>2020-10-09T13:11:50.000Z</time>
      </trkpt>
      <trkpt lat="43.59232" lon="3.68696">
        <ele>158.84769548845</ele>
        <time>2020-10-09T13:11:51.000Z</time>
      </trkpt>
      <trkpt lat="43.59234" lon="3.68693">
        <ele>159.02419354839</ele>
        <time>2020-10-09T13:11:52.000Z</time>
      </trkpt>
      <trkpt lat="43.59235" lon="3.6869">
        <ele>159.125</ele>
        <time>2020-10-09T13:11:53.000Z</time>
      </trkpt>
      <trkpt lat="43.59236" lon="3.68688">
        <ele>159.22580645161</ele>
        <time>2020-10-09T13:11:54.000Z</time>
      </trkpt>
      <trkpt lat="43.59237" lon="3.68686">
        <ele>159.32661290323</ele>
        <time>2020-10-09T13:11:55.000Z</time>
      </trkpt>
      <trkpt lat="43.59238" lon="3.68684">
        <ele>159.42741935484</ele>
        <time>2020-10-09T13:11:56.000Z</time>
      </trkpt>
      <trkpt lat="43.59239" lon="3.68681">
        <ele>159.52822580645</ele>
        <time>2020-10-09T13:11:57.000Z</time>
      </trkpt>
      <trkpt lat="43.5924" lon="3.68679">
        <ele>159.62903225806</ele>
        <time>2020-10-09T13:11:58.000Z</time>
      </trkpt>
      <trkpt lat="43.59242" lon="3.68677">
        <ele>159.72983870968</ele>
        <time>2020-10-09T13:11:59.000Z</time>
      </trkpt>
      <trkpt lat="43.59243" lon="3.68675">
        <ele>159.83064516129</ele>
        <time>2020-10-09T13:12:00.000Z</time>
      </trkpt>
      <trkpt lat="43.59244" lon="3.68672">
        <ele>159.9314516129</ele>
        <time>2020-10-09T13:12:01.000Z</time>
      </trkpt>
      <trkpt lat="43.59245" lon="3.68671">
        <ele>160.06330363971</ele>
        <time>2020-10-09T13:12:02.000Z</time>
      </trkpt>
      <trkpt lat="43.59247" lon="3.68669">
        <ele>160.26112751379</ele>
        <time>2020-10-09T13:12:03.000Z</time>
      </trkpt>
      <trkpt lat="43.59248" lon="3.68667">
        <ele>160.45895138787</ele>
        <time>2020-10-09T13:12:04.000Z</time>
      </trkpt>
      <trkpt lat="43.59249" lon="3.68665">
        <ele>160.65677526195</ele>
        <time>2020-10-09T13:12:05.000Z</time>
      </trkpt>
      <trkpt lat="43.59251" lon="3.68664">
        <ele>160.85459913603</ele>
        <time>2020-10-09T13:12:06.000Z</time>
      </trkpt>
      <trkpt lat="43.59253" lon="3.6866">
        <ele>161.2502468842</ele>
        <time>2020-10-09T13:12:08.000Z</time>
      </trkpt>
      <trkpt lat="43.59256" lon="3.68657">
        <ele>161.64589463236</ele>
        <time>2020-10-09T13:12:10.000Z</time>
      </trkpt>
      <trkpt lat="43.59259" lon="3.68654">
        <ele>162.02123325257</ele>
        <time>2020-10-09T13:12:12.000Z</time>
      </trkpt>
      <trkpt lat="43.59262" lon="3.68652">
        <ele>162.22345778716</ele>
        <time>2020-10-09T13:12:14.000Z</time>
      </trkpt>
      <trkpt lat="43.59265" lon="3.68649">
        <ele>162.42568232176</ele>
        <time>2020-10-09T13:12:16.000Z</time>
      </trkpt>
      <trkpt lat="43.59267" lon="3.68648">
        <ele>162.52679458905</ele>
        <time>2020-10-09T13:12:17.000Z</time>
      </trkpt>
      <trkpt lat="43.59269" lon="3.68646">
        <ele>162.62790685635</ele>
        <time>2020-10-09T13:12:18.000Z</time>
      </trkpt>
      <trkpt lat="43.59271" lon="3.68645">
        <ele>162.72901912365</ele>
        <time>2020-10-09T13:12:19.000Z</time>
      </trkpt>
      <trkpt lat="43.59274" lon="3.68643">
        <ele>162.93124365824</ele>
        <time>2020-10-09T13:12:21.000Z</time>
      </trkpt>
      <trkpt lat="43.59276" lon="3.68641">
        <ele>163.264</ele>
        <time>2020-10-09T13:12:23.000Z</time>
      </trkpt>
      <trkpt lat="43.59279" lon="3.68639">
        <ele>163.664</ele>
        <time>2020-10-09T13:12:25.000Z</time>
      </trkpt>
      <trkpt lat="43.59282" lon="3.68638">
        <ele>164.064</ele>
        <time>2020-10-09T13:12:27.000Z</time>
      </trkpt>
      <trkpt lat="43.59285" lon="3.68636">
        <ele>164.464</ele>
        <time>2020-10-09T13:12:29.000Z</time>
      </trkpt>
      <trkpt lat="43.59287" lon="3.68634">
        <ele>164.864</ele>
        <time>2020-10-09T13:12:31.000Z</time>
      </trkpt>
      <trkpt lat="43.59288" lon="3.68633">
        <ele>165</ele>
        <time>2020-10-09T13:12:39.000Z</time>
      </trkpt>
      <trkpt lat="43.5929" lon="3.68637">
        <ele>165.99746273433</ele>
        <time>2020-10-09T13:13:46.000Z</time>
      </trkpt>
      <trkpt lat="43.59291" lon="3.68639">
        <ele>166.38315898398</ele>
        <time>2020-10-09T13:13:48.000Z</time>
      </trkpt>
      <trkpt lat="43.59293" lon="3.6864">
        <ele>167.43578985378</ele>
        <time>2020-10-09T13:13:53.000Z</time>
      </trkpt>
      <trkpt lat="43.59295" lon="3.6864">
        <ele>167.85684220171</ele>
        <time>2020-10-09T13:13:55.000Z</time>
      </trkpt>
      <trkpt lat="43.59296" lon="3.68641">
        <ele>168</ele>
        <time>2020-10-09T13:13:57.000Z</time>
      </trkpt>
      <trkpt lat="43.59297" lon="3.68641">
        <ele>168</ele>
        <time>2020-10-09T13:14:01.000Z</time>
      </trkpt>
      <trkpt lat="43.59302" lon="3.68643">
        <ele>168</ele>
        <time>2020-10-09T13:14:08.000Z</time>
      </trkpt>
      <trkpt lat="43.59303" lon="3.68643">
        <ele>168.08631640501</ele>
        <time>2020-10-09T13:14:09.000Z</time>
      </trkpt>
      <trkpt lat="43.59306" lon="3.68643">
        <ele>168.40210566595</ele>
        <time>2020-10-09T13:14:12.000Z</time>
      </trkpt>
      <trkpt lat="43.59308" lon="3.68641">
        <ele>168.61263183991</ele>
        <time>2020-10-09T13:14:14.000Z</time>
      </trkpt>
      <trkpt lat="43.59307" lon="3.6864">
        <ele>169.00401937835</ele>
        <time>2020-10-09T13:14:21.000Z</time>
      </trkpt>
      <trkpt lat="43.59315" lon="3.68634">
        <ele>169.99544488746</ele>
        <time>2020-10-09T13:14:58.000Z</time>
      </trkpt>
      <trkpt lat="43.59317" lon="3.68633">
        <ele>170</ele>
        <time>2020-10-09T13:15:01.000Z</time>
      </trkpt>
      <trkpt lat="43.59317" lon="3.68633">
        <ele>170</ele>
        <time>2020-10-09T13:15:05.000Z</time>
      </trkpt>
      <trkpt lat="43.59322" lon="3.68631">
        <ele>170.97500047059</ele>
        <time>2020-10-09T13:15:12.000Z</time>
      </trkpt>
      <trkpt lat="43.59323" lon="3.68631">
        <ele>171.19157949199</ele>
        <time>2020-10-09T13:15:14.000Z</time>
      </trkpt>
      <trkpt lat="43.59326" lon="3.6863">
        <ele>171.50736875293</ele>
        <time>2020-10-09T13:15:17.000Z</time>
      </trkpt>
      <trkpt lat="43.59328" lon="3.68629">
        <ele>171.82315801387</ele>
        <time>2020-10-09T13:15:20.000Z</time>
      </trkpt>
      <trkpt lat="43.59329" lon="3.68628">
        <ele>172.12741312741</ele>
        <time>2020-10-09T13:15:23.000Z</time>
      </trkpt>
      <trkpt lat="43.59331" lon="3.68626">
        <ele>172.41698841699</ele>
        <time>2020-10-09T13:15:26.000Z</time>
      </trkpt>
      <trkpt lat="43.59332" lon="3.68624">
        <ele>172.70656370656</ele>
        <time>2020-10-09T13:15:29.000Z</time>
      </trkpt>
      <trkpt lat="43.59334" lon="3.68623">
        <ele>172.99613899614</ele>
        <time>2020-10-09T13:15:32.000Z</time>
      </trkpt>
      <trkpt lat="43.59336" lon="3.68622">
        <ele>173.61410788382</ele>
        <time>2020-10-09T13:15:35.000Z</time>
      </trkpt>
      <trkpt lat="43.59338" lon="3.68621">
        <ele>174.23651452282</ele>
        <time>2020-10-09T13:15:38.000Z</time>
      </trkpt>
      <trkpt lat="43.5934" lon="3.68621">
        <ele>174.85892116183</ele>
        <time>2020-10-09T13:15:41.000Z</time>
      </trkpt>
      <trkpt lat="43.59342" lon="3.6862">
        <ele>175.1366458722</ele>
        <time>2020-10-09T13:15:43.000Z</time>
      </trkpt>
      <trkpt lat="43.59344" lon="3.68621">
        <ele>175.34368507251</ele>
        <time>2020-10-09T13:15:45.000Z</time>
      </trkpt>
      <trkpt lat="43.59345" lon="3.68621">
        <ele>175.96480267342</ele>
        <time>2020-10-09T13:15:51.000Z</time>
      </trkpt>
      <trkpt lat="43.5935" lon="3.68622">
        <ele>176.00921154856</ele>
        <time>2020-10-09T13:15:56.000Z</time>
      </trkpt>
      <trkpt lat="43.59351" lon="3.68623">
        <ele>176.11156572743</ele>
        <time>2020-10-09T13:15:57.000Z</time>
      </trkpt>
      <trkpt lat="43.59353" lon="3.68625">
        <ele>176.31627408517</ele>
        <time>2020-10-09T13:15:59.000Z</time>
      </trkpt>
      <trkpt lat="43.59356" lon="3.68628">
        <ele>176.5209824429</ele>
        <time>2020-10-09T13:16:01.000Z</time>
      </trkpt>
      <trkpt lat="43.59358" lon="3.68631">
        <ele>176.72569080064</ele>
        <time>2020-10-09T13:16:03.000Z</time>
      </trkpt>
      <trkpt lat="43.5936" lon="3.68634">
        <ele>176.93039915837</ele>
        <time>2020-10-09T13:16:05.000Z</time>
      </trkpt>
      <trkpt lat="43.59363" lon="3.68638">
        <ele>177.12841714121</ele>
        <time>2020-10-09T13:16:07.000Z</time>
      </trkpt>
      <trkpt lat="43.59365" lon="3.68642">
        <ele>177.32298856729</ele>
        <time>2020-10-09T13:16:09.000Z</time>
      </trkpt>
      <trkpt lat="43.59367" lon="3.68644">
        <ele>177.42027428034</ele>
        <time>2020-10-09T13:16:10.000Z</time>
      </trkpt>
      <trkpt lat="43.59368" lon="3.68646">
        <ele>177.51755999337</ele>
        <time>2020-10-09T13:16:11.000Z</time>
      </trkpt>
      <trkpt lat="43.59369" lon="3.68648">
        <ele>177.61484570642</ele>
        <time>2020-10-09T13:16:12.000Z</time>
      </trkpt>
      <trkpt lat="43.59371" lon="3.6865">
        <ele>177.71213141946</ele>
        <time>2020-10-09T13:16:13.000Z</time>
      </trkpt>
      <trkpt lat="43.59372" lon="3.68652">
        <ele>177.8094171325</ele>
        <time>2020-10-09T13:16:14.000Z</time>
      </trkpt>
      <trkpt lat="43.59374" lon="3.68653">
        <ele>177.90670284554</ele>
        <time>2020-10-09T13:16:15.000Z</time>
      </trkpt>
      <trkpt lat="43.59375" lon="3.68655">
        <ele>178</ele>
        <time>2020-10-09T13:16:16.000Z</time>
      </trkpt>
      <trkpt lat="43.59377" lon="3.68656">
        <ele>178</ele>
        <time>2020-10-09T13:16:17.000Z</time>
      </trkpt>
      <trkpt lat="43.59379" lon="3.68657">
        <ele>178</ele>
        <time>2020-10-09T13:16:18.000Z</time>
      </trkpt>
      <trkpt lat="43.59382" lon="3.68658">
        <ele>178</ele>
        <time>2020-10-09T13:16:20.000Z</time>
      </trkpt>
      <trkpt lat="43.59384" lon="3.68659">
        <ele>178</ele>
        <time>2020-10-09T13:16:21.000Z</time>
      </trkpt>
      <trkpt lat="43.59387" lon="3.6866">
        <ele>178</ele>
        <time>2020-10-09T13:16:22.000Z</time>
      </trkpt>
      <trkpt lat="43.59389" lon="3.6866">
        <ele>178</ele>
        <time>2020-10-09T13:16:23.000Z</time>
      </trkpt>
      <trkpt lat="43.59391" lon="3.6866">
        <ele>178</ele>
        <time>2020-10-09T13:16:24.000Z</time>
      </trkpt>
      <trkpt lat="43.59393" lon="3.6866">
        <ele>178</ele>
        <time>2020-10-09T13:16:25.000Z</time>
      </trkpt>
      <trkpt lat="43.59395" lon="3.6866">
        <ele>178.03134489667</ele>
        <time>2020-10-09T13:16:26.000Z</time>
      </trkpt>
      <trkpt lat="43.59397" lon="3.6866">
        <ele>178.12929769878</ele>
        <time>2020-10-09T13:16:27.000Z</time>
      </trkpt>
      <trkpt lat="43.59399" lon="3.68661">
        <ele>178.22725050089</ele>
        <time>2020-10-09T13:16:28.000Z</time>
      </trkpt>
      <trkpt lat="43.594" lon="3.68661">
        <ele>178.325203303</ele>
        <time>2020-10-09T13:16:29.000Z</time>
      </trkpt>
      <trkpt lat="43.59402" lon="3.68661">
        <ele>178.42315610511</ele>
        <time>2020-10-09T13:16:30.000Z</time>
      </trkpt>
      <trkpt lat="43.59406" lon="3.68661">
        <ele>178.61906170932</ele>
        <time>2020-10-09T13:16:32.000Z</time>
      </trkpt>
      <trkpt lat="43.59409" lon="3.68662">
        <ele>178.81496731354</ele>
        <time>2020-10-09T13:16:34.000Z</time>
      </trkpt>
      <trkpt lat="43.59412" lon="3.68663">
        <ele>179.0226742073</ele>
        <time>2020-10-09T13:16:36.000Z</time>
      </trkpt>
      <trkpt lat="43.59415" lon="3.68664">
        <ele>179.43121259423</ele>
        <time>2020-10-09T13:16:38.000Z</time>
      </trkpt>
      <trkpt lat="43.59418" lon="3.68665">
        <ele>179.83975098115</ele>
        <time>2020-10-09T13:16:40.000Z</time>
      </trkpt>
      <trkpt lat="43.59421" lon="3.68666">
        <ele>180.24828936807</ele>
        <time>2020-10-09T13:16:42.000Z</time>
      </trkpt>
      <trkpt lat="43.59424" lon="3.68666">
        <ele>180.65682775499</ele>
        <time>2020-10-09T13:16:44.000Z</time>
      </trkpt>
      <trkpt lat="43.59427" lon="3.68667">
        <ele>181</ele>
        <time>2020-10-09T13:16:46.000Z</time>
      </trkpt>
      <trkpt lat="43.5943" lon="3.68668">
        <ele>181</ele>
        <time>2020-10-09T13:16:48.000Z</time>
      </trkpt>
      <trkpt lat="43.59433" lon="3.68669">
        <ele>181</ele>
        <time>2020-10-09T13:16:50.000Z</time>
      </trkpt>
      <trkpt lat="43.59437" lon="3.6867">
        <ele>181</ele>
        <time>2020-10-09T13:16:52.000Z</time>
      </trkpt>
      <trkpt lat="43.5944" lon="3.68671">
        <ele>181</ele>
        <time>2020-10-09T13:16:54.000Z</time>
      </trkpt>
      <trkpt lat="43.59442" lon="3.68673">
        <ele>181.064</ele>
        <time>2020-10-09T13:16:56.000Z</time>
      </trkpt>
      <trkpt lat="43.59445" lon="3.68674">
        <ele>181.464</ele>
        <time>2020-10-09T13:16:58.000Z</time>
      </trkpt>
      <trkpt lat="43.59448" lon="3.68677">
        <ele>181.864</ele>
        <time>2020-10-09T13:17:00.000Z</time>
      </trkpt>
      <trkpt lat="43.59451" lon="3.68679">
        <ele>182.264</ele>
        <time>2020-10-09T13:17:02.000Z</time>
      </trkpt>
      <trkpt lat="43.59454" lon="3.6868">
        <ele>182.664</ele>
        <time>2020-10-09T13:17:04.000Z</time>
      </trkpt>
      <trkpt lat="43.59457" lon="3.68682">
        <ele>182.96825396825</ele>
        <time>2020-10-09T13:17:06.000Z</time>
      </trkpt>
      <trkpt lat="43.59459" lon="3.68685">
        <ele>182.76984126984</ele>
        <time>2020-10-09T13:17:08.000Z</time>
      </trkpt>
      <trkpt lat="43.59462" lon="3.68688">
        <ele>182.57142857143</ele>
        <time>2020-10-09T13:17:10.000Z</time>
      </trkpt>
      <trkpt lat="43.59465" lon="3.6869">
        <ele>182.37301587302</ele>
        <time>2020-10-09T13:17:12.000Z</time>
      </trkpt>
      <trkpt lat="43.59468" lon="3.68692">
        <ele>182.1746031746</ele>
        <time>2020-10-09T13:17:14.000Z</time>
      </trkpt>
      <trkpt lat="43.59471" lon="3.68694">
        <ele>182.02419354839</ele>
        <time>2020-10-09T13:17:16.000Z</time>
      </trkpt>
      <trkpt lat="43.59474" lon="3.68696">
        <ele>182.22580645161</ele>
        <time>2020-10-09T13:17:18.000Z</time>
      </trkpt>
      <trkpt lat="43.59478" lon="3.68695">
        <ele>182.42741935484</ele>
        <time>2020-10-09T13:17:20.000Z</time>
      </trkpt>
      <trkpt lat="43.59481" lon="3.68695">
        <ele>182.52822580645</ele>
        <time>2020-10-09T13:17:21.000Z</time>
      </trkpt>
      <trkpt lat="43.59485" lon="3.68695">
        <ele>182.62903225806</ele>
        <time>2020-10-09T13:17:22.000Z</time>
      </trkpt>
      <trkpt lat="43.59488" lon="3.68696">
        <ele>182.72983870968</ele>
        <time>2020-10-09T13:17:23.000Z</time>
      </trkpt>
      <trkpt lat="43.59492" lon="3.68697">
        <ele>182.83064516129</ele>
        <time>2020-10-09T13:17:24.000Z</time>
      </trkpt>
      <trkpt lat="43.59497" lon="3.68697">
        <ele>182.9314516129</ele>
        <time>2020-10-09T13:17:25.000Z</time>
      </trkpt>
      <trkpt lat="43.59501" lon="3.68696">
        <ele>182.968</ele>
        <time>2020-10-09T13:17:26.000Z</time>
      </trkpt>
      <trkpt lat="43.59506" lon="3.68696">
        <ele>182.868</ele>
        <time>2020-10-09T13:17:27.000Z</time>
      </trkpt>
      <trkpt lat="43.59511" lon="3.68696">
        <ele>182.768</ele>
        <time>2020-10-09T13:17:28.000Z</time>
      </trkpt>
      <trkpt lat="43.59516" lon="3.68696">
        <ele>182.668</ele>
        <time>2020-10-09T13:17:29.000Z</time>
      </trkpt>
      <trkpt lat="43.5952" lon="3.68697">
        <ele>182.568</ele>
        <time>2020-10-09T13:17:30.000Z</time>
      </trkpt>
      <trkpt lat="43.59524" lon="3.687">
        <ele>182.468</ele>
        <time>2020-10-09T13:17:31.000Z</time>
      </trkpt>
      <trkpt lat="43.59528" lon="3.68702">
        <ele>182.368</ele>
        <time>2020-10-09T13:17:32.000Z</time>
      </trkpt>
      <trkpt lat="43.59532" lon="3.68704">
        <ele>182.268</ele>
        <time>2020-10-09T13:17:33.000Z</time>
      </trkpt>
      <trkpt lat="43.59536" lon="3.68706">
        <ele>182.168</ele>
        <time>2020-10-09T13:17:34.000Z</time>
      </trkpt>
      <trkpt lat="43.5954" lon="3.68708">
        <ele>182.068</ele>
        <time>2020-10-09T13:17:35.000Z</time>
      </trkpt>
      <trkpt lat="43.59543" lon="3.6871">
        <ele>181.904</ele>
        <time>2020-10-09T13:17:36.000Z</time>
      </trkpt>
      <trkpt lat="43.59547" lon="3.68713">
        <ele>181.604</ele>
        <time>2020-10-09T13:17:37.000Z</time>
      </trkpt>
      <trkpt lat="43.59551" lon="3.68716">
        <ele>181.304</ele>
        <time>2020-10-09T13:17:38.000Z</time>
      </trkpt>
      <trkpt lat="43.59555" lon="3.68719">
        <ele>181.004</ele>
        <time>2020-10-09T13:17:39.000Z</time>
      </trkpt>
      <trkpt lat="43.5956" lon="3.68723">
        <ele>180.704</ele>
        <time>2020-10-09T13:17:40.000Z</time>
      </trkpt>
      <trkpt lat="43.59565" lon="3.68726">
        <ele>180.404</ele>
        <time>2020-10-09T13:17:41.000Z</time>
      </trkpt>
      <trkpt lat="43.59569" lon="3.6873">
        <ele>180.104</ele>
        <time>2020-10-09T13:17:42.000Z</time>
      </trkpt>
      <trkpt lat="43.59573" lon="3.68733">
        <ele>179.804</ele>
        <time>2020-10-09T13:17:43.000Z</time>
      </trkpt>
      <trkpt lat="43.59576" lon="3.68734">
        <ele>179.504</ele>
        <time>2020-10-09T13:17:44.000Z</time>
      </trkpt>
      <trkpt lat="43.59579" lon="3.68736">
        <ele>179.204</ele>
        <time>2020-10-09T13:17:45.000Z</time>
      </trkpt>
      <trkpt lat="43.59583" lon="3.68738">
        <ele>178.904</ele>
        <time>2020-10-09T13:17:46.000Z</time>
      </trkpt>
      <trkpt lat="43.59588" lon="3.68741">
        <ele>178.604</ele>
        <time>2020-10-09T13:17:47.000Z</time>
      </trkpt>
      <trkpt lat="43.59593" lon="3.68745">
        <ele>178.304</ele>
        <time>2020-10-09T13:17:48.000Z</time>
      </trkpt>
      <trkpt lat="43.59598" lon="3.68748">
        <ele>178.004</ele>
        <time>2020-10-09T13:17:49.000Z</time>
      </trkpt>
      <trkpt lat="43.59604" lon="3.6875">
        <ele>177.704</ele>
        <time>2020-10-09T13:17:50.000Z</time>
      </trkpt>
      <trkpt lat="43.59609" lon="3.68754">
        <ele>177.404</ele>
        <time>2020-10-09T13:17:51.000Z</time>
      </trkpt>
      <trkpt lat="43.59615" lon="3.68758">
        <ele>177.104</ele>
        <time>2020-10-09T13:17:52.000Z</time>
      </trkpt>
      <trkpt lat="43.59621" lon="3.68762">
        <ele>176.804</ele>
        <time>2020-10-09T13:17:53.000Z</time>
      </trkpt>
      <trkpt lat="43.59627" lon="3.68767">
        <ele>176.504</ele>
        <time>2020-10-09T13:17:54.000Z</time>
      </trkpt>
      <trkpt lat="43.59632" lon="3.68771">
        <ele>176.204</ele>
        <time>2020-10-09T13:17:55.000Z</time>
      </trkpt>
      <trkpt lat="43.59636" lon="3.68775">
        <ele>175.936</ele>
        <time>2020-10-09T13:17:56.000Z</time>
      </trkpt>
      <trkpt lat="43.5964" lon="3.68779">
        <ele>175.736</ele>
        <time>2020-10-09T13:17:57.000Z</time>
      </trkpt>
      <trkpt lat="43.59644" lon="3.68784">
        <ele>175.536</ele>
        <time>2020-10-09T13:17:58.000Z</time>
      </trkpt>
      <trkpt lat="43.59649" lon="3.68786">
        <ele>175.336</ele>
        <time>2020-10-09T13:17:59.000Z</time>
      </trkpt>
      <trkpt lat="43.59654" lon="3.68786">
        <ele>175.136</ele>
        <time>2020-10-09T13:18:00.000Z</time>
      </trkpt>
      <trkpt lat="43.59658" lon="3.68786">
        <ele>174.936</ele>
        <time>2020-10-09T13:18:01.000Z</time>
      </trkpt>
      <trkpt lat="43.59662" lon="3.68786">
        <ele>174.736</ele>
        <time>2020-10-09T13:18:02.000Z</time>
      </trkpt>
      <trkpt lat="43.59667" lon="3.68786">
        <ele>174.536</ele>
        <time>2020-10-09T13:18:03.000Z</time>
      </trkpt>
      <trkpt lat="43.5967" lon="3.68785">
        <ele>174.336</ele>
        <time>2020-10-09T13:18:04.000Z</time>
      </trkpt>
      <trkpt lat="43.59675" lon="3.68784">
        <ele>174.136</ele>
        <time>2020-10-09T13:18:05.000Z</time>
      </trkpt>
      <trkpt lat="43.59678" lon="3.68783">
        <ele>173.87389166537</ele>
        <time>2020-10-09T13:18:06.000Z</time>
      </trkpt>
      <trkpt lat="43.59681" lon="3.68782">
        <ele>173.47980311967</ele>
        <time>2020-10-09T13:18:07.000Z</time>
      </trkpt>
      <trkpt lat="43.59684" lon="3.68781">
        <ele>173.08571457396</ele>
        <time>2020-10-09T13:18:08.000Z</time>
      </trkpt>
      <trkpt lat="43.59686" lon="3.68779">
        <ele>172.69162602826</ele>
        <time>2020-10-09T13:18:09.000Z</time>
      </trkpt>
      <trkpt lat="43.59689" lon="3.68777">
        <ele>172.29753748255</ele>
        <time>2020-10-09T13:18:10.000Z</time>
      </trkpt>
      <trkpt lat="43.59692" lon="3.68776">
        <ele>171.90344893684</ele>
        <time>2020-10-09T13:18:11.000Z</time>
      </trkpt>
      <trkpt lat="43.59695" lon="3.68774">
        <ele>171.50936039114</ele>
        <time>2020-10-09T13:18:12.000Z</time>
      </trkpt>
      <trkpt lat="43.59699" lon="3.68774">
        <ele>171.11527184543</ele>
        <time>2020-10-09T13:18:13.000Z</time>
      </trkpt>
      <trkpt lat="43.59703" lon="3.68772">
        <ele>170.72118329972</ele>
        <time>2020-10-09T13:18:14.000Z</time>
      </trkpt>
      <trkpt lat="43.59706" lon="3.68771">
        <ele>170.32709475402</ele>
        <time>2020-10-09T13:18:15.000Z</time>
      </trkpt>
      <trkpt lat="43.59709" lon="3.68769">
        <ele>169.97877692036</ele>
        <time>2020-10-09T13:18:16.000Z</time>
      </trkpt>
      <trkpt lat="43.59711" lon="3.68768">
        <ele>169.85393292542</ele>
        <time>2020-10-09T13:18:17.000Z</time>
      </trkpt>
      <trkpt lat="43.59713" lon="3.68767">
        <ele>169.60424493553</ele>
        <time>2020-10-09T13:18:19.000Z</time>
      </trkpt>
      <trkpt lat="43.59713" lon="3.68767">
        <ele>169</ele>
        <time>2020-10-09T13:18:24.000Z</time>
      </trkpt>
      <trkpt lat="43.59722" lon="3.68762">
        <ele>168.01829203252</ele>
        <time>2020-10-09T13:18:29.000Z</time>
      </trkpt>
      <trkpt lat="43.59724" lon="3.68761">
        <ele>167.81210977009</ele>
        <time>2020-10-09T13:18:30.000Z</time>
      </trkpt>
      <trkpt lat="43.59727" lon="3.6876">
        <ele>167.6033413634</ele>
        <time>2020-10-09T13:18:31.000Z</time>
      </trkpt>
      <trkpt lat="43.59729" lon="3.68759">
        <ele>167.39457295671</ele>
        <time>2020-10-09T13:18:32.000Z</time>
      </trkpt>
      <trkpt lat="43.59731" lon="3.68758">
        <ele>167.18580455002</ele>
        <time>2020-10-09T13:18:33.000Z</time>
      </trkpt>
      <trkpt lat="43.59734" lon="3.68757">
        <ele>166.97703614332</ele>
        <time>2020-10-09T13:18:34.000Z</time>
      </trkpt>
      <trkpt lat="43.59735" lon="3.68757">
        <ele>166.76826773663</ele>
        <time>2020-10-09T13:18:35.000Z</time>
      </trkpt>
      <trkpt lat="43.59737" lon="3.68757">
        <ele>166.55949932994</ele>
        <time>2020-10-09T13:18:36.000Z</time>
      </trkpt>
      <trkpt lat="43.5974" lon="3.68757">
        <ele>166.14196251655</ele>
        <time>2020-10-09T13:18:38.000Z</time>
      </trkpt>
      <trkpt lat="43.59744" lon="3.68758">
        <ele>165.87172007673</ele>
        <time>2020-10-09T13:18:40.000Z</time>
      </trkpt>
      <trkpt lat="43.59745" lon="3.68761">
        <ele>165.77453831667</ele>
        <time>2020-10-09T13:18:41.000Z</time>
      </trkpt>
      <trkpt lat="43.59747" lon="3.68763">
        <ele>165.67735655661</ele>
        <time>2020-10-09T13:18:42.000Z</time>
      </trkpt>
      <trkpt lat="43.5975" lon="3.68766">
        <ele>165.58017479656</ele>
        <time>2020-10-09T13:18:43.000Z</time>
      </trkpt>
      <trkpt lat="43.59753" lon="3.68769">
        <ele>165.4829930365</ele>
        <time>2020-10-09T13:18:44.000Z</time>
      </trkpt>
      <trkpt lat="43.59757" lon="3.68771">
        <ele>165.38581127644</ele>
        <time>2020-10-09T13:18:45.000Z</time>
      </trkpt>
      <trkpt lat="43.5976" lon="3.68773">
        <ele>165.28862951639</ele>
        <time>2020-10-09T13:18:46.000Z</time>
      </trkpt>
      <trkpt lat="43.59763" lon="3.68775">
        <ele>165.19144775633</ele>
        <time>2020-10-09T13:18:47.000Z</time>
      </trkpt>
      <trkpt lat="43.59766" lon="3.68776">
        <ele>165.09426599627</ele>
        <time>2020-10-09T13:18:48.000Z</time>
      </trkpt>
      <trkpt lat="43.59768" lon="3.68777">
        <ele>164.99691007311</ele>
        <time>2020-10-09T13:18:49.000Z</time>
      </trkpt>
      <trkpt lat="43.59769" lon="3.68778">
        <ele>164.89392349531</ele>
        <time>2020-10-09T13:18:50.000Z</time>
      </trkpt>
      <trkpt lat="43.59771" lon="3.68779">
        <ele>164.79093691751</ele>
        <time>2020-10-09T13:18:51.000Z</time>
      </trkpt>
      <trkpt lat="43.59773" lon="3.6878">
        <ele>164.68795033971</ele>
        <time>2020-10-09T13:18:52.000Z</time>
      </trkpt>
      <trkpt lat="43.59776" lon="3.68781">
        <ele>164.58496376191</ele>
        <time>2020-10-09T13:18:53.000Z</time>
      </trkpt>
      <trkpt lat="43.59778" lon="3.68782">
        <ele>164.48197718411</ele>
        <time>2020-10-09T13:18:54.000Z</time>
      </trkpt>
      <trkpt lat="43.5978" lon="3.68782">
        <ele>164.37899060631</ele>
        <time>2020-10-09T13:18:55.000Z</time>
      </trkpt>
      <trkpt lat="43.59782" lon="3.68783">
        <ele>164.27600402851</ele>
        <time>2020-10-09T13:18:56.000Z</time>
      </trkpt>
      <trkpt lat="43.59784" lon="3.68784">
        <ele>164.17301745071</ele>
        <time>2020-10-09T13:18:57.000Z</time>
      </trkpt>
      <trkpt lat="43.59786" lon="3.68785">
        <ele>164.0700308729</ele>
        <time>2020-10-09T13:18:58.000Z</time>
      </trkpt>
      <trkpt lat="43.59788" lon="3.68786">
        <ele>164</ele>
        <time>2020-10-09T13:18:59.000Z</time>
      </trkpt>
      <trkpt lat="43.5979" lon="3.68788">
        <ele>164</ele>
        <time>2020-10-09T13:19:00.000Z</time>
      </trkpt>
      <trkpt lat="43.59792" lon="3.6879">
        <ele>164</ele>
        <time>2020-10-09T13:19:01.000Z</time>
      </trkpt>
      <trkpt lat="43.59794" lon="3.68792">
        <ele>164</ele>
        <time>2020-10-09T13:19:02.000Z</time>
      </trkpt>
      <trkpt lat="43.59797" lon="3.68793">
        <ele>164</ele>
        <time>2020-10-09T13:19:03.000Z</time>
      </trkpt>
      <trkpt lat="43.59799" lon="3.68795">
        <ele>164</ele>
        <time>2020-10-09T13:19:04.000Z</time>
      </trkpt>
      <trkpt lat="43.59801" lon="3.68797">
        <ele>164</ele>
        <time>2020-10-09T13:19:05.000Z</time>
      </trkpt>
      <trkpt lat="43.59803" lon="3.68799">
        <ele>164</ele>
        <time>2020-10-09T13:19:06.000Z</time>
      </trkpt>
      <trkpt lat="43.59805" lon="3.68801">
        <ele>164</ele>
        <time>2020-10-09T13:19:07.000Z</time>
      </trkpt>
      <trkpt lat="43.59807" lon="3.68802">
        <ele>164</ele>
        <time>2020-10-09T13:19:08.000Z</time>
      </trkpt>
      <trkpt lat="43.59809" lon="3.68803">
        <ele>163.98977440342</ele>
        <time>2020-10-09T13:19:09.000Z</time>
      </trkpt>
      <trkpt lat="43.59812" lon="3.68804">
        <ele>163.88752498158</ele>
        <time>2020-10-09T13:19:10.000Z</time>
      </trkpt>
      <trkpt lat="43.59814" lon="3.68805">
        <ele>163.78527555974</ele>
        <time>2020-10-09T13:19:11.000Z</time>
      </trkpt>
      <trkpt lat="43.59816" lon="3.68805">
        <ele>163.6830261379</ele>
        <time>2020-10-09T13:19:12.000Z</time>
      </trkpt>
      <trkpt lat="43.59818" lon="3.68807">
        <ele>163.58077671606</ele>
        <time>2020-10-09T13:19:13.000Z</time>
      </trkpt>
      <trkpt lat="43.5982" lon="3.68809">
        <ele>163.47852729422</ele>
        <time>2020-10-09T13:19:14.000Z</time>
      </trkpt>
      <trkpt lat="43.59822" lon="3.6881">
        <ele>163.37627787237</ele>
        <time>2020-10-09T13:19:15.000Z</time>
      </trkpt>
      <trkpt lat="43.59824" lon="3.68811">
        <ele>163.27402845053</ele>
        <time>2020-10-09T13:19:16.000Z</time>
      </trkpt>
      <trkpt lat="43.59826" lon="3.68812">
        <ele>163.17177902869</ele>
        <time>2020-10-09T13:19:17.000Z</time>
      </trkpt>
      <trkpt lat="43.59828" lon="3.68813">
        <ele>163.06952960685</ele>
        <time>2020-10-09T13:19:18.000Z</time>
      </trkpt>
      <trkpt lat="43.59831" lon="3.68813">
        <ele>163</ele>
        <time>2020-10-09T13:19:19.000Z</time>
      </trkpt>
      <trkpt lat="43.59833" lon="3.68814">
        <ele>163</ele>
        <time>2020-10-09T13:19:20.000Z</time>
      </trkpt>
      <trkpt lat="43.59835" lon="3.68814">
        <ele>163</ele>
        <time>2020-10-09T13:19:21.000Z</time>
      </trkpt>
      <trkpt lat="43.59837" lon="3.68814">
        <ele>163</ele>
        <time>2020-10-09T13:19:22.000Z</time>
      </trkpt>
      <trkpt lat="43.59839" lon="3.68814">
        <ele>163</ele>
        <time>2020-10-09T13:19:23.000Z</time>
      </trkpt>
      <trkpt lat="43.59841" lon="3.68814">
        <ele>163</ele>
        <time>2020-10-09T13:19:24.000Z</time>
      </trkpt>
      <trkpt lat="43.59843" lon="3.68814">
        <ele>163</ele>
        <time>2020-10-09T13:19:25.000Z</time>
      </trkpt>
      <trkpt lat="43.59845" lon="3.68814">
        <ele>163</ele>
        <time>2020-10-09T13:19:26.000Z</time>
      </trkpt>
      <trkpt lat="43.59847" lon="3.68814">
        <ele>163</ele>
        <time>2020-10-09T13:19:27.000Z</time>
      </trkpt>
      <trkpt lat="43.59849" lon="3.68814">
        <ele>163</ele>
        <time>2020-10-09T13:19:28.000Z</time>
      </trkpt>
      <trkpt lat="43.59851" lon="3.68814">
        <ele>163.02419354839</ele>
        <time>2020-10-09T13:19:29.000Z</time>
      </trkpt>
      <trkpt lat="43.59853" lon="3.68813">
        <ele>163.125</ele>
        <time>2020-10-09T13:19:30.000Z</time>
      </trkpt>
      <trkpt lat="43.59854" lon="3.68812">
        <ele>163.22580645161</ele>
        <time>2020-10-09T13:19:31.000Z</time>
      </trkpt>
      <trkpt lat="43.59856" lon="3.68811">
        <ele>163.32661290323</ele>
        <time>2020-10-09T13:19:32.000Z</time>
      </trkpt>
      <trkpt lat="43.59858" lon="3.6881">
        <ele>163.42741935484</ele>
        <time>2020-10-09T13:19:33.000Z</time>
      </trkpt>
      <trkpt lat="43.5986" lon="3.68809">
        <ele>163.52822580645</ele>
        <time>2020-10-09T13:19:34.000Z</time>
      </trkpt>
      <trkpt lat="43.59862" lon="3.68808">
        <ele>163.62903225806</ele>
        <time>2020-10-09T13:19:35.000Z</time>
      </trkpt>
      <trkpt lat="43.59865" lon="3.68807">
        <ele>163.83064516129</ele>
        <time>2020-10-09T13:19:37.000Z</time>
      </trkpt>
      <trkpt lat="43.59869" lon="3.68807">
        <ele>164</ele>
        <time>2020-10-09T13:19:39.000Z</time>
      </trkpt>
      <trkpt lat="43.59871" lon="3.68806">
        <ele>164</ele>
        <time>2020-10-09T13:19:40.000Z</time>
      </trkpt>
      <trkpt lat="43.59874" lon="3.68806">
        <ele>164</ele>
        <time>2020-10-09T13:19:41.000Z</time>
      </trkpt>
      <trkpt lat="43.59876" lon="3.68804">
        <ele>164</ele>
        <time>2020-10-09T13:19:42.000Z</time>
      </trkpt>
      <trkpt lat="43.59879" lon="3.68802">
        <ele>164</ele>
        <time>2020-10-09T13:19:43.000Z</time>
      </trkpt>
      <trkpt lat="43.59882" lon="3.68799">
        <ele>164</ele>
        <time>2020-10-09T13:19:44.000Z</time>
      </trkpt>
      <trkpt lat="43.59885" lon="3.68796">
        <ele>164</ele>
        <time>2020-10-09T13:19:45.000Z</time>
      </trkpt>
      <trkpt lat="43.59888" lon="3.68793">
        <ele>164</ele>
        <time>2020-10-09T13:19:46.000Z</time>
      </trkpt>
      <trkpt lat="43.59891" lon="3.68791">
        <ele>164</ele>
        <time>2020-10-09T13:19:47.000Z</time>
      </trkpt>
      <trkpt lat="43.59894" lon="3.68788">
        <ele>164</ele>
        <time>2020-10-09T13:19:48.000Z</time>
      </trkpt>
      <trkpt lat="43.59896" lon="3.68785">
        <ele>163.99691007311</ele>
        <time>2020-10-09T13:19:49.000Z</time>
      </trkpt>
      <trkpt lat="43.59899" lon="3.68782">
        <ele>163.89392349531</ele>
        <time>2020-10-09T13:19:50.000Z</time>
      </trkpt>
      <trkpt lat="43.59901" lon="3.68779">
        <ele>163.79093691751</ele>
        <time>2020-10-09T13:19:51.000Z</time>
      </trkpt>
      <trkpt lat="43.59904" lon="3.68777">
        <ele>163.68795033971</ele>
        <time>2020-10-09T13:19:52.000Z</time>
      </trkpt>
      <trkpt lat="43.59907" lon="3.68774">
        <ele>163.58496376191</ele>
        <time>2020-10-09T13:19:53.000Z</time>
      </trkpt>
      <trkpt lat="43.5991" lon="3.68772">
        <ele>163.48197718411</ele>
        <time>2020-10-09T13:19:54.000Z</time>
      </trkpt>
      <trkpt lat="43.59914" lon="3.68769">
        <ele>163.37899060631</ele>
        <time>2020-10-09T13:19:55.000Z</time>
      </trkpt>
      <trkpt lat="43.59917" lon="3.68766">
        <ele>163.27600402851</ele>
        <time>2020-10-09T13:19:56.000Z</time>
      </trkpt>
      <trkpt lat="43.59921" lon="3.68764">
        <ele>163.17301745071</ele>
        <time>2020-10-09T13:19:57.000Z</time>
      </trkpt>
      <trkpt lat="43.59924" lon="3.68761">
        <ele>163.0700308729</ele>
        <time>2020-10-09T13:19:58.000Z</time>
      </trkpt>
      <trkpt lat="43.59928" lon="3.68757">
        <ele>162.968</ele>
        <time>2020-10-09T13:19:59.000Z</time>
      </trkpt>
      <trkpt lat="43.59933" lon="3.68753">
        <ele>162.868</ele>
        <time>2020-10-09T13:20:00.000Z</time>
      </trkpt>
      <trkpt lat="43.59937" lon="3.68749">
        <ele>162.768</ele>
        <time>2020-10-09T13:20:01.000Z</time>
      </trkpt>
      <trkpt lat="43.59941" lon="3.68746">
        <ele>162.668</ele>
        <time>2020-10-09T13:20:02.000Z</time>
      </trkpt>
      <trkpt lat="43.59944" lon="3.68742">
        <ele>162.568</ele>
        <time>2020-10-09T13:20:03.000Z</time>
      </trkpt>
      <trkpt lat="43.59947" lon="3.68738">
        <ele>162.468</ele>
        <time>2020-10-09T13:20:04.000Z</time>
      </trkpt>
      <trkpt lat="43.5995" lon="3.68734">
        <ele>162.368</ele>
        <time>2020-10-09T13:20:05.000Z</time>
      </trkpt>
      <trkpt lat="43.59953" lon="3.68729">
        <ele>162.268</ele>
        <time>2020-10-09T13:20:06.000Z</time>
      </trkpt>
      <trkpt lat="43.59957" lon="3.68725">
        <ele>162.168</ele>
        <time>2020-10-09T13:20:07.000Z</time>
      </trkpt>
      <trkpt lat="43.5996" lon="3.6872">
        <ele>162.068</ele>
        <time>2020-10-09T13:20:08.000Z</time>
      </trkpt>
      <trkpt lat="43.59963" lon="3.68715">
        <ele>161.968</ele>
        <time>2020-10-09T13:20:09.000Z</time>
      </trkpt>
      <trkpt lat="43.59965" lon="3.6871">
        <ele>161.868</ele>
        <time>2020-10-09T13:20:10.000Z</time>
      </trkpt>
      <trkpt lat="43.59967" lon="3.68706">
        <ele>161.768</ele>
        <time>2020-10-09T13:20:11.000Z</time>
      </trkpt>
      <trkpt lat="43.59968" lon="3.68702">
        <ele>161.668</ele>
        <time>2020-10-09T13:20:12.000Z</time>
      </trkpt>
      <trkpt lat="43.59969" lon="3.68698">
        <ele>161.568</ele>
        <time>2020-10-09T13:20:13.000Z</time>
      </trkpt>
      <trkpt lat="43.5997" lon="3.68695">
        <ele>161.468</ele>
        <time>2020-10-09T13:20:14.000Z</time>
      </trkpt>
      <trkpt lat="43.59971" lon="3.68691">
        <ele>161.368</ele>
        <time>2020-10-09T13:20:15.000Z</time>
      </trkpt>
      <trkpt lat="43.59972" lon="3.68687">
        <ele>161.268</ele>
        <time>2020-10-09T13:20:16.000Z</time>
      </trkpt>
      <trkpt lat="43.59973" lon="3.68683">
        <ele>161.168</ele>
        <time>2020-10-09T13:20:17.000Z</time>
      </trkpt>
      <trkpt lat="43.59974" lon="3.68678">
        <ele>161.068</ele>
        <time>2020-10-09T13:20:18.000Z</time>
      </trkpt>
      <trkpt lat="43.59975" lon="3.68673">
        <ele>160.90409587344</ele>
        <time>2020-10-09T13:20:19.000Z</time>
      </trkpt>
      <trkpt lat="43.59976" lon="3.68668">
        <ele>160.60439547793</ele>
        <time>2020-10-09T13:20:20.000Z</time>
      </trkpt>
      <trkpt lat="43.59978" lon="3.68664">
        <ele>160.30469508242</ele>
        <time>2020-10-09T13:20:21.000Z</time>
      </trkpt>
      <trkpt lat="43.5998" lon="3.68661">
        <ele>160.00499468691</ele>
        <time>2020-10-09T13:20:22.000Z</time>
      </trkpt>
      <trkpt lat="43.59983" lon="3.6866">
        <ele>159.7052942914</ele>
        <time>2020-10-09T13:20:23.000Z</time>
      </trkpt>
      <trkpt lat="43.59986" lon="3.6866">
        <ele>159.40559389589</ele>
        <time>2020-10-09T13:20:24.000Z</time>
      </trkpt>
      <trkpt lat="43.59989" lon="3.68661">
        <ele>159.10589350039</ele>
        <time>2020-10-09T13:20:25.000Z</time>
      </trkpt>
      <trkpt lat="43.59991" lon="3.68663">
        <ele>158.80619310488</ele>
        <time>2020-10-09T13:20:26.000Z</time>
      </trkpt>
      <trkpt lat="43.59993" lon="3.68665">
        <ele>158.50649270937</ele>
        <time>2020-10-09T13:20:27.000Z</time>
      </trkpt>
      <trkpt lat="43.59995" lon="3.68665">
        <ele>158.20679231386</ele>
        <time>2020-10-09T13:20:28.000Z</time>
      </trkpt>
      <trkpt lat="43.59997" lon="3.68665">
        <ele>157.93793731718</ele>
        <time>2020-10-09T13:20:29.000Z</time>
      </trkpt>
      <trkpt lat="43.59999" lon="3.68665">
        <ele>157.7377371811</ele>
        <time>2020-10-09T13:20:30.000Z</time>
      </trkpt>
      <trkpt lat="43.60002" lon="3.68665">
        <ele>157.53753704503</ele>
        <time>2020-10-09T13:20:31.000Z</time>
      </trkpt>
      <trkpt lat="43.60004" lon="3.68665">
        <ele>157.33733690896</ele>
        <time>2020-10-09T13:20:32.000Z</time>
      </trkpt>
      <trkpt lat="43.60006" lon="3.68665">
        <ele>157.13713677289</ele>
        <time>2020-10-09T13:20:33.000Z</time>
      </trkpt>
      <trkpt lat="43.6001" lon="3.68665">
        <ele>156.73673650074</ele>
        <time>2020-10-09T13:20:35.000Z</time>
      </trkpt>
      <trkpt lat="43.60011" lon="3.68664">
        <ele>156.53653636467</ele>
        <time>2020-10-09T13:20:36.000Z</time>
      </trkpt>
      <trkpt lat="43.60014" lon="3.68663">
        <ele>156.3363362286</ele>
        <time>2020-10-09T13:20:37.000Z</time>
      </trkpt>
      <trkpt lat="43.60016" lon="3.68662">
        <ele>156.13613609253</ele>
        <time>2020-10-09T13:20:38.000Z</time>
      </trkpt>
      <trkpt lat="43.6002" lon="3.68661">
        <ele>155.904</ele>
        <time>2020-10-09T13:20:39.000Z</time>
      </trkpt>
      <trkpt lat="43.60023" lon="3.68659">
        <ele>155.604</ele>
        <time>2020-10-09T13:20:40.000Z</time>
      </trkpt>
      <trkpt lat="43.60026" lon="3.68658">
        <ele>155.304</ele>
        <time>2020-10-09T13:20:41.000Z</time>
      </trkpt>
      <trkpt lat="43.6003" lon="3.68657">
        <ele>155.004</ele>
        <time>2020-10-09T13:20:42.000Z</time>
      </trkpt>
      <trkpt lat="43.60033" lon="3.68656">
        <ele>154.704</ele>
        <time>2020-10-09T13:20:43.000Z</time>
      </trkpt>
      <trkpt lat="43.60037" lon="3.68653">
        <ele>154.404</ele>
        <time>2020-10-09T13:20:44.000Z</time>
      </trkpt>
      <trkpt lat="43.60041" lon="3.6865">
        <ele>154.104</ele>
        <time>2020-10-09T13:20:45.000Z</time>
      </trkpt>
      <trkpt lat="43.60045" lon="3.68646">
        <ele>153.804</ele>
        <time>2020-10-09T13:20:46.000Z</time>
      </trkpt>
      <trkpt lat="43.60049" lon="3.68643">
        <ele>153.504</ele>
        <time>2020-10-09T13:20:47.000Z</time>
      </trkpt>
      <trkpt lat="43.60054" lon="3.68641">
        <ele>153.204</ele>
        <time>2020-10-09T13:20:48.000Z</time>
      </trkpt>
      <trkpt lat="43.60058" lon="3.6864">
        <ele>152.93612778531</ele>
        <time>2020-10-09T13:20:49.000Z</time>
      </trkpt>
      <trkpt lat="43.60062" lon="3.6864">
        <ele>152.73652711439</ele>
        <time>2020-10-09T13:20:50.000Z</time>
      </trkpt>
      <trkpt lat="43.60065" lon="3.68639">
        <ele>152.53692644348</ele>
        <time>2020-10-09T13:20:51.000Z</time>
      </trkpt>
      <trkpt lat="43.60068" lon="3.6864">
        <ele>152.33732577257</ele>
        <time>2020-10-09T13:20:52.000Z</time>
      </trkpt>
      <trkpt lat="43.60071" lon="3.68639">
        <ele>152.13772510165</ele>
        <time>2020-10-09T13:20:53.000Z</time>
      </trkpt>
      <trkpt lat="43.60074" lon="3.68639">
        <ele>151.93812443074</ele>
        <time>2020-10-09T13:20:54.000Z</time>
      </trkpt>
      <trkpt lat="43.60077" lon="3.68639">
        <ele>151.73852375983</ele>
        <time>2020-10-09T13:20:55.000Z</time>
      </trkpt>
      <trkpt lat="43.6008" lon="3.6864">
        <ele>151.53892308891</ele>
        <time>2020-10-09T13:20:56.000Z</time>
      </trkpt>
      <trkpt lat="43.60084" lon="3.6864">
        <ele>151.339322418</ele>
        <time>2020-10-09T13:20:57.000Z</time>
      </trkpt>
      <trkpt lat="43.60087" lon="3.68641">
        <ele>151.13972174708</ele>
        <time>2020-10-09T13:20:58.000Z</time>
      </trkpt>
      <trkpt lat="43.6009" lon="3.68641">
        <ele>150.84970250883</ele>
        <time>2020-10-09T13:20:59.000Z</time>
      </trkpt>
      <trkpt lat="43.60094" lon="3.6864">
        <ele>150.34870018353</ele>
        <time>2020-10-09T13:21:00.000Z</time>
      </trkpt>
      <trkpt lat="43.60099" lon="3.68639">
        <ele>149.84769785824</ele>
        <time>2020-10-09T13:21:01.000Z</time>
      </trkpt>
      <trkpt lat="43.60102" lon="3.68638">
        <ele>149.34669553295</ele>
        <time>2020-10-09T13:21:02.000Z</time>
      </trkpt>
      <trkpt lat="43.60106" lon="3.68638">
        <ele>148.84569320766</ele>
        <time>2020-10-09T13:21:03.000Z</time>
      </trkpt>
      <trkpt lat="43.60111" lon="3.68637">
        <ele>148.34469088237</ele>
        <time>2020-10-09T13:21:04.000Z</time>
      </trkpt>
      <trkpt lat="43.60115" lon="3.68637">
        <ele>147.84368855708</ele>
        <time>2020-10-09T13:21:05.000Z</time>
      </trkpt>
      <trkpt lat="43.60119" lon="3.68636">
        <ele>147.34268623178</ele>
        <time>2020-10-09T13:21:06.000Z</time>
      </trkpt>
      <trkpt lat="43.60123" lon="3.68635">
        <ele>146.84168390649</ele>
        <time>2020-10-09T13:21:07.000Z</time>
      </trkpt>
      <trkpt lat="43.60127" lon="3.68634">
        <ele>146.3406815812</ele>
        <time>2020-10-09T13:21:08.000Z</time>
      </trkpt>
      <trkpt lat="43.60131" lon="3.68632">
        <ele>145.968</ele>
        <time>2020-10-09T13:21:09.000Z</time>
      </trkpt>
      <trkpt lat="43.60134" lon="3.6863">
        <ele>145.868</ele>
        <time>2020-10-09T13:21:10.000Z</time>
      </trkpt>
      <trkpt lat="43.60137" lon="3.68627">
        <ele>145.768</ele>
        <time>2020-10-09T13:21:11.000Z</time>
      </trkpt>
      <trkpt lat="43.60141" lon="3.68623">
        <ele>145.668</ele>
        <time>2020-10-09T13:21:12.000Z</time>
      </trkpt>
      <trkpt lat="43.60144" lon="3.6862">
        <ele>145.568</ele>
        <time>2020-10-09T13:21:13.000Z</time>
      </trkpt>
      <trkpt lat="43.60147" lon="3.68618">
        <ele>145.468</ele>
        <time>2020-10-09T13:21:14.000Z</time>
      </trkpt>
      <trkpt lat="43.6015" lon="3.68616">
        <ele>145.368</ele>
        <time>2020-10-09T13:21:15.000Z</time>
      </trkpt>
      <trkpt lat="43.60153" lon="3.68614">
        <ele>145.268</ele>
        <time>2020-10-09T13:21:16.000Z</time>
      </trkpt>
      <trkpt lat="43.60156" lon="3.68611">
        <ele>145.168</ele>
        <time>2020-10-09T13:21:17.000Z</time>
      </trkpt>
      <trkpt lat="43.60158" lon="3.68607">
        <ele>145.068</ele>
        <time>2020-10-09T13:21:18.000Z</time>
      </trkpt>
      <trkpt lat="43.6016" lon="3.68603">
        <ele>144.968</ele>
        <time>2020-10-09T13:21:19.000Z</time>
      </trkpt>
      <trkpt lat="43.60162" lon="3.686">
        <ele>144.868</ele>
        <time>2020-10-09T13:21:20.000Z</time>
      </trkpt>
      <trkpt lat="43.60163" lon="3.68597">
        <ele>144.768</ele>
        <time>2020-10-09T13:21:21.000Z</time>
      </trkpt>
      <trkpt lat="43.60164" lon="3.68594">
        <ele>144.668</ele>
        <time>2020-10-09T13:21:22.000Z</time>
      </trkpt>
      <trkpt lat="43.60165" lon="3.68591">
        <ele>144.568</ele>
        <time>2020-10-09T13:21:23.000Z</time>
      </trkpt>
      <trkpt lat="43.60167" lon="3.68588">
        <ele>144.468</ele>
        <time>2020-10-09T13:21:24.000Z</time>
      </trkpt>
      <trkpt lat="43.60168" lon="3.68585">
        <ele>144.368</ele>
        <time>2020-10-09T13:21:25.000Z</time>
      </trkpt>
      <trkpt lat="43.6017" lon="3.68583">
        <ele>144.268</ele>
        <time>2020-10-09T13:21:26.000Z</time>
      </trkpt>
      <trkpt lat="43.60172" lon="3.68581">
        <ele>144.168</ele>
        <time>2020-10-09T13:21:27.000Z</time>
      </trkpt>
      <trkpt lat="43.60175" lon="3.6858">
        <ele>144.068</ele>
        <time>2020-10-09T13:21:28.000Z</time>
      </trkpt>
      <trkpt lat="43.60178" lon="3.68579">
        <ele>143.968</ele>
        <time>2020-10-09T13:21:29.000Z</time>
      </trkpt>
      <trkpt lat="43.6018" lon="3.68578">
        <ele>143.868</ele>
        <time>2020-10-09T13:21:30.000Z</time>
      </trkpt>
      <trkpt lat="43.60183" lon="3.68578">
        <ele>143.768</ele>
        <time>2020-10-09T13:21:31.000Z</time>
      </trkpt>
      <trkpt lat="43.60186" lon="3.68578">
        <ele>143.668</ele>
        <time>2020-10-09T13:21:32.000Z</time>
      </trkpt>
      <trkpt lat="43.6019" lon="3.68578">
        <ele>143.568</ele>
        <time>2020-10-09T13:21:33.000Z</time>
      </trkpt>
      <trkpt lat="43.60194" lon="3.68578">
        <ele>143.468</ele>
        <time>2020-10-09T13:21:34.000Z</time>
      </trkpt>
      <trkpt lat="43.60197" lon="3.68578">
        <ele>143.368</ele>
        <time>2020-10-09T13:21:35.000Z</time>
      </trkpt>
      <trkpt lat="43.60201" lon="3.68577">
        <ele>143.268</ele>
        <time>2020-10-09T13:21:36.000Z</time>
      </trkpt>
      <trkpt lat="43.60205" lon="3.68577">
        <ele>143.168</ele>
        <time>2020-10-09T13:21:37.000Z</time>
      </trkpt>
      <trkpt lat="43.60209" lon="3.68576">
        <ele>143.068</ele>
        <time>2020-10-09T13:21:38.000Z</time>
      </trkpt>
      <trkpt lat="43.60212" lon="3.68575">
        <ele>143</ele>
        <time>2020-10-09T13:21:39.000Z</time>
      </trkpt>
      <trkpt lat="43.60216" lon="3.68574">
        <ele>143</ele>
        <time>2020-10-09T13:21:40.000Z</time>
      </trkpt>
      <trkpt lat="43.60219" lon="3.68573">
        <ele>143</ele>
        <time>2020-10-09T13:21:41.000Z</time>
      </trkpt>
      <trkpt lat="43.60222" lon="3.68573">
        <ele>143</ele>
        <time>2020-10-09T13:21:42.000Z</time>
      </trkpt>
      <trkpt lat="43.60225" lon="3.68574">
        <ele>143</ele>
        <time>2020-10-09T13:21:43.000Z</time>
      </trkpt>
      <trkpt lat="43.60228" lon="3.68574">
        <ele>143</ele>
        <time>2020-10-09T13:21:44.000Z</time>
      </trkpt>
      <trkpt lat="43.60232" lon="3.68576">
        <ele>143</ele>
        <time>2020-10-09T13:21:45.000Z</time>
      </trkpt>
      <trkpt lat="43.60234" lon="3.68578">
        <ele>143</ele>
        <time>2020-10-09T13:21:46.000Z</time>
      </trkpt>
      <trkpt lat="43.60237" lon="3.6858">
        <ele>143</ele>
        <time>2020-10-09T13:21:47.000Z</time>
      </trkpt>
      <trkpt lat="43.6024" lon="3.68583">
        <ele>143</ele>
        <time>2020-10-09T13:21:48.000Z</time>
      </trkpt>
      <trkpt lat="43.60242" lon="3.68586">
        <ele>143</ele>
        <time>2020-10-09T13:21:49.000Z</time>
      </trkpt>
      <trkpt lat="43.60245" lon="3.68588">
        <ele>143</ele>
        <time>2020-10-09T13:21:50.000Z</time>
      </trkpt>
      <trkpt lat="43.60249" lon="3.6859">
        <ele>143</ele>
        <time>2020-10-09T13:21:51.000Z</time>
      </trkpt>
      <trkpt lat="43.60252" lon="3.68592">
        <ele>143</ele>
        <time>2020-10-09T13:21:52.000Z</time>
      </trkpt>
      <trkpt lat="43.60256" lon="3.68594">
        <ele>143</ele>
        <time>2020-10-09T13:21:53.000Z</time>
      </trkpt>
      <trkpt lat="43.60259" lon="3.68596">
        <ele>143</ele>
        <time>2020-10-09T13:21:54.000Z</time>
      </trkpt>
      <trkpt lat="43.60263" lon="3.68595">
        <ele>143</ele>
        <time>2020-10-09T13:21:55.000Z</time>
      </trkpt>
      <trkpt lat="43.60266" lon="3.68592">
        <ele>143</ele>
        <time>2020-10-09T13:21:56.000Z</time>
      </trkpt>
      <trkpt lat="43.60268" lon="3.68589">
        <ele>143</ele>
        <time>2020-10-09T13:21:57.000Z</time>
      </trkpt>
      <trkpt lat="43.6027" lon="3.68586">
        <ele>143</ele>
        <time>2020-10-09T13:21:58.000Z</time>
      </trkpt>
      <trkpt lat="43.60272" lon="3.68583">
        <ele>143</ele>
        <time>2020-10-09T13:21:59.000Z</time>
      </trkpt>
      <trkpt lat="43.60273" lon="3.6858">
        <ele>143</ele>
        <time>2020-10-09T13:22:00.000Z</time>
      </trkpt>
      <trkpt lat="43.60275" lon="3.68577">
        <ele>143</ele>
        <time>2020-10-09T13:22:01.000Z</time>
      </trkpt>
      <trkpt lat="43.60277" lon="3.68574">
        <ele>143</ele>
        <time>2020-10-09T13:22:02.000Z</time>
      </trkpt>
      <trkpt lat="43.60279" lon="3.68571">
        <ele>143</ele>
        <time>2020-10-09T13:22:03.000Z</time>
      </trkpt>
      <trkpt lat="43.6028" lon="3.68568">
        <ele>143</ele>
        <time>2020-10-09T13:22:04.000Z</time>
      </trkpt>
      <trkpt lat="43.60281" lon="3.68564">
        <ele>143</ele>
        <time>2020-10-09T13:22:05.000Z</time>
      </trkpt>
      <trkpt lat="43.60282" lon="3.6856">
        <ele>143</ele>
        <time>2020-10-09T13:22:06.000Z</time>
      </trkpt>
      <trkpt lat="43.60283" lon="3.68557">
        <ele>143</ele>
        <time>2020-10-09T13:22:07.000Z</time>
      </trkpt>
      <trkpt lat="43.60283" lon="3.68553">
        <ele>143</ele>
        <time>2020-10-09T13:22:08.000Z</time>
      </trkpt>
      <trkpt lat="43.60283" lon="3.6855">
        <ele>142.96834818015</ele>
        <time>2020-10-09T13:22:09.000Z</time>
      </trkpt>
      <trkpt lat="43.60284" lon="3.68546">
        <ele>142.86943624311</ele>
        <time>2020-10-09T13:22:10.000Z</time>
      </trkpt>
      <trkpt lat="43.60284" lon="3.68542">
        <ele>142.77052430607</ele>
        <time>2020-10-09T13:22:11.000Z</time>
      </trkpt>
      <trkpt lat="43.60284" lon="3.68537">
        <ele>142.67161236903</ele>
        <time>2020-10-09T13:22:12.000Z</time>
      </trkpt>
      <trkpt lat="43.60284" lon="3.68532">
        <ele>142.57270043198</ele>
        <time>2020-10-09T13:22:13.000Z</time>
      </trkpt>
      <trkpt lat="43.60283" lon="3.68527">
        <ele>142.47378849494</ele>
        <time>2020-10-09T13:22:14.000Z</time>
      </trkpt>
      <trkpt lat="43.60283" lon="3.68522">
        <ele>142.3748765579</ele>
        <time>2020-10-09T13:22:15.000Z</time>
      </trkpt>
      <trkpt lat="43.60282" lon="3.68517">
        <ele>142.27596462086</ele>
        <time>2020-10-09T13:22:16.000Z</time>
      </trkpt>
      <trkpt lat="43.60282" lon="3.68513">
        <ele>142.17705268382</ele>
        <time>2020-10-09T13:22:17.000Z</time>
      </trkpt>
      <trkpt lat="43.60281" lon="3.68509">
        <ele>142.07814074678</ele>
        <time>2020-10-09T13:22:18.000Z</time>
      </trkpt>
      <trkpt lat="43.6028" lon="3.68505">
        <ele>142</ele>
        <time>2020-10-09T13:22:19.000Z</time>
      </trkpt>
      <trkpt lat="43.60279" lon="3.68501">
        <ele>142</ele>
        <time>2020-10-09T13:22:20.000Z</time>
      </trkpt>
      <trkpt lat="43.60279" lon="3.68497">
        <ele>142</ele>
        <time>2020-10-09T13:22:21.000Z</time>
      </trkpt>
      <trkpt lat="43.60279" lon="3.68493">
        <ele>142</ele>
        <time>2020-10-09T13:22:22.000Z</time>
      </trkpt>
      <trkpt lat="43.60278" lon="3.6849">
        <ele>142</ele>
        <time>2020-10-09T13:22:23.000Z</time>
      </trkpt>
      <trkpt lat="43.60278" lon="3.68486">
        <ele>142</ele>
        <time>2020-10-09T13:22:24.000Z</time>
      </trkpt>
      <trkpt lat="43.60278" lon="3.68483">
        <ele>142</ele>
        <time>2020-10-09T13:22:25.000Z</time>
      </trkpt>
      <trkpt lat="43.6028" lon="3.68481">
        <ele>142</ele>
        <time>2020-10-09T13:22:30.000Z</time>
      </trkpt>
      <trkpt lat="43.6028" lon="3.68481">
        <ele>141.98966135338</ele>
        <time>2020-10-09T13:22:32.000Z</time>
      </trkpt>
      <trkpt lat="43.60292" lon="3.68482">
        <ele>140.01597714286</ele>
        <time>2020-10-09T13:22:53.000Z</time>
      </trkpt>
      <trkpt lat="43.60295" lon="3.68484">
        <ele>139.91368482606</ele>
        <time>2020-10-09T13:22:54.000Z</time>
      </trkpt>
      <trkpt lat="43.60298" lon="3.68486">
        <ele>139.80842159725</ele>
        <time>2020-10-09T13:22:55.000Z</time>
      </trkpt>
      <trkpt lat="43.60301" lon="3.68488">
        <ele>139.70315836844</ele>
        <time>2020-10-09T13:22:56.000Z</time>
      </trkpt>
      <trkpt lat="43.60305" lon="3.68491">
        <ele>139.59789513963</ele>
        <time>2020-10-09T13:22:57.000Z</time>
      </trkpt>
      <trkpt lat="43.60308" lon="3.68494">
        <ele>139.49263191083</ele>
        <time>2020-10-09T13:22:58.000Z</time>
      </trkpt>
      <trkpt lat="43.60311" lon="3.68498">
        <ele>139.38736868202</ele>
        <time>2020-10-09T13:22:59.000Z</time>
      </trkpt>
      <trkpt lat="43.60314" lon="3.68502">
        <ele>139.28210545321</ele>
        <time>2020-10-09T13:23:00.000Z</time>
      </trkpt>
      <trkpt lat="43.60317" lon="3.68505">
        <ele>139.1768422244</ele>
        <time>2020-10-09T13:23:01.000Z</time>
      </trkpt>
      <trkpt lat="43.60319" lon="3.68509">
        <ele>139.07157899559</ele>
        <time>2020-10-09T13:23:02.000Z</time>
      </trkpt>
      <trkpt lat="43.60321" lon="3.68513">
        <ele>138.93956564621</ele>
        <time>2020-10-09T13:23:03.000Z</time>
      </trkpt>
      <trkpt lat="43.60323" lon="3.68517">
        <ele>138.75070829063</ele>
        <time>2020-10-09T13:23:04.000Z</time>
      </trkpt>
      <trkpt lat="43.60325" lon="3.68522">
        <ele>138.56185093504</ele>
        <time>2020-10-09T13:23:05.000Z</time>
      </trkpt>
      <trkpt lat="43.60327" lon="3.68526">
        <ele>138.37299357945</ele>
        <time>2020-10-09T13:23:06.000Z</time>
      </trkpt>
      <trkpt lat="43.60329" lon="3.6853">
        <ele>138.18413622387</ele>
        <time>2020-10-09T13:23:07.000Z</time>
      </trkpt>
      <trkpt lat="43.60331" lon="3.68535">
        <ele>137.99527886828</ele>
        <time>2020-10-09T13:23:08.000Z</time>
      </trkpt>
      <trkpt lat="43.60333" lon="3.6854">
        <ele>137.8064215127</ele>
        <time>2020-10-09T13:23:09.000Z</time>
      </trkpt>
      <trkpt lat="43.60335" lon="3.68545">
        <ele>137.61756415711</ele>
        <time>2020-10-09T13:23:10.000Z</time>
      </trkpt>
      <trkpt lat="43.60337" lon="3.68549">
        <ele>137.42870680152</ele>
        <time>2020-10-09T13:23:11.000Z</time>
      </trkpt>
      <trkpt lat="43.60339" lon="3.68553">
        <ele>137.23984944594</ele>
        <time>2020-10-09T13:23:12.000Z</time>
      </trkpt>
      <trkpt lat="43.60342" lon="3.68559">
        <ele>137.05099209035</ele>
        <time>2020-10-09T13:23:13.000Z</time>
      </trkpt>
      <trkpt lat="43.60344" lon="3.68563">
        <ele>136.84484653597</ele>
        <time>2020-10-09T13:23:14.000Z</time>
      </trkpt>
      <trkpt lat="43.60347" lon="3.68568">
        <ele>136.63230661247</ele>
        <time>2020-10-09T13:23:15.000Z</time>
      </trkpt>
      <trkpt lat="43.60349" lon="3.68573">
        <ele>136.41976668897</ele>
        <time>2020-10-09T13:23:16.000Z</time>
      </trkpt>
      <trkpt lat="43.60352" lon="3.68578">
        <ele>136.20722676548</ele>
        <time>2020-10-09T13:23:17.000Z</time>
      </trkpt>
      <trkpt lat="43.60354" lon="3.68582">
        <ele>135.99468684198</ele>
        <time>2020-10-09T13:23:18.000Z</time>
      </trkpt>
      <trkpt lat="43.60357" lon="3.68587">
        <ele>135.78214691848</ele>
        <time>2020-10-09T13:23:19.000Z</time>
      </trkpt>
      <trkpt lat="43.60359" lon="3.68591">
        <ele>135.56960699498</ele>
        <time>2020-10-09T13:23:20.000Z</time>
      </trkpt>
      <trkpt lat="43.60361" lon="3.68596">
        <ele>135.35706707148</ele>
        <time>2020-10-09T13:23:21.000Z</time>
      </trkpt>
      <trkpt lat="43.60364" lon="3.686">
        <ele>135.14452714798</ele>
        <time>2020-10-09T13:23:22.000Z</time>
      </trkpt>
      <trkpt lat="43.60367" lon="3.68604">
        <ele>134.93731633687</ele>
        <time>2020-10-09T13:23:23.000Z</time>
      </trkpt>
      <trkpt lat="43.6037" lon="3.68609">
        <ele>134.74142988958</ele>
        <time>2020-10-09T13:23:24.000Z</time>
      </trkpt>
      <trkpt lat="43.60373" lon="3.68613">
        <ele>134.54554344229</ele>
        <time>2020-10-09T13:23:25.000Z</time>
      </trkpt>
      <trkpt lat="43.60375" lon="3.68618">
        <ele>134.349656995</ele>
        <time>2020-10-09T13:23:26.000Z</time>
      </trkpt>
      <trkpt lat="43.60377" lon="3.68623">
        <ele>134.1537705477</ele>
        <time>2020-10-09T13:23:27.000Z</time>
      </trkpt>
      <trkpt lat="43.60379" lon="3.68629">
        <ele>133.95788410041</ele>
        <time>2020-10-09T13:23:28.000Z</time>
      </trkpt>
      <trkpt lat="43.60381" lon="3.68634">
        <ele>133.76199765312</ele>
        <time>2020-10-09T13:23:29.000Z</time>
      </trkpt>
      <trkpt lat="43.60382" lon="3.6864">
        <ele>133.56611120583</ele>
        <time>2020-10-09T13:23:30.000Z</time>
      </trkpt>
      <trkpt lat="43.60383" lon="3.68647">
        <ele>133.37022475854</ele>
        <time>2020-10-09T13:23:31.000Z</time>
      </trkpt>
      <trkpt lat="43.60384" lon="3.68653">
        <ele>133.17433831125</ele>
        <time>2020-10-09T13:23:32.000Z</time>
      </trkpt>
      <trkpt lat="43.60384" lon="3.68659">
        <ele>132.97752744351</ele>
        <time>2020-10-09T13:23:33.000Z</time>
      </trkpt>
      <trkpt lat="43.60383" lon="3.68665">
        <ele>132.77323741835</ele>
        <time>2020-10-09T13:23:34.000Z</time>
      </trkpt>
      <trkpt lat="43.60383" lon="3.68671">
        <ele>132.56894739319</ele>
        <time>2020-10-09T13:23:35.000Z</time>
      </trkpt>
      <trkpt lat="43.60382" lon="3.68677">
        <ele>132.36465736804</ele>
        <time>2020-10-09T13:23:36.000Z</time>
      </trkpt>
      <trkpt lat="43.60381" lon="3.68683">
        <ele>132.16036734288</ele>
        <time>2020-10-09T13:23:37.000Z</time>
      </trkpt>
      <trkpt lat="43.60381" lon="3.68689">
        <ele>131.95607731773</ele>
        <time>2020-10-09T13:23:38.000Z</time>
      </trkpt>
      <trkpt lat="43.6038" lon="3.68695">
        <ele>131.75178729257</ele>
        <time>2020-10-09T13:23:39.000Z</time>
      </trkpt>
      <trkpt lat="43.6038" lon="3.68701">
        <ele>131.54749726742</ele>
        <time>2020-10-09T13:23:40.000Z</time>
      </trkpt>
      <trkpt lat="43.6038" lon="3.68706">
        <ele>131.34320724226</ele>
        <time>2020-10-09T13:23:41.000Z</time>
      </trkpt>
      <trkpt lat="43.60379" lon="3.68712">
        <ele>131.13891721711</ele>
        <time>2020-10-09T13:23:42.000Z</time>
      </trkpt>
      <trkpt lat="43.60378" lon="3.68718">
        <ele>130.93650793651</ele>
        <time>2020-10-09T13:23:43.000Z</time>
      </trkpt>
      <trkpt lat="43.60377" lon="3.68723">
        <ele>130.7380952381</ele>
        <time>2020-10-09T13:23:44.000Z</time>
      </trkpt>
      <trkpt lat="43.60376" lon="3.68728">
        <ele>130.53968253968</ele>
        <time>2020-10-09T13:23:45.000Z</time>
      </trkpt>
      <trkpt lat="43.60376" lon="3.68732">
        <ele>130.34126984127</ele>
        <time>2020-10-09T13:23:46.000Z</time>
      </trkpt>
      <trkpt lat="43.60376" lon="3.68736">
        <ele>130.14285714286</ele>
        <time>2020-10-09T13:23:47.000Z</time>
      </trkpt>
      <trkpt lat="43.60375" lon="3.6874">
        <ele>129.94444444444</ele>
        <time>2020-10-09T13:23:48.000Z</time>
      </trkpt>
      <trkpt lat="43.60374" lon="3.68745">
        <ele>129.74603174603</ele>
        <time>2020-10-09T13:23:49.000Z</time>
      </trkpt>
      <trkpt lat="43.60371" lon="3.68748">
        <ele>129.54761904762</ele>
        <time>2020-10-09T13:23:50.000Z</time>
      </trkpt>
      <trkpt lat="43.60369" lon="3.68752">
        <ele>129.34920634921</ele>
        <time>2020-10-09T13:23:51.000Z</time>
      </trkpt>
      <trkpt lat="43.60367" lon="3.68755">
        <ele>129.15079365079</ele>
        <time>2020-10-09T13:23:52.000Z</time>
      </trkpt>
      <trkpt lat="43.60365" lon="3.68759">
        <ele>128.95298725265</ele>
        <time>2020-10-09T13:23:53.000Z</time>
      </trkpt>
      <trkpt lat="43.60363" lon="3.68762">
        <ele>128.75710080536</ele>
        <time>2020-10-09T13:23:54.000Z</time>
      </trkpt>
      <trkpt lat="43.60361" lon="3.68766">
        <ele>128.56121435807</ele>
        <time>2020-10-09T13:23:55.000Z</time>
      </trkpt>
      <trkpt lat="43.60359" lon="3.68771">
        <ele>128.36532791078</ele>
        <time>2020-10-09T13:23:56.000Z</time>
      </trkpt>
      <trkpt lat="43.60356" lon="3.68776">
        <ele>128.16944146349</ele>
        <time>2020-10-09T13:23:57.000Z</time>
      </trkpt>
      <trkpt lat="43.60353" lon="3.6878">
        <ele>127.9735550162</ele>
        <time>2020-10-09T13:23:58.000Z</time>
      </trkpt>
      <trkpt lat="43.6035" lon="3.68784">
        <ele>127.77766856891</ele>
        <time>2020-10-09T13:23:59.000Z</time>
      </trkpt>
      <trkpt lat="43.60347" lon="3.68788">
        <ele>127.58178212162</ele>
        <time>2020-10-09T13:24:00.000Z</time>
      </trkpt>
      <trkpt lat="43.60345" lon="3.68792">
        <ele>127.38589567433</ele>
        <time>2020-10-09T13:24:01.000Z</time>
      </trkpt>
      <trkpt lat="43.60342" lon="3.68795">
        <ele>127.19000922704</ele>
        <time>2020-10-09T13:24:02.000Z</time>
      </trkpt>
      <trkpt lat="43.60339" lon="3.68799">
        <ele>126.99382014622</ele>
        <time>2020-10-09T13:24:03.000Z</time>
      </trkpt>
      <trkpt lat="43.60336" lon="3.68803">
        <ele>126.78784699062</ele>
        <time>2020-10-09T13:24:04.000Z</time>
      </trkpt>
      <trkpt lat="43.60334" lon="3.68806">
        <ele>126.58187383502</ele>
        <time>2020-10-09T13:24:05.000Z</time>
      </trkpt>
      <trkpt lat="43.60332" lon="3.6881">
        <ele>126.37590067941</ele>
        <time>2020-10-09T13:24:06.000Z</time>
      </trkpt>
      <trkpt lat="43.60331" lon="3.68814">
        <ele>126.16992752381</ele>
        <time>2020-10-09T13:24:07.000Z</time>
      </trkpt>
      <trkpt lat="43.6033" lon="3.68818">
        <ele>125.96395436821</ele>
        <time>2020-10-09T13:24:08.000Z</time>
      </trkpt>
      <trkpt lat="43.6033" lon="3.68823">
        <ele>125.75798121261</ele>
        <time>2020-10-09T13:24:09.000Z</time>
      </trkpt>
      <trkpt lat="43.60331" lon="3.68827">
        <ele>125.55200805701</ele>
        <time>2020-10-09T13:24:10.000Z</time>
      </trkpt>
      <trkpt lat="43.60333" lon="3.68832">
        <ele>125.34603490141</ele>
        <time>2020-10-09T13:24:11.000Z</time>
      </trkpt>
      <trkpt lat="43.60334" lon="3.68837">
        <ele>125.14006174581</ele>
        <time>2020-10-09T13:24:12.000Z</time>
      </trkpt>
      <trkpt lat="43.60335" lon="3.68844">
        <ele>124.936</ele>
        <time>2020-10-09T13:24:13.000Z</time>
      </trkpt>
      <trkpt lat="43.60335" lon="3.6885">
        <ele>124.736</ele>
        <time>2020-10-09T13:24:14.000Z</time>
      </trkpt>
      <trkpt lat="43.60335" lon="3.68856">
        <ele>124.536</ele>
        <time>2020-10-09T13:24:15.000Z</time>
      </trkpt>
      <trkpt lat="43.60335" lon="3.68862">
        <ele>124.336</ele>
        <time>2020-10-09T13:24:16.000Z</time>
      </trkpt>
      <trkpt lat="43.60334" lon="3.68868">
        <ele>124.136</ele>
        <time>2020-10-09T13:24:17.000Z</time>
      </trkpt>
      <trkpt lat="43.60332" lon="3.68874">
        <ele>123.936</ele>
        <time>2020-10-09T13:24:18.000Z</time>
      </trkpt>
      <trkpt lat="43.6033" lon="3.6888">
        <ele>123.736</ele>
        <time>2020-10-09T13:24:19.000Z</time>
      </trkpt>
      <trkpt lat="43.60328" lon="3.68885">
        <ele>123.536</ele>
        <time>2020-10-09T13:24:20.000Z</time>
      </trkpt>
      <trkpt lat="43.60326" lon="3.68889">
        <ele>123.336</ele>
        <time>2020-10-09T13:24:21.000Z</time>
      </trkpt>
      <trkpt lat="43.60324" lon="3.68893">
        <ele>123.136</ele>
        <time>2020-10-09T13:24:22.000Z</time>
      </trkpt>
      <trkpt lat="43.60323" lon="3.68898">
        <ele>122.904</ele>
        <time>2020-10-09T13:24:23.000Z</time>
      </trkpt>
      <trkpt lat="43.60321" lon="3.68902">
        <ele>122.604</ele>
        <time>2020-10-09T13:24:24.000Z</time>
      </trkpt>
      <trkpt lat="43.60319" lon="3.68907">
        <ele>122.304</ele>
        <time>2020-10-09T13:24:25.000Z</time>
      </trkpt>
      <trkpt lat="43.60317" lon="3.68912">
        <ele>122.004</ele>
        <time>2020-10-09T13:24:26.000Z</time>
      </trkpt>
      <trkpt lat="43.60317" lon="3.68916">
        <ele>121.704</ele>
        <time>2020-10-09T13:24:27.000Z</time>
      </trkpt>
      <trkpt lat="43.60317" lon="3.68919">
        <ele>121.404</ele>
        <time>2020-10-09T13:24:28.000Z</time>
      </trkpt>
      <trkpt lat="43.60318" lon="3.68923">
        <ele>121.104</ele>
        <time>2020-10-09T13:24:29.000Z</time>
      </trkpt>
      <trkpt lat="43.60318" lon="3.68926">
        <ele>120.804</ele>
        <time>2020-10-09T13:24:30.000Z</time>
      </trkpt>
      <trkpt lat="43.60319" lon="3.68928">
        <ele>120.504</ele>
        <time>2020-10-09T13:24:31.000Z</time>
      </trkpt>
      <trkpt lat="43.6032" lon="3.68931">
        <ele>120.204</ele>
        <time>2020-10-09T13:24:32.000Z</time>
      </trkpt>
      <trkpt lat="43.60322" lon="3.68934">
        <ele>119.904</ele>
        <time>2020-10-09T13:24:33.000Z</time>
      </trkpt>
      <trkpt lat="43.60324" lon="3.68936">
        <ele>119.604</ele>
        <time>2020-10-09T13:24:34.000Z</time>
      </trkpt>
      <trkpt lat="43.60325" lon="3.68939">
        <ele>119.304</ele>
        <time>2020-10-09T13:24:35.000Z</time>
      </trkpt>
      <trkpt lat="43.60327" lon="3.68941">
        <ele>119.004</ele>
        <time>2020-10-09T13:24:36.000Z</time>
      </trkpt>
      <trkpt lat="43.60328" lon="3.68943">
        <ele>118.704</ele>
        <time>2020-10-09T13:24:37.000Z</time>
      </trkpt>
      <trkpt lat="43.6033" lon="3.68943">
        <ele>118.104</ele>
        <time>2020-10-09T13:24:39.000Z</time>
      </trkpt>
      <trkpt lat="43.60332" lon="3.68942">
        <ele>117</ele>
        <time>2020-10-09T13:24:43.000Z</time>
      </trkpt>
      <trkpt lat="43.60332" lon="3.68942">
        <ele>116.98858887967</ele>
        <time>2020-10-09T13:24:46.000Z</time>
      </trkpt>
      <trkpt lat="43.60337" lon="3.68943">
        <ele>115.01763452282</ele>
        <time>2020-10-09T13:25:05.000Z</time>
      </trkpt>
      <trkpt lat="43.6034" lon="3.68943">
        <ele>114.80842159725</ele>
        <time>2020-10-09T13:25:07.000Z</time>
      </trkpt>
      <trkpt lat="43.60342" lon="3.68942">
        <ele>114.59789513963</ele>
        <time>2020-10-09T13:25:09.000Z</time>
      </trkpt>
      <trkpt lat="43.60345" lon="3.68941">
        <ele>114.38736868202</ele>
        <time>2020-10-09T13:25:11.000Z</time>
      </trkpt>
      <trkpt lat="43.60347" lon="3.6894">
        <ele>114.28210545321</ele>
        <time>2020-10-09T13:25:12.000Z</time>
      </trkpt>
      <trkpt lat="43.60348" lon="3.68939">
        <ele>114.1768422244</ele>
        <time>2020-10-09T13:25:13.000Z</time>
      </trkpt>
      <trkpt lat="43.6035" lon="3.68935">
        <ele>113.96890183678</ele>
        <time>2020-10-09T13:25:15.000Z</time>
      </trkpt>
      <trkpt lat="43.60351" lon="3.68933">
        <ele>113.87172007672</ele>
        <time>2020-10-09T13:25:16.000Z</time>
      </trkpt>
      <trkpt lat="43.60352" lon="3.6893">
        <ele>113.77453831667</ele>
        <time>2020-10-09T13:25:17.000Z</time>
      </trkpt>
      <trkpt lat="43.60353" lon="3.68926">
        <ele>113.67735655661</ele>
        <time>2020-10-09T13:25:18.000Z</time>
      </trkpt>
      <trkpt lat="43.60354" lon="3.68923">
        <ele>113.58017479656</ele>
        <time>2020-10-09T13:25:19.000Z</time>
      </trkpt>
      <trkpt lat="43.60355" lon="3.6892">
        <ele>113.4829930365</ele>
        <time>2020-10-09T13:25:20.000Z</time>
      </trkpt>
      <trkpt lat="43.60356" lon="3.68917">
        <ele>113.38581127644</ele>
        <time>2020-10-09T13:25:21.000Z</time>
      </trkpt>
      <trkpt lat="43.60358" lon="3.68912">
        <ele>113.28862951639</ele>
        <time>2020-10-09T13:25:22.000Z</time>
      </trkpt>
      <trkpt lat="43.60359" lon="3.68909">
        <ele>113.19144775633</ele>
        <time>2020-10-09T13:25:23.000Z</time>
      </trkpt>
      <trkpt lat="43.60362" lon="3.68905">
        <ele>113.09426599627</ele>
        <time>2020-10-09T13:25:24.000Z</time>
      </trkpt>
      <trkpt lat="43.60364" lon="3.68901">
        <ele>112.99691007311</ele>
        <time>2020-10-09T13:25:25.000Z</time>
      </trkpt>
      <trkpt lat="43.60367" lon="3.68897">
        <ele>112.89392349531</ele>
        <time>2020-10-09T13:25:26.000Z</time>
      </trkpt>
      <trkpt lat="43.60369" lon="3.68892">
        <ele>112.79093691751</ele>
        <time>2020-10-09T13:25:27.000Z</time>
      </trkpt>
      <trkpt lat="43.6037" lon="3.68887">
        <ele>112.68795033971</ele>
        <time>2020-10-09T13:25:28.000Z</time>
      </trkpt>
      <trkpt lat="43.60371" lon="3.68881">
        <ele>112.58496376191</ele>
        <time>2020-10-09T13:25:29.000Z</time>
      </trkpt>
      <trkpt lat="43.60371" lon="3.68874">
        <ele>112.48197718411</ele>
        <time>2020-10-09T13:25:30.000Z</time>
      </trkpt>
      <trkpt lat="43.60371" lon="3.68868">
        <ele>112.37899060631</ele>
        <time>2020-10-09T13:25:31.000Z</time>
      </trkpt>
      <trkpt lat="43.60372" lon="3.6886">
        <ele>112.2760040285</ele>
        <time>2020-10-09T13:25:32.000Z</time>
      </trkpt>
      <trkpt lat="43.60375" lon="3.68847">
        <ele>112.0700308729</ele>
        <time>2020-10-09T13:25:34.000Z</time>
      </trkpt>
      <trkpt lat="43.60376" lon="3.6884">
        <ele>111.96856583509</ele>
        <time>2020-10-09T13:25:35.000Z</time>
      </trkpt>
      <trkpt lat="43.60378" lon="3.68833">
        <ele>111.87033406973</ele>
        <time>2020-10-09T13:25:36.000Z</time>
      </trkpt>
      <trkpt lat="43.6038" lon="3.68827">
        <ele>111.77210230438</ele>
        <time>2020-10-09T13:25:37.000Z</time>
      </trkpt>
      <trkpt lat="43.60382" lon="3.6882">
        <ele>111.67387053902</ele>
        <time>2020-10-09T13:25:38.000Z</time>
      </trkpt>
      <trkpt lat="43.60384" lon="3.68813">
        <ele>111.57563877367</ele>
        <time>2020-10-09T13:25:39.000Z</time>
      </trkpt>
      <trkpt lat="43.60385" lon="3.68807">
        <ele>111.47740700831</ele>
        <time>2020-10-09T13:25:40.000Z</time>
      </trkpt>
      <trkpt lat="43.60387" lon="3.68801">
        <ele>111.37917524296</ele>
        <time>2020-10-09T13:25:41.000Z</time>
      </trkpt>
      <trkpt lat="43.60389" lon="3.68794">
        <ele>111.2809434776</ele>
        <time>2020-10-09T13:25:42.000Z</time>
      </trkpt>
      <trkpt lat="43.60391" lon="3.68788">
        <ele>111.18271171224</ele>
        <time>2020-10-09T13:25:43.000Z</time>
      </trkpt>
      <trkpt lat="43.60393" lon="3.68782">
        <ele>111.08447994689</ele>
        <time>2020-10-09T13:25:44.000Z</time>
      </trkpt>
      <trkpt lat="43.60395" lon="3.68776">
        <ele>110.98574402329</ele>
        <time>2020-10-09T13:25:45.000Z</time>
      </trkpt>
      <trkpt lat="43.60397" lon="3.6877">
        <ele>110.88391096304</ele>
        <time>2020-10-09T13:25:46.000Z</time>
      </trkpt>
      <trkpt lat="43.60399" lon="3.68764">
        <ele>110.78207790278</ele>
        <time>2020-10-09T13:25:47.000Z</time>
      </trkpt>
      <trkpt lat="43.604" lon="3.68758">
        <ele>110.68024484252</ele>
        <time>2020-10-09T13:25:48.000Z</time>
      </trkpt>
      <trkpt lat="43.60402" lon="3.68752">
        <ele>110.57841178226</ele>
        <time>2020-10-09T13:25:49.000Z</time>
      </trkpt>
      <trkpt lat="43.60403" lon="3.68747">
        <ele>110.47657872201</ele>
        <time>2020-10-09T13:25:50.000Z</time>
      </trkpt>
      <trkpt lat="43.60405" lon="3.68742">
        <ele>110.37474566175</ele>
        <time>2020-10-09T13:25:51.000Z</time>
      </trkpt>
      <trkpt lat="43.60406" lon="3.68737">
        <ele>110.27291260149</ele>
        <time>2020-10-09T13:25:52.000Z</time>
      </trkpt>
      <trkpt lat="43.60407" lon="3.68732">
        <ele>110.17107954123</ele>
        <time>2020-10-09T13:25:53.000Z</time>
      </trkpt>
      <trkpt lat="43.60408" lon="3.68727">
        <ele>110.06924648097</ele>
        <time>2020-10-09T13:25:54.000Z</time>
      </trkpt>
      <trkpt lat="43.60409" lon="3.68722">
        <ele>109.968</ele>
        <time>2020-10-09T13:25:55.000Z</time>
      </trkpt>
      <trkpt lat="43.60411" lon="3.68718">
        <ele>109.868</ele>
        <time>2020-10-09T13:25:56.000Z</time>
      </trkpt>
      <trkpt lat="43.60413" lon="3.68714">
        <ele>109.768</ele>
        <time>2020-10-09T13:25:57.000Z</time>
      </trkpt>
      <trkpt lat="43.60415" lon="3.68709">
        <ele>109.668</ele>
        <time>2020-10-09T13:25:58.000Z</time>
      </trkpt>
      <trkpt lat="43.60417" lon="3.68705">
        <ele>109.568</ele>
        <time>2020-10-09T13:25:59.000Z</time>
      </trkpt>
      <trkpt lat="43.60419" lon="3.687">
        <ele>109.468</ele>
        <time>2020-10-09T13:26:00.000Z</time>
      </trkpt>
      <trkpt lat="43.6042" lon="3.68696">
        <ele>109.368</ele>
        <time>2020-10-09T13:26:01.000Z</time>
      </trkpt>
      <trkpt lat="43.60422" lon="3.68691">
        <ele>109.268</ele>
        <time>2020-10-09T13:26:02.000Z</time>
      </trkpt>
      <trkpt lat="43.60423" lon="3.68686">
        <ele>109.168</ele>
        <time>2020-10-09T13:26:03.000Z</time>
      </trkpt>
      <trkpt lat="43.60424" lon="3.68682">
        <ele>109.068</ele>
        <time>2020-10-09T13:26:04.000Z</time>
      </trkpt>
      <trkpt lat="43.60424" lon="3.68682">
        <ele>108</ele>
        <time>2020-10-09T13:26:11.000Z</time>
      </trkpt>
      <trkpt lat="43.60435" lon="3.68683">
        <ele>107.97955139766</ele>
        <time>2020-10-09T13:26:16.000Z</time>
      </trkpt>
      <trkpt lat="43.60438" lon="3.68685">
        <ele>107.77505228633</ele>
        <time>2020-10-09T13:26:17.000Z</time>
      </trkpt>
      <trkpt lat="43.60441" lon="3.68686">
        <ele>107.570553175</ele>
        <time>2020-10-09T13:26:18.000Z</time>
      </trkpt>
      <trkpt lat="43.60443" lon="3.68687">
        <ele>107.36605406367</ele>
        <time>2020-10-09T13:26:19.000Z</time>
      </trkpt>
      <trkpt lat="43.60446" lon="3.68688">
        <ele>107.16155495235</ele>
        <time>2020-10-09T13:26:20.000Z</time>
      </trkpt>
      <trkpt lat="43.60449" lon="3.68689">
        <ele>106.75255672969</ele>
        <time>2020-10-09T13:26:22.000Z</time>
      </trkpt>
      <trkpt lat="43.6045" lon="3.68691">
        <ele>106.34355850703</ele>
        <time>2020-10-09T13:26:24.000Z</time>
      </trkpt>
      <trkpt lat="43.6045" lon="3.68691">
        <ele>106</ele>
        <time>2020-10-09T13:26:29.000Z</time>
      </trkpt>
      <trkpt lat="43.60451" lon="3.68697">
        <ele>104.97955139766</ele>
        <time>2020-10-09T13:26:44.000Z</time>
      </trkpt>
      <trkpt lat="43.60452" lon="3.687">
        <ele>104.36605406367</ele>
        <time>2020-10-09T13:26:47.000Z</time>
      </trkpt>
      <trkpt lat="43.60453" lon="3.68702">
        <ele>103.1390593957</ele>
        <time>2020-10-09T13:26:53.000Z</time>
      </trkpt>
      <trkpt lat="43.60453" lon="3.68703">
        <ele>103</ele>
        <time>2020-10-09T13:26:57.000Z</time>
      </trkpt>
      <trkpt lat="43.60458" lon="3.68701">
        <ele>103</ele>
        <time>2020-10-09T13:27:22.000Z</time>
      </trkpt>
      <trkpt lat="43.6046" lon="3.68698">
        <ele>103</ele>
        <time>2020-10-09T13:27:23.000Z</time>
      </trkpt>
      <trkpt lat="43.60462" lon="3.68694">
        <ele>103</ele>
        <time>2020-10-09T13:27:24.000Z</time>
      </trkpt>
      <trkpt lat="43.60463" lon="3.68691">
        <ele>103</ele>
        <time>2020-10-09T13:27:25.000Z</time>
      </trkpt>
      <trkpt lat="43.60465" lon="3.68686">
        <ele>103</ele>
        <time>2020-10-09T13:27:26.000Z</time>
      </trkpt>
      <trkpt lat="43.60467" lon="3.68682">
        <ele>103</ele>
        <time>2020-10-09T13:27:27.000Z</time>
      </trkpt>
      <trkpt lat="43.60469" lon="3.68677">
        <ele>103</ele>
        <time>2020-10-09T13:27:28.000Z</time>
      </trkpt>
      <trkpt lat="43.6047" lon="3.68673">
        <ele>103</ele>
        <time>2020-10-09T13:27:29.000Z</time>
      </trkpt>
      <trkpt lat="43.60471" lon="3.68668">
        <ele>103</ele>
        <time>2020-10-09T13:27:30.000Z</time>
      </trkpt>
      <trkpt lat="43.60472" lon="3.68664">
        <ele>103</ele>
        <time>2020-10-09T13:27:31.000Z</time>
      </trkpt>
      <trkpt lat="43.60473" lon="3.68659">
        <ele>103</ele>
        <time>2020-10-09T13:27:32.000Z</time>
      </trkpt>
      <trkpt lat="43.60474" lon="3.68655">
        <ele>103</ele>
        <time>2020-10-09T13:27:33.000Z</time>
      </trkpt>
      <trkpt lat="43.60475" lon="3.6865">
        <ele>103</ele>
        <time>2020-10-09T13:27:34.000Z</time>
      </trkpt>
      <trkpt lat="43.60476" lon="3.68646">
        <ele>103</ele>
        <time>2020-10-09T13:27:35.000Z</time>
      </trkpt>
      <trkpt lat="43.60478" lon="3.68642">
        <ele>103</ele>
        <time>2020-10-09T13:27:36.000Z</time>
      </trkpt>
      <trkpt lat="43.60479" lon="3.68638">
        <ele>103</ele>
        <time>2020-10-09T13:27:37.000Z</time>
      </trkpt>
      <trkpt lat="43.60481" lon="3.68634">
        <ele>103</ele>
        <time>2020-10-09T13:27:38.000Z</time>
      </trkpt>
      <trkpt lat="43.60483" lon="3.6863">
        <ele>103</ele>
        <time>2020-10-09T13:27:39.000Z</time>
      </trkpt>
      <trkpt lat="43.60484" lon="3.68626">
        <ele>103</ele>
        <time>2020-10-09T13:27:40.000Z</time>
      </trkpt>
      <trkpt lat="43.60486" lon="3.68622">
        <ele>103</ele>
        <time>2020-10-09T13:27:41.000Z</time>
      </trkpt>
      <trkpt lat="43.60488" lon="3.68619">
        <ele>103</ele>
        <time>2020-10-09T13:27:42.000Z</time>
      </trkpt>
      <trkpt lat="43.6049" lon="3.68615">
        <ele>103</ele>
        <time>2020-10-09T13:27:43.000Z</time>
      </trkpt>
      <trkpt lat="43.60491" lon="3.6861">
        <ele>103</ele>
        <time>2020-10-09T13:27:44.000Z</time>
      </trkpt>
      <trkpt lat="43.60493" lon="3.68606">
        <ele>103</ele>
        <time>2020-10-09T13:27:45.000Z</time>
      </trkpt>
      <trkpt lat="43.60495" lon="3.68602">
        <ele>103</ele>
        <time>2020-10-09T13:27:46.000Z</time>
      </trkpt>
      <trkpt lat="43.60497" lon="3.68599">
        <ele>103</ele>
        <time>2020-10-09T13:27:47.000Z</time>
      </trkpt>
      <trkpt lat="43.605" lon="3.68595">
        <ele>103</ele>
        <time>2020-10-09T13:27:48.000Z</time>
      </trkpt>
      <trkpt lat="43.60502" lon="3.68592">
        <ele>103</ele>
        <time>2020-10-09T13:27:49.000Z</time>
      </trkpt>
      <trkpt lat="43.60504" lon="3.68588">
        <ele>103</ele>
        <time>2020-10-09T13:27:50.000Z</time>
      </trkpt>
      <trkpt lat="43.60507" lon="3.68585">
        <ele>103</ele>
        <time>2020-10-09T13:27:51.000Z</time>
      </trkpt>
      <trkpt lat="43.6051" lon="3.68582">
        <ele>103</ele>
        <time>2020-10-09T13:27:52.000Z</time>
      </trkpt>
      <trkpt lat="43.60513" lon="3.68579">
        <ele>103</ele>
        <time>2020-10-09T13:27:53.000Z</time>
      </trkpt>
      <trkpt lat="43.60516" lon="3.68576">
        <ele>103</ele>
        <time>2020-10-09T13:27:54.000Z</time>
      </trkpt>
      <trkpt lat="43.60519" lon="3.68573">
        <ele>103</ele>
        <time>2020-10-09T13:27:55.000Z</time>
      </trkpt>
      <trkpt lat="43.60521" lon="3.68571">
        <ele>103</ele>
        <time>2020-10-09T13:27:56.000Z</time>
      </trkpt>
      <trkpt lat="43.60524" lon="3.68568">
        <ele>103</ele>
        <time>2020-10-09T13:27:57.000Z</time>
      </trkpt>
      <trkpt lat="43.60527" lon="3.68565">
        <ele>103</ele>
        <time>2020-10-09T13:27:58.000Z</time>
      </trkpt>
      <trkpt lat="43.60531" lon="3.68563">
        <ele>103</ele>
        <time>2020-10-09T13:27:59.000Z</time>
      </trkpt>
      <trkpt lat="43.60535" lon="3.68561">
        <ele>103</ele>
        <time>2020-10-09T13:28:00.000Z</time>
      </trkpt>
      <trkpt lat="43.60538" lon="3.6856">
        <ele>103</ele>
        <time>2020-10-09T13:28:01.000Z</time>
      </trkpt>
      <trkpt lat="43.60542" lon="3.68558">
        <ele>103.01425726158</ele>
        <time>2020-10-09T13:28:02.000Z</time>
      </trkpt>
      <trkpt lat="43.60545" lon="3.68557">
        <ele>103.11609018911</ele>
        <time>2020-10-09T13:28:03.000Z</time>
      </trkpt>
      <trkpt lat="43.60549" lon="3.68556">
        <ele>103.21792311663</ele>
        <time>2020-10-09T13:28:04.000Z</time>
      </trkpt>
      <trkpt lat="43.60552" lon="3.68555">
        <ele>103.31975604415</ele>
        <time>2020-10-09T13:28:05.000Z</time>
      </trkpt>
      <trkpt lat="43.60555" lon="3.68554">
        <ele>103.42158897167</ele>
        <time>2020-10-09T13:28:06.000Z</time>
      </trkpt>
      <trkpt lat="43.60559" lon="3.68554">
        <ele>103.5234218992</ele>
        <time>2020-10-09T13:28:07.000Z</time>
      </trkpt>
      <trkpt lat="43.60562" lon="3.68553">
        <ele>103.62525482672</ele>
        <time>2020-10-09T13:28:08.000Z</time>
      </trkpt>
      <trkpt lat="43.60564" lon="3.68553">
        <ele>103.72708775424</ele>
        <time>2020-10-09T13:28:09.000Z</time>
      </trkpt>
      <trkpt lat="43.60567" lon="3.68553">
        <ele>103.82892068176</ele>
        <time>2020-10-09T13:28:10.000Z</time>
      </trkpt>
      <trkpt lat="43.60569" lon="3.68555">
        <ele>103.93075360929</ele>
        <time>2020-10-09T13:28:11.000Z</time>
      </trkpt>
      <trkpt lat="43.60569" lon="3.68558">
        <ele>104.032</ele>
        <time>2020-10-09T13:28:12.000Z</time>
      </trkpt>
      <trkpt lat="43.60569" lon="3.68561">
        <ele>104.132</ele>
        <time>2020-10-09T13:28:13.000Z</time>
      </trkpt>
      <trkpt lat="43.60569" lon="3.68564">
        <ele>104.232</ele>
        <time>2020-10-09T13:28:14.000Z</time>
      </trkpt>
      <trkpt lat="43.6057" lon="3.68566">
        <ele>104.332</ele>
        <time>2020-10-09T13:28:15.000Z</time>
      </trkpt>
      <trkpt lat="43.60571" lon="3.68569">
        <ele>104.432</ele>
        <time>2020-10-09T13:28:16.000Z</time>
      </trkpt>
      <trkpt lat="43.60573" lon="3.68572">
        <ele>104.532</ele>
        <time>2020-10-09T13:28:17.000Z</time>
      </trkpt>
      <trkpt lat="43.60575" lon="3.68575">
        <ele>104.632</ele>
        <time>2020-10-09T13:28:18.000Z</time>
      </trkpt>
      <trkpt lat="43.60576" lon="3.68579">
        <ele>104.732</ele>
        <time>2020-10-09T13:28:19.000Z</time>
      </trkpt>
      <trkpt lat="43.60578" lon="3.68582">
        <ele>104.832</ele>
        <time>2020-10-09T13:28:20.000Z</time>
      </trkpt>
      <trkpt lat="43.6058" lon="3.68586">
        <ele>104.932</ele>
        <time>2020-10-09T13:28:21.000Z</time>
      </trkpt>
      <trkpt lat="43.60581" lon="3.68589">
        <ele>105.032</ele>
        <time>2020-10-09T13:28:22.000Z</time>
      </trkpt>
      <trkpt lat="43.60583" lon="3.68593">
        <ele>105.132</ele>
        <time>2020-10-09T13:28:23.000Z</time>
      </trkpt>
      <trkpt lat="43.60584" lon="3.68596">
        <ele>105.232</ele>
        <time>2020-10-09T13:28:24.000Z</time>
      </trkpt>
      <trkpt lat="43.60586" lon="3.68599">
        <ele>105.332</ele>
        <time>2020-10-09T13:28:25.000Z</time>
      </trkpt>
      <trkpt lat="43.60587" lon="3.68603">
        <ele>105.432</ele>
        <time>2020-10-09T13:28:26.000Z</time>
      </trkpt>
      <trkpt lat="43.60588" lon="3.68606">
        <ele>105.532</ele>
        <time>2020-10-09T13:28:27.000Z</time>
      </trkpt>
      <trkpt lat="43.6059" lon="3.68609">
        <ele>105.632</ele>
        <time>2020-10-09T13:28:28.000Z</time>
      </trkpt>
      <trkpt lat="43.60591" lon="3.68612">
        <ele>105.732</ele>
        <time>2020-10-09T13:28:29.000Z</time>
      </trkpt>
      <trkpt lat="43.60592" lon="3.68616">
        <ele>105.832</ele>
        <time>2020-10-09T13:28:30.000Z</time>
      </trkpt>
      <trkpt lat="43.60593" lon="3.68619">
        <ele>105.932</ele>
        <time>2020-10-09T13:28:31.000Z</time>
      </trkpt>
      <trkpt lat="43.60595" lon="3.68623">
        <ele>106</ele>
        <time>2020-10-09T13:28:32.000Z</time>
      </trkpt>
      <trkpt lat="43.60596" lon="3.68626">
        <ele>106</ele>
        <time>2020-10-09T13:28:33.000Z</time>
      </trkpt>
      <trkpt lat="43.60598" lon="3.6863">
        <ele>106</ele>
        <time>2020-10-09T13:28:34.000Z</time>
      </trkpt>
      <trkpt lat="43.60599" lon="3.68633">
        <ele>106</ele>
        <time>2020-10-09T13:28:35.000Z</time>
      </trkpt>
      <trkpt lat="43.60601" lon="3.68637">
        <ele>106</ele>
        <time>2020-10-09T13:28:36.000Z</time>
      </trkpt>
      <trkpt lat="43.60603" lon="3.6864">
        <ele>106</ele>
        <time>2020-10-09T13:28:37.000Z</time>
      </trkpt>
      <trkpt lat="43.60604" lon="3.68644">
        <ele>106</ele>
        <time>2020-10-09T13:28:38.000Z</time>
      </trkpt>
      <trkpt lat="43.60606" lon="3.68647">
        <ele>106</ele>
        <time>2020-10-09T13:28:39.000Z</time>
      </trkpt>
      <trkpt lat="43.60607" lon="3.6865">
        <ele>106</ele>
        <time>2020-10-09T13:28:40.000Z</time>
      </trkpt>
      <trkpt lat="43.60609" lon="3.68653">
        <ele>106</ele>
        <time>2020-10-09T13:28:41.000Z</time>
      </trkpt>
      <trkpt lat="43.60611" lon="3.68656">
        <ele>106.02419354839</ele>
        <time>2020-10-09T13:28:42.000Z</time>
      </trkpt>
      <trkpt lat="43.60613" lon="3.68659">
        <ele>106.125</ele>
        <time>2020-10-09T13:28:43.000Z</time>
      </trkpt>
      <trkpt lat="43.60615" lon="3.68662">
        <ele>106.22580645161</ele>
        <time>2020-10-09T13:28:44.000Z</time>
      </trkpt>
      <trkpt lat="43.60616" lon="3.68666">
        <ele>106.32661290323</ele>
        <time>2020-10-09T13:28:45.000Z</time>
      </trkpt>
      <trkpt lat="43.60618" lon="3.68669">
        <ele>106.42741935484</ele>
        <time>2020-10-09T13:28:46.000Z</time>
      </trkpt>
      <trkpt lat="43.6062" lon="3.68672">
        <ele>106.52822580645</ele>
        <time>2020-10-09T13:28:47.000Z</time>
      </trkpt>
      <trkpt lat="43.60621" lon="3.68675">
        <ele>106.62903225806</ele>
        <time>2020-10-09T13:28:48.000Z</time>
      </trkpt>
      <trkpt lat="43.60623" lon="3.68678">
        <ele>106.72983870968</ele>
        <time>2020-10-09T13:28:49.000Z</time>
      </trkpt>
      <trkpt lat="43.60625" lon="3.68681">
        <ele>106.83064516129</ele>
        <time>2020-10-09T13:28:50.000Z</time>
      </trkpt>
      <trkpt lat="43.60627" lon="3.68684">
        <ele>106.9314516129</ele>
        <time>2020-10-09T13:28:51.000Z</time>
      </trkpt>
      <trkpt lat="43.60629" lon="3.68686">
        <ele>107</ele>
        <time>2020-10-09T13:28:52.000Z</time>
      </trkpt>
      <trkpt lat="43.60631" lon="3.68689">
        <ele>107</ele>
        <time>2020-10-09T13:28:53.000Z</time>
      </trkpt>
      <trkpt lat="43.60633" lon="3.68691">
        <ele>107</ele>
        <time>2020-10-09T13:28:54.000Z</time>
      </trkpt>
      <trkpt lat="43.60636" lon="3.68693">
        <ele>107</ele>
        <time>2020-10-09T13:28:55.000Z</time>
      </trkpt>
      <trkpt lat="43.60638" lon="3.68694">
        <ele>107</ele>
        <time>2020-10-09T13:28:56.000Z</time>
      </trkpt>
      <trkpt lat="43.60641" lon="3.68696">
        <ele>107</ele>
        <time>2020-10-09T13:28:57.000Z</time>
      </trkpt>
      <trkpt lat="43.60643" lon="3.68698">
        <ele>107</ele>
        <time>2020-10-09T13:28:58.000Z</time>
      </trkpt>
      <trkpt lat="43.60646" lon="3.68699">
        <ele>107</ele>
        <time>2020-10-09T13:28:59.000Z</time>
      </trkpt>
      <trkpt lat="43.60649" lon="3.68701">
        <ele>107</ele>
        <time>2020-10-09T13:29:00.000Z</time>
      </trkpt>
      <trkpt lat="43.60651" lon="3.68702">
        <ele>107</ele>
        <time>2020-10-09T13:29:01.000Z</time>
      </trkpt>
      <trkpt lat="43.60654" lon="3.68703">
        <ele>107</ele>
        <time>2020-10-09T13:29:02.000Z</time>
      </trkpt>
      <trkpt lat="43.60657" lon="3.68704">
        <ele>107</ele>
        <time>2020-10-09T13:29:03.000Z</time>
      </trkpt>
      <trkpt lat="43.60659" lon="3.68705">
        <ele>107</ele>
        <time>2020-10-09T13:29:04.000Z</time>
      </trkpt>
      <trkpt lat="43.60662" lon="3.68706">
        <ele>107</ele>
        <time>2020-10-09T13:29:05.000Z</time>
      </trkpt>
      <trkpt lat="43.60664" lon="3.68708">
        <ele>107</ele>
        <time>2020-10-09T13:29:06.000Z</time>
      </trkpt>
      <trkpt lat="43.60667" lon="3.6871">
        <ele>107</ele>
        <time>2020-10-09T13:29:07.000Z</time>
      </trkpt>
      <trkpt lat="43.6067" lon="3.68712">
        <ele>107</ele>
        <time>2020-10-09T13:29:08.000Z</time>
      </trkpt>
      <trkpt lat="43.60674" lon="3.68712">
        <ele>107</ele>
        <time>2020-10-09T13:29:09.000Z</time>
      </trkpt>
      <trkpt lat="43.60677" lon="3.68712">
        <ele>107</ele>
        <time>2020-10-09T13:29:10.000Z</time>
      </trkpt>
      <trkpt lat="43.60681" lon="3.68711">
        <ele>107</ele>
        <time>2020-10-09T13:29:11.000Z</time>
      </trkpt>
      <trkpt lat="43.60683" lon="3.68711">
        <ele>107.032</ele>
        <time>2020-10-09T13:29:12.000Z</time>
      </trkpt>
      <trkpt lat="43.60686" lon="3.6871">
        <ele>107.132</ele>
        <time>2020-10-09T13:29:13.000Z</time>
      </trkpt>
      <trkpt lat="43.60689" lon="3.68709">
        <ele>107.232</ele>
        <time>2020-10-09T13:29:14.000Z</time>
      </trkpt>
      <trkpt lat="43.60692" lon="3.68708">
        <ele>107.332</ele>
        <time>2020-10-09T13:29:15.000Z</time>
      </trkpt>
      <trkpt lat="43.60694" lon="3.68707">
        <ele>107.432</ele>
        <time>2020-10-09T13:29:16.000Z</time>
      </trkpt>
      <trkpt lat="43.60697" lon="3.68707">
        <ele>107.532</ele>
        <time>2020-10-09T13:29:17.000Z</time>
      </trkpt>
      <trkpt lat="43.607" lon="3.68707">
        <ele>107.632</ele>
        <time>2020-10-09T13:29:18.000Z</time>
      </trkpt>
      <trkpt lat="43.60702" lon="3.68706">
        <ele>107.732</ele>
        <time>2020-10-09T13:29:19.000Z</time>
      </trkpt>
      <trkpt lat="43.60704" lon="3.68706">
        <ele>107.832</ele>
        <time>2020-10-09T13:29:20.000Z</time>
      </trkpt>
      <trkpt lat="43.60706" lon="3.68706">
        <ele>107.932</ele>
        <time>2020-10-09T13:29:21.000Z</time>
      </trkpt>
      <trkpt lat="43.60708" lon="3.68706">
        <ele>108.032</ele>
        <time>2020-10-09T13:29:22.000Z</time>
      </trkpt>
      <trkpt lat="43.60711" lon="3.68706">
        <ele>108.132</ele>
        <time>2020-10-09T13:29:23.000Z</time>
      </trkpt>
      <trkpt lat="43.60713" lon="3.68706">
        <ele>108.232</ele>
        <time>2020-10-09T13:29:24.000Z</time>
      </trkpt>
      <trkpt lat="43.60716" lon="3.68706">
        <ele>108.332</ele>
        <time>2020-10-09T13:29:25.000Z</time>
      </trkpt>
      <trkpt lat="43.60719" lon="3.68707">
        <ele>108.432</ele>
        <time>2020-10-09T13:29:26.000Z</time>
      </trkpt>
      <trkpt lat="43.60722" lon="3.68707">
        <ele>108.532</ele>
        <time>2020-10-09T13:29:27.000Z</time>
      </trkpt>
      <trkpt lat="43.60725" lon="3.68708">
        <ele>108.632</ele>
        <time>2020-10-09T13:29:28.000Z</time>
      </trkpt>
      <trkpt lat="43.60728" lon="3.68709">
        <ele>108.732</ele>
        <time>2020-10-09T13:29:29.000Z</time>
      </trkpt>
      <trkpt lat="43.6073" lon="3.6871">
        <ele>108.832</ele>
        <time>2020-10-09T13:29:30.000Z</time>
      </trkpt>
      <trkpt lat="43.60733" lon="3.68711">
        <ele>108.932</ele>
        <time>2020-10-09T13:29:31.000Z</time>
      </trkpt>
      <trkpt lat="43.60736" lon="3.68712">
        <ele>109.032</ele>
        <time>2020-10-09T13:29:32.000Z</time>
      </trkpt>
      <trkpt lat="43.60739" lon="3.68713">
        <ele>109.132</ele>
        <time>2020-10-09T13:29:33.000Z</time>
      </trkpt>
      <trkpt lat="43.60742" lon="3.68713">
        <ele>109.232</ele>
        <time>2020-10-09T13:29:34.000Z</time>
      </trkpt>
      <trkpt lat="43.60745" lon="3.68714">
        <ele>109.332</ele>
        <time>2020-10-09T13:29:35.000Z</time>
      </trkpt>
      <trkpt lat="43.60748" lon="3.68715">
        <ele>109.432</ele>
        <time>2020-10-09T13:29:36.000Z</time>
      </trkpt>
      <trkpt lat="43.60751" lon="3.68715">
        <ele>109.532</ele>
        <time>2020-10-09T13:29:37.000Z</time>
      </trkpt>
      <trkpt lat="43.60754" lon="3.68715">
        <ele>109.632</ele>
        <time>2020-10-09T13:29:38.000Z</time>
      </trkpt>
      <trkpt lat="43.60757" lon="3.68715">
        <ele>109.732</ele>
        <time>2020-10-09T13:29:39.000Z</time>
      </trkpt>
      <trkpt lat="43.6076" lon="3.68715">
        <ele>109.832</ele>
        <time>2020-10-09T13:29:40.000Z</time>
      </trkpt>
      <trkpt lat="43.60763" lon="3.68715">
        <ele>109.932</ele>
        <time>2020-10-09T13:29:41.000Z</time>
      </trkpt>
      <trkpt lat="43.60766" lon="3.68715">
        <ele>110.032</ele>
        <time>2020-10-09T13:29:42.000Z</time>
      </trkpt>
      <trkpt lat="43.60769" lon="3.68715">
        <ele>110.132</ele>
        <time>2020-10-09T13:29:43.000Z</time>
      </trkpt>
      <trkpt lat="43.60772" lon="3.68714">
        <ele>110.232</ele>
        <time>2020-10-09T13:29:44.000Z</time>
      </trkpt>
      <trkpt lat="43.60775" lon="3.68714">
        <ele>110.332</ele>
        <time>2020-10-09T13:29:45.000Z</time>
      </trkpt>
      <trkpt lat="43.60778" lon="3.68713">
        <ele>110.432</ele>
        <time>2020-10-09T13:29:46.000Z</time>
      </trkpt>
      <trkpt lat="43.60781" lon="3.68713">
        <ele>110.532</ele>
        <time>2020-10-09T13:29:47.000Z</time>
      </trkpt>
      <trkpt lat="43.60784" lon="3.68712">
        <ele>110.632</ele>
        <time>2020-10-09T13:29:48.000Z</time>
      </trkpt>
      <trkpt lat="43.60787" lon="3.68711">
        <ele>110.732</ele>
        <time>2020-10-09T13:29:49.000Z</time>
      </trkpt>
      <trkpt lat="43.6079" lon="3.6871">
        <ele>110.832</ele>
        <time>2020-10-09T13:29:50.000Z</time>
      </trkpt>
      <trkpt lat="43.60793" lon="3.6871">
        <ele>110.932</ele>
        <time>2020-10-09T13:29:51.000Z</time>
      </trkpt>
      <trkpt lat="43.60797" lon="3.6871">
        <ele>111.032</ele>
        <time>2020-10-09T13:29:52.000Z</time>
      </trkpt>
      <trkpt lat="43.608" lon="3.68709">
        <ele>111.132</ele>
        <time>2020-10-09T13:29:53.000Z</time>
      </trkpt>
      <trkpt lat="43.60803" lon="3.68709">
        <ele>111.232</ele>
        <time>2020-10-09T13:29:54.000Z</time>
      </trkpt>
      <trkpt lat="43.60805" lon="3.68709">
        <ele>111.332</ele>
        <time>2020-10-09T13:29:55.000Z</time>
      </trkpt>
      <trkpt lat="43.60808" lon="3.6871">
        <ele>111.432</ele>
        <time>2020-10-09T13:29:56.000Z</time>
      </trkpt>
      <trkpt lat="43.60811" lon="3.6871">
        <ele>111.532</ele>
        <time>2020-10-09T13:29:57.000Z</time>
      </trkpt>
      <trkpt lat="43.60814" lon="3.68711">
        <ele>111.632</ele>
        <time>2020-10-09T13:29:58.000Z</time>
      </trkpt>
      <trkpt lat="43.60817" lon="3.68713">
        <ele>111.732</ele>
        <time>2020-10-09T13:29:59.000Z</time>
      </trkpt>
      <trkpt lat="43.60819" lon="3.68715">
        <ele>111.832</ele>
        <time>2020-10-09T13:30:00.000Z</time>
      </trkpt>
      <trkpt lat="43.60821" lon="3.68716">
        <ele>111.932</ele>
        <time>2020-10-09T13:30:01.000Z</time>
      </trkpt>
      <trkpt lat="43.60823" lon="3.68719">
        <ele>112.032</ele>
        <time>2020-10-09T13:30:02.000Z</time>
      </trkpt>
      <trkpt lat="43.60825" lon="3.6872">
        <ele>112.132</ele>
        <time>2020-10-09T13:30:03.000Z</time>
      </trkpt>
      <trkpt lat="43.60827" lon="3.68722">
        <ele>112.232</ele>
        <time>2020-10-09T13:30:04.000Z</time>
      </trkpt>
      <trkpt lat="43.60829" lon="3.68725">
        <ele>112.332</ele>
        <time>2020-10-09T13:30:05.000Z</time>
      </trkpt>
      <trkpt lat="43.60831" lon="3.68727">
        <ele>112.432</ele>
        <time>2020-10-09T13:30:06.000Z</time>
      </trkpt>
      <trkpt lat="43.60832" lon="3.68729">
        <ele>112.532</ele>
        <time>2020-10-09T13:30:07.000Z</time>
      </trkpt>
      <trkpt lat="43.60834" lon="3.68732">
        <ele>112.632</ele>
        <time>2020-10-09T13:30:08.000Z</time>
      </trkpt>
      <trkpt lat="43.60835" lon="3.68734">
        <ele>112.732</ele>
        <time>2020-10-09T13:30:09.000Z</time>
      </trkpt>
      <trkpt lat="43.60837" lon="3.68736">
        <ele>112.832</ele>
        <time>2020-10-09T13:30:10.000Z</time>
      </trkpt>
      <trkpt lat="43.60839" lon="3.68738">
        <ele>112.932</ele>
        <time>2020-10-09T13:30:11.000Z</time>
      </trkpt>
      <trkpt lat="43.6084" lon="3.68741">
        <ele>113.032</ele>
        <time>2020-10-09T13:30:12.000Z</time>
      </trkpt>
      <trkpt lat="43.60841" lon="3.68743">
        <ele>113.132</ele>
        <time>2020-10-09T13:30:13.000Z</time>
      </trkpt>
      <trkpt lat="43.60842" lon="3.68746">
        <ele>113.232</ele>
        <time>2020-10-09T13:30:14.000Z</time>
      </trkpt>
      <trkpt lat="43.60844" lon="3.68749">
        <ele>113.332</ele>
        <time>2020-10-09T13:30:15.000Z</time>
      </trkpt>
      <trkpt lat="43.60845" lon="3.68751">
        <ele>113.432</ele>
        <time>2020-10-09T13:30:16.000Z</time>
      </trkpt>
      <trkpt lat="43.60846" lon="3.68754">
        <ele>113.532</ele>
        <time>2020-10-09T13:30:17.000Z</time>
      </trkpt>
      <trkpt lat="43.60847" lon="3.68757">
        <ele>113.632</ele>
        <time>2020-10-09T13:30:18.000Z</time>
      </trkpt>
      <trkpt lat="43.60849" lon="3.68759">
        <ele>113.732</ele>
        <time>2020-10-09T13:30:19.000Z</time>
      </trkpt>
      <trkpt lat="43.60851" lon="3.68762">
        <ele>113.832</ele>
        <time>2020-10-09T13:30:20.000Z</time>
      </trkpt>
      <trkpt lat="43.60852" lon="3.68764">
        <ele>113.932</ele>
        <time>2020-10-09T13:30:21.000Z</time>
      </trkpt>
      <trkpt lat="43.60854" lon="3.68767">
        <ele>114.03155816549</ele>
        <time>2020-10-09T13:30:22.000Z</time>
      </trkpt>
      <trkpt lat="43.60855" lon="3.6877">
        <ele>114.13017743263</ele>
        <time>2020-10-09T13:30:23.000Z</time>
      </trkpt>
      <trkpt lat="43.60857" lon="3.68773">
        <ele>114.22879669977</ele>
        <time>2020-10-09T13:30:24.000Z</time>
      </trkpt>
      <trkpt lat="43.60858" lon="3.68776">
        <ele>114.32741596692</ele>
        <time>2020-10-09T13:30:25.000Z</time>
      </trkpt>
      <trkpt lat="43.60859" lon="3.68778">
        <ele>114.42603523406</ele>
        <time>2020-10-09T13:30:26.000Z</time>
      </trkpt>
      <trkpt lat="43.60861" lon="3.68781">
        <ele>114.5246545012</ele>
        <time>2020-10-09T13:30:27.000Z</time>
      </trkpt>
      <trkpt lat="43.60862" lon="3.68783">
        <ele>114.62327376835</ele>
        <time>2020-10-09T13:30:28.000Z</time>
      </trkpt>
      <trkpt lat="43.60863" lon="3.68786">
        <ele>114.72189303549</ele>
        <time>2020-10-09T13:30:29.000Z</time>
      </trkpt>
      <trkpt lat="43.60865" lon="3.68788">
        <ele>114.82051230263</ele>
        <time>2020-10-09T13:30:30.000Z</time>
      </trkpt>
      <trkpt lat="43.60866" lon="3.68791">
        <ele>114.91913156978</ele>
        <time>2020-10-09T13:30:31.000Z</time>
      </trkpt>
      <trkpt lat="43.60868" lon="3.68793">
        <ele>115.01825494086</ele>
        <time>2020-10-09T13:30:32.000Z</time>
      </trkpt>
      <trkpt lat="43.60869" lon="3.68796">
        <ele>115.11967488498</ele>
        <time>2020-10-09T13:30:33.000Z</time>
      </trkpt>
      <trkpt lat="43.60871" lon="3.68798">
        <ele>115.22109482911</ele>
        <time>2020-10-09T13:30:34.000Z</time>
      </trkpt>
      <trkpt lat="43.60873" lon="3.68801">
        <ele>115.32251477323</ele>
        <time>2020-10-09T13:30:35.000Z</time>
      </trkpt>
      <trkpt lat="43.60874" lon="3.68803">
        <ele>115.42393471736</ele>
        <time>2020-10-09T13:30:36.000Z</time>
      </trkpt>
      <trkpt lat="43.60876" lon="3.68806">
        <ele>115.52535466149</ele>
        <time>2020-10-09T13:30:37.000Z</time>
      </trkpt>
      <trkpt lat="43.60877" lon="3.68809">
        <ele>115.62677460561</ele>
        <time>2020-10-09T13:30:38.000Z</time>
      </trkpt>
      <trkpt lat="43.60879" lon="3.68812">
        <ele>115.72819454974</ele>
        <time>2020-10-09T13:30:39.000Z</time>
      </trkpt>
      <trkpt lat="43.6088" lon="3.68815">
        <ele>115.82961449387</ele>
        <time>2020-10-09T13:30:40.000Z</time>
      </trkpt>
      <trkpt lat="43.60882" lon="3.68818">
        <ele>115.93103443799</ele>
        <time>2020-10-09T13:30:41.000Z</time>
      </trkpt>
      <trkpt lat="43.60883" lon="3.6882">
        <ele>116.03109816322</ele>
        <time>2020-10-09T13:30:42.000Z</time>
      </trkpt>
      <trkpt lat="43.60884" lon="3.68824">
        <ele>116.12827992328</ele>
        <time>2020-10-09T13:30:43.000Z</time>
      </trkpt>
      <trkpt lat="43.60885" lon="3.68827">
        <ele>116.22546168333</ele>
        <time>2020-10-09T13:30:44.000Z</time>
      </trkpt>
      <trkpt lat="43.60887" lon="3.68829">
        <ele>116.32264344339</ele>
        <time>2020-10-09T13:30:45.000Z</time>
      </trkpt>
      <trkpt lat="43.60888" lon="3.68832">
        <ele>116.41982520344</ele>
        <time>2020-10-09T13:30:46.000Z</time>
      </trkpt>
      <trkpt lat="43.60889" lon="3.68835">
        <ele>116.5170069635</ele>
        <time>2020-10-09T13:30:47.000Z</time>
      </trkpt>
      <trkpt lat="43.60891" lon="3.68837">
        <ele>116.61418872356</ele>
        <time>2020-10-09T13:30:48.000Z</time>
      </trkpt>
      <trkpt lat="43.60892" lon="3.6884">
        <ele>116.71137048361</ele>
        <time>2020-10-09T13:30:49.000Z</time>
      </trkpt>
      <trkpt lat="43.60893" lon="3.68842">
        <ele>116.80855224367</ele>
        <time>2020-10-09T13:30:50.000Z</time>
      </trkpt>
      <trkpt lat="43.60895" lon="3.68845">
        <ele>116.90573400373</ele>
        <time>2020-10-09T13:30:51.000Z</time>
      </trkpt>
      <trkpt lat="43.60896" lon="3.68847">
        <ele>117</ele>
        <time>2020-10-09T13:30:52.000Z</time>
      </trkpt>
      <trkpt lat="43.60898" lon="3.68849">
        <ele>117</ele>
        <time>2020-10-09T13:30:53.000Z</time>
      </trkpt>
      <trkpt lat="43.609" lon="3.68851">
        <ele>117</ele>
        <time>2020-10-09T13:30:54.000Z</time>
      </trkpt>
      <trkpt lat="43.60902" lon="3.68854">
        <ele>117</ele>
        <time>2020-10-09T13:30:55.000Z</time>
      </trkpt>
      <trkpt lat="43.60903" lon="3.68856">
        <ele>117</ele>
        <time>2020-10-09T13:30:56.000Z</time>
      </trkpt>
      <trkpt lat="43.60905" lon="3.68858">
        <ele>117</ele>
        <time>2020-10-09T13:30:57.000Z</time>
      </trkpt>
      <trkpt lat="43.60907" lon="3.6886">
        <ele>117</ele>
        <time>2020-10-09T13:30:58.000Z</time>
      </trkpt>
      <trkpt lat="43.60909" lon="3.68862">
        <ele>117</ele>
        <time>2020-10-09T13:30:59.000Z</time>
      </trkpt>
      <trkpt lat="43.60911" lon="3.68864">
        <ele>117</ele>
        <time>2020-10-09T13:31:00.000Z</time>
      </trkpt>
      <trkpt lat="43.60913" lon="3.68866">
        <ele>117</ele>
        <time>2020-10-09T13:31:01.000Z</time>
      </trkpt>
      <trkpt lat="43.60916" lon="3.68868">
        <ele>117.03174603175</ele>
        <time>2020-10-09T13:31:02.000Z</time>
      </trkpt>
      <trkpt lat="43.60919" lon="3.6887">
        <ele>117.13095238095</ele>
        <time>2020-10-09T13:31:03.000Z</time>
      </trkpt>
      <trkpt lat="43.60922" lon="3.68872">
        <ele>117.23015873016</ele>
        <time>2020-10-09T13:31:04.000Z</time>
      </trkpt>
      <trkpt lat="43.60924" lon="3.68874">
        <ele>117.32936507937</ele>
        <time>2020-10-09T13:31:05.000Z</time>
      </trkpt>
      <trkpt lat="43.60927" lon="3.68876">
        <ele>117.42857142857</ele>
        <time>2020-10-09T13:31:06.000Z</time>
      </trkpt>
      <trkpt lat="43.60929" lon="3.68878">
        <ele>117.52777777778</ele>
        <time>2020-10-09T13:31:07.000Z</time>
      </trkpt>
      <trkpt lat="43.60932" lon="3.6888">
        <ele>117.62698412698</ele>
        <time>2020-10-09T13:31:08.000Z</time>
      </trkpt>
      <trkpt lat="43.60934" lon="3.68881">
        <ele>117.72619047619</ele>
        <time>2020-10-09T13:31:09.000Z</time>
      </trkpt>
      <trkpt lat="43.60937" lon="3.68883">
        <ele>117.8253968254</ele>
        <time>2020-10-09T13:31:10.000Z</time>
      </trkpt>
      <trkpt lat="43.60939" lon="3.68885">
        <ele>117.9246031746</ele>
        <time>2020-10-09T13:31:11.000Z</time>
      </trkpt>
      <trkpt lat="43.60942" lon="3.68887">
        <ele>118</ele>
        <time>2020-10-09T13:31:12.000Z</time>
      </trkpt>
      <trkpt lat="43.60944" lon="3.68888">
        <ele>118</ele>
        <time>2020-10-09T13:31:13.000Z</time>
      </trkpt>
      <trkpt lat="43.60946" lon="3.6889">
        <ele>118</ele>
        <time>2020-10-09T13:31:14.000Z</time>
      </trkpt>
      <trkpt lat="43.60948" lon="3.68891">
        <ele>118</ele>
        <time>2020-10-09T13:31:15.000Z</time>
      </trkpt>
      <trkpt lat="43.6095" lon="3.68893">
        <ele>118</ele>
        <time>2020-10-09T13:31:16.000Z</time>
      </trkpt>
      <trkpt lat="43.60952" lon="3.68895">
        <ele>118</ele>
        <time>2020-10-09T13:31:17.000Z</time>
      </trkpt>
      <trkpt lat="43.60954" lon="3.68896">
        <ele>118</ele>
        <time>2020-10-09T13:31:18.000Z</time>
      </trkpt>
      <trkpt lat="43.60956" lon="3.68898">
        <ele>118</ele>
        <time>2020-10-09T13:31:19.000Z</time>
      </trkpt>
      <trkpt lat="43.60959" lon="3.68899">
        <ele>118</ele>
        <time>2020-10-09T13:31:20.000Z</time>
      </trkpt>
      <trkpt lat="43.6096" lon="3.689">
        <ele>118</ele>
        <time>2020-10-09T13:31:21.000Z</time>
      </trkpt>
      <trkpt lat="43.60963" lon="3.68901">
        <ele>118</ele>
        <time>2020-10-09T13:31:22.000Z</time>
      </trkpt>
      <trkpt lat="43.60965" lon="3.68902">
        <ele>118</ele>
        <time>2020-10-09T13:31:23.000Z</time>
      </trkpt>
      <trkpt lat="43.60967" lon="3.68902">
        <ele>118</ele>
        <time>2020-10-09T13:31:24.000Z</time>
      </trkpt>
      <trkpt lat="43.60969" lon="3.68903">
        <ele>118</ele>
        <time>2020-10-09T13:31:25.000Z</time>
      </trkpt>
      <trkpt lat="43.60971" lon="3.68903">
        <ele>118</ele>
        <time>2020-10-09T13:31:26.000Z</time>
      </trkpt>
      <trkpt lat="43.60975" lon="3.68904">
        <ele>118</ele>
        <time>2020-10-09T13:31:28.000Z</time>
      </trkpt>
      <trkpt lat="43.60977" lon="3.68905">
        <ele>118</ele>
        <time>2020-10-09T13:31:29.000Z</time>
      </trkpt>
      <trkpt lat="43.60978" lon="3.68906">
        <ele>118</ele>
        <time>2020-10-09T13:31:30.000Z</time>
      </trkpt>
      <trkpt lat="43.6098" lon="3.68907">
        <ele>118</ele>
        <time>2020-10-09T13:31:31.000Z</time>
      </trkpt>
      <trkpt lat="43.60982" lon="3.68909">
        <ele>118.00616715516</ele>
        <time>2020-10-09T13:31:32.000Z</time>
      </trkpt>
      <trkpt lat="43.60983" lon="3.68912">
        <ele>118.2117170686</ele>
        <time>2020-10-09T13:31:33.000Z</time>
      </trkpt>
      <trkpt lat="43.60985" lon="3.68914">
        <ele>118.41726698204</ele>
        <time>2020-10-09T13:31:34.000Z</time>
      </trkpt>
      <trkpt lat="43.60987" lon="3.68916">
        <ele>118.62281689548</ele>
        <time>2020-10-09T13:31:35.000Z</time>
      </trkpt>
      <trkpt lat="43.60989" lon="3.68919">
        <ele>118.82836680892</ele>
        <time>2020-10-09T13:31:36.000Z</time>
      </trkpt>
      <trkpt lat="43.60991" lon="3.68921">
        <ele>119.03391672236</ele>
        <time>2020-10-09T13:31:37.000Z</time>
      </trkpt>
      <trkpt lat="43.60993" lon="3.68922">
        <ele>119.2394666358</ele>
        <time>2020-10-09T13:31:38.000Z</time>
      </trkpt>
      <trkpt lat="43.60995" lon="3.68924">
        <ele>119.44501654924</ele>
        <time>2020-10-09T13:31:39.000Z</time>
      </trkpt>
      <trkpt lat="43.60997" lon="3.68926">
        <ele>119.65056646267</ele>
        <time>2020-10-09T13:31:40.000Z</time>
      </trkpt>
      <trkpt lat="43.60998" lon="3.68928">
        <ele>119.85611637611</ele>
        <time>2020-10-09T13:31:41.000Z</time>
      </trkpt>
      <trkpt lat="43.61" lon="3.68929">
        <ele>120</ele>
        <time>2020-10-09T13:31:42.000Z</time>
      </trkpt>
      <trkpt lat="43.61002" lon="3.68931">
        <ele>120</ele>
        <time>2020-10-09T13:31:43.000Z</time>
      </trkpt>
      <trkpt lat="43.61004" lon="3.68933">
        <ele>120</ele>
        <time>2020-10-09T13:31:44.000Z</time>
      </trkpt>
      <trkpt lat="43.61005" lon="3.68935">
        <ele>120</ele>
        <time>2020-10-09T13:31:45.000Z</time>
      </trkpt>
      <trkpt lat="43.61006" lon="3.68937">
        <ele>120</ele>
        <time>2020-10-09T13:31:46.000Z</time>
      </trkpt>
      <trkpt lat="43.61007" lon="3.68939">
        <ele>120</ele>
        <time>2020-10-09T13:31:47.000Z</time>
      </trkpt>
      <trkpt lat="43.61009" lon="3.68943">
        <ele>120</ele>
        <time>2020-10-09T13:31:49.000Z</time>
      </trkpt>
      <trkpt lat="43.61011" lon="3.68946">
        <ele>120</ele>
        <time>2020-10-09T13:31:51.000Z</time>
      </trkpt>
      <trkpt lat="43.61014" lon="3.68949">
        <ele>120.132</ele>
        <time>2020-10-09T13:31:53.000Z</time>
      </trkpt>
      <trkpt lat="43.61016" lon="3.68952">
        <ele>120.332</ele>
        <time>2020-10-09T13:31:55.000Z</time>
      </trkpt>
      <trkpt lat="43.61018" lon="3.68955">
        <ele>120.532</ele>
        <time>2020-10-09T13:31:57.000Z</time>
      </trkpt>
      <trkpt lat="43.61021" lon="3.68959">
        <ele>120.732</ele>
        <time>2020-10-09T13:31:59.000Z</time>
      </trkpt>
      <trkpt lat="43.61023" lon="3.68963">
        <ele>120.932</ele>
        <time>2020-10-09T13:32:01.000Z</time>
      </trkpt>
      <trkpt lat="43.61023" lon="3.68965">
        <ele>121</ele>
        <time>2020-10-09T13:32:02.000Z</time>
      </trkpt>
      <trkpt lat="43.61024" lon="3.68968">
        <ele>121</ele>
        <time>2020-10-09T13:32:03.000Z</time>
      </trkpt>
      <trkpt lat="43.61025" lon="3.6897">
        <ele>121</ele>
        <time>2020-10-09T13:32:04.000Z</time>
      </trkpt>
      <trkpt lat="43.61026" lon="3.68974">
        <ele>121</ele>
        <time>2020-10-09T13:32:05.000Z</time>
      </trkpt>
      <trkpt lat="43.61026" lon="3.68977">
        <ele>121</ele>
        <time>2020-10-09T13:32:06.000Z</time>
      </trkpt>
      <trkpt lat="43.61026" lon="3.68981">
        <ele>121</ele>
        <time>2020-10-09T13:32:07.000Z</time>
      </trkpt>
      <trkpt lat="43.61026" lon="3.68985">
        <ele>121</ele>
        <time>2020-10-09T13:32:08.000Z</time>
      </trkpt>
      <trkpt lat="43.61026" lon="3.68989">
        <ele>121</ele>
        <time>2020-10-09T13:32:09.000Z</time>
      </trkpt>
      <trkpt lat="43.61027" lon="3.68992">
        <ele>121</ele>
        <time>2020-10-09T13:32:10.000Z</time>
      </trkpt>
      <trkpt lat="43.61028" lon="3.68996">
        <ele>121</ele>
        <time>2020-10-09T13:32:11.000Z</time>
      </trkpt>
      <trkpt lat="43.61028" lon="3.68999">
        <ele>121.03193614814</ele>
        <time>2020-10-09T13:32:12.000Z</time>
      </trkpt>
      <trkpt lat="43.61029" lon="3.69003">
        <ele>121.13173661109</ele>
        <time>2020-10-09T13:32:13.000Z</time>
      </trkpt>
      <trkpt lat="43.61029" lon="3.69005">
        <ele>121.23153707404</ele>
        <time>2020-10-09T13:32:14.000Z</time>
      </trkpt>
      <trkpt lat="43.61029" lon="3.69008">
        <ele>121.33133753698</ele>
        <time>2020-10-09T13:32:15.000Z</time>
      </trkpt>
      <trkpt lat="43.61029" lon="3.69011">
        <ele>121.43113799993</ele>
        <time>2020-10-09T13:32:16.000Z</time>
      </trkpt>
      <trkpt lat="43.61029" lon="3.69014">
        <ele>121.53093846287</ele>
        <time>2020-10-09T13:32:17.000Z</time>
      </trkpt>
      <trkpt lat="43.61029" lon="3.69017">
        <ele>121.63073892582</ele>
        <time>2020-10-09T13:32:18.000Z</time>
      </trkpt>
      <trkpt lat="43.6103" lon="3.69021">
        <ele>121.73053938877</ele>
        <time>2020-10-09T13:32:19.000Z</time>
      </trkpt>
      <trkpt lat="43.6103" lon="3.69024">
        <ele>121.83033985171</ele>
        <time>2020-10-09T13:32:20.000Z</time>
      </trkpt>
      <trkpt lat="43.6103" lon="3.69027">
        <ele>121.93014031466</ele>
        <time>2020-10-09T13:32:21.000Z</time>
      </trkpt>
      <trkpt lat="43.6103" lon="3.6903">
        <ele>122</ele>
        <time>2020-10-09T13:32:22.000Z</time>
      </trkpt>
      <trkpt lat="43.6103" lon="3.69033">
        <ele>122</ele>
        <time>2020-10-09T13:32:23.000Z</time>
      </trkpt>
      <trkpt lat="43.6103" lon="3.69036">
        <ele>122</ele>
        <time>2020-10-09T13:32:24.000Z</time>
      </trkpt>
      <trkpt lat="43.61029" lon="3.69039">
        <ele>122</ele>
        <time>2020-10-09T13:32:25.000Z</time>
      </trkpt>
      <trkpt lat="43.61029" lon="3.69042">
        <ele>122</ele>
        <time>2020-10-09T13:32:26.000Z</time>
      </trkpt>
      <trkpt lat="43.61029" lon="3.69045">
        <ele>122</ele>
        <time>2020-10-09T13:32:27.000Z</time>
      </trkpt>
      <trkpt lat="43.61029" lon="3.69047">
        <ele>122</ele>
        <time>2020-10-09T13:32:28.000Z</time>
      </trkpt>
      <trkpt lat="43.61029" lon="3.6905">
        <ele>122</ele>
        <time>2020-10-09T13:32:29.000Z</time>
      </trkpt>
      <trkpt lat="43.61029" lon="3.69053">
        <ele>122</ele>
        <time>2020-10-09T13:32:30.000Z</time>
      </trkpt>
      <trkpt lat="43.61028" lon="3.69056">
        <ele>122</ele>
        <time>2020-10-09T13:32:31.000Z</time>
      </trkpt>
      <trkpt lat="43.61027" lon="3.69058">
        <ele>122.03103781772</ele>
        <time>2020-10-09T13:32:32.000Z</time>
      </trkpt>
      <trkpt lat="43.61026" lon="3.69062">
        <ele>122.12803099809</ele>
        <time>2020-10-09T13:32:33.000Z</time>
      </trkpt>
      <trkpt lat="43.61025" lon="3.69065">
        <ele>122.22502417846</ele>
        <time>2020-10-09T13:32:34.000Z</time>
      </trkpt>
      <trkpt lat="43.61024" lon="3.69068">
        <ele>122.32201735883</ele>
        <time>2020-10-09T13:32:35.000Z</time>
      </trkpt>
      <trkpt lat="43.61023" lon="3.69071">
        <ele>122.4190105392</ele>
        <time>2020-10-09T13:32:36.000Z</time>
      </trkpt>
      <trkpt lat="43.61022" lon="3.69074">
        <ele>122.51600371957</ele>
        <time>2020-10-09T13:32:37.000Z</time>
      </trkpt>
      <trkpt lat="43.61021" lon="3.69077">
        <ele>122.61299689994</ele>
        <time>2020-10-09T13:32:38.000Z</time>
      </trkpt>
      <trkpt lat="43.61021" lon="3.69079">
        <ele>122.70999008031</ele>
        <time>2020-10-09T13:32:39.000Z</time>
      </trkpt>
      <trkpt lat="43.6102" lon="3.69081">
        <ele>122.80698326068</ele>
        <time>2020-10-09T13:32:40.000Z</time>
      </trkpt>
      <trkpt lat="43.61019" lon="3.69084">
        <ele>122.90397644105</ele>
        <time>2020-10-09T13:32:41.000Z</time>
      </trkpt>
      <trkpt lat="43.61018" lon="3.69086">
        <ele>123.00103166185</ele>
        <time>2020-10-09T13:32:42.000Z</time>
      </trkpt>
      <trkpt lat="43.61016" lon="3.69089">
        <ele>123.10423087033</ele>
        <time>2020-10-09T13:32:43.000Z</time>
      </trkpt>
      <trkpt lat="43.61015" lon="3.69092">
        <ele>123.20743007882</ele>
        <time>2020-10-09T13:32:44.000Z</time>
      </trkpt>
      <trkpt lat="43.61014" lon="3.69096">
        <ele>123.4138284958</ele>
        <time>2020-10-09T13:32:46.000Z</time>
      </trkpt>
      <trkpt lat="43.61014" lon="3.69099">
        <ele>123.51702770428</ele>
        <time>2020-10-09T13:32:47.000Z</time>
      </trkpt>
      <trkpt lat="43.61013" lon="3.69102">
        <ele>123.62022691277</ele>
        <time>2020-10-09T13:32:48.000Z</time>
      </trkpt>
      <trkpt lat="43.61012" lon="3.69105">
        <ele>123.72342612126</ele>
        <time>2020-10-09T13:32:49.000Z</time>
      </trkpt>
      <trkpt lat="43.61011" lon="3.69108">
        <ele>123.82662532974</ele>
        <time>2020-10-09T13:32:50.000Z</time>
      </trkpt>
      <trkpt lat="43.61011" lon="3.69112">
        <ele>123.92982453823</ele>
        <time>2020-10-09T13:32:51.000Z</time>
      </trkpt>
      <trkpt lat="43.6101" lon="3.69115">
        <ele>124</ele>
        <time>2020-10-09T13:32:52.000Z</time>
      </trkpt>
      <trkpt lat="43.6101" lon="3.69119">
        <ele>124</ele>
        <time>2020-10-09T13:32:53.000Z</time>
      </trkpt>
      <trkpt lat="43.6101" lon="3.69123">
        <ele>124</ele>
        <time>2020-10-09T13:32:54.000Z</time>
      </trkpt>
      <trkpt lat="43.6101" lon="3.69126">
        <ele>124</ele>
        <time>2020-10-09T13:32:55.000Z</time>
      </trkpt>
      <trkpt lat="43.61011" lon="3.69129">
        <ele>124</ele>
        <time>2020-10-09T13:32:56.000Z</time>
      </trkpt>
      <trkpt lat="43.61011" lon="3.69133">
        <ele>124</ele>
        <time>2020-10-09T13:32:57.000Z</time>
      </trkpt>
      <trkpt lat="43.61011" lon="3.69135">
        <ele>124</ele>
        <time>2020-10-09T13:32:58.000Z</time>
      </trkpt>
      <trkpt lat="43.61011" lon="3.69138">
        <ele>124</ele>
        <time>2020-10-09T13:32:59.000Z</time>
      </trkpt>
      <trkpt lat="43.61013" lon="3.69142">
        <ele>124</ele>
        <time>2020-10-09T13:33:01.000Z</time>
      </trkpt>
      <trkpt lat="43.61013" lon="3.69145">
        <ele>124.06268366313</ele>
        <time>2020-10-09T13:33:02.000Z</time>
      </trkpt>
      <trkpt lat="43.61013" lon="3.69148">
        <ele>124.25857011042</ele>
        <time>2020-10-09T13:33:03.000Z</time>
      </trkpt>
      <trkpt lat="43.61013" lon="3.6915">
        <ele>124.45445655771</ele>
        <time>2020-10-09T13:33:04.000Z</time>
      </trkpt>
      <trkpt lat="43.61013" lon="3.69155">
        <ele>124.8462294523</ele>
        <time>2020-10-09T13:33:06.000Z</time>
      </trkpt>
      <trkpt lat="43.61014" lon="3.69158">
        <ele>125.23800234688</ele>
        <time>2020-10-09T13:33:08.000Z</time>
      </trkpt>
      <trkpt lat="43.61015" lon="3.69161">
        <ele>125.62977524146</ele>
        <time>2020-10-09T13:33:10.000Z</time>
      </trkpt>
      <trkpt lat="43.61015" lon="3.69164">
        <ele>126.01123627825</ele>
        <time>2020-10-09T13:33:12.000Z</time>
      </trkpt>
      <trkpt lat="43.61015" lon="3.69168">
        <ele>126.2155263034</ele>
        <time>2020-10-09T13:33:14.000Z</time>
      </trkpt>
      <trkpt lat="43.61013" lon="3.69171">
        <ele>126.41981632856</ele>
        <time>2020-10-09T13:33:16.000Z</time>
      </trkpt>
      <trkpt lat="43.61012" lon="3.69174">
        <ele>126.62410635371</ele>
        <time>2020-10-09T13:33:18.000Z</time>
      </trkpt>
      <trkpt lat="43.61011" lon="3.69174">
        <ele>127</ele>
        <time>2020-10-09T13:33:23.000Z</time>
      </trkpt>
      <trkpt lat="43.61014" lon="3.69172">
        <ele>128</ele>
        <time>2020-10-09T13:34:44.000Z</time>
      </trkpt>
      <trkpt lat="43.61014" lon="3.69172">
        <ele>128</ele>
        <time>2020-10-09T13:34:48.000Z</time>
      </trkpt>
      <trkpt lat="43.6101" lon="3.69176">
        <ele>128.00717981303</ele>
        <time>2020-10-09T13:34:58.000Z</time>
      </trkpt>
      <trkpt lat="43.61009" lon="3.69179">
        <ele>128.21230795083</ele>
        <time>2020-10-09T13:35:00.000Z</time>
      </trkpt>
      <trkpt lat="43.61008" lon="3.69182">
        <ele>128.41743608864</ele>
        <time>2020-10-09T13:35:02.000Z</time>
      </trkpt>
      <trkpt lat="43.61007" lon="3.69185">
        <ele>128.62256422644</ele>
        <time>2020-10-09T13:35:04.000Z</time>
      </trkpt>
      <trkpt lat="43.61006" lon="3.69188">
        <ele>128.82769236424</ele>
        <time>2020-10-09T13:35:06.000Z</time>
      </trkpt>
      <trkpt lat="43.61006" lon="3.69191">
        <ele>129.03140332674</ele>
        <time>2020-10-09T13:35:08.000Z</time>
      </trkpt>
      <trkpt lat="43.61005" lon="3.69194">
        <ele>129.22767411889</ele>
        <time>2020-10-09T13:35:10.000Z</time>
      </trkpt>
      <trkpt lat="43.61005" lon="3.69197">
        <ele>129.42394491103</ele>
        <time>2020-10-09T13:35:12.000Z</time>
      </trkpt>
      <trkpt lat="43.61007" lon="3.69198">
        <ele>129.62021570317</ele>
        <time>2020-10-09T13:35:14.000Z</time>
      </trkpt>
      <trkpt lat="43.6101" lon="3.69198">
        <ele>129.81648649531</ele>
        <time>2020-10-09T13:35:16.000Z</time>
      </trkpt>
      <trkpt lat="43.61013" lon="3.69201">
        <ele>130.01325146202</ele>
        <time>2020-10-09T13:35:18.000Z</time>
      </trkpt>
      <trkpt lat="43.61015" lon="3.69204">
        <ele>130.21712512689</ele>
        <time>2020-10-09T13:35:20.000Z</time>
      </trkpt>
      <trkpt lat="43.61016" lon="3.69208">
        <ele>130.42099879176</ele>
        <time>2020-10-09T13:35:22.000Z</time>
      </trkpt>
      <trkpt lat="43.61017" lon="3.69212">
        <ele>130.62487245663</ele>
        <time>2020-10-09T13:35:24.000Z</time>
      </trkpt>
      <trkpt lat="43.61018" lon="3.69215">
        <ele>130.82874612151</ele>
        <time>2020-10-09T13:35:26.000Z</time>
      </trkpt>
      <trkpt lat="43.61019" lon="3.69219">
        <ele>131.03171457894</ele>
        <time>2020-10-09T13:35:28.000Z</time>
      </trkpt>
      <trkpt lat="43.61019" lon="3.69223">
        <ele>131.2299306973</ele>
        <time>2020-10-09T13:35:30.000Z</time>
      </trkpt>
      <trkpt lat="43.6102" lon="3.69228">
        <ele>131.42814681567</ele>
        <time>2020-10-09T13:35:32.000Z</time>
      </trkpt>
      <trkpt lat="43.61021" lon="3.69232">
        <ele>131.62636293403</ele>
        <time>2020-10-09T13:35:34.000Z</time>
      </trkpt>
      <trkpt lat="43.61021" lon="3.69237">
        <ele>131.82457905239</ele>
        <time>2020-10-09T13:35:36.000Z</time>
      </trkpt>
      <trkpt lat="43.61021" lon="3.69241">
        <ele>132.02320919533</ele>
        <time>2020-10-09T13:35:38.000Z</time>
      </trkpt>
      <trkpt lat="43.61022" lon="3.69245">
        <ele>132.22502547729</ele>
        <time>2020-10-09T13:35:40.000Z</time>
      </trkpt>
      <trkpt lat="43.61022" lon="3.69249">
        <ele>132.42684175924</ele>
        <time>2020-10-09T13:35:42.000Z</time>
      </trkpt>
      <trkpt lat="43.61022" lon="3.69254">
        <ele>132.6286580412</ele>
        <time>2020-10-09T13:35:44.000Z</time>
      </trkpt>
      <trkpt lat="43.61022" lon="3.69259">
        <ele>132.83047432316</ele>
        <time>2020-10-09T13:35:46.000Z</time>
      </trkpt>
      <trkpt lat="43.61022" lon="3.69262">
        <ele>132.93138246413</ele>
        <time>2020-10-09T13:35:47.000Z</time>
      </trkpt>
      <trkpt lat="43.61022" lon="3.69266">
        <ele>133.132</ele>
        <time>2020-10-09T13:35:49.000Z</time>
      </trkpt>
      <trkpt lat="43.61023" lon="3.69269">
        <ele>133.232</ele>
        <time>2020-10-09T13:35:50.000Z</time>
      </trkpt>
      <trkpt lat="43.61023" lon="3.69271">
        <ele>133.332</ele>
        <time>2020-10-09T13:35:51.000Z</time>
      </trkpt>
      <trkpt lat="43.61023" lon="3.69274">
        <ele>133.432</ele>
        <time>2020-10-09T13:35:52.000Z</time>
      </trkpt>
      <trkpt lat="43.61023" lon="3.69279">
        <ele>133.632</ele>
        <time>2020-10-09T13:35:54.000Z</time>
      </trkpt>
      <trkpt lat="43.61023" lon="3.69281">
        <ele>133.732</ele>
        <time>2020-10-09T13:35:55.000Z</time>
      </trkpt>
      <trkpt lat="43.61023" lon="3.69284">
        <ele>133.832</ele>
        <time>2020-10-09T13:35:56.000Z</time>
      </trkpt>
      <trkpt lat="43.61023" lon="3.69287">
        <ele>133.932</ele>
        <time>2020-10-09T13:35:57.000Z</time>
      </trkpt>
      <trkpt lat="43.61023" lon="3.69289">
        <ele>134</ele>
        <time>2020-10-09T13:35:58.000Z</time>
      </trkpt>
      <trkpt lat="43.61024" lon="3.69292">
        <ele>134</ele>
        <time>2020-10-09T13:35:59.000Z</time>
      </trkpt>
      <trkpt lat="43.61024" lon="3.69297">
        <ele>134</ele>
        <time>2020-10-09T13:36:01.000Z</time>
      </trkpt>
      <trkpt lat="43.61024" lon="3.69299">
        <ele>134</ele>
        <time>2020-10-09T13:36:02.000Z</time>
      </trkpt>
      <trkpt lat="43.61025" lon="3.69304">
        <ele>134</ele>
        <time>2020-10-09T13:36:04.000Z</time>
      </trkpt>
      <trkpt lat="43.61025" lon="3.69307">
        <ele>134</ele>
        <time>2020-10-09T13:36:05.000Z</time>
      </trkpt>
      <trkpt lat="43.61026" lon="3.69309">
        <ele>134</ele>
        <time>2020-10-09T13:36:06.000Z</time>
      </trkpt>
      <trkpt lat="43.61026" lon="3.69312">
        <ele>134</ele>
        <time>2020-10-09T13:36:07.000Z</time>
      </trkpt>
      <trkpt lat="43.61027" lon="3.69316">
        <ele>134</ele>
        <time>2020-10-09T13:36:08.000Z</time>
      </trkpt>
      <trkpt lat="43.61028" lon="3.69319">
        <ele>134</ele>
        <time>2020-10-09T13:36:09.000Z</time>
      </trkpt>
      <trkpt lat="43.61028" lon="3.69323">
        <ele>134</ele>
        <time>2020-10-09T13:36:10.000Z</time>
      </trkpt>
      <trkpt lat="43.61029" lon="3.69326">
        <ele>134</ele>
        <time>2020-10-09T13:36:11.000Z</time>
      </trkpt>
      <trkpt lat="43.6103" lon="3.69329">
        <ele>134</ele>
        <time>2020-10-09T13:36:12.000Z</time>
      </trkpt>
      <trkpt lat="43.61031" lon="3.69332">
        <ele>134</ele>
        <time>2020-10-09T13:36:13.000Z</time>
      </trkpt>
      <trkpt lat="43.61031" lon="3.69336">
        <ele>134</ele>
        <time>2020-10-09T13:36:14.000Z</time>
      </trkpt>
      <trkpt lat="43.61032" lon="3.69339">
        <ele>134</ele>
        <time>2020-10-09T13:36:15.000Z</time>
      </trkpt>
      <trkpt lat="43.61033" lon="3.69342">
        <ele>134</ele>
        <time>2020-10-09T13:36:16.000Z</time>
      </trkpt>
      <trkpt lat="43.61034" lon="3.69345">
        <ele>134</ele>
        <time>2020-10-09T13:36:17.000Z</time>
      </trkpt>
      <trkpt lat="43.61035" lon="3.69348">
        <ele>134</ele>
        <time>2020-10-09T13:36:18.000Z</time>
      </trkpt>
      <trkpt lat="43.61035" lon="3.69352">
        <ele>134</ele>
        <time>2020-10-09T13:36:19.000Z</time>
      </trkpt>
      <trkpt lat="43.61036" lon="3.69355">
        <ele>134</ele>
        <time>2020-10-09T13:36:20.000Z</time>
      </trkpt>
      <trkpt lat="43.61036" lon="3.69359">
        <ele>134</ele>
        <time>2020-10-09T13:36:21.000Z</time>
      </trkpt>
      <trkpt lat="43.61036" lon="3.69362">
        <ele>134</ele>
        <time>2020-10-09T13:36:22.000Z</time>
      </trkpt>
      <trkpt lat="43.61036" lon="3.69366">
        <ele>134</ele>
        <time>2020-10-09T13:36:23.000Z</time>
      </trkpt>
      <trkpt lat="43.61036" lon="3.69369">
        <ele>134</ele>
        <time>2020-10-09T13:36:24.000Z</time>
      </trkpt>
      <trkpt lat="43.61036" lon="3.69372">
        <ele>134</ele>
        <time>2020-10-09T13:36:25.000Z</time>
      </trkpt>
      <trkpt lat="43.61036" lon="3.69376">
        <ele>134</ele>
        <time>2020-10-09T13:36:26.000Z</time>
      </trkpt>
      <trkpt lat="43.61036" lon="3.69379">
        <ele>134</ele>
        <time>2020-10-09T13:36:27.000Z</time>
      </trkpt>
      <trkpt lat="43.61036" lon="3.69382">
        <ele>134.06387229629</ele>
        <time>2020-10-09T13:36:28.000Z</time>
      </trkpt>
      <trkpt lat="43.61035" lon="3.69385">
        <ele>134.26347322218</ele>
        <time>2020-10-09T13:36:29.000Z</time>
      </trkpt>
      <trkpt lat="43.61034" lon="3.69389">
        <ele>134.46307414807</ele>
        <time>2020-10-09T13:36:30.000Z</time>
      </trkpt>
      <trkpt lat="43.61034" lon="3.69392">
        <ele>134.66267507396</ele>
        <time>2020-10-09T13:36:31.000Z</time>
      </trkpt>
      <trkpt lat="43.61033" lon="3.69395">
        <ele>134.86227599986</ele>
        <time>2020-10-09T13:36:32.000Z</time>
      </trkpt>
      <trkpt lat="43.61032" lon="3.69397">
        <ele>135.06187692575</ele>
        <time>2020-10-09T13:36:33.000Z</time>
      </trkpt>
      <trkpt lat="43.61031" lon="3.694">
        <ele>135.26147785164</ele>
        <time>2020-10-09T13:36:34.000Z</time>
      </trkpt>
      <trkpt lat="43.61031" lon="3.69403">
        <ele>135.46107877753</ele>
        <time>2020-10-09T13:36:35.000Z</time>
      </trkpt>
      <trkpt lat="43.6103" lon="3.69405">
        <ele>135.66067970343</ele>
        <time>2020-10-09T13:36:36.000Z</time>
      </trkpt>
      <trkpt lat="43.61029" lon="3.69408">
        <ele>135.86028062932</ele>
        <time>2020-10-09T13:36:37.000Z</time>
      </trkpt>
      <trkpt lat="43.61028" lon="3.6941">
        <ele>136.06012148449</ele>
        <time>2020-10-09T13:36:38.000Z</time>
      </trkpt>
      <trkpt lat="43.61028" lon="3.69413">
        <ele>136.26052215758</ele>
        <time>2020-10-09T13:36:39.000Z</time>
      </trkpt>
      <trkpt lat="43.61027" lon="3.69417">
        <ele>136.66132350376</ele>
        <time>2020-10-09T13:36:41.000Z</time>
      </trkpt>
      <trkpt lat="43.61026" lon="3.69422">
        <ele>137.06212484994</ele>
        <time>2020-10-09T13:36:43.000Z</time>
      </trkpt>
      <trkpt lat="43.61025" lon="3.69427">
        <ele>137.46292619612</ele>
        <time>2020-10-09T13:36:45.000Z</time>
      </trkpt>
      <trkpt lat="43.61025" lon="3.69431">
        <ele>137.8637275423</ele>
        <time>2020-10-09T13:36:47.000Z</time>
      </trkpt>
      <trkpt lat="43.61025" lon="3.69436">
        <ele>138.132</ele>
        <time>2020-10-09T13:36:49.000Z</time>
      </trkpt>
      <trkpt lat="43.61025" lon="3.69439">
        <ele>138.232</ele>
        <time>2020-10-09T13:36:50.000Z</time>
      </trkpt>
      <trkpt lat="43.61025" lon="3.69441">
        <ele>138.332</ele>
        <time>2020-10-09T13:36:51.000Z</time>
      </trkpt>
      <trkpt lat="43.61025" lon="3.69444">
        <ele>138.432</ele>
        <time>2020-10-09T13:36:52.000Z</time>
      </trkpt>
      <trkpt lat="43.61025" lon="3.69446">
        <ele>138.532</ele>
        <time>2020-10-09T13:36:53.000Z</time>
      </trkpt>
      <trkpt lat="43.61025" lon="3.69449">
        <ele>138.632</ele>
        <time>2020-10-09T13:36:54.000Z</time>
      </trkpt>
      <trkpt lat="43.61025" lon="3.69452">
        <ele>138.732</ele>
        <time>2020-10-09T13:36:55.000Z</time>
      </trkpt>
      <trkpt lat="43.61025" lon="3.69454">
        <ele>138.832</ele>
        <time>2020-10-09T13:36:56.000Z</time>
      </trkpt>
      <trkpt lat="43.61025" lon="3.69457">
        <ele>138.932</ele>
        <time>2020-10-09T13:36:57.000Z</time>
      </trkpt>
      <trkpt lat="43.61025" lon="3.69462">
        <ele>139.12827992327</ele>
        <time>2020-10-09T13:36:59.000Z</time>
      </trkpt>
      <trkpt lat="43.61025" lon="3.69464">
        <ele>139.22546168333</ele>
        <time>2020-10-09T13:37:00.000Z</time>
      </trkpt>
      <trkpt lat="43.61026" lon="3.69467">
        <ele>139.32264344339</ele>
        <time>2020-10-09T13:37:01.000Z</time>
      </trkpt>
      <trkpt lat="43.61027" lon="3.69472">
        <ele>139.5170069635</ele>
        <time>2020-10-09T13:37:03.000Z</time>
      </trkpt>
      <trkpt lat="43.61027" lon="3.69474">
        <ele>139.61418872356</ele>
        <time>2020-10-09T13:37:04.000Z</time>
      </trkpt>
      <trkpt lat="43.61029" lon="3.69478">
        <ele>139.80855224367</ele>
        <time>2020-10-09T13:37:06.000Z</time>
      </trkpt>
      <trkpt lat="43.6103" lon="3.69482">
        <ele>140</ele>
        <time>2020-10-09T13:37:08.000Z</time>
      </trkpt>
      <trkpt lat="43.61031" lon="3.69484">
        <ele>140</ele>
        <time>2020-10-09T13:37:09.000Z</time>
      </trkpt>
      <trkpt lat="43.61032" lon="3.69488">
        <ele>140</ele>
        <time>2020-10-09T13:37:11.000Z</time>
      </trkpt>
      <trkpt lat="43.61033" lon="3.69492">
        <ele>140</ele>
        <time>2020-10-09T13:37:13.000Z</time>
      </trkpt>
      <trkpt lat="43.61034" lon="3.69496">
        <ele>140</ele>
        <time>2020-10-09T13:37:15.000Z</time>
      </trkpt>
      <trkpt lat="43.61035" lon="3.695">
        <ele>140</ele>
        <time>2020-10-09T13:37:17.000Z</time>
      </trkpt>
      <trkpt lat="43.61035" lon="3.69501">
        <ele>141.00372892203</ele>
        <time>2020-10-09T13:37:23.000Z</time>
      </trkpt>
      <trkpt lat="43.61037" lon="3.6951">
        <ele>143</ele>
        <time>2020-10-09T13:38:22.000Z</time>
      </trkpt>
      <trkpt lat="43.61038" lon="3.69512">
        <ele>143</ele>
        <time>2020-10-09T13:38:23.000Z</time>
      </trkpt>
      <trkpt lat="43.61039" lon="3.69516">
        <ele>143</ele>
        <time>2020-10-09T13:38:25.000Z</time>
      </trkpt>
      <trkpt lat="43.6104" lon="3.6952">
        <ele>143</ele>
        <time>2020-10-09T13:38:27.000Z</time>
      </trkpt>
      <trkpt lat="43.6104" lon="3.69522">
        <ele>143</ele>
        <time>2020-10-09T13:38:30.000Z</time>
      </trkpt>
      <trkpt lat="43.6104" lon="3.69523">
        <ele>143</ele>
        <time>2020-10-09T13:38:33.000Z</time>
      </trkpt>
      <trkpt lat="43.61043" lon="3.69531">
        <ele>143</ele>
        <time>2020-10-09T13:38:44.000Z</time>
      </trkpt>
      <trkpt lat="43.61044" lon="3.69533">
        <ele>143</ele>
        <time>2020-10-09T13:38:45.000Z</time>
      </trkpt>
      <trkpt lat="43.61044" lon="3.69536">
        <ele>143</ele>
        <time>2020-10-09T13:38:46.000Z</time>
      </trkpt>
      <trkpt lat="43.61045" lon="3.69538">
        <ele>143</ele>
        <time>2020-10-09T13:38:47.000Z</time>
      </trkpt>
      <trkpt lat="43.61045" lon="3.69541">
        <ele>143</ele>
        <time>2020-10-09T13:38:48.000Z</time>
      </trkpt>
      <trkpt lat="43.61046" lon="3.69544">
        <ele>143</ele>
        <time>2020-10-09T13:38:49.000Z</time>
      </trkpt>
      <trkpt lat="43.61047" lon="3.69547">
        <ele>143</ele>
        <time>2020-10-09T13:38:50.000Z</time>
      </trkpt>
      <trkpt lat="43.61048" lon="3.6955">
        <ele>143</ele>
        <time>2020-10-09T13:38:51.000Z</time>
      </trkpt>
      <trkpt lat="43.61048" lon="3.69552">
        <ele>143</ele>
        <time>2020-10-09T13:38:52.000Z</time>
      </trkpt>
      <trkpt lat="43.61049" lon="3.69555">
        <ele>143</ele>
        <time>2020-10-09T13:38:53.000Z</time>
      </trkpt>
      <trkpt lat="43.61049" lon="3.69558">
        <ele>143</ele>
        <time>2020-10-09T13:38:54.000Z</time>
      </trkpt>
      <trkpt lat="43.6105" lon="3.69561">
        <ele>143</ele>
        <time>2020-10-09T13:38:55.000Z</time>
      </trkpt>
      <trkpt lat="43.61052" lon="3.69564">
        <ele>143</ele>
        <time>2020-10-09T13:38:56.000Z</time>
      </trkpt>
      <trkpt lat="43.61053" lon="3.69568">
        <ele>143</ele>
        <time>2020-10-09T13:38:57.000Z</time>
      </trkpt>
      <trkpt lat="43.61054" lon="3.69572">
        <ele>143</ele>
        <time>2020-10-09T13:38:58.000Z</time>
      </trkpt>
      <trkpt lat="43.61054" lon="3.69575">
        <ele>143</ele>
        <time>2020-10-09T13:38:59.000Z</time>
      </trkpt>
      <trkpt lat="43.61055" lon="3.69578">
        <ele>143</ele>
        <time>2020-10-09T13:39:00.000Z</time>
      </trkpt>
      <trkpt lat="43.61056" lon="3.69582">
        <ele>143</ele>
        <time>2020-10-09T13:39:01.000Z</time>
      </trkpt>
      <trkpt lat="43.61057" lon="3.69586">
        <ele>143</ele>
        <time>2020-10-09T13:39:02.000Z</time>
      </trkpt>
      <trkpt lat="43.61057" lon="3.6959">
        <ele>143</ele>
        <time>2020-10-09T13:39:03.000Z</time>
      </trkpt>
      <trkpt lat="43.61058" lon="3.69594">
        <ele>143.00411522634</ele>
        <time>2020-10-09T13:39:04.000Z</time>
      </trkpt>
      <trkpt lat="43.61059" lon="3.69598">
        <ele>143.10699588477</ele>
        <time>2020-10-09T13:39:05.000Z</time>
      </trkpt>
      <trkpt lat="43.6106" lon="3.69601">
        <ele>143.20987654321</ele>
        <time>2020-10-09T13:39:06.000Z</time>
      </trkpt>
      <trkpt lat="43.6106" lon="3.69604">
        <ele>143.31275720165</ele>
        <time>2020-10-09T13:39:07.000Z</time>
      </trkpt>
      <trkpt lat="43.61061" lon="3.69607">
        <ele>143.41563786008</ele>
        <time>2020-10-09T13:39:08.000Z</time>
      </trkpt>
      <trkpt lat="43.61062" lon="3.69609">
        <ele>143.51851851852</ele>
        <time>2020-10-09T13:39:09.000Z</time>
      </trkpt>
      <trkpt lat="43.61064" lon="3.69614">
        <ele>143.72427983539</ele>
        <time>2020-10-09T13:39:11.000Z</time>
      </trkpt>
      <trkpt lat="43.61065" lon="3.69616">
        <ele>143.82716049383</ele>
        <time>2020-10-09T13:39:12.000Z</time>
      </trkpt>
      <trkpt lat="43.61065" lon="3.69618">
        <ele>143.93004115226</ele>
        <time>2020-10-09T13:39:13.000Z</time>
      </trkpt>
      <trkpt lat="43.61066" lon="3.69621">
        <ele>144.03137254902</ele>
        <time>2020-10-09T13:39:14.000Z</time>
      </trkpt>
      <trkpt lat="43.61067" lon="3.69623">
        <ele>144.12941176471</ele>
        <time>2020-10-09T13:39:15.000Z</time>
      </trkpt>
      <trkpt lat="43.61068" lon="3.69625">
        <ele>144.22745098039</ele>
        <time>2020-10-09T13:39:16.000Z</time>
      </trkpt>
      <trkpt lat="43.61069" lon="3.69628">
        <ele>144.32549019608</ele>
        <time>2020-10-09T13:39:17.000Z</time>
      </trkpt>
      <trkpt lat="43.6107" lon="3.6963">
        <ele>144.42352941177</ele>
        <time>2020-10-09T13:39:18.000Z</time>
      </trkpt>
      <trkpt lat="43.61071" lon="3.69633">
        <ele>144.52156862745</ele>
        <time>2020-10-09T13:39:19.000Z</time>
      </trkpt>
      <trkpt lat="43.61072" lon="3.69636">
        <ele>144.61960784314</ele>
        <time>2020-10-09T13:39:20.000Z</time>
      </trkpt>
      <trkpt lat="43.61072" lon="3.69639">
        <ele>144.71764705882</ele>
        <time>2020-10-09T13:39:21.000Z</time>
      </trkpt>
      <trkpt lat="43.61072" lon="3.69642">
        <ele>144.81568627451</ele>
        <time>2020-10-09T13:39:22.000Z</time>
      </trkpt>
      <trkpt lat="43.61072" lon="3.69645">
        <ele>144.9137254902</ele>
        <time>2020-10-09T13:39:23.000Z</time>
      </trkpt>
      <trkpt lat="43.61073" lon="3.69648">
        <ele>145.01224489796</ele>
        <time>2020-10-09T13:39:24.000Z</time>
      </trkpt>
      <trkpt lat="43.61072" lon="3.69651">
        <ele>145.11428571429</ele>
        <time>2020-10-09T13:39:25.000Z</time>
      </trkpt>
      <trkpt lat="43.61072" lon="3.69654">
        <ele>145.21632653061</ele>
        <time>2020-10-09T13:39:26.000Z</time>
      </trkpt>
      <trkpt lat="43.61071" lon="3.69656">
        <ele>145.31836734694</ele>
        <time>2020-10-09T13:39:27.000Z</time>
      </trkpt>
      <trkpt lat="43.61071" lon="3.69659">
        <ele>145.42040816326</ele>
        <time>2020-10-09T13:39:28.000Z</time>
      </trkpt>
      <trkpt lat="43.61071" lon="3.69662">
        <ele>145.52244897959</ele>
        <time>2020-10-09T13:39:29.000Z</time>
      </trkpt>
      <trkpt lat="43.6107" lon="3.69665">
        <ele>145.62448979592</ele>
        <time>2020-10-09T13:39:30.000Z</time>
      </trkpt>
      <trkpt lat="43.6107" lon="3.69668">
        <ele>145.72653061224</ele>
        <time>2020-10-09T13:39:31.000Z</time>
      </trkpt>
      <trkpt lat="43.6107" lon="3.6967">
        <ele>145.82857142857</ele>
        <time>2020-10-09T13:39:32.000Z</time>
      </trkpt>
      <trkpt lat="43.6107" lon="3.69673">
        <ele>145.9306122449</ele>
        <time>2020-10-09T13:39:33.000Z</time>
      </trkpt>
      <trkpt lat="43.6107" lon="3.69676">
        <ele>146.032</ele>
        <time>2020-10-09T13:39:34.000Z</time>
      </trkpt>
      <trkpt lat="43.61069" lon="3.69681">
        <ele>146.232</ele>
        <time>2020-10-09T13:39:36.000Z</time>
      </trkpt>
      <trkpt lat="43.61069" lon="3.69683">
        <ele>146.332</ele>
        <time>2020-10-09T13:39:37.000Z</time>
      </trkpt>
      <trkpt lat="43.61069" lon="3.69688">
        <ele>146.532</ele>
        <time>2020-10-09T13:39:39.000Z</time>
      </trkpt>
      <trkpt lat="43.61068" lon="3.69691">
        <ele>146.632</ele>
        <time>2020-10-09T13:39:40.000Z</time>
      </trkpt>
      <trkpt lat="43.61068" lon="3.69693">
        <ele>146.732</ele>
        <time>2020-10-09T13:39:41.000Z</time>
      </trkpt>
      <trkpt lat="43.61067" lon="3.69696">
        <ele>146.832</ele>
        <time>2020-10-09T13:39:42.000Z</time>
      </trkpt>
      <trkpt lat="43.61067" lon="3.69699">
        <ele>146.932</ele>
        <time>2020-10-09T13:39:43.000Z</time>
      </trkpt>
      <trkpt lat="43.61067" lon="3.69701">
        <ele>147.064</ele>
        <time>2020-10-09T13:39:44.000Z</time>
      </trkpt>
      <trkpt lat="43.61066" lon="3.69704">
        <ele>147.264</ele>
        <time>2020-10-09T13:39:45.000Z</time>
      </trkpt>
      <trkpt lat="43.61066" lon="3.69707">
        <ele>147.464</ele>
        <time>2020-10-09T13:39:46.000Z</time>
      </trkpt>
      <trkpt lat="43.61066" lon="3.69709">
        <ele>147.664</ele>
        <time>2020-10-09T13:39:47.000Z</time>
      </trkpt>
      <trkpt lat="43.61066" lon="3.69712">
        <ele>147.864</ele>
        <time>2020-10-09T13:39:48.000Z</time>
      </trkpt>
      <trkpt lat="43.61065" lon="3.69715">
        <ele>148.064</ele>
        <time>2020-10-09T13:39:49.000Z</time>
      </trkpt>
      <trkpt lat="43.61065" lon="3.69718">
        <ele>148.264</ele>
        <time>2020-10-09T13:39:50.000Z</time>
      </trkpt>
      <trkpt lat="43.61065" lon="3.6972">
        <ele>148.464</ele>
        <time>2020-10-09T13:39:51.000Z</time>
      </trkpt>
      <trkpt lat="43.61064" lon="3.69725">
        <ele>148.864</ele>
        <time>2020-10-09T13:39:53.000Z</time>
      </trkpt>
      <trkpt lat="43.61064" lon="3.6973">
        <ele>149.132</ele>
        <time>2020-10-09T13:39:55.000Z</time>
      </trkpt>
      <trkpt lat="43.61063" lon="3.69732">
        <ele>149.232</ele>
        <time>2020-10-09T13:39:56.000Z</time>
      </trkpt>
      <trkpt lat="43.61063" lon="3.69735">
        <ele>149.332</ele>
        <time>2020-10-09T13:39:57.000Z</time>
      </trkpt>
      <trkpt lat="43.61062" lon="3.69737">
        <ele>149.432</ele>
        <time>2020-10-09T13:39:58.000Z</time>
      </trkpt>
      <trkpt lat="43.61062" lon="3.69742">
        <ele>149.632</ele>
        <time>2020-10-09T13:40:00.000Z</time>
      </trkpt>
      <trkpt lat="43.61061" lon="3.69745">
        <ele>149.732</ele>
        <time>2020-10-09T13:40:01.000Z</time>
      </trkpt>
      <trkpt lat="43.6106" lon="3.69749">
        <ele>149.932</ele>
        <time>2020-10-09T13:40:03.000Z</time>
      </trkpt>
      <trkpt lat="43.61059" lon="3.69753">
        <ele>150.132</ele>
        <time>2020-10-09T13:40:05.000Z</time>
      </trkpt>
      <trkpt lat="43.61058" lon="3.69758">
        <ele>150.332</ele>
        <time>2020-10-09T13:40:07.000Z</time>
      </trkpt>
      <trkpt lat="43.61057" lon="3.69762">
        <ele>150.532</ele>
        <time>2020-10-09T13:40:09.000Z</time>
      </trkpt>
      <trkpt lat="43.61056" lon="3.69766">
        <ele>150.732</ele>
        <time>2020-10-09T13:40:11.000Z</time>
      </trkpt>
      <trkpt lat="43.61054" lon="3.6977">
        <ele>150.932</ele>
        <time>2020-10-09T13:40:13.000Z</time>
      </trkpt>
      <trkpt lat="43.61053" lon="3.69774">
        <ele>151.264</ele>
        <time>2020-10-09T13:40:15.000Z</time>
      </trkpt>
      <trkpt lat="43.61051" lon="3.69778">
        <ele>151.664</ele>
        <time>2020-10-09T13:40:17.000Z</time>
      </trkpt>
      <trkpt lat="43.6105" lon="3.69782">
        <ele>152.064</ele>
        <time>2020-10-09T13:40:19.000Z</time>
      </trkpt>
      <trkpt lat="43.61049" lon="3.69786">
        <ele>152.464</ele>
        <time>2020-10-09T13:40:21.000Z</time>
      </trkpt>
      <trkpt lat="43.61047" lon="3.6979">
        <ele>152.864</ele>
        <time>2020-10-09T13:40:23.000Z</time>
      </trkpt>
      <trkpt lat="43.61046" lon="3.69795">
        <ele>153.132</ele>
        <time>2020-10-09T13:40:25.000Z</time>
      </trkpt>
      <trkpt lat="43.61045" lon="3.69799">
        <ele>153.332</ele>
        <time>2020-10-09T13:40:27.000Z</time>
      </trkpt>
      <trkpt lat="43.61044" lon="3.69804">
        <ele>153.532</ele>
        <time>2020-10-09T13:40:29.000Z</time>
      </trkpt>
      <trkpt lat="43.61043" lon="3.69809">
        <ele>153.732</ele>
        <time>2020-10-09T13:40:31.000Z</time>
      </trkpt>
      <trkpt lat="43.61043" lon="3.69813">
        <ele>153.932</ele>
        <time>2020-10-09T13:40:33.000Z</time>
      </trkpt>
      <trkpt lat="43.61042" lon="3.69818">
        <ele>154.132</ele>
        <time>2020-10-09T13:40:35.000Z</time>
      </trkpt>
      <trkpt lat="43.61042" lon="3.69822">
        <ele>154.332</ele>
        <time>2020-10-09T13:40:37.000Z</time>
      </trkpt>
      <trkpt lat="43.61041" lon="3.69827">
        <ele>154.532</ele>
        <time>2020-10-09T13:40:39.000Z</time>
      </trkpt>
      <trkpt lat="43.61041" lon="3.69831">
        <ele>154.732</ele>
        <time>2020-10-09T13:40:41.000Z</time>
      </trkpt>
      <trkpt lat="43.61041" lon="3.69835">
        <ele>154.932</ele>
        <time>2020-10-09T13:40:43.000Z</time>
      </trkpt>
      <trkpt lat="43.61041" lon="3.6984">
        <ele>155.132</ele>
        <time>2020-10-09T13:40:45.000Z</time>
      </trkpt>
      <trkpt lat="43.61041" lon="3.69843">
        <ele>155.232</ele>
        <time>2020-10-09T13:40:46.000Z</time>
      </trkpt>
      <trkpt lat="43.61042" lon="3.69846">
        <ele>155.332</ele>
        <time>2020-10-09T13:40:47.000Z</time>
      </trkpt>
      <trkpt lat="43.61042" lon="3.69848">
        <ele>155.432</ele>
        <time>2020-10-09T13:40:48.000Z</time>
      </trkpt>
      <trkpt lat="43.61042" lon="3.69851">
        <ele>155.532</ele>
        <time>2020-10-09T13:40:49.000Z</time>
      </trkpt>
      <trkpt lat="43.61041" lon="3.69853">
        <ele>155.632</ele>
        <time>2020-10-09T13:40:50.000Z</time>
      </trkpt>
      <trkpt lat="43.61041" lon="3.69856">
        <ele>155.732</ele>
        <time>2020-10-09T13:40:51.000Z</time>
      </trkpt>
      <trkpt lat="43.61041" lon="3.69858">
        <ele>155.832</ele>
        <time>2020-10-09T13:40:52.000Z</time>
      </trkpt>
      <trkpt lat="43.61041" lon="3.69861">
        <ele>155.932</ele>
        <time>2020-10-09T13:40:53.000Z</time>
      </trkpt>
      <trkpt lat="43.61041" lon="3.69864">
        <ele>156.03155816549</ele>
        <time>2020-10-09T13:40:54.000Z</time>
      </trkpt>
      <trkpt lat="43.61041" lon="3.69866">
        <ele>156.13017743263</ele>
        <time>2020-10-09T13:40:55.000Z</time>
      </trkpt>
      <trkpt lat="43.61041" lon="3.69869">
        <ele>156.22879669977</ele>
        <time>2020-10-09T13:40:56.000Z</time>
      </trkpt>
      <trkpt lat="43.61041" lon="3.69871">
        <ele>156.32741596692</ele>
        <time>2020-10-09T13:40:57.000Z</time>
      </trkpt>
      <trkpt lat="43.61042" lon="3.69874">
        <ele>156.42603523406</ele>
        <time>2020-10-09T13:40:58.000Z</time>
      </trkpt>
      <trkpt lat="43.61042" lon="3.69876">
        <ele>156.5246545012</ele>
        <time>2020-10-09T13:40:59.000Z</time>
      </trkpt>
      <trkpt lat="43.61043" lon="3.69879">
        <ele>156.62327376835</ele>
        <time>2020-10-09T13:41:00.000Z</time>
      </trkpt>
      <trkpt lat="43.61043" lon="3.69882">
        <ele>156.72189303549</ele>
        <time>2020-10-09T13:41:01.000Z</time>
      </trkpt>
      <trkpt lat="43.61043" lon="3.69886">
        <ele>156.82051230263</ele>
        <time>2020-10-09T13:41:02.000Z</time>
      </trkpt>
      <trkpt lat="43.61044" lon="3.69889">
        <ele>156.91913156978</ele>
        <time>2020-10-09T13:41:03.000Z</time>
      </trkpt>
      <trkpt lat="43.61044" lon="3.69892">
        <ele>157.01825494086</ele>
        <time>2020-10-09T13:41:04.000Z</time>
      </trkpt>
      <trkpt lat="43.61045" lon="3.69895">
        <ele>157.11967488498</ele>
        <time>2020-10-09T13:41:05.000Z</time>
      </trkpt>
      <trkpt lat="43.61045" lon="3.69898">
        <ele>157.22109482911</ele>
        <time>2020-10-09T13:41:06.000Z</time>
      </trkpt>
      <trkpt lat="43.61045" lon="3.69901">
        <ele>157.32251477324</ele>
        <time>2020-10-09T13:41:07.000Z</time>
      </trkpt>
      <trkpt lat="43.61046" lon="3.69903">
        <ele>157.42393471736</ele>
        <time>2020-10-09T13:41:08.000Z</time>
      </trkpt>
      <trkpt lat="43.61047" lon="3.69906">
        <ele>157.52535466149</ele>
        <time>2020-10-09T13:41:09.000Z</time>
      </trkpt>
      <trkpt lat="43.61047" lon="3.69909">
        <ele>157.62677460561</ele>
        <time>2020-10-09T13:41:10.000Z</time>
      </trkpt>
      <trkpt lat="43.61048" lon="3.69912">
        <ele>157.72819454974</ele>
        <time>2020-10-09T13:41:11.000Z</time>
      </trkpt>
      <trkpt lat="43.61048" lon="3.69915">
        <ele>157.82961449387</ele>
        <time>2020-10-09T13:41:12.000Z</time>
      </trkpt>
      <trkpt lat="43.61049" lon="3.69918">
        <ele>157.93103443799</ele>
        <time>2020-10-09T13:41:13.000Z</time>
      </trkpt>
      <trkpt lat="43.61049" lon="3.69921">
        <ele>158.032</ele>
        <time>2020-10-09T13:41:14.000Z</time>
      </trkpt>
      <trkpt lat="43.6105" lon="3.69924">
        <ele>158.132</ele>
        <time>2020-10-09T13:41:15.000Z</time>
      </trkpt>
      <trkpt lat="43.61051" lon="3.69926">
        <ele>158.232</ele>
        <time>2020-10-09T13:41:16.000Z</time>
      </trkpt>
      <trkpt lat="43.61051" lon="3.69929">
        <ele>158.332</ele>
        <time>2020-10-09T13:41:17.000Z</time>
      </trkpt>
      <trkpt lat="43.61052" lon="3.69931">
        <ele>158.432</ele>
        <time>2020-10-09T13:41:18.000Z</time>
      </trkpt>
      <trkpt lat="43.61053" lon="3.69934">
        <ele>158.532</ele>
        <time>2020-10-09T13:41:19.000Z</time>
      </trkpt>
      <trkpt lat="43.61054" lon="3.69937">
        <ele>158.632</ele>
        <time>2020-10-09T13:41:20.000Z</time>
      </trkpt>
      <trkpt lat="43.61054" lon="3.6994">
        <ele>158.732</ele>
        <time>2020-10-09T13:41:21.000Z</time>
      </trkpt>
      <trkpt lat="43.61054" lon="3.69943">
        <ele>158.832</ele>
        <time>2020-10-09T13:41:22.000Z</time>
      </trkpt>
      <trkpt lat="43.61054" lon="3.69947">
        <ele>158.932</ele>
        <time>2020-10-09T13:41:23.000Z</time>
      </trkpt>
      <trkpt lat="43.61054" lon="3.6995">
        <ele>159.032</ele>
        <time>2020-10-09T13:41:24.000Z</time>
      </trkpt>
      <trkpt lat="43.61054" lon="3.69953">
        <ele>159.132</ele>
        <time>2020-10-09T13:41:25.000Z</time>
      </trkpt>
      <trkpt lat="43.61054" lon="3.69956">
        <ele>159.232</ele>
        <time>2020-10-09T13:41:26.000Z</time>
      </trkpt>
      <trkpt lat="43.61054" lon="3.6996">
        <ele>159.432</ele>
        <time>2020-10-09T13:41:28.000Z</time>
      </trkpt>
      <trkpt lat="43.61054" lon="3.69964">
        <ele>159.632</ele>
        <time>2020-10-09T13:41:30.000Z</time>
      </trkpt>
      <trkpt lat="43.61056" lon="3.69969">
        <ele>159.832</ele>
        <time>2020-10-09T13:41:32.000Z</time>
      </trkpt>
      <trkpt lat="43.61056" lon="3.69971">
        <ele>159.932</ele>
        <time>2020-10-09T13:41:33.000Z</time>
      </trkpt>
      <trkpt lat="43.61057" lon="3.69973">
        <ele>160.03162055336</ele>
        <time>2020-10-09T13:41:34.000Z</time>
      </trkpt>
      <trkpt lat="43.61058" lon="3.69978">
        <ele>160.22924901186</ele>
        <time>2020-10-09T13:41:36.000Z</time>
      </trkpt>
      <trkpt lat="43.61058" lon="3.69982">
        <ele>160.42687747036</ele>
        <time>2020-10-09T13:41:38.000Z</time>
      </trkpt>
      <trkpt lat="43.61058" lon="3.69986">
        <ele>160.62450592885</ele>
        <time>2020-10-09T13:41:40.000Z</time>
      </trkpt>
      <trkpt lat="43.61059" lon="3.6999">
        <ele>160.82213438735</ele>
        <time>2020-10-09T13:41:42.000Z</time>
      </trkpt>
      <trkpt lat="43.6106" lon="3.69995">
        <ele>161.02024291498</ele>
        <time>2020-10-09T13:41:44.000Z</time>
      </trkpt>
      <trkpt lat="43.6106" lon="3.69999">
        <ele>161.22267206478</ele>
        <time>2020-10-09T13:41:46.000Z</time>
      </trkpt>
      <trkpt lat="43.6106" lon="3.70002">
        <ele>161.42510121457</ele>
        <time>2020-10-09T13:41:48.000Z</time>
      </trkpt>
      <trkpt lat="43.61061" lon="3.70006">
        <ele>161.62753036437</ele>
        <time>2020-10-09T13:41:50.000Z</time>
      </trkpt>
      <trkpt lat="43.61061" lon="3.70009">
        <ele>161.72874493927</ele>
        <time>2020-10-09T13:41:51.000Z</time>
      </trkpt>
      <trkpt lat="43.61062" lon="3.70011">
        <ele>161.82995951417</ele>
        <time>2020-10-09T13:41:52.000Z</time>
      </trkpt>
      <trkpt lat="43.61063" lon="3.70015">
        <ele>162.03165181985</ele>
        <time>2020-10-09T13:41:54.000Z</time>
      </trkpt>
      <trkpt lat="43.61064" lon="3.70019">
        <ele>162.22947569393</ele>
        <time>2020-10-09T13:41:56.000Z</time>
      </trkpt>
      <trkpt lat="43.61064" lon="3.70024">
        <ele>162.42729956802</ele>
        <time>2020-10-09T13:41:58.000Z</time>
      </trkpt>
      <trkpt lat="43.61065" lon="3.70029">
        <ele>162.6251234421</ele>
        <time>2020-10-09T13:42:00.000Z</time>
      </trkpt>
      <trkpt lat="43.61066" lon="3.70033">
        <ele>162.82294731618</ele>
        <time>2020-10-09T13:42:02.000Z</time>
      </trkpt>
      <trkpt lat="43.61067" lon="3.70038">
        <ele>163.04125676464</ele>
        <time>2020-10-09T13:42:04.000Z</time>
      </trkpt>
      <trkpt lat="43.61068" lon="3.70042">
        <ele>163.43418432012</ele>
        <time>2020-10-09T13:42:06.000Z</time>
      </trkpt>
      <trkpt lat="43.61068" lon="3.70045">
        <ele>163.63064809785</ele>
        <time>2020-10-09T13:42:07.000Z</time>
      </trkpt>
      <trkpt lat="43.61069" lon="3.70047">
        <ele>163.82711187559</ele>
        <time>2020-10-09T13:42:08.000Z</time>
      </trkpt>
      <trkpt lat="43.6107" lon="3.70049">
        <ele>164.02357565333</ele>
        <time>2020-10-09T13:42:09.000Z</time>
      </trkpt>
      <trkpt lat="43.61071" lon="3.70052">
        <ele>164.22003943107</ele>
        <time>2020-10-09T13:42:10.000Z</time>
      </trkpt>
      <trkpt lat="43.61071" lon="3.70054">
        <ele>164.4165032088</ele>
        <time>2020-10-09T13:42:11.000Z</time>
      </trkpt>
      <trkpt lat="43.61071" lon="3.70057">
        <ele>164.61296698654</ele>
        <time>2020-10-09T13:42:12.000Z</time>
      </trkpt>
      <trkpt lat="43.61072" lon="3.7006">
        <ele>164.80943076428</ele>
        <time>2020-10-09T13:42:13.000Z</time>
      </trkpt>
      <trkpt lat="43.61072" lon="3.70062">
        <ele>165.00308992689</ele>
        <time>2020-10-09T13:42:14.000Z</time>
      </trkpt>
      <trkpt lat="43.61073" lon="3.70067">
        <ele>165.20906308249</ele>
        <time>2020-10-09T13:42:16.000Z</time>
      </trkpt>
      <trkpt lat="43.61074" lon="3.70069">
        <ele>165.31204966029</ele>
        <time>2020-10-09T13:42:17.000Z</time>
      </trkpt>
      <trkpt lat="43.61075" lon="3.70074">
        <ele>165.51802281589</ele>
        <time>2020-10-09T13:42:19.000Z</time>
      </trkpt>
      <trkpt lat="43.61076" lon="3.70078">
        <ele>165.72399597149</ele>
        <time>2020-10-09T13:42:21.000Z</time>
      </trkpt>
      <trkpt lat="43.61077" lon="3.70081">
        <ele>165.82698254929</ele>
        <time>2020-10-09T13:42:22.000Z</time>
      </trkpt>
      <trkpt lat="43.61077" lon="3.70083">
        <ele>165.9299691271</ele>
        <time>2020-10-09T13:42:23.000Z</time>
      </trkpt>
      <trkpt lat="43.61078" lon="3.70085">
        <ele>166.03041825095</ele>
        <time>2020-10-09T13:42:24.000Z</time>
      </trkpt>
      <trkpt lat="43.61079" lon="3.70088">
        <ele>166.12547528517</ele>
        <time>2020-10-09T13:42:25.000Z</time>
      </trkpt>
      <trkpt lat="43.6108" lon="3.7009">
        <ele>166.22053231939</ele>
        <time>2020-10-09T13:42:26.000Z</time>
      </trkpt>
      <trkpt lat="43.6108" lon="3.70092">
        <ele>166.31558935361</ele>
        <time>2020-10-09T13:42:27.000Z</time>
      </trkpt>
      <trkpt lat="43.61081" lon="3.70095">
        <ele>166.41064638783</ele>
        <time>2020-10-09T13:42:28.000Z</time>
      </trkpt>
      <trkpt lat="43.61082" lon="3.70097">
        <ele>166.50570342205</ele>
        <time>2020-10-09T13:42:29.000Z</time>
      </trkpt>
      <trkpt lat="43.61083" lon="3.70102">
        <ele>166.69581749049</ele>
        <time>2020-10-09T13:42:31.000Z</time>
      </trkpt>
      <trkpt lat="43.61083" lon="3.70104">
        <ele>166.79087452472</ele>
        <time>2020-10-09T13:42:32.000Z</time>
      </trkpt>
      <trkpt lat="43.61084" lon="3.70107">
        <ele>166.88593155893</ele>
        <time>2020-10-09T13:42:33.000Z</time>
      </trkpt>
      <trkpt lat="43.61085" lon="3.70109">
        <ele>166.98098859316</ele>
        <time>2020-10-09T13:42:34.000Z</time>
      </trkpt>
      <trkpt lat="43.61085" lon="3.70112">
        <ele>167.08342020157</ele>
        <time>2020-10-09T13:42:35.000Z</time>
      </trkpt>
      <trkpt lat="43.61085" lon="3.70114">
        <ele>167.18769545353</ele>
        <time>2020-10-09T13:42:36.000Z</time>
      </trkpt>
      <trkpt lat="43.61086" lon="3.70117">
        <ele>167.2919707055</ele>
        <time>2020-10-09T13:42:37.000Z</time>
      </trkpt>
      <trkpt lat="43.61087" lon="3.70119">
        <ele>167.39624595746</ele>
        <time>2020-10-09T13:42:38.000Z</time>
      </trkpt>
      <trkpt lat="43.61088" lon="3.70124">
        <ele>167.60479646138</ele>
        <time>2020-10-09T13:42:40.000Z</time>
      </trkpt>
      <trkpt lat="43.61088" lon="3.70127">
        <ele>167.70907171334</ele>
        <time>2020-10-09T13:42:41.000Z</time>
      </trkpt>
      <trkpt lat="43.61088" lon="3.7013">
        <ele>167.81334696531</ele>
        <time>2020-10-09T13:42:42.000Z</time>
      </trkpt>
      <trkpt lat="43.61089" lon="3.70134">
        <ele>168.0415835511</ele>
        <time>2020-10-09T13:42:44.000Z</time>
      </trkpt>
      <trkpt lat="43.6109" lon="3.70139">
        <ele>168.43762340602</ele>
        <time>2020-10-09T13:42:46.000Z</time>
      </trkpt>
      <trkpt lat="43.61091" lon="3.70143">
        <ele>168.83366326093</ele>
        <time>2020-10-09T13:42:48.000Z</time>
      </trkpt>
      <trkpt lat="43.61092" lon="3.70148">
        <ele>169.22970311585</ele>
        <time>2020-10-09T13:42:50.000Z</time>
      </trkpt>
      <trkpt lat="43.61093" lon="3.70153">
        <ele>169.62574297077</ele>
        <time>2020-10-09T13:42:52.000Z</time>
      </trkpt>
      <trkpt lat="43.61094" lon="3.70157">
        <ele>170.01123627825</ele>
        <time>2020-10-09T13:42:54.000Z</time>
      </trkpt>
      <trkpt lat="43.61094" lon="3.7016">
        <ele>170.11338129083</ele>
        <time>2020-10-09T13:42:55.000Z</time>
      </trkpt>
      <trkpt lat="43.61094" lon="3.70162">
        <ele>170.2155263034</ele>
        <time>2020-10-09T13:42:56.000Z</time>
      </trkpt>
      <trkpt lat="43.61095" lon="3.70167">
        <ele>170.41981632856</ele>
        <time>2020-10-09T13:42:58.000Z</time>
      </trkpt>
      <trkpt lat="43.61096" lon="3.70169">
        <ele>170.52196134114</ele>
        <time>2020-10-09T13:42:59.000Z</time>
      </trkpt>
      <trkpt lat="43.61096" lon="3.70172">
        <ele>170.62410635371</ele>
        <time>2020-10-09T13:43:00.000Z</time>
      </trkpt>
      <trkpt lat="43.61096" lon="3.70174">
        <ele>170.72625136629</ele>
        <time>2020-10-09T13:43:01.000Z</time>
      </trkpt>
      <trkpt lat="43.61097" lon="3.70177">
        <ele>170.82839637887</ele>
        <time>2020-10-09T13:43:02.000Z</time>
      </trkpt>
      <trkpt lat="43.61097" lon="3.70179">
        <ele>170.93054139145</ele>
        <time>2020-10-09T13:43:03.000Z</time>
      </trkpt>
      <trkpt lat="43.61098" lon="3.70184">
        <ele>171</ele>
        <time>2020-10-09T13:43:05.000Z</time>
      </trkpt>
      <trkpt lat="43.61098" lon="3.70189">
        <ele>171</ele>
        <time>2020-10-09T13:43:07.000Z</time>
      </trkpt>
      <trkpt lat="43.61099" lon="3.70193">
        <ele>171</ele>
        <time>2020-10-09T13:43:09.000Z</time>
      </trkpt>
      <trkpt lat="43.61099" lon="3.70196">
        <ele>171</ele>
        <time>2020-10-09T13:43:10.000Z</time>
      </trkpt>
      <trkpt lat="43.611" lon="3.70199">
        <ele>171</ele>
        <time>2020-10-09T13:43:11.000Z</time>
      </trkpt>
      <trkpt lat="43.611" lon="3.70201">
        <ele>171</ele>
        <time>2020-10-09T13:43:12.000Z</time>
      </trkpt>
      <trkpt lat="43.61101" lon="3.70204">
        <ele>171</ele>
        <time>2020-10-09T13:43:13.000Z</time>
      </trkpt>
      <trkpt lat="43.61101" lon="3.70207">
        <ele>171.00513841896</ele>
        <time>2020-10-09T13:43:14.000Z</time>
      </trkpt>
      <trkpt lat="43.61102" lon="3.7021">
        <ele>171.10791337568</ele>
        <time>2020-10-09T13:43:15.000Z</time>
      </trkpt>
      <trkpt lat="43.61103" lon="3.70212">
        <ele>171.21068833239</ele>
        <time>2020-10-09T13:43:16.000Z</time>
      </trkpt>
      <trkpt lat="43.61103" lon="3.70215">
        <ele>171.31346328911</ele>
        <time>2020-10-09T13:43:17.000Z</time>
      </trkpt>
      <trkpt lat="43.61104" lon="3.70218">
        <ele>171.41623824583</ele>
        <time>2020-10-09T13:43:18.000Z</time>
      </trkpt>
      <trkpt lat="43.61104" lon="3.7022">
        <ele>171.51901320255</ele>
        <time>2020-10-09T13:43:19.000Z</time>
      </trkpt>
      <trkpt lat="43.61105" lon="3.70223">
        <ele>171.62178815927</ele>
        <time>2020-10-09T13:43:20.000Z</time>
      </trkpt>
      <trkpt lat="43.61105" lon="3.70226">
        <ele>171.72456311599</ele>
        <time>2020-10-09T13:43:21.000Z</time>
      </trkpt>
      <trkpt lat="43.61106" lon="3.70228">
        <ele>171.82733807271</ele>
        <time>2020-10-09T13:43:22.000Z</time>
      </trkpt>
      <trkpt lat="43.61106" lon="3.70231">
        <ele>171.93011302943</ele>
        <time>2020-10-09T13:43:23.000Z</time>
      </trkpt>
      <trkpt lat="43.61107" lon="3.70236">
        <ele>172.132</ele>
        <time>2020-10-09T13:43:25.000Z</time>
      </trkpt>
      <trkpt lat="43.61108" lon="3.7024">
        <ele>172.332</ele>
        <time>2020-10-09T13:43:27.000Z</time>
      </trkpt>
      <trkpt lat="43.61109" lon="3.70244">
        <ele>172.532</ele>
        <time>2020-10-09T13:43:29.000Z</time>
      </trkpt>
      <trkpt lat="43.61109" lon="3.70248">
        <ele>172.732</ele>
        <time>2020-10-09T13:43:31.000Z</time>
      </trkpt>
      <trkpt lat="43.6111" lon="3.70252">
        <ele>172.932</ele>
        <time>2020-10-09T13:43:33.000Z</time>
      </trkpt>
      <trkpt lat="43.61111" lon="3.70256">
        <ele>173.264</ele>
        <time>2020-10-09T13:43:35.000Z</time>
      </trkpt>
      <trkpt lat="43.61111" lon="3.70261">
        <ele>173.664</ele>
        <time>2020-10-09T13:43:37.000Z</time>
      </trkpt>
      <trkpt lat="43.61112" lon="3.70265">
        <ele>174.064</ele>
        <time>2020-10-09T13:43:39.000Z</time>
      </trkpt>
      <trkpt lat="43.61113" lon="3.70268">
        <ele>174.464</ele>
        <time>2020-10-09T13:43:41.000Z</time>
      </trkpt>
      <trkpt lat="43.61114" lon="3.70272">
        <ele>174.864</ele>
        <time>2020-10-09T13:43:43.000Z</time>
      </trkpt>
      <trkpt lat="43.61116" lon="3.70275">
        <ele>175.132</ele>
        <time>2020-10-09T13:43:45.000Z</time>
      </trkpt>
      <trkpt lat="43.61117" lon="3.70279">
        <ele>175.332</ele>
        <time>2020-10-09T13:43:47.000Z</time>
      </trkpt>
      <trkpt lat="43.61119" lon="3.70282">
        <ele>175.532</ele>
        <time>2020-10-09T13:43:49.000Z</time>
      </trkpt>
      <trkpt lat="43.6112" lon="3.70285">
        <ele>175.732</ele>
        <time>2020-10-09T13:43:51.000Z</time>
      </trkpt>
      <trkpt lat="43.61121" lon="3.70288">
        <ele>175.932</ele>
        <time>2020-10-09T13:43:53.000Z</time>
      </trkpt>
      <trkpt lat="43.61123" lon="3.70292">
        <ele>176.132</ele>
        <time>2020-10-09T13:43:55.000Z</time>
      </trkpt>
      <trkpt lat="43.61125" lon="3.70296">
        <ele>176.332</ele>
        <time>2020-10-09T13:43:57.000Z</time>
      </trkpt>
      <trkpt lat="43.61126" lon="3.703">
        <ele>176.532</ele>
        <time>2020-10-09T13:43:59.000Z</time>
      </trkpt>
      <trkpt lat="43.61128" lon="3.70302">
        <ele>176.732</ele>
        <time>2020-10-09T13:44:01.000Z</time>
      </trkpt>
      <trkpt lat="43.61131" lon="3.70305">
        <ele>176.932</ele>
        <time>2020-10-09T13:44:03.000Z</time>
      </trkpt>
      <trkpt lat="43.61132" lon="3.70307">
        <ele>177.06368161232</ele>
        <time>2020-10-09T13:44:04.000Z</time>
      </trkpt>
      <trkpt lat="43.61135" lon="3.7031">
        <ele>177.4616916893</ele>
        <time>2020-10-09T13:44:06.000Z</time>
      </trkpt>
      <trkpt lat="43.61136" lon="3.70312">
        <ele>177.66069672778</ele>
        <time>2020-10-09T13:44:07.000Z</time>
      </trkpt>
      <trkpt lat="43.61138" lon="3.70314">
        <ele>177.85970176627</ele>
        <time>2020-10-09T13:44:08.000Z</time>
      </trkpt>
      <trkpt lat="43.61139" lon="3.70316">
        <ele>178.05870680476</ele>
        <time>2020-10-09T13:44:09.000Z</time>
      </trkpt>
      <trkpt lat="43.61141" lon="3.70318">
        <ele>178.25771184325</ele>
        <time>2020-10-09T13:44:10.000Z</time>
      </trkpt>
      <trkpt lat="43.61142" lon="3.7032">
        <ele>178.45671688174</ele>
        <time>2020-10-09T13:44:11.000Z</time>
      </trkpt>
      <trkpt lat="43.61143" lon="3.70323">
        <ele>178.65572192023</ele>
        <time>2020-10-09T13:44:12.000Z</time>
      </trkpt>
      <trkpt lat="43.61144" lon="3.70325">
        <ele>178.85472695872</ele>
        <time>2020-10-09T13:44:13.000Z</time>
      </trkpt>
      <trkpt lat="43.61145" lon="3.70327">
        <ele>179.02713599127</ele>
        <time>2020-10-09T13:44:14.000Z</time>
      </trkpt>
      <trkpt lat="43.61147" lon="3.70331">
        <ele>179.22814095175</ele>
        <time>2020-10-09T13:44:16.000Z</time>
      </trkpt>
      <trkpt lat="43.61149" lon="3.70335">
        <ele>179.42914591223</ele>
        <time>2020-10-09T13:44:18.000Z</time>
      </trkpt>
      <trkpt lat="43.6115" lon="3.70337">
        <ele>179.52964839247</ele>
        <time>2020-10-09T13:44:19.000Z</time>
      </trkpt>
      <trkpt lat="43.61151" lon="3.70342">
        <ele>179.73065335296</ele>
        <time>2020-10-09T13:44:21.000Z</time>
      </trkpt>
      <trkpt lat="43.61152" lon="3.70346">
        <ele>179.93165831344</ele>
        <time>2020-10-09T13:44:23.000Z</time>
      </trkpt>
      <trkpt lat="43.61154" lon="3.7035">
        <ele>180</ele>
        <time>2020-10-09T13:44:25.000Z</time>
      </trkpt>
      <trkpt lat="43.61155" lon="3.70353">
        <ele>180</ele>
        <time>2020-10-09T13:44:27.000Z</time>
      </trkpt>
      <trkpt lat="43.61157" lon="3.70356">
        <ele>180</ele>
        <time>2020-10-09T13:44:29.000Z</time>
      </trkpt>
      <trkpt lat="43.61158" lon="3.70359">
        <ele>180</ele>
        <time>2020-10-09T13:44:31.000Z</time>
      </trkpt>
      <trkpt lat="43.6116" lon="3.7036">
        <ele>180</ele>
        <time>2020-10-09T13:44:33.000Z</time>
      </trkpt>
      <trkpt lat="43.6116" lon="3.7036">
        <ele>180</ele>
        <time>2020-10-09T13:44:37.000Z</time>
      </trkpt>
      <trkpt lat="43.61162" lon="3.70368">
        <ele>181.99937594097</ele>
        <time>2020-10-09T13:53:42.000Z</time>
      </trkpt>
      <trkpt lat="43.61164" lon="3.70369">
        <ele>182.08631640501</ele>
        <time>2020-10-09T13:53:43.000Z</time>
      </trkpt>
      <trkpt lat="43.61167" lon="3.70372">
        <ele>182.29684257897</ele>
        <time>2020-10-09T13:53:45.000Z</time>
      </trkpt>
      <trkpt lat="43.61169" lon="3.70375">
        <ele>182.40210566595</ele>
        <time>2020-10-09T13:53:46.000Z</time>
      </trkpt>
      <trkpt lat="43.6117" lon="3.70377">
        <ele>182.50736875293</ele>
        <time>2020-10-09T13:53:47.000Z</time>
      </trkpt>
      <trkpt lat="43.61172" lon="3.70378">
        <ele>182.61263183991</ele>
        <time>2020-10-09T13:53:48.000Z</time>
      </trkpt>
      <trkpt lat="43.61175" lon="3.7038">
        <ele>182.71789492689</ele>
        <time>2020-10-09T13:53:49.000Z</time>
      </trkpt>
      <trkpt lat="43.61177" lon="3.70383">
        <ele>182.82315801387</ele>
        <time>2020-10-09T13:53:50.000Z</time>
      </trkpt>
      <trkpt lat="43.61179" lon="3.70386">
        <ele>182.92842110085</ele>
        <time>2020-10-09T13:53:51.000Z</time>
      </trkpt>
      <trkpt lat="43.61181" lon="3.70388">
        <ele>183</ele>
        <time>2020-10-09T13:53:52.000Z</time>
      </trkpt>
      <trkpt lat="43.61183" lon="3.70391">
        <ele>183</ele>
        <time>2020-10-09T13:53:53.000Z</time>
      </trkpt>
      <trkpt lat="43.61185" lon="3.70393">
        <ele>183</ele>
        <time>2020-10-09T13:53:54.000Z</time>
      </trkpt>
      <trkpt lat="43.61187" lon="3.70396">
        <ele>183</ele>
        <time>2020-10-09T13:53:55.000Z</time>
      </trkpt>
      <trkpt lat="43.61189" lon="3.70398">
        <ele>183</ele>
        <time>2020-10-09T13:53:56.000Z</time>
      </trkpt>
      <trkpt lat="43.61191" lon="3.70401">
        <ele>183</ele>
        <time>2020-10-09T13:53:57.000Z</time>
      </trkpt>
      <trkpt lat="43.61193" lon="3.70403">
        <ele>183</ele>
        <time>2020-10-09T13:53:58.000Z</time>
      </trkpt>
      <trkpt lat="43.61195" lon="3.70405">
        <ele>183</ele>
        <time>2020-10-09T13:53:59.000Z</time>
      </trkpt>
      <trkpt lat="43.61197" lon="3.70407">
        <ele>183</ele>
        <time>2020-10-09T13:54:00.000Z</time>
      </trkpt>
      <trkpt lat="43.61199" lon="3.70409">
        <ele>183</ele>
        <time>2020-10-09T13:54:01.000Z</time>
      </trkpt>
      <trkpt lat="43.61201" lon="3.70412">
        <ele>183</ele>
        <time>2020-10-09T13:54:02.000Z</time>
      </trkpt>
      <trkpt lat="43.61203" lon="3.70415">
        <ele>183</ele>
        <time>2020-10-09T13:54:03.000Z</time>
      </trkpt>
      <trkpt lat="43.61205" lon="3.70417">
        <ele>183</ele>
        <time>2020-10-09T13:54:04.000Z</time>
      </trkpt>
      <trkpt lat="43.61208" lon="3.7042">
        <ele>183</ele>
        <time>2020-10-09T13:54:05.000Z</time>
      </trkpt>
      <trkpt lat="43.6121" lon="3.70423">
        <ele>183</ele>
        <time>2020-10-09T13:54:06.000Z</time>
      </trkpt>
      <trkpt lat="43.61212" lon="3.70426">
        <ele>183</ele>
        <time>2020-10-09T13:54:07.000Z</time>
      </trkpt>
      <trkpt lat="43.61214" lon="3.70429">
        <ele>183</ele>
        <time>2020-10-09T13:54:08.000Z</time>
      </trkpt>
      <trkpt lat="43.61216" lon="3.70432">
        <ele>183</ele>
        <time>2020-10-09T13:54:09.000Z</time>
      </trkpt>
      <trkpt lat="43.61218" lon="3.70435">
        <ele>183</ele>
        <time>2020-10-09T13:54:10.000Z</time>
      </trkpt>
      <trkpt lat="43.6122" lon="3.70439">
        <ele>183</ele>
        <time>2020-10-09T13:54:11.000Z</time>
      </trkpt>
      <trkpt lat="43.61222" lon="3.70442">
        <ele>183</ele>
        <time>2020-10-09T13:54:12.000Z</time>
      </trkpt>
      <trkpt lat="43.61223" lon="3.70446">
        <ele>183</ele>
        <time>2020-10-09T13:54:13.000Z</time>
      </trkpt>
      <trkpt lat="43.61225" lon="3.7045">
        <ele>183</ele>
        <time>2020-10-09T13:54:14.000Z</time>
      </trkpt>
      <trkpt lat="43.61226" lon="3.70454">
        <ele>183</ele>
        <time>2020-10-09T13:54:15.000Z</time>
      </trkpt>
      <trkpt lat="43.61228" lon="3.70458">
        <ele>183</ele>
        <time>2020-10-09T13:54:16.000Z</time>
      </trkpt>
      <trkpt lat="43.61229" lon="3.70462">
        <ele>183</ele>
        <time>2020-10-09T13:54:17.000Z</time>
      </trkpt>
      <trkpt lat="43.61231" lon="3.70465">
        <ele>183</ele>
        <time>2020-10-09T13:54:18.000Z</time>
      </trkpt>
      <trkpt lat="43.61232" lon="3.70469">
        <ele>183</ele>
        <time>2020-10-09T13:54:19.000Z</time>
      </trkpt>
      <trkpt lat="43.61234" lon="3.70473">
        <ele>183</ele>
        <time>2020-10-09T13:54:20.000Z</time>
      </trkpt>
      <trkpt lat="43.61235" lon="3.70477">
        <ele>183</ele>
        <time>2020-10-09T13:54:21.000Z</time>
      </trkpt>
      <trkpt lat="43.61236" lon="3.70481">
        <ele>183.01088062959</ele>
        <time>2020-10-09T13:54:22.000Z</time>
      </trkpt>
      <trkpt lat="43.61238" lon="3.70485">
        <ele>183.10979256663</ele>
        <time>2020-10-09T13:54:23.000Z</time>
      </trkpt>
      <trkpt lat="43.61239" lon="3.70489">
        <ele>183.20870450367</ele>
        <time>2020-10-09T13:54:24.000Z</time>
      </trkpt>
      <trkpt lat="43.61241" lon="3.70492">
        <ele>183.30761644072</ele>
        <time>2020-10-09T13:54:25.000Z</time>
      </trkpt>
      <trkpt lat="43.61242" lon="3.70496">
        <ele>183.40652837776</ele>
        <time>2020-10-09T13:54:26.000Z</time>
      </trkpt>
      <trkpt lat="43.61244" lon="3.70499">
        <ele>183.5054403148</ele>
        <time>2020-10-09T13:54:27.000Z</time>
      </trkpt>
      <trkpt lat="43.61246" lon="3.70502">
        <ele>183.60435225184</ele>
        <time>2020-10-09T13:54:28.000Z</time>
      </trkpt>
      <trkpt lat="43.61247" lon="3.70506">
        <ele>183.70326418888</ele>
        <time>2020-10-09T13:54:29.000Z</time>
      </trkpt>
      <trkpt lat="43.61249" lon="3.70509">
        <ele>183.80217612592</ele>
        <time>2020-10-09T13:54:30.000Z</time>
      </trkpt>
      <trkpt lat="43.6125" lon="3.70513">
        <ele>183.90108806296</ele>
        <time>2020-10-09T13:54:31.000Z</time>
      </trkpt>
      <trkpt lat="43.61252" lon="3.70516">
        <ele>184</ele>
        <time>2020-10-09T13:54:32.000Z</time>
      </trkpt>
      <trkpt lat="43.61253" lon="3.7052">
        <ele>184.20661157025</ele>
        <time>2020-10-09T13:54:33.000Z</time>
      </trkpt>
      <trkpt lat="43.61254" lon="3.70524">
        <ele>184.4132231405</ele>
        <time>2020-10-09T13:54:34.000Z</time>
      </trkpt>
      <trkpt lat="43.61256" lon="3.70528">
        <ele>184.61983471074</ele>
        <time>2020-10-09T13:54:35.000Z</time>
      </trkpt>
      <trkpt lat="43.61257" lon="3.70532">
        <ele>184.82644628099</ele>
        <time>2020-10-09T13:54:36.000Z</time>
      </trkpt>
      <trkpt lat="43.61257" lon="3.70535">
        <ele>185.03305785124</ele>
        <time>2020-10-09T13:54:37.000Z</time>
      </trkpt>
      <trkpt lat="43.61258" lon="3.70539">
        <ele>185.23966942149</ele>
        <time>2020-10-09T13:54:38.000Z</time>
      </trkpt>
      <trkpt lat="43.61258" lon="3.70542">
        <ele>185.44628099174</ele>
        <time>2020-10-09T13:54:39.000Z</time>
      </trkpt>
      <trkpt lat="43.61259" lon="3.70545">
        <ele>185.65289256198</ele>
        <time>2020-10-09T13:54:40.000Z</time>
      </trkpt>
      <trkpt lat="43.61259" lon="3.70549">
        <ele>185.85950413223</ele>
        <time>2020-10-09T13:54:41.000Z</time>
      </trkpt>
      <trkpt lat="43.61259" lon="3.70553">
        <ele>186.064</ele>
        <time>2020-10-09T13:54:42.000Z</time>
      </trkpt>
      <trkpt lat="43.6126" lon="3.70557">
        <ele>186.264</ele>
        <time>2020-10-09T13:54:43.000Z</time>
      </trkpt>
      <trkpt lat="43.6126" lon="3.70561">
        <ele>186.464</ele>
        <time>2020-10-09T13:54:44.000Z</time>
      </trkpt>
      <trkpt lat="43.61261" lon="3.70564">
        <ele>186.664</ele>
        <time>2020-10-09T13:54:45.000Z</time>
      </trkpt>
      <trkpt lat="43.61262" lon="3.70568">
        <ele>186.864</ele>
        <time>2020-10-09T13:54:46.000Z</time>
      </trkpt>
      <trkpt lat="43.61263" lon="3.70571">
        <ele>187.064</ele>
        <time>2020-10-09T13:54:47.000Z</time>
      </trkpt>
      <trkpt lat="43.61264" lon="3.70575">
        <ele>187.264</ele>
        <time>2020-10-09T13:54:48.000Z</time>
      </trkpt>
      <trkpt lat="43.61264" lon="3.70578">
        <ele>187.464</ele>
        <time>2020-10-09T13:54:49.000Z</time>
      </trkpt>
      <trkpt lat="43.61266" lon="3.70581">
        <ele>187.664</ele>
        <time>2020-10-09T13:54:50.000Z</time>
      </trkpt>
      <trkpt lat="43.61267" lon="3.70584">
        <ele>187.864</ele>
        <time>2020-10-09T13:54:51.000Z</time>
      </trkpt>
      <trkpt lat="43.61268" lon="3.70587">
        <ele>188.032</ele>
        <time>2020-10-09T13:54:52.000Z</time>
      </trkpt>
      <trkpt lat="43.6127" lon="3.70591">
        <ele>188.132</ele>
        <time>2020-10-09T13:54:53.000Z</time>
      </trkpt>
      <trkpt lat="43.61271" lon="3.70594">
        <ele>188.232</ele>
        <time>2020-10-09T13:54:54.000Z</time>
      </trkpt>
      <trkpt lat="43.61272" lon="3.70598">
        <ele>188.332</ele>
        <time>2020-10-09T13:54:55.000Z</time>
      </trkpt>
      <trkpt lat="43.61274" lon="3.70601">
        <ele>188.432</ele>
        <time>2020-10-09T13:54:56.000Z</time>
      </trkpt>
      <trkpt lat="43.61275" lon="3.70605">
        <ele>188.532</ele>
        <time>2020-10-09T13:54:57.000Z</time>
      </trkpt>
      <trkpt lat="43.61277" lon="3.70608">
        <ele>188.632</ele>
        <time>2020-10-09T13:54:58.000Z</time>
      </trkpt>
      <trkpt lat="43.61278" lon="3.70612">
        <ele>188.732</ele>
        <time>2020-10-09T13:54:59.000Z</time>
      </trkpt>
      <trkpt lat="43.61279" lon="3.70616">
        <ele>188.832</ele>
        <time>2020-10-09T13:55:00.000Z</time>
      </trkpt>
      <trkpt lat="43.6128" lon="3.70619">
        <ele>188.932</ele>
        <time>2020-10-09T13:55:01.000Z</time>
      </trkpt>
      <trkpt lat="43.61282" lon="3.70623">
        <ele>189.03165181985</ele>
        <time>2020-10-09T13:55:02.000Z</time>
      </trkpt>
      <trkpt lat="43.61283" lon="3.70627">
        <ele>189.13056375689</ele>
        <time>2020-10-09T13:55:03.000Z</time>
      </trkpt>
      <trkpt lat="43.61284" lon="3.7063">
        <ele>189.22947569393</ele>
        <time>2020-10-09T13:55:04.000Z</time>
      </trkpt>
      <trkpt lat="43.61285" lon="3.70634">
        <ele>189.32838763097</ele>
        <time>2020-10-09T13:55:05.000Z</time>
      </trkpt>
      <trkpt lat="43.61287" lon="3.70638">
        <ele>189.42729956802</ele>
        <time>2020-10-09T13:55:06.000Z</time>
      </trkpt>
      <trkpt lat="43.61288" lon="3.70642">
        <ele>189.52621150506</ele>
        <time>2020-10-09T13:55:07.000Z</time>
      </trkpt>
      <trkpt lat="43.61289" lon="3.70645">
        <ele>189.6251234421</ele>
        <time>2020-10-09T13:55:08.000Z</time>
      </trkpt>
      <trkpt lat="43.6129" lon="3.70649">
        <ele>189.72403537914</ele>
        <time>2020-10-09T13:55:09.000Z</time>
      </trkpt>
      <trkpt lat="43.61291" lon="3.70653">
        <ele>189.82294731618</ele>
        <time>2020-10-09T13:55:10.000Z</time>
      </trkpt>
      <trkpt lat="43.61292" lon="3.70656">
        <ele>189.92185925322</ele>
        <time>2020-10-09T13:55:11.000Z</time>
      </trkpt>
      <trkpt lat="43.61294" lon="3.7066">
        <ele>190.02123325257</ele>
        <time>2020-10-09T13:55:12.000Z</time>
      </trkpt>
      <trkpt lat="43.61295" lon="3.70664">
        <ele>190.12234551987</ele>
        <time>2020-10-09T13:55:13.000Z</time>
      </trkpt>
      <trkpt lat="43.61296" lon="3.70668">
        <ele>190.22345778716</ele>
        <time>2020-10-09T13:55:14.000Z</time>
      </trkpt>
      <trkpt lat="43.61298" lon="3.70671">
        <ele>190.32457005446</ele>
        <time>2020-10-09T13:55:15.000Z</time>
      </trkpt>
      <trkpt lat="43.61299" lon="3.70675">
        <ele>190.42568232176</ele>
        <time>2020-10-09T13:55:16.000Z</time>
      </trkpt>
      <trkpt lat="43.61301" lon="3.70679">
        <ele>190.52679458905</ele>
        <time>2020-10-09T13:55:17.000Z</time>
      </trkpt>
      <trkpt lat="43.61303" lon="3.70683">
        <ele>190.62790685635</ele>
        <time>2020-10-09T13:55:18.000Z</time>
      </trkpt>
      <trkpt lat="43.61304" lon="3.70687">
        <ele>190.72901912365</ele>
        <time>2020-10-09T13:55:19.000Z</time>
      </trkpt>
      <trkpt lat="43.61306" lon="3.70692">
        <ele>190.83013139094</ele>
        <time>2020-10-09T13:55:20.000Z</time>
      </trkpt>
      <trkpt lat="43.61307" lon="3.70696">
        <ele>190.93124365824</ele>
        <time>2020-10-09T13:55:21.000Z</time>
      </trkpt>
      <trkpt lat="43.61309" lon="3.70701">
        <ele>190.968</ele>
        <time>2020-10-09T13:55:22.000Z</time>
      </trkpt>
      <trkpt lat="43.61311" lon="3.70706">
        <ele>190.868</ele>
        <time>2020-10-09T13:55:23.000Z</time>
      </trkpt>
      <trkpt lat="43.61312" lon="3.7071">
        <ele>190.768</ele>
        <time>2020-10-09T13:55:24.000Z</time>
      </trkpt>
      <trkpt lat="43.61314" lon="3.70715">
        <ele>190.668</ele>
        <time>2020-10-09T13:55:25.000Z</time>
      </trkpt>
      <trkpt lat="43.61316" lon="3.7072">
        <ele>190.568</ele>
        <time>2020-10-09T13:55:26.000Z</time>
      </trkpt>
      <trkpt lat="43.61318" lon="3.70724">
        <ele>190.468</ele>
        <time>2020-10-09T13:55:27.000Z</time>
      </trkpt>
      <trkpt lat="43.6132" lon="3.70729">
        <ele>190.368</ele>
        <time>2020-10-09T13:55:28.000Z</time>
      </trkpt>
      <trkpt lat="43.61322" lon="3.70733">
        <ele>190.268</ele>
        <time>2020-10-09T13:55:29.000Z</time>
      </trkpt>
      <trkpt lat="43.61325" lon="3.70738">
        <ele>190.168</ele>
        <time>2020-10-09T13:55:30.000Z</time>
      </trkpt>
      <trkpt lat="43.61327" lon="3.70743">
        <ele>190.068</ele>
        <time>2020-10-09T13:55:31.000Z</time>
      </trkpt>
      <trkpt lat="43.61329" lon="3.70749">
        <ele>189.904</ele>
        <time>2020-10-09T13:55:32.000Z</time>
      </trkpt>
      <trkpt lat="43.61331" lon="3.70755">
        <ele>189.604</ele>
        <time>2020-10-09T13:55:33.000Z</time>
      </trkpt>
      <trkpt lat="43.61333" lon="3.70762">
        <ele>189.304</ele>
        <time>2020-10-09T13:55:34.000Z</time>
      </trkpt>
      <trkpt lat="43.61336" lon="3.70769">
        <ele>189.004</ele>
        <time>2020-10-09T13:55:35.000Z</time>
      </trkpt>
      <trkpt lat="43.61338" lon="3.70776">
        <ele>188.704</ele>
        <time>2020-10-09T13:55:36.000Z</time>
      </trkpt>
      <trkpt lat="43.6134" lon="3.70784">
        <ele>188.404</ele>
        <time>2020-10-09T13:55:37.000Z</time>
      </trkpt>
      <trkpt lat="43.61341" lon="3.70793">
        <ele>188.104</ele>
        <time>2020-10-09T13:55:38.000Z</time>
      </trkpt>
      <trkpt lat="43.61342" lon="3.70802">
        <ele>187.804</ele>
        <time>2020-10-09T13:55:39.000Z</time>
      </trkpt>
      <trkpt lat="43.61343" lon="3.7081">
        <ele>187.504</ele>
        <time>2020-10-09T13:55:40.000Z</time>
      </trkpt>
      <trkpt lat="43.61345" lon="3.7082">
        <ele>187.204</ele>
        <time>2020-10-09T13:55:41.000Z</time>
      </trkpt>
      <trkpt lat="43.61347" lon="3.70829">
        <ele>186.93663362321</ele>
        <time>2020-10-09T13:55:42.000Z</time>
      </trkpt>
      <trkpt lat="43.61348" lon="3.70839">
        <ele>186.73861369575</ele>
        <time>2020-10-09T13:55:43.000Z</time>
      </trkpt>
      <trkpt lat="43.61349" lon="3.70849">
        <ele>186.5405937683</ele>
        <time>2020-10-09T13:55:44.000Z</time>
      </trkpt>
      <trkpt lat="43.6135" lon="3.70858">
        <ele>186.34257384084</ele>
        <time>2020-10-09T13:55:45.000Z</time>
      </trkpt>
      <trkpt lat="43.61352" lon="3.70867">
        <ele>186.14455391338</ele>
        <time>2020-10-09T13:55:46.000Z</time>
      </trkpt>
      <trkpt lat="43.61354" lon="3.70876">
        <ele>185.94653398592</ele>
        <time>2020-10-09T13:55:47.000Z</time>
      </trkpt>
      <trkpt lat="43.61355" lon="3.70885">
        <ele>185.74851405846</ele>
        <time>2020-10-09T13:55:48.000Z</time>
      </trkpt>
      <trkpt lat="43.61355" lon="3.70894">
        <ele>185.55049413101</ele>
        <time>2020-10-09T13:55:49.000Z</time>
      </trkpt>
      <trkpt lat="43.61355" lon="3.70904">
        <ele>185.35247420355</ele>
        <time>2020-10-09T13:55:50.000Z</time>
      </trkpt>
      <trkpt lat="43.61354" lon="3.70912">
        <ele>185.15445427609</ele>
        <time>2020-10-09T13:55:51.000Z</time>
      </trkpt>
      <trkpt lat="43.61353" lon="3.70921">
        <ele>185</ele>
        <time>2020-10-09T13:55:52.000Z</time>
      </trkpt>
      <trkpt lat="43.61353" lon="3.70928">
        <ele>185</ele>
        <time>2020-10-09T13:55:53.000Z</time>
      </trkpt>
      <trkpt lat="43.61352" lon="3.70936">
        <ele>185</ele>
        <time>2020-10-09T13:55:54.000Z</time>
      </trkpt>
      <trkpt lat="43.61352" lon="3.70943">
        <ele>185</ele>
        <time>2020-10-09T13:55:55.000Z</time>
      </trkpt>
      <trkpt lat="43.61352" lon="3.7095">
        <ele>185</ele>
        <time>2020-10-09T13:55:56.000Z</time>
      </trkpt>
      <trkpt lat="43.61352" lon="3.70957">
        <ele>185</ele>
        <time>2020-10-09T13:55:57.000Z</time>
      </trkpt>
      <trkpt lat="43.61352" lon="3.70964">
        <ele>185</ele>
        <time>2020-10-09T13:55:58.000Z</time>
      </trkpt>
      <trkpt lat="43.61352" lon="3.70971">
        <ele>185</ele>
        <time>2020-10-09T13:55:59.000Z</time>
      </trkpt>
      <trkpt lat="43.61353" lon="3.70978">
        <ele>185</ele>
        <time>2020-10-09T13:56:00.000Z</time>
      </trkpt>
      <trkpt lat="43.61353" lon="3.70985">
        <ele>185</ele>
        <time>2020-10-09T13:56:01.000Z</time>
      </trkpt>
      <trkpt lat="43.61353" lon="3.70992">
        <ele>185.064</ele>
        <time>2020-10-09T13:56:02.000Z</time>
      </trkpt>
      <trkpt lat="43.61353" lon="3.70999">
        <ele>185.264</ele>
        <time>2020-10-09T13:56:03.000Z</time>
      </trkpt>
      <trkpt lat="43.61353" lon="3.71006">
        <ele>185.464</ele>
        <time>2020-10-09T13:56:04.000Z</time>
      </trkpt>
      <trkpt lat="43.61353" lon="3.71013">
        <ele>185.664</ele>
        <time>2020-10-09T13:56:05.000Z</time>
      </trkpt>
      <trkpt lat="43.61353" lon="3.71021">
        <ele>185.864</ele>
        <time>2020-10-09T13:56:06.000Z</time>
      </trkpt>
      <trkpt lat="43.61352" lon="3.71028">
        <ele>186.064</ele>
        <time>2020-10-09T13:56:07.000Z</time>
      </trkpt>
      <trkpt lat="43.61352" lon="3.71035">
        <ele>186.264</ele>
        <time>2020-10-09T13:56:08.000Z</time>
      </trkpt>
      <trkpt lat="43.61351" lon="3.71042">
        <ele>186.464</ele>
        <time>2020-10-09T13:56:09.000Z</time>
      </trkpt>
      <trkpt lat="43.61351" lon="3.71049">
        <ele>186.664</ele>
        <time>2020-10-09T13:56:10.000Z</time>
      </trkpt>
      <trkpt lat="43.6135" lon="3.71055">
        <ele>186.864</ele>
        <time>2020-10-09T13:56:11.000Z</time>
      </trkpt>
      <trkpt lat="43.61349" lon="3.71062">
        <ele>187.032</ele>
        <time>2020-10-09T13:56:12.000Z</time>
      </trkpt>
      <trkpt lat="43.61348" lon="3.71069">
        <ele>187.132</ele>
        <time>2020-10-09T13:56:13.000Z</time>
      </trkpt>
      <trkpt lat="43.61347" lon="3.71076">
        <ele>187.232</ele>
        <time>2020-10-09T13:56:14.000Z</time>
      </trkpt>
      <trkpt lat="43.61346" lon="3.71082">
        <ele>187.332</ele>
        <time>2020-10-09T13:56:15.000Z</time>
      </trkpt>
      <trkpt lat="43.61346" lon="3.71089">
        <ele>187.432</ele>
        <time>2020-10-09T13:56:16.000Z</time>
      </trkpt>
      <trkpt lat="43.61345" lon="3.71096">
        <ele>187.532</ele>
        <time>2020-10-09T13:56:17.000Z</time>
      </trkpt>
      <trkpt lat="43.61344" lon="3.71102">
        <ele>187.632</ele>
        <time>2020-10-09T13:56:18.000Z</time>
      </trkpt>
      <trkpt lat="43.61342" lon="3.71108">
        <ele>187.732</ele>
        <time>2020-10-09T13:56:19.000Z</time>
      </trkpt>
      <trkpt lat="43.61339" lon="3.71114">
        <ele>187.832</ele>
        <time>2020-10-09T13:56:20.000Z</time>
      </trkpt>
      <trkpt lat="43.61337" lon="3.71119">
        <ele>187.932</ele>
        <time>2020-10-09T13:56:21.000Z</time>
      </trkpt>
      <trkpt lat="43.61334" lon="3.71123">
        <ele>188.064</ele>
        <time>2020-10-09T13:56:22.000Z</time>
      </trkpt>
      <trkpt lat="43.6133" lon="3.71128">
        <ele>188.264</ele>
        <time>2020-10-09T13:56:23.000Z</time>
      </trkpt>
      <trkpt lat="43.61327" lon="3.71132">
        <ele>188.464</ele>
        <time>2020-10-09T13:56:24.000Z</time>
      </trkpt>
      <trkpt lat="43.61324" lon="3.71136">
        <ele>188.664</ele>
        <time>2020-10-09T13:56:25.000Z</time>
      </trkpt>
      <trkpt lat="43.61321" lon="3.7114">
        <ele>188.864</ele>
        <time>2020-10-09T13:56:26.000Z</time>
      </trkpt>
      <trkpt lat="43.61319" lon="3.71144">
        <ele>189.064</ele>
        <time>2020-10-09T13:56:27.000Z</time>
      </trkpt>
      <trkpt lat="43.61316" lon="3.71147">
        <ele>189.264</ele>
        <time>2020-10-09T13:56:28.000Z</time>
      </trkpt>
      <trkpt lat="43.61314" lon="3.71151">
        <ele>189.464</ele>
        <time>2020-10-09T13:56:29.000Z</time>
      </trkpt>
      <trkpt lat="43.61312" lon="3.71154">
        <ele>189.664</ele>
        <time>2020-10-09T13:56:30.000Z</time>
      </trkpt>
      <trkpt lat="43.6131" lon="3.71158">
        <ele>189.864</ele>
        <time>2020-10-09T13:56:31.000Z</time>
      </trkpt>
      <trkpt lat="43.61309" lon="3.71161">
        <ele>190.03193614814</ele>
        <time>2020-10-09T13:56:32.000Z</time>
      </trkpt>
      <trkpt lat="43.61308" lon="3.71163">
        <ele>190.13173661109</ele>
        <time>2020-10-09T13:56:33.000Z</time>
      </trkpt>
      <trkpt lat="43.61306" lon="3.71165">
        <ele>190.23153707404</ele>
        <time>2020-10-09T13:56:34.000Z</time>
      </trkpt>
      <trkpt lat="43.61305" lon="3.71167">
        <ele>190.33133753698</ele>
        <time>2020-10-09T13:56:35.000Z</time>
      </trkpt>
      <trkpt lat="43.61305" lon="3.7117">
        <ele>190.43113799993</ele>
        <time>2020-10-09T13:56:36.000Z</time>
      </trkpt>
      <trkpt lat="43.61305" lon="3.71172">
        <ele>190.53093846288</ele>
        <time>2020-10-09T13:56:37.000Z</time>
      </trkpt>
      <trkpt lat="43.61305" lon="3.71177">
        <ele>190.73053938877</ele>
        <time>2020-10-09T13:56:39.000Z</time>
      </trkpt>
      <trkpt lat="43.61304" lon="3.71179">
        <ele>190.83033985171</ele>
        <time>2020-10-09T13:56:40.000Z</time>
      </trkpt>
      <trkpt lat="43.61302" lon="3.71181">
        <ele>190.93014031466</ele>
        <time>2020-10-09T13:56:41.000Z</time>
      </trkpt>
      <trkpt lat="43.613" lon="3.71183">
        <ele>191.02924037162</ele>
        <time>2020-10-09T13:56:42.000Z</time>
      </trkpt>
      <trkpt lat="43.61298" lon="3.71185">
        <ele>191.12670619777</ele>
        <time>2020-10-09T13:56:43.000Z</time>
      </trkpt>
      <trkpt lat="43.61296" lon="3.71186">
        <ele>191.22417202391</ele>
        <time>2020-10-09T13:56:44.000Z</time>
      </trkpt>
      <trkpt lat="43.61294" lon="3.71188">
        <ele>191.32163785005</ele>
        <time>2020-10-09T13:56:45.000Z</time>
      </trkpt>
      <trkpt lat="43.61292" lon="3.71191">
        <ele>191.41910367619</ele>
        <time>2020-10-09T13:56:46.000Z</time>
      </trkpt>
      <trkpt lat="43.61289" lon="3.71193">
        <ele>191.51656950233</ele>
        <time>2020-10-09T13:56:47.000Z</time>
      </trkpt>
      <trkpt lat="43.61287" lon="3.71195">
        <ele>191.61403532848</ele>
        <time>2020-10-09T13:56:48.000Z</time>
      </trkpt>
      <trkpt lat="43.61285" lon="3.71198">
        <ele>191.71150115462</ele>
        <time>2020-10-09T13:56:49.000Z</time>
      </trkpt>
      <trkpt lat="43.61283" lon="3.712">
        <ele>191.80896698076</ele>
        <time>2020-10-09T13:56:50.000Z</time>
      </trkpt>
      <trkpt lat="43.61281" lon="3.71203">
        <ele>191.9064328069</ele>
        <time>2020-10-09T13:56:51.000Z</time>
      </trkpt>
      <trkpt lat="43.61279" lon="3.71205">
        <ele>192</ele>
        <time>2020-10-09T13:56:52.000Z</time>
      </trkpt>
      <trkpt lat="43.61276" lon="3.71207">
        <ele>192</ele>
        <time>2020-10-09T13:56:53.000Z</time>
      </trkpt>
      <trkpt lat="43.61274" lon="3.7121">
        <ele>192</ele>
        <time>2020-10-09T13:56:54.000Z</time>
      </trkpt>
      <trkpt lat="43.61272" lon="3.71212">
        <ele>192</ele>
        <time>2020-10-09T13:56:55.000Z</time>
      </trkpt>
      <trkpt lat="43.6127" lon="3.71214">
        <ele>192</ele>
        <time>2020-10-09T13:56:56.000Z</time>
      </trkpt>
      <trkpt lat="43.61268" lon="3.71217">
        <ele>192</ele>
        <time>2020-10-09T13:56:57.000Z</time>
      </trkpt>
      <trkpt lat="43.61266" lon="3.7122">
        <ele>192</ele>
        <time>2020-10-09T13:56:58.000Z</time>
      </trkpt>
      <trkpt lat="43.61264" lon="3.71222">
        <ele>192</ele>
        <time>2020-10-09T13:56:59.000Z</time>
      </trkpt>
      <trkpt lat="43.61262" lon="3.71223">
        <ele>192</ele>
        <time>2020-10-09T13:57:00.000Z</time>
      </trkpt>
      <trkpt lat="43.6126" lon="3.71225">
        <ele>192</ele>
        <time>2020-10-09T13:57:01.000Z</time>
      </trkpt>
      <trkpt lat="43.61258" lon="3.71227">
        <ele>192</ele>
        <time>2020-10-09T13:57:02.000Z</time>
      </trkpt>
      <trkpt lat="43.61255" lon="3.7123">
        <ele>192</ele>
        <time>2020-10-09T13:57:03.000Z</time>
      </trkpt>
      <trkpt lat="43.61253" lon="3.71232">
        <ele>192</ele>
        <time>2020-10-09T13:57:04.000Z</time>
      </trkpt>
      <trkpt lat="43.61251" lon="3.71234">
        <ele>192</ele>
        <time>2020-10-09T13:57:05.000Z</time>
      </trkpt>
      <trkpt lat="43.61248" lon="3.71237">
        <ele>192</ele>
        <time>2020-10-09T13:57:06.000Z</time>
      </trkpt>
      <trkpt lat="43.61246" lon="3.71239">
        <ele>192</ele>
        <time>2020-10-09T13:57:07.000Z</time>
      </trkpt>
      <trkpt lat="43.61244" lon="3.71243">
        <ele>192</ele>
        <time>2020-10-09T13:57:08.000Z</time>
      </trkpt>
      <trkpt lat="43.61241" lon="3.71246">
        <ele>192</ele>
        <time>2020-10-09T13:57:09.000Z</time>
      </trkpt>
      <trkpt lat="43.61238" lon="3.71248">
        <ele>192</ele>
        <time>2020-10-09T13:57:10.000Z</time>
      </trkpt>
      <trkpt lat="43.61235" lon="3.71251">
        <ele>192</ele>
        <time>2020-10-09T13:57:11.000Z</time>
      </trkpt>
      <trkpt lat="43.61233" lon="3.71254">
        <ele>192.00408163265</ele>
        <time>2020-10-09T13:57:12.000Z</time>
      </trkpt>
      <trkpt lat="43.6123" lon="3.71257">
        <ele>192.10612244898</ele>
        <time>2020-10-09T13:57:13.000Z</time>
      </trkpt>
      <trkpt lat="43.61228" lon="3.71259">
        <ele>192.20816326531</ele>
        <time>2020-10-09T13:57:14.000Z</time>
      </trkpt>
      <trkpt lat="43.61225" lon="3.71262">
        <ele>192.31020408163</ele>
        <time>2020-10-09T13:57:15.000Z</time>
      </trkpt>
      <trkpt lat="43.61222" lon="3.71264">
        <ele>192.41224489796</ele>
        <time>2020-10-09T13:57:16.000Z</time>
      </trkpt>
      <trkpt lat="43.6122" lon="3.71267">
        <ele>192.51428571429</ele>
        <time>2020-10-09T13:57:17.000Z</time>
      </trkpt>
      <trkpt lat="43.61217" lon="3.7127">
        <ele>192.61632653061</ele>
        <time>2020-10-09T13:57:18.000Z</time>
      </trkpt>
      <trkpt lat="43.61215" lon="3.71273">
        <ele>192.71836734694</ele>
        <time>2020-10-09T13:57:19.000Z</time>
      </trkpt>
      <trkpt lat="43.61212" lon="3.71277">
        <ele>192.82040816327</ele>
        <time>2020-10-09T13:57:20.000Z</time>
      </trkpt>
      <trkpt lat="43.6121" lon="3.7128">
        <ele>192.92244897959</ele>
        <time>2020-10-09T13:57:21.000Z</time>
      </trkpt>
      <trkpt lat="43.61208" lon="3.71283">
        <ele>193</ele>
        <time>2020-10-09T13:57:22.000Z</time>
      </trkpt>
      <trkpt lat="43.61206" lon="3.71286">
        <ele>193</ele>
        <time>2020-10-09T13:57:23.000Z</time>
      </trkpt>
      <trkpt lat="43.61203" lon="3.7129">
        <ele>193</ele>
        <time>2020-10-09T13:57:24.000Z</time>
      </trkpt>
      <trkpt lat="43.61201" lon="3.71294">
        <ele>193</ele>
        <time>2020-10-09T13:57:25.000Z</time>
      </trkpt>
      <trkpt lat="43.61199" lon="3.71297">
        <ele>193</ele>
        <time>2020-10-09T13:57:26.000Z</time>
      </trkpt>
      <trkpt lat="43.61197" lon="3.71301">
        <ele>193</ele>
        <time>2020-10-09T13:57:27.000Z</time>
      </trkpt>
      <trkpt lat="43.61195" lon="3.71305">
        <ele>193</ele>
        <time>2020-10-09T13:57:28.000Z</time>
      </trkpt>
      <trkpt lat="43.61193" lon="3.71309">
        <ele>193</ele>
        <time>2020-10-09T13:57:29.000Z</time>
      </trkpt>
      <trkpt lat="43.61192" lon="3.71314">
        <ele>193</ele>
        <time>2020-10-09T13:57:30.000Z</time>
      </trkpt>
      <trkpt lat="43.6119" lon="3.71318">
        <ele>193</ele>
        <time>2020-10-09T13:57:31.000Z</time>
      </trkpt>
      <trkpt lat="43.61189" lon="3.71323">
        <ele>193.01524422764</ele>
        <time>2020-10-09T13:57:32.000Z</time>
      </trkpt>
      <trkpt lat="43.61187" lon="3.71328">
        <ele>193.1168702439</ele>
        <time>2020-10-09T13:57:33.000Z</time>
      </trkpt>
      <trkpt lat="43.61185" lon="3.71333">
        <ele>193.21849626016</ele>
        <time>2020-10-09T13:57:34.000Z</time>
      </trkpt>
      <trkpt lat="43.61184" lon="3.71338">
        <ele>193.32012227642</ele>
        <time>2020-10-09T13:57:35.000Z</time>
      </trkpt>
      <trkpt lat="43.61183" lon="3.71344">
        <ele>193.42174829268</ele>
        <time>2020-10-09T13:57:36.000Z</time>
      </trkpt>
      <trkpt lat="43.61181" lon="3.7135">
        <ele>193.52337430894</ele>
        <time>2020-10-09T13:57:37.000Z</time>
      </trkpt>
      <trkpt lat="43.61179" lon="3.71356">
        <ele>193.6250003252</ele>
        <time>2020-10-09T13:57:38.000Z</time>
      </trkpt>
      <trkpt lat="43.61178" lon="3.71362">
        <ele>193.72662634146</ele>
        <time>2020-10-09T13:57:39.000Z</time>
      </trkpt>
      <trkpt lat="43.61176" lon="3.71368">
        <ele>193.82825235772</ele>
        <time>2020-10-09T13:57:40.000Z</time>
      </trkpt>
      <trkpt lat="43.61174" lon="3.71375">
        <ele>193.92987837398</ele>
        <time>2020-10-09T13:57:41.000Z</time>
      </trkpt>
      <trkpt lat="43.61173" lon="3.71381">
        <ele>194</ele>
        <time>2020-10-09T13:57:42.000Z</time>
      </trkpt>
      <trkpt lat="43.61171" lon="3.71387">
        <ele>194</ele>
        <time>2020-10-09T13:57:43.000Z</time>
      </trkpt>
      <trkpt lat="43.6117" lon="3.71394">
        <ele>194</ele>
        <time>2020-10-09T13:57:44.000Z</time>
      </trkpt>
      <trkpt lat="43.61168" lon="3.714">
        <ele>194</ele>
        <time>2020-10-09T13:57:45.000Z</time>
      </trkpt>
      <trkpt lat="43.61166" lon="3.71407">
        <ele>194</ele>
        <time>2020-10-09T13:57:46.000Z</time>
      </trkpt>
      <trkpt lat="43.61164" lon="3.71413">
        <ele>194</ele>
        <time>2020-10-09T13:57:47.000Z</time>
      </trkpt>
      <trkpt lat="43.61163" lon="3.7142">
        <ele>194</ele>
        <time>2020-10-09T13:57:48.000Z</time>
      </trkpt>
      <trkpt lat="43.61161" lon="3.71426">
        <ele>194</ele>
        <time>2020-10-09T13:57:49.000Z</time>
      </trkpt>
      <trkpt lat="43.61159" lon="3.71432">
        <ele>194</ele>
        <time>2020-10-09T13:57:50.000Z</time>
      </trkpt>
      <trkpt lat="43.61158" lon="3.71439">
        <ele>194</ele>
        <time>2020-10-09T13:57:51.000Z</time>
      </trkpt>
      <trkpt lat="43.61156" lon="3.71445">
        <ele>194.03103134141</ele>
        <time>2020-10-09T13:57:52.000Z</time>
      </trkpt>
      <trkpt lat="43.61154" lon="3.71452">
        <ele>194.13113140945</ele>
        <time>2020-10-09T13:57:53.000Z</time>
      </trkpt>
      <trkpt lat="43.61153" lon="3.71458">
        <ele>194.23123147748</ele>
        <time>2020-10-09T13:57:54.000Z</time>
      </trkpt>
      <trkpt lat="43.61151" lon="3.71465">
        <ele>194.33133154552</ele>
        <time>2020-10-09T13:57:55.000Z</time>
      </trkpt>
      <trkpt lat="43.61149" lon="3.71471">
        <ele>194.43143161355</ele>
        <time>2020-10-09T13:57:56.000Z</time>
      </trkpt>
      <trkpt lat="43.61148" lon="3.71478">
        <ele>194.53153168159</ele>
        <time>2020-10-09T13:57:57.000Z</time>
      </trkpt>
      <trkpt lat="43.61146" lon="3.71484">
        <ele>194.63163174963</ele>
        <time>2020-10-09T13:57:58.000Z</time>
      </trkpt>
      <trkpt lat="43.61145" lon="3.7149">
        <ele>194.73173181766</ele>
        <time>2020-10-09T13:57:59.000Z</time>
      </trkpt>
      <trkpt lat="43.61143" lon="3.71497">
        <ele>194.8318318857</ele>
        <time>2020-10-09T13:58:00.000Z</time>
      </trkpt>
      <trkpt lat="43.61141" lon="3.71503">
        <ele>194.93193195373</ele>
        <time>2020-10-09T13:58:01.000Z</time>
      </trkpt>
      <trkpt lat="43.61139" lon="3.71509">
        <ele>195.032</ele>
        <time>2020-10-09T13:58:02.000Z</time>
      </trkpt>
      <trkpt lat="43.61138" lon="3.71516">
        <ele>195.132</ele>
        <time>2020-10-09T13:58:03.000Z</time>
      </trkpt>
      <trkpt lat="43.61136" lon="3.71522">
        <ele>195.232</ele>
        <time>2020-10-09T13:58:04.000Z</time>
      </trkpt>
      <trkpt lat="43.61134" lon="3.71529">
        <ele>195.332</ele>
        <time>2020-10-09T13:58:05.000Z</time>
      </trkpt>
      <trkpt lat="43.61131" lon="3.71535">
        <ele>195.432</ele>
        <time>2020-10-09T13:58:06.000Z</time>
      </trkpt>
      <trkpt lat="43.61129" lon="3.71542">
        <ele>195.532</ele>
        <time>2020-10-09T13:58:07.000Z</time>
      </trkpt>
      <trkpt lat="43.61127" lon="3.71548">
        <ele>195.632</ele>
        <time>2020-10-09T13:58:08.000Z</time>
      </trkpt>
      <trkpt lat="43.61124" lon="3.71555">
        <ele>195.732</ele>
        <time>2020-10-09T13:58:09.000Z</time>
      </trkpt>
      <trkpt lat="43.61122" lon="3.71561">
        <ele>195.832</ele>
        <time>2020-10-09T13:58:10.000Z</time>
      </trkpt>
      <trkpt lat="43.6112" lon="3.71567">
        <ele>195.932</ele>
        <time>2020-10-09T13:58:11.000Z</time>
      </trkpt>
      <trkpt lat="43.61117" lon="3.71573">
        <ele>196</ele>
        <time>2020-10-09T13:58:12.000Z</time>
      </trkpt>
      <trkpt lat="43.61115" lon="3.71579">
        <ele>196</ele>
        <time>2020-10-09T13:58:13.000Z</time>
      </trkpt>
      <trkpt lat="43.61112" lon="3.71585">
        <ele>196</ele>
        <time>2020-10-09T13:58:14.000Z</time>
      </trkpt>
      <trkpt lat="43.61109" lon="3.71591">
        <ele>196</ele>
        <time>2020-10-09T13:58:15.000Z</time>
      </trkpt>
      <trkpt lat="43.61106" lon="3.71598">
        <ele>196</ele>
        <time>2020-10-09T13:58:16.000Z</time>
      </trkpt>
      <trkpt lat="43.61103" lon="3.71604">
        <ele>196</ele>
        <time>2020-10-09T13:58:17.000Z</time>
      </trkpt>
      <trkpt lat="43.61099" lon="3.71609">
        <ele>196</ele>
        <time>2020-10-09T13:58:18.000Z</time>
      </trkpt>
      <trkpt lat="43.61095" lon="3.71614">
        <ele>196</ele>
        <time>2020-10-09T13:58:19.000Z</time>
      </trkpt>
      <trkpt lat="43.6109" lon="3.71619">
        <ele>196</ele>
        <time>2020-10-09T13:58:20.000Z</time>
      </trkpt>
      <trkpt lat="43.61086" lon="3.71624">
        <ele>196</ele>
        <time>2020-10-09T13:58:21.000Z</time>
      </trkpt>
      <trkpt lat="43.61081" lon="3.71628">
        <ele>196</ele>
        <time>2020-10-09T13:58:22.000Z</time>
      </trkpt>
      <trkpt lat="43.61076" lon="3.71632">
        <ele>196</ele>
        <time>2020-10-09T13:58:23.000Z</time>
      </trkpt>
      <trkpt lat="43.61071" lon="3.71635">
        <ele>196</ele>
        <time>2020-10-09T13:58:24.000Z</time>
      </trkpt>
      <trkpt lat="43.61066" lon="3.71637">
        <ele>196</ele>
        <time>2020-10-09T13:58:25.000Z</time>
      </trkpt>
      <trkpt lat="43.6106" lon="3.71639">
        <ele>196</ele>
        <time>2020-10-09T13:58:26.000Z</time>
      </trkpt>
      <trkpt lat="43.61055" lon="3.71642">
        <ele>196</ele>
        <time>2020-10-09T13:58:27.000Z</time>
      </trkpt>
      <trkpt lat="43.6105" lon="3.71645">
        <ele>196</ele>
        <time>2020-10-09T13:58:28.000Z</time>
      </trkpt>
      <trkpt lat="43.61045" lon="3.71648">
        <ele>196</ele>
        <time>2020-10-09T13:58:29.000Z</time>
      </trkpt>
      <trkpt lat="43.61041" lon="3.71652">
        <ele>196</ele>
        <time>2020-10-09T13:58:30.000Z</time>
      </trkpt>
      <trkpt lat="43.61037" lon="3.71657">
        <ele>196</ele>
        <time>2020-10-09T13:58:31.000Z</time>
      </trkpt>
      <trkpt lat="43.61034" lon="3.71662">
        <ele>196.01425726158</ele>
        <time>2020-10-09T13:58:32.000Z</time>
      </trkpt>
      <trkpt lat="43.61031" lon="3.71668">
        <ele>196.11609018911</ele>
        <time>2020-10-09T13:58:33.000Z</time>
      </trkpt>
      <trkpt lat="43.61029" lon="3.71673">
        <ele>196.21792311663</ele>
        <time>2020-10-09T13:58:34.000Z</time>
      </trkpt>
      <trkpt lat="43.61027" lon="3.7168">
        <ele>196.31975604415</ele>
        <time>2020-10-09T13:58:35.000Z</time>
      </trkpt>
      <trkpt lat="43.61026" lon="3.71686">
        <ele>196.42158897167</ele>
        <time>2020-10-09T13:58:36.000Z</time>
      </trkpt>
      <trkpt lat="43.61024" lon="3.71693">
        <ele>196.5234218992</ele>
        <time>2020-10-09T13:58:37.000Z</time>
      </trkpt>
      <trkpt lat="43.61023" lon="3.71699">
        <ele>196.62525482672</ele>
        <time>2020-10-09T13:58:38.000Z</time>
      </trkpt>
      <trkpt lat="43.61021" lon="3.71705">
        <ele>196.72708775424</ele>
        <time>2020-10-09T13:58:39.000Z</time>
      </trkpt>
      <trkpt lat="43.6102" lon="3.71711">
        <ele>196.82892068176</ele>
        <time>2020-10-09T13:58:40.000Z</time>
      </trkpt>
      <trkpt lat="43.61018" lon="3.71718">
        <ele>196.93075360929</ele>
        <time>2020-10-09T13:58:41.000Z</time>
      </trkpt>
      <trkpt lat="43.61017" lon="3.71724">
        <ele>197.032</ele>
        <time>2020-10-09T13:58:42.000Z</time>
      </trkpt>
      <trkpt lat="43.61016" lon="3.7173">
        <ele>197.132</ele>
        <time>2020-10-09T13:58:43.000Z</time>
      </trkpt>
      <trkpt lat="43.61014" lon="3.71736">
        <ele>197.232</ele>
        <time>2020-10-09T13:58:44.000Z</time>
      </trkpt>
      <trkpt lat="43.61013" lon="3.71742">
        <ele>197.332</ele>
        <time>2020-10-09T13:58:45.000Z</time>
      </trkpt>
      <trkpt lat="43.61012" lon="3.71748">
        <ele>197.432</ele>
        <time>2020-10-09T13:58:46.000Z</time>
      </trkpt>
      <trkpt lat="43.61011" lon="3.71754">
        <ele>197.532</ele>
        <time>2020-10-09T13:58:47.000Z</time>
      </trkpt>
      <trkpt lat="43.6101" lon="3.7176">
        <ele>197.632</ele>
        <time>2020-10-09T13:58:48.000Z</time>
      </trkpt>
      <trkpt lat="43.61009" lon="3.71766">
        <ele>197.732</ele>
        <time>2020-10-09T13:58:49.000Z</time>
      </trkpt>
      <trkpt lat="43.61008" lon="3.71772">
        <ele>197.832</ele>
        <time>2020-10-09T13:58:50.000Z</time>
      </trkpt>
      <trkpt lat="43.61007" lon="3.71778">
        <ele>197.932</ele>
        <time>2020-10-09T13:58:51.000Z</time>
      </trkpt>
      <trkpt lat="43.61006" lon="3.71784">
        <ele>198</ele>
        <time>2020-10-09T13:58:52.000Z</time>
      </trkpt>
      <trkpt lat="43.61005" lon="3.7179">
        <ele>198</ele>
        <time>2020-10-09T13:58:53.000Z</time>
      </trkpt>
      <trkpt lat="43.61005" lon="3.71795">
        <ele>198</ele>
        <time>2020-10-09T13:58:54.000Z</time>
      </trkpt>
      <trkpt lat="43.61004" lon="3.71802">
        <ele>198</ele>
        <time>2020-10-09T13:58:55.000Z</time>
      </trkpt>
      <trkpt lat="43.61005" lon="3.71808">
        <ele>198</ele>
        <time>2020-10-09T13:58:56.000Z</time>
      </trkpt>
      <trkpt lat="43.61005" lon="3.71815">
        <ele>198</ele>
        <time>2020-10-09T13:58:57.000Z</time>
      </trkpt>
      <trkpt lat="43.61005" lon="3.71821">
        <ele>198</ele>
        <time>2020-10-09T13:58:58.000Z</time>
      </trkpt>
      <trkpt lat="43.61006" lon="3.71828">
        <ele>198</ele>
        <time>2020-10-09T13:58:59.000Z</time>
      </trkpt>
      <trkpt lat="43.61006" lon="3.71835">
        <ele>198</ele>
        <time>2020-10-09T13:59:00.000Z</time>
      </trkpt>
      <trkpt lat="43.61007" lon="3.71842">
        <ele>198</ele>
        <time>2020-10-09T13:59:01.000Z</time>
      </trkpt>
      <trkpt lat="43.61008" lon="3.71849">
        <ele>198.03090758735</ele>
        <time>2020-10-09T13:59:02.000Z</time>
      </trkpt>
      <trkpt lat="43.61009" lon="3.71856">
        <ele>198.13060845285</ele>
        <time>2020-10-09T13:59:03.000Z</time>
      </trkpt>
      <trkpt lat="43.6101" lon="3.71863">
        <ele>198.23030931835</ele>
        <time>2020-10-09T13:59:04.000Z</time>
      </trkpt>
      <trkpt lat="43.61011" lon="3.7187">
        <ele>198.33001018384</ele>
        <time>2020-10-09T13:59:05.000Z</time>
      </trkpt>
      <trkpt lat="43.61012" lon="3.71878">
        <ele>198.42971104934</ele>
        <time>2020-10-09T13:59:06.000Z</time>
      </trkpt>
      <trkpt lat="43.61012" lon="3.71885">
        <ele>198.52941191484</ele>
        <time>2020-10-09T13:59:07.000Z</time>
      </trkpt>
      <trkpt lat="43.61013" lon="3.71892">
        <ele>198.62911278034</ele>
        <time>2020-10-09T13:59:08.000Z</time>
      </trkpt>
      <trkpt lat="43.61013" lon="3.71899">
        <ele>198.72881364584</ele>
        <time>2020-10-09T13:59:09.000Z</time>
      </trkpt>
      <trkpt lat="43.61013" lon="3.71907">
        <ele>198.82851451134</ele>
        <time>2020-10-09T13:59:10.000Z</time>
      </trkpt>
      <trkpt lat="43.61013" lon="3.71914">
        <ele>198.92821537684</ele>
        <time>2020-10-09T13:59:11.000Z</time>
      </trkpt>
      <trkpt lat="43.61012" lon="3.71922">
        <ele>199</ele>
        <time>2020-10-09T13:59:12.000Z</time>
      </trkpt>
      <trkpt lat="43.61012" lon="3.71929">
        <ele>199</ele>
        <time>2020-10-09T13:59:13.000Z</time>
      </trkpt>
      <trkpt lat="43.61012" lon="3.71937">
        <ele>199</ele>
        <time>2020-10-09T13:59:14.000Z</time>
      </trkpt>
      <trkpt lat="43.61012" lon="3.71944">
        <ele>199</ele>
        <time>2020-10-09T13:59:15.000Z</time>
      </trkpt>
      <trkpt lat="43.61012" lon="3.71952">
        <ele>199</ele>
        <time>2020-10-09T13:59:16.000Z</time>
      </trkpt>
      <trkpt lat="43.61011" lon="3.7196">
        <ele>199</ele>
        <time>2020-10-09T13:59:17.000Z</time>
      </trkpt>
      <trkpt lat="43.61011" lon="3.71967">
        <ele>199</ele>
        <time>2020-10-09T13:59:18.000Z</time>
      </trkpt>
      <trkpt lat="43.6101" lon="3.71974">
        <ele>199</ele>
        <time>2020-10-09T13:59:19.000Z</time>
      </trkpt>
      <trkpt lat="43.6101" lon="3.71981">
        <ele>199</ele>
        <time>2020-10-09T13:59:20.000Z</time>
      </trkpt>
      <trkpt lat="43.61009" lon="3.71986">
        <ele>199</ele>
        <time>2020-10-09T13:59:21.000Z</time>
      </trkpt>
      <trkpt lat="43.61008" lon="3.71991">
        <ele>198.968</ele>
        <time>2020-10-09T13:59:22.000Z</time>
      </trkpt>
      <trkpt lat="43.61007" lon="3.71997">
        <ele>198.868</ele>
        <time>2020-10-09T13:59:23.000Z</time>
      </trkpt>
      <trkpt lat="43.61007" lon="3.72004">
        <ele>198.768</ele>
        <time>2020-10-09T13:59:24.000Z</time>
      </trkpt>
      <trkpt lat="43.61006" lon="3.7201">
        <ele>198.668</ele>
        <time>2020-10-09T13:59:25.000Z</time>
      </trkpt>
      <trkpt lat="43.61005" lon="3.72017">
        <ele>198.568</ele>
        <time>2020-10-09T13:59:26.000Z</time>
      </trkpt>
      <trkpt lat="43.61003" lon="3.72025">
        <ele>198.468</ele>
        <time>2020-10-09T13:59:27.000Z</time>
      </trkpt>
      <trkpt lat="43.61002" lon="3.72032">
        <ele>198.368</ele>
        <time>2020-10-09T13:59:28.000Z</time>
      </trkpt>
      <trkpt lat="43.61" lon="3.72039">
        <ele>198.268</ele>
        <time>2020-10-09T13:59:29.000Z</time>
      </trkpt>
      <trkpt lat="43.60999" lon="3.72046">
        <ele>198.168</ele>
        <time>2020-10-09T13:59:30.000Z</time>
      </trkpt>
      <trkpt lat="43.60997" lon="3.72054">
        <ele>198.068</ele>
        <time>2020-10-09T13:59:31.000Z</time>
      </trkpt>
      <trkpt lat="43.60995" lon="3.72061">
        <ele>197.96834818015</ele>
        <time>2020-10-09T13:59:32.000Z</time>
      </trkpt>
      <trkpt lat="43.60994" lon="3.72069">
        <ele>197.86943624311</ele>
        <time>2020-10-09T13:59:33.000Z</time>
      </trkpt>
      <trkpt lat="43.60992" lon="3.72076">
        <ele>197.77052430607</ele>
        <time>2020-10-09T13:59:34.000Z</time>
      </trkpt>
      <trkpt lat="43.60991" lon="3.72084">
        <ele>197.67161236903</ele>
        <time>2020-10-09T13:59:35.000Z</time>
      </trkpt>
      <trkpt lat="43.60989" lon="3.72092">
        <ele>197.57270043198</ele>
        <time>2020-10-09T13:59:36.000Z</time>
      </trkpt>
      <trkpt lat="43.60988" lon="3.72099">
        <ele>197.47378849494</ele>
        <time>2020-10-09T13:59:37.000Z</time>
      </trkpt>
      <trkpt lat="43.60986" lon="3.72107">
        <ele>197.3748765579</ele>
        <time>2020-10-09T13:59:38.000Z</time>
      </trkpt>
      <trkpt lat="43.60985" lon="3.72115">
        <ele>197.27596462086</ele>
        <time>2020-10-09T13:59:39.000Z</time>
      </trkpt>
      <trkpt lat="43.60983" lon="3.72122">
        <ele>197.17705268382</ele>
        <time>2020-10-09T13:59:40.000Z</time>
      </trkpt>
      <trkpt lat="43.60981" lon="3.7213">
        <ele>197.07814074678</ele>
        <time>2020-10-09T13:59:41.000Z</time>
      </trkpt>
      <trkpt lat="43.6098" lon="3.72137">
        <ele>197</ele>
        <time>2020-10-09T13:59:42.000Z</time>
      </trkpt>
      <trkpt lat="43.60978" lon="3.72144">
        <ele>197</ele>
        <time>2020-10-09T13:59:43.000Z</time>
      </trkpt>
      <trkpt lat="43.60976" lon="3.72152">
        <ele>197</ele>
        <time>2020-10-09T13:59:44.000Z</time>
      </trkpt>
      <trkpt lat="43.60975" lon="3.72159">
        <ele>197</ele>
        <time>2020-10-09T13:59:45.000Z</time>
      </trkpt>
      <trkpt lat="43.60974" lon="3.72166">
        <ele>197</ele>
        <time>2020-10-09T13:59:46.000Z</time>
      </trkpt>
      <trkpt lat="43.60972" lon="3.72173">
        <ele>197</ele>
        <time>2020-10-09T13:59:47.000Z</time>
      </trkpt>
      <trkpt lat="43.60971" lon="3.7218">
        <ele>197</ele>
        <time>2020-10-09T13:59:48.000Z</time>
      </trkpt>
      <trkpt lat="43.60969" lon="3.72188">
        <ele>197</ele>
        <time>2020-10-09T13:59:49.000Z</time>
      </trkpt>
      <trkpt lat="43.60968" lon="3.72195">
        <ele>197</ele>
        <time>2020-10-09T13:59:50.000Z</time>
      </trkpt>
      <trkpt lat="43.60967" lon="3.72203">
        <ele>197</ele>
        <time>2020-10-09T13:59:51.000Z</time>
      </trkpt>
      <trkpt lat="43.60966" lon="3.72211">
        <ele>196.95463135252</ele>
        <time>2020-10-09T13:59:52.000Z</time>
      </trkpt>
      <trkpt lat="43.60964" lon="3.72218">
        <ele>196.76559532134</ele>
        <time>2020-10-09T13:59:53.000Z</time>
      </trkpt>
      <trkpt lat="43.60961" lon="3.72225">
        <ele>196.57655929017</ele>
        <time>2020-10-09T13:59:54.000Z</time>
      </trkpt>
      <trkpt lat="43.60959" lon="3.72233">
        <ele>196.38752325899</ele>
        <time>2020-10-09T13:59:55.000Z</time>
      </trkpt>
      <trkpt lat="43.60956" lon="3.72241">
        <ele>196.19848722782</ele>
        <time>2020-10-09T13:59:56.000Z</time>
      </trkpt>
      <trkpt lat="43.60952" lon="3.72248">
        <ele>196.00945119664</ele>
        <time>2020-10-09T13:59:57.000Z</time>
      </trkpt>
      <trkpt lat="43.60948" lon="3.72254">
        <ele>195.82041516547</ele>
        <time>2020-10-09T13:59:58.000Z</time>
      </trkpt>
      <trkpt lat="43.60943" lon="3.72261">
        <ele>195.63137913429</ele>
        <time>2020-10-09T13:59:59.000Z</time>
      </trkpt>
      <trkpt lat="43.60937" lon="3.72266">
        <ele>195.44234310312</ele>
        <time>2020-10-09T14:00:00.000Z</time>
      </trkpt>
      <trkpt lat="43.6093" lon="3.72269">
        <ele>195.25330707194</ele>
        <time>2020-10-09T14:00:01.000Z</time>
      </trkpt>
      <trkpt lat="43.60923" lon="3.72271">
        <ele>195.06427104077</ele>
        <time>2020-10-09T14:00:02.000Z</time>
      </trkpt>
      <trkpt lat="43.60916" lon="3.72274">
        <ele>194.87702321677</ele>
        <time>2020-10-09T14:00:03.000Z</time>
      </trkpt>
      <trkpt lat="43.60909" lon="3.72276">
        <ele>194.66127326302</ele>
        <time>2020-10-09T14:00:04.000Z</time>
      </trkpt>
      <trkpt lat="43.60901" lon="3.72277">
        <ele>194.44552330928</ele>
        <time>2020-10-09T14:00:05.000Z</time>
      </trkpt>
      <trkpt lat="43.60893" lon="3.72277">
        <ele>194.22977335554</ele>
        <time>2020-10-09T14:00:06.000Z</time>
      </trkpt>
      <trkpt lat="43.60885" lon="3.72274">
        <ele>194.01402340179</ele>
        <time>2020-10-09T14:00:07.000Z</time>
      </trkpt>
      <trkpt lat="43.60878" lon="3.7227">
        <ele>193.79827344805</ele>
        <time>2020-10-09T14:00:08.000Z</time>
      </trkpt>
      <trkpt lat="43.60872" lon="3.72264">
        <ele>193.58252349431</ele>
        <time>2020-10-09T14:00:09.000Z</time>
      </trkpt>
      <trkpt lat="43.60866" lon="3.72257">
        <ele>193.36677354056</ele>
        <time>2020-10-09T14:00:10.000Z</time>
      </trkpt>
      <trkpt lat="43.6086" lon="3.72249">
        <ele>193.15102358682</ele>
        <time>2020-10-09T14:00:11.000Z</time>
      </trkpt>
      <trkpt lat="43.60854" lon="3.72241">
        <ele>192.94157618179</ele>
        <time>2020-10-09T14:00:12.000Z</time>
      </trkpt>
      <trkpt lat="43.60849" lon="3.72234">
        <ele>192.74683427557</ele>
        <time>2020-10-09T14:00:13.000Z</time>
      </trkpt>
      <trkpt lat="43.60843" lon="3.72227">
        <ele>192.55209236936</ele>
        <time>2020-10-09T14:00:14.000Z</time>
      </trkpt>
      <trkpt lat="43.60836" lon="3.72221">
        <ele>192.35735046314</ele>
        <time>2020-10-09T14:00:15.000Z</time>
      </trkpt>
      <trkpt lat="43.60829" lon="3.72216">
        <ele>192.16260855693</ele>
        <time>2020-10-09T14:00:16.000Z</time>
      </trkpt>
      <trkpt lat="43.60822" lon="3.72212">
        <ele>191.96786665071</ele>
        <time>2020-10-09T14:00:17.000Z</time>
      </trkpt>
      <trkpt lat="43.60815" lon="3.72209">
        <ele>191.7731247445</ele>
        <time>2020-10-09T14:00:18.000Z</time>
      </trkpt>
      <trkpt lat="43.60807" lon="3.72207">
        <ele>191.57838283828</ele>
        <time>2020-10-09T14:00:19.000Z</time>
      </trkpt>
      <trkpt lat="43.608" lon="3.72206">
        <ele>191.38364093207</ele>
        <time>2020-10-09T14:00:20.000Z</time>
      </trkpt>
      <trkpt lat="43.60792" lon="3.72207">
        <ele>191.18889902585</ele>
        <time>2020-10-09T14:00:21.000Z</time>
      </trkpt>
      <trkpt lat="43.60785" lon="3.72209">
        <ele>190.98764029244</ele>
        <time>2020-10-09T14:00:22.000Z</time>
      </trkpt>
      <trkpt lat="43.60777" lon="3.72213">
        <ele>190.57569398123</ele>
        <time>2020-10-09T14:00:23.000Z</time>
      </trkpt>
      <trkpt lat="43.6077" lon="3.72218">
        <ele>190.16374767003</ele>
        <time>2020-10-09T14:00:24.000Z</time>
      </trkpt>
      <trkpt lat="43.60763" lon="3.72224">
        <ele>189.75180135883</ele>
        <time>2020-10-09T14:00:25.000Z</time>
      </trkpt>
      <trkpt lat="43.60756" lon="3.72229">
        <ele>189.33985504763</ele>
        <time>2020-10-09T14:00:26.000Z</time>
      </trkpt>
      <trkpt lat="43.60749" lon="3.72235">
        <ele>188.92790873643</ele>
        <time>2020-10-09T14:00:27.000Z</time>
      </trkpt>
      <trkpt lat="43.60742" lon="3.72242">
        <ele>188.51596242522</ele>
        <time>2020-10-09T14:00:28.000Z</time>
      </trkpt>
      <trkpt lat="43.60735" lon="3.72248">
        <ele>188.10401611402</ele>
        <time>2020-10-09T14:00:29.000Z</time>
      </trkpt>
      <trkpt lat="43.60728" lon="3.72256">
        <ele>187.69206980282</ele>
        <time>2020-10-09T14:00:30.000Z</time>
      </trkpt>
      <trkpt lat="43.60722" lon="3.72264">
        <ele>187.28012349162</ele>
        <time>2020-10-09T14:00:31.000Z</time>
      </trkpt>
      <trkpt lat="43.60713" lon="3.72282">
        <ele>186.08333333333</ele>
        <time>2020-10-09T14:00:33.000Z</time>
      </trkpt>
      <trkpt lat="43.6071" lon="3.72292">
        <ele>185.38888888889</ele>
        <time>2020-10-09T14:00:34.000Z</time>
      </trkpt>
      <trkpt lat="43.60708" lon="3.72303">
        <ele>184.69444444444</ele>
        <time>2020-10-09T14:00:35.000Z</time>
      </trkpt>
      <trkpt lat="43.60706" lon="3.72315">
        <ele>184</ele>
        <time>2020-10-09T14:00:36.000Z</time>
      </trkpt>
      <trkpt lat="43.60704" lon="3.72327">
        <ele>183.30555555556</ele>
        <time>2020-10-09T14:00:37.000Z</time>
      </trkpt>
      <trkpt lat="43.60703" lon="3.72339">
        <ele>182.61111111111</ele>
        <time>2020-10-09T14:00:38.000Z</time>
      </trkpt>
      <trkpt lat="43.60702" lon="3.72351">
        <ele>181.91666666667</ele>
        <time>2020-10-09T14:00:39.000Z</time>
      </trkpt>
      <trkpt lat="43.60701" lon="3.72363">
        <ele>181.22222222222</ele>
        <time>2020-10-09T14:00:40.000Z</time>
      </trkpt>
      <trkpt lat="43.60701" lon="3.72375">
        <ele>180.52777777778</ele>
        <time>2020-10-09T14:00:41.000Z</time>
      </trkpt>
      <trkpt lat="43.60701" lon="3.72387">
        <ele>179.9296875</ele>
        <time>2020-10-09T14:00:42.000Z</time>
      </trkpt>
      <trkpt lat="43.60701" lon="3.724">
        <ele>179.63671875</ele>
        <time>2020-10-09T14:00:43.000Z</time>
      </trkpt>
      <trkpt lat="43.60699" lon="3.72411">
        <ele>179.34375</ele>
        <time>2020-10-09T14:00:44.000Z</time>
      </trkpt>
      <trkpt lat="43.60697" lon="3.72422">
        <ele>179.05078125</ele>
        <time>2020-10-09T14:00:45.000Z</time>
      </trkpt>
      <trkpt lat="43.60695" lon="3.72433">
        <ele>178.7578125</ele>
        <time>2020-10-09T14:00:46.000Z</time>
      </trkpt>
      <trkpt lat="43.60693" lon="3.72443">
        <ele>178.46484375</ele>
        <time>2020-10-09T14:00:47.000Z</time>
      </trkpt>
      <trkpt lat="43.60691" lon="3.72452">
        <ele>178.171875</ele>
        <time>2020-10-09T14:00:48.000Z</time>
      </trkpt>
      <trkpt lat="43.60691" lon="3.72462">
        <ele>177.87890625</ele>
        <time>2020-10-09T14:00:49.000Z</time>
      </trkpt>
      <trkpt lat="43.60691" lon="3.72471">
        <ele>177.5859375</ele>
        <time>2020-10-09T14:00:50.000Z</time>
      </trkpt>
      <trkpt lat="43.6069" lon="3.7248">
        <ele>177.29296875</ele>
        <time>2020-10-09T14:00:51.000Z</time>
      </trkpt>
      <trkpt lat="43.6069" lon="3.72489">
        <ele>177</ele>
        <time>2020-10-09T14:00:52.000Z</time>
      </trkpt>
      <trkpt lat="43.60689" lon="3.72499">
        <ele>177</ele>
        <time>2020-10-09T14:00:53.000Z</time>
      </trkpt>
      <trkpt lat="43.60689" lon="3.72508">
        <ele>177</ele>
        <time>2020-10-09T14:00:54.000Z</time>
      </trkpt>
      <trkpt lat="43.60688" lon="3.72517">
        <ele>177</ele>
        <time>2020-10-09T14:00:55.000Z</time>
      </trkpt>
      <trkpt lat="43.60687" lon="3.72526">
        <ele>177</ele>
        <time>2020-10-09T14:00:56.000Z</time>
      </trkpt>
      <trkpt lat="43.60686" lon="3.72534">
        <ele>177</ele>
        <time>2020-10-09T14:00:57.000Z</time>
      </trkpt>
      <trkpt lat="43.60685" lon="3.72542">
        <ele>177</ele>
        <time>2020-10-09T14:00:58.000Z</time>
      </trkpt>
      <trkpt lat="43.60684" lon="3.7255">
        <ele>177</ele>
        <time>2020-10-09T14:00:59.000Z</time>
      </trkpt>
      <trkpt lat="43.60684" lon="3.72558">
        <ele>177</ele>
        <time>2020-10-09T14:01:00.000Z</time>
      </trkpt>
      <trkpt lat="43.60683" lon="3.72565">
        <ele>177</ele>
        <time>2020-10-09T14:01:01.000Z</time>
      </trkpt>
      <trkpt lat="43.60683" lon="3.72571">
        <ele>177.01325146202</ele>
        <time>2020-10-09T14:01:02.000Z</time>
      </trkpt>
      <trkpt lat="43.60683" lon="3.72577">
        <ele>177.11518829446</ele>
        <time>2020-10-09T14:01:03.000Z</time>
      </trkpt>
      <trkpt lat="43.60683" lon="3.72582">
        <ele>177.21712512689</ele>
        <time>2020-10-09T14:01:04.000Z</time>
      </trkpt>
      <trkpt lat="43.60684" lon="3.72587">
        <ele>177.31906195933</ele>
        <time>2020-10-09T14:01:05.000Z</time>
      </trkpt>
      <trkpt lat="43.60684" lon="3.72592">
        <ele>177.42099879176</ele>
        <time>2020-10-09T14:01:06.000Z</time>
      </trkpt>
      <trkpt lat="43.60685" lon="3.72597">
        <ele>177.5229356242</ele>
        <time>2020-10-09T14:01:07.000Z</time>
      </trkpt>
      <trkpt lat="43.60685" lon="3.72602">
        <ele>177.62487245663</ele>
        <time>2020-10-09T14:01:08.000Z</time>
      </trkpt>
      <trkpt lat="43.60685" lon="3.72606">
        <ele>177.72680928907</ele>
        <time>2020-10-09T14:01:09.000Z</time>
      </trkpt>
      <trkpt lat="43.60685" lon="3.7261">
        <ele>177.82874612151</ele>
        <time>2020-10-09T14:01:10.000Z</time>
      </trkpt>
      <trkpt lat="43.60685" lon="3.72615">
        <ele>177.93068295394</ele>
        <time>2020-10-09T14:01:11.000Z</time>
      </trkpt>
      <trkpt lat="43.60685" lon="3.72619">
        <ele>178</ele>
        <time>2020-10-09T14:01:12.000Z</time>
      </trkpt>
      <trkpt lat="43.60685" lon="3.72624">
        <ele>178</ele>
        <time>2020-10-09T14:01:13.000Z</time>
      </trkpt>
      <trkpt lat="43.60685" lon="3.72629">
        <ele>178</ele>
        <time>2020-10-09T14:01:14.000Z</time>
      </trkpt>
      <trkpt lat="43.60685" lon="3.72634">
        <ele>178</ele>
        <time>2020-10-09T14:01:15.000Z</time>
      </trkpt>
      <trkpt lat="43.60684" lon="3.7264">
        <ele>178</ele>
        <time>2020-10-09T14:01:16.000Z</time>
      </trkpt>
      <trkpt lat="43.60683" lon="3.72645">
        <ele>178</ele>
        <time>2020-10-09T14:01:17.000Z</time>
      </trkpt>
      <trkpt lat="43.60683" lon="3.7265">
        <ele>178</ele>
        <time>2020-10-09T14:01:18.000Z</time>
      </trkpt>
      <trkpt lat="43.60682" lon="3.72657">
        <ele>178</ele>
        <time>2020-10-09T14:01:19.000Z</time>
      </trkpt>
      <trkpt lat="43.60682" lon="3.72663">
        <ele>178</ele>
        <time>2020-10-09T14:01:20.000Z</time>
      </trkpt>
      <trkpt lat="43.60683" lon="3.7267">
        <ele>178</ele>
        <time>2020-10-09T14:01:21.000Z</time>
      </trkpt>
      <trkpt lat="43.60684" lon="3.72678">
        <ele>178.032</ele>
        <time>2020-10-09T14:01:22.000Z</time>
      </trkpt>
      <trkpt lat="43.60684" lon="3.72685">
        <ele>178.132</ele>
        <time>2020-10-09T14:01:23.000Z</time>
      </trkpt>
      <trkpt lat="43.60685" lon="3.72692">
        <ele>178.232</ele>
        <time>2020-10-09T14:01:24.000Z</time>
      </trkpt>
      <trkpt lat="43.60686" lon="3.72699">
        <ele>178.332</ele>
        <time>2020-10-09T14:01:25.000Z</time>
      </trkpt>
      <trkpt lat="43.60686" lon="3.72706">
        <ele>178.432</ele>
        <time>2020-10-09T14:01:26.000Z</time>
      </trkpt>
      <trkpt lat="43.60687" lon="3.72712">
        <ele>178.532</ele>
        <time>2020-10-09T14:01:27.000Z</time>
      </trkpt>
      <trkpt lat="43.60687" lon="3.72718">
        <ele>178.632</ele>
        <time>2020-10-09T14:01:28.000Z</time>
      </trkpt>
      <trkpt lat="43.60687" lon="3.72724">
        <ele>178.732</ele>
        <time>2020-10-09T14:01:29.000Z</time>
      </trkpt>
      <trkpt lat="43.60687" lon="3.7273">
        <ele>178.832</ele>
        <time>2020-10-09T14:01:30.000Z</time>
      </trkpt>
      <trkpt lat="43.60686" lon="3.72736">
        <ele>178.932</ele>
        <time>2020-10-09T14:01:31.000Z</time>
      </trkpt>
      <trkpt lat="43.60685" lon="3.72742">
        <ele>179.032</ele>
        <time>2020-10-09T14:01:32.000Z</time>
      </trkpt>
      <trkpt lat="43.60684" lon="3.72748">
        <ele>179.132</ele>
        <time>2020-10-09T14:01:33.000Z</time>
      </trkpt>
      <trkpt lat="43.60683" lon="3.72754">
        <ele>179.232</ele>
        <time>2020-10-09T14:01:34.000Z</time>
      </trkpt>
      <trkpt lat="43.60682" lon="3.7276">
        <ele>179.332</ele>
        <time>2020-10-09T14:01:35.000Z</time>
      </trkpt>
      <trkpt lat="43.60681" lon="3.72766">
        <ele>179.432</ele>
        <time>2020-10-09T14:01:36.000Z</time>
      </trkpt>
      <trkpt lat="43.6068" lon="3.72772">
        <ele>179.532</ele>
        <time>2020-10-09T14:01:37.000Z</time>
      </trkpt>
      <trkpt lat="43.60678" lon="3.72777">
        <ele>179.632</ele>
        <time>2020-10-09T14:01:38.000Z</time>
      </trkpt>
      <trkpt lat="43.60677" lon="3.72782">
        <ele>179.732</ele>
        <time>2020-10-09T14:01:39.000Z</time>
      </trkpt>
      <trkpt lat="43.60675" lon="3.72787">
        <ele>179.832</ele>
        <time>2020-10-09T14:01:40.000Z</time>
      </trkpt>
      <trkpt lat="43.60674" lon="3.72792">
        <ele>179.932</ele>
        <time>2020-10-09T14:01:41.000Z</time>
      </trkpt>
      <trkpt lat="43.60672" lon="3.72796">
        <ele>180</ele>
        <time>2020-10-09T14:01:42.000Z</time>
      </trkpt>
      <trkpt lat="43.6067" lon="3.728">
        <ele>180</ele>
        <time>2020-10-09T14:01:43.000Z</time>
      </trkpt>
      <trkpt lat="43.60668" lon="3.72804">
        <ele>180</ele>
        <time>2020-10-09T14:01:44.000Z</time>
      </trkpt>
      <trkpt lat="43.60666" lon="3.72808">
        <ele>180</ele>
        <time>2020-10-09T14:01:45.000Z</time>
      </trkpt>
      <trkpt lat="43.60665" lon="3.72812">
        <ele>180</ele>
        <time>2020-10-09T14:01:46.000Z</time>
      </trkpt>
      <trkpt lat="43.60663" lon="3.72815">
        <ele>180</ele>
        <time>2020-10-09T14:01:47.000Z</time>
      </trkpt>
      <trkpt lat="43.60662" lon="3.72818">
        <ele>180</ele>
        <time>2020-10-09T14:01:48.000Z</time>
      </trkpt>
      <trkpt lat="43.6066" lon="3.72821">
        <ele>180</ele>
        <time>2020-10-09T14:01:49.000Z</time>
      </trkpt>
      <trkpt lat="43.60659" lon="3.72825">
        <ele>180</ele>
        <time>2020-10-09T14:01:50.000Z</time>
      </trkpt>
      <trkpt lat="43.60657" lon="3.72829">
        <ele>180</ele>
        <time>2020-10-09T14:01:51.000Z</time>
      </trkpt>
      <trkpt lat="43.60655" lon="3.72832">
        <ele>180.03109816322</ele>
        <time>2020-10-09T14:01:52.000Z</time>
      </trkpt>
      <trkpt lat="43.60653" lon="3.72835">
        <ele>180.12827992327</ele>
        <time>2020-10-09T14:01:53.000Z</time>
      </trkpt>
      <trkpt lat="43.60651" lon="3.72838">
        <ele>180.22546168333</ele>
        <time>2020-10-09T14:01:54.000Z</time>
      </trkpt>
      <trkpt lat="43.60649" lon="3.72841">
        <ele>180.32264344339</ele>
        <time>2020-10-09T14:01:55.000Z</time>
      </trkpt>
      <trkpt lat="43.60647" lon="3.72845">
        <ele>180.41982520344</ele>
        <time>2020-10-09T14:01:56.000Z</time>
      </trkpt>
      <trkpt lat="43.60646" lon="3.72848">
        <ele>180.5170069635</ele>
        <time>2020-10-09T14:01:57.000Z</time>
      </trkpt>
      <trkpt lat="43.60644" lon="3.72851">
        <ele>180.61418872356</ele>
        <time>2020-10-09T14:01:58.000Z</time>
      </trkpt>
      <trkpt lat="43.60643" lon="3.72854">
        <ele>180.71137048361</ele>
        <time>2020-10-09T14:01:59.000Z</time>
      </trkpt>
      <trkpt lat="43.60641" lon="3.72858">
        <ele>180.80855224367</ele>
        <time>2020-10-09T14:02:00.000Z</time>
      </trkpt>
      <trkpt lat="43.60639" lon="3.72862">
        <ele>180.90573400373</ele>
        <time>2020-10-09T14:02:01.000Z</time>
      </trkpt>
      <trkpt lat="43.60636" lon="3.72866">
        <ele>181</ele>
        <time>2020-10-09T14:02:02.000Z</time>
      </trkpt>
      <trkpt lat="43.60634" lon="3.72871">
        <ele>181</ele>
        <time>2020-10-09T14:02:03.000Z</time>
      </trkpt>
      <trkpt lat="43.60631" lon="3.72875">
        <ele>181</ele>
        <time>2020-10-09T14:02:04.000Z</time>
      </trkpt>
      <trkpt lat="43.60627" lon="3.7288">
        <ele>181</ele>
        <time>2020-10-09T14:02:05.000Z</time>
      </trkpt>
      <trkpt lat="43.60624" lon="3.72884">
        <ele>181</ele>
        <time>2020-10-09T14:02:06.000Z</time>
      </trkpt>
      <trkpt lat="43.6062" lon="3.72889">
        <ele>181</ele>
        <time>2020-10-09T14:02:07.000Z</time>
      </trkpt>
      <trkpt lat="43.60617" lon="3.72893">
        <ele>181</ele>
        <time>2020-10-09T14:02:08.000Z</time>
      </trkpt>
      <trkpt lat="43.60613" lon="3.72898">
        <ele>181</ele>
        <time>2020-10-09T14:02:09.000Z</time>
      </trkpt>
      <trkpt lat="43.6061" lon="3.72903">
        <ele>181</ele>
        <time>2020-10-09T14:02:10.000Z</time>
      </trkpt>
      <trkpt lat="43.60606" lon="3.72909">
        <ele>181</ele>
        <time>2020-10-09T14:02:11.000Z</time>
      </trkpt>
      <trkpt lat="43.60603" lon="3.72914">
        <ele>180.96899224806</ele>
        <time>2020-10-09T14:02:12.000Z</time>
      </trkpt>
      <trkpt lat="43.606" lon="3.72919">
        <ele>180.87209302326</ele>
        <time>2020-10-09T14:02:13.000Z</time>
      </trkpt>
      <trkpt lat="43.60596" lon="3.72924">
        <ele>180.77519379845</ele>
        <time>2020-10-09T14:02:14.000Z</time>
      </trkpt>
      <trkpt lat="43.60593" lon="3.72929">
        <ele>180.67829457364</ele>
        <time>2020-10-09T14:02:15.000Z</time>
      </trkpt>
      <trkpt lat="43.60588" lon="3.72935">
        <ele>180.58139534884</ele>
        <time>2020-10-09T14:02:16.000Z</time>
      </trkpt>
      <trkpt lat="43.60584" lon="3.72942">
        <ele>180.48449612403</ele>
        <time>2020-10-09T14:02:17.000Z</time>
      </trkpt>
      <trkpt lat="43.60579" lon="3.72951">
        <ele>180.38759689923</ele>
        <time>2020-10-09T14:02:18.000Z</time>
      </trkpt>
      <trkpt lat="43.60574" lon="3.72958">
        <ele>180.29069767442</ele>
        <time>2020-10-09T14:02:19.000Z</time>
      </trkpt>
      <trkpt lat="43.6057" lon="3.72965">
        <ele>180.19379844961</ele>
        <time>2020-10-09T14:02:20.000Z</time>
      </trkpt>
      <trkpt lat="43.60564" lon="3.72972">
        <ele>180.09689922481</ele>
        <time>2020-10-09T14:02:21.000Z</time>
      </trkpt>
      <trkpt lat="43.60559" lon="3.7298">
        <ele>180</ele>
        <time>2020-10-09T14:02:22.000Z</time>
      </trkpt>
      <trkpt lat="43.60553" lon="3.72988">
        <ele>179.79338842975</ele>
        <time>2020-10-09T14:02:23.000Z</time>
      </trkpt>
      <trkpt lat="43.60547" lon="3.72996">
        <ele>179.5867768595</ele>
        <time>2020-10-09T14:02:24.000Z</time>
      </trkpt>
      <trkpt lat="43.6054" lon="3.73004">
        <ele>179.38016528926</ele>
        <time>2020-10-09T14:02:25.000Z</time>
      </trkpt>
      <trkpt lat="43.60534" lon="3.73011">
        <ele>179.17355371901</ele>
        <time>2020-10-09T14:02:26.000Z</time>
      </trkpt>
      <trkpt lat="43.60526" lon="3.73018">
        <ele>178.96694214876</ele>
        <time>2020-10-09T14:02:27.000Z</time>
      </trkpt>
      <trkpt lat="43.60519" lon="3.73026">
        <ele>178.76033057851</ele>
        <time>2020-10-09T14:02:28.000Z</time>
      </trkpt>
      <trkpt lat="43.60512" lon="3.73033">
        <ele>178.55371900826</ele>
        <time>2020-10-09T14:02:29.000Z</time>
      </trkpt>
      <trkpt lat="43.60505" lon="3.7304">
        <ele>178.34710743802</ele>
        <time>2020-10-09T14:02:30.000Z</time>
      </trkpt>
      <trkpt lat="43.60498" lon="3.73047">
        <ele>178.14049586777</ele>
        <time>2020-10-09T14:02:31.000Z</time>
      </trkpt>
      <trkpt lat="43.60491" lon="3.73054">
        <ele>177.84</ele>
        <time>2020-10-09T14:02:32.000Z</time>
      </trkpt>
      <trkpt lat="43.60485" lon="3.7306">
        <ele>177.34</ele>
        <time>2020-10-09T14:02:33.000Z</time>
      </trkpt>
      <trkpt lat="43.60479" lon="3.73067">
        <ele>176.84</ele>
        <time>2020-10-09T14:02:34.000Z</time>
      </trkpt>
      <trkpt lat="43.60474" lon="3.73074">
        <ele>176.34</ele>
        <time>2020-10-09T14:02:35.000Z</time>
      </trkpt>
      <trkpt lat="43.60468" lon="3.73081">
        <ele>175.84</ele>
        <time>2020-10-09T14:02:36.000Z</time>
      </trkpt>
      <trkpt lat="43.60463" lon="3.73089">
        <ele>175.34</ele>
        <time>2020-10-09T14:02:37.000Z</time>
      </trkpt>
      <trkpt lat="43.60458" lon="3.73095">
        <ele>174.84</ele>
        <time>2020-10-09T14:02:38.000Z</time>
      </trkpt>
      <trkpt lat="43.60452" lon="3.73104">
        <ele>174.34</ele>
        <time>2020-10-09T14:02:39.000Z</time>
      </trkpt>
      <trkpt lat="43.60446" lon="3.73113">
        <ele>173.84</ele>
        <time>2020-10-09T14:02:40.000Z</time>
      </trkpt>
      <trkpt lat="43.60441" lon="3.73121">
        <ele>173.34</ele>
        <time>2020-10-09T14:02:41.000Z</time>
      </trkpt>
      <trkpt lat="43.60437" lon="3.73127">
        <ele>172.712</ele>
        <time>2020-10-09T14:02:42.000Z</time>
      </trkpt>
      <trkpt lat="43.60434" lon="3.73133">
        <ele>171.812</ele>
        <time>2020-10-09T14:02:43.000Z</time>
      </trkpt>
      <trkpt lat="43.60432" lon="3.73138">
        <ele>170.912</ele>
        <time>2020-10-09T14:02:44.000Z</time>
      </trkpt>
      <trkpt lat="43.60428" lon="3.73144">
        <ele>170.012</ele>
        <time>2020-10-09T14:02:45.000Z</time>
      </trkpt>
      <trkpt lat="43.60425" lon="3.7315">
        <ele>169.112</ele>
        <time>2020-10-09T14:02:46.000Z</time>
      </trkpt>
      <trkpt lat="43.60422" lon="3.73157">
        <ele>168.212</ele>
        <time>2020-10-09T14:02:47.000Z</time>
      </trkpt>
      <trkpt lat="43.6042" lon="3.73165">
        <ele>167.312</ele>
        <time>2020-10-09T14:02:48.000Z</time>
      </trkpt>
      <trkpt lat="43.60418" lon="3.73173">
        <ele>166.412</ele>
        <time>2020-10-09T14:02:49.000Z</time>
      </trkpt>
      <trkpt lat="43.60416" lon="3.73181">
        <ele>165.512</ele>
        <time>2020-10-09T14:02:50.000Z</time>
      </trkpt>
      <trkpt lat="43.60414" lon="3.73189">
        <ele>164.612</ele>
        <time>2020-10-09T14:02:51.000Z</time>
      </trkpt>
      <trkpt lat="43.60413" lon="3.73197">
        <ele>163.904</ele>
        <time>2020-10-09T14:02:52.000Z</time>
      </trkpt>
      <trkpt lat="43.60411" lon="3.73205">
        <ele>163.604</ele>
        <time>2020-10-09T14:02:53.000Z</time>
      </trkpt>
      <trkpt lat="43.60409" lon="3.73212">
        <ele>163.304</ele>
        <time>2020-10-09T14:02:54.000Z</time>
      </trkpt>
      <trkpt lat="43.60407" lon="3.7322">
        <ele>163.004</ele>
        <time>2020-10-09T14:02:55.000Z</time>
      </trkpt>
      <trkpt lat="43.60406" lon="3.73227">
        <ele>162.704</ele>
        <time>2020-10-09T14:02:56.000Z</time>
      </trkpt>
      <trkpt lat="43.60404" lon="3.73234">
        <ele>162.404</ele>
        <time>2020-10-09T14:02:57.000Z</time>
      </trkpt>
      <trkpt lat="43.60402" lon="3.7324">
        <ele>162.104</ele>
        <time>2020-10-09T14:02:58.000Z</time>
      </trkpt>
      <trkpt lat="43.60401" lon="3.73247">
        <ele>161.804</ele>
        <time>2020-10-09T14:02:59.000Z</time>
      </trkpt>
      <trkpt lat="43.60399" lon="3.73253">
        <ele>161.504</ele>
        <time>2020-10-09T14:03:00.000Z</time>
      </trkpt>
      <trkpt lat="43.60398" lon="3.73259">
        <ele>161.204</ele>
        <time>2020-10-09T14:03:01.000Z</time>
      </trkpt>
      <trkpt lat="43.60397" lon="3.73266">
        <ele>160.90606659503</ele>
        <time>2020-10-09T14:03:02.000Z</time>
      </trkpt>
      <trkpt lat="43.60396" lon="3.73272">
        <ele>160.61252470449</ele>
        <time>2020-10-09T14:03:03.000Z</time>
      </trkpt>
      <trkpt lat="43.60395" lon="3.73279">
        <ele>160.31898281394</ele>
        <time>2020-10-09T14:03:04.000Z</time>
      </trkpt>
      <trkpt lat="43.60393" lon="3.73285">
        <ele>160.0254409234</ele>
        <time>2020-10-09T14:03:05.000Z</time>
      </trkpt>
      <trkpt lat="43.60392" lon="3.73293">
        <ele>159.73189903286</ele>
        <time>2020-10-09T14:03:06.000Z</time>
      </trkpt>
      <trkpt lat="43.6039" lon="3.733">
        <ele>159.43835714232</ele>
        <time>2020-10-09T14:03:07.000Z</time>
      </trkpt>
      <trkpt lat="43.60389" lon="3.73307">
        <ele>159.14481525178</ele>
        <time>2020-10-09T14:03:08.000Z</time>
      </trkpt>
      <trkpt lat="43.60387" lon="3.73315">
        <ele>158.85127336124</ele>
        <time>2020-10-09T14:03:09.000Z</time>
      </trkpt>
      <trkpt lat="43.60386" lon="3.73323">
        <ele>158.5577314707</ele>
        <time>2020-10-09T14:03:10.000Z</time>
      </trkpt>
      <trkpt lat="43.60385" lon="3.73331">
        <ele>158.26418958016</ele>
        <time>2020-10-09T14:03:11.000Z</time>
      </trkpt>
      <trkpt lat="43.60384" lon="3.7334">
        <ele>157.94887849415</ele>
        <time>2020-10-09T14:03:12.000Z</time>
      </trkpt>
      <trkpt lat="43.60383" lon="3.73348">
        <ele>157.43763071583</ele>
        <time>2020-10-09T14:03:13.000Z</time>
      </trkpt>
      <trkpt lat="43.60381" lon="3.73356">
        <ele>156.92638293751</ele>
        <time>2020-10-09T14:03:14.000Z</time>
      </trkpt>
      <trkpt lat="43.60379" lon="3.73364">
        <ele>156.41513515919</ele>
        <time>2020-10-09T14:03:15.000Z</time>
      </trkpt>
      <trkpt lat="43.60377" lon="3.73373">
        <ele>155.90388738087</ele>
        <time>2020-10-09T14:03:16.000Z</time>
      </trkpt>
      <trkpt lat="43.60375" lon="3.73382">
        <ele>155.39263960254</ele>
        <time>2020-10-09T14:03:17.000Z</time>
      </trkpt>
      <trkpt lat="43.60373" lon="3.73391">
        <ele>154.88139182422</ele>
        <time>2020-10-09T14:03:18.000Z</time>
      </trkpt>
      <trkpt lat="43.6037" lon="3.734">
        <ele>154.3701440459</ele>
        <time>2020-10-09T14:03:19.000Z</time>
      </trkpt>
      <trkpt lat="43.60367" lon="3.73408">
        <ele>153.85889626758</ele>
        <time>2020-10-09T14:03:20.000Z</time>
      </trkpt>
      <trkpt lat="43.60364" lon="3.73416">
        <ele>153.34764848926</ele>
        <time>2020-10-09T14:03:21.000Z</time>
      </trkpt>
      <trkpt lat="43.60361" lon="3.73423">
        <ele>152.90679617442</ele>
        <time>2020-10-09T14:03:22.000Z</time>
      </trkpt>
      <trkpt lat="43.60359" lon="3.73431">
        <ele>152.61553421947</ele>
        <time>2020-10-09T14:03:23.000Z</time>
      </trkpt>
      <trkpt lat="43.60358" lon="3.73439">
        <ele>152.32427226453</ele>
        <time>2020-10-09T14:03:24.000Z</time>
      </trkpt>
      <trkpt lat="43.60357" lon="3.73446">
        <ele>152.03301030959</ele>
        <time>2020-10-09T14:03:25.000Z</time>
      </trkpt>
      <trkpt lat="43.60357" lon="3.73454">
        <ele>151.74174835464</ele>
        <time>2020-10-09T14:03:26.000Z</time>
      </trkpt>
      <trkpt lat="43.60359" lon="3.73461">
        <ele>151.4504863997</ele>
        <time>2020-10-09T14:03:27.000Z</time>
      </trkpt>
      <trkpt lat="43.60362" lon="3.73468">
        <ele>151.15922444475</ele>
        <time>2020-10-09T14:03:28.000Z</time>
      </trkpt>
      <trkpt lat="43.60366" lon="3.73475">
        <ele>150.86796248981</ele>
        <time>2020-10-09T14:03:29.000Z</time>
      </trkpt>
      <trkpt lat="43.6037" lon="3.73482">
        <ele>150.57670053487</ele>
        <time>2020-10-09T14:03:30.000Z</time>
      </trkpt>
      <trkpt lat="43.60375" lon="3.73488">
        <ele>150.28543857992</ele>
        <time>2020-10-09T14:03:31.000Z</time>
      </trkpt>
      <trkpt lat="43.6038" lon="3.73494">
        <ele>149.99381640829</ele>
        <time>2020-10-09T14:03:32.000Z</time>
      </trkpt>
      <trkpt lat="43.60385" lon="3.735">
        <ele>149.68453785372</ele>
        <time>2020-10-09T14:03:33.000Z</time>
      </trkpt>
      <trkpt lat="43.60388" lon="3.73507">
        <ele>149.37525929914</ele>
        <time>2020-10-09T14:03:34.000Z</time>
      </trkpt>
      <trkpt lat="43.60392" lon="3.73515">
        <ele>149.06598074456</ele>
        <time>2020-10-09T14:03:35.000Z</time>
      </trkpt>
      <trkpt lat="43.60394" lon="3.73522">
        <ele>148.75670218999</ele>
        <time>2020-10-09T14:03:36.000Z</time>
      </trkpt>
      <trkpt lat="43.60396" lon="3.73527">
        <ele>148.44742363541</ele>
        <time>2020-10-09T14:03:37.000Z</time>
      </trkpt>
      <trkpt lat="43.60399" lon="3.73532">
        <ele>148.13814508084</ele>
        <time>2020-10-09T14:03:38.000Z</time>
      </trkpt>
      <trkpt lat="43.604" lon="3.73535">
        <ele>147.82886652626</ele>
        <time>2020-10-09T14:03:39.000Z</time>
      </trkpt>
      <trkpt lat="43.60402" lon="3.73537">
        <ele>147.51958797169</ele>
        <time>2020-10-09T14:03:40.000Z</time>
      </trkpt>
      <trkpt lat="43.60403" lon="3.73539">
        <ele>147.21030941711</ele>
        <time>2020-10-09T14:03:41.000Z</time>
      </trkpt>
      <trkpt lat="43.60405" lon="3.73542">
        <ele>147</ele>
        <time>2020-10-09T14:03:42.000Z</time>
      </trkpt>
      <trkpt lat="43.60406" lon="3.73544">
        <ele>147</ele>
        <time>2020-10-09T14:03:43.000Z</time>
      </trkpt>
      <trkpt lat="43.60408" lon="3.73546">
        <ele>147</ele>
        <time>2020-10-09T14:03:44.000Z</time>
      </trkpt>
      <trkpt lat="43.6041" lon="3.73549">
        <ele>147</ele>
        <time>2020-10-09T14:03:45.000Z</time>
      </trkpt>
      <trkpt lat="43.60411" lon="3.73551">
        <ele>147</ele>
        <time>2020-10-09T14:03:46.000Z</time>
      </trkpt>
      <trkpt lat="43.60412" lon="3.73553">
        <ele>147</ele>
        <time>2020-10-09T14:03:47.000Z</time>
      </trkpt>
      <trkpt lat="43.60413" lon="3.73555">
        <ele>147</ele>
        <time>2020-10-09T14:03:48.000Z</time>
      </trkpt>
      <trkpt lat="43.60414" lon="3.73558">
        <ele>147</ele>
        <time>2020-10-09T14:03:49.000Z</time>
      </trkpt>
      <trkpt lat="43.60415" lon="3.73561">
        <ele>147</ele>
        <time>2020-10-09T14:03:50.000Z</time>
      </trkpt>
      <trkpt lat="43.60416" lon="3.73564">
        <ele>147</ele>
        <time>2020-10-09T14:03:51.000Z</time>
      </trkpt>
      <trkpt lat="43.60416" lon="3.73568">
        <ele>147</ele>
        <time>2020-10-09T14:03:52.000Z</time>
      </trkpt>
      <trkpt lat="43.60416" lon="3.73571">
        <ele>146.91482674893</ele>
        <time>2020-10-09T14:03:53.000Z</time>
      </trkpt>
      <trkpt lat="43.60415" lon="3.73575">
        <ele>146.8096741717</ele>
        <time>2020-10-09T14:03:54.000Z</time>
      </trkpt>
      <trkpt lat="43.60413" lon="3.7358">
        <ele>146.70452159447</ele>
        <time>2020-10-09T14:03:55.000Z</time>
      </trkpt>
      <trkpt lat="43.60412" lon="3.73584">
        <ele>146.59936901724</ele>
        <time>2020-10-09T14:03:56.000Z</time>
      </trkpt>
      <trkpt lat="43.6041" lon="3.73588">
        <ele>146.49421644001</ele>
        <time>2020-10-09T14:03:57.000Z</time>
      </trkpt>
      <trkpt lat="43.60409" lon="3.73592">
        <ele>146.38906386278</ele>
        <time>2020-10-09T14:03:58.000Z</time>
      </trkpt>
      <trkpt lat="43.60407" lon="3.73596">
        <ele>146.28391128555</ele>
        <time>2020-10-09T14:03:59.000Z</time>
      </trkpt>
      <trkpt lat="43.60405" lon="3.736">
        <ele>146.17875870832</ele>
        <time>2020-10-09T14:04:00.000Z</time>
      </trkpt>
      <trkpt lat="43.60404" lon="3.73603">
        <ele>146.07360613109</ele>
        <time>2020-10-09T14:04:01.000Z</time>
      </trkpt>
      <trkpt lat="43.60403" lon="3.73607">
        <ele>146</ele>
        <time>2020-10-09T14:04:02.000Z</time>
      </trkpt>
      <trkpt lat="43.60402" lon="3.73611">
        <ele>146</ele>
        <time>2020-10-09T14:04:03.000Z</time>
      </trkpt>
      <trkpt lat="43.60401" lon="3.73615">
        <ele>146</ele>
        <time>2020-10-09T14:04:04.000Z</time>
      </trkpt>
      <trkpt lat="43.60401" lon="3.7362">
        <ele>146</ele>
        <time>2020-10-09T14:04:05.000Z</time>
      </trkpt>
      <trkpt lat="43.604" lon="3.73624">
        <ele>146</ele>
        <time>2020-10-09T14:04:06.000Z</time>
      </trkpt>
      <trkpt lat="43.604" lon="3.73627">
        <ele>146</ele>
        <time>2020-10-09T14:04:07.000Z</time>
      </trkpt>
      <trkpt lat="43.604" lon="3.7363">
        <ele>146</ele>
        <time>2020-10-09T14:04:08.000Z</time>
      </trkpt>
      <trkpt lat="43.604" lon="3.73635">
        <ele>146</ele>
        <time>2020-10-09T14:04:09.000Z</time>
      </trkpt>
      <trkpt lat="43.60398" lon="3.73639">
        <ele>146</ele>
        <time>2020-10-09T14:04:10.000Z</time>
      </trkpt>
      <trkpt lat="43.60396" lon="3.73644">
        <ele>146</ele>
        <time>2020-10-09T14:04:11.000Z</time>
      </trkpt>
      <trkpt lat="43.60392" lon="3.73647">
        <ele>145.99180327869</ele>
        <time>2020-10-09T14:04:12.000Z</time>
      </trkpt>
      <trkpt lat="43.60389" lon="3.73649">
        <ele>145.88934426229</ele>
        <time>2020-10-09T14:04:13.000Z</time>
      </trkpt>
      <trkpt lat="43.60385" lon="3.73652">
        <ele>145.7868852459</ele>
        <time>2020-10-09T14:04:14.000Z</time>
      </trkpt>
      <trkpt lat="43.60381" lon="3.73656">
        <ele>145.68442622951</ele>
        <time>2020-10-09T14:04:15.000Z</time>
      </trkpt>
      <trkpt lat="43.60378" lon="3.7366">
        <ele>145.58196721312</ele>
        <time>2020-10-09T14:04:16.000Z</time>
      </trkpt>
      <trkpt lat="43.60374" lon="3.73663">
        <ele>145.47950819672</ele>
        <time>2020-10-09T14:04:17.000Z</time>
      </trkpt>
      <trkpt lat="43.60371" lon="3.73666">
        <ele>145.37704918033</ele>
        <time>2020-10-09T14:04:18.000Z</time>
      </trkpt>
      <trkpt lat="43.60368" lon="3.73668">
        <ele>145.27459016393</ele>
        <time>2020-10-09T14:04:19.000Z</time>
      </trkpt>
      <trkpt lat="43.60364" lon="3.73672">
        <ele>145.17213114754</ele>
        <time>2020-10-09T14:04:20.000Z</time>
      </trkpt>
      <trkpt lat="43.6036" lon="3.73676">
        <ele>145.06967213115</ele>
        <time>2020-10-09T14:04:21.000Z</time>
      </trkpt>
      <trkpt lat="43.60356" lon="3.73681">
        <ele>144.904</ele>
        <time>2020-10-09T14:04:22.000Z</time>
      </trkpt>
      <trkpt lat="43.60353" lon="3.73686">
        <ele>144.604</ele>
        <time>2020-10-09T14:04:23.000Z</time>
      </trkpt>
      <trkpt lat="43.60349" lon="3.73691">
        <ele>144.304</ele>
        <time>2020-10-09T14:04:24.000Z</time>
      </trkpt>
      <trkpt lat="43.60346" lon="3.73698">
        <ele>144.004</ele>
        <time>2020-10-09T14:04:25.000Z</time>
      </trkpt>
      <trkpt lat="43.60343" lon="3.73705">
        <ele>143.704</ele>
        <time>2020-10-09T14:04:26.000Z</time>
      </trkpt>
      <trkpt lat="43.60339" lon="3.73711">
        <ele>143.404</ele>
        <time>2020-10-09T14:04:27.000Z</time>
      </trkpt>
      <trkpt lat="43.60336" lon="3.73718">
        <ele>143.104</ele>
        <time>2020-10-09T14:04:28.000Z</time>
      </trkpt>
      <trkpt lat="43.60332" lon="3.73725">
        <ele>142.804</ele>
        <time>2020-10-09T14:04:29.000Z</time>
      </trkpt>
      <trkpt lat="43.60327" lon="3.73732">
        <ele>142.504</ele>
        <time>2020-10-09T14:04:30.000Z</time>
      </trkpt>
      <trkpt lat="43.60323" lon="3.7374">
        <ele>142.204</ele>
        <time>2020-10-09T14:04:31.000Z</time>
      </trkpt>
      <trkpt lat="43.60319" lon="3.73747">
        <ele>141.64975113226</ele>
        <time>2020-10-09T14:04:32.000Z</time>
      </trkpt>
      <trkpt lat="43.60314" lon="3.73754">
        <ele>140.55522342057</ele>
        <time>2020-10-09T14:04:33.000Z</time>
      </trkpt>
      <trkpt lat="43.60309" lon="3.73761">
        <ele>139.46069570888</ele>
        <time>2020-10-09T14:04:34.000Z</time>
      </trkpt>
      <trkpt lat="43.60304" lon="3.73769">
        <ele>138.36616799719</ele>
        <time>2020-10-09T14:04:35.000Z</time>
      </trkpt>
      <trkpt lat="43.60299" lon="3.73776">
        <ele>137.2716402855</ele>
        <time>2020-10-09T14:04:36.000Z</time>
      </trkpt>
      <trkpt lat="43.60294" lon="3.73783">
        <ele>136.17711257381</ele>
        <time>2020-10-09T14:04:37.000Z</time>
      </trkpt>
      <trkpt lat="43.60288" lon="3.73792">
        <ele>135.08258486212</ele>
        <time>2020-10-09T14:04:38.000Z</time>
      </trkpt>
      <trkpt lat="43.60282" lon="3.73802">
        <ele>133.98805715043</ele>
        <time>2020-10-09T14:04:39.000Z</time>
      </trkpt>
      <trkpt lat="43.60275" lon="3.73813">
        <ele>132.89352943874</ele>
        <time>2020-10-09T14:04:40.000Z</time>
      </trkpt>
      <trkpt lat="43.60268" lon="3.73824">
        <ele>131.79900172705</ele>
        <time>2020-10-09T14:04:41.000Z</time>
      </trkpt>
      <trkpt lat="43.6026" lon="3.73836">
        <ele>130.72864008727</ele>
        <time>2020-10-09T14:04:42.000Z</time>
      </trkpt>
      <trkpt lat="43.60252" lon="3.73848">
        <ele>129.72361528487</ele>
        <time>2020-10-09T14:04:43.000Z</time>
      </trkpt>
      <trkpt lat="43.60245" lon="3.73859">
        <ele>128.71859048246</ele>
        <time>2020-10-09T14:04:44.000Z</time>
      </trkpt>
      <trkpt lat="43.60238" lon="3.73869">
        <ele>127.71356568006</ele>
        <time>2020-10-09T14:04:45.000Z</time>
      </trkpt>
      <trkpt lat="43.60232" lon="3.73878">
        <ele>126.70854087765</ele>
        <time>2020-10-09T14:04:46.000Z</time>
      </trkpt>
      <trkpt lat="43.60228" lon="3.73885">
        <ele>125.70351607525</ele>
        <time>2020-10-09T14:04:47.000Z</time>
      </trkpt>
      <trkpt lat="43.60225" lon="3.73891">
        <ele>124.69849127285</ele>
        <time>2020-10-09T14:04:48.000Z</time>
      </trkpt>
      <trkpt lat="43.60223" lon="3.73896">
        <ele>123.69346647044</ele>
        <time>2020-10-09T14:04:49.000Z</time>
      </trkpt>
      <trkpt lat="43.60222" lon="3.739">
        <ele>122.68844166804</ele>
        <time>2020-10-09T14:04:50.000Z</time>
      </trkpt>
      <trkpt lat="43.6022" lon="3.73903">
        <ele>121.68341686563</ele>
        <time>2020-10-09T14:04:51.000Z</time>
      </trkpt>
      <trkpt lat="43.60218" lon="3.73906">
        <ele>120.904</ele>
        <time>2020-10-09T14:04:52.000Z</time>
      </trkpt>
      <trkpt lat="43.60214" lon="3.73908">
        <ele>120.604</ele>
        <time>2020-10-09T14:04:53.000Z</time>
      </trkpt>
      <trkpt lat="43.6021" lon="3.7391">
        <ele>120.304</ele>
        <time>2020-10-09T14:04:54.000Z</time>
      </trkpt>
      <trkpt lat="43.60206" lon="3.73911">
        <ele>120.004</ele>
        <time>2020-10-09T14:04:55.000Z</time>
      </trkpt>
      <trkpt lat="43.60201" lon="3.73913">
        <ele>119.704</ele>
        <time>2020-10-09T14:04:56.000Z</time>
      </trkpt>
      <trkpt lat="43.60197" lon="3.73914">
        <ele>119.404</ele>
        <time>2020-10-09T14:04:57.000Z</time>
      </trkpt>
      <trkpt lat="43.60192" lon="3.73916">
        <ele>119.104</ele>
        <time>2020-10-09T14:04:58.000Z</time>
      </trkpt>
      <trkpt lat="43.60188" lon="3.73917">
        <ele>118.804</ele>
        <time>2020-10-09T14:04:59.000Z</time>
      </trkpt>
      <trkpt lat="43.60183" lon="3.73919">
        <ele>118.504</ele>
        <time>2020-10-09T14:05:00.000Z</time>
      </trkpt>
      <trkpt lat="43.60179" lon="3.7392">
        <ele>118.204</ele>
        <time>2020-10-09T14:05:01.000Z</time>
      </trkpt>
      <trkpt lat="43.60174" lon="3.73922">
        <ele>118</ele>
        <time>2020-10-09T14:05:02.000Z</time>
      </trkpt>
      <trkpt lat="43.6017" lon="3.73924">
        <ele>118</ele>
        <time>2020-10-09T14:05:03.000Z</time>
      </trkpt>
      <trkpt lat="43.60166" lon="3.73926">
        <ele>118</ele>
        <time>2020-10-09T14:05:04.000Z</time>
      </trkpt>
      <trkpt lat="43.60161" lon="3.73927">
        <ele>118</ele>
        <time>2020-10-09T14:05:05.000Z</time>
      </trkpt>
      <trkpt lat="43.60157" lon="3.73929">
        <ele>118</ele>
        <time>2020-10-09T14:05:06.000Z</time>
      </trkpt>
      <trkpt lat="43.60153" lon="3.73931">
        <ele>118</ele>
        <time>2020-10-09T14:05:07.000Z</time>
      </trkpt>
      <trkpt lat="43.60148" lon="3.73932">
        <ele>118</ele>
        <time>2020-10-09T14:05:08.000Z</time>
      </trkpt>
      <trkpt lat="43.60144" lon="3.73933">
        <ele>118</ele>
        <time>2020-10-09T14:05:09.000Z</time>
      </trkpt>
      <trkpt lat="43.6014" lon="3.73935">
        <ele>118</ele>
        <time>2020-10-09T14:05:10.000Z</time>
      </trkpt>
      <trkpt lat="43.60136" lon="3.73936">
        <ele>118</ele>
        <time>2020-10-09T14:05:11.000Z</time>
      </trkpt>
      <trkpt lat="43.60132" lon="3.73937">
        <ele>117.9837398374</ele>
        <time>2020-10-09T14:05:12.000Z</time>
      </trkpt>
      <trkpt lat="43.60128" lon="3.73939">
        <ele>117.88211382114</ele>
        <time>2020-10-09T14:05:13.000Z</time>
      </trkpt>
      <trkpt lat="43.60124" lon="3.7394">
        <ele>117.78048780488</ele>
        <time>2020-10-09T14:05:14.000Z</time>
      </trkpt>
      <trkpt lat="43.6012" lon="3.73942">
        <ele>117.67886178862</ele>
        <time>2020-10-09T14:05:15.000Z</time>
      </trkpt>
      <trkpt lat="43.60116" lon="3.73943">
        <ele>117.57723577236</ele>
        <time>2020-10-09T14:05:16.000Z</time>
      </trkpt>
      <trkpt lat="43.60112" lon="3.73944">
        <ele>117.4756097561</ele>
        <time>2020-10-09T14:05:17.000Z</time>
      </trkpt>
      <trkpt lat="43.60109" lon="3.73946">
        <ele>117.37398373984</ele>
        <time>2020-10-09T14:05:18.000Z</time>
      </trkpt>
      <trkpt lat="43.60105" lon="3.73947">
        <ele>117.27235772358</ele>
        <time>2020-10-09T14:05:19.000Z</time>
      </trkpt>
      <trkpt lat="43.60102" lon="3.73949">
        <ele>117.17073170732</ele>
        <time>2020-10-09T14:05:20.000Z</time>
      </trkpt>
      <trkpt lat="43.60098" lon="3.73951">
        <ele>117.06910569106</ele>
        <time>2020-10-09T14:05:21.000Z</time>
      </trkpt>
      <trkpt lat="43.60095" lon="3.73952">
        <ele>117.032</ele>
        <time>2020-10-09T14:05:22.000Z</time>
      </trkpt>
      <trkpt lat="43.60092" lon="3.73954">
        <ele>117.132</ele>
        <time>2020-10-09T14:05:23.000Z</time>
      </trkpt>
      <trkpt lat="43.60089" lon="3.73955">
        <ele>117.232</ele>
        <time>2020-10-09T14:05:24.000Z</time>
      </trkpt>
      <trkpt lat="43.60085" lon="3.73955">
        <ele>117.332</ele>
        <time>2020-10-09T14:05:25.000Z</time>
      </trkpt>
      <trkpt lat="43.60082" lon="3.73954">
        <ele>117.432</ele>
        <time>2020-10-09T14:05:26.000Z</time>
      </trkpt>
      <trkpt lat="43.60079" lon="3.73952">
        <ele>117.532</ele>
        <time>2020-10-09T14:05:27.000Z</time>
      </trkpt>
      <trkpt lat="43.60076" lon="3.73952">
        <ele>117.632</ele>
        <time>2020-10-09T14:05:28.000Z</time>
      </trkpt>
      <trkpt lat="43.60074" lon="3.73952">
        <ele>117.732</ele>
        <time>2020-10-09T14:05:29.000Z</time>
      </trkpt>
      <trkpt lat="43.60071" lon="3.73953">
        <ele>117.832</ele>
        <time>2020-10-09T14:05:30.000Z</time>
      </trkpt>
      <trkpt lat="43.60068" lon="3.73954">
        <ele>117.932</ele>
        <time>2020-10-09T14:05:31.000Z</time>
      </trkpt>
      <trkpt lat="43.60065" lon="3.73956">
        <ele>118.03137254902</ele>
        <time>2020-10-09T14:05:32.000Z</time>
      </trkpt>
      <trkpt lat="43.60063" lon="3.73959">
        <ele>118.12941176471</ele>
        <time>2020-10-09T14:05:33.000Z</time>
      </trkpt>
      <trkpt lat="43.6006" lon="3.73962">
        <ele>118.22745098039</ele>
        <time>2020-10-09T14:05:34.000Z</time>
      </trkpt>
      <trkpt lat="43.60059" lon="3.73966">
        <ele>118.32549019608</ele>
        <time>2020-10-09T14:05:35.000Z</time>
      </trkpt>
      <trkpt lat="43.60057" lon="3.7397">
        <ele>118.42352941177</ele>
        <time>2020-10-09T14:05:36.000Z</time>
      </trkpt>
      <trkpt lat="43.60055" lon="3.73974">
        <ele>118.52156862745</ele>
        <time>2020-10-09T14:05:37.000Z</time>
      </trkpt>
      <trkpt lat="43.60053" lon="3.73978">
        <ele>118.61960784314</ele>
        <time>2020-10-09T14:05:38.000Z</time>
      </trkpt>
      <trkpt lat="43.6005" lon="3.73981">
        <ele>118.71764705882</ele>
        <time>2020-10-09T14:05:39.000Z</time>
      </trkpt>
      <trkpt lat="43.60048" lon="3.73984">
        <ele>118.81568627451</ele>
        <time>2020-10-09T14:05:40.000Z</time>
      </trkpt>
      <trkpt lat="43.60045" lon="3.73987">
        <ele>118.9137254902</ele>
        <time>2020-10-09T14:05:41.000Z</time>
      </trkpt>
      <trkpt lat="43.60042" lon="3.7399">
        <ele>119.02448979592</ele>
        <time>2020-10-09T14:05:42.000Z</time>
      </trkpt>
      <trkpt lat="43.6004" lon="3.73993">
        <ele>119.22857142857</ele>
        <time>2020-10-09T14:05:43.000Z</time>
      </trkpt>
      <trkpt lat="43.60037" lon="3.73996">
        <ele>119.43265306122</ele>
        <time>2020-10-09T14:05:44.000Z</time>
      </trkpt>
      <trkpt lat="43.60035" lon="3.73999">
        <ele>119.63673469388</ele>
        <time>2020-10-09T14:05:45.000Z</time>
      </trkpt>
      <trkpt lat="43.60033" lon="3.74002">
        <ele>119.84081632653</ele>
        <time>2020-10-09T14:05:46.000Z</time>
      </trkpt>
      <trkpt lat="43.60031" lon="3.74005">
        <ele>120.04489795918</ele>
        <time>2020-10-09T14:05:47.000Z</time>
      </trkpt>
      <trkpt lat="43.60029" lon="3.74009">
        <ele>120.24897959184</ele>
        <time>2020-10-09T14:05:48.000Z</time>
      </trkpt>
      <trkpt lat="43.60027" lon="3.74013">
        <ele>120.45306122449</ele>
        <time>2020-10-09T14:05:49.000Z</time>
      </trkpt>
      <trkpt lat="43.60025" lon="3.74016">
        <ele>120.65714285714</ele>
        <time>2020-10-09T14:05:50.000Z</time>
      </trkpt>
      <trkpt lat="43.60024" lon="3.7402">
        <ele>120.8612244898</ele>
        <time>2020-10-09T14:05:51.000Z</time>
      </trkpt>
      <trkpt lat="43.60022" lon="3.74024">
        <ele>121.03103781772</ele>
        <time>2020-10-09T14:05:52.000Z</time>
      </trkpt>
      <trkpt lat="43.6002" lon="3.74027">
        <ele>121.12803099809</ele>
        <time>2020-10-09T14:05:53.000Z</time>
      </trkpt>
      <trkpt lat="43.60017" lon="3.74029">
        <ele>121.22502417846</ele>
        <time>2020-10-09T14:05:54.000Z</time>
      </trkpt>
      <trkpt lat="43.60014" lon="3.7403">
        <ele>121.32201735883</ele>
        <time>2020-10-09T14:05:55.000Z</time>
      </trkpt>
      <trkpt lat="43.60011" lon="3.74029">
        <ele>121.4190105392</ele>
        <time>2020-10-09T14:05:56.000Z</time>
      </trkpt>
      <trkpt lat="43.60008" lon="3.74027">
        <ele>121.51600371957</ele>
        <time>2020-10-09T14:05:57.000Z</time>
      </trkpt>
      <trkpt lat="43.60005" lon="3.74025">
        <ele>121.61299689994</ele>
        <time>2020-10-09T14:05:58.000Z</time>
      </trkpt>
      <trkpt lat="43.60002" lon="3.74023">
        <ele>121.70999008031</ele>
        <time>2020-10-09T14:05:59.000Z</time>
      </trkpt>
      <trkpt lat="43.59999" lon="3.74021">
        <ele>121.80698326068</ele>
        <time>2020-10-09T14:06:00.000Z</time>
      </trkpt>
      <trkpt lat="43.59996" lon="3.74019">
        <ele>121.90397644105</ele>
        <time>2020-10-09T14:06:01.000Z</time>
      </trkpt>
      <trkpt lat="43.59993" lon="3.74017">
        <ele>122.00103166185</ele>
        <time>2020-10-09T14:06:02.000Z</time>
      </trkpt>
      <trkpt lat="43.5999" lon="3.74015">
        <ele>122.10423087033</ele>
        <time>2020-10-09T14:06:03.000Z</time>
      </trkpt>
      <trkpt lat="43.59987" lon="3.74013">
        <ele>122.20743007882</ele>
        <time>2020-10-09T14:06:04.000Z</time>
      </trkpt>
      <trkpt lat="43.59984" lon="3.74011">
        <ele>122.31062928731</ele>
        <time>2020-10-09T14:06:05.000Z</time>
      </trkpt>
      <trkpt lat="43.59981" lon="3.74008">
        <ele>122.4138284958</ele>
        <time>2020-10-09T14:06:06.000Z</time>
      </trkpt>
      <trkpt lat="43.59978" lon="3.74005">
        <ele>122.51702770428</ele>
        <time>2020-10-09T14:06:07.000Z</time>
      </trkpt>
      <trkpt lat="43.59975" lon="3.74003">
        <ele>122.62022691277</ele>
        <time>2020-10-09T14:06:08.000Z</time>
      </trkpt>
      <trkpt lat="43.59973" lon="3.74">
        <ele>122.72342612126</ele>
        <time>2020-10-09T14:06:09.000Z</time>
      </trkpt>
      <trkpt lat="43.5997" lon="3.73998">
        <ele>122.82662532974</ele>
        <time>2020-10-09T14:06:10.000Z</time>
      </trkpt>
      <trkpt lat="43.59967" lon="3.73998">
        <ele>122.92982453823</ele>
        <time>2020-10-09T14:06:11.000Z</time>
      </trkpt>
      <trkpt lat="43.59964" lon="3.73997">
        <ele>123.03103781772</ele>
        <time>2020-10-09T14:06:12.000Z</time>
      </trkpt>
      <trkpt lat="43.59961" lon="3.73998">
        <ele>123.12803099809</ele>
        <time>2020-10-09T14:06:13.000Z</time>
      </trkpt>
      <trkpt lat="43.59959" lon="3.73998">
        <ele>123.22502417846</ele>
        <time>2020-10-09T14:06:14.000Z</time>
      </trkpt>
      <trkpt lat="43.59957" lon="3.74">
        <ele>123.32201735883</ele>
        <time>2020-10-09T14:06:15.000Z</time>
      </trkpt>
      <trkpt lat="43.59955" lon="3.74002">
        <ele>123.4190105392</ele>
        <time>2020-10-09T14:06:16.000Z</time>
      </trkpt>
      <trkpt lat="43.59954" lon="3.74005">
        <ele>123.51600371957</ele>
        <time>2020-10-09T14:06:17.000Z</time>
      </trkpt>
      <trkpt lat="43.59952" lon="3.74007">
        <ele>123.61299689994</ele>
        <time>2020-10-09T14:06:18.000Z</time>
      </trkpt>
      <trkpt lat="43.5995" lon="3.74009">
        <ele>123.70999008031</ele>
        <time>2020-10-09T14:06:19.000Z</time>
      </trkpt>
      <trkpt lat="43.59948" lon="3.74012">
        <ele>123.80698326068</ele>
        <time>2020-10-09T14:06:20.000Z</time>
      </trkpt>
      <trkpt lat="43.59947" lon="3.74014">
        <ele>123.90397644105</ele>
        <time>2020-10-09T14:06:21.000Z</time>
      </trkpt>
      <trkpt lat="43.59945" lon="3.74016">
        <ele>124.00103166185</ele>
        <time>2020-10-09T14:06:22.000Z</time>
      </trkpt>
      <trkpt lat="43.59943" lon="3.74018">
        <ele>124.10423087033</ele>
        <time>2020-10-09T14:06:23.000Z</time>
      </trkpt>
      <trkpt lat="43.59941" lon="3.7402">
        <ele>124.20743007882</ele>
        <time>2020-10-09T14:06:24.000Z</time>
      </trkpt>
      <trkpt lat="43.59939" lon="3.74021">
        <ele>124.31062928731</ele>
        <time>2020-10-09T14:06:25.000Z</time>
      </trkpt>
      <trkpt lat="43.59937" lon="3.74022">
        <ele>124.4138284958</ele>
        <time>2020-10-09T14:06:26.000Z</time>
      </trkpt>
      <trkpt lat="43.59934" lon="3.74023">
        <ele>124.51702770428</ele>
        <time>2020-10-09T14:06:27.000Z</time>
      </trkpt>
      <trkpt lat="43.59932" lon="3.74024">
        <ele>124.62022691277</ele>
        <time>2020-10-09T14:06:28.000Z</time>
      </trkpt>
      <trkpt lat="43.5993" lon="3.74024">
        <ele>124.72342612126</ele>
        <time>2020-10-09T14:06:29.000Z</time>
      </trkpt>
      <trkpt lat="43.59928" lon="3.74025">
        <ele>124.82662532974</ele>
        <time>2020-10-09T14:06:30.000Z</time>
      </trkpt>
      <trkpt lat="43.59926" lon="3.74026">
        <ele>124.92982453823</ele>
        <time>2020-10-09T14:06:31.000Z</time>
      </trkpt>
      <trkpt lat="43.59924" lon="3.74026">
        <ele>125.06026361717</ele>
        <time>2020-10-09T14:06:32.000Z</time>
      </trkpt>
      <trkpt lat="43.59921" lon="3.74027">
        <ele>125.24858742081</ele>
        <time>2020-10-09T14:06:33.000Z</time>
      </trkpt>
      <trkpt lat="43.59919" lon="3.74027">
        <ele>125.43691122446</ele>
        <time>2020-10-09T14:06:34.000Z</time>
      </trkpt>
      <trkpt lat="43.59917" lon="3.74027">
        <ele>125.62523502811</ele>
        <time>2020-10-09T14:06:35.000Z</time>
      </trkpt>
      <trkpt lat="43.59916" lon="3.74028">
        <ele>125.81355883175</ele>
        <time>2020-10-09T14:06:36.000Z</time>
      </trkpt>
      <trkpt lat="43.59914" lon="3.74028">
        <ele>126.0018826354</ele>
        <time>2020-10-09T14:06:37.000Z</time>
      </trkpt>
      <trkpt lat="43.59912" lon="3.74029">
        <ele>126.19020643905</ele>
        <time>2020-10-09T14:06:38.000Z</time>
      </trkpt>
      <trkpt lat="43.5991" lon="3.7403">
        <ele>126.37853024269</ele>
        <time>2020-10-09T14:06:39.000Z</time>
      </trkpt>
      <trkpt lat="43.59908" lon="3.74031">
        <ele>126.56685404634</ele>
        <time>2020-10-09T14:06:40.000Z</time>
      </trkpt>
      <trkpt lat="43.59905" lon="3.74032">
        <ele>126.75517784999</ele>
        <time>2020-10-09T14:06:41.000Z</time>
      </trkpt>
      <trkpt lat="43.59903" lon="3.74033">
        <ele>126.94350165363</ele>
        <time>2020-10-09T14:06:42.000Z</time>
      </trkpt>
      <trkpt lat="43.59901" lon="3.74033">
        <ele>127.14752241012</ele>
        <time>2020-10-09T14:06:43.000Z</time>
      </trkpt>
      <trkpt lat="43.59899" lon="3.74033">
        <ele>127.35827063714</ele>
        <time>2020-10-09T14:06:44.000Z</time>
      </trkpt>
      <trkpt lat="43.59897" lon="3.74032">
        <ele>127.56901886416</ele>
        <time>2020-10-09T14:06:45.000Z</time>
      </trkpt>
      <trkpt lat="43.59895" lon="3.74032">
        <ele>127.77976709118</ele>
        <time>2020-10-09T14:06:46.000Z</time>
      </trkpt>
      <trkpt lat="43.59892" lon="3.74031">
        <ele>127.99051531819</ele>
        <time>2020-10-09T14:06:47.000Z</time>
      </trkpt>
      <trkpt lat="43.5989" lon="3.7403">
        <ele>128.20126354521</ele>
        <time>2020-10-09T14:06:48.000Z</time>
      </trkpt>
      <trkpt lat="43.59888" lon="3.7403">
        <ele>128.41201177223</ele>
        <time>2020-10-09T14:06:49.000Z</time>
      </trkpt>
      <trkpt lat="43.59886" lon="3.74029">
        <ele>128.62275999925</ele>
        <time>2020-10-09T14:06:50.000Z</time>
      </trkpt>
      <trkpt lat="43.59884" lon="3.74029">
        <ele>128.83350822626</ele>
        <time>2020-10-09T14:06:51.000Z</time>
      </trkpt>
      <trkpt lat="43.59882" lon="3.74028">
        <ele>129</ele>
        <time>2020-10-09T14:06:52.000Z</time>
      </trkpt>
      <trkpt lat="43.59879" lon="3.74027">
        <ele>129</ele>
        <time>2020-10-09T14:06:53.000Z</time>
      </trkpt>
      <trkpt lat="43.59878" lon="3.74027">
        <ele>129</ele>
        <time>2020-10-09T14:06:54.000Z</time>
      </trkpt>
      <trkpt lat="43.59875" lon="3.74026">
        <ele>129</ele>
        <time>2020-10-09T14:06:55.000Z</time>
      </trkpt>
      <trkpt lat="43.59873" lon="3.74025">
        <ele>129</ele>
        <time>2020-10-09T14:06:56.000Z</time>
      </trkpt>
      <trkpt lat="43.59871" lon="3.74025">
        <ele>129</ele>
        <time>2020-10-09T14:06:57.000Z</time>
      </trkpt>
      <trkpt lat="43.59869" lon="3.74024">
        <ele>129</ele>
        <time>2020-10-09T14:06:58.000Z</time>
      </trkpt>
      <trkpt lat="43.59867" lon="3.74024">
        <ele>129</ele>
        <time>2020-10-09T14:06:59.000Z</time>
      </trkpt>
      <trkpt lat="43.59865" lon="3.74024">
        <ele>129</ele>
        <time>2020-10-09T14:07:00.000Z</time>
      </trkpt>
      <trkpt lat="43.59863" lon="3.74024">
        <ele>129</ele>
        <time>2020-10-09T14:07:01.000Z</time>
      </trkpt>
      <trkpt lat="43.59861" lon="3.74023">
        <ele>129.0020633237</ele>
        <time>2020-10-09T14:07:02.000Z</time>
      </trkpt>
      <trkpt lat="43.59859" lon="3.74023">
        <ele>129.20846174067</ele>
        <time>2020-10-09T14:07:03.000Z</time>
      </trkpt>
      <trkpt lat="43.59856" lon="3.74023">
        <ele>129.41486015764</ele>
        <time>2020-10-09T14:07:04.000Z</time>
      </trkpt>
      <trkpt lat="43.59854" lon="3.74022">
        <ele>129.62125857462</ele>
        <time>2020-10-09T14:07:05.000Z</time>
      </trkpt>
      <trkpt lat="43.59852" lon="3.74022">
        <ele>129.82765699159</ele>
        <time>2020-10-09T14:07:06.000Z</time>
      </trkpt>
      <trkpt lat="43.5985" lon="3.74021">
        <ele>130.03405540856</ele>
        <time>2020-10-09T14:07:07.000Z</time>
      </trkpt>
      <trkpt lat="43.59848" lon="3.74021">
        <ele>130.24045382554</ele>
        <time>2020-10-09T14:07:08.000Z</time>
      </trkpt>
      <trkpt lat="43.59846" lon="3.7402">
        <ele>130.44685224251</ele>
        <time>2020-10-09T14:07:09.000Z</time>
      </trkpt>
      <trkpt lat="43.59843" lon="3.7402">
        <ele>130.65325065948</ele>
        <time>2020-10-09T14:07:10.000Z</time>
      </trkpt>
      <trkpt lat="43.59841" lon="3.7402">
        <ele>130.85964907646</ele>
        <time>2020-10-09T14:07:11.000Z</time>
      </trkpt>
      <trkpt lat="43.59839" lon="3.7402">
        <ele>131.06387229629</ele>
        <time>2020-10-09T14:07:12.000Z</time>
      </trkpt>
      <trkpt lat="43.59837" lon="3.7402">
        <ele>131.26347322218</ele>
        <time>2020-10-09T14:07:13.000Z</time>
      </trkpt>
      <trkpt lat="43.59835" lon="3.7402">
        <ele>131.46307414807</ele>
        <time>2020-10-09T14:07:14.000Z</time>
      </trkpt>
      <trkpt lat="43.59833" lon="3.74021">
        <ele>131.66267507396</ele>
        <time>2020-10-09T14:07:15.000Z</time>
      </trkpt>
      <trkpt lat="43.59831" lon="3.74021">
        <ele>131.86227599986</ele>
        <time>2020-10-09T14:07:16.000Z</time>
      </trkpt>
      <trkpt lat="43.59829" lon="3.7402">
        <ele>132.06187692575</ele>
        <time>2020-10-09T14:07:17.000Z</time>
      </trkpt>
      <trkpt lat="43.59827" lon="3.74019">
        <ele>132.26147785164</ele>
        <time>2020-10-09T14:07:18.000Z</time>
      </trkpt>
      <trkpt lat="43.59825" lon="3.74019">
        <ele>132.46107877753</ele>
        <time>2020-10-09T14:07:19.000Z</time>
      </trkpt>
      <trkpt lat="43.59823" lon="3.74018">
        <ele>132.66067970343</ele>
        <time>2020-10-09T14:07:20.000Z</time>
      </trkpt>
      <trkpt lat="43.59821" lon="3.74018">
        <ele>132.86028062932</ele>
        <time>2020-10-09T14:07:21.000Z</time>
      </trkpt>
      <trkpt lat="43.59819" lon="3.74018">
        <ele>133.03006074225</ele>
        <time>2020-10-09T14:07:22.000Z</time>
      </trkpt>
      <trkpt lat="43.59817" lon="3.74017">
        <ele>133.13026107879</ele>
        <time>2020-10-09T14:07:23.000Z</time>
      </trkpt>
      <trkpt lat="43.59815" lon="3.74017">
        <ele>133.23046141533</ele>
        <time>2020-10-09T14:07:24.000Z</time>
      </trkpt>
      <trkpt lat="43.59813" lon="3.74017">
        <ele>133.33066175188</ele>
        <time>2020-10-09T14:07:25.000Z</time>
      </trkpt>
      <trkpt lat="43.5981" lon="3.74016">
        <ele>133.53106242497</ele>
        <time>2020-10-09T14:07:27.000Z</time>
      </trkpt>
      <trkpt lat="43.59808" lon="3.74016">
        <ele>133.63126276151</ele>
        <time>2020-10-09T14:07:28.000Z</time>
      </trkpt>
      <trkpt lat="43.59806" lon="3.74016">
        <ele>133.73146309806</ele>
        <time>2020-10-09T14:07:29.000Z</time>
      </trkpt>
      <trkpt lat="43.59804" lon="3.74015">
        <ele>133.8316634346</ele>
        <time>2020-10-09T14:07:30.000Z</time>
      </trkpt>
      <trkpt lat="43.59802" lon="3.74014">
        <ele>133.93186377115</ele>
        <time>2020-10-09T14:07:31.000Z</time>
      </trkpt>
      <trkpt lat="43.59801" lon="3.74012">
        <ele>134.096</ele>
        <time>2020-10-09T14:07:32.000Z</time>
      </trkpt>
      <trkpt lat="43.59798" lon="3.7401">
        <ele>134.696</ele>
        <time>2020-10-09T14:07:34.000Z</time>
      </trkpt>
      <trkpt lat="43.59796" lon="3.74009">
        <ele>134.996</ele>
        <time>2020-10-09T14:07:35.000Z</time>
      </trkpt>
      <trkpt lat="43.59793" lon="3.74006">
        <ele>135.596</ele>
        <time>2020-10-09T14:07:37.000Z</time>
      </trkpt>
      <trkpt lat="43.59791" lon="3.74003">
        <ele>136.196</ele>
        <time>2020-10-09T14:07:39.000Z</time>
      </trkpt>
      <trkpt lat="43.59788" lon="3.74">
        <ele>136.796</ele>
        <time>2020-10-09T14:07:41.000Z</time>
      </trkpt>
      <trkpt lat="43.59785" lon="3.73997">
        <ele>137.264</ele>
        <time>2020-10-09T14:07:43.000Z</time>
      </trkpt>
      <trkpt lat="43.59782" lon="3.73995">
        <ele>137.664</ele>
        <time>2020-10-09T14:07:45.000Z</time>
      </trkpt>
      <trkpt lat="43.5978" lon="3.73995">
        <ele>137.864</ele>
        <time>2020-10-09T14:07:46.000Z</time>
      </trkpt>
      <trkpt lat="43.59777" lon="3.73992">
        <ele>138.264</ele>
        <time>2020-10-09T14:07:48.000Z</time>
      </trkpt>
      <trkpt lat="43.59775" lon="3.73989">
        <ele>138.664</ele>
        <time>2020-10-09T14:07:50.000Z</time>
      </trkpt>
      <trkpt lat="43.59772" lon="3.73987">
        <ele>139.06286840888</ele>
        <time>2020-10-09T14:07:52.000Z</time>
      </trkpt>
      <trkpt lat="43.5977" lon="3.73985">
        <ele>139.25933218661</ele>
        <time>2020-10-09T14:07:53.000Z</time>
      </trkpt>
      <trkpt lat="43.59769" lon="3.73984">
        <ele>139.45579596435</ele>
        <time>2020-10-09T14:07:54.000Z</time>
      </trkpt>
      <trkpt lat="43.59767" lon="3.73982">
        <ele>139.65225974209</ele>
        <time>2020-10-09T14:07:55.000Z</time>
      </trkpt>
      <trkpt lat="43.59765" lon="3.7398">
        <ele>139.84872351983</ele>
        <time>2020-10-09T14:07:56.000Z</time>
      </trkpt>
      <trkpt lat="43.59764" lon="3.73978">
        <ele>140.04518729756</ele>
        <time>2020-10-09T14:07:57.000Z</time>
      </trkpt>
      <trkpt lat="43.59762" lon="3.73975">
        <ele>140.2416510753</ele>
        <time>2020-10-09T14:07:58.000Z</time>
      </trkpt>
      <trkpt lat="43.59761" lon="3.73972">
        <ele>140.43811485304</ele>
        <time>2020-10-09T14:07:59.000Z</time>
      </trkpt>
      <trkpt lat="43.5976" lon="3.73968">
        <ele>140.63457863078</ele>
        <time>2020-10-09T14:08:00.000Z</time>
      </trkpt>
      <trkpt lat="43.59758" lon="3.73965">
        <ele>140.83104240851</ele>
        <time>2020-10-09T14:08:01.000Z</time>
      </trkpt>
      <trkpt lat="43.59757" lon="3.7396">
        <ele>141</ele>
        <time>2020-10-09T14:08:02.000Z</time>
      </trkpt>
      <trkpt lat="43.59756" lon="3.73955">
        <ele>141</ele>
        <time>2020-10-09T14:08:03.000Z</time>
      </trkpt>
      <trkpt lat="43.59754" lon="3.73949">
        <ele>141</ele>
        <time>2020-10-09T14:08:04.000Z</time>
      </trkpt>
      <trkpt lat="43.59752" lon="3.73942">
        <ele>141</ele>
        <time>2020-10-09T14:08:05.000Z</time>
      </trkpt>
      <trkpt lat="43.59751" lon="3.73935">
        <ele>141</ele>
        <time>2020-10-09T14:08:06.000Z</time>
      </trkpt>
      <trkpt lat="43.59749" lon="3.73928">
        <ele>141</ele>
        <time>2020-10-09T14:08:07.000Z</time>
      </trkpt>
      <trkpt lat="43.59747" lon="3.73922">
        <ele>141</ele>
        <time>2020-10-09T14:08:08.000Z</time>
      </trkpt>
      <trkpt lat="43.59745" lon="3.73915">
        <ele>141</ele>
        <time>2020-10-09T14:08:09.000Z</time>
      </trkpt>
      <trkpt lat="43.59742" lon="3.7391">
        <ele>141</ele>
        <time>2020-10-09T14:08:10.000Z</time>
      </trkpt>
      <trkpt lat="43.5974" lon="3.73905">
        <ele>141</ele>
        <time>2020-10-09T14:08:11.000Z</time>
      </trkpt>
      <trkpt lat="43.59737" lon="3.739">
        <ele>141.03196804219</ele>
        <time>2020-10-09T14:08:12.000Z</time>
      </trkpt>
      <trkpt lat="43.59734" lon="3.73896">
        <ele>141.13186817402</ele>
        <time>2020-10-09T14:08:13.000Z</time>
      </trkpt>
      <trkpt lat="43.59731" lon="3.73892">
        <ele>141.23176830586</ele>
        <time>2020-10-09T14:08:14.000Z</time>
      </trkpt>
      <trkpt lat="43.59728" lon="3.73889">
        <ele>141.3316684377</ele>
        <time>2020-10-09T14:08:15.000Z</time>
      </trkpt>
      <trkpt lat="43.59725" lon="3.73887">
        <ele>141.43156856953</ele>
        <time>2020-10-09T14:08:16.000Z</time>
      </trkpt>
      <trkpt lat="43.59721" lon="3.73885">
        <ele>141.53146870137</ele>
        <time>2020-10-09T14:08:17.000Z</time>
      </trkpt>
      <trkpt lat="43.59717" lon="3.73883">
        <ele>141.6313688332</ele>
        <time>2020-10-09T14:08:18.000Z</time>
      </trkpt>
      <trkpt lat="43.59713" lon="3.73882">
        <ele>141.73126896504</ele>
        <time>2020-10-09T14:08:19.000Z</time>
      </trkpt>
      <trkpt lat="43.5971" lon="3.7388">
        <ele>141.83116909688</ele>
        <time>2020-10-09T14:08:20.000Z</time>
      </trkpt>
      <trkpt lat="43.59706" lon="3.7388">
        <ele>141.93106922871</ele>
        <time>2020-10-09T14:08:21.000Z</time>
      </trkpt>
      <trkpt lat="43.59702" lon="3.7388">
        <ele>142.06169212017</ele>
        <time>2020-10-09T14:08:22.000Z</time>
      </trkpt>
      <trkpt lat="43.59698" lon="3.73881">
        <ele>142.26069690521</ele>
        <time>2020-10-09T14:08:23.000Z</time>
      </trkpt>
      <trkpt lat="43.59694" lon="3.73882">
        <ele>142.45970169023</ele>
        <time>2020-10-09T14:08:24.000Z</time>
      </trkpt>
      <trkpt lat="43.5969" lon="3.73883">
        <ele>142.65870647527</ele>
        <time>2020-10-09T14:08:25.000Z</time>
      </trkpt>
      <trkpt lat="43.59686" lon="3.73885">
        <ele>142.8577112603</ele>
        <time>2020-10-09T14:08:26.000Z</time>
      </trkpt>
      <trkpt lat="43.59682" lon="3.73887">
        <ele>143.05671604533</ele>
        <time>2020-10-09T14:08:27.000Z</time>
      </trkpt>
      <trkpt lat="43.59679" lon="3.73888">
        <ele>143.25572083036</ele>
        <time>2020-10-09T14:08:28.000Z</time>
      </trkpt>
      <trkpt lat="43.59675" lon="3.73889">
        <ele>143.45472561539</ele>
        <time>2020-10-09T14:08:29.000Z</time>
      </trkpt>
      <trkpt lat="43.59671" lon="3.7389">
        <ele>143.65373040042</ele>
        <time>2020-10-09T14:08:30.000Z</time>
      </trkpt>
      <trkpt lat="43.59668" lon="3.73891">
        <ele>143.85273518545</ele>
        <time>2020-10-09T14:08:31.000Z</time>
      </trkpt>
      <trkpt lat="43.59664" lon="3.73893">
        <ele>144.02615631463</ele>
        <time>2020-10-09T14:08:32.000Z</time>
      </trkpt>
      <trkpt lat="43.59661" lon="3.73894">
        <ele>144.12676000113</ele>
        <time>2020-10-09T14:08:33.000Z</time>
      </trkpt>
      <trkpt lat="43.59657" lon="3.73895">
        <ele>144.22736368764</ele>
        <time>2020-10-09T14:08:34.000Z</time>
      </trkpt>
      <trkpt lat="43.59653" lon="3.73897">
        <ele>144.32796737414</ele>
        <time>2020-10-09T14:08:35.000Z</time>
      </trkpt>
      <trkpt lat="43.5965" lon="3.73898">
        <ele>144.42857106065</ele>
        <time>2020-10-09T14:08:36.000Z</time>
      </trkpt>
      <trkpt lat="43.59646" lon="3.73899">
        <ele>144.52917474715</ele>
        <time>2020-10-09T14:08:37.000Z</time>
      </trkpt>
      <trkpt lat="43.59643" lon="3.739">
        <ele>144.62977843366</ele>
        <time>2020-10-09T14:08:38.000Z</time>
      </trkpt>
      <trkpt lat="43.5964" lon="3.73901">
        <ele>144.73038212017</ele>
        <time>2020-10-09T14:08:39.000Z</time>
      </trkpt>
      <trkpt lat="43.59637" lon="3.73903">
        <ele>144.83098580667</ele>
        <time>2020-10-09T14:08:40.000Z</time>
      </trkpt>
      <trkpt lat="43.59633" lon="3.73904">
        <ele>144.93158949318</ele>
        <time>2020-10-09T14:08:41.000Z</time>
      </trkpt>
      <trkpt lat="43.5963" lon="3.73905">
        <ele>145.064</ele>
        <time>2020-10-09T14:08:42.000Z</time>
      </trkpt>
      <trkpt lat="43.59626" lon="3.73906">
        <ele>145.264</ele>
        <time>2020-10-09T14:08:43.000Z</time>
      </trkpt>
      <trkpt lat="43.59623" lon="3.73907">
        <ele>145.464</ele>
        <time>2020-10-09T14:08:44.000Z</time>
      </trkpt>
      <trkpt lat="43.5962" lon="3.73908">
        <ele>145.664</ele>
        <time>2020-10-09T14:08:45.000Z</time>
      </trkpt>
      <trkpt lat="43.59617" lon="3.73909">
        <ele>145.864</ele>
        <time>2020-10-09T14:08:46.000Z</time>
      </trkpt>
      <trkpt lat="43.59614" lon="3.7391">
        <ele>146.064</ele>
        <time>2020-10-09T14:08:47.000Z</time>
      </trkpt>
      <trkpt lat="43.5961" lon="3.73911">
        <ele>146.264</ele>
        <time>2020-10-09T14:08:48.000Z</time>
      </trkpt>
      <trkpt lat="43.59607" lon="3.73912">
        <ele>146.464</ele>
        <time>2020-10-09T14:08:49.000Z</time>
      </trkpt>
      <trkpt lat="43.59604" lon="3.73913">
        <ele>146.664</ele>
        <time>2020-10-09T14:08:50.000Z</time>
      </trkpt>
      <trkpt lat="43.596" lon="3.73914">
        <ele>146.864</ele>
        <time>2020-10-09T14:08:51.000Z</time>
      </trkpt>
      <trkpt lat="43.59597" lon="3.73915">
        <ele>147</ele>
        <time>2020-10-09T14:08:52.000Z</time>
      </trkpt>
      <trkpt lat="43.59594" lon="3.73916">
        <ele>147</ele>
        <time>2020-10-09T14:08:53.000Z</time>
      </trkpt>
      <trkpt lat="43.59591" lon="3.73918">
        <ele>147</ele>
        <time>2020-10-09T14:08:54.000Z</time>
      </trkpt>
      <trkpt lat="43.59589" lon="3.73919">
        <ele>147</ele>
        <time>2020-10-09T14:08:55.000Z</time>
      </trkpt>
      <trkpt lat="43.59586" lon="3.7392">
        <ele>147</ele>
        <time>2020-10-09T14:08:56.000Z</time>
      </trkpt>
      <trkpt lat="43.59583" lon="3.73922">
        <ele>147</ele>
        <time>2020-10-09T14:08:57.000Z</time>
      </trkpt>
      <trkpt lat="43.5958" lon="3.73924">
        <ele>147</ele>
        <time>2020-10-09T14:08:58.000Z</time>
      </trkpt>
      <trkpt lat="43.59575" lon="3.73926">
        <ele>147</ele>
        <time>2020-10-09T14:08:59.000Z</time>
      </trkpt>
      <trkpt lat="43.59571" lon="3.7393">
        <ele>147</ele>
        <time>2020-10-09T14:09:00.000Z</time>
      </trkpt>
      <trkpt lat="43.59566" lon="3.73933">
        <ele>147</ele>
        <time>2020-10-09T14:09:01.000Z</time>
      </trkpt>
      <trkpt lat="43.59561" lon="3.73938">
        <ele>147</ele>
        <time>2020-10-09T14:09:02.000Z</time>
      </trkpt>
      <trkpt lat="43.59555" lon="3.73945">
        <ele>146.74945745178</ele>
        <time>2020-10-09T14:09:03.000Z</time>
      </trkpt>
      <trkpt lat="43.59548" lon="3.73949">
        <ele>146.31749230757</ele>
        <time>2020-10-09T14:09:04.000Z</time>
      </trkpt>
      <trkpt lat="43.5954" lon="3.73952">
        <ele>145.88552716335</ele>
        <time>2020-10-09T14:09:05.000Z</time>
      </trkpt>
      <trkpt lat="43.59532" lon="3.73952">
        <ele>145.45356201914</ele>
        <time>2020-10-09T14:09:06.000Z</time>
      </trkpt>
      <trkpt lat="43.59523" lon="3.73948">
        <ele>145.02159687492</ele>
        <time>2020-10-09T14:09:07.000Z</time>
      </trkpt>
      <trkpt lat="43.59514" lon="3.73942">
        <ele>144.58963173071</ele>
        <time>2020-10-09T14:09:08.000Z</time>
      </trkpt>
      <trkpt lat="43.59506" lon="3.73936">
        <ele>144.15766658649</ele>
        <time>2020-10-09T14:09:09.000Z</time>
      </trkpt>
      <trkpt lat="43.59497" lon="3.7393">
        <ele>143.72570144228</ele>
        <time>2020-10-09T14:09:10.000Z</time>
      </trkpt>
      <trkpt lat="43.59489" lon="3.73926">
        <ele>143.29373629807</ele>
        <time>2020-10-09T14:09:11.000Z</time>
      </trkpt>
      <trkpt lat="43.5948" lon="3.73924">
        <ele>142.968</ele>
        <time>2020-10-09T14:09:12.000Z</time>
      </trkpt>
      <trkpt lat="43.59472" lon="3.73924">
        <ele>142.868</ele>
        <time>2020-10-09T14:09:13.000Z</time>
      </trkpt>
      <trkpt lat="43.59464" lon="3.73924">
        <ele>142.768</ele>
        <time>2020-10-09T14:09:14.000Z</time>
      </trkpt>
      <trkpt lat="43.59457" lon="3.73927">
        <ele>142.668</ele>
        <time>2020-10-09T14:09:15.000Z</time>
      </trkpt>
      <trkpt lat="43.5945" lon="3.73929">
        <ele>142.568</ele>
        <time>2020-10-09T14:09:16.000Z</time>
      </trkpt>
      <trkpt lat="43.59443" lon="3.73933">
        <ele>142.468</ele>
        <time>2020-10-09T14:09:17.000Z</time>
      </trkpt>
      <trkpt lat="43.59436" lon="3.73936">
        <ele>142.368</ele>
        <time>2020-10-09T14:09:18.000Z</time>
      </trkpt>
      <trkpt lat="43.59429" lon="3.73938">
        <ele>142.268</ele>
        <time>2020-10-09T14:09:19.000Z</time>
      </trkpt>
      <trkpt lat="43.59422" lon="3.73939">
        <ele>142.168</ele>
        <time>2020-10-09T14:09:20.000Z</time>
      </trkpt>
      <trkpt lat="43.59416" lon="3.73939">
        <ele>142.068</ele>
        <time>2020-10-09T14:09:21.000Z</time>
      </trkpt>
      <trkpt lat="43.5941" lon="3.73938">
        <ele>141.96875</ele>
        <time>2020-10-09T14:09:22.000Z</time>
      </trkpt>
      <trkpt lat="43.59404" lon="3.73937">
        <ele>141.87109375</ele>
        <time>2020-10-09T14:09:23.000Z</time>
      </trkpt>
      <trkpt lat="43.59398" lon="3.73936">
        <ele>141.7734375</ele>
        <time>2020-10-09T14:09:24.000Z</time>
      </trkpt>
      <trkpt lat="43.59393" lon="3.73935">
        <ele>141.67578125</ele>
        <time>2020-10-09T14:09:25.000Z</time>
      </trkpt>
      <trkpt lat="43.59387" lon="3.73933">
        <ele>141.578125</ele>
        <time>2020-10-09T14:09:26.000Z</time>
      </trkpt>
      <trkpt lat="43.59382" lon="3.73931">
        <ele>141.48046875</ele>
        <time>2020-10-09T14:09:27.000Z</time>
      </trkpt>
      <trkpt lat="43.59377" lon="3.73929">
        <ele>141.3828125</ele>
        <time>2020-10-09T14:09:28.000Z</time>
      </trkpt>
      <trkpt lat="43.59372" lon="3.73927">
        <ele>141.28515625</ele>
        <time>2020-10-09T14:09:29.000Z</time>
      </trkpt>
      <trkpt lat="43.59367" lon="3.73925">
        <ele>141.1875</ele>
        <time>2020-10-09T14:09:30.000Z</time>
      </trkpt>
      <trkpt lat="43.59362" lon="3.73923">
        <ele>141.08984375</ele>
        <time>2020-10-09T14:09:31.000Z</time>
      </trkpt>
      <trkpt lat="43.59357" lon="3.73921">
        <ele>140.98360655738</ele>
        <time>2020-10-09T14:09:32.000Z</time>
      </trkpt>
      <trkpt lat="43.59351" lon="3.73919">
        <ele>140.77868852459</ele>
        <time>2020-10-09T14:09:33.000Z</time>
      </trkpt>
      <trkpt lat="43.59345" lon="3.73917">
        <ele>140.5737704918</ele>
        <time>2020-10-09T14:09:34.000Z</time>
      </trkpt>
      <trkpt lat="43.59339" lon="3.73915">
        <ele>140.36885245902</ele>
        <time>2020-10-09T14:09:35.000Z</time>
      </trkpt>
      <trkpt lat="43.59332" lon="3.73914">
        <ele>140.16393442623</ele>
        <time>2020-10-09T14:09:36.000Z</time>
      </trkpt>
      <trkpt lat="43.59325" lon="3.73912">
        <ele>139.95901639344</ele>
        <time>2020-10-09T14:09:37.000Z</time>
      </trkpt>
      <trkpt lat="43.59317" lon="3.73912">
        <ele>139.75409836066</ele>
        <time>2020-10-09T14:09:38.000Z</time>
      </trkpt>
      <trkpt lat="43.5931" lon="3.73911">
        <ele>139.54918032787</ele>
        <time>2020-10-09T14:09:39.000Z</time>
      </trkpt>
      <trkpt lat="43.59302" lon="3.73911">
        <ele>139.34426229508</ele>
        <time>2020-10-09T14:09:40.000Z</time>
      </trkpt>
      <trkpt lat="43.59294" lon="3.73913">
        <ele>139.13934426229</ele>
        <time>2020-10-09T14:09:41.000Z</time>
      </trkpt>
      <trkpt lat="43.59285" lon="3.73914">
        <ele>138.96887159533</ele>
        <time>2020-10-09T14:09:42.000Z</time>
      </trkpt>
      <trkpt lat="43.59277" lon="3.73916">
        <ele>138.87159533074</ele>
        <time>2020-10-09T14:09:43.000Z</time>
      </trkpt>
      <trkpt lat="43.59269" lon="3.73918">
        <ele>138.77431906615</ele>
        <time>2020-10-09T14:09:44.000Z</time>
      </trkpt>
      <trkpt lat="43.59261" lon="3.73921">
        <ele>138.67704280156</ele>
        <time>2020-10-09T14:09:45.000Z</time>
      </trkpt>
      <trkpt lat="43.59254" lon="3.73925">
        <ele>138.57976653696</ele>
        <time>2020-10-09T14:09:46.000Z</time>
      </trkpt>
      <trkpt lat="43.59246" lon="3.73929">
        <ele>138.48249027237</ele>
        <time>2020-10-09T14:09:47.000Z</time>
      </trkpt>
      <trkpt lat="43.59239" lon="3.73933">
        <ele>138.38521400778</ele>
        <time>2020-10-09T14:09:48.000Z</time>
      </trkpt>
      <trkpt lat="43.59231" lon="3.73936">
        <ele>138.28793774319</ele>
        <time>2020-10-09T14:09:49.000Z</time>
      </trkpt>
      <trkpt lat="43.59223" lon="3.73939">
        <ele>138.1906614786</ele>
        <time>2020-10-09T14:09:50.000Z</time>
      </trkpt>
      <trkpt lat="43.59216" lon="3.73942">
        <ele>138.09338521401</ele>
        <time>2020-10-09T14:09:51.000Z</time>
      </trkpt>
      <trkpt lat="43.59208" lon="3.73944">
        <ele>137.97607179228</ele>
        <time>2020-10-09T14:09:52.000Z</time>
      </trkpt>
      <trkpt lat="43.592" lon="3.73945">
        <ele>137.37786659928</ele>
        <time>2020-10-09T14:09:53.000Z</time>
      </trkpt>
      <trkpt lat="43.59191" lon="3.73946">
        <ele>136.77966140629</ele>
        <time>2020-10-09T14:09:54.000Z</time>
      </trkpt>
      <trkpt lat="43.59181" lon="3.73948">
        <ele>136.18145621329</ele>
        <time>2020-10-09T14:09:55.000Z</time>
      </trkpt>
      <trkpt lat="43.59172" lon="3.73949">
        <ele>135.5832510203</ele>
        <time>2020-10-09T14:09:56.000Z</time>
      </trkpt>
      <trkpt lat="43.59162" lon="3.73952">
        <ele>134.9850458273</ele>
        <time>2020-10-09T14:09:57.000Z</time>
      </trkpt>
      <trkpt lat="43.59153" lon="3.73956">
        <ele>134.38684063431</ele>
        <time>2020-10-09T14:09:58.000Z</time>
      </trkpt>
      <trkpt lat="43.59145" lon="3.7396">
        <ele>133.78863544131</ele>
        <time>2020-10-09T14:09:59.000Z</time>
      </trkpt>
      <trkpt lat="43.59139" lon="3.73966">
        <ele>133.19043024832</ele>
        <time>2020-10-09T14:10:00.000Z</time>
      </trkpt>
      <trkpt lat="43.59134" lon="3.73974">
        <ele>132.59222505532</ele>
        <time>2020-10-09T14:10:01.000Z</time>
      </trkpt>
      <trkpt lat="43.59129" lon="3.73979">
        <ele>131.99802239179</ele>
        <time>2020-10-09T14:10:02.000Z</time>
      </trkpt>
      <trkpt lat="43.59124" lon="3.73983">
        <ele>131.80019826725</ele>
        <time>2020-10-09T14:10:03.000Z</time>
      </trkpt>
      <trkpt lat="43.59118" lon="3.73983">
        <ele>131.60237414271</ele>
        <time>2020-10-09T14:10:04.000Z</time>
      </trkpt>
      <trkpt lat="43.59113" lon="3.7398">
        <ele>131.40455001817</ele>
        <time>2020-10-09T14:10:05.000Z</time>
      </trkpt>
      <trkpt lat="43.59108" lon="3.73977">
        <ele>131.20672589363</ele>
        <time>2020-10-09T14:10:06.000Z</time>
      </trkpt>
      <trkpt lat="43.59103" lon="3.73974">
        <ele>131.00890176909</ele>
        <time>2020-10-09T14:10:07.000Z</time>
      </trkpt>
      <trkpt lat="43.59098" lon="3.73972">
        <ele>130.81107764455</ele>
        <time>2020-10-09T14:10:08.000Z</time>
      </trkpt>
      <trkpt lat="43.59092" lon="3.73971">
        <ele>130.61325352</ele>
        <time>2020-10-09T14:10:09.000Z</time>
      </trkpt>
      <trkpt lat="43.59086" lon="3.7397">
        <ele>130.41542939546</ele>
        <time>2020-10-09T14:10:10.000Z</time>
      </trkpt>
      <trkpt lat="43.59079" lon="3.73969">
        <ele>130.21760527092</ele>
        <time>2020-10-09T14:10:11.000Z</time>
      </trkpt>
      <trkpt lat="43.59071" lon="3.73968">
        <ele>130.01978114638</ele>
        <time>2020-10-09T14:10:12.000Z</time>
      </trkpt>
      <trkpt lat="43.59063" lon="3.73968">
        <ele>129.34374533333</ele>
        <time>2020-10-09T14:10:13.000Z</time>
      </trkpt>
      <trkpt lat="43.59055" lon="3.73971">
        <ele>128.61457866667</ele>
        <time>2020-10-09T14:10:14.000Z</time>
      </trkpt>
      <trkpt lat="43.59047" lon="3.73975">
        <ele>127.885412</ele>
        <time>2020-10-09T14:10:15.000Z</time>
      </trkpt>
      <trkpt lat="43.59038" lon="3.7398">
        <ele>127.15624533333</ele>
        <time>2020-10-09T14:10:16.000Z</time>
      </trkpt>
      <trkpt lat="43.59029" lon="3.73985">
        <ele>126.42707866667</ele>
        <time>2020-10-09T14:10:17.000Z</time>
      </trkpt>
      <trkpt lat="43.5902" lon="3.73991">
        <ele>125.697912</ele>
        <time>2020-10-09T14:10:18.000Z</time>
      </trkpt>
      <trkpt lat="43.5901" lon="3.73997">
        <ele>124.96874533333</ele>
        <time>2020-10-09T14:10:19.000Z</time>
      </trkpt>
      <trkpt lat="43.59" lon="3.74004">
        <ele>124.23957866667</ele>
        <time>2020-10-09T14:10:20.000Z</time>
      </trkpt>
      <trkpt lat="43.58991" lon="3.7401">
        <ele>123.510412</ele>
        <time>2020-10-09T14:10:21.000Z</time>
      </trkpt>
      <trkpt lat="43.58982" lon="3.74016">
        <ele>122.62785465649</ele>
        <time>2020-10-09T14:10:22.000Z</time>
      </trkpt>
      <trkpt lat="43.58974" lon="3.74022">
        <ele>121.38739664122</ele>
        <time>2020-10-09T14:10:23.000Z</time>
      </trkpt>
      <trkpt lat="43.58966" lon="3.74029">
        <ele>120.14693862595</ele>
        <time>2020-10-09T14:10:24.000Z</time>
      </trkpt>
      <trkpt lat="43.58958" lon="3.74036">
        <ele>118.90648061069</ele>
        <time>2020-10-09T14:10:25.000Z</time>
      </trkpt>
      <trkpt lat="43.58952" lon="3.74045">
        <ele>117.66602259542</ele>
        <time>2020-10-09T14:10:26.000Z</time>
      </trkpt>
      <trkpt lat="43.58946" lon="3.74056">
        <ele>116.42556458015</ele>
        <time>2020-10-09T14:10:27.000Z</time>
      </trkpt>
      <trkpt lat="43.5894" lon="3.74067">
        <ele>115.18510656489</ele>
        <time>2020-10-09T14:10:28.000Z</time>
      </trkpt>
      <trkpt lat="43.58935" lon="3.74078">
        <ele>113.94464854962</ele>
        <time>2020-10-09T14:10:29.000Z</time>
      </trkpt>
      <trkpt lat="43.5893" lon="3.74089">
        <ele>112.70419053435</ele>
        <time>2020-10-09T14:10:30.000Z</time>
      </trkpt>
      <trkpt lat="43.58925" lon="3.741">
        <ele>111.46373251908</ele>
        <time>2020-10-09T14:10:31.000Z</time>
      </trkpt>
      <trkpt lat="43.5892" lon="3.7411">
        <ele>110.22327450382</ele>
        <time>2020-10-09T14:10:32.000Z</time>
      </trkpt>
      <trkpt lat="43.58915" lon="3.74119">
        <ele>109.83110069418</ele>
        <time>2020-10-09T14:10:33.000Z</time>
      </trkpt>
      <trkpt lat="43.58909" lon="3.74129">
        <ele>109.62512753858</ele>
        <time>2020-10-09T14:10:34.000Z</time>
      </trkpt>
      <trkpt lat="43.58904" lon="3.74138">
        <ele>109.41915438298</ele>
        <time>2020-10-09T14:10:35.000Z</time>
      </trkpt>
      <trkpt lat="43.58899" lon="3.74147">
        <ele>109.21318122738</ele>
        <time>2020-10-09T14:10:36.000Z</time>
      </trkpt>
      <trkpt lat="43.58893" lon="3.74156">
        <ele>109.00720807177</ele>
        <time>2020-10-09T14:10:37.000Z</time>
      </trkpt>
      <trkpt lat="43.58888" lon="3.74163">
        <ele>108.80123491617</ele>
        <time>2020-10-09T14:10:38.000Z</time>
      </trkpt>
      <trkpt lat="43.58881" lon="3.7417">
        <ele>108.59526176057</ele>
        <time>2020-10-09T14:10:39.000Z</time>
      </trkpt>
      <trkpt lat="43.58874" lon="3.74175">
        <ele>108.38928860497</ele>
        <time>2020-10-09T14:10:40.000Z</time>
      </trkpt>
      <trkpt lat="43.58867" lon="3.74179">
        <ele>108.18331544937</ele>
        <time>2020-10-09T14:10:41.000Z</time>
      </trkpt>
      <trkpt lat="43.58861" lon="3.74182">
        <ele>108.01123627825</ele>
        <time>2020-10-09T14:10:42.000Z</time>
      </trkpt>
      <trkpt lat="43.58855" lon="3.74185">
        <ele>108.11338129083</ele>
        <time>2020-10-09T14:10:43.000Z</time>
      </trkpt>
      <trkpt lat="43.5885" lon="3.74188">
        <ele>108.2155263034</ele>
        <time>2020-10-09T14:10:44.000Z</time>
      </trkpt>
      <trkpt lat="43.58845" lon="3.74191">
        <ele>108.31767131598</ele>
        <time>2020-10-09T14:10:45.000Z</time>
      </trkpt>
      <trkpt lat="43.58841" lon="3.74194">
        <ele>108.41981632856</ele>
        <time>2020-10-09T14:10:46.000Z</time>
      </trkpt>
      <trkpt lat="43.58837" lon="3.74198">
        <ele>108.52196134114</ele>
        <time>2020-10-09T14:10:47.000Z</time>
      </trkpt>
      <trkpt lat="43.58833" lon="3.74202">
        <ele>108.62410635371</ele>
        <time>2020-10-09T14:10:48.000Z</time>
      </trkpt>
      <trkpt lat="43.58829" lon="3.74208">
        <ele>108.72625136629</ele>
        <time>2020-10-09T14:10:49.000Z</time>
      </trkpt>
      <trkpt lat="43.58826" lon="3.74214">
        <ele>108.82839637887</ele>
        <time>2020-10-09T14:10:50.000Z</time>
      </trkpt>
      <trkpt lat="43.58822" lon="3.74221">
        <ele>108.93054139145</ele>
        <time>2020-10-09T14:10:51.000Z</time>
      </trkpt>
      <trkpt lat="43.58818" lon="3.74228">
        <ele>108.872</ele>
        <time>2020-10-09T14:10:52.000Z</time>
      </trkpt>
      <trkpt lat="43.58815" lon="3.74236">
        <ele>108.472</ele>
        <time>2020-10-09T14:10:53.000Z</time>
      </trkpt>
      <trkpt lat="43.58811" lon="3.74244">
        <ele>108.072</ele>
        <time>2020-10-09T14:10:54.000Z</time>
      </trkpt>
      <trkpt lat="43.58807" lon="3.74253">
        <ele>107.672</ele>
        <time>2020-10-09T14:10:55.000Z</time>
      </trkpt>
      <trkpt lat="43.58803" lon="3.74262">
        <ele>107.272</ele>
        <time>2020-10-09T14:10:56.000Z</time>
      </trkpt>
      <trkpt lat="43.58799" lon="3.7427">
        <ele>106.872</ele>
        <time>2020-10-09T14:10:57.000Z</time>
      </trkpt>
      <trkpt lat="43.58794" lon="3.74279">
        <ele>106.472</ele>
        <time>2020-10-09T14:10:58.000Z</time>
      </trkpt>
      <trkpt lat="43.58789" lon="3.74288">
        <ele>106.072</ele>
        <time>2020-10-09T14:10:59.000Z</time>
      </trkpt>
      <trkpt lat="43.58783" lon="3.74297">
        <ele>105.672</ele>
        <time>2020-10-09T14:11:00.000Z</time>
      </trkpt>
      <trkpt lat="43.58777" lon="3.74304">
        <ele>105.272</ele>
        <time>2020-10-09T14:11:01.000Z</time>
      </trkpt>
      <trkpt lat="43.5877" lon="3.74307">
        <ele>104.872</ele>
        <time>2020-10-09T14:11:02.000Z</time>
      </trkpt>
      <trkpt lat="43.58763" lon="3.74309">
        <ele>104.472</ele>
        <time>2020-10-09T14:11:03.000Z</time>
      </trkpt>
      <trkpt lat="43.58757" lon="3.7431">
        <ele>104.072</ele>
        <time>2020-10-09T14:11:04.000Z</time>
      </trkpt>
      <trkpt lat="43.58751" lon="3.74311">
        <ele>103.672</ele>
        <time>2020-10-09T14:11:05.000Z</time>
      </trkpt>
      <trkpt lat="43.58745" lon="3.74311">
        <ele>103.272</ele>
        <time>2020-10-09T14:11:06.000Z</time>
      </trkpt>
      <trkpt lat="43.58739" lon="3.74312">
        <ele>102.872</ele>
        <time>2020-10-09T14:11:07.000Z</time>
      </trkpt>
      <trkpt lat="43.58733" lon="3.74313">
        <ele>102.472</ele>
        <time>2020-10-09T14:11:08.000Z</time>
      </trkpt>
      <trkpt lat="43.58727" lon="3.74314">
        <ele>102.072</ele>
        <time>2020-10-09T14:11:09.000Z</time>
      </trkpt>
      <trkpt lat="43.58721" lon="3.74316">
        <ele>101.672</ele>
        <time>2020-10-09T14:11:10.000Z</time>
      </trkpt>
      <trkpt lat="43.58715" lon="3.74319">
        <ele>101.272</ele>
        <time>2020-10-09T14:11:11.000Z</time>
      </trkpt>
      <trkpt lat="43.58709" lon="3.74323">
        <ele>100.96868886501</ele>
        <time>2020-10-09T14:11:12.000Z</time>
      </trkpt>
      <trkpt lat="43.58703" lon="3.74328">
        <ele>100.87084156816</ele>
        <time>2020-10-09T14:11:13.000Z</time>
      </trkpt>
      <trkpt lat="43.58698" lon="3.74333">
        <ele>100.77299427131</ele>
        <time>2020-10-09T14:11:14.000Z</time>
      </trkpt>
      <trkpt lat="43.58694" lon="3.74339">
        <ele>100.67514697447</ele>
        <time>2020-10-09T14:11:15.000Z</time>
      </trkpt>
      <trkpt lat="43.58689" lon="3.74345">
        <ele>100.57729967762</ele>
        <time>2020-10-09T14:11:16.000Z</time>
      </trkpt>
      <trkpt lat="43.58686" lon="3.74351">
        <ele>100.47945238077</ele>
        <time>2020-10-09T14:11:17.000Z</time>
      </trkpt>
      <trkpt lat="43.58682" lon="3.74357">
        <ele>100.38160508393</ele>
        <time>2020-10-09T14:11:18.000Z</time>
      </trkpt>
      <trkpt lat="43.58678" lon="3.74364">
        <ele>100.28375778708</ele>
        <time>2020-10-09T14:11:19.000Z</time>
      </trkpt>
      <trkpt lat="43.58675" lon="3.74371">
        <ele>100.18591049023</ele>
        <time>2020-10-09T14:11:20.000Z</time>
      </trkpt>
      <trkpt lat="43.58672" lon="3.74377">
        <ele>100.08806319338</ele>
        <time>2020-10-09T14:11:21.000Z</time>
      </trkpt>
      <trkpt lat="43.58669" lon="3.74384">
        <ele>100</ele>
        <time>2020-10-09T14:11:22.000Z</time>
      </trkpt>
      <trkpt lat="43.58666" lon="3.74391">
        <ele>100</ele>
        <time>2020-10-09T14:11:23.000Z</time>
      </trkpt>
      <trkpt lat="43.58663" lon="3.74397">
        <ele>100</ele>
        <time>2020-10-09T14:11:24.000Z</time>
      </trkpt>
      <trkpt lat="43.5866" lon="3.74403">
        <ele>100</ele>
        <time>2020-10-09T14:11:25.000Z</time>
      </trkpt>
      <trkpt lat="43.58657" lon="3.74409">
        <ele>100</ele>
        <time>2020-10-09T14:11:26.000Z</time>
      </trkpt>
      <trkpt lat="43.58654" lon="3.74415">
        <ele>100</ele>
        <time>2020-10-09T14:11:27.000Z</time>
      </trkpt>
      <trkpt lat="43.58651" lon="3.74421">
        <ele>100</ele>
        <time>2020-10-09T14:11:28.000Z</time>
      </trkpt>
      <trkpt lat="43.58649" lon="3.74427">
        <ele>100</ele>
        <time>2020-10-09T14:11:29.000Z</time>
      </trkpt>
      <trkpt lat="43.58647" lon="3.74434">
        <ele>100</ele>
        <time>2020-10-09T14:11:30.000Z</time>
      </trkpt>
      <trkpt lat="43.58646" lon="3.74441">
        <ele>100</ele>
        <time>2020-10-09T14:11:31.000Z</time>
      </trkpt>
      <trkpt lat="43.58645" lon="3.74448">
        <ele>99.968962182281</ele>
        <time>2020-10-09T14:11:32.000Z</time>
      </trkpt>
      <trkpt lat="43.58645" lon="3.74455">
        <ele>99.871969001911</ele>
        <time>2020-10-09T14:11:33.000Z</time>
      </trkpt>
      <trkpt lat="43.58645" lon="3.74463">
        <ele>99.77497582154</ele>
        <time>2020-10-09T14:11:34.000Z</time>
      </trkpt>
      <trkpt lat="43.58645" lon="3.7447">
        <ele>99.677982641169</ele>
        <time>2020-10-09T14:11:35.000Z</time>
      </trkpt>
      <trkpt lat="43.58646" lon="3.74479">
        <ele>99.580989460799</ele>
        <time>2020-10-09T14:11:36.000Z</time>
      </trkpt>
      <trkpt lat="43.58646" lon="3.74487">
        <ele>99.483996280428</ele>
        <time>2020-10-09T14:11:37.000Z</time>
      </trkpt>
      <trkpt lat="43.58647" lon="3.74495">
        <ele>99.387003100057</ele>
        <time>2020-10-09T14:11:38.000Z</time>
      </trkpt>
      <trkpt lat="43.58648" lon="3.74504">
        <ele>99.290009919686</ele>
        <time>2020-10-09T14:11:39.000Z</time>
      </trkpt>
      <trkpt lat="43.5865" lon="3.74513">
        <ele>99.193016739316</ele>
        <time>2020-10-09T14:11:40.000Z</time>
      </trkpt>
      <trkpt lat="43.58651" lon="3.74522">
        <ele>99.096023558945</ele>
        <time>2020-10-09T14:11:41.000Z</time>
      </trkpt>
      <trkpt lat="43.58652" lon="3.74531">
        <ele>98.998972579313</ele>
        <time>2020-10-09T14:11:42.000Z</time>
      </trkpt>
      <trkpt lat="43.58653" lon="3.7454">
        <ele>98.896197622593</ele>
        <time>2020-10-09T14:11:43.000Z</time>
      </trkpt>
      <trkpt lat="43.58654" lon="3.74548">
        <ele>98.793422665874</ele>
        <time>2020-10-09T14:11:44.000Z</time>
      </trkpt>
      <trkpt lat="43.58656" lon="3.74557">
        <ele>98.690647709154</ele>
        <time>2020-10-09T14:11:45.000Z</time>
      </trkpt>
      <trkpt lat="43.58657" lon="3.74565">
        <ele>98.587872752435</ele>
        <time>2020-10-09T14:11:46.000Z</time>
      </trkpt>
      <trkpt lat="43.58658" lon="3.74574">
        <ele>98.485097795716</ele>
        <time>2020-10-09T14:11:47.000Z</time>
      </trkpt>
      <trkpt lat="43.58658" lon="3.74583">
        <ele>98.382322838996</ele>
        <time>2020-10-09T14:11:48.000Z</time>
      </trkpt>
      <trkpt lat="43.58658" lon="3.74592">
        <ele>98.279547882277</ele>
        <time>2020-10-09T14:11:49.000Z</time>
      </trkpt>
      <trkpt lat="43.58658" lon="3.746">
        <ele>98.176772925557</ele>
        <time>2020-10-09T14:11:50.000Z</time>
      </trkpt>
      <trkpt lat="43.58657" lon="3.74608">
        <ele>98.073997968838</ele>
        <time>2020-10-09T14:11:51.000Z</time>
      </trkpt>
      <trkpt lat="43.58655" lon="3.74616">
        <ele>98.028112449799</ele>
        <time>2020-10-09T14:11:52.000Z</time>
      </trkpt>
      <trkpt lat="43.58654" lon="3.74622">
        <ele>98.128514056225</ele>
        <time>2020-10-09T14:11:53.000Z</time>
      </trkpt>
      <trkpt lat="43.58652" lon="3.74629">
        <ele>98.228915662651</ele>
        <time>2020-10-09T14:11:54.000Z</time>
      </trkpt>
      <trkpt lat="43.5865" lon="3.74635">
        <ele>98.329317269076</ele>
        <time>2020-10-09T14:11:55.000Z</time>
      </trkpt>
      <trkpt lat="43.58647" lon="3.7464">
        <ele>98.429718875502</ele>
        <time>2020-10-09T14:11:56.000Z</time>
      </trkpt>
      <trkpt lat="43.58644" lon="3.74646">
        <ele>98.530120481928</ele>
        <time>2020-10-09T14:11:57.000Z</time>
      </trkpt>
      <trkpt lat="43.58642" lon="3.74651">
        <ele>98.630522088353</ele>
        <time>2020-10-09T14:11:58.000Z</time>
      </trkpt>
      <trkpt lat="43.58639" lon="3.74656">
        <ele>98.730923694779</ele>
        <time>2020-10-09T14:11:59.000Z</time>
      </trkpt>
      <trkpt lat="43.58637" lon="3.74661">
        <ele>98.831325301205</ele>
        <time>2020-10-09T14:12:00.000Z</time>
      </trkpt>
      <trkpt lat="43.58634" lon="3.74666">
        <ele>98.931726907631</ele>
        <time>2020-10-09T14:12:01.000Z</time>
      </trkpt>
      <trkpt lat="43.58632" lon="3.7467">
        <ele>98.968</ele>
        <time>2020-10-09T14:12:02.000Z</time>
      </trkpt>
      <trkpt lat="43.5863" lon="3.74675">
        <ele>98.868</ele>
        <time>2020-10-09T14:12:03.000Z</time>
      </trkpt>
      <trkpt lat="43.58627" lon="3.74679">
        <ele>98.768</ele>
        <time>2020-10-09T14:12:04.000Z</time>
      </trkpt>
      <trkpt lat="43.58625" lon="3.74684">
        <ele>98.668</ele>
        <time>2020-10-09T14:12:05.000Z</time>
      </trkpt>
      <trkpt lat="43.58623" lon="3.74689">
        <ele>98.568</ele>
        <time>2020-10-09T14:12:06.000Z</time>
      </trkpt>
      <trkpt lat="43.5862" lon="3.74693">
        <ele>98.468</ele>
        <time>2020-10-09T14:12:07.000Z</time>
      </trkpt>
      <trkpt lat="43.58618" lon="3.74697">
        <ele>98.368</ele>
        <time>2020-10-09T14:12:08.000Z</time>
      </trkpt>
      <trkpt lat="43.58617" lon="3.74701">
        <ele>98.268</ele>
        <time>2020-10-09T14:12:09.000Z</time>
      </trkpt>
      <trkpt lat="43.58615" lon="3.74705">
        <ele>98.168</ele>
        <time>2020-10-09T14:12:10.000Z</time>
      </trkpt>
      <trkpt lat="43.58613" lon="3.74709">
        <ele>98.068</ele>
        <time>2020-10-09T14:12:11.000Z</time>
      </trkpt>
      <trkpt lat="43.58612" lon="3.74712">
        <ele>98</ele>
        <time>2020-10-09T14:12:12.000Z</time>
      </trkpt>
      <trkpt lat="43.58611" lon="3.74715">
        <ele>98</ele>
        <time>2020-10-09T14:12:13.000Z</time>
      </trkpt>
      <trkpt lat="43.5861" lon="3.74718">
        <ele>98</ele>
        <time>2020-10-09T14:12:14.000Z</time>
      </trkpt>
      <trkpt lat="43.58611" lon="3.74721">
        <ele>98</ele>
        <time>2020-10-09T14:12:15.000Z</time>
      </trkpt>
      <trkpt lat="43.58613" lon="3.74724">
        <ele>98</ele>
        <time>2020-10-09T14:12:16.000Z</time>
      </trkpt>
      <trkpt lat="43.58615" lon="3.74726">
        <ele>98</ele>
        <time>2020-10-09T14:12:17.000Z</time>
      </trkpt>
      <trkpt lat="43.58618" lon="3.74728">
        <ele>98</ele>
        <time>2020-10-09T14:12:18.000Z</time>
      </trkpt>
      <trkpt lat="43.58622" lon="3.7473">
        <ele>98</ele>
        <time>2020-10-09T14:12:19.000Z</time>
      </trkpt>
      <trkpt lat="43.58625" lon="3.74732">
        <ele>98</ele>
        <time>2020-10-09T14:12:20.000Z</time>
      </trkpt>
      <trkpt lat="43.58629" lon="3.74735">
        <ele>98</ele>
        <time>2020-10-09T14:12:21.000Z</time>
      </trkpt>
      <trkpt lat="43.58633" lon="3.74738">
        <ele>97.968</ele>
        <time>2020-10-09T14:12:22.000Z</time>
      </trkpt>
      <trkpt lat="43.58637" lon="3.74741">
        <ele>97.868</ele>
        <time>2020-10-09T14:12:23.000Z</time>
      </trkpt>
      <trkpt lat="43.58641" lon="3.74743">
        <ele>97.768</ele>
        <time>2020-10-09T14:12:24.000Z</time>
      </trkpt>
      <trkpt lat="43.58644" lon="3.74745">
        <ele>97.668</ele>
        <time>2020-10-09T14:12:25.000Z</time>
      </trkpt>
      <trkpt lat="43.58647" lon="3.74747">
        <ele>97.568</ele>
        <time>2020-10-09T14:12:26.000Z</time>
      </trkpt>
      <trkpt lat="43.58649" lon="3.74748">
        <ele>97.368</ele>
        <time>2020-10-09T14:12:28.000Z</time>
      </trkpt>
      <trkpt lat="43.58649" lon="3.74748">
        <ele>97.986412753623</ele>
        <time>2020-10-09T14:12:34.000Z</time>
      </trkpt>
      <trkpt lat="43.5864" lon="3.74744">
        <ele>97</ele>
        <time>2020-10-09T14:12:45.000Z</time>
      </trkpt>
      <trkpt lat="43.58637" lon="3.74742">
        <ele>97</ele>
        <time>2020-10-09T14:12:46.000Z</time>
      </trkpt>
      <trkpt lat="43.58634" lon="3.74739">
        <ele>97</ele>
        <time>2020-10-09T14:12:47.000Z</time>
      </trkpt>
      <trkpt lat="43.58631" lon="3.74736">
        <ele>97</ele>
        <time>2020-10-09T14:12:48.000Z</time>
      </trkpt>
      <trkpt lat="43.58627" lon="3.74733">
        <ele>97</ele>
        <time>2020-10-09T14:12:49.000Z</time>
      </trkpt>
      <trkpt lat="43.58623" lon="3.7473">
        <ele>97</ele>
        <time>2020-10-09T14:12:50.000Z</time>
      </trkpt>
      <trkpt lat="43.58619" lon="3.74728">
        <ele>97</ele>
        <time>2020-10-09T14:12:51.000Z</time>
      </trkpt>
      <trkpt lat="43.58615" lon="3.74726">
        <ele>97</ele>
        <time>2020-10-09T14:12:52.000Z</time>
      </trkpt>
      <trkpt lat="43.58612" lon="3.74724">
        <ele>97</ele>
        <time>2020-10-09T14:12:53.000Z</time>
      </trkpt>
      <trkpt lat="43.5861" lon="3.74723">
        <ele>97</ele>
        <time>2020-10-09T14:12:54.000Z</time>
      </trkpt>
      <trkpt lat="43.58608" lon="3.74723">
        <ele>97</ele>
        <time>2020-10-09T14:12:55.000Z</time>
      </trkpt>
      <trkpt lat="43.58605" lon="3.74725">
        <ele>97</ele>
        <time>2020-10-09T14:12:57.000Z</time>
      </trkpt>
      <trkpt lat="43.58605" lon="3.74728">
        <ele>97</ele>
        <time>2020-10-09T14:12:58.000Z</time>
      </trkpt>
      <trkpt lat="43.58604" lon="3.74731">
        <ele>97</ele>
        <time>2020-10-09T14:12:59.000Z</time>
      </trkpt>
      <trkpt lat="43.58602" lon="3.74734">
        <ele>97</ele>
        <time>2020-10-09T14:13:00.000Z</time>
      </trkpt>
      <trkpt lat="43.58601" lon="3.74739">
        <ele>97</ele>
        <time>2020-10-09T14:13:01.000Z</time>
      </trkpt>
      <trkpt lat="43.58599" lon="3.74743">
        <ele>97</ele>
        <time>2020-10-09T14:13:02.000Z</time>
      </trkpt>
      <trkpt lat="43.58597" lon="3.74749">
        <ele>97</ele>
        <time>2020-10-09T14:13:03.000Z</time>
      </trkpt>
      <trkpt lat="43.58595" lon="3.74755">
        <ele>97</ele>
        <time>2020-10-09T14:13:04.000Z</time>
      </trkpt>
      <trkpt lat="43.58592" lon="3.7476">
        <ele>96.995884773663</ele>
        <time>2020-10-09T14:13:05.000Z</time>
      </trkpt>
      <trkpt lat="43.5859" lon="3.74766">
        <ele>96.893004115226</ele>
        <time>2020-10-09T14:13:06.000Z</time>
      </trkpt>
      <trkpt lat="43.58587" lon="3.74772">
        <ele>96.79012345679</ele>
        <time>2020-10-09T14:13:07.000Z</time>
      </trkpt>
      <trkpt lat="43.58585" lon="3.74779">
        <ele>96.687242798354</ele>
        <time>2020-10-09T14:13:08.000Z</time>
      </trkpt>
      <trkpt lat="43.58583" lon="3.74786">
        <ele>96.584362139918</ele>
        <time>2020-10-09T14:13:09.000Z</time>
      </trkpt>
      <trkpt lat="43.58581" lon="3.74793">
        <ele>96.481481481481</ele>
        <time>2020-10-09T14:13:10.000Z</time>
      </trkpt>
      <trkpt lat="43.58579" lon="3.748">
        <ele>96.378600823045</ele>
        <time>2020-10-09T14:13:11.000Z</time>
      </trkpt>
      <trkpt lat="43.58577" lon="3.74807">
        <ele>96.275720164609</ele>
        <time>2020-10-09T14:13:12.000Z</time>
      </trkpt>
      <trkpt lat="43.58575" lon="3.74814">
        <ele>96.172839506173</ele>
        <time>2020-10-09T14:13:13.000Z</time>
      </trkpt>
      <trkpt lat="43.58572" lon="3.7482">
        <ele>96.069958847737</ele>
        <time>2020-10-09T14:13:14.000Z</time>
      </trkpt>
      <trkpt lat="43.5857" lon="3.74825">
        <ele>95.969811320755</ele>
        <time>2020-10-09T14:13:15.000Z</time>
      </trkpt>
      <trkpt lat="43.58567" lon="3.74829">
        <ele>95.875471698113</ele>
        <time>2020-10-09T14:13:16.000Z</time>
      </trkpt>
      <trkpt lat="43.58564" lon="3.74833">
        <ele>95.781132075472</ele>
        <time>2020-10-09T14:13:17.000Z</time>
      </trkpt>
      <trkpt lat="43.58561" lon="3.74836">
        <ele>95.68679245283</ele>
        <time>2020-10-09T14:13:18.000Z</time>
      </trkpt>
      <trkpt lat="43.58559" lon="3.74839">
        <ele>95.592452830189</ele>
        <time>2020-10-09T14:13:19.000Z</time>
      </trkpt>
      <trkpt lat="43.58557" lon="3.74842">
        <ele>95.498113207547</ele>
        <time>2020-10-09T14:13:20.000Z</time>
      </trkpt>
      <trkpt lat="43.58555" lon="3.74846">
        <ele>95.403773584906</ele>
        <time>2020-10-09T14:13:21.000Z</time>
      </trkpt>
      <trkpt lat="43.58556" lon="3.7485">
        <ele>95.309433962264</ele>
        <time>2020-10-09T14:13:22.000Z</time>
      </trkpt>
      <trkpt lat="43.58556" lon="3.74854">
        <ele>95.215094339623</ele>
        <time>2020-10-09T14:13:23.000Z</time>
      </trkpt>
      <trkpt lat="43.58554" lon="3.74859">
        <ele>95.120754716981</ele>
        <time>2020-10-09T14:13:24.000Z</time>
      </trkpt>
      <trkpt lat="43.58552" lon="3.74864">
        <ele>95.02641509434</ele>
        <time>2020-10-09T14:13:25.000Z</time>
      </trkpt>
      <trkpt lat="43.5855" lon="3.74869">
        <ele>94.925849663984</ele>
        <time>2020-10-09T14:13:26.000Z</time>
      </trkpt>
      <trkpt lat="43.58547" lon="3.74875">
        <ele>94.822863086183</ele>
        <time>2020-10-09T14:13:27.000Z</time>
      </trkpt>
      <trkpt lat="43.58544" lon="3.7488">
        <ele>94.719876508383</ele>
        <time>2020-10-09T14:13:28.000Z</time>
      </trkpt>
      <trkpt lat="43.58542" lon="3.74886">
        <ele>94.616889930582</ele>
        <time>2020-10-09T14:13:29.000Z</time>
      </trkpt>
      <trkpt lat="43.58539" lon="3.74892">
        <ele>94.513903352782</ele>
        <time>2020-10-09T14:13:30.000Z</time>
      </trkpt>
      <trkpt lat="43.58537" lon="3.74898">
        <ele>94.410916774981</ele>
        <time>2020-10-09T14:13:31.000Z</time>
      </trkpt>
      <trkpt lat="43.58535" lon="3.74904">
        <ele>94.307930197181</ele>
        <time>2020-10-09T14:13:32.000Z</time>
      </trkpt>
      <trkpt lat="43.58533" lon="3.7491">
        <ele>94.20494361938</ele>
        <time>2020-10-09T14:13:33.000Z</time>
      </trkpt>
      <trkpt lat="43.5853" lon="3.74916">
        <ele>94.10195704158</ele>
        <time>2020-10-09T14:13:34.000Z</time>
      </trkpt>
      <trkpt lat="43.58527" lon="3.74923">
        <ele>93.998986125103</ele>
        <time>2020-10-09T14:13:35.000Z</time>
      </trkpt>
      <trkpt lat="43.58525" lon="3.74929">
        <ele>93.897566180976</ele>
        <time>2020-10-09T14:13:36.000Z</time>
      </trkpt>
      <trkpt lat="43.58523" lon="3.74935">
        <ele>93.796146236849</ele>
        <time>2020-10-09T14:13:37.000Z</time>
      </trkpt>
      <trkpt lat="43.58521" lon="3.74941">
        <ele>93.694726292723</ele>
        <time>2020-10-09T14:13:38.000Z</time>
      </trkpt>
      <trkpt lat="43.58518" lon="3.74947">
        <ele>93.593306348596</ele>
        <time>2020-10-09T14:13:39.000Z</time>
      </trkpt>
      <trkpt lat="43.58516" lon="3.74953">
        <ele>93.49188640447</ele>
        <time>2020-10-09T14:13:40.000Z</time>
      </trkpt>
      <trkpt lat="43.58514" lon="3.74959">
        <ele>93.390466460343</ele>
        <time>2020-10-09T14:13:41.000Z</time>
      </trkpt>
      <trkpt lat="43.58511" lon="3.74965">
        <ele>93.289046516217</ele>
        <time>2020-10-09T14:13:42.000Z</time>
      </trkpt>
      <trkpt lat="43.58509" lon="3.74971">
        <ele>93.18762657209</ele>
        <time>2020-10-09T14:13:43.000Z</time>
      </trkpt>
      <trkpt lat="43.58507" lon="3.74977">
        <ele>93.086206627964</ele>
        <time>2020-10-09T14:13:44.000Z</time>
      </trkpt>
      <trkpt lat="43.58504" lon="3.74983">
        <ele>92.984740269464</ele>
        <time>2020-10-09T14:13:45.000Z</time>
      </trkpt>
      <trkpt lat="43.58502" lon="3.74988">
        <ele>92.883010902784</ele>
        <time>2020-10-09T14:13:46.000Z</time>
      </trkpt>
      <trkpt lat="43.58499" lon="3.74994">
        <ele>92.781281536104</ele>
        <time>2020-10-09T14:13:47.000Z</time>
      </trkpt>
      <trkpt lat="43.58497" lon="3.75">
        <ele>92.679552169424</ele>
        <time>2020-10-09T14:13:48.000Z</time>
      </trkpt>
      <trkpt lat="43.58496" lon="3.75007">
        <ele>92.577822802743</ele>
        <time>2020-10-09T14:13:49.000Z</time>
      </trkpt>
      <trkpt lat="43.58493" lon="3.75013">
        <ele>92.476093436063</ele>
        <time>2020-10-09T14:13:50.000Z</time>
      </trkpt>
      <trkpt lat="43.58491" lon="3.75018">
        <ele>92.374364069383</ele>
        <time>2020-10-09T14:13:51.000Z</time>
      </trkpt>
      <trkpt lat="43.58489" lon="3.75023">
        <ele>92.272634702703</ele>
        <time>2020-10-09T14:13:52.000Z</time>
      </trkpt>
      <trkpt lat="43.58487" lon="3.75029">
        <ele>92.170905336023</ele>
        <time>2020-10-09T14:13:53.000Z</time>
      </trkpt>
      <trkpt lat="43.58485" lon="3.75035">
        <ele>92.069175969342</ele>
        <time>2020-10-09T14:13:54.000Z</time>
      </trkpt>
      <trkpt lat="43.58482" lon="3.75041">
        <ele>91.936</ele>
        <time>2020-10-09T14:13:55.000Z</time>
      </trkpt>
      <trkpt lat="43.58479" lon="3.75047">
        <ele>91.736</ele>
        <time>2020-10-09T14:13:56.000Z</time>
      </trkpt>
      <trkpt lat="43.58476" lon="3.75053">
        <ele>91.536</ele>
        <time>2020-10-09T14:13:57.000Z</time>
      </trkpt>
      <trkpt lat="43.58474" lon="3.7506">
        <ele>91.336</ele>
        <time>2020-10-09T14:13:58.000Z</time>
      </trkpt>
      <trkpt lat="43.58471" lon="3.75067">
        <ele>91.136</ele>
        <time>2020-10-09T14:13:59.000Z</time>
      </trkpt>
      <trkpt lat="43.58469" lon="3.75073">
        <ele>90.936</ele>
        <time>2020-10-09T14:14:00.000Z</time>
      </trkpt>
      <trkpt lat="43.58466" lon="3.75079">
        <ele>90.736</ele>
        <time>2020-10-09T14:14:01.000Z</time>
      </trkpt>
      <trkpt lat="43.58465" lon="3.75083">
        <ele>90.536</ele>
        <time>2020-10-09T14:14:02.000Z</time>
      </trkpt>
      <trkpt lat="43.58463" lon="3.75087">
        <ele>90.336</ele>
        <time>2020-10-09T14:14:03.000Z</time>
      </trkpt>
      <trkpt lat="43.58461" lon="3.75091">
        <ele>90.136</ele>
        <time>2020-10-09T14:14:04.000Z</time>
      </trkpt>
      <trkpt lat="43.5846" lon="3.75095">
        <ele>89.937864039061</ele>
        <time>2020-10-09T14:14:05.000Z</time>
      </trkpt>
      <trkpt lat="43.58458" lon="3.75099">
        <ele>89.743689161127</ele>
        <time>2020-10-09T14:14:06.000Z</time>
      </trkpt>
      <trkpt lat="43.58457" lon="3.75102">
        <ele>89.549514283193</ele>
        <time>2020-10-09T14:14:07.000Z</time>
      </trkpt>
      <trkpt lat="43.58455" lon="3.75104">
        <ele>89.161164527325</ele>
        <time>2020-10-09T14:14:09.000Z</time>
      </trkpt>
      <trkpt lat="43.58452" lon="3.75103">
        <ele>88.772814771458</ele>
        <time>2020-10-09T14:14:11.000Z</time>
      </trkpt>
      <trkpt lat="43.58451" lon="3.75101">
        <ele>88.578639893524</ele>
        <time>2020-10-09T14:14:12.000Z</time>
      </trkpt>
      <trkpt lat="43.5845" lon="3.75098">
        <ele>88.38446501559</ele>
        <time>2020-10-09T14:14:13.000Z</time>
      </trkpt>
      <trkpt lat="43.58451" lon="3.75095">
        <ele>88.190290137656</ele>
        <time>2020-10-09T14:14:14.000Z</time>
      </trkpt>
      <trkpt lat="43.58452" lon="3.75094">
        <ele>88</ele>
        <time>2020-10-09T14:14:15.000Z</time>
      </trkpt>
      <trkpt lat="43.58455" lon="3.75093">
        <ele>88</ele>
        <time>2020-10-09T14:14:17.000Z</time>
      </trkpt>
      <trkpt lat="43.58457" lon="3.75096">
        <ele>88</ele>
        <time>2020-10-09T14:14:19.000Z</time>
      </trkpt>
      <trkpt lat="43.58456" lon="3.75096">
        <ele>88</ele>
        <time>2020-10-09T14:14:25.000Z</time>
      </trkpt>
      <trkpt lat="43.58452" lon="3.75109">
        <ele>85.001064431458</ele>
        <time>2020-10-09T14:22:24.000Z</time>
      </trkpt>
      <trkpt lat="43.5845" lon="3.75115">
        <ele>84.654734379968</ele>
        <time>2020-10-09T14:22:25.000Z</time>
      </trkpt>
      <trkpt lat="43.58447" lon="3.75122">
        <ele>84.233682032046</ele>
        <time>2020-10-09T14:22:26.000Z</time>
      </trkpt>
      <trkpt lat="43.58445" lon="3.75128">
        <ele>83.812629684123</ele>
        <time>2020-10-09T14:22:27.000Z</time>
      </trkpt>
      <trkpt lat="43.58442" lon="3.75135">
        <ele>83.3915773362</ele>
        <time>2020-10-09T14:22:28.000Z</time>
      </trkpt>
      <trkpt lat="43.5844" lon="3.75142">
        <ele>82.970524988278</ele>
        <time>2020-10-09T14:22:29.000Z</time>
      </trkpt>
      <trkpt lat="43.58437" lon="3.75148">
        <ele>82.549472640355</ele>
        <time>2020-10-09T14:22:30.000Z</time>
      </trkpt>
      <trkpt lat="43.58435" lon="3.75155">
        <ele>82.128420292433</ele>
        <time>2020-10-09T14:22:31.000Z</time>
      </trkpt>
      <trkpt lat="43.58433" lon="3.75163">
        <ele>81.70736794451</ele>
        <time>2020-10-09T14:22:32.000Z</time>
      </trkpt>
      <trkpt lat="43.58432" lon="3.75171">
        <ele>81.286315596587</ele>
        <time>2020-10-09T14:22:33.000Z</time>
      </trkpt>
      <trkpt lat="43.58431" lon="3.75179">
        <ele>80.844357976654</ele>
        <time>2020-10-09T14:22:34.000Z</time>
      </trkpt>
      <trkpt lat="43.5843" lon="3.75187">
        <ele>80.357976653696</ele>
        <time>2020-10-09T14:22:35.000Z</time>
      </trkpt>
      <trkpt lat="43.58429" lon="3.75195">
        <ele>79.871595330739</ele>
        <time>2020-10-09T14:22:36.000Z</time>
      </trkpt>
      <trkpt lat="43.58428" lon="3.75203">
        <ele>79.385214007782</ele>
        <time>2020-10-09T14:22:37.000Z</time>
      </trkpt>
      <trkpt lat="43.58427" lon="3.75211">
        <ele>78.898832684825</ele>
        <time>2020-10-09T14:22:38.000Z</time>
      </trkpt>
      <trkpt lat="43.58426" lon="3.75219">
        <ele>78.412451361868</ele>
        <time>2020-10-09T14:22:39.000Z</time>
      </trkpt>
      <trkpt lat="43.58425" lon="3.75228">
        <ele>77.92607003891</ele>
        <time>2020-10-09T14:22:40.000Z</time>
      </trkpt>
      <trkpt lat="43.58424" lon="3.75237">
        <ele>77.439688715953</ele>
        <time>2020-10-09T14:22:41.000Z</time>
      </trkpt>
      <trkpt lat="43.58423" lon="3.75245">
        <ele>76.953307392996</ele>
        <time>2020-10-09T14:22:42.000Z</time>
      </trkpt>
      <trkpt lat="43.58423" lon="3.75253">
        <ele>76.466926070039</ele>
        <time>2020-10-09T14:22:43.000Z</time>
      </trkpt>
      <trkpt lat="43.58422" lon="3.75261">
        <ele>75.979508196721</ele>
        <time>2020-10-09T14:22:44.000Z</time>
      </trkpt>
      <trkpt lat="43.5842" lon="3.75269">
        <ele>75.467213114754</ele>
        <time>2020-10-09T14:22:45.000Z</time>
      </trkpt>
      <trkpt lat="43.58419" lon="3.75277">
        <ele>74.954918032787</ele>
        <time>2020-10-09T14:22:46.000Z</time>
      </trkpt>
      <trkpt lat="43.58418" lon="3.75285">
        <ele>74.44262295082</ele>
        <time>2020-10-09T14:22:47.000Z</time>
      </trkpt>
      <trkpt lat="43.58418" lon="3.75293">
        <ele>73.930327868853</ele>
        <time>2020-10-09T14:22:48.000Z</time>
      </trkpt>
      <trkpt lat="43.58419" lon="3.75301">
        <ele>73.418032786885</ele>
        <time>2020-10-09T14:22:49.000Z</time>
      </trkpt>
      <trkpt lat="43.58419" lon="3.75309">
        <ele>72.905737704918</ele>
        <time>2020-10-09T14:22:50.000Z</time>
      </trkpt>
      <trkpt lat="43.58418" lon="3.75316">
        <ele>72.393442622951</ele>
        <time>2020-10-09T14:22:51.000Z</time>
      </trkpt>
      <trkpt lat="43.58417" lon="3.75321">
        <ele>71.881147540984</ele>
        <time>2020-10-09T14:22:52.000Z</time>
      </trkpt>
      <trkpt lat="43.58416" lon="3.75326">
        <ele>71.368852459016</ele>
        <time>2020-10-09T14:22:53.000Z</time>
      </trkpt>
      <trkpt lat="43.58415" lon="3.7533">
        <ele>70.86368066565</ele>
        <time>2020-10-09T14:22:54.000Z</time>
      </trkpt>
      <trkpt lat="43.58415" lon="3.75334">
        <ele>70.376825900113</ele>
        <time>2020-10-09T14:22:55.000Z</time>
      </trkpt>
      <trkpt lat="43.58415" lon="3.7534">
        <ele>69.889971134576</ele>
        <time>2020-10-09T14:22:56.000Z</time>
      </trkpt>
      <trkpt lat="43.58416" lon="3.75346">
        <ele>69.403116369039</ele>
        <time>2020-10-09T14:22:57.000Z</time>
      </trkpt>
      <trkpt lat="43.58417" lon="3.75353">
        <ele>68.916261603502</ele>
        <time>2020-10-09T14:22:58.000Z</time>
      </trkpt>
      <trkpt lat="43.58419" lon="3.75361">
        <ele>68.429406837965</ele>
        <time>2020-10-09T14:22:59.000Z</time>
      </trkpt>
      <trkpt lat="43.5842" lon="3.75369">
        <ele>67.942552072428</ele>
        <time>2020-10-09T14:23:00.000Z</time>
      </trkpt>
      <trkpt lat="43.58421" lon="3.75378">
        <ele>67.455697306891</ele>
        <time>2020-10-09T14:23:01.000Z</time>
      </trkpt>
      <trkpt lat="43.58421" lon="3.75388">
        <ele>66.968842541354</ele>
        <time>2020-10-09T14:23:02.000Z</time>
      </trkpt>
      <trkpt lat="43.58421" lon="3.75399">
        <ele>66.481987775817</ele>
        <time>2020-10-09T14:23:03.000Z</time>
      </trkpt>
      <trkpt lat="43.5842" lon="3.75409">
        <ele>65.99587335261</ele>
        <time>2020-10-09T14:23:04.000Z</time>
      </trkpt>
      <trkpt lat="43.58419" lon="3.7542">
        <ele>65.583076518663</ele>
        <time>2020-10-09T14:23:05.000Z</time>
      </trkpt>
      <trkpt lat="43.58419" lon="3.75431">
        <ele>65.170279684716</ele>
        <time>2020-10-09T14:23:06.000Z</time>
      </trkpt>
      <trkpt lat="43.58419" lon="3.75442">
        <ele>64.757482850768</ele>
        <time>2020-10-09T14:23:07.000Z</time>
      </trkpt>
      <trkpt lat="43.5842" lon="3.75454">
        <ele>64.344686016821</ele>
        <time>2020-10-09T14:23:08.000Z</time>
      </trkpt>
      <trkpt lat="43.58421" lon="3.75466">
        <ele>63.931889182874</ele>
        <time>2020-10-09T14:23:09.000Z</time>
      </trkpt>
      <trkpt lat="43.58422" lon="3.75478">
        <ele>63.519092348926</ele>
        <time>2020-10-09T14:23:10.000Z</time>
      </trkpt>
      <trkpt lat="43.58423" lon="3.75489">
        <ele>63.106295514979</ele>
        <time>2020-10-09T14:23:11.000Z</time>
      </trkpt>
      <trkpt lat="43.58424" lon="3.75501">
        <ele>62.693498681032</ele>
        <time>2020-10-09T14:23:12.000Z</time>
      </trkpt>
      <trkpt lat="43.58425" lon="3.75512">
        <ele>62.280701847084</ele>
        <time>2020-10-09T14:23:13.000Z</time>
      </trkpt>
      <trkpt lat="43.58427" lon="3.75524">
        <ele>61.904191555572</ele>
        <time>2020-10-09T14:23:14.000Z</time>
      </trkpt>
      <trkpt lat="43.5843" lon="3.75534">
        <ele>61.604790166732</ele>
        <time>2020-10-09T14:23:15.000Z</time>
      </trkpt>
      <trkpt lat="43.58433" lon="3.75543">
        <ele>61.305388777893</ele>
        <time>2020-10-09T14:23:16.000Z</time>
      </trkpt>
      <trkpt lat="43.58435" lon="3.75553">
        <ele>61.005987389054</ele>
        <time>2020-10-09T14:23:17.000Z</time>
      </trkpt>
      <trkpt lat="43.58435" lon="3.75562">
        <ele>60.706586000215</ele>
        <time>2020-10-09T14:23:18.000Z</time>
      </trkpt>
      <trkpt lat="43.58432" lon="3.75571">
        <ele>60.407184611375</ele>
        <time>2020-10-09T14:23:19.000Z</time>
      </trkpt>
      <trkpt lat="43.58429" lon="3.7558">
        <ele>60.107783222536</ele>
        <time>2020-10-09T14:23:20.000Z</time>
      </trkpt>
      <trkpt lat="43.58426" lon="3.75588">
        <ele>59.808381833697</ele>
        <time>2020-10-09T14:23:21.000Z</time>
      </trkpt>
      <trkpt lat="43.58424" lon="3.75595">
        <ele>59.508980444858</ele>
        <time>2020-10-09T14:23:22.000Z</time>
      </trkpt>
      <trkpt lat="43.58422" lon="3.75603">
        <ele>59.209579056019</ele>
        <time>2020-10-09T14:23:23.000Z</time>
      </trkpt>
      <trkpt lat="43.58419" lon="3.7561">
        <ele>58.969939257754</ele>
        <time>2020-10-09T14:23:24.000Z</time>
      </trkpt>
      <trkpt lat="43.58417" lon="3.75617">
        <ele>58.86973892121</ele>
        <time>2020-10-09T14:23:25.000Z</time>
      </trkpt>
      <trkpt lat="43.58415" lon="3.75623">
        <ele>58.769538584665</ele>
        <time>2020-10-09T14:23:26.000Z</time>
      </trkpt>
      <trkpt lat="43.58413" lon="3.75629">
        <ele>58.66933824812</ele>
        <time>2020-10-09T14:23:27.000Z</time>
      </trkpt>
      <trkpt lat="43.58411" lon="3.75632">
        <ele>58.569137911575</ele>
        <time>2020-10-09T14:23:28.000Z</time>
      </trkpt>
      <trkpt lat="43.58409" lon="3.75634">
        <ele>58.368737238485</ele>
        <time>2020-10-09T14:23:30.000Z</time>
      </trkpt>
      <trkpt lat="43.58406" lon="3.75634">
        <ele>58.06813622885</ele>
        <time>2020-10-09T14:23:33.000Z</time>
      </trkpt>
      <trkpt lat="43.58405" lon="3.75636">
        <ele>57.936</ele>
        <time>2020-10-09T14:23:34.000Z</time>
      </trkpt>
      <trkpt lat="43.58404" lon="3.75639">
        <ele>57.736</ele>
        <time>2020-10-09T14:23:35.000Z</time>
      </trkpt>
      <trkpt lat="43.58403" lon="3.75642">
        <ele>57.536</ele>
        <time>2020-10-09T14:23:36.000Z</time>
      </trkpt>
      <trkpt lat="43.58403" lon="3.75645">
        <ele>57.336</ele>
        <time>2020-10-09T14:23:37.000Z</time>
      </trkpt>
      <trkpt lat="43.58403" lon="3.75648">
        <ele>57.136</ele>
        <time>2020-10-09T14:23:38.000Z</time>
      </trkpt>
      <trkpt lat="43.58403" lon="3.75651">
        <ele>56.936</ele>
        <time>2020-10-09T14:23:39.000Z</time>
      </trkpt>
      <trkpt lat="43.58403" lon="3.75655">
        <ele>56.736</ele>
        <time>2020-10-09T14:23:40.000Z</time>
      </trkpt>
      <trkpt lat="43.58403" lon="3.75659">
        <ele>56.536</ele>
        <time>2020-10-09T14:23:41.000Z</time>
      </trkpt>
      <trkpt lat="43.58403" lon="3.75663">
        <ele>56.336</ele>
        <time>2020-10-09T14:23:42.000Z</time>
      </trkpt>
      <trkpt lat="43.58402" lon="3.75668">
        <ele>56.136</ele>
        <time>2020-10-09T14:23:43.000Z</time>
      </trkpt>
      <trkpt lat="43.584" lon="3.75673">
        <ele>55.968063851857</ele>
        <time>2020-10-09T14:23:44.000Z</time>
      </trkpt>
      <trkpt lat="43.58398" lon="3.75678">
        <ele>55.868263388911</ele>
        <time>2020-10-09T14:23:45.000Z</time>
      </trkpt>
      <trkpt lat="43.58396" lon="3.75683">
        <ele>55.768462925964</ele>
        <time>2020-10-09T14:23:46.000Z</time>
      </trkpt>
      <trkpt lat="43.58393" lon="3.75687">
        <ele>55.668662463018</ele>
        <time>2020-10-09T14:23:47.000Z</time>
      </trkpt>
      <trkpt lat="43.58389" lon="3.75691">
        <ele>55.568862000071</ele>
        <time>2020-10-09T14:23:48.000Z</time>
      </trkpt>
      <trkpt lat="43.58386" lon="3.75695">
        <ele>55.469061537125</ele>
        <time>2020-10-09T14:23:49.000Z</time>
      </trkpt>
      <trkpt lat="43.58382" lon="3.75698">
        <ele>55.369261074179</ele>
        <time>2020-10-09T14:23:50.000Z</time>
      </trkpt>
      <trkpt lat="43.58378" lon="3.75701">
        <ele>55.269460611232</ele>
        <time>2020-10-09T14:23:51.000Z</time>
      </trkpt>
      <trkpt lat="43.58374" lon="3.75704">
        <ele>55.169660148286</ele>
        <time>2020-10-09T14:23:52.000Z</time>
      </trkpt>
      <trkpt lat="43.58369" lon="3.75707">
        <ele>55.06985968534</ele>
        <time>2020-10-09T14:23:53.000Z</time>
      </trkpt>
      <trkpt lat="43.58364" lon="3.7571">
        <ele>54.939878515509</ele>
        <time>2020-10-09T14:23:54.000Z</time>
      </trkpt>
      <trkpt lat="43.58359" lon="3.75714">
        <ele>54.739477842419</ele>
        <time>2020-10-09T14:23:55.000Z</time>
      </trkpt>
      <trkpt lat="43.58354" lon="3.75717">
        <ele>54.539077169329</ele>
        <time>2020-10-09T14:23:56.000Z</time>
      </trkpt>
      <trkpt lat="43.5835" lon="3.75722">
        <ele>54.33867649624</ele>
        <time>2020-10-09T14:23:57.000Z</time>
      </trkpt>
      <trkpt lat="43.58347" lon="3.75727">
        <ele>54.13827582315</ele>
        <time>2020-10-09T14:23:58.000Z</time>
      </trkpt>
      <trkpt lat="43.58345" lon="3.75732">
        <ele>53.93787515006</ele>
        <time>2020-10-09T14:23:59.000Z</time>
      </trkpt>
      <trkpt lat="43.58343" lon="3.75737">
        <ele>53.73747447697</ele>
        <time>2020-10-09T14:24:00.000Z</time>
      </trkpt>
      <trkpt lat="43.58343" lon="3.75741">
        <ele>53.537073803881</ele>
        <time>2020-10-09T14:24:01.000Z</time>
      </trkpt>
      <trkpt lat="43.58341" lon="3.75744">
        <ele>53.336673130791</ele>
        <time>2020-10-09T14:24:02.000Z</time>
      </trkpt>
      <trkpt lat="43.58339" lon="3.75749">
        <ele>53.136272457701</ele>
        <time>2020-10-09T14:24:03.000Z</time>
      </trkpt>
      <trkpt lat="43.58338" lon="3.75754">
        <ele>53</ele>
        <time>2020-10-09T14:24:04.000Z</time>
      </trkpt>
      <trkpt lat="43.58336" lon="3.7576">
        <ele>53</ele>
        <time>2020-10-09T14:24:05.000Z</time>
      </trkpt>
      <trkpt lat="43.58334" lon="3.75765">
        <ele>53</ele>
        <time>2020-10-09T14:24:06.000Z</time>
      </trkpt>
      <trkpt lat="43.58332" lon="3.75771">
        <ele>53</ele>
        <time>2020-10-09T14:24:07.000Z</time>
      </trkpt>
      <trkpt lat="43.5833" lon="3.75778">
        <ele>53</ele>
        <time>2020-10-09T14:24:08.000Z</time>
      </trkpt>
      <trkpt lat="43.58329" lon="3.75784">
        <ele>53</ele>
        <time>2020-10-09T14:24:09.000Z</time>
      </trkpt>
      <trkpt lat="43.58328" lon="3.7579">
        <ele>53</ele>
        <time>2020-10-09T14:24:10.000Z</time>
      </trkpt>
      <trkpt lat="43.58326" lon="3.75797">
        <ele>53</ele>
        <time>2020-10-09T14:24:11.000Z</time>
      </trkpt>
      <trkpt lat="43.58325" lon="3.75802">
        <ele>53</ele>
        <time>2020-10-09T14:24:12.000Z</time>
      </trkpt>
      <trkpt lat="43.58324" lon="3.75808">
        <ele>53</ele>
        <time>2020-10-09T14:24:13.000Z</time>
      </trkpt>
      <trkpt lat="43.58323" lon="3.75814">
        <ele>53</ele>
        <time>2020-10-09T14:24:14.000Z</time>
      </trkpt>
      <trkpt lat="43.58322" lon="3.7582">
        <ele>53</ele>
        <time>2020-10-09T14:24:15.000Z</time>
      </trkpt>
      <trkpt lat="43.5832" lon="3.75826">
        <ele>53</ele>
        <time>2020-10-09T14:24:16.000Z</time>
      </trkpt>
      <trkpt lat="43.58319" lon="3.75831">
        <ele>53</ele>
        <time>2020-10-09T14:24:17.000Z</time>
      </trkpt>
      <trkpt lat="43.58319" lon="3.75837">
        <ele>53</ele>
        <time>2020-10-09T14:24:18.000Z</time>
      </trkpt>
      <trkpt lat="43.58318" lon="3.75842">
        <ele>53</ele>
        <time>2020-10-09T14:24:19.000Z</time>
      </trkpt>
      <trkpt lat="43.58317" lon="3.75846">
        <ele>53</ele>
        <time>2020-10-09T14:24:20.000Z</time>
      </trkpt>
      <trkpt lat="43.58316" lon="3.7585">
        <ele>53</ele>
        <time>2020-10-09T14:24:22.000Z</time>
      </trkpt>
      <trkpt lat="43.58313" lon="3.75849">
        <ele>52.969939257754</ele>
        <time>2020-10-09T14:24:24.000Z</time>
      </trkpt>
      <trkpt lat="43.5831" lon="3.75847">
        <ele>52.86973892121</ele>
        <time>2020-10-09T14:24:25.000Z</time>
      </trkpt>
      <trkpt lat="43.58308" lon="3.75843">
        <ele>52.769538584665</ele>
        <time>2020-10-09T14:24:26.000Z</time>
      </trkpt>
      <trkpt lat="43.58306" lon="3.7584">
        <ele>52.66933824812</ele>
        <time>2020-10-09T14:24:27.000Z</time>
      </trkpt>
      <trkpt lat="43.58304" lon="3.75837">
        <ele>52.569137911575</ele>
        <time>2020-10-09T14:24:28.000Z</time>
      </trkpt>
      <trkpt lat="43.58301" lon="3.75834">
        <ele>52.46893757503</ele>
        <time>2020-10-09T14:24:29.000Z</time>
      </trkpt>
      <trkpt lat="43.58298" lon="3.75834">
        <ele>52.368737238485</ele>
        <time>2020-10-09T14:24:30.000Z</time>
      </trkpt>
      <trkpt lat="43.58295" lon="3.75836">
        <ele>52.26853690194</ele>
        <time>2020-10-09T14:24:31.000Z</time>
      </trkpt>
      <trkpt lat="43.58292" lon="3.75839">
        <ele>52.168336565395</ele>
        <time>2020-10-09T14:24:32.000Z</time>
      </trkpt>
      <trkpt lat="43.5829" lon="3.75843">
        <ele>52.06813622885</ele>
        <time>2020-10-09T14:24:33.000Z</time>
      </trkpt>
      <trkpt lat="43.58287" lon="3.75846">
        <ele>52</ele>
        <time>2020-10-09T14:24:34.000Z</time>
      </trkpt>
      <trkpt lat="43.58285" lon="3.75849">
        <ele>52</ele>
        <time>2020-10-09T14:24:35.000Z</time>
      </trkpt>
      <trkpt lat="43.58283" lon="3.75852">
        <ele>52</ele>
        <time>2020-10-09T14:24:37.000Z</time>
      </trkpt>
      <trkpt lat="43.58281" lon="3.75854">
        <ele>52</ele>
        <time>2020-10-09T14:24:38.000Z</time>
      </trkpt>
      <trkpt lat="43.58279" lon="3.75855">
        <ele>52</ele>
        <time>2020-10-09T14:24:39.000Z</time>
      </trkpt>
      <trkpt lat="43.58277" lon="3.75857">
        <ele>52</ele>
        <time>2020-10-09T14:24:40.000Z</time>
      </trkpt>
      <trkpt lat="43.58274" lon="3.75859">
        <ele>52</ele>
        <time>2020-10-09T14:24:41.000Z</time>
      </trkpt>
      <trkpt lat="43.58272" lon="3.75863">
        <ele>52</ele>
        <time>2020-10-09T14:24:42.000Z</time>
      </trkpt>
      <trkpt lat="43.58269" lon="3.75866">
        <ele>52</ele>
        <time>2020-10-09T14:24:43.000Z</time>
      </trkpt>
      <trkpt lat="43.58266" lon="3.75869">
        <ele>51.969960930233</ele>
        <time>2020-10-09T14:24:44.000Z</time>
      </trkpt>
      <trkpt lat="43.58262" lon="3.75872">
        <ele>51.873061705426</ele>
        <time>2020-10-09T14:24:45.000Z</time>
      </trkpt>
      <trkpt lat="43.58259" lon="3.75875">
        <ele>51.77616248062</ele>
        <time>2020-10-09T14:24:46.000Z</time>
      </trkpt>
      <trkpt lat="43.58256" lon="3.75879">
        <ele>51.679263255814</ele>
        <time>2020-10-09T14:24:47.000Z</time>
      </trkpt>
      <trkpt lat="43.58253" lon="3.75883">
        <ele>51.582364031008</ele>
        <time>2020-10-09T14:24:48.000Z</time>
      </trkpt>
      <trkpt lat="43.58251" lon="3.75887">
        <ele>51.485464806201</ele>
        <time>2020-10-09T14:24:49.000Z</time>
      </trkpt>
      <trkpt lat="43.58248" lon="3.75892">
        <ele>51.388565581395</ele>
        <time>2020-10-09T14:24:50.000Z</time>
      </trkpt>
      <trkpt lat="43.58244" lon="3.75895">
        <ele>51.291666356589</ele>
        <time>2020-10-09T14:24:51.000Z</time>
      </trkpt>
      <trkpt lat="43.58241" lon="3.75899">
        <ele>51.194767131783</ele>
        <time>2020-10-09T14:24:52.000Z</time>
      </trkpt>
      <trkpt lat="43.58238" lon="3.75902">
        <ele>51.097867906977</ele>
        <time>2020-10-09T14:24:53.000Z</time>
      </trkpt>
      <trkpt lat="43.58236" lon="3.75907">
        <ele>51.000968682171</ele>
        <time>2020-10-09T14:24:54.000Z</time>
      </trkpt>
      <trkpt lat="43.58233" lon="3.75912">
        <ele>50.801204176707</ele>
        <time>2020-10-09T14:24:55.000Z</time>
      </trkpt>
      <trkpt lat="43.5823" lon="3.75917">
        <ele>50.600400963855</ele>
        <time>2020-10-09T14:24:56.000Z</time>
      </trkpt>
      <trkpt lat="43.58228" lon="3.75921">
        <ele>50.399597751004</ele>
        <time>2020-10-09T14:24:57.000Z</time>
      </trkpt>
      <trkpt lat="43.58225" lon="3.75926">
        <ele>50.198794538153</ele>
        <time>2020-10-09T14:24:58.000Z</time>
      </trkpt>
      <trkpt lat="43.58223" lon="3.7593">
        <ele>49.997991325301</ele>
        <time>2020-10-09T14:24:59.000Z</time>
      </trkpt>
      <trkpt lat="43.58221" lon="3.75935">
        <ele>49.79718811245</ele>
        <time>2020-10-09T14:25:00.000Z</time>
      </trkpt>
      <trkpt lat="43.58219" lon="3.75939">
        <ele>49.596384899598</ele>
        <time>2020-10-09T14:25:01.000Z</time>
      </trkpt>
      <trkpt lat="43.58217" lon="3.75944">
        <ele>49.395581686747</ele>
        <time>2020-10-09T14:25:02.000Z</time>
      </trkpt>
      <trkpt lat="43.58215" lon="3.75949">
        <ele>49.194778473896</ele>
        <time>2020-10-09T14:25:03.000Z</time>
      </trkpt>
      <trkpt lat="43.58213" lon="3.75954">
        <ele>49</ele>
        <time>2020-10-09T14:25:04.000Z</time>
      </trkpt>
      <trkpt lat="43.58211" lon="3.75959">
        <ele>49</ele>
        <time>2020-10-09T14:25:05.000Z</time>
      </trkpt>
      <trkpt lat="43.58209" lon="3.75964">
        <ele>49</ele>
        <time>2020-10-09T14:25:06.000Z</time>
      </trkpt>
      <trkpt lat="43.58208" lon="3.75969">
        <ele>49</ele>
        <time>2020-10-09T14:25:07.000Z</time>
      </trkpt>
      <trkpt lat="43.58206" lon="3.75974">
        <ele>49</ele>
        <time>2020-10-09T14:25:08.000Z</time>
      </trkpt>
      <trkpt lat="43.58203" lon="3.75979">
        <ele>49</ele>
        <time>2020-10-09T14:25:09.000Z</time>
      </trkpt>
      <trkpt lat="43.58201" lon="3.75984">
        <ele>49</ele>
        <time>2020-10-09T14:25:10.000Z</time>
      </trkpt>
      <trkpt lat="43.58198" lon="3.75989">
        <ele>49</ele>
        <time>2020-10-09T14:25:11.000Z</time>
      </trkpt>
      <trkpt lat="43.58196" lon="3.75994">
        <ele>49</ele>
        <time>2020-10-09T14:25:12.000Z</time>
      </trkpt>
      <trkpt lat="43.58193" lon="3.75999">
        <ele>49</ele>
        <time>2020-10-09T14:25:13.000Z</time>
      </trkpt>
      <trkpt lat="43.58191" lon="3.76004">
        <ele>49</ele>
        <time>2020-10-09T14:25:14.000Z</time>
      </trkpt>
      <trkpt lat="43.58188" lon="3.76008">
        <ele>49</ele>
        <time>2020-10-09T14:25:15.000Z</time>
      </trkpt>
      <trkpt lat="43.58187" lon="3.76013">
        <ele>49</ele>
        <time>2020-10-09T14:25:16.000Z</time>
      </trkpt>
      <trkpt lat="43.58186" lon="3.76016">
        <ele>49</ele>
        <time>2020-10-09T14:25:17.000Z</time>
      </trkpt>
      <trkpt lat="43.58185" lon="3.7602">
        <ele>49</ele>
        <time>2020-10-09T14:25:18.000Z</time>
      </trkpt>
      <trkpt lat="43.58185" lon="3.76024">
        <ele>49</ele>
        <time>2020-10-09T14:25:19.000Z</time>
      </trkpt>
      <trkpt lat="43.58186" lon="3.76028">
        <ele>49</ele>
        <time>2020-10-09T14:25:20.000Z</time>
      </trkpt>
      <trkpt lat="43.58188" lon="3.7603">
        <ele>49</ele>
        <time>2020-10-09T14:25:21.000Z</time>
      </trkpt>
      <trkpt lat="43.58191" lon="3.76032">
        <ele>49</ele>
        <time>2020-10-09T14:25:22.000Z</time>
      </trkpt>
      <trkpt lat="43.58194" lon="3.76033">
        <ele>49</ele>
        <time>2020-10-09T14:25:23.000Z</time>
      </trkpt>
      <trkpt lat="43.58197" lon="3.76035">
        <ele>49</ele>
        <time>2020-10-09T14:25:24.000Z</time>
      </trkpt>
      <trkpt lat="43.58199" lon="3.76037">
        <ele>49</ele>
        <time>2020-10-09T14:25:25.000Z</time>
      </trkpt>
      <trkpt lat="43.58202" lon="3.76039">
        <ele>49</ele>
        <time>2020-10-09T14:25:26.000Z</time>
      </trkpt>
      <trkpt lat="43.58204" lon="3.7604">
        <ele>49</ele>
        <time>2020-10-09T14:25:27.000Z</time>
      </trkpt>
      <trkpt lat="43.58206" lon="3.76042">
        <ele>49</ele>
        <time>2020-10-09T14:25:28.000Z</time>
      </trkpt>
      <trkpt lat="43.58208" lon="3.76044">
        <ele>49</ele>
        <time>2020-10-09T14:25:29.000Z</time>
      </trkpt>
      <trkpt lat="43.58209" lon="3.76046">
        <ele>49</ele>
        <time>2020-10-09T14:25:31.000Z</time>
      </trkpt>
      <trkpt lat="43.58208" lon="3.76051">
        <ele>49</ele>
        <time>2020-10-09T14:25:33.000Z</time>
      </trkpt>
      <trkpt lat="43.58205" lon="3.76051">
        <ele>48.868</ele>
        <time>2020-10-09T14:25:35.000Z</time>
      </trkpt>
      <trkpt lat="43.58204" lon="3.76049">
        <ele>48.768</ele>
        <time>2020-10-09T14:25:36.000Z</time>
      </trkpt>
      <trkpt lat="43.58202" lon="3.76048">
        <ele>48.568</ele>
        <time>2020-10-09T14:25:38.000Z</time>
      </trkpt>
      <trkpt lat="43.58201" lon="3.76051">
        <ele>48.168</ele>
        <time>2020-10-09T14:25:42.000Z</time>
      </trkpt>
      <trkpt lat="43.58204" lon="3.76052">
        <ele>47.968871595331</ele>
        <time>2020-10-09T14:25:44.000Z</time>
      </trkpt>
      <trkpt lat="43.58205" lon="3.76056">
        <ele>47.774319066148</ele>
        <time>2020-10-09T14:25:46.000Z</time>
      </trkpt>
      <trkpt lat="43.58201" lon="3.76055">
        <ele>47.579766536965</ele>
        <time>2020-10-09T14:25:48.000Z</time>
      </trkpt>
      <trkpt lat="43.58198" lon="3.76054">
        <ele>47.482490272373</ele>
        <time>2020-10-09T14:25:49.000Z</time>
      </trkpt>
      <trkpt lat="43.58195" lon="3.76055">
        <ele>47.385214007782</ele>
        <time>2020-10-09T14:25:50.000Z</time>
      </trkpt>
      <trkpt lat="43.58192" lon="3.76057">
        <ele>47.287937743191</ele>
        <time>2020-10-09T14:25:51.000Z</time>
      </trkpt>
      <trkpt lat="43.58189" lon="3.76062">
        <ele>47.190661478599</ele>
        <time>2020-10-09T14:25:52.000Z</time>
      </trkpt>
      <trkpt lat="43.58186" lon="3.76067">
        <ele>47.093385214008</ele>
        <time>2020-10-09T14:25:53.000Z</time>
      </trkpt>
      <trkpt lat="43.58182" lon="3.76073">
        <ele>47</ele>
        <time>2020-10-09T14:25:54.000Z</time>
      </trkpt>
      <trkpt lat="43.58179" lon="3.76079">
        <ele>47</ele>
        <time>2020-10-09T14:25:55.000Z</time>
      </trkpt>
      <trkpt lat="43.58176" lon="3.76086">
        <ele>47</ele>
        <time>2020-10-09T14:25:56.000Z</time>
      </trkpt>
      <trkpt lat="43.58174" lon="3.76092">
        <ele>47</ele>
        <time>2020-10-09T14:25:57.000Z</time>
      </trkpt>
      <trkpt lat="43.58171" lon="3.76098">
        <ele>47</ele>
        <time>2020-10-09T14:25:58.000Z</time>
      </trkpt>
      <trkpt lat="43.58168" lon="3.76103">
        <ele>47</ele>
        <time>2020-10-09T14:25:59.000Z</time>
      </trkpt>
      <trkpt lat="43.58165" lon="3.76108">
        <ele>47</ele>
        <time>2020-10-09T14:26:00.000Z</time>
      </trkpt>
      <trkpt lat="43.58163" lon="3.76113">
        <ele>47</ele>
        <time>2020-10-09T14:26:01.000Z</time>
      </trkpt>
      <trkpt lat="43.5816" lon="3.76118">
        <ele>47</ele>
        <time>2020-10-09T14:26:02.000Z</time>
      </trkpt>
      <trkpt lat="43.58157" lon="3.76122">
        <ele>47</ele>
        <time>2020-10-09T14:26:03.000Z</time>
      </trkpt>
      <trkpt lat="43.58155" lon="3.76126">
        <ele>47.031037817719</ele>
        <time>2020-10-09T14:26:04.000Z</time>
      </trkpt>
      <trkpt lat="43.58153" lon="3.7613">
        <ele>47.128030998089</ele>
        <time>2020-10-09T14:26:05.000Z</time>
      </trkpt>
      <trkpt lat="43.58151" lon="3.76134">
        <ele>47.22502417846</ele>
        <time>2020-10-09T14:26:06.000Z</time>
      </trkpt>
      <trkpt lat="43.58149" lon="3.76139">
        <ele>47.322017358831</ele>
        <time>2020-10-09T14:26:07.000Z</time>
      </trkpt>
      <trkpt lat="43.58147" lon="3.76144">
        <ele>47.419010539201</ele>
        <time>2020-10-09T14:26:08.000Z</time>
      </trkpt>
      <trkpt lat="43.58144" lon="3.76149">
        <ele>47.516003719572</ele>
        <time>2020-10-09T14:26:09.000Z</time>
      </trkpt>
      <trkpt lat="43.58141" lon="3.76154">
        <ele>47.612996899943</ele>
        <time>2020-10-09T14:26:10.000Z</time>
      </trkpt>
      <trkpt lat="43.58138" lon="3.76158">
        <ele>47.709990080314</ele>
        <time>2020-10-09T14:26:11.000Z</time>
      </trkpt>
      <trkpt lat="43.58134" lon="3.76162">
        <ele>47.806983260684</ele>
        <time>2020-10-09T14:26:12.000Z</time>
      </trkpt>
      <trkpt lat="43.58131" lon="3.76165">
        <ele>47.903976441055</ele>
        <time>2020-10-09T14:26:13.000Z</time>
      </trkpt>
      <trkpt lat="43.58128" lon="3.76169">
        <ele>47.998970462422</ele>
        <time>2020-10-09T14:26:14.000Z</time>
      </trkpt>
      <trkpt lat="43.58125" lon="3.76173">
        <ele>47.895983748861</ele>
        <time>2020-10-09T14:26:15.000Z</time>
      </trkpt>
      <trkpt lat="43.58123" lon="3.76177">
        <ele>47.792997035301</ele>
        <time>2020-10-09T14:26:16.000Z</time>
      </trkpt>
      <trkpt lat="43.58122" lon="3.76182">
        <ele>47.69001032174</ele>
        <time>2020-10-09T14:26:17.000Z</time>
      </trkpt>
      <trkpt lat="43.58121" lon="3.76186">
        <ele>47.58702360818</ele>
        <time>2020-10-09T14:26:18.000Z</time>
      </trkpt>
      <trkpt lat="43.58121" lon="3.76191">
        <ele>47.484036894619</ele>
        <time>2020-10-09T14:26:19.000Z</time>
      </trkpt>
      <trkpt lat="43.58121" lon="3.76195">
        <ele>47.381050181059</ele>
        <time>2020-10-09T14:26:20.000Z</time>
      </trkpt>
      <trkpt lat="43.58122" lon="3.76198">
        <ele>47.278063467498</ele>
        <time>2020-10-09T14:26:21.000Z</time>
      </trkpt>
      <trkpt lat="43.58122" lon="3.76201">
        <ele>47.175076753938</ele>
        <time>2020-10-09T14:26:22.000Z</time>
      </trkpt>
      <trkpt lat="43.58123" lon="3.76204">
        <ele>47.072090040377</ele>
        <time>2020-10-09T14:26:23.000Z</time>
      </trkpt>
      <trkpt lat="43.58125" lon="3.76207">
        <ele>46.970873183147</ele>
        <time>2020-10-09T14:26:24.000Z</time>
      </trkpt>
      <trkpt lat="43.58127" lon="3.7621">
        <ele>46.873785864832</ele>
        <time>2020-10-09T14:26:25.000Z</time>
      </trkpt>
      <trkpt lat="43.58129" lon="3.76214">
        <ele>46.776698546517</ele>
        <time>2020-10-09T14:26:26.000Z</time>
      </trkpt>
      <trkpt lat="43.58131" lon="3.76219">
        <ele>46.679611228203</ele>
        <time>2020-10-09T14:26:27.000Z</time>
      </trkpt>
      <trkpt lat="43.58132" lon="3.76225">
        <ele>46.582523909888</ele>
        <time>2020-10-09T14:26:28.000Z</time>
      </trkpt>
      <trkpt lat="43.58135" lon="3.7623">
        <ele>46.485436591573</ele>
        <time>2020-10-09T14:26:29.000Z</time>
      </trkpt>
      <trkpt lat="43.58137" lon="3.76235">
        <ele>46.388349273259</ele>
        <time>2020-10-09T14:26:30.000Z</time>
      </trkpt>
      <trkpt lat="43.58138" lon="3.7624">
        <ele>46.291261954944</ele>
        <time>2020-10-09T14:26:31.000Z</time>
      </trkpt>
      <trkpt lat="43.58139" lon="3.76243">
        <ele>46.194174636629</ele>
        <time>2020-10-09T14:26:32.000Z</time>
      </trkpt>
      <trkpt lat="43.58141" lon="3.76244">
        <ele>46</ele>
        <time>2020-10-09T14:26:34.000Z</time>
      </trkpt>
      <trkpt lat="43.58143" lon="3.76245">
        <ele>45.690082644628</ele>
        <time>2020-10-09T14:26:37.000Z</time>
      </trkpt>
      <trkpt lat="43.58143" lon="3.76247">
        <ele>45.48347107438</ele>
        <time>2020-10-09T14:26:39.000Z</time>
      </trkpt>
      <trkpt lat="43.58139" lon="3.76245">
        <ele>45.276859504132</ele>
        <time>2020-10-09T14:26:41.000Z</time>
      </trkpt>
      <trkpt lat="43.58138" lon="3.76242">
        <ele>45.070247933884</ele>
        <time>2020-10-09T14:26:43.000Z</time>
      </trkpt>
      <trkpt lat="43.58136" lon="3.76239">
        <ele>45.032</ele>
        <time>2020-10-09T14:26:44.000Z</time>
      </trkpt>
      <trkpt lat="43.58135" lon="3.76237">
        <ele>45.132</ele>
        <time>2020-10-09T14:26:45.000Z</time>
      </trkpt>
      <trkpt lat="43.58135" lon="3.76232">
        <ele>45.332</ele>
        <time>2020-10-09T14:26:47.000Z</time>
      </trkpt>
      <trkpt lat="43.58136" lon="3.76228">
        <ele>45.532</ele>
        <time>2020-10-09T14:26:49.000Z</time>
      </trkpt>
      <trkpt lat="43.58138" lon="3.76227">
        <ele>45.632</ele>
        <time>2020-10-09T14:26:50.000Z</time>
      </trkpt>
      <trkpt lat="43.5814" lon="3.76225">
        <ele>45.732</ele>
        <time>2020-10-09T14:26:51.000Z</time>
      </trkpt>
      <trkpt lat="43.58142" lon="3.76223">
        <ele>45.832</ele>
        <time>2020-10-09T14:26:52.000Z</time>
      </trkpt>
      <trkpt lat="43.58145" lon="3.76219">
        <ele>46.032</ele>
        <time>2020-10-09T14:26:54.000Z</time>
      </trkpt>
      <trkpt lat="43.58147" lon="3.76217">
        <ele>46.132</ele>
        <time>2020-10-09T14:26:55.000Z</time>
      </trkpt>
      <trkpt lat="43.58148" lon="3.76215">
        <ele>46.232</ele>
        <time>2020-10-09T14:26:56.000Z</time>
      </trkpt>
      <trkpt lat="43.5815" lon="3.76213">
        <ele>46.332</ele>
        <time>2020-10-09T14:26:57.000Z</time>
      </trkpt>
      <trkpt lat="43.58151" lon="3.76211">
        <ele>46.432</ele>
        <time>2020-10-09T14:26:58.000Z</time>
      </trkpt>
      <trkpt lat="43.58153" lon="3.76208">
        <ele>46.532</ele>
        <time>2020-10-09T14:26:59.000Z</time>
      </trkpt>
      <trkpt lat="43.58155" lon="3.76207">
        <ele>46.632</ele>
        <time>2020-10-09T14:27:00.000Z</time>
      </trkpt>
      <trkpt lat="43.58157" lon="3.76205">
        <ele>46.732</ele>
        <time>2020-10-09T14:27:01.000Z</time>
      </trkpt>
      <trkpt lat="43.58159" lon="3.76202">
        <ele>46.932</ele>
        <time>2020-10-09T14:27:03.000Z</time>
      </trkpt>
      <trkpt lat="43.58169" lon="3.76205">
        <ele>47</ele>
        <time>2020-10-09T14:27:07.000Z</time>
      </trkpt>
      <trkpt lat="43.58175" lon="3.76208">
        <ele>47</ele>
        <time>2020-10-09T14:27:10.000Z</time>
      </trkpt>
      <trkpt lat="43.58178" lon="3.76207">
        <ele>47</ele>
        <time>2020-10-09T14:27:11.000Z</time>
      </trkpt>
      <trkpt lat="43.5818" lon="3.76207">
        <ele>47</ele>
        <time>2020-10-09T14:27:12.000Z</time>
      </trkpt>
      <trkpt lat="43.58183" lon="3.76206">
        <ele>47</ele>
        <time>2020-10-09T14:27:13.000Z</time>
      </trkpt>
      <trkpt lat="43.58186" lon="3.76203">
        <ele>47.004106778879</ele>
        <time>2020-10-09T14:27:14.000Z</time>
      </trkpt>
      <trkpt lat="43.58188" lon="3.76202">
        <ele>47.106776250859</ele>
        <time>2020-10-09T14:27:15.000Z</time>
      </trkpt>
      <trkpt lat="43.58191" lon="3.76201">
        <ele>47.312115194819</ele>
        <time>2020-10-09T14:27:17.000Z</time>
      </trkpt>
      <trkpt lat="43.58194" lon="3.762">
        <ele>47.517454138779</ele>
        <time>2020-10-09T14:27:19.000Z</time>
      </trkpt>
      <trkpt lat="43.58196" lon="3.76197">
        <ele>47.722793082739</ele>
        <time>2020-10-09T14:27:21.000Z</time>
      </trkpt>
      <trkpt lat="43.58198" lon="3.76195">
        <ele>47.928132026699</ele>
        <time>2020-10-09T14:27:23.000Z</time>
      </trkpt>
      <trkpt lat="43.582" lon="3.76192">
        <ele>48.13026107879</ele>
        <time>2020-10-09T14:27:25.000Z</time>
      </trkpt>
      <trkpt lat="43.58202" lon="3.76189">
        <ele>48.33066175188</ele>
        <time>2020-10-09T14:27:27.000Z</time>
      </trkpt>
      <trkpt lat="43.58205" lon="3.76185">
        <ele>48.53106242497</ele>
        <time>2020-10-09T14:27:29.000Z</time>
      </trkpt>
      <trkpt lat="43.58207" lon="3.76182">
        <ele>48.73146309806</ele>
        <time>2020-10-09T14:27:31.000Z</time>
      </trkpt>
      <trkpt lat="43.58209" lon="3.7618">
        <ele>48.93186377115</ele>
        <time>2020-10-09T14:27:33.000Z</time>
      </trkpt>
      <trkpt lat="43.58212" lon="3.76177">
        <ele>49.264</ele>
        <time>2020-10-09T14:27:35.000Z</time>
      </trkpt>
      <trkpt lat="43.58214" lon="3.76176">
        <ele>49.664</ele>
        <time>2020-10-09T14:27:37.000Z</time>
      </trkpt>
      <trkpt lat="43.58215" lon="3.76177">
        <ele>50.064</ele>
        <time>2020-10-09T14:27:39.000Z</time>
      </trkpt>
      <trkpt lat="43.58217" lon="3.76179">
        <ele>50.664</ele>
        <time>2020-10-09T14:27:42.000Z</time>
      </trkpt>
      <trkpt lat="43.58219" lon="3.76174">
        <ele>51.031341831567</ele>
        <time>2020-10-09T14:27:44.000Z</time>
      </trkpt>
      <trkpt lat="43.5822" lon="3.76172">
        <ele>51.129285055212</ele>
        <time>2020-10-09T14:27:45.000Z</time>
      </trkpt>
      <trkpt lat="43.58221" lon="3.7617">
        <ele>51.227228278857</ele>
        <time>2020-10-09T14:27:46.000Z</time>
      </trkpt>
      <trkpt lat="43.58222" lon="3.76168">
        <ele>51.325171502502</ele>
        <time>2020-10-09T14:27:47.000Z</time>
      </trkpt>
      <trkpt lat="43.58224" lon="3.76167">
        <ele>51.423114726148</ele>
        <time>2020-10-09T14:27:48.000Z</time>
      </trkpt>
      <trkpt lat="43.58227" lon="3.76166">
        <ele>51.619001173438</ele>
        <time>2020-10-09T14:27:50.000Z</time>
      </trkpt>
      <trkpt lat="43.5823" lon="3.76165">
        <ele>51.814887620729</ele>
        <time>2020-10-09T14:27:52.000Z</time>
      </trkpt>
      <trkpt lat="43.58232" lon="3.76163">
        <ele>52</ele>
        <time>2020-10-09T14:27:54.000Z</time>
      </trkpt>
      <trkpt lat="43.58234" lon="3.76162">
        <ele>52</ele>
        <time>2020-10-09T14:27:56.000Z</time>
      </trkpt>
      <trkpt lat="43.58236" lon="3.76161">
        <ele>52</ele>
        <time>2020-10-09T14:28:03.000Z</time>
      </trkpt>
      <trkpt lat="43.5823" lon="3.76163">
        <ele>52.014359626056</ele>
        <time>2020-10-09T14:28:08.000Z</time>
      </trkpt>
      <trkpt lat="43.58226" lon="3.76168">
        <ele>52.424615901665</ele>
        <time>2020-10-09T14:28:10.000Z</time>
      </trkpt>
      <trkpt lat="43.58218" lon="3.76176">
        <ele>53.040000315077</ele>
        <time>2020-10-09T14:28:13.000Z</time>
      </trkpt>
      <trkpt lat="43.58212" lon="3.76177">
        <ele>53.450256590685</ele>
        <time>2020-10-09T14:28:15.000Z</time>
      </trkpt>
      <trkpt lat="43.5821" lon="3.76174">
        <ele>53.655384728489</ele>
        <time>2020-10-09T14:28:16.000Z</time>
      </trkpt>
      <trkpt lat="43.58208" lon="3.7617">
        <ele>53.860512866293</ele>
        <time>2020-10-09T14:28:17.000Z</time>
      </trkpt>
      <trkpt lat="43.58207" lon="3.76167">
        <ele>53.936</ele>
        <time>2020-10-09T14:28:18.000Z</time>
      </trkpt>
      <trkpt lat="43.58206" lon="3.76165">
        <ele>53.736</ele>
        <time>2020-10-09T14:28:19.000Z</time>
      </trkpt>
      <trkpt lat="43.58204" lon="3.76164">
        <ele>53.336</ele>
        <time>2020-10-09T14:28:21.000Z</time>
      </trkpt>
      <trkpt lat="43.58202" lon="3.76166">
        <ele>52.736</ele>
        <time>2020-10-09T14:28:24.000Z</time>
      </trkpt>
      <trkpt lat="43.58201" lon="3.76168">
        <ele>52.136</ele>
        <time>2020-10-09T14:28:27.000Z</time>
      </trkpt>
      <trkpt lat="43.582" lon="3.76171">
        <ele>52.131868174024</ele>
        <time>2020-10-09T14:28:29.000Z</time>
      </trkpt>
      <trkpt lat="43.582" lon="3.76174">
        <ele>52.331668437696</ele>
        <time>2020-10-09T14:28:31.000Z</time>
      </trkpt>
      <trkpt lat="43.58202" lon="3.76174">
        <ele>52.731268965041</ele>
        <time>2020-10-09T14:28:35.000Z</time>
      </trkpt>
      <trkpt lat="43.58202" lon="3.76172">
        <ele>53</ele>
        <time>2020-10-09T14:28:40.000Z</time>
      </trkpt>
      <trkpt lat="43.58203" lon="3.76171">
        <ele>53.018784699454</ele>
        <time>2020-10-09T14:28:43.000Z</time>
      </trkpt>
      <trkpt lat="43.58207" lon="3.76167">
        <ele>57.970970491803</ele>
        <time>2020-10-09T14:29:12.000Z</time>
      </trkpt>
      <trkpt lat="43.5821" lon="3.76171">
        <ele>58.191579491989</ele>
        <time>2020-10-09T14:29:14.000Z</time>
      </trkpt>
      <trkpt lat="43.5821" lon="3.76174">
        <ele>58.296842578969</ele>
        <time>2020-10-09T14:29:15.000Z</time>
      </trkpt>
      <trkpt lat="43.58212" lon="3.76177">
        <ele>58.507368752931</ele>
        <time>2020-10-09T14:29:17.000Z</time>
      </trkpt>
      <trkpt lat="43.58213" lon="3.7618">
        <ele>59</ele>
        <time>2020-10-09T14:29:23.000Z</time>
      </trkpt>
      <trkpt lat="43.5821" lon="3.76177">
        <ele>61.967435535386</ele>
        <time>2020-10-09T14:29:38.000Z</time>
      </trkpt>
      <trkpt lat="43.58209" lon="3.76175">
        <ele>62.944274408842</ele>
        <time>2020-10-09T14:29:40.000Z</time>
      </trkpt>
      <trkpt lat="43.58207" lon="3.76173">
        <ele>67.026366537783</ele>
        <time>2020-10-09T14:29:48.000Z</time>
      </trkpt>
      <trkpt lat="43.58206" lon="3.76173">
        <ele>67.967985556016</ele>
        <time>2020-10-09T14:29:53.000Z</time>
      </trkpt>
      <trkpt lat="43.58213" lon="3.76179">
        <ele>68.987673337528</ele>
        <time>2020-10-09T14:30:06.000Z</time>
      </trkpt>
      <trkpt lat="43.58214" lon="3.76181">
        <ele>69</ele>
        <time>2020-10-09T14:30:07.000Z</time>
      </trkpt>
      <trkpt lat="43.58217" lon="3.76183">
        <ele>69</ele>
        <time>2020-10-09T14:30:09.000Z</time>
      </trkpt>
      <trkpt lat="43.58218" lon="3.76185">
        <ele>69</ele>
        <time>2020-10-09T14:30:11.000Z</time>
      </trkpt>
      <trkpt lat="43.5822" lon="3.76189">
        <ele>69</ele>
        <time>2020-10-09T14:30:13.000Z</time>
      </trkpt>
      <trkpt lat="43.58221" lon="3.76191">
        <ele>69</ele>
        <time>2020-10-09T14:30:14.000Z</time>
      </trkpt>
      <trkpt lat="43.58224" lon="3.76193">
        <ele>69</ele>
        <time>2020-10-09T14:30:16.000Z</time>
      </trkpt>
      <trkpt lat="43.58226" lon="3.76195">
        <ele>69</ele>
        <time>2020-10-09T14:30:18.000Z</time>
      </trkpt>
      <trkpt lat="43.58229" lon="3.76196">
        <ele>69</ele>
        <time>2020-10-09T14:30:20.000Z</time>
      </trkpt>
      <trkpt lat="43.58231" lon="3.76199">
        <ele>69</ele>
        <time>2020-10-09T14:30:22.000Z</time>
      </trkpt>
      <trkpt lat="43.5823" lon="3.76201">
        <ele>69</ele>
        <time>2020-10-09T14:30:27.000Z</time>
      </trkpt>
      <trkpt lat="43.5823" lon="3.76203">
        <ele>69</ele>
        <time>2020-10-09T14:30:31.000Z</time>
      </trkpt>
      <trkpt lat="43.58229" lon="3.7621">
        <ele>68.978504639838</ele>
        <time>2020-10-09T14:30:38.000Z</time>
      </trkpt>
      <trkpt lat="43.58229" lon="3.76213">
        <ele>68.364379566634</ele>
        <time>2020-10-09T14:30:40.000Z</time>
      </trkpt>
      <trkpt lat="43.58228" lon="3.76216">
        <ele>67.75025449343</ele>
        <time>2020-10-09T14:30:42.000Z</time>
      </trkpt>
      <trkpt lat="43.58227" lon="3.7622">
        <ele>67.136129420227</ele>
        <time>2020-10-09T14:30:44.000Z</time>
      </trkpt>
      <trkpt lat="43.58227" lon="3.76223">
        <ele>66.522004347023</ele>
        <time>2020-10-09T14:30:46.000Z</time>
      </trkpt>
      <trkpt lat="43.58227" lon="3.76227">
        <ele>66</ele>
        <time>2020-10-09T14:30:48.000Z</time>
      </trkpt>
      <trkpt lat="43.58228" lon="3.7623">
        <ele>66</ele>
        <time>2020-10-09T14:30:50.000Z</time>
      </trkpt>
      <trkpt lat="43.58228" lon="3.76231">
        <ele>66.008397189472</ele>
        <time>2020-10-09T14:30:55.000Z</time>
      </trkpt>
      <trkpt lat="43.58217" lon="3.76216">
        <ele>68.445708559848</ele>
        <time>2020-10-09T14:32:41.000Z</time>
      </trkpt>
      <trkpt lat="43.58206" lon="3.76207">
        <ele>68.85935888832</ele>
        <time>2020-10-09T14:32:43.000Z</time>
      </trkpt>
      <trkpt lat="43.58222" lon="3.76226">
        <ele>69.689066459881</ele>
        <time>2020-10-09T14:32:56.000Z</time>
      </trkpt>
      <trkpt lat="43.58223" lon="3.76232">
        <ele>71.193580483396</ele>
        <time>2020-10-09T14:33:01.000Z</time>
      </trkpt>
      <trkpt lat="43.58225" lon="3.7623">
        <ele>71.461956521739</ele>
        <time>2020-10-09T14:33:05.000Z</time>
      </trkpt>
      <trkpt lat="43.58224" lon="3.76229">
        <ele>69.016304347826</ele>
        <time>2020-10-09T14:33:11.000Z</time>
      </trkpt>
      <trkpt lat="43.58222" lon="3.76234">
        <ele>68</ele>
        <time>2020-10-09T14:34:02.000Z</time>
      </trkpt>
      <trkpt lat="43.58223" lon="3.76234">
        <ele>67.999186968257</ele>
        <time>2020-10-09T14:34:07.000Z</time>
      </trkpt>
      <trkpt lat="43.58221" lon="3.7624">
        <ele>67.001404310355</ele>
        <time>2020-10-09T14:36:22.000Z</time>
      </trkpt>
      <trkpt lat="43.58222" lon="3.76239">
        <ele>67</ele>
        <time>2020-10-09T14:36:27.000Z</time>
      </trkpt>
      <trkpt lat="43.58223" lon="3.76239">
        <ele>67</ele>
        <time>2020-10-09T14:36:36.000Z</time>
      </trkpt>
      <trkpt lat="43.58223" lon="3.76239">
        <ele>67</ele>
        <time>2020-10-09T14:36:39.000Z</time>
      </trkpt>
      <trkpt lat="43.58227" lon="3.76236">
        <ele>67</ele>
        <time>2020-10-09T14:36:44.000Z</time>
      </trkpt>
      <trkpt lat="43.58227" lon="3.76236">
        <ele>67</ele>
        <time>2020-10-09T14:36:49.000Z</time>
      </trkpt>
      <trkpt lat="43.58226" lon="3.76235">
        <ele>67</ele>
        <time>2020-10-09T14:36:54.000Z</time>
      </trkpt>
      <trkpt lat="43.58226" lon="3.76234">
        <ele>67</ele>
        <time>2020-10-09T14:36:59.000Z</time>
      </trkpt>
      <trkpt lat="43.58224" lon="3.76225">
        <ele>65</ele>
        <time>2020-10-09T14:37:50.000Z</time>
      </trkpt>
      <trkpt lat="43.58233" lon="3.76218">
        <ele>65</ele>
        <time>2020-10-09T14:37:59.000Z</time>
      </trkpt>
      <trkpt lat="43.58229" lon="3.76225">
        <ele>65</ele>
        <time>2020-10-09T14:38:31.000Z</time>
      </trkpt>
      <trkpt lat="43.58226" lon="3.76228">
        <ele>65</ele>
        <time>2020-10-09T14:38:36.000Z</time>
      </trkpt>
      <trkpt lat="43.58229" lon="3.76215">
        <ele>65</ele>
        <time>2020-10-09T14:39:06.000Z</time>
      </trkpt>
      <trkpt lat="43.58226" lon="3.76228">
        <ele>64.832</ele>
        <time>2020-10-09T14:39:44.000Z</time>
      </trkpt>
      <trkpt lat="43.58224" lon="3.76231">
        <ele>63</ele>
        <time>2020-10-09T14:40:01.000Z</time>
      </trkpt>
      <trkpt lat="43.58225" lon="3.7623">
        <ele>62.05033653619</ele>
        <time>2020-10-09T14:40:04.000Z</time>
      </trkpt>
      <trkpt lat="43.58226" lon="3.7623">
        <ele>62.039934901662</ele>
        <time>2020-10-09T14:40:08.000Z</time>
      </trkpt>
      <trkpt lat="43.58226" lon="3.76231">
        <ele>63.982730703979</ele>
        <time>2020-10-09T14:40:26.000Z</time>
      </trkpt>
      <trkpt lat="43.58233" lon="3.76221">
        <ele>61.007476631042</ele>
        <time>2020-10-09T14:40:51.000Z</time>
      </trkpt>
      <trkpt lat="43.5823" lon="3.76226">
        <ele>58</ele>
        <time>2020-10-09T14:44:00.000Z</time>
      </trkpt>
      <trkpt lat="43.5823" lon="3.76226">
        <ele>58</ele>
        <time>2020-10-09T14:44:05.000Z</time>
      </trkpt>
      <trkpt lat="43.58229" lon="3.7623">
        <ele>57</ele>
        <time>2020-10-09T14:47:12.000Z</time>
      </trkpt>
      <trkpt lat="43.58228" lon="3.76229">
        <ele>57</ele>
        <time>2020-10-09T14:47:17.000Z</time>
      </trkpt>
      <trkpt lat="43.58231" lon="3.76222">
        <ele>57.997745526177</ele>
        <time>2020-10-09T14:48:28.000Z</time>
      </trkpt>
      <trkpt lat="43.5823" lon="3.76224">
        <ele>58</ele>
        <time>2020-10-09T14:48:35.000Z</time>
      </trkpt>
      <trkpt lat="43.58231" lon="3.76226">
        <ele>57.007465824501</ele>
        <time>2020-10-09T14:48:58.000Z</time>
      </trkpt>
      <trkpt lat="43.58231" lon="3.76226">
        <ele>58</ele>
        <time>2020-10-09T14:49:02.000Z</time>
      </trkpt>
      <trkpt lat="43.58229" lon="3.76228">
        <ele>57.98881502555</ele>
        <time>2020-10-09T14:49:14.000Z</time>
      </trkpt>
      <trkpt lat="43.58231" lon="3.76227">
        <ele>57</ele>
        <time>2020-10-09T14:49:23.000Z</time>
      </trkpt>
      <trkpt lat="43.58234" lon="3.76225">
        <ele>57</ele>
        <time>2020-10-09T14:49:58.000Z</time>
      </trkpt>
      <trkpt lat="43.58234" lon="3.76225">
        <ele>57</ele>
        <time>2020-10-09T14:50:01.000Z</time>
      </trkpt>
      <trkpt lat="43.58233" lon="3.76226">
        <ele>57</ele>
        <time>2020-10-09T14:50:32.000Z</time>
      </trkpt>
      <trkpt lat="43.58232" lon="3.76227">
        <ele>57</ele>
        <time>2020-10-09T14:50:37.000Z</time>
      </trkpt>
      <trkpt lat="43.58235" lon="3.76218">
        <ele>57</ele>
        <time>2020-10-09T14:51:00.000Z</time>
      </trkpt>
      <trkpt lat="43.58235" lon="3.76218">
        <ele>57</ele>
        <time>2020-10-09T14:51:05.000Z</time>
      </trkpt>
      <trkpt lat="43.58227" lon="3.7622">
        <ele>57</ele>
        <time>2020-10-09T14:51:30.000Z</time>
      </trkpt>
      <trkpt lat="43.58222" lon="3.76224">
        <ele>57.505807981142</ele>
        <time>2020-10-09T14:51:35.000Z</time>
      </trkpt>
      <trkpt lat="43.58226" lon="3.76212">
        <ele>58</ele>
        <time>2020-10-09T14:51:45.000Z</time>
      </trkpt>
      <trkpt lat="43.58226" lon="3.76225">
        <ele>58</ele>
        <time>2020-10-09T14:52:01.000Z</time>
      </trkpt>
      <trkpt lat="43.58219" lon="3.76235">
        <ele>58.868</ele>
        <time>2020-10-09T14:52:21.000Z</time>
      </trkpt>
      <trkpt lat="43.58227" lon="3.76227">
        <ele>57.368</ele>
        <time>2020-10-09T14:52:46.000Z</time>
      </trkpt>
      <trkpt lat="43.58227" lon="3.76224">
        <ele>57.010000290909</ele>
        <time>2020-10-09T14:52:57.000Z</time>
      </trkpt>
      <trkpt lat="43.58225" lon="3.76227">
        <ele>57.98881502555</ele>
        <time>2020-10-09T14:53:08.000Z</time>
      </trkpt>
      <trkpt lat="43.58226" lon="3.76226">
        <ele>57</ele>
        <time>2020-10-09T14:53:17.000Z</time>
      </trkpt>
      <trkpt lat="43.58223" lon="3.76226">
        <ele>57</ele>
        <time>2020-10-09T14:53:22.000Z</time>
      </trkpt>
      <trkpt lat="43.58224" lon="3.76226">
        <ele>57</ele>
        <time>2020-10-09T14:53:25.000Z</time>
      </trkpt>
      <trkpt lat="43.58225" lon="3.76223">
        <ele>57</ele>
        <time>2020-10-09T14:53:28.000Z</time>
      </trkpt>
      <trkpt lat="43.58226" lon="3.76217">
        <ele>55</ele>
        <time>2020-10-09T14:54:53.000Z</time>
      </trkpt>
      <trkpt lat="43.58224" lon="3.76224">
        <ele>55</ele>
        <time>2020-10-09T14:55:04.000Z</time>
      </trkpt>
      <trkpt lat="43.58225" lon="3.76221">
        <ele>54.008645715985</ele>
        <time>2020-10-09T14:55:27.000Z</time>
      </trkpt>
      <trkpt lat="43.58226" lon="3.76222">
        <ele>54.988472624604</ele>
        <time>2020-10-09T14:55:44.000Z</time>
      </trkpt>
      <trkpt lat="43.58226" lon="3.76221">
        <ele>55</ele>
        <time>2020-10-09T14:55:55.000Z</time>
      </trkpt>
      <trkpt lat="43.58224" lon="3.76222">
        <ele>54.008102805141</ele>
        <time>2020-10-09T14:56:16.000Z</time>
      </trkpt>
      <trkpt lat="43.58222" lon="3.76221">
        <ele>53.988023975044</ele>
        <time>2020-10-09T14:56:29.000Z</time>
      </trkpt>
      <trkpt lat="43.58219" lon="3.76229">
        <ele>54</ele>
        <time>2020-10-09T14:56:40.000Z</time>
      </trkpt>
      <trkpt lat="43.58218" lon="3.76231">
        <ele>54</ele>
        <time>2020-10-09T14:56:44.000Z</time>
      </trkpt>
      <trkpt lat="43.58226" lon="3.76224">
        <ele>53.53944531476</ele>
        <time>2020-10-09T14:57:14.000Z</time>
      </trkpt>
      <trkpt lat="43.58227" lon="3.76224">
        <ele>53.006395910547</ele>
        <time>2020-10-09T14:57:19.000Z</time>
      </trkpt>
      <trkpt lat="43.58228" lon="3.7622">
        <ele>53.989775698831</ele>
        <time>2020-10-09T14:57:26.000Z</time>
      </trkpt>
      <trkpt lat="43.58233" lon="3.76223">
        <ele>48</ele>
        <time>2020-10-09T14:58:13.000Z</time>
      </trkpt>
      <trkpt lat="43.58228" lon="3.76221">
        <ele>48</ele>
        <time>2020-10-09T14:58:30.000Z</time>
      </trkpt>
      <trkpt lat="43.58227" lon="3.76223">
        <ele>44</ele>
        <time>2020-10-09T14:59:23.000Z</time>
      </trkpt>
      <trkpt lat="43.58225" lon="3.76223">
        <ele>44</ele>
        <time>2020-10-09T14:59:26.000Z</time>
      </trkpt>
      <trkpt lat="43.58224" lon="3.76221">
        <ele>44.050001454546</ele>
        <time>2020-10-09T14:59:43.000Z</time>
      </trkpt>
      <trkpt lat="43.5822" lon="3.76228">
        <ele>49.020448602339</ele>
        <time>2020-10-09T14:59:54.000Z</time>
      </trkpt>
      <trkpt lat="43.58222" lon="3.76227">
        <ele>51</ele>
        <time>2020-10-09T15:00:09.000Z</time>
      </trkpt>
      <trkpt lat="43.58219" lon="3.76227">
        <ele>51</ele>
        <time>2020-10-09T15:00:26.000Z</time>
      </trkpt>
      <trkpt lat="43.58218" lon="3.76227">
        <ele>51</ele>
        <time>2020-10-09T15:00:31.000Z</time>
      </trkpt>
      <trkpt lat="43.5822" lon="3.76226">
        <ele>51</ele>
        <time>2020-10-09T15:00:42.000Z</time>
      </trkpt>
      <trkpt lat="43.58222" lon="3.76226">
        <ele>51</ele>
        <time>2020-10-09T15:01:05.000Z</time>
      </trkpt>
      <trkpt lat="43.58227" lon="3.76225">
        <ele>51</ele>
        <time>2020-10-09T15:01:10.000Z</time>
      </trkpt>
      <trkpt lat="43.58226" lon="3.76225">
        <ele>51</ele>
        <time>2020-10-09T15:01:15.000Z</time>
      </trkpt>
      <trkpt lat="43.58223" lon="3.76224">
        <ele>53</ele>
        <time>2020-10-09T15:01:42.000Z</time>
      </trkpt>
      <trkpt lat="43.58232" lon="3.76211">
        <ele>53</ele>
        <time>2020-10-09T15:01:48.000Z</time>
      </trkpt>
      <trkpt lat="43.58225" lon="3.76221">
        <ele>54</ele>
        <time>2020-10-09T15:02:05.000Z</time>
      </trkpt>
      <trkpt lat="43.58228" lon="3.76225">
        <ele>53.004033853579</ele>
        <time>2020-10-09T15:02:37.000Z</time>
      </trkpt>
      <trkpt lat="43.5823" lon="3.76216">
        <ele>53.994132747296</ele>
        <time>2020-10-09T15:03:04.000Z</time>
      </trkpt>
      <trkpt lat="43.58232" lon="3.76213">
        <ele>53.234273481491</ele>
        <time>2020-10-09T15:03:08.000Z</time>
      </trkpt>
      <trkpt lat="43.58226" lon="3.76221">
        <ele>52.711781978802</ele>
        <time>2020-10-09T15:03:21.000Z</time>
      </trkpt>
      <trkpt lat="43.58226" lon="3.76222">
        <ele>53</ele>
        <time>2020-10-09T15:03:43.000Z</time>
      </trkpt>
      <trkpt lat="43.58228" lon="3.76221">
        <ele>53.007179813028</ele>
        <time>2020-10-09T15:03:52.000Z</time>
      </trkpt>
      <trkpt lat="43.58224" lon="3.76224">
        <ele>56</ele>
        <time>2020-10-09T15:04:19.000Z</time>
      </trkpt>
      <trkpt lat="43.58224" lon="3.76225">
        <ele>56</ele>
        <time>2020-10-09T15:04:22.000Z</time>
      </trkpt>
      <trkpt lat="43.58224" lon="3.76226">
        <ele>56.059104980555</ele>
        <time>2020-10-09T15:04:26.000Z</time>
      </trkpt>
      <trkpt lat="43.58222" lon="3.76231">
        <ele>57</ele>
        <time>2020-10-09T15:04:32.000Z</time>
      </trkpt>
      <trkpt lat="43.58222" lon="3.76232">
        <ele>57</ele>
        <time>2020-10-09T15:04:35.000Z</time>
      </trkpt>
      <trkpt lat="43.58221" lon="3.76236">
        <ele>57.989775698831</ele>
        <time>2020-10-09T15:04:40.000Z</time>
      </trkpt>
      <trkpt lat="43.58223" lon="3.76234">
        <ele>57</ele>
        <time>2020-10-09T15:04:51.000Z</time>
      </trkpt>
      <trkpt lat="43.58223" lon="3.76234">
        <ele>56.99632646497</ele>
        <time>2020-10-09T15:04:53.000Z</time>
      </trkpt>
      <trkpt lat="43.58218" lon="3.76244">
        <ele>55.012490583392</ele>
        <time>2020-10-09T15:05:20.000Z</time>
      </trkpt>
      <trkpt lat="43.58217" lon="3.76245">
        <ele>55</ele>
        <time>2020-10-09T15:05:25.000Z</time>
      </trkpt>
      <trkpt lat="43.58219" lon="3.76239">
        <ele>54.007179813028</ele>
        <time>2020-10-09T15:05:34.000Z</time>
      </trkpt>
      <trkpt lat="43.58224" lon="3.76235">
        <ele>54.930256433147</ele>
        <time>2020-10-09T15:05:43.000Z</time>
      </trkpt>
      <trkpt lat="43.58226" lon="3.76236">
        <ele>54.871720076725</ele>
        <time>2020-10-09T15:05:45.000Z</time>
      </trkpt>
      <trkpt lat="43.58223" lon="3.76237">
        <ele>54.094265996273</ele>
        <time>2020-10-09T15:05:53.000Z</time>
      </trkpt>
      <trkpt lat="43.58221" lon="3.76236">
        <ele>54</ele>
        <time>2020-10-09T15:05:57.000Z</time>
      </trkpt>
      <trkpt lat="43.5822" lon="3.76234">
        <ele>54</ele>
        <time>2020-10-09T15:06:00.000Z</time>
      </trkpt>
      <trkpt lat="43.58217" lon="3.76235">
        <ele>54</ele>
        <time>2020-10-09T15:06:03.000Z</time>
      </trkpt>
      <trkpt lat="43.58218" lon="3.76232">
        <ele>54.932</ele>
        <time>2020-10-09T15:06:13.000Z</time>
      </trkpt>
      <trkpt lat="43.58218" lon="3.76232">
        <ele>55</ele>
        <time>2020-10-09T15:06:17.000Z</time>
      </trkpt>
      <trkpt lat="43.58225" lon="3.7623">
        <ele>55</ele>
        <time>2020-10-09T15:06:28.000Z</time>
      </trkpt>
      <trkpt lat="43.58226" lon="3.76229">
        <ele>55</ele>
        <time>2020-10-09T15:06:33.000Z</time>
      </trkpt>
      <trkpt lat="43.58228" lon="3.76232">
        <ele>57</ele>
        <time>2020-10-09T15:06:48.000Z</time>
      </trkpt>
      <trkpt lat="43.58227" lon="3.76234">
        <ele>57</ele>
        <time>2020-10-09T15:06:53.000Z</time>
      </trkpt>
      <trkpt lat="43.58226" lon="3.76235">
        <ele>57.938523278688</ele>
        <time>2020-10-09T15:06:56.000Z</time>
      </trkpt>
      <trkpt lat="43.58226" lon="3.76235">
        <ele>57.159761722626</ele>
        <time>2020-10-09T15:06:59.000Z</time>
      </trkpt>
      <trkpt lat="43.58223" lon="3.76237">
        <ele>58.010224301169</ele>
        <time>2020-10-09T15:07:14.000Z</time>
      </trkpt>
      <trkpt lat="43.58222" lon="3.76236">
        <ele>58.214723412498</ele>
        <time>2020-10-09T15:07:16.000Z</time>
      </trkpt>
      <trkpt lat="43.58224" lon="3.76233">
        <ele>58.623721635155</ele>
        <time>2020-10-09T15:07:20.000Z</time>
      </trkpt>
      <trkpt lat="43.58225" lon="3.76231">
        <ele>59</ele>
        <time>2020-10-09T15:07:29.000Z</time>
      </trkpt>
      <trkpt lat="43.58229" lon="3.76229">
        <ele>59</ele>
        <time>2020-10-09T15:07:50.000Z</time>
      </trkpt>
      <trkpt lat="43.58228" lon="3.76226">
        <ele>58.817891095074</ele>
        <time>2020-10-09T15:07:52.000Z</time>
      </trkpt>
      <trkpt lat="43.58229" lon="3.76222">
        <ele>58.498402386061</ele>
        <time>2020-10-09T15:07:55.000Z</time>
      </trkpt>
      <trkpt lat="43.5823" lon="3.76218">
        <ele>58.285409913385</ele>
        <time>2020-10-09T15:07:57.000Z</time>
      </trkpt>
      <trkpt lat="43.58231" lon="3.76216">
        <ele>58.178913677047</ele>
        <time>2020-10-09T15:07:58.000Z</time>
      </trkpt>
      <trkpt lat="43.58232" lon="3.76214">
        <ele>58.07241744071</ele>
        <time>2020-10-09T15:07:59.000Z</time>
      </trkpt>
      <trkpt lat="43.58233" lon="3.76211">
        <ele>58</ele>
        <time>2020-10-09T15:08:01.000Z</time>
      </trkpt>
      <trkpt lat="43.58233" lon="3.76208">
        <ele>58</ele>
        <time>2020-10-09T15:08:14.000Z</time>
      </trkpt>
      <trkpt lat="43.58233" lon="3.76208">
        <ele>58</ele>
        <time>2020-10-09T15:08:17.000Z</time>
      </trkpt>
      <trkpt lat="43.58233" lon="3.76207">
        <ele>58</ele>
        <time>2020-10-09T15:08:42.000Z</time>
      </trkpt>
      <trkpt lat="43.58235" lon="3.76209">
        <ele>58</ele>
        <time>2020-10-09T15:08:55.000Z</time>
      </trkpt>
      <trkpt lat="43.58238" lon="3.76211">
        <ele>60</ele>
        <time>2020-10-09T15:10:22.000Z</time>
      </trkpt>
      <trkpt lat="43.58238" lon="3.76212">
        <ele>59.998945116993</ele>
        <time>2020-10-09T15:10:26.000Z</time>
      </trkpt>
      <trkpt lat="43.58233" lon="3.76205">
        <ele>59.001630195627</ele>
        <time>2020-10-09T15:12:10.000Z</time>
      </trkpt>
      <trkpt lat="43.58232" lon="3.76206">
        <ele>59</ele>
        <time>2020-10-09T15:12:17.000Z</time>
      </trkpt>
      <trkpt lat="43.58232" lon="3.76205">
        <ele>59</ele>
        <time>2020-10-09T15:12:42.000Z</time>
      </trkpt>
      <trkpt lat="43.58231" lon="3.76207">
        <ele>59</ele>
        <time>2020-10-09T15:12:45.000Z</time>
      </trkpt>
      <trkpt lat="43.58233" lon="3.76208">
        <ele>59</ele>
        <time>2020-10-09T15:12:49.000Z</time>
      </trkpt>
      <trkpt lat="43.58234" lon="3.76209">
        <ele>59</ele>
        <time>2020-10-09T15:12:55.000Z</time>
      </trkpt>
      <trkpt lat="43.5823" lon="3.76214">
        <ele>59</ele>
        <time>2020-10-09T15:13:02.000Z</time>
      </trkpt>
      <trkpt lat="43.5823" lon="3.76214">
        <ele>59</ele>
        <time>2020-10-09T15:13:03.000Z</time>
      </trkpt>
      <trkpt lat="43.5823" lon="3.76217">
        <ele>59</ele>
        <time>2020-10-09T15:13:06.000Z</time>
      </trkpt>
      <trkpt lat="43.58229" lon="3.7622">
        <ele>59</ele>
        <time>2020-10-09T15:13:08.000Z</time>
      </trkpt>
      <trkpt lat="43.5823" lon="3.76226">
        <ele>59</ele>
        <time>2020-10-09T15:13:11.000Z</time>
      </trkpt>
      <trkpt lat="43.58231" lon="3.76231">
        <ele>59.432</ele>
        <time>2020-10-09T15:13:16.000Z</time>
      </trkpt>
      <trkpt lat="43.58231" lon="3.76233">
        <ele>60</ele>
        <time>2020-10-09T15:13:23.000Z</time>
      </trkpt>
      <trkpt lat="43.58226" lon="3.76234">
        <ele>62</ele>
        <time>2020-10-09T15:17:24.000Z</time>
      </trkpt>
      <trkpt lat="43.58226" lon="3.76234">
        <ele>62</ele>
        <time>2020-10-09T15:17:28.000Z</time>
      </trkpt>
      <trkpt lat="43.58229" lon="3.76231">
        <ele>62</ele>
        <time>2020-10-09T15:17:42.000Z</time>
      </trkpt>
      <trkpt lat="43.58228" lon="3.76231">
        <ele>62</ele>
        <time>2020-10-09T15:17:47.000Z</time>
      </trkpt>
      <trkpt lat="43.58228" lon="3.76233">
        <ele>60.007903153198</ele>
        <time>2020-10-09T15:18:30.000Z</time>
      </trkpt>
      <trkpt lat="43.5822" lon="3.76231">
        <ele>59.905550487073</ele>
        <time>2020-10-09T15:18:49.000Z</time>
      </trkpt>
      <trkpt lat="43.58225" lon="3.76227">
        <ele>56.014798487813</ele>
        <time>2020-10-09T15:19:49.000Z</time>
      </trkpt>
      <trkpt lat="43.58227" lon="3.76228">
        <ele>56</ele>
        <time>2020-10-09T15:19:52.000Z</time>
      </trkpt>
      <trkpt lat="43.58222" lon="3.76219">
        <ele>56.516003719572</ele>
        <time>2020-10-09T15:20:07.000Z</time>
      </trkpt>
      <trkpt lat="43.58226" lon="3.7622">
        <ele>56</ele>
        <time>2020-10-09T15:20:25.000Z</time>
      </trkpt>
      <trkpt lat="43.58229" lon="3.76225">
        <ele>55.009428404842</ele>
        <time>2020-10-09T15:20:42.000Z</time>
      </trkpt>
      <trkpt lat="43.58229" lon="3.76227">
        <ele>53.568431430468</ele>
        <time>2020-10-09T15:21:36.000Z</time>
      </trkpt>
      <trkpt lat="43.58226" lon="3.76227">
        <ele>50.009984398149</ele>
        <time>2020-10-09T15:22:13.000Z</time>
      </trkpt>
      <trkpt lat="43.58231" lon="3.76222">
        <ele>51</ele>
        <time>2020-10-09T15:22:26.000Z</time>
      </trkpt>
      <trkpt lat="43.58227" lon="3.76225">
        <ele>51</ele>
        <time>2020-10-09T15:22:45.000Z</time>
      </trkpt>
      <trkpt lat="43.58228" lon="3.76225">
        <ele>51</ele>
        <time>2020-10-09T15:23:10.000Z</time>
      </trkpt>
      <trkpt lat="43.58225" lon="3.76225">
        <ele>51</ele>
        <time>2020-10-09T15:23:25.000Z</time>
      </trkpt>
      <trkpt lat="43.58224" lon="3.76223">
        <ele>51</ele>
        <time>2020-10-09T15:23:28.000Z</time>
      </trkpt>
      <trkpt lat="43.58221" lon="3.76222">
        <ele>51.72025070881</ele>
        <time>2020-10-09T15:23:35.000Z</time>
      </trkpt>
      <trkpt lat="43.5823" lon="3.76221">
        <ele>51</ele>
        <time>2020-10-09T15:23:55.000Z</time>
      </trkpt>
      <trkpt lat="43.58231" lon="3.76221">
        <ele>51</ele>
        <time>2020-10-09T15:24:11.000Z</time>
      </trkpt>
      <trkpt lat="43.58233" lon="3.7622">
        <ele>51</ele>
        <time>2020-10-09T15:24:16.000Z</time>
      </trkpt>
      <trkpt lat="43.58241" lon="3.7622">
        <ele>51</ele>
        <time>2020-10-09T15:24:20.000Z</time>
      </trkpt>
      <trkpt lat="43.58232" lon="3.76222">
        <ele>51</ele>
        <time>2020-10-09T15:24:37.000Z</time>
      </trkpt>
      <trkpt lat="43.58226" lon="3.76234">
        <ele>50.368</ele>
        <time>2020-10-09T15:26:12.000Z</time>
      </trkpt>
      <trkpt lat="43.58236" lon="3.76236">
        <ele>48.468531298631</ele>
        <time>2020-10-09T15:26:41.000Z</time>
      </trkpt>
      <trkpt lat="43.58223" lon="3.76243">
        <ele>48.69369443245</ele>
        <time>2020-10-09T15:26:48.000Z</time>
      </trkpt>
      <trkpt lat="43.58229" lon="3.76238">
        <ele>53</ele>
        <time>2020-10-09T15:27:03.000Z</time>
      </trkpt>
      <trkpt lat="43.58232" lon="3.76237">
        <ele>53.94966346381</ele>
        <time>2020-10-09T15:27:06.000Z</time>
      </trkpt>
      <trkpt lat="43.58233" lon="3.76236">
        <ele>55.979738591149</ele>
        <time>2020-10-09T15:27:13.000Z</time>
      </trkpt>
      <trkpt lat="43.58224" lon="3.76234">
        <ele>61.988145316401</ele>
        <time>2020-10-09T15:28:44.000Z</time>
      </trkpt>
      <trkpt lat="43.58225" lon="3.76232">
        <ele>62.085352694745</ele>
        <time>2020-10-09T15:28:45.000Z</time>
      </trkpt>
      <trkpt lat="43.58227" lon="3.76228">
        <ele>62.190726808254</ele>
        <time>2020-10-09T15:28:46.000Z</time>
      </trkpt>
      <trkpt lat="43.58228" lon="3.76225">
        <ele>62.296100921762</ele>
        <time>2020-10-09T15:28:47.000Z</time>
      </trkpt>
      <trkpt lat="43.5823" lon="3.76223">
        <ele>62.401475035271</ele>
        <time>2020-10-09T15:28:48.000Z</time>
      </trkpt>
      <trkpt lat="43.58231" lon="3.76221">
        <ele>62.50684914878</ele>
        <time>2020-10-09T15:28:49.000Z</time>
      </trkpt>
      <trkpt lat="43.58233" lon="3.76217">
        <ele>62.717597375797</ele>
        <time>2020-10-09T15:28:51.000Z</time>
      </trkpt>
      <trkpt lat="43.58235" lon="3.76215">
        <ele>62.928345602814</ele>
        <time>2020-10-09T15:28:53.000Z</time>
      </trkpt>
      <trkpt lat="43.58237" lon="3.76213">
        <ele>62.747610097065</ele>
        <time>2020-10-09T15:28:55.000Z</time>
      </trkpt>
      <trkpt lat="43.58238" lon="3.7621">
        <ele>62.365201153223</ele>
        <time>2020-10-09T15:28:57.000Z</time>
      </trkpt>
      <trkpt lat="43.58236" lon="3.76207">
        <ele>61.982792209381</ele>
        <time>2020-10-09T15:28:59.000Z</time>
      </trkpt>
      <trkpt lat="43.58232" lon="3.76205">
        <ele>61.791587737461</ele>
        <time>2020-10-09T15:29:00.000Z</time>
      </trkpt>
      <trkpt lat="43.58229" lon="3.76204">
        <ele>61.60038326554</ele>
        <time>2020-10-09T15:29:01.000Z</time>
      </trkpt>
      <trkpt lat="43.58226" lon="3.76203">
        <ele>61.409178793619</ele>
        <time>2020-10-09T15:29:02.000Z</time>
      </trkpt>
      <trkpt lat="43.58224" lon="3.76201">
        <ele>61.026769849778</ele>
        <time>2020-10-09T15:29:04.000Z</time>
      </trkpt>
      <trkpt lat="43.58217" lon="3.76192">
        <ele>60</ele>
        <time>2020-10-09T15:29:14.000Z</time>
      </trkpt>
      <trkpt lat="43.58216" lon="3.76188">
        <ele>60</ele>
        <time>2020-10-09T15:29:17.000Z</time>
      </trkpt>
      <trkpt lat="43.58215" lon="3.76185">
        <ele>60</ele>
        <time>2020-10-09T15:29:19.000Z</time>
      </trkpt>
      <trkpt lat="43.58214" lon="3.76181">
        <ele>60</ele>
        <time>2020-10-09T15:29:21.000Z</time>
      </trkpt>
      <trkpt lat="43.58212" lon="3.76177">
        <ele>60</ele>
        <time>2020-10-09T15:29:23.000Z</time>
      </trkpt>
      <trkpt lat="43.58211" lon="3.76175">
        <ele>59.736</ele>
        <time>2020-10-09T15:29:25.000Z</time>
      </trkpt>
      <trkpt lat="43.58211" lon="3.76172">
        <ele>59.336</ele>
        <time>2020-10-09T15:29:27.000Z</time>
      </trkpt>
      <trkpt lat="43.5821" lon="3.7617">
        <ele>58.936</ele>
        <time>2020-10-09T15:29:29.000Z</time>
      </trkpt>
      <trkpt lat="43.5821" lon="3.76167">
        <ele>58.536</ele>
        <time>2020-10-09T15:29:31.000Z</time>
      </trkpt>
      <trkpt lat="43.58209" lon="3.76164">
        <ele>58.136</ele>
        <time>2020-10-09T15:29:33.000Z</time>
      </trkpt>
      <trkpt lat="43.58208" lon="3.76161">
        <ele>57.604</ele>
        <time>2020-10-09T15:29:35.000Z</time>
      </trkpt>
      <trkpt lat="43.58207" lon="3.76158">
        <ele>57.004</ele>
        <time>2020-10-09T15:29:37.000Z</time>
      </trkpt>
      <trkpt lat="43.58206" lon="3.76155">
        <ele>56.404</ele>
        <time>2020-10-09T15:29:39.000Z</time>
      </trkpt>
      <trkpt lat="43.58205" lon="3.76152">
        <ele>55.804</ele>
        <time>2020-10-09T15:29:41.000Z</time>
      </trkpt>
      <trkpt lat="43.58205" lon="3.76148">
        <ele>55.204</ele>
        <time>2020-10-09T15:29:43.000Z</time>
      </trkpt>
      <trkpt lat="43.58205" lon="3.76145">
        <ele>54.868</ele>
        <time>2020-10-09T15:29:45.000Z</time>
      </trkpt>
      <trkpt lat="43.58206" lon="3.76141">
        <ele>54.668</ele>
        <time>2020-10-09T15:29:47.000Z</time>
      </trkpt>
      <trkpt lat="43.58206" lon="3.76139">
        <ele>54.568</ele>
        <time>2020-10-09T15:29:48.000Z</time>
      </trkpt>
      <trkpt lat="43.58207" lon="3.76136">
        <ele>54.468</ele>
        <time>2020-10-09T15:29:49.000Z</time>
      </trkpt>
      <trkpt lat="43.58207" lon="3.76132">
        <ele>54.268</ele>
        <time>2020-10-09T15:29:51.000Z</time>
      </trkpt>
      <trkpt lat="43.58207" lon="3.7613">
        <ele>54.068</ele>
        <time>2020-10-09T15:29:53.000Z</time>
      </trkpt>
      <trkpt lat="43.58208" lon="3.76126">
        <ele>54.132</ele>
        <time>2020-10-09T15:29:55.000Z</time>
      </trkpt>
      <trkpt lat="43.58209" lon="3.76121">
        <ele>54.332</ele>
        <time>2020-10-09T15:29:57.000Z</time>
      </trkpt>
      <trkpt lat="43.58209" lon="3.76118">
        <ele>54.532</ele>
        <time>2020-10-09T15:29:59.000Z</time>
      </trkpt>
      <trkpt lat="43.58209" lon="3.76115">
        <ele>54.732</ele>
        <time>2020-10-09T15:30:01.000Z</time>
      </trkpt>
      <trkpt lat="43.5821" lon="3.76112">
        <ele>54.932</ele>
        <time>2020-10-09T15:30:03.000Z</time>
      </trkpt>
      <trkpt lat="43.58211" lon="3.76109">
        <ele>54.868</ele>
        <time>2020-10-09T15:30:05.000Z</time>
      </trkpt>
      <trkpt lat="43.58212" lon="3.76106">
        <ele>54.668</ele>
        <time>2020-10-09T15:30:07.000Z</time>
      </trkpt>
      <trkpt lat="43.58212" lon="3.76102">
        <ele>54.468</ele>
        <time>2020-10-09T15:30:09.000Z</time>
      </trkpt>
      <trkpt lat="43.58213" lon="3.76099">
        <ele>54.268</ele>
        <time>2020-10-09T15:30:11.000Z</time>
      </trkpt>
      <trkpt lat="43.58214" lon="3.76097">
        <ele>54.068</ele>
        <time>2020-10-09T15:30:13.000Z</time>
      </trkpt>
      <trkpt lat="43.58215" lon="3.76094">
        <ele>54</ele>
        <time>2020-10-09T15:30:15.000Z</time>
      </trkpt>
      <trkpt lat="43.58216" lon="3.76091">
        <ele>54</ele>
        <time>2020-10-09T15:30:18.000Z</time>
      </trkpt>
      <trkpt lat="43.58216" lon="3.76088">
        <ele>54</ele>
        <time>2020-10-09T15:30:20.000Z</time>
      </trkpt>
      <trkpt lat="43.58216" lon="3.76085">
        <ele>54</ele>
        <time>2020-10-09T15:30:22.000Z</time>
      </trkpt>
      <trkpt lat="43.58217" lon="3.76083">
        <ele>53.966173338637</ele>
        <time>2020-10-09T15:30:24.000Z</time>
      </trkpt>
      <trkpt lat="43.58218" lon="3.76079">
        <ele>53.649048388363</ele>
        <time>2020-10-09T15:30:27.000Z</time>
      </trkpt>
      <trkpt lat="43.58217" lon="3.76077">
        <ele>53.331923438088</ele>
        <time>2020-10-09T15:30:30.000Z</time>
      </trkpt>
      <trkpt lat="43.58217" lon="3.76077">
        <ele>53.014798487813</ele>
        <time>2020-10-09T15:30:33.000Z</time>
      </trkpt>
      <trkpt lat="43.58217" lon="3.76087">
        <ele>52</ele>
        <time>2020-10-09T15:31:00.000Z</time>
      </trkpt>
      <trkpt lat="43.58216" lon="3.7609">
        <ele>52</ele>
        <time>2020-10-09T15:31:01.000Z</time>
      </trkpt>
      <trkpt lat="43.58216" lon="3.76092">
        <ele>52</ele>
        <time>2020-10-09T15:31:02.000Z</time>
      </trkpt>
      <trkpt lat="43.58215" lon="3.76095">
        <ele>52</ele>
        <time>2020-10-09T15:31:03.000Z</time>
      </trkpt>
      <trkpt lat="43.58214" lon="3.76097">
        <ele>52</ele>
        <time>2020-10-09T15:31:04.000Z</time>
      </trkpt>
      <trkpt lat="43.58213" lon="3.76101">
        <ele>52</ele>
        <time>2020-10-09T15:31:05.000Z</time>
      </trkpt>
      <trkpt lat="43.58212" lon="3.76105">
        <ele>52</ele>
        <time>2020-10-09T15:31:06.000Z</time>
      </trkpt>
      <trkpt lat="43.58211" lon="3.76109">
        <ele>52</ele>
        <time>2020-10-09T15:31:07.000Z</time>
      </trkpt>
      <trkpt lat="43.5821" lon="3.76113">
        <ele>52</ele>
        <time>2020-10-09T15:31:08.000Z</time>
      </trkpt>
      <trkpt lat="43.58209" lon="3.76118">
        <ele>52</ele>
        <time>2020-10-09T15:31:09.000Z</time>
      </trkpt>
      <trkpt lat="43.58208" lon="3.76123">
        <ele>52</ele>
        <time>2020-10-09T15:31:10.000Z</time>
      </trkpt>
      <trkpt lat="43.58207" lon="3.76128">
        <ele>52</ele>
        <time>2020-10-09T15:31:11.000Z</time>
      </trkpt>
      <trkpt lat="43.58206" lon="3.76133">
        <ele>52</ele>
        <time>2020-10-09T15:31:12.000Z</time>
      </trkpt>
      <trkpt lat="43.58205" lon="3.76137">
        <ele>52</ele>
        <time>2020-10-09T15:31:13.000Z</time>
      </trkpt>
      <trkpt lat="43.58203" lon="3.76141">
        <ele>52</ele>
        <time>2020-10-09T15:31:14.000Z</time>
      </trkpt>
      <trkpt lat="43.58202" lon="3.76145">
        <ele>52</ele>
        <time>2020-10-09T15:31:15.000Z</time>
      </trkpt>
      <trkpt lat="43.58202" lon="3.7615">
        <ele>52</ele>
        <time>2020-10-09T15:31:16.000Z</time>
      </trkpt>
      <trkpt lat="43.58201" lon="3.76154">
        <ele>52</ele>
        <time>2020-10-09T15:31:17.000Z</time>
      </trkpt>
      <trkpt lat="43.58201" lon="3.76158">
        <ele>52</ele>
        <time>2020-10-09T15:31:18.000Z</time>
      </trkpt>
      <trkpt lat="43.58203" lon="3.76161">
        <ele>52</ele>
        <time>2020-10-09T15:31:19.000Z</time>
      </trkpt>
      <trkpt lat="43.58205" lon="3.76165">
        <ele>52</ele>
        <time>2020-10-09T15:31:20.000Z</time>
      </trkpt>
      <trkpt lat="43.58207" lon="3.76169">
        <ele>52</ele>
        <time>2020-10-09T15:31:21.000Z</time>
      </trkpt>
      <trkpt lat="43.58208" lon="3.76173">
        <ele>52</ele>
        <time>2020-10-09T15:31:22.000Z</time>
      </trkpt>
      <trkpt lat="43.58208" lon="3.76178">
        <ele>52</ele>
        <time>2020-10-09T15:31:23.000Z</time>
      </trkpt>
      <trkpt lat="43.58207" lon="3.76183">
        <ele>52</ele>
        <time>2020-10-09T15:31:24.000Z</time>
      </trkpt>
      <trkpt lat="43.58205" lon="3.76186">
        <ele>52</ele>
        <time>2020-10-09T15:31:25.000Z</time>
      </trkpt>
      <trkpt lat="43.58202" lon="3.7619">
        <ele>52</ele>
        <time>2020-10-09T15:31:26.000Z</time>
      </trkpt>
      <trkpt lat="43.58199" lon="3.76193">
        <ele>52</ele>
        <time>2020-10-09T15:31:27.000Z</time>
      </trkpt>
      <trkpt lat="43.58196" lon="3.76197">
        <ele>52</ele>
        <time>2020-10-09T15:31:28.000Z</time>
      </trkpt>
      <trkpt lat="43.58193" lon="3.762">
        <ele>52</ele>
        <time>2020-10-09T15:31:29.000Z</time>
      </trkpt>
      <trkpt lat="43.5819" lon="3.76202">
        <ele>52.031031341411</ele>
        <time>2020-10-09T15:31:30.000Z</time>
      </trkpt>
      <trkpt lat="43.58187" lon="3.76204">
        <ele>52.131131409447</ele>
        <time>2020-10-09T15:31:31.000Z</time>
      </trkpt>
      <trkpt lat="43.58185" lon="3.76205">
        <ele>52.231231477483</ele>
        <time>2020-10-09T15:31:32.000Z</time>
      </trkpt>
      <trkpt lat="43.58183" lon="3.76206">
        <ele>52.331331545519</ele>
        <time>2020-10-09T15:31:33.000Z</time>
      </trkpt>
      <trkpt lat="43.58181" lon="3.76206">
        <ele>52.531531681592</ele>
        <time>2020-10-09T15:31:35.000Z</time>
      </trkpt>
      <trkpt lat="43.58179" lon="3.76205">
        <ele>52.631631749628</ele>
        <time>2020-10-09T15:31:36.000Z</time>
      </trkpt>
      <trkpt lat="43.58176" lon="3.76204">
        <ele>52.731731817664</ele>
        <time>2020-10-09T15:31:37.000Z</time>
      </trkpt>
      <trkpt lat="43.58173" lon="3.76204">
        <ele>52.8318318857</ele>
        <time>2020-10-09T15:31:38.000Z</time>
      </trkpt>
      <trkpt lat="43.58171" lon="3.76205">
        <ele>52.931931953735</ele>
        <time>2020-10-09T15:31:39.000Z</time>
      </trkpt>
      <trkpt lat="43.5816" lon="3.76211">
        <ele>53.431137999929</ele>
        <time>2020-10-09T15:31:44.000Z</time>
      </trkpt>
      <trkpt lat="43.58151" lon="3.76215">
        <ele>53.730539388768</ele>
        <time>2020-10-09T15:31:47.000Z</time>
      </trkpt>
      <trkpt lat="43.58143" lon="3.76222">
        <ele>53.879757031017</ele>
        <time>2020-10-09T15:31:50.000Z</time>
      </trkpt>
      <trkpt lat="43.58137" lon="3.76233">
        <ele>52.2765516463</ele>
        <time>2020-10-09T15:31:54.000Z</time>
      </trkpt>
      <trkpt lat="43.58138" lon="3.76236">
        <ele>51.87575030012</ele>
        <time>2020-10-09T15:31:55.000Z</time>
      </trkpt>
      <trkpt lat="43.58134" lon="3.76242">
        <ele>50.673346261582</ele>
        <time>2020-10-09T15:31:58.000Z</time>
      </trkpt>
      <trkpt lat="43.58131" lon="3.76246">
        <ele>50.272544915402</ele>
        <time>2020-10-09T15:31:59.000Z</time>
      </trkpt>
      <trkpt lat="43.58123" lon="3.76257">
        <ele>50.256061996179</ele>
        <time>2020-10-09T15:32:01.000Z</time>
      </trkpt>
      <trkpt lat="43.58119" lon="3.76262">
        <ele>50.45004835692</ele>
        <time>2020-10-09T15:32:02.000Z</time>
      </trkpt>
      <trkpt lat="43.58116" lon="3.76269">
        <ele>50.644034717661</ele>
        <time>2020-10-09T15:32:03.000Z</time>
      </trkpt>
      <trkpt lat="43.58113" lon="3.76274">
        <ele>50.838021078403</ele>
        <time>2020-10-09T15:32:04.000Z</time>
      </trkpt>
      <trkpt lat="43.58109" lon="3.76279">
        <ele>51.032007439144</ele>
        <time>2020-10-09T15:32:05.000Z</time>
      </trkpt>
      <trkpt lat="43.58105" lon="3.76284">
        <ele>51.225993799886</ele>
        <time>2020-10-09T15:32:06.000Z</time>
      </trkpt>
      <trkpt lat="43.58101" lon="3.76289">
        <ele>51.419980160627</ele>
        <time>2020-10-09T15:32:07.000Z</time>
      </trkpt>
      <trkpt lat="43.58097" lon="3.76294">
        <ele>51.613966521368</ele>
        <time>2020-10-09T15:32:08.000Z</time>
      </trkpt>
      <trkpt lat="43.58093" lon="3.763">
        <ele>51.80795288211</ele>
        <time>2020-10-09T15:32:09.000Z</time>
      </trkpt>
      <trkpt lat="43.58089" lon="3.76305">
        <ele>51.995881849687</ele>
        <time>2020-10-09T15:32:10.000Z</time>
      </trkpt>
      <trkpt lat="43.58085" lon="3.7631">
        <ele>51.583934995446</ele>
        <time>2020-10-09T15:32:11.000Z</time>
      </trkpt>
      <trkpt lat="43.58081" lon="3.76315">
        <ele>51.171988141203</ele>
        <time>2020-10-09T15:32:12.000Z</time>
      </trkpt>
      <trkpt lat="43.58078" lon="3.76318">
        <ele>50.760041286962</ele>
        <time>2020-10-09T15:32:13.000Z</time>
      </trkpt>
      <trkpt lat="43.58074" lon="3.76323">
        <ele>50.348094432719</ele>
        <time>2020-10-09T15:32:14.000Z</time>
      </trkpt>
      <trkpt lat="43.58071" lon="3.76329">
        <ele>49.936147578478</ele>
        <time>2020-10-09T15:32:15.000Z</time>
      </trkpt>
      <trkpt lat="43.58067" lon="3.76335">
        <ele>49.524200724235</ele>
        <time>2020-10-09T15:32:16.000Z</time>
      </trkpt>
      <trkpt lat="43.58062" lon="3.76341">
        <ele>49.112253869994</ele>
        <time>2020-10-09T15:32:17.000Z</time>
      </trkpt>
      <trkpt lat="43.58058" lon="3.76346">
        <ele>48.700307015751</ele>
        <time>2020-10-09T15:32:18.000Z</time>
      </trkpt>
      <trkpt lat="43.58054" lon="3.76353">
        <ele>48.28836016151</ele>
        <time>2020-10-09T15:32:19.000Z</time>
      </trkpt>
      <trkpt lat="43.5805" lon="3.76359">
        <ele>47.849831686936</ele>
        <time>2020-10-09T15:32:20.000Z</time>
      </trkpt>
      <trkpt lat="43.58046" lon="3.76365">
        <ele>47.349281321799</ele>
        <time>2020-10-09T15:32:21.000Z</time>
      </trkpt>
      <trkpt lat="43.58043" lon="3.76371">
        <ele>46.848730956661</ele>
        <time>2020-10-09T15:32:22.000Z</time>
      </trkpt>
      <trkpt lat="43.58039" lon="3.76377">
        <ele>46.348180591524</ele>
        <time>2020-10-09T15:32:23.000Z</time>
      </trkpt>
      <trkpt lat="43.58035" lon="3.76383">
        <ele>45.847630226386</ele>
        <time>2020-10-09T15:32:24.000Z</time>
      </trkpt>
      <trkpt lat="43.58031" lon="3.76388">
        <ele>45.347079861249</ele>
        <time>2020-10-09T15:32:25.000Z</time>
      </trkpt>
      <trkpt lat="43.58028" lon="3.76394">
        <ele>44.846529496112</ele>
        <time>2020-10-09T15:32:26.000Z</time>
      </trkpt>
      <trkpt lat="43.58024" lon="3.76399">
        <ele>44.345979130974</ele>
        <time>2020-10-09T15:32:27.000Z</time>
      </trkpt>
      <trkpt lat="43.5802" lon="3.76405">
        <ele>43.845428765837</ele>
        <time>2020-10-09T15:32:28.000Z</time>
      </trkpt>
      <trkpt lat="43.58016" lon="3.7641">
        <ele>43.344878400699</ele>
        <time>2020-10-09T15:32:29.000Z</time>
      </trkpt>
      <trkpt lat="43.58012" lon="3.76415">
        <ele>42.906615488881</ele>
        <time>2020-10-09T15:32:30.000Z</time>
      </trkpt>
      <trkpt lat="43.58008" lon="3.76421">
        <ele>42.606345293749</ele>
        <time>2020-10-09T15:32:31.000Z</time>
      </trkpt>
      <trkpt lat="43.58004" lon="3.76426">
        <ele>42.306075098617</ele>
        <time>2020-10-09T15:32:32.000Z</time>
      </trkpt>
      <trkpt lat="43.57999" lon="3.76432">
        <ele>42.005804903484</ele>
        <time>2020-10-09T15:32:33.000Z</time>
      </trkpt>
      <trkpt lat="43.57995" lon="3.76438">
        <ele>41.705534708352</ele>
        <time>2020-10-09T15:32:34.000Z</time>
      </trkpt>
      <trkpt lat="43.57991" lon="3.76443">
        <ele>41.40526451322</ele>
        <time>2020-10-09T15:32:35.000Z</time>
      </trkpt>
      <trkpt lat="43.57987" lon="3.76449">
        <ele>41.104994318087</ele>
        <time>2020-10-09T15:32:36.000Z</time>
      </trkpt>
      <trkpt lat="43.57983" lon="3.76454">
        <ele>40.804724122955</ele>
        <time>2020-10-09T15:32:37.000Z</time>
      </trkpt>
      <trkpt lat="43.57979" lon="3.76459">
        <ele>40.504453927822</ele>
        <time>2020-10-09T15:32:38.000Z</time>
      </trkpt>
      <trkpt lat="43.57975" lon="3.76464">
        <ele>40.20418373269</ele>
        <time>2020-10-09T15:32:39.000Z</time>
      </trkpt>
      <trkpt lat="43.57971" lon="3.76469">
        <ele>39.936</ele>
        <time>2020-10-09T15:32:40.000Z</time>
      </trkpt>
      <trkpt lat="43.57967" lon="3.76474">
        <ele>39.736</ele>
        <time>2020-10-09T15:32:41.000Z</time>
      </trkpt>
      <trkpt lat="43.57963" lon="3.76479">
        <ele>39.536</ele>
        <time>2020-10-09T15:32:42.000Z</time>
      </trkpt>
      <trkpt lat="43.57959" lon="3.76484">
        <ele>39.336</ele>
        <time>2020-10-09T15:32:43.000Z</time>
      </trkpt>
      <trkpt lat="43.57955" lon="3.76489">
        <ele>39.136</ele>
        <time>2020-10-09T15:32:44.000Z</time>
      </trkpt>
      <trkpt lat="43.57952" lon="3.76493">
        <ele>38.936</ele>
        <time>2020-10-09T15:32:45.000Z</time>
      </trkpt>
      <trkpt lat="43.57948" lon="3.76497">
        <ele>38.736</ele>
        <time>2020-10-09T15:32:46.000Z</time>
      </trkpt>
      <trkpt lat="43.57944" lon="3.76502">
        <ele>38.536</ele>
        <time>2020-10-09T15:32:47.000Z</time>
      </trkpt>
      <trkpt lat="43.5794" lon="3.76506">
        <ele>38.336</ele>
        <time>2020-10-09T15:32:48.000Z</time>
      </trkpt>
      <trkpt lat="43.57936" lon="3.76511">
        <ele>38.136</ele>
        <time>2020-10-09T15:32:49.000Z</time>
      </trkpt>
      <trkpt lat="43.57932" lon="3.76515">
        <ele>37.936</ele>
        <time>2020-10-09T15:32:50.000Z</time>
      </trkpt>
      <trkpt lat="43.57928" lon="3.76519">
        <ele>37.736</ele>
        <time>2020-10-09T15:32:51.000Z</time>
      </trkpt>
      <trkpt lat="43.57924" lon="3.76524">
        <ele>37.536</ele>
        <time>2020-10-09T15:32:52.000Z</time>
      </trkpt>
      <trkpt lat="43.5792" lon="3.76528">
        <ele>37.336</ele>
        <time>2020-10-09T15:32:53.000Z</time>
      </trkpt>
      <trkpt lat="43.57916" lon="3.76533">
        <ele>37.136</ele>
        <time>2020-10-09T15:32:54.000Z</time>
      </trkpt>
      <trkpt lat="43.57912" lon="3.76537">
        <ele>36.936</ele>
        <time>2020-10-09T15:32:55.000Z</time>
      </trkpt>
      <trkpt lat="43.57909" lon="3.76541">
        <ele>36.736</ele>
        <time>2020-10-09T15:32:56.000Z</time>
      </trkpt>
      <trkpt lat="43.57905" lon="3.76546">
        <ele>36.536</ele>
        <time>2020-10-09T15:32:57.000Z</time>
      </trkpt>
      <trkpt lat="43.57902" lon="3.7655">
        <ele>36.336</ele>
        <time>2020-10-09T15:32:58.000Z</time>
      </trkpt>
      <trkpt lat="43.57898" lon="3.76553">
        <ele>36.136</ele>
        <time>2020-10-09T15:32:59.000Z</time>
      </trkpt>
      <trkpt lat="43.57895" lon="3.76557">
        <ele>35.968</ele>
        <time>2020-10-09T15:33:00.000Z</time>
      </trkpt>
      <trkpt lat="43.57893" lon="3.76561">
        <ele>35.868</ele>
        <time>2020-10-09T15:33:01.000Z</time>
      </trkpt>
      <trkpt lat="43.57892" lon="3.76566">
        <ele>35.768</ele>
        <time>2020-10-09T15:33:02.000Z</time>
      </trkpt>
      <trkpt lat="43.57894" lon="3.76571">
        <ele>35.668</ele>
        <time>2020-10-09T15:33:03.000Z</time>
      </trkpt>
      <trkpt lat="43.57896" lon="3.76577">
        <ele>35.568</ele>
        <time>2020-10-09T15:33:04.000Z</time>
      </trkpt>
      <trkpt lat="43.57898" lon="3.76582">
        <ele>35.468</ele>
        <time>2020-10-09T15:33:05.000Z</time>
      </trkpt>
      <trkpt lat="43.57901" lon="3.76588">
        <ele>35.368</ele>
        <time>2020-10-09T15:33:06.000Z</time>
      </trkpt>
      <trkpt lat="43.57904" lon="3.76594">
        <ele>35.268</ele>
        <time>2020-10-09T15:33:07.000Z</time>
      </trkpt>
      <trkpt lat="43.57908" lon="3.766">
        <ele>35.168</ele>
        <time>2020-10-09T15:33:08.000Z</time>
      </trkpt>
      <trkpt lat="43.57912" lon="3.76605">
        <ele>35.068</ele>
        <time>2020-10-09T15:33:09.000Z</time>
      </trkpt>
      <trkpt lat="43.57915" lon="3.76611">
        <ele>35.032</ele>
        <time>2020-10-09T15:33:10.000Z</time>
      </trkpt>
      <trkpt lat="43.57918" lon="3.76618">
        <ele>35.132</ele>
        <time>2020-10-09T15:33:11.000Z</time>
      </trkpt>
      <trkpt lat="43.57921" lon="3.76625">
        <ele>35.232</ele>
        <time>2020-10-09T15:33:12.000Z</time>
      </trkpt>
      <trkpt lat="43.57924" lon="3.76632">
        <ele>35.332</ele>
        <time>2020-10-09T15:33:13.000Z</time>
      </trkpt>
      <trkpt lat="43.57928" lon="3.76639">
        <ele>35.432</ele>
        <time>2020-10-09T15:33:14.000Z</time>
      </trkpt>
      <trkpt lat="43.57932" lon="3.76645">
        <ele>35.532</ele>
        <time>2020-10-09T15:33:15.000Z</time>
      </trkpt>
      <trkpt lat="43.57935" lon="3.76652">
        <ele>35.632</ele>
        <time>2020-10-09T15:33:16.000Z</time>
      </trkpt>
      <trkpt lat="43.57939" lon="3.76658">
        <ele>35.732</ele>
        <time>2020-10-09T15:33:17.000Z</time>
      </trkpt>
      <trkpt lat="43.57942" lon="3.76665">
        <ele>35.832</ele>
        <time>2020-10-09T15:33:18.000Z</time>
      </trkpt>
      <trkpt lat="43.57945" lon="3.76671">
        <ele>35.932</ele>
        <time>2020-10-09T15:33:19.000Z</time>
      </trkpt>
      <trkpt lat="43.57949" lon="3.76678">
        <ele>36</ele>
        <time>2020-10-09T15:33:20.000Z</time>
      </trkpt>
      <trkpt lat="43.57952" lon="3.76684">
        <ele>36</ele>
        <time>2020-10-09T15:33:21.000Z</time>
      </trkpt>
      <trkpt lat="43.57955" lon="3.7669">
        <ele>36</ele>
        <time>2020-10-09T15:33:22.000Z</time>
      </trkpt>
      <trkpt lat="43.57959" lon="3.76697">
        <ele>36</ele>
        <time>2020-10-09T15:33:23.000Z</time>
      </trkpt>
      <trkpt lat="43.57962" lon="3.76702">
        <ele>36</ele>
        <time>2020-10-09T15:33:24.000Z</time>
      </trkpt>
      <trkpt lat="43.57966" lon="3.76708">
        <ele>36</ele>
        <time>2020-10-09T15:33:25.000Z</time>
      </trkpt>
      <trkpt lat="43.57969" lon="3.76714">
        <ele>36</ele>
        <time>2020-10-09T15:33:26.000Z</time>
      </trkpt>
      <trkpt lat="43.57973" lon="3.76719">
        <ele>36</ele>
        <time>2020-10-09T15:33:27.000Z</time>
      </trkpt>
      <trkpt lat="43.57977" lon="3.76722">
        <ele>36</ele>
        <time>2020-10-09T15:33:28.000Z</time>
      </trkpt>
      <trkpt lat="43.57981" lon="3.76724">
        <ele>36</ele>
        <time>2020-10-09T15:33:29.000Z</time>
      </trkpt>
      <trkpt lat="43.57985" lon="3.76726">
        <ele>36.032</ele>
        <time>2020-10-09T15:33:30.000Z</time>
      </trkpt>
      <trkpt lat="43.5799" lon="3.76728">
        <ele>36.132</ele>
        <time>2020-10-09T15:33:31.000Z</time>
      </trkpt>
      <trkpt lat="43.57995" lon="3.7673">
        <ele>36.232</ele>
        <time>2020-10-09T15:33:32.000Z</time>
      </trkpt>
      <trkpt lat="43.58" lon="3.76731">
        <ele>36.332</ele>
        <time>2020-10-09T15:33:33.000Z</time>
      </trkpt>
      <trkpt lat="43.58005" lon="3.76732">
        <ele>36.432</ele>
        <time>2020-10-09T15:33:34.000Z</time>
      </trkpt>
      <trkpt lat="43.5801" lon="3.76732">
        <ele>36.532</ele>
        <time>2020-10-09T15:33:35.000Z</time>
      </trkpt>
      <trkpt lat="43.58014" lon="3.76732">
        <ele>36.632</ele>
        <time>2020-10-09T15:33:36.000Z</time>
      </trkpt>
      <trkpt lat="43.58018" lon="3.76732">
        <ele>36.732</ele>
        <time>2020-10-09T15:33:37.000Z</time>
      </trkpt>
      <trkpt lat="43.58022" lon="3.76732">
        <ele>36.832</ele>
        <time>2020-10-09T15:33:38.000Z</time>
      </trkpt>
      <trkpt lat="43.58025" lon="3.76735">
        <ele>36.932</ele>
        <time>2020-10-09T15:33:39.000Z</time>
      </trkpt>
      <trkpt lat="43.58027" lon="3.76739">
        <ele>36.936</ele>
        <time>2020-10-09T15:33:40.000Z</time>
      </trkpt>
      <trkpt lat="43.58027" lon="3.76743">
        <ele>36.736</ele>
        <time>2020-10-09T15:33:41.000Z</time>
      </trkpt>
      <trkpt lat="43.58025" lon="3.76747">
        <ele>36.536</ele>
        <time>2020-10-09T15:33:42.000Z</time>
      </trkpt>
      <trkpt lat="43.58022" lon="3.7675">
        <ele>36.336</ele>
        <time>2020-10-09T15:33:43.000Z</time>
      </trkpt>
      <trkpt lat="43.58019" lon="3.76753">
        <ele>36.136</ele>
        <time>2020-10-09T15:33:44.000Z</time>
      </trkpt>
      <trkpt lat="43.58016" lon="3.76756">
        <ele>35.936</ele>
        <time>2020-10-09T15:33:45.000Z</time>
      </trkpt>
      <trkpt lat="43.58013" lon="3.76759">
        <ele>35.736</ele>
        <time>2020-10-09T15:33:46.000Z</time>
      </trkpt>
      <trkpt lat="43.58012" lon="3.76762">
        <ele>35.536</ele>
        <time>2020-10-09T15:33:47.000Z</time>
      </trkpt>
      <trkpt lat="43.58012" lon="3.76766">
        <ele>35.336</ele>
        <time>2020-10-09T15:33:48.000Z</time>
      </trkpt>
      <trkpt lat="43.58014" lon="3.76769">
        <ele>35.136</ele>
        <time>2020-10-09T15:33:49.000Z</time>
      </trkpt>
      <trkpt lat="43.58016" lon="3.76774">
        <ele>35</ele>
        <time>2020-10-09T15:33:50.000Z</time>
      </trkpt>
      <trkpt lat="43.58018" lon="3.76779">
        <ele>35</ele>
        <time>2020-10-09T15:33:51.000Z</time>
      </trkpt>
      <trkpt lat="43.58019" lon="3.76785">
        <ele>35</ele>
        <time>2020-10-09T15:33:52.000Z</time>
      </trkpt>
      <trkpt lat="43.5802" lon="3.76791">
        <ele>35</ele>
        <time>2020-10-09T15:33:53.000Z</time>
      </trkpt>
      <trkpt lat="43.58021" lon="3.76798">
        <ele>35</ele>
        <time>2020-10-09T15:33:54.000Z</time>
      </trkpt>
      <trkpt lat="43.58021" lon="3.76805">
        <ele>35</ele>
        <time>2020-10-09T15:33:55.000Z</time>
      </trkpt>
      <trkpt lat="43.58021" lon="3.76811">
        <ele>35</ele>
        <time>2020-10-09T15:33:56.000Z</time>
      </trkpt>
      <trkpt lat="43.58021" lon="3.76818">
        <ele>35</ele>
        <time>2020-10-09T15:33:57.000Z</time>
      </trkpt>
      <trkpt lat="43.5802" lon="3.76824">
        <ele>35</ele>
        <time>2020-10-09T15:33:58.000Z</time>
      </trkpt>
      <trkpt lat="43.5802" lon="3.7683">
        <ele>35</ele>
        <time>2020-10-09T15:33:59.000Z</time>
      </trkpt>
      <trkpt lat="43.5802" lon="3.76837">
        <ele>35.00099968</ele>
        <time>2020-10-09T15:34:00.000Z</time>
      </trkpt>
      <trkpt lat="43.58021" lon="3.76843">
        <ele>35.10099968</ele>
        <time>2020-10-09T15:34:01.000Z</time>
      </trkpt>
      <trkpt lat="43.58021" lon="3.76849">
        <ele>35.20099968</ele>
        <time>2020-10-09T15:34:02.000Z</time>
      </trkpt>
      <trkpt lat="43.58023" lon="3.76855">
        <ele>35.30099968</ele>
        <time>2020-10-09T15:34:03.000Z</time>
      </trkpt>
      <trkpt lat="43.58025" lon="3.76861">
        <ele>35.40099968</ele>
        <time>2020-10-09T15:34:04.000Z</time>
      </trkpt>
      <trkpt lat="43.58028" lon="3.76867">
        <ele>35.50099968</ele>
        <time>2020-10-09T15:34:05.000Z</time>
      </trkpt>
      <trkpt lat="43.5803" lon="3.76873">
        <ele>35.60099968</ele>
        <time>2020-10-09T15:34:06.000Z</time>
      </trkpt>
      <trkpt lat="43.58033" lon="3.76879">
        <ele>35.70099968</ele>
        <time>2020-10-09T15:34:07.000Z</time>
      </trkpt>
      <trkpt lat="43.58036" lon="3.76884">
        <ele>35.80099968</ele>
        <time>2020-10-09T15:34:08.000Z</time>
      </trkpt>
      <trkpt lat="43.58038" lon="3.7689">
        <ele>35.90099968</ele>
        <time>2020-10-09T15:34:09.000Z</time>
      </trkpt>
      <trkpt lat="43.58041" lon="3.76896">
        <ele>36</ele>
        <time>2020-10-09T15:34:10.000Z</time>
      </trkpt>
      <trkpt lat="43.58044" lon="3.76901">
        <ele>36</ele>
        <time>2020-10-09T15:34:11.000Z</time>
      </trkpt>
      <trkpt lat="43.58047" lon="3.76907">
        <ele>36</ele>
        <time>2020-10-09T15:34:12.000Z</time>
      </trkpt>
      <trkpt lat="43.5805" lon="3.76912">
        <ele>36</ele>
        <time>2020-10-09T15:34:13.000Z</time>
      </trkpt>
      <trkpt lat="43.58053" lon="3.76918">
        <ele>36</ele>
        <time>2020-10-09T15:34:14.000Z</time>
      </trkpt>
      <trkpt lat="43.58056" lon="3.76924">
        <ele>36</ele>
        <time>2020-10-09T15:34:15.000Z</time>
      </trkpt>
      <trkpt lat="43.58059" lon="3.76929">
        <ele>36</ele>
        <time>2020-10-09T15:34:16.000Z</time>
      </trkpt>
      <trkpt lat="43.58061" lon="3.76935">
        <ele>36</ele>
        <time>2020-10-09T15:34:17.000Z</time>
      </trkpt>
      <trkpt lat="43.58064" lon="3.7694">
        <ele>36</ele>
        <time>2020-10-09T15:34:18.000Z</time>
      </trkpt>
      <trkpt lat="43.58067" lon="3.76946">
        <ele>36</ele>
        <time>2020-10-09T15:34:19.000Z</time>
      </trkpt>
      <trkpt lat="43.5807" lon="3.76952">
        <ele>36</ele>
        <time>2020-10-09T15:34:20.000Z</time>
      </trkpt>
      <trkpt lat="43.58073" lon="3.76958">
        <ele>36.070929322585</ele>
        <time>2020-10-09T15:34:21.000Z</time>
      </trkpt>
      <trkpt lat="43.58075" lon="3.76963">
        <ele>36.170829326677</ele>
        <time>2020-10-09T15:34:22.000Z</time>
      </trkpt>
      <trkpt lat="43.58078" lon="3.76969">
        <ele>36.270729330769</ele>
        <time>2020-10-09T15:34:23.000Z</time>
      </trkpt>
      <trkpt lat="43.58081" lon="3.76975">
        <ele>36.370629334861</ele>
        <time>2020-10-09T15:34:24.000Z</time>
      </trkpt>
      <trkpt lat="43.58084" lon="3.76981">
        <ele>36.470529338953</ele>
        <time>2020-10-09T15:34:25.000Z</time>
      </trkpt>
      <trkpt lat="43.58087" lon="3.76986">
        <ele>36.570429343045</ele>
        <time>2020-10-09T15:34:26.000Z</time>
      </trkpt>
      <trkpt lat="43.5809" lon="3.76992">
        <ele>36.670329347137</ele>
        <time>2020-10-09T15:34:27.000Z</time>
      </trkpt>
      <trkpt lat="43.58093" lon="3.76998">
        <ele>36.770229351229</ele>
        <time>2020-10-09T15:34:28.000Z</time>
      </trkpt>
      <trkpt lat="43.58096" lon="3.77004">
        <ele>36.870129355321</ele>
        <time>2020-10-09T15:34:29.000Z</time>
      </trkpt>
      <trkpt lat="43.58099" lon="3.7701">
        <ele>36.970029359412</ele>
        <time>2020-10-09T15:34:30.000Z</time>
      </trkpt>
      <trkpt lat="43.58102" lon="3.77016">
        <ele>37</ele>
        <time>2020-10-09T15:34:31.000Z</time>
      </trkpt>
      <trkpt lat="43.58105" lon="3.77022">
        <ele>37</ele>
        <time>2020-10-09T15:34:32.000Z</time>
      </trkpt>
      <trkpt lat="43.58108" lon="3.77028">
        <ele>37</ele>
        <time>2020-10-09T15:34:33.000Z</time>
      </trkpt>
      <trkpt lat="43.58111" lon="3.77034">
        <ele>37</ele>
        <time>2020-10-09T15:34:34.000Z</time>
      </trkpt>
      <trkpt lat="43.58114" lon="3.7704">
        <ele>37</ele>
        <time>2020-10-09T15:34:35.000Z</time>
      </trkpt>
      <trkpt lat="43.58117" lon="3.77046">
        <ele>37</ele>
        <time>2020-10-09T15:34:36.000Z</time>
      </trkpt>
      <trkpt lat="43.5812" lon="3.77051">
        <ele>37</ele>
        <time>2020-10-09T15:34:37.000Z</time>
      </trkpt>
      <trkpt lat="43.58123" lon="3.77057">
        <ele>37</ele>
        <time>2020-10-09T15:34:38.000Z</time>
      </trkpt>
      <trkpt lat="43.58126" lon="3.77063">
        <ele>37</ele>
        <time>2020-10-09T15:34:39.000Z</time>
      </trkpt>
      <trkpt lat="43.58128" lon="3.77069">
        <ele>37</ele>
        <time>2020-10-09T15:34:40.000Z</time>
      </trkpt>
      <trkpt lat="43.58131" lon="3.77075">
        <ele>37</ele>
        <time>2020-10-09T15:34:41.000Z</time>
      </trkpt>
      <trkpt lat="43.58134" lon="3.77081">
        <ele>37</ele>
        <time>2020-10-09T15:34:42.000Z</time>
      </trkpt>
      <trkpt lat="43.58137" lon="3.77087">
        <ele>37</ele>
        <time>2020-10-09T15:34:43.000Z</time>
      </trkpt>
      <trkpt lat="43.5814" lon="3.77093">
        <ele>37</ele>
        <time>2020-10-09T15:34:44.000Z</time>
      </trkpt>
      <trkpt lat="43.58144" lon="3.771">
        <ele>37</ele>
        <time>2020-10-09T15:34:45.000Z</time>
      </trkpt>
      <trkpt lat="43.58147" lon="3.77106">
        <ele>37</ele>
        <time>2020-10-09T15:34:46.000Z</time>
      </trkpt>
      <trkpt lat="43.5815" lon="3.77112">
        <ele>37</ele>
        <time>2020-10-09T15:34:47.000Z</time>
      </trkpt>
      <trkpt lat="43.58153" lon="3.77119">
        <ele>37</ele>
        <time>2020-10-09T15:34:48.000Z</time>
      </trkpt>
      <trkpt lat="43.58157" lon="3.77125">
        <ele>37</ele>
        <time>2020-10-09T15:34:49.000Z</time>
      </trkpt>
      <trkpt lat="43.5816" lon="3.77131">
        <ele>37</ele>
        <time>2020-10-09T15:34:50.000Z</time>
      </trkpt>
      <trkpt lat="43.58163" lon="3.77137">
        <ele>37</ele>
        <time>2020-10-09T15:34:51.000Z</time>
      </trkpt>
      <trkpt lat="43.58166" lon="3.77143">
        <ele>37</ele>
        <time>2020-10-09T15:34:52.000Z</time>
      </trkpt>
      <trkpt lat="43.58169" lon="3.77149">
        <ele>37</ele>
        <time>2020-10-09T15:34:53.000Z</time>
      </trkpt>
      <trkpt lat="43.58172" lon="3.77155">
        <ele>37</ele>
        <time>2020-10-09T15:34:54.000Z</time>
      </trkpt>
      <trkpt lat="43.58175" lon="3.77161">
        <ele>37</ele>
        <time>2020-10-09T15:34:55.000Z</time>
      </trkpt>
      <trkpt lat="43.58178" lon="3.77168">
        <ele>37</ele>
        <time>2020-10-09T15:34:56.000Z</time>
      </trkpt>
      <trkpt lat="43.58182" lon="3.77174">
        <ele>37</ele>
        <time>2020-10-09T15:34:57.000Z</time>
      </trkpt>
      <trkpt lat="43.58185" lon="3.7718">
        <ele>37</ele>
        <time>2020-10-09T15:34:58.000Z</time>
      </trkpt>
      <trkpt lat="43.58188" lon="3.77187">
        <ele>37</ele>
        <time>2020-10-09T15:34:59.000Z</time>
      </trkpt>
      <trkpt lat="43.58191" lon="3.77193">
        <ele>37.030033662613</ele>
        <time>2020-10-09T15:35:00.000Z</time>
      </trkpt>
      <trkpt lat="43.58194" lon="3.77199">
        <ele>37.13014373564</ele>
        <time>2020-10-09T15:35:01.000Z</time>
      </trkpt>
      <trkpt lat="43.58198" lon="3.77205">
        <ele>37.230253808668</ele>
        <time>2020-10-09T15:35:02.000Z</time>
      </trkpt>
      <trkpt lat="43.58201" lon="3.77212">
        <ele>37.330363881695</ele>
        <time>2020-10-09T15:35:03.000Z</time>
      </trkpt>
      <trkpt lat="43.58204" lon="3.77218">
        <ele>37.430473954723</ele>
        <time>2020-10-09T15:35:04.000Z</time>
      </trkpt>
      <trkpt lat="43.58207" lon="3.77224">
        <ele>37.53058402775</ele>
        <time>2020-10-09T15:35:05.000Z</time>
      </trkpt>
      <trkpt lat="43.5821" lon="3.77231">
        <ele>37.630694100778</ele>
        <time>2020-10-09T15:35:06.000Z</time>
      </trkpt>
      <trkpt lat="43.58213" lon="3.77237">
        <ele>37.730804173805</ele>
        <time>2020-10-09T15:35:07.000Z</time>
      </trkpt>
      <trkpt lat="43.58216" lon="3.77243">
        <ele>37.830914246833</ele>
        <time>2020-10-09T15:35:08.000Z</time>
      </trkpt>
      <trkpt lat="43.5822" lon="3.7725">
        <ele>37.93102431986</ele>
        <time>2020-10-09T15:35:09.000Z</time>
      </trkpt>
      <trkpt lat="43.58223" lon="3.77256">
        <ele>38</ele>
        <time>2020-10-09T15:35:10.000Z</time>
      </trkpt>
      <trkpt lat="43.58226" lon="3.77262">
        <ele>38</ele>
        <time>2020-10-09T15:35:11.000Z</time>
      </trkpt>
      <trkpt lat="43.58229" lon="3.77269">
        <ele>38</ele>
        <time>2020-10-09T15:35:12.000Z</time>
      </trkpt>
      <trkpt lat="43.58232" lon="3.77275">
        <ele>38</ele>
        <time>2020-10-09T15:35:13.000Z</time>
      </trkpt>
      <trkpt lat="43.58236" lon="3.77282">
        <ele>38</ele>
        <time>2020-10-09T15:35:14.000Z</time>
      </trkpt>
      <trkpt lat="43.58239" lon="3.77288">
        <ele>38</ele>
        <time>2020-10-09T15:35:15.000Z</time>
      </trkpt>
      <trkpt lat="43.58243" lon="3.77295">
        <ele>38</ele>
        <time>2020-10-09T15:35:16.000Z</time>
      </trkpt>
      <trkpt lat="43.58246" lon="3.77301">
        <ele>38</ele>
        <time>2020-10-09T15:35:17.000Z</time>
      </trkpt>
      <trkpt lat="43.58249" lon="3.77308">
        <ele>38</ele>
        <time>2020-10-09T15:35:18.000Z</time>
      </trkpt>
      <trkpt lat="43.58253" lon="3.77315">
        <ele>38</ele>
        <time>2020-10-09T15:35:19.000Z</time>
      </trkpt>
      <trkpt lat="43.58256" lon="3.77322">
        <ele>38</ele>
        <time>2020-10-09T15:35:20.000Z</time>
      </trkpt>
      <trkpt lat="43.58259" lon="3.77328">
        <ele>38</ele>
        <time>2020-10-09T15:35:21.000Z</time>
      </trkpt>
      <trkpt lat="43.58263" lon="3.77335">
        <ele>38</ele>
        <time>2020-10-09T15:35:22.000Z</time>
      </trkpt>
      <trkpt lat="43.58266" lon="3.77342">
        <ele>38</ele>
        <time>2020-10-09T15:35:23.000Z</time>
      </trkpt>
      <trkpt lat="43.58269" lon="3.77348">
        <ele>38</ele>
        <time>2020-10-09T15:35:24.000Z</time>
      </trkpt>
      <trkpt lat="43.58272" lon="3.77355">
        <ele>38</ele>
        <time>2020-10-09T15:35:25.000Z</time>
      </trkpt>
      <trkpt lat="43.58276" lon="3.77361">
        <ele>38</ele>
        <time>2020-10-09T15:35:26.000Z</time>
      </trkpt>
      <trkpt lat="43.58279" lon="3.77368">
        <ele>38</ele>
        <time>2020-10-09T15:35:27.000Z</time>
      </trkpt>
      <trkpt lat="43.58282" lon="3.77374">
        <ele>38</ele>
        <time>2020-10-09T15:35:28.000Z</time>
      </trkpt>
      <trkpt lat="43.58285" lon="3.77381">
        <ele>38</ele>
        <time>2020-10-09T15:35:29.000Z</time>
      </trkpt>
      <trkpt lat="43.58289" lon="3.77388">
        <ele>38</ele>
        <time>2020-10-09T15:35:30.000Z</time>
      </trkpt>
      <trkpt lat="43.58292" lon="3.77394">
        <ele>38</ele>
        <time>2020-10-09T15:35:31.000Z</time>
      </trkpt>
      <trkpt lat="43.58295" lon="3.77401">
        <ele>38</ele>
        <time>2020-10-09T15:35:32.000Z</time>
      </trkpt>
      <trkpt lat="43.58299" lon="3.77408">
        <ele>38</ele>
        <time>2020-10-09T15:35:33.000Z</time>
      </trkpt>
      <trkpt lat="43.58302" lon="3.77414">
        <ele>38</ele>
        <time>2020-10-09T15:35:34.000Z</time>
      </trkpt>
      <trkpt lat="43.58305" lon="3.77421">
        <ele>38</ele>
        <time>2020-10-09T15:35:35.000Z</time>
      </trkpt>
      <trkpt lat="43.58309" lon="3.77428">
        <ele>38</ele>
        <time>2020-10-09T15:35:36.000Z</time>
      </trkpt>
      <trkpt lat="43.58312" lon="3.77434">
        <ele>38</ele>
        <time>2020-10-09T15:35:37.000Z</time>
      </trkpt>
      <trkpt lat="43.58316" lon="3.77441">
        <ele>38</ele>
        <time>2020-10-09T15:35:38.000Z</time>
      </trkpt>
      <trkpt lat="43.58319" lon="3.77447">
        <ele>38</ele>
        <time>2020-10-09T15:35:39.000Z</time>
      </trkpt>
      <trkpt lat="43.58322" lon="3.77454">
        <ele>38</ele>
        <time>2020-10-09T15:35:40.000Z</time>
      </trkpt>
      <trkpt lat="43.58326" lon="3.77461">
        <ele>38</ele>
        <time>2020-10-09T15:35:41.000Z</time>
      </trkpt>
      <trkpt lat="43.58329" lon="3.77468">
        <ele>38</ele>
        <time>2020-10-09T15:35:42.000Z</time>
      </trkpt>
      <trkpt lat="43.58332" lon="3.77475">
        <ele>38</ele>
        <time>2020-10-09T15:35:43.000Z</time>
      </trkpt>
      <trkpt lat="43.58336" lon="3.77481">
        <ele>38</ele>
        <time>2020-10-09T15:35:44.000Z</time>
      </trkpt>
      <trkpt lat="43.58339" lon="3.77488">
        <ele>38</ele>
        <time>2020-10-09T15:35:45.000Z</time>
      </trkpt>
      <trkpt lat="43.58342" lon="3.77495">
        <ele>38</ele>
        <time>2020-10-09T15:35:46.000Z</time>
      </trkpt>
      <trkpt lat="43.58346" lon="3.77501">
        <ele>38</ele>
        <time>2020-10-09T15:35:47.000Z</time>
      </trkpt>
      <trkpt lat="43.58349" lon="3.77508">
        <ele>38</ele>
        <time>2020-10-09T15:35:48.000Z</time>
      </trkpt>
      <trkpt lat="43.58353" lon="3.77515">
        <ele>38</ele>
        <time>2020-10-09T15:35:49.000Z</time>
      </trkpt>
      <trkpt lat="43.58356" lon="3.77522">
        <ele>38</ele>
        <time>2020-10-09T15:35:50.000Z</time>
      </trkpt>
      <trkpt lat="43.58359" lon="3.77528">
        <ele>38</ele>
        <time>2020-10-09T15:35:51.000Z</time>
      </trkpt>
      <trkpt lat="43.58363" lon="3.77535">
        <ele>38</ele>
        <time>2020-10-09T15:35:52.000Z</time>
      </trkpt>
      <trkpt lat="43.58366" lon="3.77542">
        <ele>38</ele>
        <time>2020-10-09T15:35:53.000Z</time>
      </trkpt>
      <trkpt lat="43.58369" lon="3.77549">
        <ele>38</ele>
        <time>2020-10-09T15:35:54.000Z</time>
      </trkpt>
      <trkpt lat="43.58373" lon="3.77556">
        <ele>38</ele>
        <time>2020-10-09T15:35:55.000Z</time>
      </trkpt>
      <trkpt lat="43.58376" lon="3.77562">
        <ele>38</ele>
        <time>2020-10-09T15:35:56.000Z</time>
      </trkpt>
      <trkpt lat="43.5838" lon="3.77568">
        <ele>38</ele>
        <time>2020-10-09T15:35:57.000Z</time>
      </trkpt>
      <trkpt lat="43.58383" lon="3.77575">
        <ele>38</ele>
        <time>2020-10-09T15:35:58.000Z</time>
      </trkpt>
      <trkpt lat="43.58387" lon="3.77582">
        <ele>38</ele>
        <time>2020-10-09T15:35:59.000Z</time>
      </trkpt>
      <trkpt lat="43.5839" lon="3.77588">
        <ele>38</ele>
        <time>2020-10-09T15:36:00.000Z</time>
      </trkpt>
      <trkpt lat="43.58393" lon="3.77595">
        <ele>38</ele>
        <time>2020-10-09T15:36:01.000Z</time>
      </trkpt>
      <trkpt lat="43.58396" lon="3.77601">
        <ele>38</ele>
        <time>2020-10-09T15:36:02.000Z</time>
      </trkpt>
      <trkpt lat="43.58399" lon="3.77608">
        <ele>38</ele>
        <time>2020-10-09T15:36:03.000Z</time>
      </trkpt>
      <trkpt lat="43.58402" lon="3.77615">
        <ele>38</ele>
        <time>2020-10-09T15:36:04.000Z</time>
      </trkpt>
      <trkpt lat="43.58406" lon="3.77621">
        <ele>38</ele>
        <time>2020-10-09T15:36:05.000Z</time>
      </trkpt>
      <trkpt lat="43.58409" lon="3.77628">
        <ele>38</ele>
        <time>2020-10-09T15:36:06.000Z</time>
      </trkpt>
      <trkpt lat="43.58412" lon="3.77634">
        <ele>38</ele>
        <time>2020-10-09T15:36:07.000Z</time>
      </trkpt>
      <trkpt lat="43.58415" lon="3.7764">
        <ele>38</ele>
        <time>2020-10-09T15:36:08.000Z</time>
      </trkpt>
      <trkpt lat="43.58419" lon="3.77646">
        <ele>38</ele>
        <time>2020-10-09T15:36:09.000Z</time>
      </trkpt>
      <trkpt lat="43.58422" lon="3.77653">
        <ele>38.032</ele>
        <time>2020-10-09T15:36:10.000Z</time>
      </trkpt>
      <trkpt lat="43.58425" lon="3.77659">
        <ele>38.132</ele>
        <time>2020-10-09T15:36:11.000Z</time>
      </trkpt>
      <trkpt lat="43.58428" lon="3.77666">
        <ele>38.232</ele>
        <time>2020-10-09T15:36:12.000Z</time>
      </trkpt>
      <trkpt lat="43.58431" lon="3.77672">
        <ele>38.332</ele>
        <time>2020-10-09T15:36:13.000Z</time>
      </trkpt>
      <trkpt lat="43.58434" lon="3.77679">
        <ele>38.432</ele>
        <time>2020-10-09T15:36:14.000Z</time>
      </trkpt>
      <trkpt lat="43.58437" lon="3.77685">
        <ele>38.532</ele>
        <time>2020-10-09T15:36:15.000Z</time>
      </trkpt>
      <trkpt lat="43.58439" lon="3.77692">
        <ele>38.632</ele>
        <time>2020-10-09T15:36:16.000Z</time>
      </trkpt>
      <trkpt lat="43.58442" lon="3.77699">
        <ele>38.732</ele>
        <time>2020-10-09T15:36:17.000Z</time>
      </trkpt>
      <trkpt lat="43.58445" lon="3.77706">
        <ele>38.832</ele>
        <time>2020-10-09T15:36:18.000Z</time>
      </trkpt>
      <trkpt lat="43.58447" lon="3.77712">
        <ele>38.932</ele>
        <time>2020-10-09T15:36:19.000Z</time>
      </trkpt>
      <trkpt lat="43.5845" lon="3.77719">
        <ele>39.032</ele>
        <time>2020-10-09T15:36:20.000Z</time>
      </trkpt>
      <trkpt lat="43.58453" lon="3.77726">
        <ele>39.132</ele>
        <time>2020-10-09T15:36:21.000Z</time>
      </trkpt>
      <trkpt lat="43.58455" lon="3.77733">
        <ele>39.232</ele>
        <time>2020-10-09T15:36:22.000Z</time>
      </trkpt>
      <trkpt lat="43.58457" lon="3.7774">
        <ele>39.332</ele>
        <time>2020-10-09T15:36:23.000Z</time>
      </trkpt>
      <trkpt lat="43.58459" lon="3.77747">
        <ele>39.432</ele>
        <time>2020-10-09T15:36:24.000Z</time>
      </trkpt>
      <trkpt lat="43.58461" lon="3.77754">
        <ele>39.532</ele>
        <time>2020-10-09T15:36:25.000Z</time>
      </trkpt>
      <trkpt lat="43.58462" lon="3.77761">
        <ele>39.632</ele>
        <time>2020-10-09T15:36:26.000Z</time>
      </trkpt>
      <trkpt lat="43.58464" lon="3.77768">
        <ele>39.732</ele>
        <time>2020-10-09T15:36:27.000Z</time>
      </trkpt>
      <trkpt lat="43.58465" lon="3.77775">
        <ele>39.832</ele>
        <time>2020-10-09T15:36:28.000Z</time>
      </trkpt>
      <trkpt lat="43.58467" lon="3.77782">
        <ele>39.932</ele>
        <time>2020-10-09T15:36:29.000Z</time>
      </trkpt>
      <trkpt lat="43.58468" lon="3.77789">
        <ele>40</ele>
        <time>2020-10-09T15:36:30.000Z</time>
      </trkpt>
      <trkpt lat="43.5847" lon="3.77795">
        <ele>40</ele>
        <time>2020-10-09T15:36:31.000Z</time>
      </trkpt>
      <trkpt lat="43.58471" lon="3.77801">
        <ele>40</ele>
        <time>2020-10-09T15:36:32.000Z</time>
      </trkpt>
      <trkpt lat="43.58473" lon="3.77807">
        <ele>40</ele>
        <time>2020-10-09T15:36:33.000Z</time>
      </trkpt>
      <trkpt lat="43.58474" lon="3.77812">
        <ele>40</ele>
        <time>2020-10-09T15:36:34.000Z</time>
      </trkpt>
      <trkpt lat="43.58477" lon="3.77817">
        <ele>40</ele>
        <time>2020-10-09T15:36:35.000Z</time>
      </trkpt>
      <trkpt lat="43.5848" lon="3.7782">
        <ele>40</ele>
        <time>2020-10-09T15:36:36.000Z</time>
      </trkpt>
      <trkpt lat="43.58482" lon="3.77823">
        <ele>40</ele>
        <time>2020-10-09T15:36:37.000Z</time>
      </trkpt>
      <trkpt lat="43.58484" lon="3.77827">
        <ele>40</ele>
        <time>2020-10-09T15:36:38.000Z</time>
      </trkpt>
      <trkpt lat="43.58485" lon="3.77833">
        <ele>40</ele>
        <time>2020-10-09T15:36:39.000Z</time>
      </trkpt>
      <trkpt lat="43.58484" lon="3.77838">
        <ele>40</ele>
        <time>2020-10-09T15:36:40.000Z</time>
      </trkpt>
      <trkpt lat="43.58483" lon="3.77842">
        <ele>40</ele>
        <time>2020-10-09T15:36:41.000Z</time>
      </trkpt>
      <trkpt lat="43.58483" lon="3.77846">
        <ele>40</ele>
        <time>2020-10-09T15:36:42.000Z</time>
      </trkpt>
      <trkpt lat="43.58482" lon="3.77849">
        <ele>40</ele>
        <time>2020-10-09T15:36:43.000Z</time>
      </trkpt>
      <trkpt lat="43.58482" lon="3.77853">
        <ele>40</ele>
        <time>2020-10-09T15:36:44.000Z</time>
      </trkpt>
      <trkpt lat="43.58481" lon="3.77857">
        <ele>40</ele>
        <time>2020-10-09T15:36:45.000Z</time>
      </trkpt>
      <trkpt lat="43.58481" lon="3.77862">
        <ele>40</ele>
        <time>2020-10-09T15:36:46.000Z</time>
      </trkpt>
      <trkpt lat="43.58481" lon="3.77866">
        <ele>40</ele>
        <time>2020-10-09T15:36:47.000Z</time>
      </trkpt>
      <trkpt lat="43.58483" lon="3.7787">
        <ele>40</ele>
        <time>2020-10-09T15:36:48.000Z</time>
      </trkpt>
      <trkpt lat="43.58486" lon="3.77874">
        <ele>40</ele>
        <time>2020-10-09T15:36:49.000Z</time>
      </trkpt>
      <trkpt lat="43.58489" lon="3.77878">
        <ele>40</ele>
        <time>2020-10-09T15:36:50.000Z</time>
      </trkpt>
      <trkpt lat="43.58493" lon="3.77882">
        <ele>39.901088062959</ele>
        <time>2020-10-09T15:36:51.000Z</time>
      </trkpt>
      <trkpt lat="43.58496" lon="3.77886">
        <ele>39.802176125918</ele>
        <time>2020-10-09T15:36:52.000Z</time>
      </trkpt>
      <trkpt lat="43.58499" lon="3.77891">
        <ele>39.703264188878</ele>
        <time>2020-10-09T15:36:53.000Z</time>
      </trkpt>
      <trkpt lat="43.58502" lon="3.77896">
        <ele>39.604352251837</ele>
        <time>2020-10-09T15:36:54.000Z</time>
      </trkpt>
      <trkpt lat="43.58505" lon="3.77901">
        <ele>39.505440314796</ele>
        <time>2020-10-09T15:36:55.000Z</time>
      </trkpt>
      <trkpt lat="43.58507" lon="3.77907">
        <ele>39.406528377756</ele>
        <time>2020-10-09T15:36:56.000Z</time>
      </trkpt>
      <trkpt lat="43.58507" lon="3.77914">
        <ele>39.307616440715</ele>
        <time>2020-10-09T15:36:57.000Z</time>
      </trkpt>
      <trkpt lat="43.58506" lon="3.7792">
        <ele>39.208704503674</ele>
        <time>2020-10-09T15:36:58.000Z</time>
      </trkpt>
      <trkpt lat="43.58504" lon="3.77927">
        <ele>39.109792566633</ele>
        <time>2020-10-09T15:36:59.000Z</time>
      </trkpt>
      <trkpt lat="43.58502" lon="3.77934">
        <ele>39.010880629593</ele>
        <time>2020-10-09T15:37:00.000Z</time>
      </trkpt>
      <trkpt lat="43.58501" lon="3.77941">
        <ele>39</ele>
        <time>2020-10-09T15:37:01.000Z</time>
      </trkpt>
      <trkpt lat="43.585" lon="3.77948">
        <ele>39</ele>
        <time>2020-10-09T15:37:02.000Z</time>
      </trkpt>
      <trkpt lat="43.58499" lon="3.77955">
        <ele>39</ele>
        <time>2020-10-09T15:37:03.000Z</time>
      </trkpt>
      <trkpt lat="43.58497" lon="3.77962">
        <ele>39</ele>
        <time>2020-10-09T15:37:04.000Z</time>
      </trkpt>
      <trkpt lat="43.58497" lon="3.77969">
        <ele>39</ele>
        <time>2020-10-09T15:37:05.000Z</time>
      </trkpt>
      <trkpt lat="43.58496" lon="3.77976">
        <ele>39</ele>
        <time>2020-10-09T15:37:06.000Z</time>
      </trkpt>
      <trkpt lat="43.58495" lon="3.77984">
        <ele>39</ele>
        <time>2020-10-09T15:37:07.000Z</time>
      </trkpt>
      <trkpt lat="43.58494" lon="3.77991">
        <ele>39</ele>
        <time>2020-10-09T15:37:08.000Z</time>
      </trkpt>
      <trkpt lat="43.58493" lon="3.77998">
        <ele>39</ele>
        <time>2020-10-09T15:37:09.000Z</time>
      </trkpt>
      <trkpt lat="43.58492" lon="3.78005">
        <ele>39</ele>
        <time>2020-10-09T15:37:10.000Z</time>
      </trkpt>
      <trkpt lat="43.58492" lon="3.78012">
        <ele>39</ele>
        <time>2020-10-09T15:37:11.000Z</time>
      </trkpt>
      <trkpt lat="43.58491" lon="3.78019">
        <ele>39</ele>
        <time>2020-10-09T15:37:12.000Z</time>
      </trkpt>
      <trkpt lat="43.58491" lon="3.78027">
        <ele>39</ele>
        <time>2020-10-09T15:37:13.000Z</time>
      </trkpt>
      <trkpt lat="43.58491" lon="3.78034">
        <ele>39</ele>
        <time>2020-10-09T15:37:14.000Z</time>
      </trkpt>
      <trkpt lat="43.5849" lon="3.78041">
        <ele>39</ele>
        <time>2020-10-09T15:37:15.000Z</time>
      </trkpt>
      <trkpt lat="43.5849" lon="3.78048">
        <ele>39</ele>
        <time>2020-10-09T15:37:16.000Z</time>
      </trkpt>
      <trkpt lat="43.5849" lon="3.78055">
        <ele>39</ele>
        <time>2020-10-09T15:37:17.000Z</time>
      </trkpt>
      <trkpt lat="43.58491" lon="3.78062">
        <ele>39</ele>
        <time>2020-10-09T15:37:18.000Z</time>
      </trkpt>
      <trkpt lat="43.58491" lon="3.7807">
        <ele>39</ele>
        <time>2020-10-09T15:37:19.000Z</time>
      </trkpt>
      <trkpt lat="43.58491" lon="3.78077">
        <ele>39.031067941861</ele>
        <time>2020-10-09T15:37:20.000Z</time>
      </trkpt>
      <trkpt lat="43.58491" lon="3.78084">
        <ele>39.128155260175</ele>
        <time>2020-10-09T15:37:21.000Z</time>
      </trkpt>
      <trkpt lat="43.58491" lon="3.78091">
        <ele>39.22524257849</ele>
        <time>2020-10-09T15:37:22.000Z</time>
      </trkpt>
      <trkpt lat="43.58491" lon="3.78098">
        <ele>39.322329896805</ele>
        <time>2020-10-09T15:37:23.000Z</time>
      </trkpt>
      <trkpt lat="43.58491" lon="3.78105">
        <ele>39.419417215119</ele>
        <time>2020-10-09T15:37:24.000Z</time>
      </trkpt>
      <trkpt lat="43.58491" lon="3.78112">
        <ele>39.516504533434</ele>
        <time>2020-10-09T15:37:25.000Z</time>
      </trkpt>
      <trkpt lat="43.58491" lon="3.78119">
        <ele>39.613591851749</ele>
        <time>2020-10-09T15:37:26.000Z</time>
      </trkpt>
      <trkpt lat="43.58491" lon="3.78126">
        <ele>39.710679170063</ele>
        <time>2020-10-09T15:37:27.000Z</time>
      </trkpt>
      <trkpt lat="43.58491" lon="3.78133">
        <ele>39.807766488378</ele>
        <time>2020-10-09T15:37:28.000Z</time>
      </trkpt>
      <trkpt lat="43.58491" lon="3.7814">
        <ele>39.904853806693</ele>
        <time>2020-10-09T15:37:29.000Z</time>
      </trkpt>
      <trkpt lat="43.58491" lon="3.78147">
        <ele>40.001997363276</ele>
        <time>2020-10-09T15:37:30.000Z</time>
      </trkpt>
      <trkpt lat="43.58491" lon="3.78154">
        <ele>40.101897495112</ele>
        <time>2020-10-09T15:37:31.000Z</time>
      </trkpt>
      <trkpt lat="43.58491" lon="3.78161">
        <ele>40.201797626948</ele>
        <time>2020-10-09T15:37:32.000Z</time>
      </trkpt>
      <trkpt lat="43.58492" lon="3.78168">
        <ele>40.301697758784</ele>
        <time>2020-10-09T15:37:33.000Z</time>
      </trkpt>
      <trkpt lat="43.58492" lon="3.78175">
        <ele>40.401597890621</ele>
        <time>2020-10-09T15:37:34.000Z</time>
      </trkpt>
      <trkpt lat="43.58492" lon="3.78182">
        <ele>40.501498022457</ele>
        <time>2020-10-09T15:37:35.000Z</time>
      </trkpt>
      <trkpt lat="43.58492" lon="3.78189">
        <ele>40.601398154293</ele>
        <time>2020-10-09T15:37:36.000Z</time>
      </trkpt>
      <trkpt lat="43.58492" lon="3.78196">
        <ele>40.701298286129</ele>
        <time>2020-10-09T15:37:37.000Z</time>
      </trkpt>
      <trkpt lat="43.58492" lon="3.78203">
        <ele>40.801198417966</ele>
        <time>2020-10-09T15:37:38.000Z</time>
      </trkpt>
      <trkpt lat="43.58493" lon="3.7821">
        <ele>40.901098549802</ele>
        <time>2020-10-09T15:37:39.000Z</time>
      </trkpt>
      <trkpt lat="43.58492" lon="3.78218">
        <ele>41</ele>
        <time>2020-10-09T15:37:40.000Z</time>
      </trkpt>
      <trkpt lat="43.58492" lon="3.78225">
        <ele>41</ele>
        <time>2020-10-09T15:37:41.000Z</time>
      </trkpt>
      <trkpt lat="43.58492" lon="3.78232">
        <ele>41</ele>
        <time>2020-10-09T15:37:42.000Z</time>
      </trkpt>
      <trkpt lat="43.58492" lon="3.78239">
        <ele>41</ele>
        <time>2020-10-09T15:37:43.000Z</time>
      </trkpt>
      <trkpt lat="43.58492" lon="3.78246">
        <ele>41</ele>
        <time>2020-10-09T15:37:44.000Z</time>
      </trkpt>
      <trkpt lat="43.58492" lon="3.78254">
        <ele>41</ele>
        <time>2020-10-09T15:37:45.000Z</time>
      </trkpt>
      <trkpt lat="43.58493" lon="3.78261">
        <ele>41</ele>
        <time>2020-10-09T15:37:46.000Z</time>
      </trkpt>
      <trkpt lat="43.58493" lon="3.78268">
        <ele>41</ele>
        <time>2020-10-09T15:37:47.000Z</time>
      </trkpt>
      <trkpt lat="43.58493" lon="3.78275">
        <ele>41</ele>
        <time>2020-10-09T15:37:48.000Z</time>
      </trkpt>
      <trkpt lat="43.58493" lon="3.78283">
        <ele>41</ele>
        <time>2020-10-09T15:37:49.000Z</time>
      </trkpt>
      <trkpt lat="43.58494" lon="3.7829">
        <ele>41</ele>
        <time>2020-10-09T15:37:50.000Z</time>
      </trkpt>
      <trkpt lat="43.58495" lon="3.78297">
        <ele>41</ele>
        <time>2020-10-09T15:37:51.000Z</time>
      </trkpt>
      <trkpt lat="43.58496" lon="3.78304">
        <ele>41</ele>
        <time>2020-10-09T15:37:52.000Z</time>
      </trkpt>
      <trkpt lat="43.58498" lon="3.78312">
        <ele>41</ele>
        <time>2020-10-09T15:37:53.000Z</time>
      </trkpt>
      <trkpt lat="43.58499" lon="3.7832">
        <ele>41</ele>
        <time>2020-10-09T15:37:54.000Z</time>
      </trkpt>
      <trkpt lat="43.585" lon="3.78328">
        <ele>41</ele>
        <time>2020-10-09T15:37:55.000Z</time>
      </trkpt>
      <trkpt lat="43.58501" lon="3.78336">
        <ele>41</ele>
        <time>2020-10-09T15:37:56.000Z</time>
      </trkpt>
      <trkpt lat="43.58503" lon="3.78344">
        <ele>41</ele>
        <time>2020-10-09T15:37:57.000Z</time>
      </trkpt>
      <trkpt lat="43.58504" lon="3.78352">
        <ele>41</ele>
        <time>2020-10-09T15:37:58.000Z</time>
      </trkpt>
      <trkpt lat="43.58505" lon="3.7836">
        <ele>41</ele>
        <time>2020-10-09T15:37:59.000Z</time>
      </trkpt>
      <trkpt lat="43.58507" lon="3.78368">
        <ele>40.969966337387</ele>
        <time>2020-10-09T15:38:00.000Z</time>
      </trkpt>
      <trkpt lat="43.58509" lon="3.78376">
        <ele>40.86985626436</ele>
        <time>2020-10-09T15:38:01.000Z</time>
      </trkpt>
      <trkpt lat="43.5851" lon="3.78384">
        <ele>40.769746191332</ele>
        <time>2020-10-09T15:38:02.000Z</time>
      </trkpt>
      <trkpt lat="43.58512" lon="3.78392">
        <ele>40.669636118305</ele>
        <time>2020-10-09T15:38:03.000Z</time>
      </trkpt>
      <trkpt lat="43.58514" lon="3.784">
        <ele>40.569526045277</ele>
        <time>2020-10-09T15:38:04.000Z</time>
      </trkpt>
      <trkpt lat="43.58516" lon="3.78408">
        <ele>40.46941597225</ele>
        <time>2020-10-09T15:38:05.000Z</time>
      </trkpt>
      <trkpt lat="43.58518" lon="3.78416">
        <ele>40.369305899222</ele>
        <time>2020-10-09T15:38:06.000Z</time>
      </trkpt>
      <trkpt lat="43.58519" lon="3.78424">
        <ele>40.269195826195</ele>
        <time>2020-10-09T15:38:07.000Z</time>
      </trkpt>
      <trkpt lat="43.58521" lon="3.78431">
        <ele>40.169085753167</ele>
        <time>2020-10-09T15:38:08.000Z</time>
      </trkpt>
      <trkpt lat="43.58523" lon="3.78439">
        <ele>40.06897568014</ele>
        <time>2020-10-09T15:38:09.000Z</time>
      </trkpt>
      <trkpt lat="43.58525" lon="3.78447">
        <ele>40</ele>
        <time>2020-10-09T15:38:10.000Z</time>
      </trkpt>
      <trkpt lat="43.58526" lon="3.78456">
        <ele>40</ele>
        <time>2020-10-09T15:38:11.000Z</time>
      </trkpt>
      <trkpt lat="43.58528" lon="3.78464">
        <ele>40</ele>
        <time>2020-10-09T15:38:12.000Z</time>
      </trkpt>
      <trkpt lat="43.5853" lon="3.78472">
        <ele>40</ele>
        <time>2020-10-09T15:38:13.000Z</time>
      </trkpt>
      <trkpt lat="43.58532" lon="3.7848">
        <ele>40</ele>
        <time>2020-10-09T15:38:14.000Z</time>
      </trkpt>
      <trkpt lat="43.58534" lon="3.78489">
        <ele>40</ele>
        <time>2020-10-09T15:38:15.000Z</time>
      </trkpt>
      <trkpt lat="43.58536" lon="3.78497">
        <ele>40</ele>
        <time>2020-10-09T15:38:16.000Z</time>
      </trkpt>
      <trkpt lat="43.58538" lon="3.78505">
        <ele>40</ele>
        <time>2020-10-09T15:38:17.000Z</time>
      </trkpt>
      <trkpt lat="43.58541" lon="3.78514">
        <ele>40</ele>
        <time>2020-10-09T15:38:18.000Z</time>
      </trkpt>
      <trkpt lat="43.58543" lon="3.78522">
        <ele>40</ele>
        <time>2020-10-09T15:38:19.000Z</time>
      </trkpt>
      <trkpt lat="43.58546" lon="3.7853">
        <ele>40</ele>
        <time>2020-10-09T15:38:20.000Z</time>
      </trkpt>
      <trkpt lat="43.58548" lon="3.78539">
        <ele>40</ele>
        <time>2020-10-09T15:38:21.000Z</time>
      </trkpt>
      <trkpt lat="43.5855" lon="3.78548">
        <ele>40</ele>
        <time>2020-10-09T15:38:22.000Z</time>
      </trkpt>
      <trkpt lat="43.58553" lon="3.78558">
        <ele>40</ele>
        <time>2020-10-09T15:38:23.000Z</time>
      </trkpt>
      <trkpt lat="43.58555" lon="3.78567">
        <ele>40</ele>
        <time>2020-10-09T15:38:24.000Z</time>
      </trkpt>
      <trkpt lat="43.58557" lon="3.78577">
        <ele>40</ele>
        <time>2020-10-09T15:38:25.000Z</time>
      </trkpt>
      <trkpt lat="43.58559" lon="3.78586">
        <ele>40</ele>
        <time>2020-10-09T15:38:26.000Z</time>
      </trkpt>
      <trkpt lat="43.58561" lon="3.78596">
        <ele>40</ele>
        <time>2020-10-09T15:38:27.000Z</time>
      </trkpt>
      <trkpt lat="43.58563" lon="3.78605">
        <ele>40</ele>
        <time>2020-10-09T15:38:28.000Z</time>
      </trkpt>
      <trkpt lat="43.58565" lon="3.78614">
        <ele>40</ele>
        <time>2020-10-09T15:38:29.000Z</time>
      </trkpt>
      <trkpt lat="43.58567" lon="3.78623">
        <ele>39.969969338949</ele>
        <time>2020-10-09T15:38:30.000Z</time>
      </trkpt>
      <trkpt lat="43.58569" lon="3.78632">
        <ele>39.869869270913</ele>
        <time>2020-10-09T15:38:31.000Z</time>
      </trkpt>
      <trkpt lat="43.58571" lon="3.78641">
        <ele>39.769769202877</ele>
        <time>2020-10-09T15:38:32.000Z</time>
      </trkpt>
      <trkpt lat="43.58572" lon="3.7865">
        <ele>39.669669134841</ele>
        <time>2020-10-09T15:38:33.000Z</time>
      </trkpt>
      <trkpt lat="43.58574" lon="3.78659">
        <ele>39.569569066805</ele>
        <time>2020-10-09T15:38:34.000Z</time>
      </trkpt>
      <trkpt lat="43.58576" lon="3.78668">
        <ele>39.469468998769</ele>
        <time>2020-10-09T15:38:35.000Z</time>
      </trkpt>
      <trkpt lat="43.58578" lon="3.78677">
        <ele>39.369368930733</ele>
        <time>2020-10-09T15:38:36.000Z</time>
      </trkpt>
      <trkpt lat="43.5858" lon="3.78686">
        <ele>39.269268862697</ele>
        <time>2020-10-09T15:38:37.000Z</time>
      </trkpt>
      <trkpt lat="43.58582" lon="3.78694">
        <ele>39.169168794661</ele>
        <time>2020-10-09T15:38:38.000Z</time>
      </trkpt>
      <trkpt lat="43.58584" lon="3.78703">
        <ele>39.069068726625</ele>
        <time>2020-10-09T15:38:39.000Z</time>
      </trkpt>
      <trkpt lat="43.58586" lon="3.78712">
        <ele>38.969637325316</ele>
        <time>2020-10-09T15:38:40.000Z</time>
      </trkpt>
      <trkpt lat="43.58588" lon="3.78721">
        <ele>38.87169422446</ele>
        <time>2020-10-09T15:38:41.000Z</time>
      </trkpt>
      <trkpt lat="43.5859" lon="3.7873">
        <ele>38.773751123603</ele>
        <time>2020-10-09T15:38:42.000Z</time>
      </trkpt>
      <trkpt lat="43.58591" lon="3.7874">
        <ele>38.675808022747</ele>
        <time>2020-10-09T15:38:43.000Z</time>
      </trkpt>
      <trkpt lat="43.58593" lon="3.78749">
        <ele>38.57786492189</ele>
        <time>2020-10-09T15:38:44.000Z</time>
      </trkpt>
      <trkpt lat="43.58595" lon="3.78758">
        <ele>38.479921821033</ele>
        <time>2020-10-09T15:38:45.000Z</time>
      </trkpt>
      <trkpt lat="43.58596" lon="3.78767">
        <ele>38.381978720177</ele>
        <time>2020-10-09T15:38:46.000Z</time>
      </trkpt>
      <trkpt lat="43.58597" lon="3.78777">
        <ele>38.28403561932</ele>
        <time>2020-10-09T15:38:47.000Z</time>
      </trkpt>
      <trkpt lat="43.58598" lon="3.78786">
        <ele>38.186092518463</ele>
        <time>2020-10-09T15:38:48.000Z</time>
      </trkpt>
      <trkpt lat="43.58599" lon="3.78795">
        <ele>38.088149417607</ele>
        <time>2020-10-09T15:38:49.000Z</time>
      </trkpt>
      <trkpt lat="43.586" lon="3.78805">
        <ele>38</ele>
        <time>2020-10-09T15:38:50.000Z</time>
      </trkpt>
      <trkpt lat="43.586" lon="3.78815">
        <ele>38</ele>
        <time>2020-10-09T15:38:51.000Z</time>
      </trkpt>
      <trkpt lat="43.586" lon="3.78824">
        <ele>38</ele>
        <time>2020-10-09T15:38:52.000Z</time>
      </trkpt>
      <trkpt lat="43.58601" lon="3.78834">
        <ele>38</ele>
        <time>2020-10-09T15:38:53.000Z</time>
      </trkpt>
      <trkpt lat="43.58601" lon="3.78843">
        <ele>38</ele>
        <time>2020-10-09T15:38:54.000Z</time>
      </trkpt>
      <trkpt lat="43.58601" lon="3.78853">
        <ele>38</ele>
        <time>2020-10-09T15:38:55.000Z</time>
      </trkpt>
      <trkpt lat="43.58601" lon="3.78862">
        <ele>38</ele>
        <time>2020-10-09T15:38:56.000Z</time>
      </trkpt>
      <trkpt lat="43.58601" lon="3.78871">
        <ele>38</ele>
        <time>2020-10-09T15:38:57.000Z</time>
      </trkpt>
      <trkpt lat="43.58601" lon="3.7888">
        <ele>38</ele>
        <time>2020-10-09T15:38:58.000Z</time>
      </trkpt>
      <trkpt lat="43.58601" lon="3.78889">
        <ele>38</ele>
        <time>2020-10-09T15:38:59.000Z</time>
      </trkpt>
      <trkpt lat="43.58601" lon="3.78898">
        <ele>37.971887550201</ele>
        <time>2020-10-09T15:39:00.000Z</time>
      </trkpt>
      <trkpt lat="43.58601" lon="3.78907">
        <ele>37.871485943775</ele>
        <time>2020-10-09T15:39:01.000Z</time>
      </trkpt>
      <trkpt lat="43.58601" lon="3.78916">
        <ele>37.771084337349</ele>
        <time>2020-10-09T15:39:02.000Z</time>
      </trkpt>
      <trkpt lat="43.58601" lon="3.78925">
        <ele>37.670682730924</ele>
        <time>2020-10-09T15:39:03.000Z</time>
      </trkpt>
      <trkpt lat="43.586" lon="3.78933">
        <ele>37.570281124498</ele>
        <time>2020-10-09T15:39:04.000Z</time>
      </trkpt>
      <trkpt lat="43.586" lon="3.78942">
        <ele>37.469879518072</ele>
        <time>2020-10-09T15:39:05.000Z</time>
      </trkpt>
      <trkpt lat="43.586" lon="3.7895">
        <ele>37.369477911647</ele>
        <time>2020-10-09T15:39:06.000Z</time>
      </trkpt>
      <trkpt lat="43.58601" lon="3.78958">
        <ele>37.269076305221</ele>
        <time>2020-10-09T15:39:07.000Z</time>
      </trkpt>
      <trkpt lat="43.58602" lon="3.78965">
        <ele>37.168674698795</ele>
        <time>2020-10-09T15:39:08.000Z</time>
      </trkpt>
      <trkpt lat="43.58603" lon="3.78973">
        <ele>37.06827309237</ele>
        <time>2020-10-09T15:39:09.000Z</time>
      </trkpt>
      <trkpt lat="43.58603" lon="3.78982">
        <ele>36.968</ele>
        <time>2020-10-09T15:39:10.000Z</time>
      </trkpt>
      <trkpt lat="43.58602" lon="3.7899">
        <ele>36.868</ele>
        <time>2020-10-09T15:39:11.000Z</time>
      </trkpt>
      <trkpt lat="43.58601" lon="3.78998">
        <ele>36.768</ele>
        <time>2020-10-09T15:39:12.000Z</time>
      </trkpt>
      <trkpt lat="43.586" lon="3.79006">
        <ele>36.668</ele>
        <time>2020-10-09T15:39:13.000Z</time>
      </trkpt>
      <trkpt lat="43.58599" lon="3.79014">
        <ele>36.568</ele>
        <time>2020-10-09T15:39:14.000Z</time>
      </trkpt>
      <trkpt lat="43.58599" lon="3.79022">
        <ele>36.468</ele>
        <time>2020-10-09T15:39:15.000Z</time>
      </trkpt>
      <trkpt lat="43.58599" lon="3.7903">
        <ele>36.368</ele>
        <time>2020-10-09T15:39:16.000Z</time>
      </trkpt>
      <trkpt lat="43.58599" lon="3.79039">
        <ele>36.268</ele>
        <time>2020-10-09T15:39:17.000Z</time>
      </trkpt>
      <trkpt lat="43.58599" lon="3.79047">
        <ele>36.168</ele>
        <time>2020-10-09T15:39:18.000Z</time>
      </trkpt>
      <trkpt lat="43.58599" lon="3.79055">
        <ele>36.068</ele>
        <time>2020-10-09T15:39:19.000Z</time>
      </trkpt>
      <trkpt lat="43.58599" lon="3.79063">
        <ele>35.968031957812</ele>
        <time>2020-10-09T15:39:20.000Z</time>
      </trkpt>
      <trkpt lat="43.586" lon="3.79072">
        <ele>35.868131825976</ele>
        <time>2020-10-09T15:39:21.000Z</time>
      </trkpt>
      <trkpt lat="43.586" lon="3.7908">
        <ele>35.76823169414</ele>
        <time>2020-10-09T15:39:22.000Z</time>
      </trkpt>
      <trkpt lat="43.58601" lon="3.79088">
        <ele>35.668331562304</ele>
        <time>2020-10-09T15:39:23.000Z</time>
      </trkpt>
      <trkpt lat="43.58601" lon="3.79097">
        <ele>35.568431430468</ele>
        <time>2020-10-09T15:39:24.000Z</time>
      </trkpt>
      <trkpt lat="43.58602" lon="3.79105">
        <ele>35.468531298631</ele>
        <time>2020-10-09T15:39:25.000Z</time>
      </trkpt>
      <trkpt lat="43.58603" lon="3.79113">
        <ele>35.368631166795</ele>
        <time>2020-10-09T15:39:26.000Z</time>
      </trkpt>
      <trkpt lat="43.58603" lon="3.79121">
        <ele>35.268731034959</ele>
        <time>2020-10-09T15:39:27.000Z</time>
      </trkpt>
      <trkpt lat="43.58604" lon="3.79129">
        <ele>35.168830903123</ele>
        <time>2020-10-09T15:39:28.000Z</time>
      </trkpt>
      <trkpt lat="43.58605" lon="3.79138">
        <ele>35.068930771287</ele>
        <time>2020-10-09T15:39:29.000Z</time>
      </trkpt>
      <trkpt lat="43.58606" lon="3.79146">
        <ele>35</ele>
        <time>2020-10-09T15:39:30.000Z</time>
      </trkpt>
      <trkpt lat="43.58607" lon="3.79154">
        <ele>35</ele>
        <time>2020-10-09T15:39:31.000Z</time>
      </trkpt>
      <trkpt lat="43.58608" lon="3.79162">
        <ele>35</ele>
        <time>2020-10-09T15:39:32.000Z</time>
      </trkpt>
      <trkpt lat="43.5861" lon="3.7917">
        <ele>35</ele>
        <time>2020-10-09T15:39:33.000Z</time>
      </trkpt>
      <trkpt lat="43.58611" lon="3.79178">
        <ele>35</ele>
        <time>2020-10-09T15:39:34.000Z</time>
      </trkpt>
      <trkpt lat="43.58612" lon="3.79186">
        <ele>35</ele>
        <time>2020-10-09T15:39:35.000Z</time>
      </trkpt>
      <trkpt lat="43.58614" lon="3.79193">
        <ele>35</ele>
        <time>2020-10-09T15:39:36.000Z</time>
      </trkpt>
      <trkpt lat="43.58615" lon="3.79201">
        <ele>35</ele>
        <time>2020-10-09T15:39:37.000Z</time>
      </trkpt>
      <trkpt lat="43.58616" lon="3.79209">
        <ele>35</ele>
        <time>2020-10-09T15:39:38.000Z</time>
      </trkpt>
      <trkpt lat="43.58617" lon="3.79216">
        <ele>35</ele>
        <time>2020-10-09T15:39:39.000Z</time>
      </trkpt>
      <trkpt lat="43.58619" lon="3.79224">
        <ele>35</ele>
        <time>2020-10-09T15:39:40.000Z</time>
      </trkpt>
      <trkpt lat="43.5862" lon="3.79231">
        <ele>35</ele>
        <time>2020-10-09T15:39:41.000Z</time>
      </trkpt>
      <trkpt lat="43.58622" lon="3.79238">
        <ele>35</ele>
        <time>2020-10-09T15:39:42.000Z</time>
      </trkpt>
      <trkpt lat="43.58624" lon="3.79246">
        <ele>35</ele>
        <time>2020-10-09T15:39:43.000Z</time>
      </trkpt>
      <trkpt lat="43.58625" lon="3.79253">
        <ele>35</ele>
        <time>2020-10-09T15:39:44.000Z</time>
      </trkpt>
      <trkpt lat="43.58628" lon="3.7926">
        <ele>35</ele>
        <time>2020-10-09T15:39:45.000Z</time>
      </trkpt>
      <trkpt lat="43.5863" lon="3.79267">
        <ele>35</ele>
        <time>2020-10-09T15:39:46.000Z</time>
      </trkpt>
      <trkpt lat="43.58632" lon="3.79274">
        <ele>35</ele>
        <time>2020-10-09T15:39:47.000Z</time>
      </trkpt>
      <trkpt lat="43.58634" lon="3.79281">
        <ele>35</ele>
        <time>2020-10-09T15:39:48.000Z</time>
      </trkpt>
      <trkpt lat="43.58636" lon="3.79288">
        <ele>35</ele>
        <time>2020-10-09T15:39:49.000Z</time>
      </trkpt>
      <trkpt lat="43.58638" lon="3.79295">
        <ele>35.029910897735</ele>
        <time>2020-10-09T15:39:50.000Z</time>
      </trkpt>
      <trkpt lat="43.58641" lon="3.79302">
        <ele>35.129611763235</ele>
        <time>2020-10-09T15:39:51.000Z</time>
      </trkpt>
      <trkpt lat="43.58643" lon="3.79309">
        <ele>35.229312628734</ele>
        <time>2020-10-09T15:39:52.000Z</time>
      </trkpt>
      <trkpt lat="43.58645" lon="3.79316">
        <ele>35.329013494233</ele>
        <time>2020-10-09T15:39:53.000Z</time>
      </trkpt>
      <trkpt lat="43.58647" lon="3.79323">
        <ele>35.428714359732</ele>
        <time>2020-10-09T15:39:54.000Z</time>
      </trkpt>
      <trkpt lat="43.5865" lon="3.79329">
        <ele>35.528415225231</ele>
        <time>2020-10-09T15:39:55.000Z</time>
      </trkpt>
      <trkpt lat="43.58652" lon="3.79336">
        <ele>35.628116090731</ele>
        <time>2020-10-09T15:39:56.000Z</time>
      </trkpt>
      <trkpt lat="43.58655" lon="3.79344">
        <ele>35.72781695623</ele>
        <time>2020-10-09T15:39:57.000Z</time>
      </trkpt>
      <trkpt lat="43.58657" lon="3.79351">
        <ele>35.827517821729</ele>
        <time>2020-10-09T15:39:58.000Z</time>
      </trkpt>
      <trkpt lat="43.5866" lon="3.79358">
        <ele>35.927218687228</ele>
        <time>2020-10-09T15:39:59.000Z</time>
      </trkpt>
      <trkpt lat="43.58663" lon="3.79364">
        <ele>36</ele>
        <time>2020-10-09T15:40:00.000Z</time>
      </trkpt>
      <trkpt lat="43.58665" lon="3.79371">
        <ele>36</ele>
        <time>2020-10-09T15:40:01.000Z</time>
      </trkpt>
      <trkpt lat="43.58668" lon="3.79378">
        <ele>36</ele>
        <time>2020-10-09T15:40:02.000Z</time>
      </trkpt>
      <trkpt lat="43.58671" lon="3.79385">
        <ele>36</ele>
        <time>2020-10-09T15:40:03.000Z</time>
      </trkpt>
      <trkpt lat="43.58674" lon="3.79392">
        <ele>36</ele>
        <time>2020-10-09T15:40:04.000Z</time>
      </trkpt>
      <trkpt lat="43.58677" lon="3.79399">
        <ele>36</ele>
        <time>2020-10-09T15:40:05.000Z</time>
      </trkpt>
      <trkpt lat="43.5868" lon="3.79405">
        <ele>36</ele>
        <time>2020-10-09T15:40:06.000Z</time>
      </trkpt>
      <trkpt lat="43.58683" lon="3.79412">
        <ele>36</ele>
        <time>2020-10-09T15:40:07.000Z</time>
      </trkpt>
      <trkpt lat="43.58686" lon="3.79418">
        <ele>36</ele>
        <time>2020-10-09T15:40:08.000Z</time>
      </trkpt>
      <trkpt lat="43.58689" lon="3.79425">
        <ele>36</ele>
        <time>2020-10-09T15:40:09.000Z</time>
      </trkpt>
      <trkpt lat="43.58692" lon="3.79432">
        <ele>36</ele>
        <time>2020-10-09T15:40:10.000Z</time>
      </trkpt>
      <trkpt lat="43.58695" lon="3.79438">
        <ele>36</ele>
        <time>2020-10-09T15:40:11.000Z</time>
      </trkpt>
      <trkpt lat="43.58697" lon="3.79445">
        <ele>36</ele>
        <time>2020-10-09T15:40:12.000Z</time>
      </trkpt>
      <trkpt lat="43.58701" lon="3.79451">
        <ele>36</ele>
        <time>2020-10-09T15:40:13.000Z</time>
      </trkpt>
      <trkpt lat="43.58704" lon="3.79458">
        <ele>36</ele>
        <time>2020-10-09T15:40:14.000Z</time>
      </trkpt>
      <trkpt lat="43.58707" lon="3.79464">
        <ele>36</ele>
        <time>2020-10-09T15:40:15.000Z</time>
      </trkpt>
      <trkpt lat="43.58711" lon="3.7947">
        <ele>36</ele>
        <time>2020-10-09T15:40:16.000Z</time>
      </trkpt>
      <trkpt lat="43.58714" lon="3.79477">
        <ele>36</ele>
        <time>2020-10-09T15:40:17.000Z</time>
      </trkpt>
      <trkpt lat="43.58717" lon="3.79483">
        <ele>36</ele>
        <time>2020-10-09T15:40:18.000Z</time>
      </trkpt>
      <trkpt lat="43.5872" lon="3.7949">
        <ele>36</ele>
        <time>2020-10-09T15:40:19.000Z</time>
      </trkpt>
      <trkpt lat="43.58724" lon="3.79497">
        <ele>36</ele>
        <time>2020-10-09T15:40:20.000Z</time>
      </trkpt>
      <trkpt lat="43.58727" lon="3.79503">
        <ele>36</ele>
        <time>2020-10-09T15:40:21.000Z</time>
      </trkpt>
      <trkpt lat="43.5873" lon="3.7951">
        <ele>36</ele>
        <time>2020-10-09T15:40:22.000Z</time>
      </trkpt>
      <trkpt lat="43.58733" lon="3.79516">
        <ele>36</ele>
        <time>2020-10-09T15:40:23.000Z</time>
      </trkpt>
      <trkpt lat="43.58736" lon="3.79522">
        <ele>36</ele>
        <time>2020-10-09T15:40:24.000Z</time>
      </trkpt>
      <trkpt lat="43.5874" lon="3.79529">
        <ele>36</ele>
        <time>2020-10-09T15:40:25.000Z</time>
      </trkpt>
      <trkpt lat="43.58743" lon="3.79535">
        <ele>36</ele>
        <time>2020-10-09T15:40:26.000Z</time>
      </trkpt>
      <trkpt lat="43.58746" lon="3.79542">
        <ele>36</ele>
        <time>2020-10-09T15:40:27.000Z</time>
      </trkpt>
      <trkpt lat="43.5875" lon="3.79548">
        <ele>36</ele>
        <time>2020-10-09T15:40:28.000Z</time>
      </trkpt>
      <trkpt lat="43.58753" lon="3.79555">
        <ele>36</ele>
        <time>2020-10-09T15:40:29.000Z</time>
      </trkpt>
      <trkpt lat="43.58756" lon="3.79561">
        <ele>36</ele>
        <time>2020-10-09T15:40:30.000Z</time>
      </trkpt>
      <trkpt lat="43.58759" lon="3.79568">
        <ele>36</ele>
        <time>2020-10-09T15:40:31.000Z</time>
      </trkpt>
      <trkpt lat="43.58763" lon="3.79574">
        <ele>36</ele>
        <time>2020-10-09T15:40:32.000Z</time>
      </trkpt>
      <trkpt lat="43.58766" lon="3.7958">
        <ele>36</ele>
        <time>2020-10-09T15:40:33.000Z</time>
      </trkpt>
      <trkpt lat="43.58769" lon="3.79587">
        <ele>36</ele>
        <time>2020-10-09T15:40:34.000Z</time>
      </trkpt>
      <trkpt lat="43.58772" lon="3.79593">
        <ele>36</ele>
        <time>2020-10-09T15:40:35.000Z</time>
      </trkpt>
      <trkpt lat="43.58775" lon="3.796">
        <ele>36</ele>
        <time>2020-10-09T15:40:36.000Z</time>
      </trkpt>
      <trkpt lat="43.58778" lon="3.79607">
        <ele>36</ele>
        <time>2020-10-09T15:40:37.000Z</time>
      </trkpt>
      <trkpt lat="43.58781" lon="3.79613">
        <ele>36</ele>
        <time>2020-10-09T15:40:38.000Z</time>
      </trkpt>
      <trkpt lat="43.58784" lon="3.7962">
        <ele>36</ele>
        <time>2020-10-09T15:40:39.000Z</time>
      </trkpt>
      <trkpt lat="43.58787" lon="3.79626">
        <ele>36.031098163218</ele>
        <time>2020-10-09T15:40:40.000Z</time>
      </trkpt>
      <trkpt lat="43.5879" lon="3.79632">
        <ele>36.128279923275</ele>
        <time>2020-10-09T15:40:41.000Z</time>
      </trkpt>
      <trkpt lat="43.58794" lon="3.79639">
        <ele>36.225461683331</ele>
        <time>2020-10-09T15:40:42.000Z</time>
      </trkpt>
      <trkpt lat="43.58797" lon="3.79645">
        <ele>36.322643443388</ele>
        <time>2020-10-09T15:40:43.000Z</time>
      </trkpt>
      <trkpt lat="43.588" lon="3.79652">
        <ele>36.419825203444</ele>
        <time>2020-10-09T15:40:44.000Z</time>
      </trkpt>
      <trkpt lat="43.58803" lon="3.79658">
        <ele>36.517006963501</ele>
        <time>2020-10-09T15:40:45.000Z</time>
      </trkpt>
      <trkpt lat="43.58806" lon="3.79664">
        <ele>36.614188723557</ele>
        <time>2020-10-09T15:40:46.000Z</time>
      </trkpt>
      <trkpt lat="43.58809" lon="3.7967">
        <ele>36.711370483614</ele>
        <time>2020-10-09T15:40:47.000Z</time>
      </trkpt>
      <trkpt lat="43.58812" lon="3.79676">
        <ele>36.80855224367</ele>
        <time>2020-10-09T15:40:48.000Z</time>
      </trkpt>
      <trkpt lat="43.58815" lon="3.79682">
        <ele>36.905734003727</ele>
        <time>2020-10-09T15:40:49.000Z</time>
      </trkpt>
      <trkpt lat="43.58818" lon="3.79687">
        <ele>37</ele>
        <time>2020-10-09T15:40:50.000Z</time>
      </trkpt>
      <trkpt lat="43.58821" lon="3.79694">
        <ele>37</ele>
        <time>2020-10-09T15:40:51.000Z</time>
      </trkpt>
      <trkpt lat="43.58824" lon="3.797">
        <ele>37</ele>
        <time>2020-10-09T15:40:52.000Z</time>
      </trkpt>
      <trkpt lat="43.58827" lon="3.79707">
        <ele>37</ele>
        <time>2020-10-09T15:40:53.000Z</time>
      </trkpt>
      <trkpt lat="43.58831" lon="3.79713">
        <ele>37</ele>
        <time>2020-10-09T15:40:54.000Z</time>
      </trkpt>
      <trkpt lat="43.58834" lon="3.79719">
        <ele>37</ele>
        <time>2020-10-09T15:40:55.000Z</time>
      </trkpt>
      <trkpt lat="43.58837" lon="3.79725">
        <ele>37</ele>
        <time>2020-10-09T15:40:56.000Z</time>
      </trkpt>
      <trkpt lat="43.5884" lon="3.79731">
        <ele>37</ele>
        <time>2020-10-09T15:40:57.000Z</time>
      </trkpt>
      <trkpt lat="43.58844" lon="3.79738">
        <ele>37</ele>
        <time>2020-10-09T15:40:58.000Z</time>
      </trkpt>
      <trkpt lat="43.58847" lon="3.79745">
        <ele>37</ele>
        <time>2020-10-09T15:40:59.000Z</time>
      </trkpt>
      <trkpt lat="43.58849" lon="3.79751">
        <ele>37</ele>
        <time>2020-10-09T15:41:00.000Z</time>
      </trkpt>
      <trkpt lat="43.58852" lon="3.79757">
        <ele>37</ele>
        <time>2020-10-09T15:41:01.000Z</time>
      </trkpt>
      <trkpt lat="43.58855" lon="3.79764">
        <ele>37</ele>
        <time>2020-10-09T15:41:02.000Z</time>
      </trkpt>
      <trkpt lat="43.58858" lon="3.7977">
        <ele>37</ele>
        <time>2020-10-09T15:41:03.000Z</time>
      </trkpt>
      <trkpt lat="43.58862" lon="3.79777">
        <ele>37</ele>
        <time>2020-10-09T15:41:04.000Z</time>
      </trkpt>
      <trkpt lat="43.58865" lon="3.79783">
        <ele>37</ele>
        <time>2020-10-09T15:41:05.000Z</time>
      </trkpt>
      <trkpt lat="43.58868" lon="3.79789">
        <ele>37</ele>
        <time>2020-10-09T15:41:06.000Z</time>
      </trkpt>
      <trkpt lat="43.5887" lon="3.79796">
        <ele>37</ele>
        <time>2020-10-09T15:41:07.000Z</time>
      </trkpt>
      <trkpt lat="43.58873" lon="3.79802">
        <ele>37</ele>
        <time>2020-10-09T15:41:08.000Z</time>
      </trkpt>
      <trkpt lat="43.58876" lon="3.79809">
        <ele>37</ele>
        <time>2020-10-09T15:41:09.000Z</time>
      </trkpt>
      <trkpt lat="43.58879" lon="3.79815">
        <ele>37</ele>
        <time>2020-10-09T15:41:10.000Z</time>
      </trkpt>
      <trkpt lat="43.58882" lon="3.79821">
        <ele>37.099585062241</ele>
        <time>2020-10-09T15:41:11.000Z</time>
      </trkpt>
      <trkpt lat="43.58885" lon="3.79827">
        <ele>37.203319502075</ele>
        <time>2020-10-09T15:41:12.000Z</time>
      </trkpt>
      <trkpt lat="43.58888" lon="3.79833">
        <ele>37.307053941909</ele>
        <time>2020-10-09T15:41:13.000Z</time>
      </trkpt>
      <trkpt lat="43.58891" lon="3.79839">
        <ele>37.410788381743</ele>
        <time>2020-10-09T15:41:14.000Z</time>
      </trkpt>
      <trkpt lat="43.58894" lon="3.79845">
        <ele>37.514522821577</ele>
        <time>2020-10-09T15:41:15.000Z</time>
      </trkpt>
      <trkpt lat="43.58897" lon="3.79851">
        <ele>37.618257261411</ele>
        <time>2020-10-09T15:41:16.000Z</time>
      </trkpt>
      <trkpt lat="43.589" lon="3.79857">
        <ele>37.721991701245</ele>
        <time>2020-10-09T15:41:17.000Z</time>
      </trkpt>
      <trkpt lat="43.58903" lon="3.79863">
        <ele>37.825726141079</ele>
        <time>2020-10-09T15:41:18.000Z</time>
      </trkpt>
      <trkpt lat="43.58906" lon="3.79869">
        <ele>37.929460580913</ele>
        <time>2020-10-09T15:41:19.000Z</time>
      </trkpt>
      <trkpt lat="43.58909" lon="3.79875">
        <ele>38</ele>
        <time>2020-10-09T15:41:20.000Z</time>
      </trkpt>
      <trkpt lat="43.58912" lon="3.79881">
        <ele>38</ele>
        <time>2020-10-09T15:41:21.000Z</time>
      </trkpt>
      <trkpt lat="43.58915" lon="3.79887">
        <ele>38</ele>
        <time>2020-10-09T15:41:22.000Z</time>
      </trkpt>
      <trkpt lat="43.58918" lon="3.79893">
        <ele>38</ele>
        <time>2020-10-09T15:41:23.000Z</time>
      </trkpt>
      <trkpt lat="43.58921" lon="3.799">
        <ele>38</ele>
        <time>2020-10-09T15:41:24.000Z</time>
      </trkpt>
      <trkpt lat="43.58924" lon="3.79906">
        <ele>38</ele>
        <time>2020-10-09T15:41:25.000Z</time>
      </trkpt>
      <trkpt lat="43.58927" lon="3.79912">
        <ele>38</ele>
        <time>2020-10-09T15:41:26.000Z</time>
      </trkpt>
      <trkpt lat="43.5893" lon="3.79918">
        <ele>38</ele>
        <time>2020-10-09T15:41:27.000Z</time>
      </trkpt>
      <trkpt lat="43.58933" lon="3.79924">
        <ele>38</ele>
        <time>2020-10-09T15:41:28.000Z</time>
      </trkpt>
      <trkpt lat="43.58936" lon="3.7993">
        <ele>38</ele>
        <time>2020-10-09T15:41:29.000Z</time>
      </trkpt>
      <trkpt lat="43.58939" lon="3.79936">
        <ele>38.02964486369</ele>
        <time>2020-10-09T15:41:30.000Z</time>
      </trkpt>
      <trkpt lat="43.58942" lon="3.79942">
        <ele>38.128458967957</ele>
        <time>2020-10-09T15:41:31.000Z</time>
      </trkpt>
      <trkpt lat="43.58945" lon="3.79948">
        <ele>38.227273072224</ele>
        <time>2020-10-09T15:41:32.000Z</time>
      </trkpt>
      <trkpt lat="43.58948" lon="3.79954">
        <ele>38.326087176491</ele>
        <time>2020-10-09T15:41:33.000Z</time>
      </trkpt>
      <trkpt lat="43.58951" lon="3.7996">
        <ele>38.424901280757</ele>
        <time>2020-10-09T15:41:34.000Z</time>
      </trkpt>
      <trkpt lat="43.58953" lon="3.79966">
        <ele>38.523715385024</ele>
        <time>2020-10-09T15:41:35.000Z</time>
      </trkpt>
      <trkpt lat="43.58956" lon="3.79972">
        <ele>38.622529489291</ele>
        <time>2020-10-09T15:41:36.000Z</time>
      </trkpt>
      <trkpt lat="43.58958" lon="3.79978">
        <ele>38.721343593557</ele>
        <time>2020-10-09T15:41:37.000Z</time>
      </trkpt>
      <trkpt lat="43.58961" lon="3.79984">
        <ele>38.820157697824</ele>
        <time>2020-10-09T15:41:38.000Z</time>
      </trkpt>
      <trkpt lat="43.58964" lon="3.79989">
        <ele>38.918971802091</ele>
        <time>2020-10-09T15:41:39.000Z</time>
      </trkpt>
      <trkpt lat="43.58967" lon="3.79994">
        <ele>39.018254940855</ele>
        <time>2020-10-09T15:41:40.000Z</time>
      </trkpt>
      <trkpt lat="43.5897" lon="3.8">
        <ele>39.119674884982</ele>
        <time>2020-10-09T15:41:41.000Z</time>
      </trkpt>
      <trkpt lat="43.58973" lon="3.80005">
        <ele>39.221094829108</ele>
        <time>2020-10-09T15:41:42.000Z</time>
      </trkpt>
      <trkpt lat="43.58976" lon="3.80011">
        <ele>39.322514773235</ele>
        <time>2020-10-09T15:41:43.000Z</time>
      </trkpt>
      <trkpt lat="43.58979" lon="3.80016">
        <ele>39.423934717361</ele>
        <time>2020-10-09T15:41:44.000Z</time>
      </trkpt>
      <trkpt lat="43.58982" lon="3.80022">
        <ele>39.525354661488</ele>
        <time>2020-10-09T15:41:45.000Z</time>
      </trkpt>
      <trkpt lat="43.58985" lon="3.80027">
        <ele>39.626774605614</ele>
        <time>2020-10-09T15:41:46.000Z</time>
      </trkpt>
      <trkpt lat="43.58988" lon="3.80032">
        <ele>39.728194549741</ele>
        <time>2020-10-09T15:41:47.000Z</time>
      </trkpt>
      <trkpt lat="43.58991" lon="3.80038">
        <ele>39.829614493867</ele>
        <time>2020-10-09T15:41:48.000Z</time>
      </trkpt>
      <trkpt lat="43.58994" lon="3.80043">
        <ele>39.931034437994</ele>
        <time>2020-10-09T15:41:49.000Z</time>
      </trkpt>
      <trkpt lat="43.58997" lon="3.80049">
        <ele>40.031037817719</ele>
        <time>2020-10-09T15:41:50.000Z</time>
      </trkpt>
      <trkpt lat="43.58999" lon="3.80054">
        <ele>40.128030998089</ele>
        <time>2020-10-09T15:41:51.000Z</time>
      </trkpt>
      <trkpt lat="43.59002" lon="3.8006">
        <ele>40.22502417846</ele>
        <time>2020-10-09T15:41:52.000Z</time>
      </trkpt>
      <trkpt lat="43.59005" lon="3.80065">
        <ele>40.322017358831</ele>
        <time>2020-10-09T15:41:53.000Z</time>
      </trkpt>
      <trkpt lat="43.59007" lon="3.8007">
        <ele>40.419010539201</ele>
        <time>2020-10-09T15:41:54.000Z</time>
      </trkpt>
      <trkpt lat="43.5901" lon="3.80073">
        <ele>40.516003719572</ele>
        <time>2020-10-09T15:41:55.000Z</time>
      </trkpt>
      <trkpt lat="43.59013" lon="3.80076">
        <ele>40.612996899943</ele>
        <time>2020-10-09T15:41:56.000Z</time>
      </trkpt>
      <trkpt lat="43.59017" lon="3.80077">
        <ele>40.709990080314</ele>
        <time>2020-10-09T15:41:57.000Z</time>
      </trkpt>
      <trkpt lat="43.59021" lon="3.80079">
        <ele>40.806983260684</ele>
        <time>2020-10-09T15:41:58.000Z</time>
      </trkpt>
      <trkpt lat="43.59024" lon="3.80082">
        <ele>40.903976441055</ele>
        <time>2020-10-09T15:41:59.000Z</time>
      </trkpt>
      <trkpt lat="43.59026" lon="3.80087">
        <ele>41</ele>
        <time>2020-10-09T15:42:00.000Z</time>
      </trkpt>
      <trkpt lat="43.59028" lon="3.80092">
        <ele>41</ele>
        <time>2020-10-09T15:42:01.000Z</time>
      </trkpt>
      <trkpt lat="43.59028" lon="3.80098">
        <ele>41</ele>
        <time>2020-10-09T15:42:02.000Z</time>
      </trkpt>
      <trkpt lat="43.59027" lon="3.80104">
        <ele>41</ele>
        <time>2020-10-09T15:42:03.000Z</time>
      </trkpt>
      <trkpt lat="43.59027" lon="3.8011">
        <ele>41</ele>
        <time>2020-10-09T15:42:04.000Z</time>
      </trkpt>
      <trkpt lat="43.59027" lon="3.80115">
        <ele>41</ele>
        <time>2020-10-09T15:42:05.000Z</time>
      </trkpt>
      <trkpt lat="43.59028" lon="3.80121">
        <ele>41</ele>
        <time>2020-10-09T15:42:06.000Z</time>
      </trkpt>
      <trkpt lat="43.5903" lon="3.80125">
        <ele>41</ele>
        <time>2020-10-09T15:42:07.000Z</time>
      </trkpt>
      <trkpt lat="43.59032" lon="3.8013">
        <ele>41</ele>
        <time>2020-10-09T15:42:08.000Z</time>
      </trkpt>
      <trkpt lat="43.59035" lon="3.80135">
        <ele>41</ele>
        <time>2020-10-09T15:42:09.000Z</time>
      </trkpt>
      <trkpt lat="43.59037" lon="3.8014">
        <ele>41</ele>
        <time>2020-10-09T15:42:10.000Z</time>
      </trkpt>
      <trkpt lat="43.5904" lon="3.80146">
        <ele>41</ele>
        <time>2020-10-09T15:42:11.000Z</time>
      </trkpt>
      <trkpt lat="43.59042" lon="3.80151">
        <ele>41</ele>
        <time>2020-10-09T15:42:12.000Z</time>
      </trkpt>
      <trkpt lat="43.59045" lon="3.80157">
        <ele>41</ele>
        <time>2020-10-09T15:42:13.000Z</time>
      </trkpt>
      <trkpt lat="43.59048" lon="3.80162">
        <ele>41</ele>
        <time>2020-10-09T15:42:14.000Z</time>
      </trkpt>
      <trkpt lat="43.5905" lon="3.80168">
        <ele>41</ele>
        <time>2020-10-09T15:42:15.000Z</time>
      </trkpt>
      <trkpt lat="43.59053" lon="3.80173">
        <ele>41</ele>
        <time>2020-10-09T15:42:16.000Z</time>
      </trkpt>
      <trkpt lat="43.59055" lon="3.80178">
        <ele>41</ele>
        <time>2020-10-09T15:42:17.000Z</time>
      </trkpt>
      <trkpt lat="43.59057" lon="3.80182">
        <ele>41</ele>
        <time>2020-10-09T15:42:18.000Z</time>
      </trkpt>
      <trkpt lat="43.5906" lon="3.80186">
        <ele>41</ele>
        <time>2020-10-09T15:42:19.000Z</time>
      </trkpt>
      <trkpt lat="43.59062" lon="3.80191">
        <ele>41.064</ele>
        <time>2020-10-09T15:42:20.000Z</time>
      </trkpt>
      <trkpt lat="43.59065" lon="3.80197">
        <ele>41.264</ele>
        <time>2020-10-09T15:42:21.000Z</time>
      </trkpt>
      <trkpt lat="43.59067" lon="3.80202">
        <ele>41.464</ele>
        <time>2020-10-09T15:42:22.000Z</time>
      </trkpt>
      <trkpt lat="43.5907" lon="3.80208">
        <ele>41.664</ele>
        <time>2020-10-09T15:42:23.000Z</time>
      </trkpt>
      <trkpt lat="43.59072" lon="3.80213">
        <ele>41.864</ele>
        <time>2020-10-09T15:42:24.000Z</time>
      </trkpt>
      <trkpt lat="43.59074" lon="3.80218">
        <ele>42.064</ele>
        <time>2020-10-09T15:42:25.000Z</time>
      </trkpt>
      <trkpt lat="43.59076" lon="3.80224">
        <ele>42.264</ele>
        <time>2020-10-09T15:42:26.000Z</time>
      </trkpt>
      <trkpt lat="43.59078" lon="3.80229">
        <ele>42.464</ele>
        <time>2020-10-09T15:42:27.000Z</time>
      </trkpt>
      <trkpt lat="43.5908" lon="3.80235">
        <ele>42.664</ele>
        <time>2020-10-09T15:42:28.000Z</time>
      </trkpt>
      <trkpt lat="43.59081" lon="3.8024">
        <ele>42.864</ele>
        <time>2020-10-09T15:42:29.000Z</time>
      </trkpt>
      <trkpt lat="43.59083" lon="3.80246">
        <ele>43</ele>
        <time>2020-10-09T15:42:30.000Z</time>
      </trkpt>
      <trkpt lat="43.59085" lon="3.80251">
        <ele>43</ele>
        <time>2020-10-09T15:42:31.000Z</time>
      </trkpt>
      <trkpt lat="43.59087" lon="3.80257">
        <ele>43</ele>
        <time>2020-10-09T15:42:32.000Z</time>
      </trkpt>
      <trkpt lat="43.59088" lon="3.80263">
        <ele>43</ele>
        <time>2020-10-09T15:42:33.000Z</time>
      </trkpt>
      <trkpt lat="43.59089" lon="3.80269">
        <ele>43</ele>
        <time>2020-10-09T15:42:34.000Z</time>
      </trkpt>
      <trkpt lat="43.59091" lon="3.80276">
        <ele>43</ele>
        <time>2020-10-09T15:42:35.000Z</time>
      </trkpt>
      <trkpt lat="43.59092" lon="3.80282">
        <ele>43</ele>
        <time>2020-10-09T15:42:36.000Z</time>
      </trkpt>
      <trkpt lat="43.59093" lon="3.80289">
        <ele>43</ele>
        <time>2020-10-09T15:42:37.000Z</time>
      </trkpt>
      <trkpt lat="43.59094" lon="3.80295">
        <ele>43</ele>
        <time>2020-10-09T15:42:38.000Z</time>
      </trkpt>
      <trkpt lat="43.59095" lon="3.80302">
        <ele>43</ele>
        <time>2020-10-09T15:42:39.000Z</time>
      </trkpt>
      <trkpt lat="43.59097" lon="3.80308">
        <ele>43</ele>
        <time>2020-10-09T15:42:40.000Z</time>
      </trkpt>
      <trkpt lat="43.59098" lon="3.80315">
        <ele>43</ele>
        <time>2020-10-09T15:42:41.000Z</time>
      </trkpt>
      <trkpt lat="43.59099" lon="3.80322">
        <ele>43</ele>
        <time>2020-10-09T15:42:42.000Z</time>
      </trkpt>
      <trkpt lat="43.591" lon="3.80329">
        <ele>43</ele>
        <time>2020-10-09T15:42:43.000Z</time>
      </trkpt>
      <trkpt lat="43.59101" lon="3.80336">
        <ele>43</ele>
        <time>2020-10-09T15:42:44.000Z</time>
      </trkpt>
      <trkpt lat="43.59101" lon="3.80343">
        <ele>43</ele>
        <time>2020-10-09T15:42:45.000Z</time>
      </trkpt>
      <trkpt lat="43.59101" lon="3.80351">
        <ele>43</ele>
        <time>2020-10-09T15:42:46.000Z</time>
      </trkpt>
      <trkpt lat="43.59101" lon="3.80358">
        <ele>43</ele>
        <time>2020-10-09T15:42:47.000Z</time>
      </trkpt>
      <trkpt lat="43.59101" lon="3.80366">
        <ele>43</ele>
        <time>2020-10-09T15:42:48.000Z</time>
      </trkpt>
      <trkpt lat="43.591" lon="3.80374">
        <ele>43</ele>
        <time>2020-10-09T15:42:49.000Z</time>
      </trkpt>
      <trkpt lat="43.591" lon="3.80381">
        <ele>42.968</ele>
        <time>2020-10-09T15:42:50.000Z</time>
      </trkpt>
      <trkpt lat="43.591" lon="3.80388">
        <ele>42.868</ele>
        <time>2020-10-09T15:42:51.000Z</time>
      </trkpt>
      <trkpt lat="43.59099" lon="3.80395">
        <ele>42.768</ele>
        <time>2020-10-09T15:42:52.000Z</time>
      </trkpt>
      <trkpt lat="43.59098" lon="3.80403">
        <ele>42.668</ele>
        <time>2020-10-09T15:42:53.000Z</time>
      </trkpt>
      <trkpt lat="43.59098" lon="3.80411">
        <ele>42.568</ele>
        <time>2020-10-09T15:42:54.000Z</time>
      </trkpt>
      <trkpt lat="43.59097" lon="3.80418">
        <ele>42.468</ele>
        <time>2020-10-09T15:42:55.000Z</time>
      </trkpt>
      <trkpt lat="43.59096" lon="3.80426">
        <ele>42.368</ele>
        <time>2020-10-09T15:42:56.000Z</time>
      </trkpt>
      <trkpt lat="43.59094" lon="3.80435">
        <ele>42.268</ele>
        <time>2020-10-09T15:42:57.000Z</time>
      </trkpt>
      <trkpt lat="43.59093" lon="3.80443">
        <ele>42.168</ele>
        <time>2020-10-09T15:42:58.000Z</time>
      </trkpt>
      <trkpt lat="43.59091" lon="3.80451">
        <ele>42.068</ele>
        <time>2020-10-09T15:42:59.000Z</time>
      </trkpt>
      <trkpt lat="43.59089" lon="3.80459">
        <ele>41.968</ele>
        <time>2020-10-09T15:43:00.000Z</time>
      </trkpt>
      <trkpt lat="43.59087" lon="3.80468">
        <ele>41.868</ele>
        <time>2020-10-09T15:43:01.000Z</time>
      </trkpt>
      <trkpt lat="43.59084" lon="3.80477">
        <ele>41.768</ele>
        <time>2020-10-09T15:43:02.000Z</time>
      </trkpt>
      <trkpt lat="43.59081" lon="3.80487">
        <ele>41.668</ele>
        <time>2020-10-09T15:43:03.000Z</time>
      </trkpt>
      <trkpt lat="43.59078" lon="3.80496">
        <ele>41.568</ele>
        <time>2020-10-09T15:43:04.000Z</time>
      </trkpt>
      <trkpt lat="43.59075" lon="3.80505">
        <ele>41.468</ele>
        <time>2020-10-09T15:43:05.000Z</time>
      </trkpt>
      <trkpt lat="43.59072" lon="3.80514">
        <ele>41.368</ele>
        <time>2020-10-09T15:43:06.000Z</time>
      </trkpt>
      <trkpt lat="43.59068" lon="3.80522">
        <ele>41.268</ele>
        <time>2020-10-09T15:43:07.000Z</time>
      </trkpt>
      <trkpt lat="43.59065" lon="3.80531">
        <ele>41.168</ele>
        <time>2020-10-09T15:43:08.000Z</time>
      </trkpt>
      <trkpt lat="43.59061" lon="3.80539">
        <ele>41.068</ele>
        <time>2020-10-09T15:43:09.000Z</time>
      </trkpt>
      <trkpt lat="43.59057" lon="3.80548">
        <ele>40.936</ele>
        <time>2020-10-09T15:43:10.000Z</time>
      </trkpt>
      <trkpt lat="43.59053" lon="3.80556">
        <ele>40.736</ele>
        <time>2020-10-09T15:43:11.000Z</time>
      </trkpt>
      <trkpt lat="43.59048" lon="3.80564">
        <ele>40.536</ele>
        <time>2020-10-09T15:43:12.000Z</time>
      </trkpt>
      <trkpt lat="43.59044" lon="3.80572">
        <ele>40.336</ele>
        <time>2020-10-09T15:43:13.000Z</time>
      </trkpt>
      <trkpt lat="43.59039" lon="3.8058">
        <ele>40.136</ele>
        <time>2020-10-09T15:43:14.000Z</time>
      </trkpt>
      <trkpt lat="43.59034" lon="3.80587">
        <ele>39.936</ele>
        <time>2020-10-09T15:43:15.000Z</time>
      </trkpt>
      <trkpt lat="43.59029" lon="3.80594">
        <ele>39.736</ele>
        <time>2020-10-09T15:43:16.000Z</time>
      </trkpt>
      <trkpt lat="43.59024" lon="3.80602">
        <ele>39.536</ele>
        <time>2020-10-09T15:43:17.000Z</time>
      </trkpt>
      <trkpt lat="43.59019" lon="3.80609">
        <ele>39.336</ele>
        <time>2020-10-09T15:43:18.000Z</time>
      </trkpt>
      <trkpt lat="43.59013" lon="3.80617">
        <ele>39.136</ele>
        <time>2020-10-09T15:43:19.000Z</time>
      </trkpt>
      <trkpt lat="43.59008" lon="3.80624">
        <ele>38.904</ele>
        <time>2020-10-09T15:43:20.000Z</time>
      </trkpt>
      <trkpt lat="43.59002" lon="3.80632">
        <ele>38.604</ele>
        <time>2020-10-09T15:43:21.000Z</time>
      </trkpt>
      <trkpt lat="43.58997" lon="3.8064">
        <ele>38.304</ele>
        <time>2020-10-09T15:43:22.000Z</time>
      </trkpt>
      <trkpt lat="43.58992" lon="3.80647">
        <ele>38.004</ele>
        <time>2020-10-09T15:43:23.000Z</time>
      </trkpt>
      <trkpt lat="43.58986" lon="3.80654">
        <ele>37.704</ele>
        <time>2020-10-09T15:43:24.000Z</time>
      </trkpt>
      <trkpt lat="43.58981" lon="3.80662">
        <ele>37.404</ele>
        <time>2020-10-09T15:43:25.000Z</time>
      </trkpt>
      <trkpt lat="43.58976" lon="3.80669">
        <ele>37.104</ele>
        <time>2020-10-09T15:43:26.000Z</time>
      </trkpt>
      <trkpt lat="43.58971" lon="3.80676">
        <ele>36.804</ele>
        <time>2020-10-09T15:43:27.000Z</time>
      </trkpt>
      <trkpt lat="43.58966" lon="3.80683">
        <ele>36.504</ele>
        <time>2020-10-09T15:43:28.000Z</time>
      </trkpt>
      <trkpt lat="43.58961" lon="3.80689">
        <ele>36.204</ele>
        <time>2020-10-09T15:43:29.000Z</time>
      </trkpt>
      <trkpt lat="43.58956" lon="3.80696">
        <ele>35.936</ele>
        <time>2020-10-09T15:43:30.000Z</time>
      </trkpt>
      <trkpt lat="43.58951" lon="3.80703">
        <ele>35.736</ele>
        <time>2020-10-09T15:43:31.000Z</time>
      </trkpt>
      <trkpt lat="43.58946" lon="3.8071">
        <ele>35.536</ele>
        <time>2020-10-09T15:43:32.000Z</time>
      </trkpt>
      <trkpt lat="43.58941" lon="3.80716">
        <ele>35.336</ele>
        <time>2020-10-09T15:43:33.000Z</time>
      </trkpt>
      <trkpt lat="43.58936" lon="3.80723">
        <ele>35.136</ele>
        <time>2020-10-09T15:43:34.000Z</time>
      </trkpt>
      <trkpt lat="43.58932" lon="3.8073">
        <ele>34.936</ele>
        <time>2020-10-09T15:43:35.000Z</time>
      </trkpt>
      <trkpt lat="43.58927" lon="3.80737">
        <ele>34.736</ele>
        <time>2020-10-09T15:43:36.000Z</time>
      </trkpt>
      <trkpt lat="43.58922" lon="3.80743">
        <ele>34.536</ele>
        <time>2020-10-09T15:43:37.000Z</time>
      </trkpt>
      <trkpt lat="43.58917" lon="3.8075">
        <ele>34.336</ele>
        <time>2020-10-09T15:43:38.000Z</time>
      </trkpt>
      <trkpt lat="43.58912" lon="3.80757">
        <ele>34.136</ele>
        <time>2020-10-09T15:43:39.000Z</time>
      </trkpt>
      <trkpt lat="43.58908" lon="3.80764">
        <ele>33.937924364563</ele>
        <time>2020-10-09T15:43:40.000Z</time>
      </trkpt>
      <trkpt lat="43.58903" lon="3.8077">
        <ele>33.743938003821</ele>
        <time>2020-10-09T15:43:41.000Z</time>
      </trkpt>
      <trkpt lat="43.58898" lon="3.80777">
        <ele>33.54995164308</ele>
        <time>2020-10-09T15:43:42.000Z</time>
      </trkpt>
      <trkpt lat="43.58893" lon="3.80784">
        <ele>33.355965282339</ele>
        <time>2020-10-09T15:43:43.000Z</time>
      </trkpt>
      <trkpt lat="43.58889" lon="3.8079">
        <ele>33.161978921597</ele>
        <time>2020-10-09T15:43:44.000Z</time>
      </trkpt>
      <trkpt lat="43.58884" lon="3.80797">
        <ele>32.967992560856</ele>
        <time>2020-10-09T15:43:45.000Z</time>
      </trkpt>
      <trkpt lat="43.5888" lon="3.80804">
        <ele>32.774006200114</ele>
        <time>2020-10-09T15:43:46.000Z</time>
      </trkpt>
      <trkpt lat="43.58875" lon="3.8081">
        <ele>32.580019839373</ele>
        <time>2020-10-09T15:43:47.000Z</time>
      </trkpt>
      <trkpt lat="43.5887" lon="3.80817">
        <ele>32.386033478632</ele>
        <time>2020-10-09T15:43:48.000Z</time>
      </trkpt>
      <trkpt lat="43.58865" lon="3.80824">
        <ele>32.19204711789</ele>
        <time>2020-10-09T15:43:49.000Z</time>
      </trkpt>
      <trkpt lat="43.5886" lon="3.80831">
        <ele>31.998998315991</ele>
        <time>2020-10-09T15:43:50.000Z</time>
      </trkpt>
      <trkpt lat="43.58856" lon="3.80837">
        <ele>31.898797850932</ele>
        <time>2020-10-09T15:43:51.000Z</time>
      </trkpt>
      <trkpt lat="43.58851" lon="3.80844">
        <ele>31.798597385874</ele>
        <time>2020-10-09T15:43:52.000Z</time>
      </trkpt>
      <trkpt lat="43.58846" lon="3.8085">
        <ele>31.698396920816</ele>
        <time>2020-10-09T15:43:53.000Z</time>
      </trkpt>
      <trkpt lat="43.58841" lon="3.80857">
        <ele>31.598196455757</ele>
        <time>2020-10-09T15:43:54.000Z</time>
      </trkpt>
      <trkpt lat="43.58837" lon="3.80863">
        <ele>31.497995990699</ele>
        <time>2020-10-09T15:43:55.000Z</time>
      </trkpt>
      <trkpt lat="43.58832" lon="3.8087">
        <ele>31.39779552564</ele>
        <time>2020-10-09T15:43:56.000Z</time>
      </trkpt>
      <trkpt lat="43.58828" lon="3.80876">
        <ele>31.297595060582</ele>
        <time>2020-10-09T15:43:57.000Z</time>
      </trkpt>
      <trkpt lat="43.58823" lon="3.80883">
        <ele>31.197394595524</ele>
        <time>2020-10-09T15:43:58.000Z</time>
      </trkpt>
      <trkpt lat="43.58819" lon="3.8089">
        <ele>31.097194130465</ele>
        <time>2020-10-09T15:43:59.000Z</time>
      </trkpt>
      <trkpt lat="43.58815" lon="3.80897">
        <ele>30.996910073109</ele>
        <time>2020-10-09T15:44:00.000Z</time>
      </trkpt>
      <trkpt lat="43.58811" lon="3.80904">
        <ele>30.893923495308</ele>
        <time>2020-10-09T15:44:01.000Z</time>
      </trkpt>
      <trkpt lat="43.58808" lon="3.80911">
        <ele>30.790936917508</ele>
        <time>2020-10-09T15:44:02.000Z</time>
      </trkpt>
      <trkpt lat="43.58804" lon="3.80919">
        <ele>30.687950339707</ele>
        <time>2020-10-09T15:44:03.000Z</time>
      </trkpt>
      <trkpt lat="43.58802" lon="3.80927">
        <ele>30.584963761907</ele>
        <time>2020-10-09T15:44:04.000Z</time>
      </trkpt>
      <trkpt lat="43.58799" lon="3.80935">
        <ele>30.481977184106</ele>
        <time>2020-10-09T15:44:05.000Z</time>
      </trkpt>
      <trkpt lat="43.58797" lon="3.80944">
        <ele>30.378990606306</ele>
        <time>2020-10-09T15:44:06.000Z</time>
      </trkpt>
      <trkpt lat="43.58796" lon="3.80952">
        <ele>30.276004028505</ele>
        <time>2020-10-09T15:44:07.000Z</time>
      </trkpt>
      <trkpt lat="43.58794" lon="3.8096">
        <ele>30.173017450705</ele>
        <time>2020-10-09T15:44:08.000Z</time>
      </trkpt>
      <trkpt lat="43.58794" lon="3.80969">
        <ele>30.070030872904</ele>
        <time>2020-10-09T15:44:09.000Z</time>
      </trkpt>
      <trkpt lat="43.58795" lon="3.80976">
        <ele>29.936</ele>
        <time>2020-10-09T15:44:10.000Z</time>
      </trkpt>
      <trkpt lat="43.58797" lon="3.80983">
        <ele>29.736</ele>
        <time>2020-10-09T15:44:11.000Z</time>
      </trkpt>
      <trkpt lat="43.588" lon="3.8099">
        <ele>29.536</ele>
        <time>2020-10-09T15:44:12.000Z</time>
      </trkpt>
      <trkpt lat="43.58804" lon="3.80996">
        <ele>29.336</ele>
        <time>2020-10-09T15:44:13.000Z</time>
      </trkpt>
      <trkpt lat="43.58807" lon="3.81001">
        <ele>29.136</ele>
        <time>2020-10-09T15:44:14.000Z</time>
      </trkpt>
      <trkpt lat="43.5881" lon="3.81006">
        <ele>28.936</ele>
        <time>2020-10-09T15:44:15.000Z</time>
      </trkpt>
      <trkpt lat="43.58813" lon="3.81012">
        <ele>28.736</ele>
        <time>2020-10-09T15:44:16.000Z</time>
      </trkpt>
      <trkpt lat="43.58815" lon="3.81018">
        <ele>28.536</ele>
        <time>2020-10-09T15:44:17.000Z</time>
      </trkpt>
      <trkpt lat="43.58817" lon="3.81025">
        <ele>28.336</ele>
        <time>2020-10-09T15:44:18.000Z</time>
      </trkpt>
      <trkpt lat="43.58818" lon="3.81031">
        <ele>28.136</ele>
        <time>2020-10-09T15:44:19.000Z</time>
      </trkpt>
      <trkpt lat="43.58819" lon="3.81039">
        <ele>27.968</ele>
        <time>2020-10-09T15:44:20.000Z</time>
      </trkpt>
      <trkpt lat="43.58821" lon="3.81046">
        <ele>27.868</ele>
        <time>2020-10-09T15:44:21.000Z</time>
      </trkpt>
      <trkpt lat="43.58824" lon="3.81053">
        <ele>27.768</ele>
        <time>2020-10-09T15:44:22.000Z</time>
      </trkpt>
      <trkpt lat="43.58828" lon="3.8106">
        <ele>27.668</ele>
        <time>2020-10-09T15:44:23.000Z</time>
      </trkpt>
      <trkpt lat="43.58832" lon="3.81067">
        <ele>27.568</ele>
        <time>2020-10-09T15:44:24.000Z</time>
      </trkpt>
      <trkpt lat="43.58836" lon="3.81073">
        <ele>27.468</ele>
        <time>2020-10-09T15:44:25.000Z</time>
      </trkpt>
      <trkpt lat="43.5884" lon="3.81079">
        <ele>27.368</ele>
        <time>2020-10-09T15:44:26.000Z</time>
      </trkpt>
      <trkpt lat="43.58845" lon="3.81085">
        <ele>27.268</ele>
        <time>2020-10-09T15:44:27.000Z</time>
      </trkpt>
      <trkpt lat="43.58849" lon="3.81091">
        <ele>27.168</ele>
        <time>2020-10-09T15:44:28.000Z</time>
      </trkpt>
      <trkpt lat="43.58854" lon="3.81096">
        <ele>27.068</ele>
        <time>2020-10-09T15:44:29.000Z</time>
      </trkpt>
      <trkpt lat="43.58859" lon="3.81101">
        <ele>27</ele>
        <time>2020-10-09T15:44:30.000Z</time>
      </trkpt>
      <trkpt lat="43.58865" lon="3.81106">
        <ele>27</ele>
        <time>2020-10-09T15:44:31.000Z</time>
      </trkpt>
      <trkpt lat="43.5887" lon="3.81111">
        <ele>27</ele>
        <time>2020-10-09T15:44:32.000Z</time>
      </trkpt>
      <trkpt lat="43.58875" lon="3.81115">
        <ele>27</ele>
        <time>2020-10-09T15:44:33.000Z</time>
      </trkpt>
      <trkpt lat="43.5888" lon="3.8112">
        <ele>27</ele>
        <time>2020-10-09T15:44:34.000Z</time>
      </trkpt>
      <trkpt lat="43.58885" lon="3.81125">
        <ele>27</ele>
        <time>2020-10-09T15:44:35.000Z</time>
      </trkpt>
      <trkpt lat="43.58891" lon="3.81129">
        <ele>27</ele>
        <time>2020-10-09T15:44:36.000Z</time>
      </trkpt>
      <trkpt lat="43.58896" lon="3.81134">
        <ele>27</ele>
        <time>2020-10-09T15:44:37.000Z</time>
      </trkpt>
      <trkpt lat="43.58901" lon="3.81139">
        <ele>27</ele>
        <time>2020-10-09T15:44:38.000Z</time>
      </trkpt>
      <trkpt lat="43.58906" lon="3.81143">
        <ele>27</ele>
        <time>2020-10-09T15:44:39.000Z</time>
      </trkpt>
      <trkpt lat="43.58911" lon="3.81148">
        <ele>27</ele>
        <time>2020-10-09T15:44:40.000Z</time>
      </trkpt>
      <trkpt lat="43.58917" lon="3.81153">
        <ele>27</ele>
        <time>2020-10-09T15:44:41.000Z</time>
      </trkpt>
      <trkpt lat="43.58922" lon="3.81157">
        <ele>27</ele>
        <time>2020-10-09T15:44:42.000Z</time>
      </trkpt>
      <trkpt lat="43.58927" lon="3.81162">
        <ele>27</ele>
        <time>2020-10-09T15:44:43.000Z</time>
      </trkpt>
      <trkpt lat="43.58932" lon="3.81166">
        <ele>27</ele>
        <time>2020-10-09T15:44:44.000Z</time>
      </trkpt>
      <trkpt lat="43.58937" lon="3.81171">
        <ele>27</ele>
        <time>2020-10-09T15:44:45.000Z</time>
      </trkpt>
      <trkpt lat="43.58942" lon="3.81176">
        <ele>27</ele>
        <time>2020-10-09T15:44:46.000Z</time>
      </trkpt>
      <trkpt lat="43.58947" lon="3.8118">
        <ele>27</ele>
        <time>2020-10-09T15:44:47.000Z</time>
      </trkpt>
      <trkpt lat="43.58953" lon="3.81185">
        <ele>27</ele>
        <time>2020-10-09T15:44:48.000Z</time>
      </trkpt>
      <trkpt lat="43.58958" lon="3.8119">
        <ele>27</ele>
        <time>2020-10-09T15:44:49.000Z</time>
      </trkpt>
      <trkpt lat="43.58963" lon="3.81194">
        <ele>26.968</ele>
        <time>2020-10-09T15:44:50.000Z</time>
      </trkpt>
      <trkpt lat="43.58968" lon="3.81199">
        <ele>26.868</ele>
        <time>2020-10-09T15:44:51.000Z</time>
      </trkpt>
      <trkpt lat="43.58973" lon="3.81204">
        <ele>26.768</ele>
        <time>2020-10-09T15:44:52.000Z</time>
      </trkpt>
      <trkpt lat="43.58978" lon="3.81208">
        <ele>26.668</ele>
        <time>2020-10-09T15:44:53.000Z</time>
      </trkpt>
      <trkpt lat="43.58983" lon="3.81213">
        <ele>26.568</ele>
        <time>2020-10-09T15:44:54.000Z</time>
      </trkpt>
      <trkpt lat="43.58988" lon="3.81218">
        <ele>26.468</ele>
        <time>2020-10-09T15:44:55.000Z</time>
      </trkpt>
      <trkpt lat="43.58993" lon="3.81222">
        <ele>26.368</ele>
        <time>2020-10-09T15:44:56.000Z</time>
      </trkpt>
      <trkpt lat="43.58998" lon="3.81227">
        <ele>26.268</ele>
        <time>2020-10-09T15:44:57.000Z</time>
      </trkpt>
      <trkpt lat="43.59003" lon="3.81232">
        <ele>26.168</ele>
        <time>2020-10-09T15:44:58.000Z</time>
      </trkpt>
      <trkpt lat="43.59008" lon="3.81237">
        <ele>26.068</ele>
        <time>2020-10-09T15:44:59.000Z</time>
      </trkpt>
      <trkpt lat="43.59013" lon="3.81242">
        <ele>26</ele>
        <time>2020-10-09T15:45:00.000Z</time>
      </trkpt>
      <trkpt lat="43.59018" lon="3.81247">
        <ele>26</ele>
        <time>2020-10-09T15:45:01.000Z</time>
      </trkpt>
      <trkpt lat="43.59023" lon="3.81253">
        <ele>26</ele>
        <time>2020-10-09T15:45:02.000Z</time>
      </trkpt>
      <trkpt lat="43.59027" lon="3.81258">
        <ele>26</ele>
        <time>2020-10-09T15:45:03.000Z</time>
      </trkpt>
      <trkpt lat="43.59032" lon="3.81263">
        <ele>26</ele>
        <time>2020-10-09T15:45:04.000Z</time>
      </trkpt>
      <trkpt lat="43.59036" lon="3.81269">
        <ele>26</ele>
        <time>2020-10-09T15:45:05.000Z</time>
      </trkpt>
      <trkpt lat="43.59041" lon="3.81274">
        <ele>26</ele>
        <time>2020-10-09T15:45:06.000Z</time>
      </trkpt>
      <trkpt lat="43.59045" lon="3.8128">
        <ele>26</ele>
        <time>2020-10-09T15:45:07.000Z</time>
      </trkpt>
      <trkpt lat="43.59049" lon="3.81286">
        <ele>26</ele>
        <time>2020-10-09T15:45:08.000Z</time>
      </trkpt>
      <trkpt lat="43.59054" lon="3.81292">
        <ele>26</ele>
        <time>2020-10-09T15:45:09.000Z</time>
      </trkpt>
      <trkpt lat="43.59058" lon="3.81298">
        <ele>25.968</ele>
        <time>2020-10-09T15:45:10.000Z</time>
      </trkpt>
      <trkpt lat="43.59062" lon="3.81305">
        <ele>25.868</ele>
        <time>2020-10-09T15:45:11.000Z</time>
      </trkpt>
      <trkpt lat="43.59065" lon="3.81311">
        <ele>25.768</ele>
        <time>2020-10-09T15:45:12.000Z</time>
      </trkpt>
      <trkpt lat="43.59069" lon="3.81317">
        <ele>25.668</ele>
        <time>2020-10-09T15:45:13.000Z</time>
      </trkpt>
      <trkpt lat="43.59073" lon="3.81324">
        <ele>25.568</ele>
        <time>2020-10-09T15:45:14.000Z</time>
      </trkpt>
      <trkpt lat="43.59077" lon="3.8133">
        <ele>25.468</ele>
        <time>2020-10-09T15:45:15.000Z</time>
      </trkpt>
      <trkpt lat="43.59081" lon="3.81337">
        <ele>25.368</ele>
        <time>2020-10-09T15:45:16.000Z</time>
      </trkpt>
      <trkpt lat="43.59084" lon="3.81344">
        <ele>25.268</ele>
        <time>2020-10-09T15:45:17.000Z</time>
      </trkpt>
      <trkpt lat="43.59088" lon="3.81352">
        <ele>25.168</ele>
        <time>2020-10-09T15:45:18.000Z</time>
      </trkpt>
      <trkpt lat="43.59091" lon="3.81359">
        <ele>25.068</ele>
        <time>2020-10-09T15:45:19.000Z</time>
      </trkpt>
      <trkpt lat="43.59095" lon="3.81366">
        <ele>25</ele>
        <time>2020-10-09T15:45:20.000Z</time>
      </trkpt>
      <trkpt lat="43.59098" lon="3.81373">
        <ele>25</ele>
        <time>2020-10-09T15:45:21.000Z</time>
      </trkpt>
      <trkpt lat="43.59101" lon="3.81381">
        <ele>25</ele>
        <time>2020-10-09T15:45:22.000Z</time>
      </trkpt>
      <trkpt lat="43.59104" lon="3.81388">
        <ele>25</ele>
        <time>2020-10-09T15:45:23.000Z</time>
      </trkpt>
      <trkpt lat="43.59108" lon="3.81396">
        <ele>25</ele>
        <time>2020-10-09T15:45:24.000Z</time>
      </trkpt>
      <trkpt lat="43.59111" lon="3.81403">
        <ele>25</ele>
        <time>2020-10-09T15:45:25.000Z</time>
      </trkpt>
      <trkpt lat="43.59113" lon="3.81411">
        <ele>25</ele>
        <time>2020-10-09T15:45:26.000Z</time>
      </trkpt>
      <trkpt lat="43.59116" lon="3.81419">
        <ele>25</ele>
        <time>2020-10-09T15:45:27.000Z</time>
      </trkpt>
      <trkpt lat="43.59119" lon="3.81426">
        <ele>25</ele>
        <time>2020-10-09T15:45:28.000Z</time>
      </trkpt>
      <trkpt lat="43.59122" lon="3.81434">
        <ele>25</ele>
        <time>2020-10-09T15:45:29.000Z</time>
      </trkpt>
      <trkpt lat="43.59125" lon="3.81442">
        <ele>25.030060742246</ele>
        <time>2020-10-09T15:45:30.000Z</time>
      </trkpt>
      <trkpt lat="43.59127" lon="3.8145">
        <ele>25.130261078791</ele>
        <time>2020-10-09T15:45:31.000Z</time>
      </trkpt>
      <trkpt lat="43.59129" lon="3.81457">
        <ele>25.230461415335</ele>
        <time>2020-10-09T15:45:32.000Z</time>
      </trkpt>
      <trkpt lat="43.59132" lon="3.81465">
        <ele>25.33066175188</ele>
        <time>2020-10-09T15:45:33.000Z</time>
      </trkpt>
      <trkpt lat="43.59134" lon="3.81473">
        <ele>25.430862088425</ele>
        <time>2020-10-09T15:45:34.000Z</time>
      </trkpt>
      <trkpt lat="43.59135" lon="3.8148">
        <ele>25.53106242497</ele>
        <time>2020-10-09T15:45:35.000Z</time>
      </trkpt>
      <trkpt lat="43.59137" lon="3.81487">
        <ele>25.631262761515</ele>
        <time>2020-10-09T15:45:36.000Z</time>
      </trkpt>
      <trkpt lat="43.59139" lon="3.81495">
        <ele>25.73146309806</ele>
        <time>2020-10-09T15:45:37.000Z</time>
      </trkpt>
      <trkpt lat="43.59142" lon="3.81502">
        <ele>25.831663434605</ele>
        <time>2020-10-09T15:45:38.000Z</time>
      </trkpt>
      <trkpt lat="43.59143" lon="3.81509">
        <ele>25.93186377115</ele>
        <time>2020-10-09T15:45:39.000Z</time>
      </trkpt>
      <trkpt lat="43.59145" lon="3.81516">
        <ele>26.031651819853</ele>
        <time>2020-10-09T15:45:40.000Z</time>
      </trkpt>
      <trkpt lat="43.59147" lon="3.81523">
        <ele>26.130563756894</ele>
        <time>2020-10-09T15:45:41.000Z</time>
      </trkpt>
      <trkpt lat="43.59149" lon="3.81529">
        <ele>26.229475693934</ele>
        <time>2020-10-09T15:45:42.000Z</time>
      </trkpt>
      <trkpt lat="43.5915" lon="3.81536">
        <ele>26.328387630975</ele>
        <time>2020-10-09T15:45:43.000Z</time>
      </trkpt>
      <trkpt lat="43.59152" lon="3.81542">
        <ele>26.427299568016</ele>
        <time>2020-10-09T15:45:44.000Z</time>
      </trkpt>
      <trkpt lat="43.59154" lon="3.81549">
        <ele>26.526211505057</ele>
        <time>2020-10-09T15:45:45.000Z</time>
      </trkpt>
      <trkpt lat="43.59155" lon="3.81555">
        <ele>26.625123442097</ele>
        <time>2020-10-09T15:45:46.000Z</time>
      </trkpt>
      <trkpt lat="43.59156" lon="3.81561">
        <ele>26.724035379138</ele>
        <time>2020-10-09T15:45:47.000Z</time>
      </trkpt>
      <trkpt lat="43.59157" lon="3.81568">
        <ele>26.822947316179</ele>
        <time>2020-10-09T15:45:48.000Z</time>
      </trkpt>
      <trkpt lat="43.59158" lon="3.81574">
        <ele>26.92185925322</ele>
        <time>2020-10-09T15:45:49.000Z</time>
      </trkpt>
      <trkpt lat="43.59159" lon="3.81581">
        <ele>27.021233252573</ele>
        <time>2020-10-09T15:45:50.000Z</time>
      </trkpt>
      <trkpt lat="43.59159" lon="3.81587">
        <ele>27.122345519869</ele>
        <time>2020-10-09T15:45:51.000Z</time>
      </trkpt>
      <trkpt lat="43.5916" lon="3.81594">
        <ele>27.223457787165</ele>
        <time>2020-10-09T15:45:52.000Z</time>
      </trkpt>
      <trkpt lat="43.59162" lon="3.816">
        <ele>27.324570054461</ele>
        <time>2020-10-09T15:45:53.000Z</time>
      </trkpt>
      <trkpt lat="43.59164" lon="3.81607">
        <ele>27.425682321758</ele>
        <time>2020-10-09T15:45:54.000Z</time>
      </trkpt>
      <trkpt lat="43.59166" lon="3.81613">
        <ele>27.526794589054</ele>
        <time>2020-10-09T15:45:55.000Z</time>
      </trkpt>
      <trkpt lat="43.59167" lon="3.81619">
        <ele>27.62790685635</ele>
        <time>2020-10-09T15:45:56.000Z</time>
      </trkpt>
      <trkpt lat="43.59169" lon="3.81626">
        <ele>27.729019123646</ele>
        <time>2020-10-09T15:45:57.000Z</time>
      </trkpt>
      <trkpt lat="43.59171" lon="3.81632">
        <ele>27.830131390942</ele>
        <time>2020-10-09T15:45:58.000Z</time>
      </trkpt>
      <trkpt lat="43.59173" lon="3.81639">
        <ele>27.931243658239</ele>
        <time>2020-10-09T15:45:59.000Z</time>
      </trkpt>
      <trkpt lat="43.59174" lon="3.81646">
        <ele>28</ele>
        <time>2020-10-09T15:46:00.000Z</time>
      </trkpt>
      <trkpt lat="43.59176" lon="3.81652">
        <ele>28</ele>
        <time>2020-10-09T15:46:01.000Z</time>
      </trkpt>
      <trkpt lat="43.59178" lon="3.81659">
        <ele>28</ele>
        <time>2020-10-09T15:46:02.000Z</time>
      </trkpt>
      <trkpt lat="43.5918" lon="3.81665">
        <ele>28</ele>
        <time>2020-10-09T15:46:03.000Z</time>
      </trkpt>
      <trkpt lat="43.59182" lon="3.81672">
        <ele>28</ele>
        <time>2020-10-09T15:46:04.000Z</time>
      </trkpt>
      <trkpt lat="43.59184" lon="3.81679">
        <ele>28</ele>
        <time>2020-10-09T15:46:05.000Z</time>
      </trkpt>
      <trkpt lat="43.59187" lon="3.81686">
        <ele>28</ele>
        <time>2020-10-09T15:46:06.000Z</time>
      </trkpt>
      <trkpt lat="43.5919" lon="3.81693">
        <ele>28</ele>
        <time>2020-10-09T15:46:07.000Z</time>
      </trkpt>
      <trkpt lat="43.59193" lon="3.817">
        <ele>28</ele>
        <time>2020-10-09T15:46:08.000Z</time>
      </trkpt>
      <trkpt lat="43.59195" lon="3.81707">
        <ele>28</ele>
        <time>2020-10-09T15:46:09.000Z</time>
      </trkpt>
      <trkpt lat="43.59197" lon="3.81715">
        <ele>28</ele>
        <time>2020-10-09T15:46:10.000Z</time>
      </trkpt>
      <trkpt lat="43.59199" lon="3.81722">
        <ele>28</ele>
        <time>2020-10-09T15:46:11.000Z</time>
      </trkpt>
      <trkpt lat="43.59202" lon="3.8173">
        <ele>28</ele>
        <time>2020-10-09T15:46:12.000Z</time>
      </trkpt>
      <trkpt lat="43.59204" lon="3.81738">
        <ele>28</ele>
        <time>2020-10-09T15:46:13.000Z</time>
      </trkpt>
      <trkpt lat="43.59206" lon="3.81746">
        <ele>28</ele>
        <time>2020-10-09T15:46:14.000Z</time>
      </trkpt>
      <trkpt lat="43.59208" lon="3.81754">
        <ele>28</ele>
        <time>2020-10-09T15:46:15.000Z</time>
      </trkpt>
      <trkpt lat="43.5921" lon="3.81762">
        <ele>28</ele>
        <time>2020-10-09T15:46:16.000Z</time>
      </trkpt>
      <trkpt lat="43.59212" lon="3.8177">
        <ele>28</ele>
        <time>2020-10-09T15:46:17.000Z</time>
      </trkpt>
      <trkpt lat="43.59214" lon="3.81777">
        <ele>28</ele>
        <time>2020-10-09T15:46:18.000Z</time>
      </trkpt>
      <trkpt lat="43.59218" lon="3.81783">
        <ele>28</ele>
        <time>2020-10-09T15:46:19.000Z</time>
      </trkpt>
      <trkpt lat="43.59223" lon="3.81786">
        <ele>27.936</ele>
        <time>2020-10-09T15:46:20.000Z</time>
      </trkpt>
      <trkpt lat="43.59229" lon="3.81788">
        <ele>27.736</ele>
        <time>2020-10-09T15:46:21.000Z</time>
      </trkpt>
      <trkpt lat="43.59235" lon="3.81788">
        <ele>27.536</ele>
        <time>2020-10-09T15:46:22.000Z</time>
      </trkpt>
      <trkpt lat="43.59241" lon="3.81789">
        <ele>27.336</ele>
        <time>2020-10-09T15:46:23.000Z</time>
      </trkpt>
      <trkpt lat="43.59247" lon="3.8179">
        <ele>27.136</ele>
        <time>2020-10-09T15:46:24.000Z</time>
      </trkpt>
      <trkpt lat="43.59253" lon="3.81791">
        <ele>26.936</ele>
        <time>2020-10-09T15:46:25.000Z</time>
      </trkpt>
      <trkpt lat="43.59259" lon="3.81794">
        <ele>26.736</ele>
        <time>2020-10-09T15:46:26.000Z</time>
      </trkpt>
      <trkpt lat="43.59262" lon="3.818">
        <ele>26.536</ele>
        <time>2020-10-09T15:46:27.000Z</time>
      </trkpt>
      <trkpt lat="43.59265" lon="3.81807">
        <ele>26.336</ele>
        <time>2020-10-09T15:46:28.000Z</time>
      </trkpt>
      <trkpt lat="43.59266" lon="3.81816">
        <ele>26.136</ele>
        <time>2020-10-09T15:46:29.000Z</time>
      </trkpt>
      <trkpt lat="43.59268" lon="3.81824">
        <ele>26</ele>
        <time>2020-10-09T15:46:30.000Z</time>
      </trkpt>
      <trkpt lat="43.59269" lon="3.81832">
        <ele>26</ele>
        <time>2020-10-09T15:46:31.000Z</time>
      </trkpt>
      <trkpt lat="43.5927" lon="3.81841">
        <ele>26</ele>
        <time>2020-10-09T15:46:32.000Z</time>
      </trkpt>
      <trkpt lat="43.59272" lon="3.81849">
        <ele>26</ele>
        <time>2020-10-09T15:46:33.000Z</time>
      </trkpt>
      <trkpt lat="43.59273" lon="3.81857">
        <ele>26</ele>
        <time>2020-10-09T15:46:34.000Z</time>
      </trkpt>
      <trkpt lat="43.59275" lon="3.81865">
        <ele>26</ele>
        <time>2020-10-09T15:46:35.000Z</time>
      </trkpt>
      <trkpt lat="43.59276" lon="3.81873">
        <ele>26</ele>
        <time>2020-10-09T15:46:36.000Z</time>
      </trkpt>
      <trkpt lat="43.59277" lon="3.8188">
        <ele>26</ele>
        <time>2020-10-09T15:46:37.000Z</time>
      </trkpt>
      <trkpt lat="43.59279" lon="3.81888">
        <ele>26</ele>
        <time>2020-10-09T15:46:38.000Z</time>
      </trkpt>
      <trkpt lat="43.5928" lon="3.81896">
        <ele>26</ele>
        <time>2020-10-09T15:46:39.000Z</time>
      </trkpt>
      <trkpt lat="43.59282" lon="3.81903">
        <ele>26</ele>
        <time>2020-10-09T15:46:40.000Z</time>
      </trkpt>
      <trkpt lat="43.59283" lon="3.81911">
        <ele>26</ele>
        <time>2020-10-09T15:46:41.000Z</time>
      </trkpt>
      <trkpt lat="43.59285" lon="3.81918">
        <ele>26</ele>
        <time>2020-10-09T15:46:42.000Z</time>
      </trkpt>
      <trkpt lat="43.59286" lon="3.81925">
        <ele>26</ele>
        <time>2020-10-09T15:46:43.000Z</time>
      </trkpt>
      <trkpt lat="43.59287" lon="3.81932">
        <ele>26</ele>
        <time>2020-10-09T15:46:44.000Z</time>
      </trkpt>
      <trkpt lat="43.59288" lon="3.81939">
        <ele>26</ele>
        <time>2020-10-09T15:46:45.000Z</time>
      </trkpt>
      <trkpt lat="43.59289" lon="3.81946">
        <ele>26</ele>
        <time>2020-10-09T15:46:46.000Z</time>
      </trkpt>
      <trkpt lat="43.5929" lon="3.81953">
        <ele>26</ele>
        <time>2020-10-09T15:46:47.000Z</time>
      </trkpt>
      <trkpt lat="43.59292" lon="3.81959">
        <ele>26</ele>
        <time>2020-10-09T15:46:48.000Z</time>
      </trkpt>
      <trkpt lat="43.59293" lon="3.81966">
        <ele>26</ele>
        <time>2020-10-09T15:46:49.000Z</time>
      </trkpt>
      <trkpt lat="43.59294" lon="3.81972">
        <ele>26.030060742246</ele>
        <time>2020-10-09T15:46:50.000Z</time>
      </trkpt>
      <trkpt lat="43.59295" lon="3.81978">
        <ele>26.130261078791</ele>
        <time>2020-10-09T15:46:51.000Z</time>
      </trkpt>
      <trkpt lat="43.59297" lon="3.81985">
        <ele>26.230461415335</ele>
        <time>2020-10-09T15:46:52.000Z</time>
      </trkpt>
      <trkpt lat="43.59298" lon="3.81991">
        <ele>26.33066175188</ele>
        <time>2020-10-09T15:46:53.000Z</time>
      </trkpt>
      <trkpt lat="43.59299" lon="3.81996">
        <ele>26.430862088425</ele>
        <time>2020-10-09T15:46:54.000Z</time>
      </trkpt>
      <trkpt lat="43.593" lon="3.82002">
        <ele>26.53106242497</ele>
        <time>2020-10-09T15:46:55.000Z</time>
      </trkpt>
      <trkpt lat="43.59302" lon="3.82008">
        <ele>26.631262761515</ele>
        <time>2020-10-09T15:46:56.000Z</time>
      </trkpt>
      <trkpt lat="43.59305" lon="3.82012">
        <ele>26.73146309806</ele>
        <time>2020-10-09T15:46:57.000Z</time>
      </trkpt>
      <trkpt lat="43.59309" lon="3.82015">
        <ele>26.831663434605</ele>
        <time>2020-10-09T15:46:58.000Z</time>
      </trkpt>
      <trkpt lat="43.59314" lon="3.82017">
        <ele>26.93186377115</ele>
        <time>2020-10-09T15:46:59.000Z</time>
      </trkpt>
      <trkpt lat="43.59318" lon="3.8202">
        <ele>26.969839764702</ele>
        <time>2020-10-09T15:47:00.000Z</time>
      </trkpt>
      <trkpt lat="43.59321" lon="3.82024">
        <ele>26.875589029395</ele>
        <time>2020-10-09T15:47:01.000Z</time>
      </trkpt>
      <trkpt lat="43.59325" lon="3.82029">
        <ele>26.781338294089</ele>
        <time>2020-10-09T15:47:02.000Z</time>
      </trkpt>
      <trkpt lat="43.59328" lon="3.82034">
        <ele>26.687087558782</ele>
        <time>2020-10-09T15:47:03.000Z</time>
      </trkpt>
      <trkpt lat="43.59333" lon="3.82037">
        <ele>26.592836823476</ele>
        <time>2020-10-09T15:47:04.000Z</time>
      </trkpt>
      <trkpt lat="43.59338" lon="3.82039">
        <ele>26.498586088169</ele>
        <time>2020-10-09T15:47:05.000Z</time>
      </trkpt>
      <trkpt lat="43.59343" lon="3.8204">
        <ele>26.404335352863</ele>
        <time>2020-10-09T15:47:06.000Z</time>
      </trkpt>
      <trkpt lat="43.59348" lon="3.82042">
        <ele>26.310084617556</ele>
        <time>2020-10-09T15:47:07.000Z</time>
      </trkpt>
      <trkpt lat="43.59353" lon="3.82044">
        <ele>26.21583388225</ele>
        <time>2020-10-09T15:47:08.000Z</time>
      </trkpt>
      <trkpt lat="43.59358" lon="3.82046">
        <ele>26.121583146943</ele>
        <time>2020-10-09T15:47:09.000Z</time>
      </trkpt>
      <trkpt lat="43.59362" lon="3.82049">
        <ele>26.027332411637</ele>
        <time>2020-10-09T15:47:10.000Z</time>
      </trkpt>
      <trkpt lat="43.59366" lon="3.82054">
        <ele>26</ele>
        <time>2020-10-09T15:47:11.000Z</time>
      </trkpt>
      <trkpt lat="43.59368" lon="3.82059">
        <ele>26</ele>
        <time>2020-10-09T15:47:12.000Z</time>
      </trkpt>
      <trkpt lat="43.59369" lon="3.82065">
        <ele>26</ele>
        <time>2020-10-09T15:47:13.000Z</time>
      </trkpt>
      <trkpt lat="43.59368" lon="3.82071">
        <ele>26</ele>
        <time>2020-10-09T15:47:14.000Z</time>
      </trkpt>
      <trkpt lat="43.5936" lon="3.82081">
        <ele>26</ele>
        <time>2020-10-09T15:47:16.000Z</time>
      </trkpt>
      <trkpt lat="43.59356" lon="3.82083">
        <ele>26</ele>
        <time>2020-10-09T15:47:17.000Z</time>
      </trkpt>
      <trkpt lat="43.59352" lon="3.82085">
        <ele>26</ele>
        <time>2020-10-09T15:47:18.000Z</time>
      </trkpt>
      <trkpt lat="43.59348" lon="3.82087">
        <ele>26</ele>
        <time>2020-10-09T15:47:19.000Z</time>
      </trkpt>
      <trkpt lat="43.59345" lon="3.82088">
        <ele>26.031037817719</ele>
        <time>2020-10-09T15:47:20.000Z</time>
      </trkpt>
      <trkpt lat="43.59343" lon="3.8209">
        <ele>26.128030998089</ele>
        <time>2020-10-09T15:47:21.000Z</time>
      </trkpt>
      <trkpt lat="43.59341" lon="3.82091">
        <ele>26.22502417846</ele>
        <time>2020-10-09T15:47:22.000Z</time>
      </trkpt>
      <trkpt lat="43.59339" lon="3.82093">
        <ele>26.322017358831</ele>
        <time>2020-10-09T15:47:23.000Z</time>
      </trkpt>
      <trkpt lat="43.59337" lon="3.82095">
        <ele>26.419010539201</ele>
        <time>2020-10-09T15:47:24.000Z</time>
      </trkpt>
      <trkpt lat="43.59335" lon="3.82098">
        <ele>26.516003719572</ele>
        <time>2020-10-09T15:47:25.000Z</time>
      </trkpt>
      <trkpt lat="43.59334" lon="3.82101">
        <ele>26.612996899943</ele>
        <time>2020-10-09T15:47:26.000Z</time>
      </trkpt>
      <trkpt lat="43.59332" lon="3.82104">
        <ele>26.709990080313</ele>
        <time>2020-10-09T15:47:27.000Z</time>
      </trkpt>
      <trkpt lat="43.5933" lon="3.82108">
        <ele>26.806983260684</ele>
        <time>2020-10-09T15:47:28.000Z</time>
      </trkpt>
      <trkpt lat="43.59328" lon="3.82112">
        <ele>26.903976441055</ele>
        <time>2020-10-09T15:47:29.000Z</time>
      </trkpt>
      <trkpt lat="43.59326" lon="3.82116">
        <ele>27</ele>
        <time>2020-10-09T15:47:30.000Z</time>
      </trkpt>
      <trkpt lat="43.59324" lon="3.82121">
        <ele>27</ele>
        <time>2020-10-09T15:47:31.000Z</time>
      </trkpt>
      <trkpt lat="43.59323" lon="3.82125">
        <ele>27</ele>
        <time>2020-10-09T15:47:32.000Z</time>
      </trkpt>
      <trkpt lat="43.59321" lon="3.82128">
        <ele>27</ele>
        <time>2020-10-09T15:47:33.000Z</time>
      </trkpt>
      <trkpt lat="43.59319" lon="3.82131">
        <ele>27</ele>
        <time>2020-10-09T15:47:34.000Z</time>
      </trkpt>
      <trkpt lat="43.59318" lon="3.82133">
        <ele>27</ele>
        <time>2020-10-09T15:47:35.000Z</time>
      </trkpt>
      <trkpt lat="43.59316" lon="3.82136">
        <ele>27</ele>
        <time>2020-10-09T15:47:36.000Z</time>
      </trkpt>
      <trkpt lat="43.59315" lon="3.82139">
        <ele>27</ele>
        <time>2020-10-09T15:47:37.000Z</time>
      </trkpt>
      <trkpt lat="43.59316" lon="3.82143">
        <ele>27</ele>
        <time>2020-10-09T15:47:38.000Z</time>
      </trkpt>
      <trkpt lat="43.59319" lon="3.82145">
        <ele>27</ele>
        <time>2020-10-09T15:47:39.000Z</time>
      </trkpt>
      <trkpt lat="43.59322" lon="3.82145">
        <ele>27</ele>
        <time>2020-10-09T15:47:40.000Z</time>
      </trkpt>
      <trkpt lat="43.59326" lon="3.82144">
        <ele>27</ele>
        <time>2020-10-09T15:47:41.000Z</time>
      </trkpt>
      <trkpt lat="43.59329" lon="3.82141">
        <ele>27</ele>
        <time>2020-10-09T15:47:42.000Z</time>
      </trkpt>
      <trkpt lat="43.59332" lon="3.82138">
        <ele>27</ele>
        <time>2020-10-09T15:47:43.000Z</time>
      </trkpt>
      <trkpt lat="43.59334" lon="3.82135">
        <ele>27</ele>
        <time>2020-10-09T15:47:44.000Z</time>
      </trkpt>
      <trkpt lat="43.59337" lon="3.82132">
        <ele>27</ele>
        <time>2020-10-09T15:47:45.000Z</time>
      </trkpt>
      <trkpt lat="43.59339" lon="3.82129">
        <ele>27</ele>
        <time>2020-10-09T15:47:46.000Z</time>
      </trkpt>
      <trkpt lat="43.59341" lon="3.82126">
        <ele>27</ele>
        <time>2020-10-09T15:47:47.000Z</time>
      </trkpt>
      <trkpt lat="43.59344" lon="3.82123">
        <ele>27</ele>
        <time>2020-10-09T15:47:48.000Z</time>
      </trkpt>
      <trkpt lat="43.59346" lon="3.8212">
        <ele>27</ele>
        <time>2020-10-09T15:47:49.000Z</time>
      </trkpt>
      <trkpt lat="43.59349" lon="3.82117">
        <ele>27</ele>
        <time>2020-10-09T15:47:50.000Z</time>
      </trkpt>
      <trkpt lat="43.59352" lon="3.82114">
        <ele>27</ele>
        <time>2020-10-09T15:47:51.000Z</time>
      </trkpt>
      <trkpt lat="43.59354" lon="3.82112">
        <ele>27</ele>
        <time>2020-10-09T15:47:52.000Z</time>
      </trkpt>
      <trkpt lat="43.59357" lon="3.82109">
        <ele>27</ele>
        <time>2020-10-09T15:47:53.000Z</time>
      </trkpt>
      <trkpt lat="43.59359" lon="3.82105">
        <ele>27</ele>
        <time>2020-10-09T15:47:54.000Z</time>
      </trkpt>
      <trkpt lat="43.59362" lon="3.82103">
        <ele>27</ele>
        <time>2020-10-09T15:47:55.000Z</time>
      </trkpt>
      <trkpt lat="43.59366" lon="3.821">
        <ele>27</ele>
        <time>2020-10-09T15:47:56.000Z</time>
      </trkpt>
      <trkpt lat="43.59369" lon="3.82098">
        <ele>27</ele>
        <time>2020-10-09T15:47:57.000Z</time>
      </trkpt>
      <trkpt lat="43.59373" lon="3.82095">
        <ele>27</ele>
        <time>2020-10-09T15:47:58.000Z</time>
      </trkpt>
      <trkpt lat="43.59376" lon="3.82092">
        <ele>27</ele>
        <time>2020-10-09T15:47:59.000Z</time>
      </trkpt>
      <trkpt lat="43.59379" lon="3.8209">
        <ele>27.032</ele>
        <time>2020-10-09T15:48:00.000Z</time>
      </trkpt>
      <trkpt lat="43.59382" lon="3.82087">
        <ele>27.132</ele>
        <time>2020-10-09T15:48:01.000Z</time>
      </trkpt>
      <trkpt lat="43.59385" lon="3.82084">
        <ele>27.232</ele>
        <time>2020-10-09T15:48:02.000Z</time>
      </trkpt>
      <trkpt lat="43.59388" lon="3.82081">
        <ele>27.332</ele>
        <time>2020-10-09T15:48:03.000Z</time>
      </trkpt>
      <trkpt lat="43.59392" lon="3.82079">
        <ele>27.432</ele>
        <time>2020-10-09T15:48:04.000Z</time>
      </trkpt>
      <trkpt lat="43.59395" lon="3.82077">
        <ele>27.532</ele>
        <time>2020-10-09T15:48:05.000Z</time>
      </trkpt>
      <trkpt lat="43.59399" lon="3.82074">
        <ele>27.632</ele>
        <time>2020-10-09T15:48:06.000Z</time>
      </trkpt>
      <trkpt lat="43.59404" lon="3.82074">
        <ele>27.732</ele>
        <time>2020-10-09T15:48:07.000Z</time>
      </trkpt>
      <trkpt lat="43.59408" lon="3.82076">
        <ele>27.832</ele>
        <time>2020-10-09T15:48:08.000Z</time>
      </trkpt>
      <trkpt lat="43.59411" lon="3.82079">
        <ele>27.932</ele>
        <time>2020-10-09T15:48:09.000Z</time>
      </trkpt>
      <trkpt lat="43.59414" lon="3.82083">
        <ele>28.032</ele>
        <time>2020-10-09T15:48:10.000Z</time>
      </trkpt>
      <trkpt lat="43.59417" lon="3.82086">
        <ele>28.132</ele>
        <time>2020-10-09T15:48:11.000Z</time>
      </trkpt>
      <trkpt lat="43.5942" lon="3.8209">
        <ele>28.232</ele>
        <time>2020-10-09T15:48:12.000Z</time>
      </trkpt>
      <trkpt lat="43.59422" lon="3.82094">
        <ele>28.332</ele>
        <time>2020-10-09T15:48:13.000Z</time>
      </trkpt>
      <trkpt lat="43.59425" lon="3.82097">
        <ele>28.432</ele>
        <time>2020-10-09T15:48:14.000Z</time>
      </trkpt>
      <trkpt lat="43.59427" lon="3.821">
        <ele>28.532</ele>
        <time>2020-10-09T15:48:15.000Z</time>
      </trkpt>
      <trkpt lat="43.59429" lon="3.82104">
        <ele>28.632</ele>
        <time>2020-10-09T15:48:16.000Z</time>
      </trkpt>
      <trkpt lat="43.59431" lon="3.82107">
        <ele>28.732</ele>
        <time>2020-10-09T15:48:17.000Z</time>
      </trkpt>
      <trkpt lat="43.59434" lon="3.8211">
        <ele>28.832</ele>
        <time>2020-10-09T15:48:18.000Z</time>
      </trkpt>
      <trkpt lat="43.59437" lon="3.82113">
        <ele>28.932</ele>
        <time>2020-10-09T15:48:19.000Z</time>
      </trkpt>
      <trkpt lat="43.59439" lon="3.82116">
        <ele>29.032</ele>
        <time>2020-10-09T15:48:20.000Z</time>
      </trkpt>
      <trkpt lat="43.59442" lon="3.82119">
        <ele>29.132</ele>
        <time>2020-10-09T15:48:21.000Z</time>
      </trkpt>
      <trkpt lat="43.59445" lon="3.82121">
        <ele>29.232</ele>
        <time>2020-10-09T15:48:22.000Z</time>
      </trkpt>
      <trkpt lat="43.59448" lon="3.82123">
        <ele>29.332</ele>
        <time>2020-10-09T15:48:23.000Z</time>
      </trkpt>
      <trkpt lat="43.59452" lon="3.82125">
        <ele>29.432</ele>
        <time>2020-10-09T15:48:24.000Z</time>
      </trkpt>
      <trkpt lat="43.59455" lon="3.82128">
        <ele>29.532</ele>
        <time>2020-10-09T15:48:25.000Z</time>
      </trkpt>
      <trkpt lat="43.59458" lon="3.8213">
        <ele>29.632</ele>
        <time>2020-10-09T15:48:26.000Z</time>
      </trkpt>
      <trkpt lat="43.59461" lon="3.82133">
        <ele>29.732</ele>
        <time>2020-10-09T15:48:27.000Z</time>
      </trkpt>
      <trkpt lat="43.59463" lon="3.82136">
        <ele>29.832</ele>
        <time>2020-10-09T15:48:28.000Z</time>
      </trkpt>
      <trkpt lat="43.59466" lon="3.82138">
        <ele>29.932</ele>
        <time>2020-10-09T15:48:29.000Z</time>
      </trkpt>
      <trkpt lat="43.59469" lon="3.82141">
        <ele>30.031007751938</ele>
        <time>2020-10-09T15:48:30.000Z</time>
      </trkpt>
      <trkpt lat="43.59471" lon="3.82145">
        <ele>30.127906976744</ele>
        <time>2020-10-09T15:48:31.000Z</time>
      </trkpt>
      <trkpt lat="43.59473" lon="3.82148">
        <ele>30.22480620155</ele>
        <time>2020-10-09T15:48:32.000Z</time>
      </trkpt>
      <trkpt lat="43.59474" lon="3.8215">
        <ele>30.321705426357</ele>
        <time>2020-10-09T15:48:33.000Z</time>
      </trkpt>
      <trkpt lat="43.59476" lon="3.82153">
        <ele>30.418604651163</ele>
        <time>2020-10-09T15:48:34.000Z</time>
      </trkpt>
      <trkpt lat="43.59478" lon="3.82155">
        <ele>30.515503875969</ele>
        <time>2020-10-09T15:48:35.000Z</time>
      </trkpt>
      <trkpt lat="43.5948" lon="3.82157">
        <ele>30.612403100775</ele>
        <time>2020-10-09T15:48:36.000Z</time>
      </trkpt>
      <trkpt lat="43.59483" lon="3.82159">
        <ele>30.709302325581</ele>
        <time>2020-10-09T15:48:37.000Z</time>
      </trkpt>
      <trkpt lat="43.59486" lon="3.82161">
        <ele>30.806201550388</ele>
        <time>2020-10-09T15:48:38.000Z</time>
      </trkpt>
      <trkpt lat="43.59489" lon="3.82163">
        <ele>30.903100775194</ele>
        <time>2020-10-09T15:48:39.000Z</time>
      </trkpt>
      <trkpt lat="43.59492" lon="3.82164">
        <ele>31</ele>
        <time>2020-10-09T15:48:40.000Z</time>
      </trkpt>
      <trkpt lat="43.59494" lon="3.82165">
        <ele>31.100401606426</ele>
        <time>2020-10-09T15:48:41.000Z</time>
      </trkpt>
      <trkpt lat="43.59497" lon="3.82165">
        <ele>31.200803212851</ele>
        <time>2020-10-09T15:48:42.000Z</time>
      </trkpt>
      <trkpt lat="43.59501" lon="3.82166">
        <ele>31.301204819277</ele>
        <time>2020-10-09T15:48:43.000Z</time>
      </trkpt>
      <trkpt lat="43.59504" lon="3.82167">
        <ele>31.401606425703</ele>
        <time>2020-10-09T15:48:44.000Z</time>
      </trkpt>
      <trkpt lat="43.59507" lon="3.82168">
        <ele>31.502008032129</ele>
        <time>2020-10-09T15:48:45.000Z</time>
      </trkpt>
      <trkpt lat="43.5951" lon="3.82169">
        <ele>31.602409638554</ele>
        <time>2020-10-09T15:48:46.000Z</time>
      </trkpt>
      <trkpt lat="43.59513" lon="3.82169">
        <ele>31.70281124498</ele>
        <time>2020-10-09T15:48:47.000Z</time>
      </trkpt>
      <trkpt lat="43.59516" lon="3.8217">
        <ele>31.803212851406</ele>
        <time>2020-10-09T15:48:48.000Z</time>
      </trkpt>
      <trkpt lat="43.59519" lon="3.8217">
        <ele>31.903614457831</ele>
        <time>2020-10-09T15:48:49.000Z</time>
      </trkpt>
      <trkpt lat="43.59522" lon="3.82171">
        <ele>32.008230452675</ele>
        <time>2020-10-09T15:48:50.000Z</time>
      </trkpt>
      <trkpt lat="43.59525" lon="3.82171">
        <ele>32.213991769547</ele>
        <time>2020-10-09T15:48:51.000Z</time>
      </trkpt>
      <trkpt lat="43.59528" lon="3.82172">
        <ele>32.41975308642</ele>
        <time>2020-10-09T15:48:52.000Z</time>
      </trkpt>
      <trkpt lat="43.59532" lon="3.82173">
        <ele>32.625514403292</ele>
        <time>2020-10-09T15:48:53.000Z</time>
      </trkpt>
      <trkpt lat="43.59535" lon="3.82173">
        <ele>32.831275720165</ele>
        <time>2020-10-09T15:48:54.000Z</time>
      </trkpt>
      <trkpt lat="43.59538" lon="3.82174">
        <ele>33.037037037037</ele>
        <time>2020-10-09T15:48:55.000Z</time>
      </trkpt>
      <trkpt lat="43.59542" lon="3.82175">
        <ele>33.242798353909</ele>
        <time>2020-10-09T15:48:56.000Z</time>
      </trkpt>
      <trkpt lat="43.59544" lon="3.82174">
        <ele>33.448559670782</ele>
        <time>2020-10-09T15:48:57.000Z</time>
      </trkpt>
      <trkpt lat="43.59547" lon="3.82174">
        <ele>33.654320987654</ele>
        <time>2020-10-09T15:48:58.000Z</time>
      </trkpt>
      <trkpt lat="43.5955" lon="3.82175">
        <ele>33.860082304527</ele>
        <time>2020-10-09T15:48:59.000Z</time>
      </trkpt>
      <trkpt lat="43.59553" lon="3.82175">
        <ele>34.064</ele>
        <time>2020-10-09T15:49:00.000Z</time>
      </trkpt>
      <trkpt lat="43.59556" lon="3.82175">
        <ele>34.264</ele>
        <time>2020-10-09T15:49:01.000Z</time>
      </trkpt>
      <trkpt lat="43.59558" lon="3.82176">
        <ele>34.464</ele>
        <time>2020-10-09T15:49:02.000Z</time>
      </trkpt>
      <trkpt lat="43.59561" lon="3.82177">
        <ele>34.664</ele>
        <time>2020-10-09T15:49:03.000Z</time>
      </trkpt>
      <trkpt lat="43.59563" lon="3.82177">
        <ele>34.864</ele>
        <time>2020-10-09T15:49:04.000Z</time>
      </trkpt>
      <trkpt lat="43.59565" lon="3.82177">
        <ele>35.064</ele>
        <time>2020-10-09T15:49:05.000Z</time>
      </trkpt>
      <trkpt lat="43.59567" lon="3.82177">
        <ele>35.264</ele>
        <time>2020-10-09T15:49:06.000Z</time>
      </trkpt>
      <trkpt lat="43.59569" lon="3.82178">
        <ele>35.464</ele>
        <time>2020-10-09T15:49:07.000Z</time>
      </trkpt>
      <trkpt lat="43.59571" lon="3.82179">
        <ele>35.664</ele>
        <time>2020-10-09T15:49:08.000Z</time>
      </trkpt>
      <trkpt lat="43.59573" lon="3.8218">
        <ele>35.864</ele>
        <time>2020-10-09T15:49:09.000Z</time>
      </trkpt>
      <trkpt lat="43.59575" lon="3.82181">
        <ele>36.063555094004</ele>
        <time>2020-10-09T15:49:10.000Z</time>
      </trkpt>
      <trkpt lat="43.59577" lon="3.82181">
        <ele>36.262164762768</ele>
        <time>2020-10-09T15:49:11.000Z</time>
      </trkpt>
      <trkpt lat="43.5958" lon="3.82182">
        <ele>36.460774431531</ele>
        <time>2020-10-09T15:49:12.000Z</time>
      </trkpt>
      <trkpt lat="43.59582" lon="3.82182">
        <ele>36.659384100295</ele>
        <time>2020-10-09T15:49:13.000Z</time>
      </trkpt>
      <trkpt lat="43.59584" lon="3.82183">
        <ele>36.857993769059</ele>
        <time>2020-10-09T15:49:14.000Z</time>
      </trkpt>
      <trkpt lat="43.59586" lon="3.82184">
        <ele>37.056603437822</ele>
        <time>2020-10-09T15:49:15.000Z</time>
      </trkpt>
      <trkpt lat="43.59588" lon="3.82185">
        <ele>37.255213106586</ele>
        <time>2020-10-09T15:49:16.000Z</time>
      </trkpt>
      <trkpt lat="43.5959" lon="3.82186">
        <ele>37.453822775349</ele>
        <time>2020-10-09T15:49:17.000Z</time>
      </trkpt>
      <trkpt lat="43.59592" lon="3.82187">
        <ele>37.652432444113</ele>
        <time>2020-10-09T15:49:18.000Z</time>
      </trkpt>
      <trkpt lat="43.59594" lon="3.82188">
        <ele>37.851042112876</ele>
        <time>2020-10-09T15:49:19.000Z</time>
      </trkpt>
      <trkpt lat="43.59596" lon="3.82189">
        <ele>38.075527758478</ele>
        <time>2020-10-09T15:49:20.000Z</time>
      </trkpt>
      <trkpt lat="43.59598" lon="3.8219">
        <ele>38.377642659462</ele>
        <time>2020-10-09T15:49:21.000Z</time>
      </trkpt>
      <trkpt lat="43.596" lon="3.82191">
        <ele>38.679757560446</ele>
        <time>2020-10-09T15:49:22.000Z</time>
      </trkpt>
      <trkpt lat="43.59602" lon="3.82191">
        <ele>38.981872461429</ele>
        <time>2020-10-09T15:49:23.000Z</time>
      </trkpt>
      <trkpt lat="43.59604" lon="3.82192">
        <ele>39.283987362413</ele>
        <time>2020-10-09T15:49:24.000Z</time>
      </trkpt>
      <trkpt lat="43.59606" lon="3.82193">
        <ele>39.586102263396</ele>
        <time>2020-10-09T15:49:25.000Z</time>
      </trkpt>
      <trkpt lat="43.59608" lon="3.82193">
        <ele>39.88821716438</ele>
        <time>2020-10-09T15:49:26.000Z</time>
      </trkpt>
      <trkpt lat="43.59609" lon="3.82194">
        <ele>40.190332065364</ele>
        <time>2020-10-09T15:49:27.000Z</time>
      </trkpt>
      <trkpt lat="43.59613" lon="3.82196">
        <ele>40.794561867331</ele>
        <time>2020-10-09T15:49:29.000Z</time>
      </trkpt>
      <trkpt lat="43.59614" lon="3.82197">
        <ele>41.063872296286</ele>
        <time>2020-10-09T15:49:30.000Z</time>
      </trkpt>
      <trkpt lat="43.59617" lon="3.82198">
        <ele>41.463074148071</ele>
        <time>2020-10-09T15:49:32.000Z</time>
      </trkpt>
      <trkpt lat="43.5962" lon="3.822">
        <ele>41.862275999857</ele>
        <time>2020-10-09T15:49:34.000Z</time>
      </trkpt>
      <trkpt lat="43.59624" lon="3.82201">
        <ele>42.261477851643</ele>
        <time>2020-10-09T15:49:36.000Z</time>
      </trkpt>
      <trkpt lat="43.59627" lon="3.82202">
        <ele>42.660679703428</ele>
        <time>2020-10-09T15:49:38.000Z</time>
      </trkpt>
      <trkpt lat="43.5963" lon="3.82204">
        <ele>43.09000192</ele>
        <time>2020-10-09T15:49:40.000Z</time>
      </trkpt>
      <trkpt lat="43.59633" lon="3.82205">
        <ele>43.69000192</ele>
        <time>2020-10-09T15:49:42.000Z</time>
      </trkpt>
      <trkpt lat="43.59636" lon="3.82206">
        <ele>44.29000192</ele>
        <time>2020-10-09T15:49:44.000Z</time>
      </trkpt>
      <trkpt lat="43.59639" lon="3.82208">
        <ele>44.89000192</ele>
        <time>2020-10-09T15:49:46.000Z</time>
      </trkpt>
      <trkpt lat="43.59642" lon="3.82209">
        <ele>45.49000192</ele>
        <time>2020-10-09T15:49:48.000Z</time>
      </trkpt>
      <trkpt lat="43.59645" lon="3.82211">
        <ele>46.060121484491</ele>
        <time>2020-10-09T15:49:50.000Z</time>
      </trkpt>
      <trkpt lat="43.59648" lon="3.82213">
        <ele>46.460922830671</ele>
        <time>2020-10-09T15:49:52.000Z</time>
      </trkpt>
      <trkpt lat="43.59651" lon="3.82216">
        <ele>46.86172417685</ele>
        <time>2020-10-09T15:49:54.000Z</time>
      </trkpt>
      <trkpt lat="43.59654" lon="3.82218">
        <ele>47.26252552303</ele>
        <time>2020-10-09T15:49:56.000Z</time>
      </trkpt>
      <trkpt lat="43.59657" lon="3.82221">
        <ele>47.663326869209</ele>
        <time>2020-10-09T15:49:58.000Z</time>
      </trkpt>
      <trkpt lat="43.59659" lon="3.82224">
        <ele>48.063936084375</ele>
        <time>2020-10-09T15:50:00.000Z</time>
      </trkpt>
      <trkpt lat="43.59662" lon="3.82227">
        <ele>48.46353661172</ele>
        <time>2020-10-09T15:50:02.000Z</time>
      </trkpt>
      <trkpt lat="43.59664" lon="3.8223">
        <ele>48.863137139065</ele>
        <time>2020-10-09T15:50:04.000Z</time>
      </trkpt>
      <trkpt lat="43.59666" lon="3.82233">
        <ele>49.26273766641</ele>
        <time>2020-10-09T15:50:06.000Z</time>
      </trkpt>
      <trkpt lat="43.59668" lon="3.82237">
        <ele>49.662338193755</ele>
        <time>2020-10-09T15:50:08.000Z</time>
      </trkpt>
      <trkpt lat="43.59669" lon="3.82241">
        <ele>50.062062682823</ele>
        <time>2020-10-09T15:50:10.000Z</time>
      </trkpt>
      <trkpt lat="43.5967" lon="3.82245">
        <ele>50.462462954967</ele>
        <time>2020-10-09T15:50:12.000Z</time>
      </trkpt>
      <trkpt lat="43.59671" lon="3.8225">
        <ele>50.862863227111</ele>
        <time>2020-10-09T15:50:14.000Z</time>
      </trkpt>
      <trkpt lat="43.59671" lon="3.82252">
        <ele>51.063063363183</ele>
        <time>2020-10-09T15:50:15.000Z</time>
      </trkpt>
      <trkpt lat="43.59672" lon="3.82254">
        <ele>51.263263499255</ele>
        <time>2020-10-09T15:50:16.000Z</time>
      </trkpt>
      <trkpt lat="43.59673" lon="3.82257">
        <ele>51.463463635327</ele>
        <time>2020-10-09T15:50:17.000Z</time>
      </trkpt>
      <trkpt lat="43.59674" lon="3.82259">
        <ele>51.663663771399</ele>
        <time>2020-10-09T15:50:18.000Z</time>
      </trkpt>
      <trkpt lat="43.59675" lon="3.8226">
        <ele>51.863863907471</ele>
        <time>2020-10-09T15:50:19.000Z</time>
      </trkpt>
      <trkpt lat="43.59677" lon="3.82262">
        <ele>52.032</ele>
        <time>2020-10-09T15:50:20.000Z</time>
      </trkpt>
      <trkpt lat="43.59679" lon="3.82263">
        <ele>52.132</ele>
        <time>2020-10-09T15:50:21.000Z</time>
      </trkpt>
      <trkpt lat="43.59682" lon="3.82264">
        <ele>52.332</ele>
        <time>2020-10-09T15:50:23.000Z</time>
      </trkpt>
      <trkpt lat="43.59685" lon="3.82264">
        <ele>52.432</ele>
        <time>2020-10-09T15:50:24.000Z</time>
      </trkpt>
      <trkpt lat="43.59687" lon="3.82264">
        <ele>52.532</ele>
        <time>2020-10-09T15:50:25.000Z</time>
      </trkpt>
      <trkpt lat="43.5969" lon="3.82264">
        <ele>52.632</ele>
        <time>2020-10-09T15:50:26.000Z</time>
      </trkpt>
      <trkpt lat="43.59692" lon="3.82264">
        <ele>52.732</ele>
        <time>2020-10-09T15:50:27.000Z</time>
      </trkpt>
      <trkpt lat="43.59694" lon="3.82264">
        <ele>52.832</ele>
        <time>2020-10-09T15:50:28.000Z</time>
      </trkpt>
      <trkpt lat="43.59697" lon="3.82264">
        <ele>52.932</ele>
        <time>2020-10-09T15:50:29.000Z</time>
      </trkpt>
      <trkpt lat="43.59699" lon="3.82263">
        <ele>53.032</ele>
        <time>2020-10-09T15:50:30.000Z</time>
      </trkpt>
      <trkpt lat="43.59702" lon="3.82263">
        <ele>53.132</ele>
        <time>2020-10-09T15:50:31.000Z</time>
      </trkpt>
      <trkpt lat="43.59704" lon="3.82263">
        <ele>53.232</ele>
        <time>2020-10-09T15:50:32.000Z</time>
      </trkpt>
      <trkpt lat="43.59706" lon="3.82263">
        <ele>53.332</ele>
        <time>2020-10-09T15:50:33.000Z</time>
      </trkpt>
      <trkpt lat="43.59708" lon="3.82263">
        <ele>53.432</ele>
        <time>2020-10-09T15:50:34.000Z</time>
      </trkpt>
      <trkpt lat="43.59711" lon="3.82263">
        <ele>53.532</ele>
        <time>2020-10-09T15:50:35.000Z</time>
      </trkpt>
      <trkpt lat="43.59713" lon="3.82263">
        <ele>53.632</ele>
        <time>2020-10-09T15:50:36.000Z</time>
      </trkpt>
      <trkpt lat="43.59715" lon="3.82264">
        <ele>53.732</ele>
        <time>2020-10-09T15:50:37.000Z</time>
      </trkpt>
      <trkpt lat="43.59718" lon="3.82264">
        <ele>53.832</ele>
        <time>2020-10-09T15:50:38.000Z</time>
      </trkpt>
      <trkpt lat="43.5972" lon="3.82264">
        <ele>53.932</ele>
        <time>2020-10-09T15:50:39.000Z</time>
      </trkpt>
      <trkpt lat="43.59722" lon="3.82265">
        <ele>54.03187250996</ele>
        <time>2020-10-09T15:50:40.000Z</time>
      </trkpt>
      <trkpt lat="43.59724" lon="3.82265">
        <ele>54.131474103586</ele>
        <time>2020-10-09T15:50:41.000Z</time>
      </trkpt>
      <trkpt lat="43.59726" lon="3.82265">
        <ele>54.231075697211</ele>
        <time>2020-10-09T15:50:42.000Z</time>
      </trkpt>
      <trkpt lat="43.59729" lon="3.82265">
        <ele>54.330677290837</ele>
        <time>2020-10-09T15:50:43.000Z</time>
      </trkpt>
      <trkpt lat="43.59731" lon="3.82266">
        <ele>54.430278884462</ele>
        <time>2020-10-09T15:50:44.000Z</time>
      </trkpt>
      <trkpt lat="43.59733" lon="3.82266">
        <ele>54.529880478088</ele>
        <time>2020-10-09T15:50:45.000Z</time>
      </trkpt>
      <trkpt lat="43.59736" lon="3.82267">
        <ele>54.629482071713</ele>
        <time>2020-10-09T15:50:46.000Z</time>
      </trkpt>
      <trkpt lat="43.59738" lon="3.82267">
        <ele>54.729083665339</ele>
        <time>2020-10-09T15:50:47.000Z</time>
      </trkpt>
      <trkpt lat="43.5974" lon="3.82268">
        <ele>54.828685258964</ele>
        <time>2020-10-09T15:50:48.000Z</time>
      </trkpt>
      <trkpt lat="43.59743" lon="3.82268">
        <ele>54.92828685259</ele>
        <time>2020-10-09T15:50:49.000Z</time>
      </trkpt>
      <trkpt lat="43.59745" lon="3.82269">
        <ele>55.028112449799</ele>
        <time>2020-10-09T15:50:50.000Z</time>
      </trkpt>
      <trkpt lat="43.59747" lon="3.8227">
        <ele>55.128514056225</ele>
        <time>2020-10-09T15:50:51.000Z</time>
      </trkpt>
      <trkpt lat="43.59749" lon="3.82271">
        <ele>55.228915662651</ele>
        <time>2020-10-09T15:50:52.000Z</time>
      </trkpt>
      <trkpt lat="43.59752" lon="3.82271">
        <ele>55.329317269076</ele>
        <time>2020-10-09T15:50:53.000Z</time>
      </trkpt>
      <trkpt lat="43.59754" lon="3.82272">
        <ele>55.429718875502</ele>
        <time>2020-10-09T15:50:54.000Z</time>
      </trkpt>
      <trkpt lat="43.59756" lon="3.82272">
        <ele>55.530120481928</ele>
        <time>2020-10-09T15:50:55.000Z</time>
      </trkpt>
      <trkpt lat="43.59758" lon="3.82273">
        <ele>55.630522088353</ele>
        <time>2020-10-09T15:50:56.000Z</time>
      </trkpt>
      <trkpt lat="43.5976" lon="3.82274">
        <ele>55.730923694779</ele>
        <time>2020-10-09T15:50:57.000Z</time>
      </trkpt>
      <trkpt lat="43.59762" lon="3.82274">
        <ele>55.831325301205</ele>
        <time>2020-10-09T15:50:58.000Z</time>
      </trkpt>
      <trkpt lat="43.59765" lon="3.82275">
        <ele>55.93172690763</ele>
        <time>2020-10-09T15:50:59.000Z</time>
      </trkpt>
      <trkpt lat="43.59767" lon="3.82276">
        <ele>56.032</ele>
        <time>2020-10-09T15:51:00.000Z</time>
      </trkpt>
      <trkpt lat="43.59769" lon="3.82276">
        <ele>56.132</ele>
        <time>2020-10-09T15:51:01.000Z</time>
      </trkpt>
      <trkpt lat="43.59771" lon="3.82277">
        <ele>56.232</ele>
        <time>2020-10-09T15:51:02.000Z</time>
      </trkpt>
      <trkpt lat="43.59773" lon="3.82278">
        <ele>56.332</ele>
        <time>2020-10-09T15:51:03.000Z</time>
      </trkpt>
      <trkpt lat="43.59775" lon="3.82279">
        <ele>56.432</ele>
        <time>2020-10-09T15:51:04.000Z</time>
      </trkpt>
      <trkpt lat="43.59778" lon="3.82281">
        <ele>56.532</ele>
        <time>2020-10-09T15:51:05.000Z</time>
      </trkpt>
      <trkpt lat="43.5978" lon="3.82282">
        <ele>56.632</ele>
        <time>2020-10-09T15:51:06.000Z</time>
      </trkpt>
      <trkpt lat="43.59782" lon="3.82283">
        <ele>56.732</ele>
        <time>2020-10-09T15:51:07.000Z</time>
      </trkpt>
      <trkpt lat="43.59785" lon="3.82285">
        <ele>56.832</ele>
        <time>2020-10-09T15:51:08.000Z</time>
      </trkpt>
      <trkpt lat="43.59787" lon="3.82287">
        <ele>56.932</ele>
        <time>2020-10-09T15:51:09.000Z</time>
      </trkpt>
      <trkpt lat="43.5979" lon="3.82289">
        <ele>57.031968042188</ele>
        <time>2020-10-09T15:51:10.000Z</time>
      </trkpt>
      <trkpt lat="43.59793" lon="3.82292">
        <ele>57.131868174024</ele>
        <time>2020-10-09T15:51:11.000Z</time>
      </trkpt>
      <trkpt lat="43.59796" lon="3.82294">
        <ele>57.23176830586</ele>
        <time>2020-10-09T15:51:12.000Z</time>
      </trkpt>
      <trkpt lat="43.59798" lon="3.82298">
        <ele>57.331668437696</ele>
        <time>2020-10-09T15:51:13.000Z</time>
      </trkpt>
      <trkpt lat="43.59802" lon="3.82301">
        <ele>57.431568569532</ele>
        <time>2020-10-09T15:51:14.000Z</time>
      </trkpt>
      <trkpt lat="43.59804" lon="3.82305">
        <ele>57.531468701369</ele>
        <time>2020-10-09T15:51:15.000Z</time>
      </trkpt>
      <trkpt lat="43.59807" lon="3.82309">
        <ele>57.631368833205</ele>
        <time>2020-10-09T15:51:16.000Z</time>
      </trkpt>
      <trkpt lat="43.59811" lon="3.82313">
        <ele>57.731268965041</ele>
        <time>2020-10-09T15:51:17.000Z</time>
      </trkpt>
      <trkpt lat="43.59814" lon="3.82317">
        <ele>57.831169096877</ele>
        <time>2020-10-09T15:51:18.000Z</time>
      </trkpt>
      <trkpt lat="43.59817" lon="3.82321">
        <ele>57.931069228713</ele>
        <time>2020-10-09T15:51:19.000Z</time>
      </trkpt>
      <trkpt lat="43.5982" lon="3.82325">
        <ele>58</ele>
        <time>2020-10-09T15:51:20.000Z</time>
      </trkpt>
      <trkpt lat="43.59823" lon="3.82328">
        <ele>58</ele>
        <time>2020-10-09T15:51:21.000Z</time>
      </trkpt>
      <trkpt lat="43.59826" lon="3.82332">
        <ele>58</ele>
        <time>2020-10-09T15:51:22.000Z</time>
      </trkpt>
      <trkpt lat="43.59829" lon="3.82335">
        <ele>58</ele>
        <time>2020-10-09T15:51:23.000Z</time>
      </trkpt>
      <trkpt lat="43.59833" lon="3.82339">
        <ele>58</ele>
        <time>2020-10-09T15:51:24.000Z</time>
      </trkpt>
      <trkpt lat="43.59836" lon="3.82342">
        <ele>58</ele>
        <time>2020-10-09T15:51:25.000Z</time>
      </trkpt>
      <trkpt lat="43.59839" lon="3.82345">
        <ele>58</ele>
        <time>2020-10-09T15:51:26.000Z</time>
      </trkpt>
      <trkpt lat="43.59842" lon="3.82349">
        <ele>58</ele>
        <time>2020-10-09T15:51:27.000Z</time>
      </trkpt>
      <trkpt lat="43.59845" lon="3.82351">
        <ele>58</ele>
        <time>2020-10-09T15:51:28.000Z</time>
      </trkpt>
      <trkpt lat="43.59849" lon="3.82353">
        <ele>58</ele>
        <time>2020-10-09T15:51:29.000Z</time>
      </trkpt>
      <trkpt lat="43.59854" lon="3.82354">
        <ele>58</ele>
        <time>2020-10-09T15:51:30.000Z</time>
      </trkpt>
      <trkpt lat="43.59858" lon="3.82354">
        <ele>58</ele>
        <time>2020-10-09T15:51:31.000Z</time>
      </trkpt>
      <trkpt lat="43.59863" lon="3.82355">
        <ele>58</ele>
        <time>2020-10-09T15:51:32.000Z</time>
      </trkpt>
      <trkpt lat="43.59868" lon="3.82355">
        <ele>58</ele>
        <time>2020-10-09T15:51:33.000Z</time>
      </trkpt>
      <trkpt lat="43.59873" lon="3.82356">
        <ele>58</ele>
        <time>2020-10-09T15:51:34.000Z</time>
      </trkpt>
      <trkpt lat="43.59878" lon="3.82356">
        <ele>58</ele>
        <time>2020-10-09T15:51:35.000Z</time>
      </trkpt>
      <trkpt lat="43.59883" lon="3.82357">
        <ele>58</ele>
        <time>2020-10-09T15:51:36.000Z</time>
      </trkpt>
      <trkpt lat="43.59888" lon="3.82357">
        <ele>58</ele>
        <time>2020-10-09T15:51:37.000Z</time>
      </trkpt>
      <trkpt lat="43.59892" lon="3.82358">
        <ele>58</ele>
        <time>2020-10-09T15:51:38.000Z</time>
      </trkpt>
      <trkpt lat="43.59897" lon="3.82358">
        <ele>58</ele>
        <time>2020-10-09T15:51:39.000Z</time>
      </trkpt>
      <trkpt lat="43.59902" lon="3.82357">
        <ele>58</ele>
        <time>2020-10-09T15:51:40.000Z</time>
      </trkpt>
      <trkpt lat="43.59907" lon="3.82357">
        <ele>58</ele>
        <time>2020-10-09T15:51:41.000Z</time>
      </trkpt>
      <trkpt lat="43.59912" lon="3.82357">
        <ele>58</ele>
        <time>2020-10-09T15:51:42.000Z</time>
      </trkpt>
      <trkpt lat="43.59917" lon="3.82357">
        <ele>58</ele>
        <time>2020-10-09T15:51:43.000Z</time>
      </trkpt>
      <trkpt lat="43.59922" lon="3.82356">
        <ele>58</ele>
        <time>2020-10-09T15:51:44.000Z</time>
      </trkpt>
      <trkpt lat="43.59927" lon="3.82355">
        <ele>58</ele>
        <time>2020-10-09T15:51:45.000Z</time>
      </trkpt>
      <trkpt lat="43.59931" lon="3.82354">
        <ele>58</ele>
        <time>2020-10-09T15:51:46.000Z</time>
      </trkpt>
      <trkpt lat="43.59935" lon="3.82351">
        <ele>58</ele>
        <time>2020-10-09T15:51:47.000Z</time>
      </trkpt>
      <trkpt lat="43.59939" lon="3.82349">
        <ele>58</ele>
        <time>2020-10-09T15:51:48.000Z</time>
      </trkpt>
      <trkpt lat="43.59943" lon="3.82347">
        <ele>58</ele>
        <time>2020-10-09T15:51:49.000Z</time>
      </trkpt>
      <trkpt lat="43.59946" lon="3.82344">
        <ele>58.028112449799</ele>
        <time>2020-10-09T15:51:50.000Z</time>
      </trkpt>
      <trkpt lat="43.59949" lon="3.82342">
        <ele>58.128514056225</ele>
        <time>2020-10-09T15:51:51.000Z</time>
      </trkpt>
      <trkpt lat="43.59953" lon="3.8234">
        <ele>58.228915662651</ele>
        <time>2020-10-09T15:51:52.000Z</time>
      </trkpt>
      <trkpt lat="43.59956" lon="3.82338">
        <ele>58.329317269076</ele>
        <time>2020-10-09T15:51:53.000Z</time>
      </trkpt>
      <trkpt lat="43.5996" lon="3.82336">
        <ele>58.429718875502</ele>
        <time>2020-10-09T15:51:54.000Z</time>
      </trkpt>
      <trkpt lat="43.59963" lon="3.82335">
        <ele>58.530120481928</ele>
        <time>2020-10-09T15:51:55.000Z</time>
      </trkpt>
      <trkpt lat="43.59966" lon="3.82334">
        <ele>58.630522088353</ele>
        <time>2020-10-09T15:51:56.000Z</time>
      </trkpt>
      <trkpt lat="43.59969" lon="3.82333">
        <ele>58.730923694779</ele>
        <time>2020-10-09T15:51:57.000Z</time>
      </trkpt>
      <trkpt lat="43.59973" lon="3.82332">
        <ele>58.831325301205</ele>
        <time>2020-10-09T15:51:58.000Z</time>
      </trkpt>
      <trkpt lat="43.59976" lon="3.82331">
        <ele>58.93172690763</ele>
        <time>2020-10-09T15:51:59.000Z</time>
      </trkpt>
      <trkpt lat="43.59979" lon="3.8233">
        <ele>59.064</ele>
        <time>2020-10-09T15:52:00.000Z</time>
      </trkpt>
      <trkpt lat="43.59983" lon="3.8233">
        <ele>59.264</ele>
        <time>2020-10-09T15:52:01.000Z</time>
      </trkpt>
      <trkpt lat="43.59986" lon="3.82329">
        <ele>59.464</ele>
        <time>2020-10-09T15:52:02.000Z</time>
      </trkpt>
      <trkpt lat="43.59989" lon="3.82329">
        <ele>59.664</ele>
        <time>2020-10-09T15:52:03.000Z</time>
      </trkpt>
      <trkpt lat="43.59992" lon="3.82329">
        <ele>59.864</ele>
        <time>2020-10-09T15:52:04.000Z</time>
      </trkpt>
      <trkpt lat="43.59995" lon="3.82328">
        <ele>60.064</ele>
        <time>2020-10-09T15:52:05.000Z</time>
      </trkpt>
      <trkpt lat="43.59999" lon="3.82328">
        <ele>60.264</ele>
        <time>2020-10-09T15:52:06.000Z</time>
      </trkpt>
      <trkpt lat="43.60002" lon="3.82328">
        <ele>60.464</ele>
        <time>2020-10-09T15:52:07.000Z</time>
      </trkpt>
      <trkpt lat="43.60005" lon="3.82328">
        <ele>60.664</ele>
        <time>2020-10-09T15:52:08.000Z</time>
      </trkpt>
      <trkpt lat="43.60008" lon="3.82328">
        <ele>60.864</ele>
        <time>2020-10-09T15:52:09.000Z</time>
      </trkpt>
      <trkpt lat="43.60011" lon="3.82328">
        <ele>61.03162055336</ele>
        <time>2020-10-09T15:52:10.000Z</time>
      </trkpt>
      <trkpt lat="43.60014" lon="3.82329">
        <ele>61.130434782609</ele>
        <time>2020-10-09T15:52:11.000Z</time>
      </trkpt>
      <trkpt lat="43.60017" lon="3.82329">
        <ele>61.229249011858</ele>
        <time>2020-10-09T15:52:12.000Z</time>
      </trkpt>
      <trkpt lat="43.60019" lon="3.82329">
        <ele>61.328063241107</ele>
        <time>2020-10-09T15:52:13.000Z</time>
      </trkpt>
      <trkpt lat="43.60022" lon="3.82329">
        <ele>61.426877470356</ele>
        <time>2020-10-09T15:52:14.000Z</time>
      </trkpt>
      <trkpt lat="43.60025" lon="3.82329">
        <ele>61.525691699605</ele>
        <time>2020-10-09T15:52:15.000Z</time>
      </trkpt>
      <trkpt lat="43.60027" lon="3.82329">
        <ele>61.624505928854</ele>
        <time>2020-10-09T15:52:16.000Z</time>
      </trkpt>
      <trkpt lat="43.6003" lon="3.8233">
        <ele>61.723320158103</ele>
        <time>2020-10-09T15:52:17.000Z</time>
      </trkpt>
      <trkpt lat="43.60032" lon="3.8233">
        <ele>61.822134387352</ele>
        <time>2020-10-09T15:52:18.000Z</time>
      </trkpt>
      <trkpt lat="43.60035" lon="3.8233">
        <ele>61.920948616601</ele>
        <time>2020-10-09T15:52:19.000Z</time>
      </trkpt>
      <trkpt lat="43.60037" lon="3.8233">
        <ele>62.04048582996</ele>
        <time>2020-10-09T15:52:20.000Z</time>
      </trkpt>
      <trkpt lat="43.6004" lon="3.82331">
        <ele>62.242914979757</ele>
        <time>2020-10-09T15:52:21.000Z</time>
      </trkpt>
      <trkpt lat="43.60042" lon="3.82331">
        <ele>62.445344129555</ele>
        <time>2020-10-09T15:52:22.000Z</time>
      </trkpt>
      <trkpt lat="43.60045" lon="3.82332">
        <ele>62.647773279352</ele>
        <time>2020-10-09T15:52:23.000Z</time>
      </trkpt>
      <trkpt lat="43.60047" lon="3.82333">
        <ele>62.85020242915</ele>
        <time>2020-10-09T15:52:24.000Z</time>
      </trkpt>
      <trkpt lat="43.60049" lon="3.82333">
        <ele>63.052631578947</ele>
        <time>2020-10-09T15:52:25.000Z</time>
      </trkpt>
      <trkpt lat="43.60052" lon="3.82334">
        <ele>63.255060728745</ele>
        <time>2020-10-09T15:52:26.000Z</time>
      </trkpt>
      <trkpt lat="43.60054" lon="3.82334">
        <ele>63.457489878543</ele>
        <time>2020-10-09T15:52:27.000Z</time>
      </trkpt>
      <trkpt lat="43.60057" lon="3.82334">
        <ele>63.65991902834</ele>
        <time>2020-10-09T15:52:28.000Z</time>
      </trkpt>
      <trkpt lat="43.60059" lon="3.82335">
        <ele>63.862348178138</ele>
        <time>2020-10-09T15:52:29.000Z</time>
      </trkpt>
      <trkpt lat="43.60062" lon="3.82335">
        <ele>64.064</ele>
        <time>2020-10-09T15:52:30.000Z</time>
      </trkpt>
      <trkpt lat="43.60064" lon="3.82336">
        <ele>64.264</ele>
        <time>2020-10-09T15:52:31.000Z</time>
      </trkpt>
      <trkpt lat="43.60066" lon="3.82337">
        <ele>64.464</ele>
        <time>2020-10-09T15:52:32.000Z</time>
      </trkpt>
      <trkpt lat="43.60069" lon="3.82338">
        <ele>64.664</ele>
        <time>2020-10-09T15:52:33.000Z</time>
      </trkpt>
      <trkpt lat="43.60071" lon="3.82339">
        <ele>64.864</ele>
        <time>2020-10-09T15:52:34.000Z</time>
      </trkpt>
      <trkpt lat="43.60073" lon="3.8234">
        <ele>65.064</ele>
        <time>2020-10-09T15:52:35.000Z</time>
      </trkpt>
      <trkpt lat="43.60075" lon="3.82342">
        <ele>65.264</ele>
        <time>2020-10-09T15:52:36.000Z</time>
      </trkpt>
      <trkpt lat="43.60077" lon="3.82342">
        <ele>65.464</ele>
        <time>2020-10-09T15:52:37.000Z</time>
      </trkpt>
      <trkpt lat="43.6008" lon="3.82343">
        <ele>65.664</ele>
        <time>2020-10-09T15:52:38.000Z</time>
      </trkpt>
      <trkpt lat="43.60082" lon="3.82344">
        <ele>65.864</ele>
        <time>2020-10-09T15:52:39.000Z</time>
      </trkpt>
      <trkpt lat="43.60084" lon="3.82345">
        <ele>66.060206943306</ele>
        <time>2020-10-09T15:52:40.000Z</time>
      </trkpt>
      <trkpt lat="43.60087" lon="3.82346">
        <ele>66.248353641135</ele>
        <time>2020-10-09T15:52:41.000Z</time>
      </trkpt>
      <trkpt lat="43.60089" lon="3.82347">
        <ele>66.436500338965</ele>
        <time>2020-10-09T15:52:42.000Z</time>
      </trkpt>
      <trkpt lat="43.60091" lon="3.82348">
        <ele>66.624647036795</ele>
        <time>2020-10-09T15:52:43.000Z</time>
      </trkpt>
      <trkpt lat="43.60093" lon="3.82349">
        <ele>66.812793734625</ele>
        <time>2020-10-09T15:52:44.000Z</time>
      </trkpt>
      <trkpt lat="43.60095" lon="3.8235">
        <ele>67.000940432454</ele>
        <time>2020-10-09T15:52:45.000Z</time>
      </trkpt>
      <trkpt lat="43.60098" lon="3.82351">
        <ele>67.189087130284</ele>
        <time>2020-10-09T15:52:46.000Z</time>
      </trkpt>
      <trkpt lat="43.601" lon="3.82353">
        <ele>67.377233828114</ele>
        <time>2020-10-09T15:52:47.000Z</time>
      </trkpt>
      <trkpt lat="43.60102" lon="3.82354">
        <ele>67.565380525944</ele>
        <time>2020-10-09T15:52:48.000Z</time>
      </trkpt>
      <trkpt lat="43.60104" lon="3.82355">
        <ele>67.753527223774</ele>
        <time>2020-10-09T15:52:49.000Z</time>
      </trkpt>
      <trkpt lat="43.60106" lon="3.82356">
        <ele>67.941673921603</ele>
        <time>2020-10-09T15:52:50.000Z</time>
      </trkpt>
      <trkpt lat="43.60108" lon="3.82357">
        <ele>68.073638957913</ele>
        <time>2020-10-09T15:52:51.000Z</time>
      </trkpt>
      <trkpt lat="43.60111" lon="3.82357">
        <ele>68.180362580273</ele>
        <time>2020-10-09T15:52:52.000Z</time>
      </trkpt>
      <trkpt lat="43.60113" lon="3.82359">
        <ele>68.287086202634</ele>
        <time>2020-10-09T15:52:53.000Z</time>
      </trkpt>
      <trkpt lat="43.60115" lon="3.8236">
        <ele>68.393809824994</ele>
        <time>2020-10-09T15:52:54.000Z</time>
      </trkpt>
      <trkpt lat="43.60117" lon="3.82361">
        <ele>68.500533447354</ele>
        <time>2020-10-09T15:52:55.000Z</time>
      </trkpt>
      <trkpt lat="43.60119" lon="3.82362">
        <ele>68.607257069714</ele>
        <time>2020-10-09T15:52:56.000Z</time>
      </trkpt>
      <trkpt lat="43.60121" lon="3.82363">
        <ele>68.713980692075</ele>
        <time>2020-10-09T15:52:57.000Z</time>
      </trkpt>
      <trkpt lat="43.60124" lon="3.82364">
        <ele>68.820704314435</ele>
        <time>2020-10-09T15:52:58.000Z</time>
      </trkpt>
      <trkpt lat="43.60126" lon="3.82365">
        <ele>68.927427936795</ele>
        <time>2020-10-09T15:52:59.000Z</time>
      </trkpt>
      <trkpt lat="43.60128" lon="3.82367">
        <ele>69.064</ele>
        <time>2020-10-09T15:53:00.000Z</time>
      </trkpt>
      <trkpt lat="43.6013" lon="3.82368">
        <ele>69.264</ele>
        <time>2020-10-09T15:53:01.000Z</time>
      </trkpt>
      <trkpt lat="43.60132" lon="3.8237">
        <ele>69.464</ele>
        <time>2020-10-09T15:53:02.000Z</time>
      </trkpt>
      <trkpt lat="43.60135" lon="3.82371">
        <ele>69.664</ele>
        <time>2020-10-09T15:53:03.000Z</time>
      </trkpt>
      <trkpt lat="43.60137" lon="3.82373">
        <ele>69.864</ele>
        <time>2020-10-09T15:53:04.000Z</time>
      </trkpt>
      <trkpt lat="43.60139" lon="3.82374">
        <ele>70.064</ele>
        <time>2020-10-09T15:53:05.000Z</time>
      </trkpt>
      <trkpt lat="43.60142" lon="3.82375">
        <ele>70.264</ele>
        <time>2020-10-09T15:53:06.000Z</time>
      </trkpt>
      <trkpt lat="43.60145" lon="3.82376">
        <ele>70.464</ele>
        <time>2020-10-09T15:53:07.000Z</time>
      </trkpt>
      <trkpt lat="43.60148" lon="3.82378">
        <ele>70.664</ele>
        <time>2020-10-09T15:53:08.000Z</time>
      </trkpt>
      <trkpt lat="43.6015" lon="3.82379">
        <ele>70.864</ele>
        <time>2020-10-09T15:53:09.000Z</time>
      </trkpt>
      <trkpt lat="43.60154" lon="3.8238">
        <ele>71.032</ele>
        <time>2020-10-09T15:53:10.000Z</time>
      </trkpt>
      <trkpt lat="43.60157" lon="3.82381">
        <ele>71.132</ele>
        <time>2020-10-09T15:53:11.000Z</time>
      </trkpt>
      <trkpt lat="43.60159" lon="3.82383">
        <ele>71.232</ele>
        <time>2020-10-09T15:53:12.000Z</time>
      </trkpt>
      <trkpt lat="43.60163" lon="3.82385">
        <ele>71.332</ele>
        <time>2020-10-09T15:53:13.000Z</time>
      </trkpt>
      <trkpt lat="43.60166" lon="3.82386">
        <ele>71.432</ele>
        <time>2020-10-09T15:53:14.000Z</time>
      </trkpt>
      <trkpt lat="43.60169" lon="3.82388">
        <ele>71.532</ele>
        <time>2020-10-09T15:53:15.000Z</time>
      </trkpt>
      <trkpt lat="43.60172" lon="3.8239">
        <ele>71.632</ele>
        <time>2020-10-09T15:53:16.000Z</time>
      </trkpt>
      <trkpt lat="43.60176" lon="3.82391">
        <ele>71.732</ele>
        <time>2020-10-09T15:53:17.000Z</time>
      </trkpt>
      <trkpt lat="43.60179" lon="3.82393">
        <ele>71.832</ele>
        <time>2020-10-09T15:53:18.000Z</time>
      </trkpt>
      <trkpt lat="43.60182" lon="3.82395">
        <ele>71.932</ele>
        <time>2020-10-09T15:53:19.000Z</time>
      </trkpt>
      <trkpt lat="43.60186" lon="3.82396">
        <ele>71.969111969112</ele>
        <time>2020-10-09T15:53:20.000Z</time>
      </trkpt>
      <trkpt lat="43.60189" lon="3.82398">
        <ele>71.872586872587</ele>
        <time>2020-10-09T15:53:21.000Z</time>
      </trkpt>
      <trkpt lat="43.60193" lon="3.82399">
        <ele>71.776061776062</ele>
        <time>2020-10-09T15:53:22.000Z</time>
      </trkpt>
      <trkpt lat="43.60198" lon="3.82402">
        <ele>71.679536679537</ele>
        <time>2020-10-09T15:53:23.000Z</time>
      </trkpt>
      <trkpt lat="43.60202" lon="3.82404">
        <ele>71.583011583012</ele>
        <time>2020-10-09T15:53:24.000Z</time>
      </trkpt>
      <trkpt lat="43.60207" lon="3.82406">
        <ele>71.486486486486</ele>
        <time>2020-10-09T15:53:25.000Z</time>
      </trkpt>
      <trkpt lat="43.60212" lon="3.82409">
        <ele>71.389961389961</ele>
        <time>2020-10-09T15:53:26.000Z</time>
      </trkpt>
      <trkpt lat="43.60218" lon="3.82413">
        <ele>71.293436293436</ele>
        <time>2020-10-09T15:53:27.000Z</time>
      </trkpt>
      <trkpt lat="43.60224" lon="3.82416">
        <ele>71.196911196911</ele>
        <time>2020-10-09T15:53:28.000Z</time>
      </trkpt>
      <trkpt lat="43.60231" lon="3.82419">
        <ele>71.100386100386</ele>
        <time>2020-10-09T15:53:29.000Z</time>
      </trkpt>
      <trkpt lat="43.60238" lon="3.82423">
        <ele>71.003861003861</ele>
        <time>2020-10-09T15:53:30.000Z</time>
      </trkpt>
      <trkpt lat="43.60246" lon="3.82427">
        <ele>70.900414937759</ele>
        <time>2020-10-09T15:53:31.000Z</time>
      </trkpt>
      <trkpt lat="43.60254" lon="3.82431">
        <ele>70.796680497925</ele>
        <time>2020-10-09T15:53:32.000Z</time>
      </trkpt>
      <trkpt lat="43.60262" lon="3.82435">
        <ele>70.692946058091</ele>
        <time>2020-10-09T15:53:33.000Z</time>
      </trkpt>
      <trkpt lat="43.60269" lon="3.8244">
        <ele>70.589211618257</ele>
        <time>2020-10-09T15:53:34.000Z</time>
      </trkpt>
      <trkpt lat="43.60277" lon="3.82444">
        <ele>70.485477178423</ele>
        <time>2020-10-09T15:53:35.000Z</time>
      </trkpt>
      <trkpt lat="43.60284" lon="3.82448">
        <ele>70.381742738589</ele>
        <time>2020-10-09T15:53:36.000Z</time>
      </trkpt>
      <trkpt lat="43.6029" lon="3.82451">
        <ele>70.278008298755</ele>
        <time>2020-10-09T15:53:37.000Z</time>
      </trkpt>
      <trkpt lat="43.60296" lon="3.82453">
        <ele>70.174273858921</ele>
        <time>2020-10-09T15:53:38.000Z</time>
      </trkpt>
      <trkpt lat="43.60301" lon="3.82456">
        <ele>70.070539419087</ele>
        <time>2020-10-09T15:53:39.000Z</time>
      </trkpt>
      <trkpt lat="43.60305" lon="3.82458">
        <ele>70</ele>
        <time>2020-10-09T15:53:40.000Z</time>
      </trkpt>
      <trkpt lat="43.60308" lon="3.82461">
        <ele>70</ele>
        <time>2020-10-09T15:53:41.000Z</time>
      </trkpt>
      <trkpt lat="43.60309" lon="3.82463">
        <ele>70</ele>
        <time>2020-10-09T15:53:42.000Z</time>
      </trkpt>
      <trkpt lat="43.60309" lon="3.82466">
        <ele>70</ele>
        <time>2020-10-09T15:53:43.000Z</time>
      </trkpt>
      <trkpt lat="43.60308" lon="3.8247">
        <ele>70</ele>
        <time>2020-10-09T15:53:44.000Z</time>
      </trkpt>
      <trkpt lat="43.60308" lon="3.82473">
        <ele>70</ele>
        <time>2020-10-09T15:53:45.000Z</time>
      </trkpt>
      <trkpt lat="43.60306" lon="3.82478">
        <ele>70</ele>
        <time>2020-10-09T15:53:46.000Z</time>
      </trkpt>
      <trkpt lat="43.60305" lon="3.82482">
        <ele>70</ele>
        <time>2020-10-09T15:53:47.000Z</time>
      </trkpt>
      <trkpt lat="43.60303" lon="3.82487">
        <ele>70</ele>
        <time>2020-10-09T15:53:48.000Z</time>
      </trkpt>
      <trkpt lat="43.60302" lon="3.82491">
        <ele>70</ele>
        <time>2020-10-09T15:53:49.000Z</time>
      </trkpt>
      <trkpt lat="43.60301" lon="3.82496">
        <ele>70</ele>
        <time>2020-10-09T15:53:50.000Z</time>
      </trkpt>
      <trkpt lat="43.60301" lon="3.82501">
        <ele>70</ele>
        <time>2020-10-09T15:53:51.000Z</time>
      </trkpt>
      <trkpt lat="43.60302" lon="3.82506">
        <ele>70</ele>
        <time>2020-10-09T15:53:52.000Z</time>
      </trkpt>
      <trkpt lat="43.60302" lon="3.82511">
        <ele>70</ele>
        <time>2020-10-09T15:53:53.000Z</time>
      </trkpt>
      <trkpt lat="43.60302" lon="3.82516">
        <ele>70</ele>
        <time>2020-10-09T15:53:54.000Z</time>
      </trkpt>
      <trkpt lat="43.60302" lon="3.8252">
        <ele>70</ele>
        <time>2020-10-09T15:53:55.000Z</time>
      </trkpt>
      <trkpt lat="43.60301" lon="3.82525">
        <ele>70</ele>
        <time>2020-10-09T15:53:56.000Z</time>
      </trkpt>
      <trkpt lat="43.60301" lon="3.82528">
        <ele>70</ele>
        <time>2020-10-09T15:53:57.000Z</time>
      </trkpt>
      <trkpt lat="43.603" lon="3.82532">
        <ele>70</ele>
        <time>2020-10-09T15:53:58.000Z</time>
      </trkpt>
      <trkpt lat="43.603" lon="3.82535">
        <ele>70</ele>
        <time>2020-10-09T15:53:59.000Z</time>
      </trkpt>
      <trkpt lat="43.60299" lon="3.82539">
        <ele>69.969939257754</ele>
        <time>2020-10-09T15:54:00.000Z</time>
      </trkpt>
      <trkpt lat="43.60299" lon="3.82543">
        <ele>69.86973892121</ele>
        <time>2020-10-09T15:54:01.000Z</time>
      </trkpt>
      <trkpt lat="43.60298" lon="3.82548">
        <ele>69.769538584665</ele>
        <time>2020-10-09T15:54:02.000Z</time>
      </trkpt>
      <trkpt lat="43.60297" lon="3.82553">
        <ele>69.66933824812</ele>
        <time>2020-10-09T15:54:03.000Z</time>
      </trkpt>
      <trkpt lat="43.60297" lon="3.82558">
        <ele>69.569137911575</ele>
        <time>2020-10-09T15:54:04.000Z</time>
      </trkpt>
      <trkpt lat="43.60297" lon="3.82562">
        <ele>69.46893757503</ele>
        <time>2020-10-09T15:54:05.000Z</time>
      </trkpt>
      <trkpt lat="43.60296" lon="3.82567">
        <ele>69.368737238485</ele>
        <time>2020-10-09T15:54:06.000Z</time>
      </trkpt>
      <trkpt lat="43.60296" lon="3.82572">
        <ele>69.26853690194</ele>
        <time>2020-10-09T15:54:07.000Z</time>
      </trkpt>
      <trkpt lat="43.60296" lon="3.82576">
        <ele>69.168336565395</ele>
        <time>2020-10-09T15:54:08.000Z</time>
      </trkpt>
      <trkpt lat="43.60296" lon="3.8258">
        <ele>69.068136228851</ele>
        <time>2020-10-09T15:54:09.000Z</time>
      </trkpt>
      <trkpt lat="43.60296" lon="3.82584">
        <ele>69</ele>
        <time>2020-10-09T15:54:10.000Z</time>
      </trkpt>
      <trkpt lat="43.60297" lon="3.82588">
        <ele>69</ele>
        <time>2020-10-09T15:54:11.000Z</time>
      </trkpt>
      <trkpt lat="43.60298" lon="3.8259">
        <ele>69</ele>
        <time>2020-10-09T15:54:12.000Z</time>
      </trkpt>
      <trkpt lat="43.60299" lon="3.82592">
        <ele>69</ele>
        <time>2020-10-09T15:54:13.000Z</time>
      </trkpt>
      <trkpt lat="43.60301" lon="3.82593">
        <ele>69</ele>
        <time>2020-10-09T15:54:14.000Z</time>
      </trkpt>
      <trkpt lat="43.60304" lon="3.82595">
        <ele>69</ele>
        <time>2020-10-09T15:54:15.000Z</time>
      </trkpt>
      <trkpt lat="43.60306" lon="3.82596">
        <ele>69</ele>
        <time>2020-10-09T15:54:16.000Z</time>
      </trkpt>
      <trkpt lat="43.60309" lon="3.82597">
        <ele>69</ele>
        <time>2020-10-09T15:54:17.000Z</time>
      </trkpt>
      <trkpt lat="43.60312" lon="3.82597">
        <ele>69</ele>
        <time>2020-10-09T15:54:18.000Z</time>
      </trkpt>
      <trkpt lat="43.60314" lon="3.82598">
        <ele>69</ele>
        <time>2020-10-09T15:54:19.000Z</time>
      </trkpt>
      <trkpt lat="43.60317" lon="3.82598">
        <ele>69</ele>
        <time>2020-10-09T15:54:20.000Z</time>
      </trkpt>
      <trkpt lat="43.60321" lon="3.82599">
        <ele>69</ele>
        <time>2020-10-09T15:54:21.000Z</time>
      </trkpt>
      <trkpt lat="43.60324" lon="3.826">
        <ele>69</ele>
        <time>2020-10-09T15:54:22.000Z</time>
      </trkpt>
      <trkpt lat="43.60328" lon="3.82601">
        <ele>69</ele>
        <time>2020-10-09T15:54:23.000Z</time>
      </trkpt>
      <trkpt lat="43.60332" lon="3.82602">
        <ele>69</ele>
        <time>2020-10-09T15:54:24.000Z</time>
      </trkpt>
      <trkpt lat="43.60335" lon="3.82602">
        <ele>69</ele>
        <time>2020-10-09T15:54:25.000Z</time>
      </trkpt>
      <trkpt lat="43.60339" lon="3.82603">
        <ele>69</ele>
        <time>2020-10-09T15:54:26.000Z</time>
      </trkpt>
      <trkpt lat="43.60342" lon="3.82603">
        <ele>69</ele>
        <time>2020-10-09T15:54:27.000Z</time>
      </trkpt>
      <trkpt lat="43.60346" lon="3.82604">
        <ele>69</ele>
        <time>2020-10-09T15:54:28.000Z</time>
      </trkpt>
      <trkpt lat="43.60349" lon="3.82604">
        <ele>69</ele>
        <time>2020-10-09T15:54:29.000Z</time>
      </trkpt>
      <trkpt lat="43.60353" lon="3.82605">
        <ele>69</ele>
        <time>2020-10-09T15:54:30.000Z</time>
      </trkpt>
      <trkpt lat="43.60356" lon="3.82605">
        <ele>69</ele>
        <time>2020-10-09T15:54:31.000Z</time>
      </trkpt>
      <trkpt lat="43.6036" lon="3.82605">
        <ele>69</ele>
        <time>2020-10-09T15:54:32.000Z</time>
      </trkpt>
      <trkpt lat="43.60363" lon="3.82606">
        <ele>69</ele>
        <time>2020-10-09T15:54:33.000Z</time>
      </trkpt>
      <trkpt lat="43.60366" lon="3.82606">
        <ele>69</ele>
        <time>2020-10-09T15:54:34.000Z</time>
      </trkpt>
      <trkpt lat="43.6037" lon="3.82607">
        <ele>69</ele>
        <time>2020-10-09T15:54:35.000Z</time>
      </trkpt>
      <trkpt lat="43.60373" lon="3.82608">
        <ele>69</ele>
        <time>2020-10-09T15:54:36.000Z</time>
      </trkpt>
      <trkpt lat="43.60377" lon="3.82609">
        <ele>69</ele>
        <time>2020-10-09T15:54:37.000Z</time>
      </trkpt>
      <trkpt lat="43.6038" lon="3.8261">
        <ele>69</ele>
        <time>2020-10-09T15:54:38.000Z</time>
      </trkpt>
      <trkpt lat="43.60383" lon="3.82611">
        <ele>69</ele>
        <time>2020-10-09T15:54:39.000Z</time>
      </trkpt>
      <trkpt lat="43.60386" lon="3.82613">
        <ele>68.968</ele>
        <time>2020-10-09T15:54:40.000Z</time>
      </trkpt>
      <trkpt lat="43.60389" lon="3.82614">
        <ele>68.868</ele>
        <time>2020-10-09T15:54:41.000Z</time>
      </trkpt>
      <trkpt lat="43.60392" lon="3.82616">
        <ele>68.768</ele>
        <time>2020-10-09T15:54:42.000Z</time>
      </trkpt>
      <trkpt lat="43.60394" lon="3.82617">
        <ele>68.668</ele>
        <time>2020-10-09T15:54:43.000Z</time>
      </trkpt>
      <trkpt lat="43.60397" lon="3.82618">
        <ele>68.568</ele>
        <time>2020-10-09T15:54:44.000Z</time>
      </trkpt>
      <trkpt lat="43.60399" lon="3.82617">
        <ele>68.468</ele>
        <time>2020-10-09T15:54:45.000Z</time>
      </trkpt>
      <trkpt lat="43.60401" lon="3.82617">
        <ele>68.368</ele>
        <time>2020-10-09T15:54:46.000Z</time>
      </trkpt>
      <trkpt lat="43.60404" lon="3.82617">
        <ele>68.268</ele>
        <time>2020-10-09T15:54:47.000Z</time>
      </trkpt>
      <trkpt lat="43.60407" lon="3.82617">
        <ele>68.168</ele>
        <time>2020-10-09T15:54:48.000Z</time>
      </trkpt>
      <trkpt lat="43.6041" lon="3.82618">
        <ele>68.068</ele>
        <time>2020-10-09T15:54:49.000Z</time>
      </trkpt>
      <trkpt lat="43.60412" lon="3.82619">
        <ele>68.032</ele>
        <time>2020-10-09T15:54:50.000Z</time>
      </trkpt>
      <trkpt lat="43.60415" lon="3.8262">
        <ele>68.132</ele>
        <time>2020-10-09T15:54:51.000Z</time>
      </trkpt>
      <trkpt lat="43.60417" lon="3.82621">
        <ele>68.232</ele>
        <time>2020-10-09T15:54:52.000Z</time>
      </trkpt>
      <trkpt lat="43.60419" lon="3.82622">
        <ele>68.332</ele>
        <time>2020-10-09T15:54:53.000Z</time>
      </trkpt>
      <trkpt lat="43.60421" lon="3.82622">
        <ele>68.432</ele>
        <time>2020-10-09T15:54:54.000Z</time>
      </trkpt>
      <trkpt lat="43.60424" lon="3.82623">
        <ele>68.632</ele>
        <time>2020-10-09T15:54:56.000Z</time>
      </trkpt>
      <trkpt lat="43.60426" lon="3.82623">
        <ele>68.732</ele>
        <time>2020-10-09T15:54:57.000Z</time>
      </trkpt>
      <trkpt lat="43.60428" lon="3.82623">
        <ele>68.832</ele>
        <time>2020-10-09T15:54:58.000Z</time>
      </trkpt>
      <trkpt lat="43.6043" lon="3.82623">
        <ele>68.932</ele>
        <time>2020-10-09T15:54:59.000Z</time>
      </trkpt>
      <trkpt lat="43.60432" lon="3.82623">
        <ele>69.031311134991</ele>
        <time>2020-10-09T15:55:00.000Z</time>
      </trkpt>
      <trkpt lat="43.60434" lon="3.82623">
        <ele>69.129158431838</ele>
        <time>2020-10-09T15:55:01.000Z</time>
      </trkpt>
      <trkpt lat="43.60436" lon="3.82622">
        <ele>69.227005728685</ele>
        <time>2020-10-09T15:55:02.000Z</time>
      </trkpt>
      <trkpt lat="43.60438" lon="3.82623">
        <ele>69.324853025532</ele>
        <time>2020-10-09T15:55:03.000Z</time>
      </trkpt>
      <trkpt lat="43.6044" lon="3.82624">
        <ele>69.422700322379</ele>
        <time>2020-10-09T15:55:04.000Z</time>
      </trkpt>
      <trkpt lat="43.60441" lon="3.82625">
        <ele>69.520547619227</ele>
        <time>2020-10-09T15:55:05.000Z</time>
      </trkpt>
      <trkpt lat="43.60442" lon="3.82628">
        <ele>69.618394916074</ele>
        <time>2020-10-09T15:55:06.000Z</time>
      </trkpt>
      <trkpt lat="43.60442" lon="3.82631">
        <ele>69.716242212921</ele>
        <time>2020-10-09T15:55:07.000Z</time>
      </trkpt>
      <trkpt lat="43.60442" lon="3.82635">
        <ele>69.814089509768</ele>
        <time>2020-10-09T15:55:08.000Z</time>
      </trkpt>
      <trkpt lat="43.60442" lon="3.82638">
        <ele>69.911936806615</ele>
        <time>2020-10-09T15:55:09.000Z</time>
      </trkpt>
      <trkpt lat="43.60442" lon="3.82643">
        <ele>70.112473856834</ele>
        <time>2020-10-09T15:55:11.000Z</time>
      </trkpt>
      <trkpt lat="43.60443" lon="3.82646">
        <ele>70.316972968162</ele>
        <time>2020-10-09T15:55:13.000Z</time>
      </trkpt>
      <trkpt lat="43.60444" lon="3.8265">
        <ele>70.521472079491</ele>
        <time>2020-10-09T15:55:15.000Z</time>
      </trkpt>
      <trkpt lat="43.60446" lon="3.82654">
        <ele>70.72597119082</ele>
        <time>2020-10-09T15:55:17.000Z</time>
      </trkpt>
      <trkpt lat="43.60446" lon="3.82658">
        <ele>70.930470302148</ele>
        <time>2020-10-09T15:55:19.000Z</time>
      </trkpt>
      <trkpt lat="43.60447" lon="3.82662">
        <ele>71</ele>
        <time>2020-10-09T15:55:21.000Z</time>
      </trkpt>
      <trkpt lat="43.60447" lon="3.82663">
        <ele>71</ele>
        <time>2020-10-09T15:55:27.000Z</time>
      </trkpt>
      <trkpt lat="43.60452" lon="3.8267">
        <ele>72.987034035656</ele>
        <time>2020-10-09T15:55:52.000Z</time>
      </trkpt>
      <trkpt lat="43.60453" lon="3.82671">
        <ele>73</ele>
        <time>2020-10-09T15:55:55.000Z</time>
      </trkpt>
      <trkpt lat="43.60452" lon="3.82681">
        <ele>73</ele>
        <time>2020-10-09T15:56:04.000Z</time>
      </trkpt>
      <trkpt lat="43.60451" lon="3.82684">
        <ele>73</ele>
        <time>2020-10-09T15:56:05.000Z</time>
      </trkpt>
      <trkpt lat="43.6045" lon="3.82688">
        <ele>73</ele>
        <time>2020-10-09T15:56:06.000Z</time>
      </trkpt>
      <trkpt lat="43.60449" lon="3.82692">
        <ele>73</ele>
        <time>2020-10-09T15:56:07.000Z</time>
      </trkpt>
      <trkpt lat="43.60448" lon="3.82696">
        <ele>73</ele>
        <time>2020-10-09T15:56:08.000Z</time>
      </trkpt>
      <trkpt lat="43.60447" lon="3.82701">
        <ele>73</ele>
        <time>2020-10-09T15:56:09.000Z</time>
      </trkpt>
      <trkpt lat="43.60445" lon="3.82705">
        <ele>73</ele>
        <time>2020-10-09T15:56:10.000Z</time>
      </trkpt>
      <trkpt lat="43.60444" lon="3.8271">
        <ele>73</ele>
        <time>2020-10-09T15:56:11.000Z</time>
      </trkpt>
      <trkpt lat="43.60443" lon="3.82715">
        <ele>73</ele>
        <time>2020-10-09T15:56:12.000Z</time>
      </trkpt>
      <trkpt lat="43.60441" lon="3.82719">
        <ele>73</ele>
        <time>2020-10-09T15:56:13.000Z</time>
      </trkpt>
      <trkpt lat="43.60439" lon="3.82724">
        <ele>72.969436494537</ele>
        <time>2020-10-09T15:56:14.000Z</time>
      </trkpt>
      <trkpt lat="43.60438" lon="3.82729">
        <ele>72.873925539965</ele>
        <time>2020-10-09T15:56:15.000Z</time>
      </trkpt>
      <trkpt lat="43.60436" lon="3.82734">
        <ele>72.778414585394</ele>
        <time>2020-10-09T15:56:16.000Z</time>
      </trkpt>
      <trkpt lat="43.60435" lon="3.82739">
        <ele>72.682903630822</ele>
        <time>2020-10-09T15:56:17.000Z</time>
      </trkpt>
      <trkpt lat="43.60434" lon="3.82743">
        <ele>72.587392676251</ele>
        <time>2020-10-09T15:56:18.000Z</time>
      </trkpt>
      <trkpt lat="43.60433" lon="3.82748">
        <ele>72.491881721679</ele>
        <time>2020-10-09T15:56:19.000Z</time>
      </trkpt>
      <trkpt lat="43.60432" lon="3.82752">
        <ele>72.396370767107</ele>
        <time>2020-10-09T15:56:20.000Z</time>
      </trkpt>
      <trkpt lat="43.6043" lon="3.82757">
        <ele>72.300859812536</ele>
        <time>2020-10-09T15:56:21.000Z</time>
      </trkpt>
      <trkpt lat="43.60429" lon="3.82761">
        <ele>72.205348857964</ele>
        <time>2020-10-09T15:56:22.000Z</time>
      </trkpt>
      <trkpt lat="43.60427" lon="3.82766">
        <ele>72.109837903392</ele>
        <time>2020-10-09T15:56:23.000Z</time>
      </trkpt>
      <trkpt lat="43.60426" lon="3.82771">
        <ele>72.014326948821</ele>
        <time>2020-10-09T15:56:24.000Z</time>
      </trkpt>
      <trkpt lat="43.60425" lon="3.82775">
        <ele>72</ele>
        <time>2020-10-09T15:56:25.000Z</time>
      </trkpt>
      <trkpt lat="43.60424" lon="3.8278">
        <ele>72</ele>
        <time>2020-10-09T15:56:26.000Z</time>
      </trkpt>
      <trkpt lat="43.60423" lon="3.82785">
        <ele>72</ele>
        <time>2020-10-09T15:56:27.000Z</time>
      </trkpt>
      <trkpt lat="43.60422" lon="3.8279">
        <ele>72</ele>
        <time>2020-10-09T15:56:28.000Z</time>
      </trkpt>
      <trkpt lat="43.60421" lon="3.82795">
        <ele>72</ele>
        <time>2020-10-09T15:56:29.000Z</time>
      </trkpt>
      <trkpt lat="43.6042" lon="3.82799">
        <ele>72</ele>
        <time>2020-10-09T15:56:30.000Z</time>
      </trkpt>
      <trkpt lat="43.60419" lon="3.82803">
        <ele>72</ele>
        <time>2020-10-09T15:56:31.000Z</time>
      </trkpt>
      <trkpt lat="43.60418" lon="3.82807">
        <ele>72</ele>
        <time>2020-10-09T15:56:32.000Z</time>
      </trkpt>
      <trkpt lat="43.60417" lon="3.8281">
        <ele>72</ele>
        <time>2020-10-09T15:56:33.000Z</time>
      </trkpt>
      <trkpt lat="43.60416" lon="3.82813">
        <ele>71.99900032</ele>
        <time>2020-10-09T15:56:34.000Z</time>
      </trkpt>
      <trkpt lat="43.60415" lon="3.82817">
        <ele>71.89900032</ele>
        <time>2020-10-09T15:56:35.000Z</time>
      </trkpt>
      <trkpt lat="43.60414" lon="3.82821">
        <ele>71.79900032</ele>
        <time>2020-10-09T15:56:36.000Z</time>
      </trkpt>
      <trkpt lat="43.60414" lon="3.82825">
        <ele>71.69900032</ele>
        <time>2020-10-09T15:56:37.000Z</time>
      </trkpt>
      <trkpt lat="43.60414" lon="3.82829">
        <ele>71.59900032</ele>
        <time>2020-10-09T15:56:38.000Z</time>
      </trkpt>
      <trkpt lat="43.60414" lon="3.82832">
        <ele>71.49900032</ele>
        <time>2020-10-09T15:56:39.000Z</time>
      </trkpt>
      <trkpt lat="43.60414" lon="3.82836">
        <ele>71.39900032</ele>
        <time>2020-10-09T15:56:40.000Z</time>
      </trkpt>
      <trkpt lat="43.60415" lon="3.82839">
        <ele>71.29900032</ele>
        <time>2020-10-09T15:56:41.000Z</time>
      </trkpt>
      <trkpt lat="43.60415" lon="3.82841">
        <ele>71.19900032</ele>
        <time>2020-10-09T15:56:42.000Z</time>
      </trkpt>
      <trkpt lat="43.60416" lon="3.82844">
        <ele>71.09900032</ele>
        <time>2020-10-09T15:56:43.000Z</time>
      </trkpt>
      <trkpt lat="43.60417" lon="3.82847">
        <ele>71</ele>
        <time>2020-10-09T15:56:44.000Z</time>
      </trkpt>
      <trkpt lat="43.60418" lon="3.82849">
        <ele>71</ele>
        <time>2020-10-09T15:56:45.000Z</time>
      </trkpt>
      <trkpt lat="43.60421" lon="3.82852">
        <ele>71</ele>
        <time>2020-10-09T15:56:47.000Z</time>
      </trkpt>
      <trkpt lat="43.60422" lon="3.82855">
        <ele>71</ele>
        <time>2020-10-09T15:56:48.000Z</time>
      </trkpt>
      <trkpt lat="43.60423" lon="3.82857">
        <ele>71</ele>
        <time>2020-10-09T15:56:49.000Z</time>
      </trkpt>
      <trkpt lat="43.60424" lon="3.82858">
        <ele>71</ele>
        <time>2020-10-09T15:56:55.000Z</time>
      </trkpt>
      <trkpt lat="43.6043" lon="3.82852">
        <ele>71</ele>
        <time>2020-10-09T15:57:04.000Z</time>
      </trkpt>
      <trkpt lat="43.60431" lon="3.82849">
        <ele>71</ele>
        <time>2020-10-09T15:57:05.000Z</time>
      </trkpt>
      <trkpt lat="43.60433" lon="3.82847">
        <ele>71</ele>
        <time>2020-10-09T15:57:06.000Z</time>
      </trkpt>
      <trkpt lat="43.60435" lon="3.82844">
        <ele>71</ele>
        <time>2020-10-09T15:57:07.000Z</time>
      </trkpt>
      <trkpt lat="43.60436" lon="3.8284">
        <ele>71</ele>
        <time>2020-10-09T15:57:08.000Z</time>
      </trkpt>
      <trkpt lat="43.60437" lon="3.82837">
        <ele>71</ele>
        <time>2020-10-09T15:57:09.000Z</time>
      </trkpt>
      <trkpt lat="43.60439" lon="3.82834">
        <ele>71</ele>
        <time>2020-10-09T15:57:10.000Z</time>
      </trkpt>
      <trkpt lat="43.6044" lon="3.82831">
        <ele>71</ele>
        <time>2020-10-09T15:57:11.000Z</time>
      </trkpt>
      <trkpt lat="43.60441" lon="3.82827">
        <ele>71</ele>
        <time>2020-10-09T15:57:12.000Z</time>
      </trkpt>
      <trkpt lat="43.60443" lon="3.82823">
        <ele>71</ele>
        <time>2020-10-09T15:57:13.000Z</time>
      </trkpt>
      <trkpt lat="43.60444" lon="3.8282">
        <ele>71.029211909106</ele>
        <time>2020-10-09T15:57:14.000Z</time>
      </trkpt>
      <trkpt lat="43.60446" lon="3.82817">
        <ele>71.126582862214</ele>
        <time>2020-10-09T15:57:15.000Z</time>
      </trkpt>
      <trkpt lat="43.60447" lon="3.82813">
        <ele>71.223953815321</ele>
        <time>2020-10-09T15:57:16.000Z</time>
      </trkpt>
      <trkpt lat="43.60449" lon="3.8281">
        <ele>71.321324768428</ele>
        <time>2020-10-09T15:57:17.000Z</time>
      </trkpt>
      <trkpt lat="43.60451" lon="3.82807">
        <ele>71.418695721536</ele>
        <time>2020-10-09T15:57:18.000Z</time>
      </trkpt>
      <trkpt lat="43.60453" lon="3.82804">
        <ele>71.516066674643</ele>
        <time>2020-10-09T15:57:19.000Z</time>
      </trkpt>
      <trkpt lat="43.60455" lon="3.82801">
        <ele>71.613437627751</ele>
        <time>2020-10-09T15:57:20.000Z</time>
      </trkpt>
      <trkpt lat="43.60456" lon="3.82798">
        <ele>71.710808580858</ele>
        <time>2020-10-09T15:57:21.000Z</time>
      </trkpt>
      <trkpt lat="43.60458" lon="3.82794">
        <ele>71.808179533966</ele>
        <time>2020-10-09T15:57:22.000Z</time>
      </trkpt>
      <trkpt lat="43.6046" lon="3.82792">
        <ele>71.905550487073</ele>
        <time>2020-10-09T15:57:23.000Z</time>
      </trkpt>
      <trkpt lat="43.60462" lon="3.82789">
        <ele>72</ele>
        <time>2020-10-09T15:57:24.000Z</time>
      </trkpt>
      <trkpt lat="43.60464" lon="3.82786">
        <ele>72</ele>
        <time>2020-10-09T15:57:25.000Z</time>
      </trkpt>
      <trkpt lat="43.60466" lon="3.82783">
        <ele>72</ele>
        <time>2020-10-09T15:57:26.000Z</time>
      </trkpt>
      <trkpt lat="43.60468" lon="3.8278">
        <ele>72</ele>
        <time>2020-10-09T15:57:27.000Z</time>
      </trkpt>
      <trkpt lat="43.6047" lon="3.82778">
        <ele>72</ele>
        <time>2020-10-09T15:57:28.000Z</time>
      </trkpt>
      <trkpt lat="43.60472" lon="3.82775">
        <ele>72</ele>
        <time>2020-10-09T15:57:29.000Z</time>
      </trkpt>
      <trkpt lat="43.60475" lon="3.82774">
        <ele>72</ele>
        <time>2020-10-09T15:57:30.000Z</time>
      </trkpt>
      <trkpt lat="43.60478" lon="3.82772">
        <ele>72</ele>
        <time>2020-10-09T15:57:31.000Z</time>
      </trkpt>
      <trkpt lat="43.6048" lon="3.82771">
        <ele>72</ele>
        <time>2020-10-09T15:57:32.000Z</time>
      </trkpt>
      <trkpt lat="43.60484" lon="3.8277">
        <ele>72</ele>
        <time>2020-10-09T15:57:33.000Z</time>
      </trkpt>
      <trkpt lat="43.60487" lon="3.82769">
        <ele>72</ele>
        <time>2020-10-09T15:57:34.000Z</time>
      </trkpt>
      <trkpt lat="43.6049" lon="3.82769">
        <ele>72</ele>
        <time>2020-10-09T15:57:35.000Z</time>
      </trkpt>
      <trkpt lat="43.60493" lon="3.82769">
        <ele>72</ele>
        <time>2020-10-09T15:57:36.000Z</time>
      </trkpt>
      <trkpt lat="43.60496" lon="3.8277">
        <ele>72</ele>
        <time>2020-10-09T15:57:37.000Z</time>
      </trkpt>
      <trkpt lat="43.60499" lon="3.82771">
        <ele>72</ele>
        <time>2020-10-09T15:57:38.000Z</time>
      </trkpt>
      <trkpt lat="43.60502" lon="3.82772">
        <ele>72</ele>
        <time>2020-10-09T15:57:39.000Z</time>
      </trkpt>
      <trkpt lat="43.60505" lon="3.82773">
        <ele>72</ele>
        <time>2020-10-09T15:57:40.000Z</time>
      </trkpt>
      <trkpt lat="43.60507" lon="3.82775">
        <ele>72</ele>
        <time>2020-10-09T15:57:41.000Z</time>
      </trkpt>
      <trkpt lat="43.60509" lon="3.82776">
        <ele>72</ele>
        <time>2020-10-09T15:57:42.000Z</time>
      </trkpt>
      <trkpt lat="43.60512" lon="3.82778">
        <ele>72</ele>
        <time>2020-10-09T15:57:43.000Z</time>
      </trkpt>
      <trkpt lat="43.60514" lon="3.82779">
        <ele>71.968</ele>
        <time>2020-10-09T15:57:44.000Z</time>
      </trkpt>
      <trkpt lat="43.60517" lon="3.82779">
        <ele>71.868</ele>
        <time>2020-10-09T15:57:45.000Z</time>
      </trkpt>
      <trkpt lat="43.60519" lon="3.82781">
        <ele>71.768</ele>
        <time>2020-10-09T15:57:46.000Z</time>
      </trkpt>
      <trkpt lat="43.60521" lon="3.82783">
        <ele>71.668</ele>
        <time>2020-10-09T15:57:47.000Z</time>
      </trkpt>
      <trkpt lat="43.60524" lon="3.82786">
        <ele>71.568</ele>
        <time>2020-10-09T15:57:48.000Z</time>
      </trkpt>
      <trkpt lat="43.60525" lon="3.8279">
        <ele>71.468</ele>
        <time>2020-10-09T15:57:49.000Z</time>
      </trkpt>
      <trkpt lat="43.60527" lon="3.82793">
        <ele>71.368</ele>
        <time>2020-10-09T15:57:50.000Z</time>
      </trkpt>
      <trkpt lat="43.60529" lon="3.82796">
        <ele>71.268</ele>
        <time>2020-10-09T15:57:51.000Z</time>
      </trkpt>
      <trkpt lat="43.60533" lon="3.82798">
        <ele>71.168</ele>
        <time>2020-10-09T15:57:52.000Z</time>
      </trkpt>
      <trkpt lat="43.60537" lon="3.828">
        <ele>71.068</ele>
        <time>2020-10-09T15:57:53.000Z</time>
      </trkpt>
      <trkpt lat="43.60541" lon="3.82802">
        <ele>70.968</ele>
        <time>2020-10-09T15:57:54.000Z</time>
      </trkpt>
      <trkpt lat="43.60545" lon="3.82804">
        <ele>70.868</ele>
        <time>2020-10-09T15:57:55.000Z</time>
      </trkpt>
      <trkpt lat="43.60548" lon="3.82807">
        <ele>70.768</ele>
        <time>2020-10-09T15:57:56.000Z</time>
      </trkpt>
      <trkpt lat="43.60552" lon="3.82809">
        <ele>70.668</ele>
        <time>2020-10-09T15:57:57.000Z</time>
      </trkpt>
      <trkpt lat="43.60555" lon="3.82811">
        <ele>70.568</ele>
        <time>2020-10-09T15:57:58.000Z</time>
      </trkpt>
      <trkpt lat="43.60558" lon="3.82812">
        <ele>70.468</ele>
        <time>2020-10-09T15:57:59.000Z</time>
      </trkpt>
      <trkpt lat="43.60562" lon="3.82814">
        <ele>70.368</ele>
        <time>2020-10-09T15:58:00.000Z</time>
      </trkpt>
      <trkpt lat="43.60565" lon="3.82815">
        <ele>70.268</ele>
        <time>2020-10-09T15:58:01.000Z</time>
      </trkpt>
      <trkpt lat="43.60569" lon="3.82816">
        <ele>70.168</ele>
        <time>2020-10-09T15:58:02.000Z</time>
      </trkpt>
      <trkpt lat="43.60572" lon="3.82818">
        <ele>70.068</ele>
        <time>2020-10-09T15:58:03.000Z</time>
      </trkpt>
      <trkpt lat="43.60576" lon="3.82821">
        <ele>69.968</ele>
        <time>2020-10-09T15:58:04.000Z</time>
      </trkpt>
      <trkpt lat="43.60578" lon="3.82823">
        <ele>69.868</ele>
        <time>2020-10-09T15:58:05.000Z</time>
      </trkpt>
      <trkpt lat="43.6058" lon="3.82824">
        <ele>69.768</ele>
        <time>2020-10-09T15:58:06.000Z</time>
      </trkpt>
      <trkpt lat="43.60583" lon="3.82826">
        <ele>69.568</ele>
        <time>2020-10-09T15:58:08.000Z</time>
      </trkpt>
      <trkpt lat="43.60585" lon="3.82828">
        <ele>69.368</ele>
        <time>2020-10-09T15:58:10.000Z</time>
      </trkpt>
      <trkpt lat="43.60588" lon="3.8283">
        <ele>69.168</ele>
        <time>2020-10-09T15:58:12.000Z</time>
      </trkpt>
      <trkpt lat="43.6059" lon="3.82832">
        <ele>68.936</ele>
        <time>2020-10-09T15:58:14.000Z</time>
      </trkpt>
      <trkpt lat="43.60594" lon="3.8283">
        <ele>68.536</ele>
        <time>2020-10-09T15:58:16.000Z</time>
      </trkpt>
      <trkpt lat="43.60596" lon="3.82827">
        <ele>68.336</ele>
        <time>2020-10-09T15:58:17.000Z</time>
      </trkpt>
      <trkpt lat="43.60597" lon="3.82823">
        <ele>68.136</ele>
        <time>2020-10-09T15:58:18.000Z</time>
      </trkpt>
      <trkpt lat="43.60598" lon="3.8282">
        <ele>67.936</ele>
        <time>2020-10-09T15:58:19.000Z</time>
      </trkpt>
      <trkpt lat="43.60599" lon="3.82816">
        <ele>67.736</ele>
        <time>2020-10-09T15:58:20.000Z</time>
      </trkpt>
      <trkpt lat="43.60601" lon="3.82812">
        <ele>67.536</ele>
        <time>2020-10-09T15:58:21.000Z</time>
      </trkpt>
      <trkpt lat="43.60602" lon="3.82809">
        <ele>67.336</ele>
        <time>2020-10-09T15:58:22.000Z</time>
      </trkpt>
      <trkpt lat="43.60603" lon="3.82805">
        <ele>67.136</ele>
        <time>2020-10-09T15:58:23.000Z</time>
      </trkpt>
      <trkpt lat="43.60604" lon="3.82801">
        <ele>67</ele>
        <time>2020-10-09T15:58:24.000Z</time>
      </trkpt>
      <trkpt lat="43.60605" lon="3.82797">
        <ele>67</ele>
        <time>2020-10-09T15:58:25.000Z</time>
      </trkpt>
      <trkpt lat="43.60606" lon="3.82794">
        <ele>67</ele>
        <time>2020-10-09T15:58:26.000Z</time>
      </trkpt>
      <trkpt lat="43.60607" lon="3.8279">
        <ele>67</ele>
        <time>2020-10-09T15:58:27.000Z</time>
      </trkpt>
      <trkpt lat="43.60608" lon="3.82786">
        <ele>67</ele>
        <time>2020-10-09T15:58:28.000Z</time>
      </trkpt>
      <trkpt lat="43.60609" lon="3.82783">
        <ele>67</ele>
        <time>2020-10-09T15:58:29.000Z</time>
      </trkpt>
      <trkpt lat="43.60609" lon="3.82779">
        <ele>67</ele>
        <time>2020-10-09T15:58:30.000Z</time>
      </trkpt>
      <trkpt lat="43.6061" lon="3.82775">
        <ele>67</ele>
        <time>2020-10-09T15:58:31.000Z</time>
      </trkpt>
      <trkpt lat="43.60611" lon="3.82771">
        <ele>67</ele>
        <time>2020-10-09T15:58:32.000Z</time>
      </trkpt>
      <trkpt lat="43.60613" lon="3.82767">
        <ele>67</ele>
        <time>2020-10-09T15:58:33.000Z</time>
      </trkpt>
      <trkpt lat="43.60614" lon="3.82763">
        <ele>67</ele>
        <time>2020-10-09T15:58:34.000Z</time>
      </trkpt>
      <trkpt lat="43.60615" lon="3.82759">
        <ele>67</ele>
        <time>2020-10-09T15:58:35.000Z</time>
      </trkpt>
      <trkpt lat="43.60616" lon="3.82756">
        <ele>67</ele>
        <time>2020-10-09T15:58:36.000Z</time>
      </trkpt>
      <trkpt lat="43.60617" lon="3.82752">
        <ele>67</ele>
        <time>2020-10-09T15:58:37.000Z</time>
      </trkpt>
      <trkpt lat="43.60618" lon="3.82748">
        <ele>67</ele>
        <time>2020-10-09T15:58:38.000Z</time>
      </trkpt>
      <trkpt lat="43.60619" lon="3.82744">
        <ele>67</ele>
        <time>2020-10-09T15:58:39.000Z</time>
      </trkpt>
      <trkpt lat="43.6062" lon="3.8274">
        <ele>67</ele>
        <time>2020-10-09T15:58:40.000Z</time>
      </trkpt>
      <trkpt lat="43.60621" lon="3.82736">
        <ele>67</ele>
        <time>2020-10-09T15:58:41.000Z</time>
      </trkpt>
      <trkpt lat="43.60622" lon="3.82732">
        <ele>67</ele>
        <time>2020-10-09T15:58:42.000Z</time>
      </trkpt>
      <trkpt lat="43.60623" lon="3.82729">
        <ele>67</ele>
        <time>2020-10-09T15:58:43.000Z</time>
      </trkpt>
      <trkpt lat="43.60624" lon="3.82725">
        <ele>67</ele>
        <time>2020-10-09T15:58:44.000Z</time>
      </trkpt>
      <trkpt lat="43.60625" lon="3.82721">
        <ele>67.101449870675</ele>
        <time>2020-10-09T15:58:45.000Z</time>
      </trkpt>
      <trkpt lat="43.60626" lon="3.82718">
        <ele>67.204969470828</ele>
        <time>2020-10-09T15:58:46.000Z</time>
      </trkpt>
      <trkpt lat="43.60627" lon="3.82714">
        <ele>67.30848907098</ele>
        <time>2020-10-09T15:58:47.000Z</time>
      </trkpt>
      <trkpt lat="43.60628" lon="3.8271">
        <ele>67.412008671133</ele>
        <time>2020-10-09T15:58:48.000Z</time>
      </trkpt>
      <trkpt lat="43.60629" lon="3.82706">
        <ele>67.515528271286</ele>
        <time>2020-10-09T15:58:49.000Z</time>
      </trkpt>
      <trkpt lat="43.6063" lon="3.82703">
        <ele>67.619047871438</ele>
        <time>2020-10-09T15:58:50.000Z</time>
      </trkpt>
      <trkpt lat="43.60631" lon="3.82699">
        <ele>67.722567471591</ele>
        <time>2020-10-09T15:58:51.000Z</time>
      </trkpt>
      <trkpt lat="43.60632" lon="3.82695">
        <ele>67.826087071744</ele>
        <time>2020-10-09T15:58:52.000Z</time>
      </trkpt>
      <trkpt lat="43.60633" lon="3.82691">
        <ele>67.929606671896</ele>
        <time>2020-10-09T15:58:53.000Z</time>
      </trkpt>
      <trkpt lat="43.60635" lon="3.82687">
        <ele>68.031128404669</ele>
        <time>2020-10-09T15:58:54.000Z</time>
      </trkpt>
      <trkpt lat="43.60636" lon="3.82683">
        <ele>68.128404669261</ele>
        <time>2020-10-09T15:58:55.000Z</time>
      </trkpt>
      <trkpt lat="43.60637" lon="3.82679">
        <ele>68.225680933852</ele>
        <time>2020-10-09T15:58:56.000Z</time>
      </trkpt>
      <trkpt lat="43.60638" lon="3.82675">
        <ele>68.322957198444</ele>
        <time>2020-10-09T15:58:57.000Z</time>
      </trkpt>
      <trkpt lat="43.60639" lon="3.82671">
        <ele>68.420233463035</ele>
        <time>2020-10-09T15:58:58.000Z</time>
      </trkpt>
      <trkpt lat="43.6064" lon="3.82667">
        <ele>68.517509727627</ele>
        <time>2020-10-09T15:58:59.000Z</time>
      </trkpt>
      <trkpt lat="43.60641" lon="3.82663">
        <ele>68.614785992218</ele>
        <time>2020-10-09T15:59:00.000Z</time>
      </trkpt>
      <trkpt lat="43.60643" lon="3.82659">
        <ele>68.712062256809</ele>
        <time>2020-10-09T15:59:01.000Z</time>
      </trkpt>
      <trkpt lat="43.60643" lon="3.82655">
        <ele>68.809338521401</ele>
        <time>2020-10-09T15:59:02.000Z</time>
      </trkpt>
      <trkpt lat="43.60644" lon="3.82651">
        <ele>68.906614785992</ele>
        <time>2020-10-09T15:59:03.000Z</time>
      </trkpt>
      <trkpt lat="43.60645" lon="3.82647">
        <ele>69.004098360656</ele>
        <time>2020-10-09T15:59:04.000Z</time>
      </trkpt>
      <trkpt lat="43.60646" lon="3.82643">
        <ele>69.106557377049</ele>
        <time>2020-10-09T15:59:05.000Z</time>
      </trkpt>
      <trkpt lat="43.60647" lon="3.82639">
        <ele>69.209016393443</ele>
        <time>2020-10-09T15:59:06.000Z</time>
      </trkpt>
      <trkpt lat="43.60647" lon="3.82635">
        <ele>69.311475409836</ele>
        <time>2020-10-09T15:59:07.000Z</time>
      </trkpt>
      <trkpt lat="43.60648" lon="3.82631">
        <ele>69.41393442623</ele>
        <time>2020-10-09T15:59:08.000Z</time>
      </trkpt>
      <trkpt lat="43.60649" lon="3.82628">
        <ele>69.516393442623</ele>
        <time>2020-10-09T15:59:09.000Z</time>
      </trkpt>
      <trkpt lat="43.60649" lon="3.82625">
        <ele>69.618852459016</ele>
        <time>2020-10-09T15:59:10.000Z</time>
      </trkpt>
      <trkpt lat="43.60649" lon="3.82621">
        <ele>69.823770491803</ele>
        <time>2020-10-09T15:59:12.000Z</time>
      </trkpt>
      <trkpt lat="43.60653" lon="3.8262">
        <ele>69.943775100402</ele>
        <time>2020-10-09T15:59:14.000Z</time>
      </trkpt>
      <trkpt lat="43.60656" lon="3.82621">
        <ele>69.74297188755</ele>
        <time>2020-10-09T15:59:15.000Z</time>
      </trkpt>
      <trkpt lat="43.60659" lon="3.82622">
        <ele>69.542168674699</ele>
        <time>2020-10-09T15:59:16.000Z</time>
      </trkpt>
      <trkpt lat="43.60663" lon="3.82624">
        <ele>69.341365461847</ele>
        <time>2020-10-09T15:59:17.000Z</time>
      </trkpt>
      <trkpt lat="43.60667" lon="3.82626">
        <ele>69.140562248996</ele>
        <time>2020-10-09T15:59:18.000Z</time>
      </trkpt>
      <trkpt lat="43.60672" lon="3.82628">
        <ele>68.939759036145</ele>
        <time>2020-10-09T15:59:19.000Z</time>
      </trkpt>
      <trkpt lat="43.60676" lon="3.8263">
        <ele>68.738955823293</ele>
        <time>2020-10-09T15:59:20.000Z</time>
      </trkpt>
      <trkpt lat="43.60681" lon="3.82633">
        <ele>68.538152610442</ele>
        <time>2020-10-09T15:59:21.000Z</time>
      </trkpt>
      <trkpt lat="43.60687" lon="3.82635">
        <ele>68.33734939759</ele>
        <time>2020-10-09T15:59:22.000Z</time>
      </trkpt>
      <trkpt lat="43.60692" lon="3.82638">
        <ele>68.136546184739</ele>
        <time>2020-10-09T15:59:23.000Z</time>
      </trkpt>
      <trkpt lat="43.60698" lon="3.8264">
        <ele>68.032</ele>
        <time>2020-10-09T15:59:24.000Z</time>
      </trkpt>
      <trkpt lat="43.60703" lon="3.82643">
        <ele>68.132</ele>
        <time>2020-10-09T15:59:25.000Z</time>
      </trkpt>
      <trkpt lat="43.60708" lon="3.82644">
        <ele>68.232</ele>
        <time>2020-10-09T15:59:26.000Z</time>
      </trkpt>
      <trkpt lat="43.60714" lon="3.82643">
        <ele>68.332</ele>
        <time>2020-10-09T15:59:27.000Z</time>
      </trkpt>
      <trkpt lat="43.60718" lon="3.8264">
        <ele>68.432</ele>
        <time>2020-10-09T15:59:28.000Z</time>
      </trkpt>
      <trkpt lat="43.6072" lon="3.82635">
        <ele>68.532</ele>
        <time>2020-10-09T15:59:29.000Z</time>
      </trkpt>
      <trkpt lat="43.60721" lon="3.8263">
        <ele>68.632</ele>
        <time>2020-10-09T15:59:30.000Z</time>
      </trkpt>
      <trkpt lat="43.6072" lon="3.82625">
        <ele>68.732</ele>
        <time>2020-10-09T15:59:31.000Z</time>
      </trkpt>
      <trkpt lat="43.6072" lon="3.82619">
        <ele>68.832</ele>
        <time>2020-10-09T15:59:32.000Z</time>
      </trkpt>
      <trkpt lat="43.60719" lon="3.82614">
        <ele>68.932</ele>
        <time>2020-10-09T15:59:33.000Z</time>
      </trkpt>
      <trkpt lat="43.60718" lon="3.82609">
        <ele>69.032</ele>
        <time>2020-10-09T15:59:34.000Z</time>
      </trkpt>
      <trkpt lat="43.60717" lon="3.82604">
        <ele>69.132</ele>
        <time>2020-10-09T15:59:35.000Z</time>
      </trkpt>
      <trkpt lat="43.60716" lon="3.826">
        <ele>69.232</ele>
        <time>2020-10-09T15:59:36.000Z</time>
      </trkpt>
      <trkpt lat="43.60714" lon="3.82595">
        <ele>69.332</ele>
        <time>2020-10-09T15:59:37.000Z</time>
      </trkpt>
      <trkpt lat="43.60714" lon="3.82591">
        <ele>69.432</ele>
        <time>2020-10-09T15:59:38.000Z</time>
      </trkpt>
      <trkpt lat="43.60713" lon="3.82586">
        <ele>69.532</ele>
        <time>2020-10-09T15:59:39.000Z</time>
      </trkpt>
      <trkpt lat="43.60712" lon="3.82581">
        <ele>69.632</ele>
        <time>2020-10-09T15:59:40.000Z</time>
      </trkpt>
      <trkpt lat="43.60711" lon="3.82577">
        <ele>69.732</ele>
        <time>2020-10-09T15:59:41.000Z</time>
      </trkpt>
      <trkpt lat="43.6071" lon="3.82572">
        <ele>69.832</ele>
        <time>2020-10-09T15:59:42.000Z</time>
      </trkpt>
      <trkpt lat="43.60709" lon="3.82567">
        <ele>69.932</ele>
        <time>2020-10-09T15:59:43.000Z</time>
      </trkpt>
      <trkpt lat="43.60708" lon="3.82562">
        <ele>70.032</ele>
        <time>2020-10-09T15:59:44.000Z</time>
      </trkpt>
      <trkpt lat="43.60707" lon="3.82557">
        <ele>70.132</ele>
        <time>2020-10-09T15:59:45.000Z</time>
      </trkpt>
      <trkpt lat="43.60706" lon="3.82552">
        <ele>70.232</ele>
        <time>2020-10-09T15:59:46.000Z</time>
      </trkpt>
      <trkpt lat="43.60706" lon="3.82547">
        <ele>70.332</ele>
        <time>2020-10-09T15:59:47.000Z</time>
      </trkpt>
      <trkpt lat="43.60705" lon="3.82542">
        <ele>70.432</ele>
        <time>2020-10-09T15:59:48.000Z</time>
      </trkpt>
      <trkpt lat="43.60704" lon="3.82537">
        <ele>70.532</ele>
        <time>2020-10-09T15:59:49.000Z</time>
      </trkpt>
      <trkpt lat="43.60703" lon="3.82531">
        <ele>70.632</ele>
        <time>2020-10-09T15:59:50.000Z</time>
      </trkpt>
      <trkpt lat="43.60702" lon="3.82526">
        <ele>70.732</ele>
        <time>2020-10-09T15:59:51.000Z</time>
      </trkpt>
      <trkpt lat="43.60701" lon="3.82521">
        <ele>70.832</ele>
        <time>2020-10-09T15:59:52.000Z</time>
      </trkpt>
      <trkpt lat="43.60701" lon="3.82516">
        <ele>70.932</ele>
        <time>2020-10-09T15:59:53.000Z</time>
      </trkpt>
      <trkpt lat="43.607" lon="3.82511">
        <ele>71.032</ele>
        <time>2020-10-09T15:59:54.000Z</time>
      </trkpt>
      <trkpt lat="43.60699" lon="3.82505">
        <ele>71.132</ele>
        <time>2020-10-09T15:59:55.000Z</time>
      </trkpt>
      <trkpt lat="43.60699" lon="3.825">
        <ele>71.232</ele>
        <time>2020-10-09T15:59:56.000Z</time>
      </trkpt>
      <trkpt lat="43.60699" lon="3.82495">
        <ele>71.332</ele>
        <time>2020-10-09T15:59:57.000Z</time>
      </trkpt>
      <trkpt lat="43.607" lon="3.8249">
        <ele>71.432</ele>
        <time>2020-10-09T15:59:58.000Z</time>
      </trkpt>
      <trkpt lat="43.60701" lon="3.82485">
        <ele>71.532</ele>
        <time>2020-10-09T15:59:59.000Z</time>
      </trkpt>
      <trkpt lat="43.60702" lon="3.8248">
        <ele>71.632</ele>
        <time>2020-10-09T16:00:00.000Z</time>
      </trkpt>
      <trkpt lat="43.60702" lon="3.82476">
        <ele>71.732</ele>
        <time>2020-10-09T16:00:01.000Z</time>
      </trkpt>
      <trkpt lat="43.60703" lon="3.82471">
        <ele>71.832</ele>
        <time>2020-10-09T16:00:02.000Z</time>
      </trkpt>
      <trkpt lat="43.60704" lon="3.82467">
        <ele>71.932</ele>
        <time>2020-10-09T16:00:03.000Z</time>
      </trkpt>
      <trkpt lat="43.60705" lon="3.82463">
        <ele>72.032</ele>
        <time>2020-10-09T16:00:04.000Z</time>
      </trkpt>
      <trkpt lat="43.60705" lon="3.82459">
        <ele>72.132</ele>
        <time>2020-10-09T16:00:05.000Z</time>
      </trkpt>
      <trkpt lat="43.60706" lon="3.82455">
        <ele>72.232</ele>
        <time>2020-10-09T16:00:06.000Z</time>
      </trkpt>
      <trkpt lat="43.60707" lon="3.8245">
        <ele>72.332</ele>
        <time>2020-10-09T16:00:07.000Z</time>
      </trkpt>
      <trkpt lat="43.60708" lon="3.82446">
        <ele>72.432</ele>
        <time>2020-10-09T16:00:08.000Z</time>
      </trkpt>
      <trkpt lat="43.60709" lon="3.82441">
        <ele>72.532</ele>
        <time>2020-10-09T16:00:09.000Z</time>
      </trkpt>
      <trkpt lat="43.6071" lon="3.82437">
        <ele>72.632</ele>
        <time>2020-10-09T16:00:10.000Z</time>
      </trkpt>
      <trkpt lat="43.60712" lon="3.82433">
        <ele>72.732</ele>
        <time>2020-10-09T16:00:11.000Z</time>
      </trkpt>
      <trkpt lat="43.60715" lon="3.82431">
        <ele>72.832</ele>
        <time>2020-10-09T16:00:12.000Z</time>
      </trkpt>
      <trkpt lat="43.60719" lon="3.82429">
        <ele>72.932</ele>
        <time>2020-10-09T16:00:13.000Z</time>
      </trkpt>
      <trkpt lat="43.60723" lon="3.82427">
        <ele>73</ele>
        <time>2020-10-09T16:00:14.000Z</time>
      </trkpt>
      <trkpt lat="43.60727" lon="3.82426">
        <ele>73</ele>
        <time>2020-10-09T16:00:15.000Z</time>
      </trkpt>
      <trkpt lat="43.60732" lon="3.82425">
        <ele>73</ele>
        <time>2020-10-09T16:00:16.000Z</time>
      </trkpt>
      <trkpt lat="43.60736" lon="3.82425">
        <ele>73</ele>
        <time>2020-10-09T16:00:17.000Z</time>
      </trkpt>
      <trkpt lat="43.6074" lon="3.82425">
        <ele>73</ele>
        <time>2020-10-09T16:00:18.000Z</time>
      </trkpt>
      <trkpt lat="43.60744" lon="3.82425">
        <ele>73</ele>
        <time>2020-10-09T16:00:19.000Z</time>
      </trkpt>
      <trkpt lat="43.60748" lon="3.82425">
        <ele>73</ele>
        <time>2020-10-09T16:00:20.000Z</time>
      </trkpt>
      <trkpt lat="43.60752" lon="3.82425">
        <ele>73</ele>
        <time>2020-10-09T16:00:21.000Z</time>
      </trkpt>
      <trkpt lat="43.60756" lon="3.82425">
        <ele>73</ele>
        <time>2020-10-09T16:00:22.000Z</time>
      </trkpt>
      <trkpt lat="43.60759" lon="3.82425">
        <ele>73</ele>
        <time>2020-10-09T16:00:23.000Z</time>
      </trkpt>
      <trkpt lat="43.60762" lon="3.82425">
        <ele>73.031098163218</ele>
        <time>2020-10-09T16:00:24.000Z</time>
      </trkpt>
      <trkpt lat="43.60765" lon="3.82425">
        <ele>73.128279923275</ele>
        <time>2020-10-09T16:00:25.000Z</time>
      </trkpt>
      <trkpt lat="43.60768" lon="3.82425">
        <ele>73.225461683331</ele>
        <time>2020-10-09T16:00:26.000Z</time>
      </trkpt>
      <trkpt lat="43.60771" lon="3.82424">
        <ele>73.322643443388</ele>
        <time>2020-10-09T16:00:27.000Z</time>
      </trkpt>
      <trkpt lat="43.60773" lon="3.82425">
        <ele>73.419825203444</ele>
        <time>2020-10-09T16:00:28.000Z</time>
      </trkpt>
      <trkpt lat="43.60776" lon="3.82426">
        <ele>73.517006963501</ele>
        <time>2020-10-09T16:00:29.000Z</time>
      </trkpt>
      <trkpt lat="43.60778" lon="3.82426">
        <ele>73.614188723557</ele>
        <time>2020-10-09T16:00:30.000Z</time>
      </trkpt>
      <trkpt lat="43.60781" lon="3.82427">
        <ele>73.711370483614</ele>
        <time>2020-10-09T16:00:31.000Z</time>
      </trkpt>
      <trkpt lat="43.60784" lon="3.82427">
        <ele>73.80855224367</ele>
        <time>2020-10-09T16:00:32.000Z</time>
      </trkpt>
      <trkpt lat="43.60786" lon="3.82428">
        <ele>73.905734003727</ele>
        <time>2020-10-09T16:00:33.000Z</time>
      </trkpt>
      <trkpt lat="43.60789" lon="3.82428">
        <ele>74</ele>
        <time>2020-10-09T16:00:34.000Z</time>
      </trkpt>
      <trkpt lat="43.60792" lon="3.82429">
        <ele>74</ele>
        <time>2020-10-09T16:00:35.000Z</time>
      </trkpt>
      <trkpt lat="43.60795" lon="3.8243">
        <ele>74</ele>
        <time>2020-10-09T16:00:36.000Z</time>
      </trkpt>
      <trkpt lat="43.60798" lon="3.8243">
        <ele>74</ele>
        <time>2020-10-09T16:00:37.000Z</time>
      </trkpt>
      <trkpt lat="43.60801" lon="3.82432">
        <ele>74</ele>
        <time>2020-10-09T16:00:38.000Z</time>
      </trkpt>
      <trkpt lat="43.60804" lon="3.82433">
        <ele>74</ele>
        <time>2020-10-09T16:00:39.000Z</time>
      </trkpt>
      <trkpt lat="43.60807" lon="3.82433">
        <ele>74</ele>
        <time>2020-10-09T16:00:40.000Z</time>
      </trkpt>
      <trkpt lat="43.60811" lon="3.82434">
        <ele>74</ele>
        <time>2020-10-09T16:00:41.000Z</time>
      </trkpt>
      <trkpt lat="43.60814" lon="3.82435">
        <ele>74</ele>
        <time>2020-10-09T16:00:42.000Z</time>
      </trkpt>
      <trkpt lat="43.60817" lon="3.82436">
        <ele>74</ele>
        <time>2020-10-09T16:00:43.000Z</time>
      </trkpt>
      <trkpt lat="43.6082" lon="3.82436">
        <ele>74</ele>
        <time>2020-10-09T16:00:44.000Z</time>
      </trkpt>
      <trkpt lat="43.60823" lon="3.82437">
        <ele>74</ele>
        <time>2020-10-09T16:00:45.000Z</time>
      </trkpt>
      <trkpt lat="43.60827" lon="3.82438">
        <ele>74</ele>
        <time>2020-10-09T16:00:46.000Z</time>
      </trkpt>
      <trkpt lat="43.60829" lon="3.82439">
        <ele>74</ele>
        <time>2020-10-09T16:00:47.000Z</time>
      </trkpt>
      <trkpt lat="43.60832" lon="3.8244">
        <ele>74</ele>
        <time>2020-10-09T16:00:48.000Z</time>
      </trkpt>
      <trkpt lat="43.60835" lon="3.82441">
        <ele>74</ele>
        <time>2020-10-09T16:00:49.000Z</time>
      </trkpt>
      <trkpt lat="43.60845" lon="3.82443">
        <ele>74</ele>
        <time>2020-10-09T16:00:52.000Z</time>
      </trkpt>
      <trkpt lat="43.60849" lon="3.82444">
        <ele>74</ele>
        <time>2020-10-09T16:00:53.000Z</time>
      </trkpt>
      <trkpt lat="43.60853" lon="3.82446">
        <ele>74</ele>
        <time>2020-10-09T16:00:54.000Z</time>
      </trkpt>
      <trkpt lat="43.60857" lon="3.82447">
        <ele>74</ele>
        <time>2020-10-09T16:00:55.000Z</time>
      </trkpt>
      <trkpt lat="43.60861" lon="3.82448">
        <ele>74</ele>
        <time>2020-10-09T16:00:56.000Z</time>
      </trkpt>
      <trkpt lat="43.60866" lon="3.82449">
        <ele>74</ele>
        <time>2020-10-09T16:00:57.000Z</time>
      </trkpt>
      <trkpt lat="43.60871" lon="3.8245">
        <ele>74</ele>
        <time>2020-10-09T16:00:58.000Z</time>
      </trkpt>
      <trkpt lat="43.60875" lon="3.8245">
        <ele>74</ele>
        <time>2020-10-09T16:00:59.000Z</time>
      </trkpt>
      <trkpt lat="43.60879" lon="3.82451">
        <ele>74</ele>
        <time>2020-10-09T16:01:00.000Z</time>
      </trkpt>
      <trkpt lat="43.60882" lon="3.82453">
        <ele>74</ele>
        <time>2020-10-09T16:01:01.000Z</time>
      </trkpt>
      <trkpt lat="43.60886" lon="3.82453">
        <ele>74</ele>
        <time>2020-10-09T16:01:02.000Z</time>
      </trkpt>
      <trkpt lat="43.60889" lon="3.82455">
        <ele>74</ele>
        <time>2020-10-09T16:01:03.000Z</time>
      </trkpt>
      <trkpt lat="43.60892" lon="3.82456">
        <ele>74.032</ele>
        <time>2020-10-09T16:01:04.000Z</time>
      </trkpt>
      <trkpt lat="43.60895" lon="3.82456">
        <ele>74.132</ele>
        <time>2020-10-09T16:01:05.000Z</time>
      </trkpt>
      <trkpt lat="43.60897" lon="3.82456">
        <ele>74.232</ele>
        <time>2020-10-09T16:01:06.000Z</time>
      </trkpt>
      <trkpt lat="43.60901" lon="3.82458">
        <ele>74.432</ele>
        <time>2020-10-09T16:01:08.000Z</time>
      </trkpt>
      <trkpt lat="43.60902" lon="3.8246">
        <ele>74.632</ele>
        <time>2020-10-09T16:01:10.000Z</time>
      </trkpt>
      <trkpt lat="43.60905" lon="3.8246">
        <ele>74.832</ele>
        <time>2020-10-09T16:01:12.000Z</time>
      </trkpt>
      <trkpt lat="43.60907" lon="3.82461">
        <ele>74.932</ele>
        <time>2020-10-09T16:01:13.000Z</time>
      </trkpt>
      <trkpt lat="43.60911" lon="3.82462">
        <ele>75</ele>
        <time>2020-10-09T16:01:14.000Z</time>
      </trkpt>
      <trkpt lat="43.60914" lon="3.82462">
        <ele>75</ele>
        <time>2020-10-09T16:01:15.000Z</time>
      </trkpt>
      <trkpt lat="43.60917" lon="3.82462">
        <ele>75</ele>
        <time>2020-10-09T16:01:16.000Z</time>
      </trkpt>
      <trkpt lat="43.60921" lon="3.82463">
        <ele>75</ele>
        <time>2020-10-09T16:01:17.000Z</time>
      </trkpt>
      <trkpt lat="43.60924" lon="3.82463">
        <ele>75</ele>
        <time>2020-10-09T16:01:18.000Z</time>
      </trkpt>
      <trkpt lat="43.60927" lon="3.82463">
        <ele>75</ele>
        <time>2020-10-09T16:01:19.000Z</time>
      </trkpt>
      <trkpt lat="43.60931" lon="3.82464">
        <ele>75</ele>
        <time>2020-10-09T16:01:20.000Z</time>
      </trkpt>
      <trkpt lat="43.60934" lon="3.82465">
        <ele>75</ele>
        <time>2020-10-09T16:01:21.000Z</time>
      </trkpt>
      <trkpt lat="43.60937" lon="3.82465">
        <ele>75</ele>
        <time>2020-10-09T16:01:22.000Z</time>
      </trkpt>
      <trkpt lat="43.6094" lon="3.82466">
        <ele>75</ele>
        <time>2020-10-09T16:01:23.000Z</time>
      </trkpt>
      <trkpt lat="43.60944" lon="3.82467">
        <ele>75</ele>
        <time>2020-10-09T16:01:25.000Z</time>
      </trkpt>
      <trkpt lat="43.60946" lon="3.82471">
        <ele>75</ele>
        <time>2020-10-09T16:01:27.000Z</time>
      </trkpt>
      <trkpt lat="43.60948" lon="3.82472">
        <ele>75</ele>
        <time>2020-10-09T16:01:28.000Z</time>
      </trkpt>
      <trkpt lat="43.6095" lon="3.82473">
        <ele>75</ele>
        <time>2020-10-09T16:01:29.000Z</time>
      </trkpt>
      <trkpt lat="43.60953" lon="3.82474">
        <ele>75</ele>
        <time>2020-10-09T16:01:30.000Z</time>
      </trkpt>
      <trkpt lat="43.60956" lon="3.82474">
        <ele>75</ele>
        <time>2020-10-09T16:01:31.000Z</time>
      </trkpt>
      <trkpt lat="43.6096" lon="3.82475">
        <ele>75</ele>
        <time>2020-10-09T16:01:32.000Z</time>
      </trkpt>
      <trkpt lat="43.60963" lon="3.82475">
        <ele>75</ele>
        <time>2020-10-09T16:01:33.000Z</time>
      </trkpt>
      <trkpt lat="43.60965" lon="3.82475">
        <ele>74.998969401382</ele>
        <time>2020-10-09T16:01:34.000Z</time>
      </trkpt>
      <trkpt lat="43.60968" lon="3.82475">
        <ele>74.895876549857</ele>
        <time>2020-10-09T16:01:35.000Z</time>
      </trkpt>
      <trkpt lat="43.60971" lon="3.82475">
        <ele>74.792783698332</ele>
        <time>2020-10-09T16:01:36.000Z</time>
      </trkpt>
      <trkpt lat="43.60975" lon="3.82475">
        <ele>74.689690846806</ele>
        <time>2020-10-09T16:01:37.000Z</time>
      </trkpt>
      <trkpt lat="43.60978" lon="3.82475">
        <ele>74.586597995281</ele>
        <time>2020-10-09T16:01:38.000Z</time>
      </trkpt>
      <trkpt lat="43.60981" lon="3.82475">
        <ele>74.483505143756</ele>
        <time>2020-10-09T16:01:39.000Z</time>
      </trkpt>
      <trkpt lat="43.60984" lon="3.82475">
        <ele>74.380412292231</ele>
        <time>2020-10-09T16:01:40.000Z</time>
      </trkpt>
      <trkpt lat="43.60986" lon="3.82474">
        <ele>74.277319440706</ele>
        <time>2020-10-09T16:01:41.000Z</time>
      </trkpt>
      <trkpt lat="43.60988" lon="3.82473">
        <ele>74.17422658918</ele>
        <time>2020-10-09T16:01:42.000Z</time>
      </trkpt>
      <trkpt lat="43.60991" lon="3.82471">
        <ele>74.071133737655</ele>
        <time>2020-10-09T16:01:43.000Z</time>
      </trkpt>
      <trkpt lat="43.60994" lon="3.82468">
        <ele>73.907091918351</ele>
        <time>2020-10-09T16:01:44.000Z</time>
      </trkpt>
      <trkpt lat="43.60997" lon="3.82466">
        <ele>73.607391522842</ele>
        <time>2020-10-09T16:01:45.000Z</time>
      </trkpt>
      <trkpt lat="43.61001" lon="3.82464">
        <ele>73.307691127334</ele>
        <time>2020-10-09T16:01:46.000Z</time>
      </trkpt>
      <trkpt lat="43.61005" lon="3.82462">
        <ele>73.007990731825</ele>
        <time>2020-10-09T16:01:47.000Z</time>
      </trkpt>
      <trkpt lat="43.61009" lon="3.8246">
        <ele>72.708290336317</ele>
        <time>2020-10-09T16:01:48.000Z</time>
      </trkpt>
      <trkpt lat="43.61012" lon="3.82459">
        <ele>72.408589940808</ele>
        <time>2020-10-09T16:01:49.000Z</time>
      </trkpt>
      <trkpt lat="43.61016" lon="3.82458">
        <ele>72.108889545299</ele>
        <time>2020-10-09T16:01:50.000Z</time>
      </trkpt>
      <trkpt lat="43.61019" lon="3.82457">
        <ele>71.809189149791</ele>
        <time>2020-10-09T16:01:51.000Z</time>
      </trkpt>
      <trkpt lat="43.61023" lon="3.82455">
        <ele>71.509488754282</ele>
        <time>2020-10-09T16:01:52.000Z</time>
      </trkpt>
      <trkpt lat="43.61028" lon="3.82455">
        <ele>71.209788358773</ele>
        <time>2020-10-09T16:01:53.000Z</time>
      </trkpt>
      <trkpt lat="43.61032" lon="3.82456">
        <ele>70.941689772573</ele>
        <time>2020-10-09T16:01:54.000Z</time>
      </trkpt>
      <trkpt lat="43.61036" lon="3.82459">
        <ele>70.747326494234</ele>
        <time>2020-10-09T16:01:55.000Z</time>
      </trkpt>
      <trkpt lat="43.6104" lon="3.82462">
        <ele>70.552963215894</ele>
        <time>2020-10-09T16:01:56.000Z</time>
      </trkpt>
      <trkpt lat="43.61041" lon="3.82464">
        <ele>70.358599937555</ele>
        <time>2020-10-09T16:01:57.000Z</time>
      </trkpt>
      <trkpt lat="43.61045" lon="3.82466">
        <ele>69.969873380876</ele>
        <time>2020-10-09T16:01:59.000Z</time>
      </trkpt>
      <trkpt lat="43.61047" lon="3.82469">
        <ele>69.581146824197</ele>
        <time>2020-10-09T16:02:01.000Z</time>
      </trkpt>
      <trkpt lat="43.6105" lon="3.82471">
        <ele>69.386783545858</ele>
        <time>2020-10-09T16:02:02.000Z</time>
      </trkpt>
      <trkpt lat="43.61052" lon="3.82472">
        <ele>69.192420267519</ele>
        <time>2020-10-09T16:02:03.000Z</time>
      </trkpt>
      <trkpt lat="43.61055" lon="3.82472">
        <ele>68.996005273448</ele>
        <time>2020-10-09T16:02:04.000Z</time>
      </trkpt>
      <trkpt lat="43.61059" lon="3.82473">
        <ele>68.596404746103</ele>
        <time>2020-10-09T16:02:05.000Z</time>
      </trkpt>
      <trkpt lat="43.61063" lon="3.82474">
        <ele>68.196804218759</ele>
        <time>2020-10-09T16:02:06.000Z</time>
      </trkpt>
      <trkpt lat="43.61065" lon="3.82474">
        <ele>67.797203691414</ele>
        <time>2020-10-09T16:02:07.000Z</time>
      </trkpt>
      <trkpt lat="43.61068" lon="3.82474">
        <ele>67.397603164069</ele>
        <time>2020-10-09T16:02:08.000Z</time>
      </trkpt>
      <trkpt lat="43.6107" lon="3.82474">
        <ele>66.998002636724</ele>
        <time>2020-10-09T16:02:09.000Z</time>
      </trkpt>
      <trkpt lat="43.61073" lon="3.82474">
        <ele>66.598402109379</ele>
        <time>2020-10-09T16:02:10.000Z</time>
      </trkpt>
      <trkpt lat="43.61077" lon="3.82474">
        <ele>66.198801582035</ele>
        <time>2020-10-09T16:02:11.000Z</time>
      </trkpt>
      <trkpt lat="43.61082" lon="3.82473">
        <ele>65.79920105469</ele>
        <time>2020-10-09T16:02:12.000Z</time>
      </trkpt>
      <trkpt lat="43.61089" lon="3.82473">
        <ele>65.399600527345</ele>
        <time>2020-10-09T16:02:13.000Z</time>
      </trkpt>
      <trkpt lat="43.61097" lon="3.82475">
        <ele>65</ele>
        <time>2020-10-09T16:02:14.000Z</time>
      </trkpt>
      <trkpt lat="43.61103" lon="3.82476">
        <ele>64.690082644628</ele>
        <time>2020-10-09T16:02:15.000Z</time>
      </trkpt>
      <trkpt lat="43.61109" lon="3.82476">
        <ele>64.380165289256</ele>
        <time>2020-10-09T16:02:16.000Z</time>
      </trkpt>
      <trkpt lat="43.61113" lon="3.82476">
        <ele>64.070247933884</ele>
        <time>2020-10-09T16:02:17.000Z</time>
      </trkpt>
      <trkpt lat="43.61117" lon="3.82476">
        <ele>63.760330578512</ele>
        <time>2020-10-09T16:02:18.000Z</time>
      </trkpt>
      <trkpt lat="43.6112" lon="3.82476">
        <ele>63.450413223141</ele>
        <time>2020-10-09T16:02:19.000Z</time>
      </trkpt>
      <trkpt lat="43.61123" lon="3.82476">
        <ele>63.140495867769</ele>
        <time>2020-10-09T16:02:20.000Z</time>
      </trkpt>
      <trkpt lat="43.61126" lon="3.82475">
        <ele>62.830578512397</ele>
        <time>2020-10-09T16:02:21.000Z</time>
      </trkpt>
      <trkpt lat="43.61128" lon="3.82475">
        <ele>62.520661157025</ele>
        <time>2020-10-09T16:02:22.000Z</time>
      </trkpt>
      <trkpt lat="43.61131" lon="3.82475">
        <ele>62.210743801653</ele>
        <time>2020-10-09T16:02:23.000Z</time>
      </trkpt>
      <trkpt lat="43.61133" lon="3.82476">
        <ele>61.936063915625</ele>
        <time>2020-10-09T16:02:24.000Z</time>
      </trkpt>
      <trkpt lat="43.61135" lon="3.82478">
        <ele>61.736263651952</ele>
        <time>2020-10-09T16:02:25.000Z</time>
      </trkpt>
      <trkpt lat="43.61137" lon="3.82481">
        <ele>61.53646338828</ele>
        <time>2020-10-09T16:02:26.000Z</time>
      </trkpt>
      <trkpt lat="43.61139" lon="3.82485">
        <ele>61.336663124608</ele>
        <time>2020-10-09T16:02:27.000Z</time>
      </trkpt>
      <trkpt lat="43.6114" lon="3.8249">
        <ele>61.136862860935</ele>
        <time>2020-10-09T16:02:28.000Z</time>
      </trkpt>
      <trkpt lat="43.61142" lon="3.82495">
        <ele>60.937062597263</ele>
        <time>2020-10-09T16:02:29.000Z</time>
      </trkpt>
      <trkpt lat="43.61143" lon="3.825">
        <ele>60.73726233359</ele>
        <time>2020-10-09T16:02:30.000Z</time>
      </trkpt>
      <trkpt lat="43.61145" lon="3.82504">
        <ele>60.537462069918</ele>
        <time>2020-10-09T16:02:31.000Z</time>
      </trkpt>
      <trkpt lat="43.61147" lon="3.82509">
        <ele>60.337661806245</ele>
        <time>2020-10-09T16:02:32.000Z</time>
      </trkpt>
      <trkpt lat="43.61148" lon="3.82513">
        <ele>60.137861542573</ele>
        <time>2020-10-09T16:02:33.000Z</time>
      </trkpt>
      <trkpt lat="43.6115" lon="3.82518">
        <ele>59.96903063945</ele>
        <time>2020-10-09T16:02:34.000Z</time>
      </trkpt>
      <trkpt lat="43.61151" lon="3.82522">
        <ele>59.869130507614</ele>
        <time>2020-10-09T16:02:35.000Z</time>
      </trkpt>
      <trkpt lat="43.61152" lon="3.82526">
        <ele>59.769230375778</ele>
        <time>2020-10-09T16:02:36.000Z</time>
      </trkpt>
      <trkpt lat="43.61153" lon="3.8253">
        <ele>59.669330243942</ele>
        <time>2020-10-09T16:02:37.000Z</time>
      </trkpt>
      <trkpt lat="43.61153" lon="3.82534">
        <ele>59.569430112106</ele>
        <time>2020-10-09T16:02:38.000Z</time>
      </trkpt>
      <trkpt lat="43.61154" lon="3.82539">
        <ele>59.469529980269</ele>
        <time>2020-10-09T16:02:39.000Z</time>
      </trkpt>
      <trkpt lat="43.61154" lon="3.82543">
        <ele>59.369629848433</ele>
        <time>2020-10-09T16:02:40.000Z</time>
      </trkpt>
      <trkpt lat="43.61155" lon="3.82548">
        <ele>59.269729716597</ele>
        <time>2020-10-09T16:02:41.000Z</time>
      </trkpt>
      <trkpt lat="43.61156" lon="3.82553">
        <ele>59.169829584761</ele>
        <time>2020-10-09T16:02:42.000Z</time>
      </trkpt>
      <trkpt lat="43.61156" lon="3.82558">
        <ele>59.069929452924</ele>
        <time>2020-10-09T16:02:43.000Z</time>
      </trkpt>
      <trkpt lat="43.61156" lon="3.82563">
        <ele>59</ele>
        <time>2020-10-09T16:02:44.000Z</time>
      </trkpt>
      <trkpt lat="43.61156" lon="3.82569">
        <ele>59</ele>
        <time>2020-10-09T16:02:45.000Z</time>
      </trkpt>
      <trkpt lat="43.61157" lon="3.82574">
        <ele>59</ele>
        <time>2020-10-09T16:02:46.000Z</time>
      </trkpt>
      <trkpt lat="43.61157" lon="3.82579">
        <ele>59</ele>
        <time>2020-10-09T16:02:47.000Z</time>
      </trkpt>
      <trkpt lat="43.61157" lon="3.82584">
        <ele>59</ele>
        <time>2020-10-09T16:02:48.000Z</time>
      </trkpt>
      <trkpt lat="43.61158" lon="3.82589">
        <ele>59</ele>
        <time>2020-10-09T16:02:49.000Z</time>
      </trkpt>
      <trkpt lat="43.61158" lon="3.82594">
        <ele>59</ele>
        <time>2020-10-09T16:02:50.000Z</time>
      </trkpt>
      <trkpt lat="43.61158" lon="3.82599">
        <ele>59</ele>
        <time>2020-10-09T16:02:51.000Z</time>
      </trkpt>
      <trkpt lat="43.61158" lon="3.82604">
        <ele>59</ele>
        <time>2020-10-09T16:02:52.000Z</time>
      </trkpt>
      <trkpt lat="43.61158" lon="3.82609">
        <ele>59</ele>
        <time>2020-10-09T16:02:53.000Z</time>
      </trkpt>
      <trkpt lat="43.61158" lon="3.82614">
        <ele>59</ele>
        <time>2020-10-09T16:02:54.000Z</time>
      </trkpt>
      <trkpt lat="43.61158" lon="3.8262">
        <ele>59</ele>
        <time>2020-10-09T16:02:55.000Z</time>
      </trkpt>
      <trkpt lat="43.61158" lon="3.82625">
        <ele>59</ele>
        <time>2020-10-09T16:02:56.000Z</time>
      </trkpt>
      <trkpt lat="43.61157" lon="3.8263">
        <ele>59</ele>
        <time>2020-10-09T16:02:57.000Z</time>
      </trkpt>
      <trkpt lat="43.61157" lon="3.82635">
        <ele>59</ele>
        <time>2020-10-09T16:02:58.000Z</time>
      </trkpt>
      <trkpt lat="43.61157" lon="3.82639">
        <ele>59</ele>
        <time>2020-10-09T16:02:59.000Z</time>
      </trkpt>
      <trkpt lat="43.61157" lon="3.82643">
        <ele>59</ele>
        <time>2020-10-09T16:03:00.000Z</time>
      </trkpt>
      <trkpt lat="43.61157" lon="3.82648">
        <ele>59</ele>
        <time>2020-10-09T16:03:01.000Z</time>
      </trkpt>
      <trkpt lat="43.61157" lon="3.82653">
        <ele>59</ele>
        <time>2020-10-09T16:03:02.000Z</time>
      </trkpt>
      <trkpt lat="43.61156" lon="3.82659">
        <ele>59</ele>
        <time>2020-10-09T16:03:03.000Z</time>
      </trkpt>
      <trkpt lat="43.61155" lon="3.82664">
        <ele>58.968</ele>
        <time>2020-10-09T16:03:04.000Z</time>
      </trkpt>
      <trkpt lat="43.61154" lon="3.8267">
        <ele>58.868</ele>
        <time>2020-10-09T16:03:05.000Z</time>
      </trkpt>
      <trkpt lat="43.61154" lon="3.82675">
        <ele>58.768</ele>
        <time>2020-10-09T16:03:06.000Z</time>
      </trkpt>
      <trkpt lat="43.61153" lon="3.8268">
        <ele>58.668</ele>
        <time>2020-10-09T16:03:07.000Z</time>
      </trkpt>
      <trkpt lat="43.61153" lon="3.82686">
        <ele>58.568</ele>
        <time>2020-10-09T16:03:08.000Z</time>
      </trkpt>
      <trkpt lat="43.61154" lon="3.82691">
        <ele>58.468</ele>
        <time>2020-10-09T16:03:09.000Z</time>
      </trkpt>
      <trkpt lat="43.61154" lon="3.82696">
        <ele>58.368</ele>
        <time>2020-10-09T16:03:10.000Z</time>
      </trkpt>
      <trkpt lat="43.61154" lon="3.82702">
        <ele>58.268</ele>
        <time>2020-10-09T16:03:11.000Z</time>
      </trkpt>
      <trkpt lat="43.61154" lon="3.82708">
        <ele>58.168</ele>
        <time>2020-10-09T16:03:12.000Z</time>
      </trkpt>
      <trkpt lat="43.61153" lon="3.82713">
        <ele>58.068</ele>
        <time>2020-10-09T16:03:13.000Z</time>
      </trkpt>
      <trkpt lat="43.61152" lon="3.82718">
        <ele>58</ele>
        <time>2020-10-09T16:03:14.000Z</time>
      </trkpt>
      <trkpt lat="43.61152" lon="3.82723">
        <ele>58</ele>
        <time>2020-10-09T16:03:15.000Z</time>
      </trkpt>
      <trkpt lat="43.61151" lon="3.82728">
        <ele>58</ele>
        <time>2020-10-09T16:03:16.000Z</time>
      </trkpt>
      <trkpt lat="43.6115" lon="3.82733">
        <ele>58</ele>
        <time>2020-10-09T16:03:17.000Z</time>
      </trkpt>
      <trkpt lat="43.61149" lon="3.82736">
        <ele>58</ele>
        <time>2020-10-09T16:03:18.000Z</time>
      </trkpt>
      <trkpt lat="43.61146" lon="3.82739">
        <ele>58</ele>
        <time>2020-10-09T16:03:19.000Z</time>
      </trkpt>
      <trkpt lat="43.61145" lon="3.82743">
        <ele>58</ele>
        <time>2020-10-09T16:03:20.000Z</time>
      </trkpt>
      <trkpt lat="43.61144" lon="3.82748">
        <ele>58</ele>
        <time>2020-10-09T16:03:21.000Z</time>
      </trkpt>
      <trkpt lat="43.61143" lon="3.82752">
        <ele>58</ele>
        <time>2020-10-09T16:03:22.000Z</time>
      </trkpt>
      <trkpt lat="43.61142" lon="3.82756">
        <ele>58</ele>
        <time>2020-10-09T16:03:23.000Z</time>
      </trkpt>
      <trkpt lat="43.61141" lon="3.8276">
        <ele>58.030060742246</ele>
        <time>2020-10-09T16:03:24.000Z</time>
      </trkpt>
      <trkpt lat="43.6114" lon="3.82764">
        <ele>58.13026107879</ele>
        <time>2020-10-09T16:03:25.000Z</time>
      </trkpt>
      <trkpt lat="43.6114" lon="3.82768">
        <ele>58.230461415335</ele>
        <time>2020-10-09T16:03:26.000Z</time>
      </trkpt>
      <trkpt lat="43.6114" lon="3.82772">
        <ele>58.33066175188</ele>
        <time>2020-10-09T16:03:27.000Z</time>
      </trkpt>
      <trkpt lat="43.61139" lon="3.82776">
        <ele>58.430862088425</ele>
        <time>2020-10-09T16:03:28.000Z</time>
      </trkpt>
      <trkpt lat="43.61139" lon="3.8278">
        <ele>58.53106242497</ele>
        <time>2020-10-09T16:03:29.000Z</time>
      </trkpt>
      <trkpt lat="43.61138" lon="3.82784">
        <ele>58.631262761515</ele>
        <time>2020-10-09T16:03:30.000Z</time>
      </trkpt>
      <trkpt lat="43.61137" lon="3.82788">
        <ele>58.73146309806</ele>
        <time>2020-10-09T16:03:31.000Z</time>
      </trkpt>
      <trkpt lat="43.61136" lon="3.82792">
        <ele>58.831663434605</ele>
        <time>2020-10-09T16:03:32.000Z</time>
      </trkpt>
      <trkpt lat="43.61136" lon="3.82795">
        <ele>58.93186377115</ele>
        <time>2020-10-09T16:03:33.000Z</time>
      </trkpt>
      <trkpt lat="43.61135" lon="3.82797">
        <ele>58.969696969697</ele>
        <time>2020-10-09T16:03:34.000Z</time>
      </trkpt>
      <trkpt lat="43.61134" lon="3.828">
        <ele>58.875</ele>
        <time>2020-10-09T16:03:35.000Z</time>
      </trkpt>
      <trkpt lat="43.61132" lon="3.82803">
        <ele>58.780303030303</ele>
        <time>2020-10-09T16:03:36.000Z</time>
      </trkpt>
      <trkpt lat="43.61131" lon="3.82805">
        <ele>58.685606060606</ele>
        <time>2020-10-09T16:03:37.000Z</time>
      </trkpt>
      <trkpt lat="43.61129" lon="3.82808">
        <ele>58.496212121212</ele>
        <time>2020-10-09T16:03:39.000Z</time>
      </trkpt>
      <trkpt lat="43.6113" lon="3.82813">
        <ele>58.306818181818</ele>
        <time>2020-10-09T16:03:41.000Z</time>
      </trkpt>
      <trkpt lat="43.6113" lon="3.82816">
        <ele>58.212121212121</ele>
        <time>2020-10-09T16:03:42.000Z</time>
      </trkpt>
      <trkpt lat="43.61129" lon="3.82819">
        <ele>58.117424242424</ele>
        <time>2020-10-09T16:03:43.000Z</time>
      </trkpt>
      <trkpt lat="43.61129" lon="3.82822">
        <ele>58.022727272727</ele>
        <time>2020-10-09T16:03:44.000Z</time>
      </trkpt>
      <trkpt lat="43.61128" lon="3.82825">
        <ele>58</ele>
        <time>2020-10-09T16:03:45.000Z</time>
      </trkpt>
      <trkpt lat="43.61127" lon="3.82829">
        <ele>58</ele>
        <time>2020-10-09T16:03:46.000Z</time>
      </trkpt>
      <trkpt lat="43.61126" lon="3.82833">
        <ele>58</ele>
        <time>2020-10-09T16:03:47.000Z</time>
      </trkpt>
      <trkpt lat="43.61125" lon="3.82837">
        <ele>58</ele>
        <time>2020-10-09T16:03:48.000Z</time>
      </trkpt>
      <trkpt lat="43.61124" lon="3.8284">
        <ele>58</ele>
        <time>2020-10-09T16:03:49.000Z</time>
      </trkpt>
      <trkpt lat="43.61123" lon="3.82843">
        <ele>58</ele>
        <time>2020-10-09T16:03:50.000Z</time>
      </trkpt>
      <trkpt lat="43.61123" lon="3.82845">
        <ele>58</ele>
        <time>2020-10-09T16:03:58.000Z</time>
      </trkpt>
      <trkpt lat="43.61116" lon="3.82857">
        <ele>58.982772619019</ele>
        <time>2020-10-09T16:04:11.000Z</time>
      </trkpt>
      <trkpt lat="43.61117" lon="3.82861">
        <ele>58.910569444114</ele>
        <time>2020-10-09T16:04:12.000Z</time>
      </trkpt>
      <trkpt lat="43.61117" lon="3.82865">
        <ele>58.794425382365</ele>
        <time>2020-10-09T16:04:13.000Z</time>
      </trkpt>
      <trkpt lat="43.61117" lon="3.82863">
        <ele>58</ele>
        <time>2020-10-09T16:04:20.000Z</time>
      </trkpt>
      <trkpt lat="43.61121" lon="3.82869">
        <ele>57.990078730159</ele>
        <time>2020-10-09T16:04:45.000Z</time>
      </trkpt>
      <trkpt lat="43.61122" lon="3.82871">
        <ele>57.890872380952</ele>
        <time>2020-10-09T16:04:46.000Z</time>
      </trkpt>
      <trkpt lat="43.61125" lon="3.82874">
        <ele>57.69245968254</ele>
        <time>2020-10-09T16:04:48.000Z</time>
      </trkpt>
      <trkpt lat="43.61127" lon="3.82876">
        <ele>57.593253333333</ele>
        <time>2020-10-09T16:04:49.000Z</time>
      </trkpt>
      <trkpt lat="43.61129" lon="3.82878">
        <ele>57.494046984127</ele>
        <time>2020-10-09T16:04:50.000Z</time>
      </trkpt>
      <trkpt lat="43.61133" lon="3.8288">
        <ele>57.394840634921</ele>
        <time>2020-10-09T16:04:51.000Z</time>
      </trkpt>
      <trkpt lat="43.61137" lon="3.82881">
        <ele>57.295634285714</ele>
        <time>2020-10-09T16:04:52.000Z</time>
      </trkpt>
      <trkpt lat="43.61142" lon="3.82882">
        <ele>57.196427936508</ele>
        <time>2020-10-09T16:04:53.000Z</time>
      </trkpt>
      <trkpt lat="43.61147" lon="3.82883">
        <ele>57.097221587302</ele>
        <time>2020-10-09T16:04:54.000Z</time>
      </trkpt>
      <trkpt lat="43.61151" lon="3.82886">
        <ele>57</ele>
        <time>2020-10-09T16:04:55.000Z</time>
      </trkpt>
      <trkpt lat="43.61156" lon="3.82888">
        <ele>57</ele>
        <time>2020-10-09T16:04:56.000Z</time>
      </trkpt>
      <trkpt lat="43.61161" lon="3.82891">
        <ele>57</ele>
        <time>2020-10-09T16:04:57.000Z</time>
      </trkpt>
      <trkpt lat="43.61166" lon="3.82894">
        <ele>57</ele>
        <time>2020-10-09T16:04:58.000Z</time>
      </trkpt>
      <trkpt lat="43.6117" lon="3.82897">
        <ele>57</ele>
        <time>2020-10-09T16:04:59.000Z</time>
      </trkpt>
      <trkpt lat="43.61175" lon="3.829">
        <ele>57</ele>
        <time>2020-10-09T16:05:00.000Z</time>
      </trkpt>
      <trkpt lat="43.61179" lon="3.82904">
        <ele>57</ele>
        <time>2020-10-09T16:05:01.000Z</time>
      </trkpt>
      <trkpt lat="43.61182" lon="3.82909">
        <ele>57</ele>
        <time>2020-10-09T16:05:02.000Z</time>
      </trkpt>
      <trkpt lat="43.61184" lon="3.82915">
        <ele>57</ele>
        <time>2020-10-09T16:05:03.000Z</time>
      </trkpt>
      <trkpt lat="43.61185" lon="3.82921">
        <ele>57</ele>
        <time>2020-10-09T16:05:04.000Z</time>
      </trkpt>
      <trkpt lat="43.61186" lon="3.82926">
        <ele>57</ele>
        <time>2020-10-09T16:05:05.000Z</time>
      </trkpt>
      <trkpt lat="43.61187" lon="3.82932">
        <ele>57</ele>
        <time>2020-10-09T16:05:06.000Z</time>
      </trkpt>
      <trkpt lat="43.61188" lon="3.82938">
        <ele>57</ele>
        <time>2020-10-09T16:05:07.000Z</time>
      </trkpt>
      <trkpt lat="43.61189" lon="3.82944">
        <ele>57</ele>
        <time>2020-10-09T16:05:08.000Z</time>
      </trkpt>
      <trkpt lat="43.6119" lon="3.8295">
        <ele>57</ele>
        <time>2020-10-09T16:05:09.000Z</time>
      </trkpt>
      <trkpt lat="43.61191" lon="3.82956">
        <ele>57</ele>
        <time>2020-10-09T16:05:10.000Z</time>
      </trkpt>
      <trkpt lat="43.61191" lon="3.82963">
        <ele>57</ele>
        <time>2020-10-09T16:05:11.000Z</time>
      </trkpt>
      <trkpt lat="43.6119" lon="3.82969">
        <ele>57</ele>
        <time>2020-10-09T16:05:12.000Z</time>
      </trkpt>
      <trkpt lat="43.6119" lon="3.82976">
        <ele>57</ele>
        <time>2020-10-09T16:05:13.000Z</time>
      </trkpt>
      <trkpt lat="43.61188" lon="3.82982">
        <ele>57</ele>
        <time>2020-10-09T16:05:14.000Z</time>
      </trkpt>
      <trkpt lat="43.61186" lon="3.82988">
        <ele>57.032</ele>
        <time>2020-10-09T16:05:15.000Z</time>
      </trkpt>
      <trkpt lat="43.61184" lon="3.82993">
        <ele>57.132</ele>
        <time>2020-10-09T16:05:16.000Z</time>
      </trkpt>
      <trkpt lat="43.61181" lon="3.82999">
        <ele>57.232</ele>
        <time>2020-10-09T16:05:17.000Z</time>
      </trkpt>
      <trkpt lat="43.61179" lon="3.83004">
        <ele>57.332</ele>
        <time>2020-10-09T16:05:18.000Z</time>
      </trkpt>
      <trkpt lat="43.61174" lon="3.83016">
        <ele>57.532</ele>
        <time>2020-10-09T16:05:20.000Z</time>
      </trkpt>
      <trkpt lat="43.61172" lon="3.83023">
        <ele>57.632</ele>
        <time>2020-10-09T16:05:21.000Z</time>
      </trkpt>
      <trkpt lat="43.6117" lon="3.83029">
        <ele>57.732</ele>
        <time>2020-10-09T16:05:22.000Z</time>
      </trkpt>
      <trkpt lat="43.61169" lon="3.83035">
        <ele>57.832</ele>
        <time>2020-10-09T16:05:23.000Z</time>
      </trkpt>
      <trkpt lat="43.61167" lon="3.83041">
        <ele>57.932</ele>
        <time>2020-10-09T16:05:24.000Z</time>
      </trkpt>
      <trkpt lat="43.61165" lon="3.83046">
        <ele>58.03190427696</ele>
        <time>2020-10-09T16:05:25.000Z</time>
      </trkpt>
      <trkpt lat="43.61163" lon="3.83052">
        <ele>58.131605142459</ele>
        <time>2020-10-09T16:05:26.000Z</time>
      </trkpt>
      <trkpt lat="43.61162" lon="3.83058">
        <ele>58.231306007958</ele>
        <time>2020-10-09T16:05:27.000Z</time>
      </trkpt>
      <trkpt lat="43.6116" lon="3.83064">
        <ele>58.331006873457</ele>
        <time>2020-10-09T16:05:28.000Z</time>
      </trkpt>
      <trkpt lat="43.61159" lon="3.8307">
        <ele>58.430707738957</ele>
        <time>2020-10-09T16:05:29.000Z</time>
      </trkpt>
      <trkpt lat="43.61158" lon="3.83076">
        <ele>58.530408604456</ele>
        <time>2020-10-09T16:05:30.000Z</time>
      </trkpt>
      <trkpt lat="43.61157" lon="3.83081">
        <ele>58.630109469955</ele>
        <time>2020-10-09T16:05:31.000Z</time>
      </trkpt>
      <trkpt lat="43.61156" lon="3.83087">
        <ele>58.729810335454</ele>
        <time>2020-10-09T16:05:32.000Z</time>
      </trkpt>
      <trkpt lat="43.61155" lon="3.83092">
        <ele>58.829511200954</ele>
        <time>2020-10-09T16:05:33.000Z</time>
      </trkpt>
      <trkpt lat="43.61154" lon="3.83097">
        <ele>58.929212066453</ele>
        <time>2020-10-09T16:05:34.000Z</time>
      </trkpt>
      <trkpt lat="43.61152" lon="3.83103">
        <ele>59</ele>
        <time>2020-10-09T16:05:35.000Z</time>
      </trkpt>
      <trkpt lat="43.61151" lon="3.83109">
        <ele>59</ele>
        <time>2020-10-09T16:05:36.000Z</time>
      </trkpt>
      <trkpt lat="43.61149" lon="3.83115">
        <ele>59</ele>
        <time>2020-10-09T16:05:37.000Z</time>
      </trkpt>
      <trkpt lat="43.61147" lon="3.83121">
        <ele>59</ele>
        <time>2020-10-09T16:05:38.000Z</time>
      </trkpt>
      <trkpt lat="43.61145" lon="3.83127">
        <ele>59</ele>
        <time>2020-10-09T16:05:39.000Z</time>
      </trkpt>
      <trkpt lat="43.61144" lon="3.83133">
        <ele>59</ele>
        <time>2020-10-09T16:05:40.000Z</time>
      </trkpt>
      <trkpt lat="43.61142" lon="3.83139">
        <ele>59</ele>
        <time>2020-10-09T16:05:41.000Z</time>
      </trkpt>
      <trkpt lat="43.6114" lon="3.83145">
        <ele>59</ele>
        <time>2020-10-09T16:05:42.000Z</time>
      </trkpt>
      <trkpt lat="43.61139" lon="3.83151">
        <ele>59</ele>
        <time>2020-10-09T16:05:43.000Z</time>
      </trkpt>
      <trkpt lat="43.61138" lon="3.83157">
        <ele>59</ele>
        <time>2020-10-09T16:05:44.000Z</time>
      </trkpt>
      <trkpt lat="43.61136" lon="3.83164">
        <ele>59.064</ele>
        <time>2020-10-09T16:05:45.000Z</time>
      </trkpt>
      <trkpt lat="43.61135" lon="3.8317">
        <ele>59.264</ele>
        <time>2020-10-09T16:05:46.000Z</time>
      </trkpt>
      <trkpt lat="43.61134" lon="3.83176">
        <ele>59.464</ele>
        <time>2020-10-09T16:05:47.000Z</time>
      </trkpt>
      <trkpt lat="43.61133" lon="3.83183">
        <ele>59.664</ele>
        <time>2020-10-09T16:05:48.000Z</time>
      </trkpt>
      <trkpt lat="43.61131" lon="3.83189">
        <ele>59.864</ele>
        <time>2020-10-09T16:05:49.000Z</time>
      </trkpt>
      <trkpt lat="43.6113" lon="3.83195">
        <ele>60.064</ele>
        <time>2020-10-09T16:05:50.000Z</time>
      </trkpt>
      <trkpt lat="43.61129" lon="3.83201">
        <ele>60.264</ele>
        <time>2020-10-09T16:05:51.000Z</time>
      </trkpt>
      <trkpt lat="43.61128" lon="3.83207">
        <ele>60.464</ele>
        <time>2020-10-09T16:05:52.000Z</time>
      </trkpt>
      <trkpt lat="43.61128" lon="3.83214">
        <ele>60.664</ele>
        <time>2020-10-09T16:05:53.000Z</time>
      </trkpt>
      <trkpt lat="43.61127" lon="3.8322">
        <ele>60.864</ele>
        <time>2020-10-09T16:05:54.000Z</time>
      </trkpt>
      <trkpt lat="43.61126" lon="3.83226">
        <ele>61.063872214692</ele>
        <time>2020-10-09T16:05:55.000Z</time>
      </trkpt>
      <trkpt lat="43.61124" lon="3.83231">
        <ele>61.263472885606</ele>
        <time>2020-10-09T16:05:56.000Z</time>
      </trkpt>
      <trkpt lat="43.61123" lon="3.83237">
        <ele>61.46307355652</ele>
        <time>2020-10-09T16:05:57.000Z</time>
      </trkpt>
      <trkpt lat="43.61121" lon="3.83242">
        <ele>61.662674227434</ele>
        <time>2020-10-09T16:05:58.000Z</time>
      </trkpt>
      <trkpt lat="43.61121" lon="3.83248">
        <ele>61.862274898347</ele>
        <time>2020-10-09T16:05:59.000Z</time>
      </trkpt>
      <trkpt lat="43.61121" lon="3.83253">
        <ele>62.061875569261</ele>
        <time>2020-10-09T16:06:00.000Z</time>
      </trkpt>
      <trkpt lat="43.6112" lon="3.83257">
        <ele>62.261476240175</ele>
        <time>2020-10-09T16:06:01.000Z</time>
      </trkpt>
      <trkpt lat="43.61118" lon="3.83267">
        <ele>62.660677582002</ele>
        <time>2020-10-09T16:06:03.000Z</time>
      </trkpt>
      <trkpt lat="43.61119" lon="3.83272">
        <ele>62.860278252916</ele>
        <time>2020-10-09T16:06:04.000Z</time>
      </trkpt>
      <trkpt lat="43.6112" lon="3.83278">
        <ele>63</ele>
        <time>2020-10-09T16:06:05.000Z</time>
      </trkpt>
      <trkpt lat="43.61121" lon="3.83282">
        <ele>63</ele>
        <time>2020-10-09T16:06:06.000Z</time>
      </trkpt>
      <trkpt lat="43.61118" lon="3.8329">
        <ele>63</ele>
        <time>2020-10-09T16:06:07.000Z</time>
      </trkpt>
      <trkpt lat="43.61113" lon="3.83297">
        <ele>63</ele>
        <time>2020-10-09T16:06:08.000Z</time>
      </trkpt>
      <trkpt lat="43.61109" lon="3.83304">
        <ele>63</ele>
        <time>2020-10-09T16:06:09.000Z</time>
      </trkpt>
      <trkpt lat="43.61106" lon="3.8331">
        <ele>63</ele>
        <time>2020-10-09T16:06:10.000Z</time>
      </trkpt>
      <trkpt lat="43.61103" lon="3.83317">
        <ele>63</ele>
        <time>2020-10-09T16:06:11.000Z</time>
      </trkpt>
      <trkpt lat="43.61101" lon="3.83323">
        <ele>63</ele>
        <time>2020-10-09T16:06:12.000Z</time>
      </trkpt>
      <trkpt lat="43.611" lon="3.83329">
        <ele>63</ele>
        <time>2020-10-09T16:06:13.000Z</time>
      </trkpt>
      <trkpt lat="43.61098" lon="3.83335">
        <ele>63</ele>
        <time>2020-10-09T16:06:14.000Z</time>
      </trkpt>
      <trkpt lat="43.61096" lon="3.83341">
        <ele>63</ele>
        <time>2020-10-09T16:06:15.000Z</time>
      </trkpt>
      <trkpt lat="43.61094" lon="3.83347">
        <ele>63</ele>
        <time>2020-10-09T16:06:16.000Z</time>
      </trkpt>
      <trkpt lat="43.61089" lon="3.83352">
        <ele>63</ele>
        <time>2020-10-09T16:06:17.000Z</time>
      </trkpt>
      <trkpt lat="43.61086" lon="3.83357">
        <ele>63</ele>
        <time>2020-10-09T16:06:18.000Z</time>
      </trkpt>
      <trkpt lat="43.61083" lon="3.83363">
        <ele>63</ele>
        <time>2020-10-09T16:06:19.000Z</time>
      </trkpt>
      <trkpt lat="43.61081" lon="3.8337">
        <ele>63</ele>
        <time>2020-10-09T16:06:20.000Z</time>
      </trkpt>
      <trkpt lat="43.6108" lon="3.83377">
        <ele>63</ele>
        <time>2020-10-09T16:06:21.000Z</time>
      </trkpt>
      <trkpt lat="43.61078" lon="3.83383">
        <ele>63</ele>
        <time>2020-10-09T16:06:22.000Z</time>
      </trkpt>
      <trkpt lat="43.61076" lon="3.83391">
        <ele>63</ele>
        <time>2020-10-09T16:06:23.000Z</time>
      </trkpt>
      <trkpt lat="43.61073" lon="3.83397">
        <ele>63</ele>
        <time>2020-10-09T16:06:24.000Z</time>
      </trkpt>
      <trkpt lat="43.61071" lon="3.83404">
        <ele>63</ele>
        <time>2020-10-09T16:06:25.000Z</time>
      </trkpt>
      <trkpt lat="43.61068" lon="3.83411">
        <ele>63</ele>
        <time>2020-10-09T16:06:26.000Z</time>
      </trkpt>
      <trkpt lat="43.61066" lon="3.83418">
        <ele>63</ele>
        <time>2020-10-09T16:06:27.000Z</time>
      </trkpt>
      <trkpt lat="43.61064" lon="3.83425">
        <ele>63</ele>
        <time>2020-10-09T16:06:28.000Z</time>
      </trkpt>
      <trkpt lat="43.61062" lon="3.83432">
        <ele>63</ele>
        <time>2020-10-09T16:06:29.000Z</time>
      </trkpt>
      <trkpt lat="43.61061" lon="3.8344">
        <ele>63</ele>
        <time>2020-10-09T16:06:30.000Z</time>
      </trkpt>
      <trkpt lat="43.61059" lon="3.83446">
        <ele>63</ele>
        <time>2020-10-09T16:06:31.000Z</time>
      </trkpt>
      <trkpt lat="43.61056" lon="3.83451">
        <ele>63</ele>
        <time>2020-10-09T16:06:32.000Z</time>
      </trkpt>
      <trkpt lat="43.61051" lon="3.83454">
        <ele>63</ele>
        <time>2020-10-09T16:06:33.000Z</time>
      </trkpt>
      <trkpt lat="43.61046" lon="3.83455">
        <ele>63</ele>
        <time>2020-10-09T16:06:34.000Z</time>
      </trkpt>
      <trkpt lat="43.61043" lon="3.83457">
        <ele>62.968</ele>
        <time>2020-10-09T16:06:35.000Z</time>
      </trkpt>
      <trkpt lat="43.6104" lon="3.83461">
        <ele>62.868</ele>
        <time>2020-10-09T16:06:36.000Z</time>
      </trkpt>
      <trkpt lat="43.61038" lon="3.83466">
        <ele>62.768</ele>
        <time>2020-10-09T16:06:37.000Z</time>
      </trkpt>
      <trkpt lat="43.61037" lon="3.83473">
        <ele>62.668</ele>
        <time>2020-10-09T16:06:38.000Z</time>
      </trkpt>
      <trkpt lat="43.61036" lon="3.83479">
        <ele>62.568</ele>
        <time>2020-10-09T16:06:39.000Z</time>
      </trkpt>
      <trkpt lat="43.61035" lon="3.83486">
        <ele>62.468</ele>
        <time>2020-10-09T16:06:40.000Z</time>
      </trkpt>
      <trkpt lat="43.61033" lon="3.83493">
        <ele>62.368</ele>
        <time>2020-10-09T16:06:41.000Z</time>
      </trkpt>
      <trkpt lat="43.61032" lon="3.83501">
        <ele>62.268</ele>
        <time>2020-10-09T16:06:42.000Z</time>
      </trkpt>
      <trkpt lat="43.6103" lon="3.83508">
        <ele>62.168</ele>
        <time>2020-10-09T16:06:43.000Z</time>
      </trkpt>
      <trkpt lat="43.61029" lon="3.83515">
        <ele>62.068</ele>
        <time>2020-10-09T16:06:44.000Z</time>
      </trkpt>
      <trkpt lat="43.61027" lon="3.83522">
        <ele>62</ele>
        <time>2020-10-09T16:06:45.000Z</time>
      </trkpt>
      <trkpt lat="43.61026" lon="3.83529">
        <ele>62</ele>
        <time>2020-10-09T16:06:46.000Z</time>
      </trkpt>
      <trkpt lat="43.61024" lon="3.83536">
        <ele>62</ele>
        <time>2020-10-09T16:06:47.000Z</time>
      </trkpt>
      <trkpt lat="43.61023" lon="3.83544">
        <ele>62</ele>
        <time>2020-10-09T16:06:48.000Z</time>
      </trkpt>
      <trkpt lat="43.61022" lon="3.83551">
        <ele>62</ele>
        <time>2020-10-09T16:06:49.000Z</time>
      </trkpt>
      <trkpt lat="43.61021" lon="3.83558">
        <ele>62</ele>
        <time>2020-10-09T16:06:50.000Z</time>
      </trkpt>
      <trkpt lat="43.61019" lon="3.83564">
        <ele>62</ele>
        <time>2020-10-09T16:06:51.000Z</time>
      </trkpt>
      <trkpt lat="43.61018" lon="3.83572">
        <ele>62</ele>
        <time>2020-10-09T16:06:52.000Z</time>
      </trkpt>
      <trkpt lat="43.61017" lon="3.83579">
        <ele>62</ele>
        <time>2020-10-09T16:06:53.000Z</time>
      </trkpt>
      <trkpt lat="43.61016" lon="3.83586">
        <ele>62</ele>
        <time>2020-10-09T16:06:54.000Z</time>
      </trkpt>
      <trkpt lat="43.61014" lon="3.83593">
        <ele>61.968063892654</ele>
        <time>2020-10-09T16:06:55.000Z</time>
      </trkpt>
      <trkpt lat="43.61013" lon="3.83601">
        <ele>61.868263557197</ele>
        <time>2020-10-09T16:06:56.000Z</time>
      </trkpt>
      <trkpt lat="43.61012" lon="3.83608">
        <ele>61.76846322174</ele>
        <time>2020-10-09T16:06:57.000Z</time>
      </trkpt>
      <trkpt lat="43.6101" lon="3.83616">
        <ele>61.668662886283</ele>
        <time>2020-10-09T16:06:58.000Z</time>
      </trkpt>
      <trkpt lat="43.61009" lon="3.83623">
        <ele>61.568862550826</ele>
        <time>2020-10-09T16:06:59.000Z</time>
      </trkpt>
      <trkpt lat="43.61007" lon="3.83631">
        <ele>61.469062215369</ele>
        <time>2020-10-09T16:07:00.000Z</time>
      </trkpt>
      <trkpt lat="43.61006" lon="3.83638">
        <ele>61.369261879913</ele>
        <time>2020-10-09T16:07:01.000Z</time>
      </trkpt>
      <trkpt lat="43.61004" lon="3.83646">
        <ele>61.269461544456</ele>
        <time>2020-10-09T16:07:02.000Z</time>
      </trkpt>
      <trkpt lat="43.61002" lon="3.83654">
        <ele>61.169661208999</ele>
        <time>2020-10-09T16:07:03.000Z</time>
      </trkpt>
      <trkpt lat="43.61" lon="3.83661">
        <ele>61.069860873542</ele>
        <time>2020-10-09T16:07:04.000Z</time>
      </trkpt>
      <trkpt lat="43.60999" lon="3.83668">
        <ele>61</ele>
        <time>2020-10-09T16:07:05.000Z</time>
      </trkpt>
      <trkpt lat="43.60998" lon="3.83675">
        <ele>61</ele>
        <time>2020-10-09T16:07:06.000Z</time>
      </trkpt>
      <trkpt lat="43.60997" lon="3.83682">
        <ele>61</ele>
        <time>2020-10-09T16:07:07.000Z</time>
      </trkpt>
      <trkpt lat="43.60995" lon="3.83689">
        <ele>61</ele>
        <time>2020-10-09T16:07:08.000Z</time>
      </trkpt>
      <trkpt lat="43.60994" lon="3.83696">
        <ele>61</ele>
        <time>2020-10-09T16:07:09.000Z</time>
      </trkpt>
      <trkpt lat="43.60992" lon="3.83703">
        <ele>61</ele>
        <time>2020-10-09T16:07:10.000Z</time>
      </trkpt>
      <trkpt lat="43.6099" lon="3.83711">
        <ele>61</ele>
        <time>2020-10-09T16:07:11.000Z</time>
      </trkpt>
      <trkpt lat="43.60988" lon="3.83718">
        <ele>61</ele>
        <time>2020-10-09T16:07:12.000Z</time>
      </trkpt>
      <trkpt lat="43.60986" lon="3.83725">
        <ele>61</ele>
        <time>2020-10-09T16:07:13.000Z</time>
      </trkpt>
      <trkpt lat="43.60984" lon="3.83733">
        <ele>61</ele>
        <time>2020-10-09T16:07:14.000Z</time>
      </trkpt>
      <trkpt lat="43.60982" lon="3.8374">
        <ele>61</ele>
        <time>2020-10-09T16:07:15.000Z</time>
      </trkpt>
      <trkpt lat="43.60981" lon="3.83748">
        <ele>61</ele>
        <time>2020-10-09T16:07:16.000Z</time>
      </trkpt>
      <trkpt lat="43.60979" lon="3.83755">
        <ele>61</ele>
        <time>2020-10-09T16:07:17.000Z</time>
      </trkpt>
      <trkpt lat="43.60978" lon="3.83763">
        <ele>61</ele>
        <time>2020-10-09T16:07:18.000Z</time>
      </trkpt>
      <trkpt lat="43.60978" lon="3.8377">
        <ele>61</ele>
        <time>2020-10-09T16:07:19.000Z</time>
      </trkpt>
      <trkpt lat="43.60977" lon="3.83777">
        <ele>61</ele>
        <time>2020-10-09T16:07:20.000Z</time>
      </trkpt>
      <trkpt lat="43.60976" lon="3.83784">
        <ele>61</ele>
        <time>2020-10-09T16:07:21.000Z</time>
      </trkpt>
      <trkpt lat="43.60975" lon="3.83791">
        <ele>61</ele>
        <time>2020-10-09T16:07:22.000Z</time>
      </trkpt>
      <trkpt lat="43.60973" lon="3.83797">
        <ele>61</ele>
        <time>2020-10-09T16:07:23.000Z</time>
      </trkpt>
      <trkpt lat="43.60972" lon="3.83804">
        <ele>61</ele>
        <time>2020-10-09T16:07:24.000Z</time>
      </trkpt>
      <trkpt lat="43.60971" lon="3.83811">
        <ele>61</ele>
        <time>2020-10-09T16:07:25.000Z</time>
      </trkpt>
      <trkpt lat="43.6097" lon="3.83819">
        <ele>61</ele>
        <time>2020-10-09T16:07:26.000Z</time>
      </trkpt>
      <trkpt lat="43.60968" lon="3.83826">
        <ele>61</ele>
        <time>2020-10-09T16:07:27.000Z</time>
      </trkpt>
      <trkpt lat="43.60967" lon="3.83833">
        <ele>61</ele>
        <time>2020-10-09T16:07:28.000Z</time>
      </trkpt>
      <trkpt lat="43.60966" lon="3.8384">
        <ele>61</ele>
        <time>2020-10-09T16:07:29.000Z</time>
      </trkpt>
      <trkpt lat="43.60965" lon="3.83847">
        <ele>61</ele>
        <time>2020-10-09T16:07:30.000Z</time>
      </trkpt>
      <trkpt lat="43.60963" lon="3.83854">
        <ele>61</ele>
        <time>2020-10-09T16:07:31.000Z</time>
      </trkpt>
      <trkpt lat="43.60962" lon="3.83862">
        <ele>61</ele>
        <time>2020-10-09T16:07:32.000Z</time>
      </trkpt>
      <trkpt lat="43.6096" lon="3.83869">
        <ele>61</ele>
        <time>2020-10-09T16:07:33.000Z</time>
      </trkpt>
      <trkpt lat="43.60958" lon="3.83876">
        <ele>61</ele>
        <time>2020-10-09T16:07:34.000Z</time>
      </trkpt>
      <trkpt lat="43.60956" lon="3.83884">
        <ele>61</ele>
        <time>2020-10-09T16:07:35.000Z</time>
      </trkpt>
      <trkpt lat="43.60954" lon="3.83891">
        <ele>60.898551319951</ele>
        <time>2020-10-09T16:07:36.000Z</time>
      </trkpt>
      <trkpt lat="43.60952" lon="3.83899">
        <ele>60.79503158263</ele>
        <time>2020-10-09T16:07:37.000Z</time>
      </trkpt>
      <trkpt lat="43.60951" lon="3.83907">
        <ele>60.691511845308</ele>
        <time>2020-10-09T16:07:38.000Z</time>
      </trkpt>
      <trkpt lat="43.60949" lon="3.83915">
        <ele>60.587992107987</ele>
        <time>2020-10-09T16:07:39.000Z</time>
      </trkpt>
      <trkpt lat="43.60948" lon="3.83923">
        <ele>60.484472370665</ele>
        <time>2020-10-09T16:07:40.000Z</time>
      </trkpt>
      <trkpt lat="43.60946" lon="3.83931">
        <ele>60.380952633343</ele>
        <time>2020-10-09T16:07:41.000Z</time>
      </trkpt>
      <trkpt lat="43.60945" lon="3.8394">
        <ele>60.277432896022</ele>
        <time>2020-10-09T16:07:42.000Z</time>
      </trkpt>
      <trkpt lat="43.60943" lon="3.83948">
        <ele>60.1739131587</ele>
        <time>2020-10-09T16:07:43.000Z</time>
      </trkpt>
      <trkpt lat="43.60942" lon="3.83956">
        <ele>60.070393421379</ele>
        <time>2020-10-09T16:07:44.000Z</time>
      </trkpt>
      <trkpt lat="43.60941" lon="3.83964">
        <ele>60.031037817719</ele>
        <time>2020-10-09T16:07:45.000Z</time>
      </trkpt>
      <trkpt lat="43.60939" lon="3.83971">
        <ele>60.128030998089</ele>
        <time>2020-10-09T16:07:46.000Z</time>
      </trkpt>
      <trkpt lat="43.60938" lon="3.83979">
        <ele>60.22502417846</ele>
        <time>2020-10-09T16:07:47.000Z</time>
      </trkpt>
      <trkpt lat="43.60937" lon="3.83986">
        <ele>60.322017358831</ele>
        <time>2020-10-09T16:07:48.000Z</time>
      </trkpt>
      <trkpt lat="43.60936" lon="3.83993">
        <ele>60.419010539201</ele>
        <time>2020-10-09T16:07:49.000Z</time>
      </trkpt>
      <trkpt lat="43.60935" lon="3.84">
        <ele>60.516003719572</ele>
        <time>2020-10-09T16:07:50.000Z</time>
      </trkpt>
      <trkpt lat="43.60936" lon="3.84008">
        <ele>60.612996899943</ele>
        <time>2020-10-09T16:07:51.000Z</time>
      </trkpt>
      <trkpt lat="43.60936" lon="3.84015">
        <ele>60.709990080314</ele>
        <time>2020-10-09T16:07:52.000Z</time>
      </trkpt>
      <trkpt lat="43.60937" lon="3.84022">
        <ele>60.806983260684</ele>
        <time>2020-10-09T16:07:53.000Z</time>
      </trkpt>
      <trkpt lat="43.60936" lon="3.84029">
        <ele>60.903976441055</ele>
        <time>2020-10-09T16:07:54.000Z</time>
      </trkpt>
      <trkpt lat="43.60935" lon="3.84036">
        <ele>61</ele>
        <time>2020-10-09T16:07:55.000Z</time>
      </trkpt>
      <trkpt lat="43.60932" lon="3.84042">
        <ele>61</ele>
        <time>2020-10-09T16:07:56.000Z</time>
      </trkpt>
      <trkpt lat="43.60929" lon="3.84048">
        <ele>61</ele>
        <time>2020-10-09T16:07:57.000Z</time>
      </trkpt>
      <trkpt lat="43.60926" lon="3.84054">
        <ele>61</ele>
        <time>2020-10-09T16:07:58.000Z</time>
      </trkpt>
      <trkpt lat="43.60923" lon="3.8406">
        <ele>61</ele>
        <time>2020-10-09T16:07:59.000Z</time>
      </trkpt>
      <trkpt lat="43.60921" lon="3.84067">
        <ele>61</ele>
        <time>2020-10-09T16:08:00.000Z</time>
      </trkpt>
      <trkpt lat="43.6092" lon="3.84074">
        <ele>61</ele>
        <time>2020-10-09T16:08:01.000Z</time>
      </trkpt>
      <trkpt lat="43.60918" lon="3.84081">
        <ele>61</ele>
        <time>2020-10-09T16:08:02.000Z</time>
      </trkpt>
      <trkpt lat="43.60917" lon="3.84088">
        <ele>61</ele>
        <time>2020-10-09T16:08:03.000Z</time>
      </trkpt>
      <trkpt lat="43.60915" lon="3.84096">
        <ele>61</ele>
        <time>2020-10-09T16:08:04.000Z</time>
      </trkpt>
      <trkpt lat="43.60914" lon="3.84103">
        <ele>61</ele>
        <time>2020-10-09T16:08:05.000Z</time>
      </trkpt>
      <trkpt lat="43.60913" lon="3.84111">
        <ele>61</ele>
        <time>2020-10-09T16:08:06.000Z</time>
      </trkpt>
      <trkpt lat="43.60911" lon="3.84118">
        <ele>61</ele>
        <time>2020-10-09T16:08:07.000Z</time>
      </trkpt>
      <trkpt lat="43.60909" lon="3.84126">
        <ele>61</ele>
        <time>2020-10-09T16:08:08.000Z</time>
      </trkpt>
      <trkpt lat="43.60907" lon="3.84133">
        <ele>61</ele>
        <time>2020-10-09T16:08:09.000Z</time>
      </trkpt>
      <trkpt lat="43.60906" lon="3.8414">
        <ele>61</ele>
        <time>2020-10-09T16:08:10.000Z</time>
      </trkpt>
      <trkpt lat="43.60904" lon="3.84148">
        <ele>61</ele>
        <time>2020-10-09T16:08:11.000Z</time>
      </trkpt>
      <trkpt lat="43.60903" lon="3.84156">
        <ele>61</ele>
        <time>2020-10-09T16:08:12.000Z</time>
      </trkpt>
      <trkpt lat="43.60903" lon="3.84164">
        <ele>61</ele>
        <time>2020-10-09T16:08:13.000Z</time>
      </trkpt>
      <trkpt lat="43.60902" lon="3.84172">
        <ele>61</ele>
        <time>2020-10-09T16:08:14.000Z</time>
      </trkpt>
      <trkpt lat="43.60902" lon="3.8418">
        <ele>61</ele>
        <time>2020-10-09T16:08:15.000Z</time>
      </trkpt>
      <trkpt lat="43.60902" lon="3.84188">
        <ele>61</ele>
        <time>2020-10-09T16:08:16.000Z</time>
      </trkpt>
      <trkpt lat="43.60901" lon="3.84196">
        <ele>61</ele>
        <time>2020-10-09T16:08:17.000Z</time>
      </trkpt>
      <trkpt lat="43.60901" lon="3.84204">
        <ele>61</ele>
        <time>2020-10-09T16:08:18.000Z</time>
      </trkpt>
      <trkpt lat="43.60902" lon="3.84213">
        <ele>61</ele>
        <time>2020-10-09T16:08:19.000Z</time>
      </trkpt>
      <trkpt lat="43.60902" lon="3.84221">
        <ele>61</ele>
        <time>2020-10-09T16:08:20.000Z</time>
      </trkpt>
      <trkpt lat="43.60902" lon="3.84229">
        <ele>61</ele>
        <time>2020-10-09T16:08:21.000Z</time>
      </trkpt>
      <trkpt lat="43.60903" lon="3.84238">
        <ele>61</ele>
        <time>2020-10-09T16:08:22.000Z</time>
      </trkpt>
      <trkpt lat="43.60904" lon="3.84246">
        <ele>61</ele>
        <time>2020-10-09T16:08:23.000Z</time>
      </trkpt>
      <trkpt lat="43.60904" lon="3.84255">
        <ele>61</ele>
        <time>2020-10-09T16:08:24.000Z</time>
      </trkpt>
      <trkpt lat="43.60905" lon="3.84263">
        <ele>61.032</ele>
        <time>2020-10-09T16:08:25.000Z</time>
      </trkpt>
      <trkpt lat="43.60905" lon="3.84271">
        <ele>61.132</ele>
        <time>2020-10-09T16:08:26.000Z</time>
      </trkpt>
      <trkpt lat="43.60905" lon="3.84279">
        <ele>61.232</ele>
        <time>2020-10-09T16:08:27.000Z</time>
      </trkpt>
      <trkpt lat="43.60905" lon="3.84287">
        <ele>61.332</ele>
        <time>2020-10-09T16:08:28.000Z</time>
      </trkpt>
      <trkpt lat="43.60904" lon="3.84294">
        <ele>61.432</ele>
        <time>2020-10-09T16:08:29.000Z</time>
      </trkpt>
      <trkpt lat="43.60904" lon="3.84302">
        <ele>61.532</ele>
        <time>2020-10-09T16:08:30.000Z</time>
      </trkpt>
      <trkpt lat="43.60903" lon="3.84309">
        <ele>61.632</ele>
        <time>2020-10-09T16:08:31.000Z</time>
      </trkpt>
      <trkpt lat="43.60903" lon="3.84317">
        <ele>61.732</ele>
        <time>2020-10-09T16:08:32.000Z</time>
      </trkpt>
      <trkpt lat="43.60902" lon="3.84324">
        <ele>61.832</ele>
        <time>2020-10-09T16:08:33.000Z</time>
      </trkpt>
      <trkpt lat="43.60901" lon="3.84332">
        <ele>61.932</ele>
        <time>2020-10-09T16:08:34.000Z</time>
      </trkpt>
      <trkpt lat="43.609" lon="3.84339">
        <ele>62</ele>
        <time>2020-10-09T16:08:35.000Z</time>
      </trkpt>
      <trkpt lat="43.609" lon="3.84347">
        <ele>62</ele>
        <time>2020-10-09T16:08:36.000Z</time>
      </trkpt>
      <trkpt lat="43.60899" lon="3.84354">
        <ele>62</ele>
        <time>2020-10-09T16:08:37.000Z</time>
      </trkpt>
      <trkpt lat="43.60899" lon="3.84362">
        <ele>62</ele>
        <time>2020-10-09T16:08:38.000Z</time>
      </trkpt>
      <trkpt lat="43.60899" lon="3.84369">
        <ele>62</ele>
        <time>2020-10-09T16:08:39.000Z</time>
      </trkpt>
      <trkpt lat="43.60899" lon="3.84377">
        <ele>62</ele>
        <time>2020-10-09T16:08:40.000Z</time>
      </trkpt>
      <trkpt lat="43.60899" lon="3.84384">
        <ele>62</ele>
        <time>2020-10-09T16:08:41.000Z</time>
      </trkpt>
      <trkpt lat="43.60899" lon="3.84391">
        <ele>62</ele>
        <time>2020-10-09T16:08:42.000Z</time>
      </trkpt>
      <trkpt lat="43.609" lon="3.84397">
        <ele>62</ele>
        <time>2020-10-09T16:08:43.000Z</time>
      </trkpt>
      <trkpt lat="43.60901" lon="3.84404">
        <ele>62</ele>
        <time>2020-10-09T16:08:44.000Z</time>
      </trkpt>
      <trkpt lat="43.60902" lon="3.84411">
        <ele>62.030059498235</ele>
        <time>2020-10-09T16:08:45.000Z</time>
      </trkpt>
      <trkpt lat="43.60902" lon="3.84417">
        <ele>62.130259963293</ele>
        <time>2020-10-09T16:08:46.000Z</time>
      </trkpt>
      <trkpt lat="43.60902" lon="3.84424">
        <ele>62.230460428351</ele>
        <time>2020-10-09T16:08:47.000Z</time>
      </trkpt>
      <trkpt lat="43.60901" lon="3.84431">
        <ele>62.33066089341</ele>
        <time>2020-10-09T16:08:48.000Z</time>
      </trkpt>
      <trkpt lat="43.609" lon="3.84437">
        <ele>62.430861358468</ele>
        <time>2020-10-09T16:08:49.000Z</time>
      </trkpt>
      <trkpt lat="43.60899" lon="3.84444">
        <ele>62.531061823527</ele>
        <time>2020-10-09T16:08:50.000Z</time>
      </trkpt>
      <trkpt lat="43.60898" lon="3.84451">
        <ele>62.631262288585</ele>
        <time>2020-10-09T16:08:51.000Z</time>
      </trkpt>
      <trkpt lat="43.60897" lon="3.84457">
        <ele>62.731462753643</ele>
        <time>2020-10-09T16:08:52.000Z</time>
      </trkpt>
      <trkpt lat="43.60897" lon="3.84464">
        <ele>62.831663218702</ele>
        <time>2020-10-09T16:08:53.000Z</time>
      </trkpt>
      <trkpt lat="43.60897" lon="3.8447">
        <ele>62.93186368376</ele>
        <time>2020-10-09T16:08:54.000Z</time>
      </trkpt>
      <trkpt lat="43.60896" lon="3.84477">
        <ele>63.032</ele>
        <time>2020-10-09T16:08:55.000Z</time>
      </trkpt>
      <trkpt lat="43.60896" lon="3.84483">
        <ele>63.132</ele>
        <time>2020-10-09T16:08:56.000Z</time>
      </trkpt>
      <trkpt lat="43.60897" lon="3.8449">
        <ele>63.232</ele>
        <time>2020-10-09T16:08:57.000Z</time>
      </trkpt>
      <trkpt lat="43.60897" lon="3.84496">
        <ele>63.332</ele>
        <time>2020-10-09T16:08:58.000Z</time>
      </trkpt>
      <trkpt lat="43.60897" lon="3.84502">
        <ele>63.432</ele>
        <time>2020-10-09T16:08:59.000Z</time>
      </trkpt>
      <trkpt lat="43.60897" lon="3.84509">
        <ele>63.532</ele>
        <time>2020-10-09T16:09:00.000Z</time>
      </trkpt>
      <trkpt lat="43.60897" lon="3.84515">
        <ele>63.632</ele>
        <time>2020-10-09T16:09:01.000Z</time>
      </trkpt>
      <trkpt lat="43.60898" lon="3.84521">
        <ele>63.732</ele>
        <time>2020-10-09T16:09:02.000Z</time>
      </trkpt>
      <trkpt lat="43.60899" lon="3.84526">
        <ele>63.832</ele>
        <time>2020-10-09T16:09:03.000Z</time>
      </trkpt>
      <trkpt lat="43.60899" lon="3.84532">
        <ele>63.932</ele>
        <time>2020-10-09T16:09:04.000Z</time>
      </trkpt>
      <trkpt lat="43.609" lon="3.84538">
        <ele>64.031007751938</ele>
        <time>2020-10-09T16:09:05.000Z</time>
      </trkpt>
      <trkpt lat="43.609" lon="3.84544">
        <ele>64.127906976744</ele>
        <time>2020-10-09T16:09:06.000Z</time>
      </trkpt>
      <trkpt lat="43.609" lon="3.8455">
        <ele>64.22480620155</ele>
        <time>2020-10-09T16:09:07.000Z</time>
      </trkpt>
      <trkpt lat="43.609" lon="3.84556">
        <ele>64.321705426357</ele>
        <time>2020-10-09T16:09:08.000Z</time>
      </trkpt>
      <trkpt lat="43.609" lon="3.84562">
        <ele>64.418604651163</ele>
        <time>2020-10-09T16:09:09.000Z</time>
      </trkpt>
      <trkpt lat="43.609" lon="3.84568">
        <ele>64.515503875969</ele>
        <time>2020-10-09T16:09:10.000Z</time>
      </trkpt>
      <trkpt lat="43.60901" lon="3.84575">
        <ele>64.612403100775</ele>
        <time>2020-10-09T16:09:11.000Z</time>
      </trkpt>
      <trkpt lat="43.60901" lon="3.84581">
        <ele>64.709302325581</ele>
        <time>2020-10-09T16:09:12.000Z</time>
      </trkpt>
      <trkpt lat="43.60901" lon="3.84587">
        <ele>64.806201550388</ele>
        <time>2020-10-09T16:09:13.000Z</time>
      </trkpt>
      <trkpt lat="43.60901" lon="3.84593">
        <ele>64.903100775194</ele>
        <time>2020-10-09T16:09:14.000Z</time>
      </trkpt>
      <trkpt lat="43.609" lon="3.84599">
        <ele>65</ele>
        <time>2020-10-09T16:09:15.000Z</time>
      </trkpt>
      <trkpt lat="43.60899" lon="3.84605">
        <ele>65.103305785124</ele>
        <time>2020-10-09T16:09:16.000Z</time>
      </trkpt>
      <trkpt lat="43.60898" lon="3.84611">
        <ele>65.206611570248</ele>
        <time>2020-10-09T16:09:17.000Z</time>
      </trkpt>
      <trkpt lat="43.60897" lon="3.84617">
        <ele>65.309917355372</ele>
        <time>2020-10-09T16:09:18.000Z</time>
      </trkpt>
      <trkpt lat="43.60895" lon="3.84622">
        <ele>65.413223140496</ele>
        <time>2020-10-09T16:09:19.000Z</time>
      </trkpt>
      <trkpt lat="43.60894" lon="3.84628">
        <ele>65.51652892562</ele>
        <time>2020-10-09T16:09:20.000Z</time>
      </trkpt>
      <trkpt lat="43.60894" lon="3.84634">
        <ele>65.619834710744</ele>
        <time>2020-10-09T16:09:21.000Z</time>
      </trkpt>
      <trkpt lat="43.60893" lon="3.8464">
        <ele>65.723140495868</ele>
        <time>2020-10-09T16:09:22.000Z</time>
      </trkpt>
      <trkpt lat="43.60893" lon="3.84646">
        <ele>65.826446280992</ele>
        <time>2020-10-09T16:09:23.000Z</time>
      </trkpt>
      <trkpt lat="43.60893" lon="3.84652">
        <ele>65.929752066116</ele>
        <time>2020-10-09T16:09:24.000Z</time>
      </trkpt>
      <trkpt lat="43.60893" lon="3.84658">
        <ele>66.032</ele>
        <time>2020-10-09T16:09:25.000Z</time>
      </trkpt>
      <trkpt lat="43.60892" lon="3.84664">
        <ele>66.132</ele>
        <time>2020-10-09T16:09:26.000Z</time>
      </trkpt>
      <trkpt lat="43.60892" lon="3.8467">
        <ele>66.232</ele>
        <time>2020-10-09T16:09:27.000Z</time>
      </trkpt>
      <trkpt lat="43.60893" lon="3.84676">
        <ele>66.332</ele>
        <time>2020-10-09T16:09:28.000Z</time>
      </trkpt>
      <trkpt lat="43.60892" lon="3.84682">
        <ele>66.432</ele>
        <time>2020-10-09T16:09:29.000Z</time>
      </trkpt>
      <trkpt lat="43.60892" lon="3.84688">
        <ele>66.532</ele>
        <time>2020-10-09T16:09:30.000Z</time>
      </trkpt>
      <trkpt lat="43.60892" lon="3.84694">
        <ele>66.632</ele>
        <time>2020-10-09T16:09:31.000Z</time>
      </trkpt>
      <trkpt lat="43.60892" lon="3.847">
        <ele>66.732</ele>
        <time>2020-10-09T16:09:32.000Z</time>
      </trkpt>
      <trkpt lat="43.60891" lon="3.84706">
        <ele>66.832</ele>
        <time>2020-10-09T16:09:33.000Z</time>
      </trkpt>
      <trkpt lat="43.60891" lon="3.84713">
        <ele>66.932</ele>
        <time>2020-10-09T16:09:34.000Z</time>
      </trkpt>
      <trkpt lat="43.60891" lon="3.84719">
        <ele>67.031936107346</ele>
        <time>2020-10-09T16:09:35.000Z</time>
      </trkpt>
      <trkpt lat="43.60891" lon="3.84726">
        <ele>67.131736442803</ele>
        <time>2020-10-09T16:09:36.000Z</time>
      </trkpt>
      <trkpt lat="43.6089" lon="3.84732">
        <ele>67.23153677826</ele>
        <time>2020-10-09T16:09:37.000Z</time>
      </trkpt>
      <trkpt lat="43.60891" lon="3.84738">
        <ele>67.331337113717</ele>
        <time>2020-10-09T16:09:38.000Z</time>
      </trkpt>
      <trkpt lat="43.60891" lon="3.84744">
        <ele>67.431137449174</ele>
        <time>2020-10-09T16:09:39.000Z</time>
      </trkpt>
      <trkpt lat="43.60891" lon="3.84749">
        <ele>67.530937784631</ele>
        <time>2020-10-09T16:09:40.000Z</time>
      </trkpt>
      <trkpt lat="43.60891" lon="3.84754">
        <ele>67.630738120087</ele>
        <time>2020-10-09T16:09:41.000Z</time>
      </trkpt>
      <trkpt lat="43.60891" lon="3.84757">
        <ele>67.730538455544</ele>
        <time>2020-10-09T16:09:42.000Z</time>
      </trkpt>
      <trkpt lat="43.60893" lon="3.84759">
        <ele>68</ele>
        <time>2020-10-09T16:09:45.000Z</time>
      </trkpt>
      <trkpt lat="43.60894" lon="3.84762">
        <ele>68</ele>
        <time>2020-10-09T16:09:47.000Z</time>
      </trkpt>
      <trkpt lat="43.60895" lon="3.84764">
        <ele>68</ele>
        <time>2020-10-09T16:09:48.000Z</time>
      </trkpt>
      <trkpt lat="43.60894" lon="3.84768">
        <ele>68</ele>
        <time>2020-10-09T16:09:49.000Z</time>
      </trkpt>
      <trkpt lat="43.60892" lon="3.84772">
        <ele>68</ele>
        <time>2020-10-09T16:09:50.000Z</time>
      </trkpt>
      <trkpt lat="43.6089" lon="3.84776">
        <ele>68</ele>
        <time>2020-10-09T16:09:51.000Z</time>
      </trkpt>
      <trkpt lat="43.60888" lon="3.8478">
        <ele>68</ele>
        <time>2020-10-09T16:09:52.000Z</time>
      </trkpt>
      <trkpt lat="43.60888" lon="3.84784">
        <ele>68</ele>
        <time>2020-10-09T16:09:53.000Z</time>
      </trkpt>
      <trkpt lat="43.60889" lon="3.84787">
        <ele>68</ele>
        <time>2020-10-09T16:09:54.000Z</time>
      </trkpt>
      <trkpt lat="43.60892" lon="3.84791">
        <ele>68</ele>
        <time>2020-10-09T16:09:55.000Z</time>
      </trkpt>
      <trkpt lat="43.60895" lon="3.84794">
        <ele>68</ele>
        <time>2020-10-09T16:09:56.000Z</time>
      </trkpt>
      <trkpt lat="43.60899" lon="3.84798">
        <ele>68</ele>
        <time>2020-10-09T16:09:57.000Z</time>
      </trkpt>
      <trkpt lat="43.60906" lon="3.84807">
        <ele>68</ele>
        <time>2020-10-09T16:09:59.000Z</time>
      </trkpt>
      <trkpt lat="43.6091" lon="3.84811">
        <ele>68</ele>
        <time>2020-10-09T16:10:00.000Z</time>
      </trkpt>
      <trkpt lat="43.60913" lon="3.84816">
        <ele>68</ele>
        <time>2020-10-09T16:10:01.000Z</time>
      </trkpt>
      <trkpt lat="43.60916" lon="3.84821">
        <ele>68</ele>
        <time>2020-10-09T16:10:02.000Z</time>
      </trkpt>
      <trkpt lat="43.6092" lon="3.84826">
        <ele>68</ele>
        <time>2020-10-09T16:10:03.000Z</time>
      </trkpt>
      <trkpt lat="43.60927" lon="3.84835">
        <ele>68</ele>
        <time>2020-10-09T16:10:05.000Z</time>
      </trkpt>
      <trkpt lat="43.60937" lon="3.84849">
        <ele>68</ele>
        <time>2020-10-09T16:10:08.000Z</time>
      </trkpt>
      <trkpt lat="43.60943" lon="3.84865">
        <ele>68</ele>
        <time>2020-10-09T16:10:11.000Z</time>
      </trkpt>
      <trkpt lat="43.60946" lon="3.84871">
        <ele>68</ele>
        <time>2020-10-09T16:10:12.000Z</time>
      </trkpt>
      <trkpt lat="43.60948" lon="3.84877">
        <ele>68</ele>
        <time>2020-10-09T16:10:13.000Z</time>
      </trkpt>
      <trkpt lat="43.60951" lon="3.84883">
        <ele>68</ele>
        <time>2020-10-09T16:10:14.000Z</time>
      </trkpt>
      <trkpt lat="43.60954" lon="3.84889">
        <ele>68</ele>
        <time>2020-10-09T16:10:15.000Z</time>
      </trkpt>
      <trkpt lat="43.60957" lon="3.84895">
        <ele>68</ele>
        <time>2020-10-09T16:10:16.000Z</time>
      </trkpt>
      <trkpt lat="43.60959" lon="3.84901">
        <ele>68</ele>
        <time>2020-10-09T16:10:17.000Z</time>
      </trkpt>
      <trkpt lat="43.60963" lon="3.84906">
        <ele>68</ele>
        <time>2020-10-09T16:10:18.000Z</time>
      </trkpt>
      <trkpt lat="43.60966" lon="3.84912">
        <ele>68</ele>
        <time>2020-10-09T16:10:19.000Z</time>
      </trkpt>
      <trkpt lat="43.6097" lon="3.84917">
        <ele>68</ele>
        <time>2020-10-09T16:10:20.000Z</time>
      </trkpt>
      <trkpt lat="43.60974" lon="3.84921">
        <ele>68</ele>
        <time>2020-10-09T16:10:21.000Z</time>
      </trkpt>
      <trkpt lat="43.60978" lon="3.84926">
        <ele>68</ele>
        <time>2020-10-09T16:10:22.000Z</time>
      </trkpt>
      <trkpt lat="43.60983" lon="3.8493">
        <ele>68</ele>
        <time>2020-10-09T16:10:23.000Z</time>
      </trkpt>
      <trkpt lat="43.60988" lon="3.84934">
        <ele>68</ele>
        <time>2020-10-09T16:10:24.000Z</time>
      </trkpt>
      <trkpt lat="43.60993" lon="3.84937">
        <ele>68</ele>
        <time>2020-10-09T16:10:25.000Z</time>
      </trkpt>
      <trkpt lat="43.60998" lon="3.84941">
        <ele>68</ele>
        <time>2020-10-09T16:10:26.000Z</time>
      </trkpt>
      <trkpt lat="43.61003" lon="3.84944">
        <ele>68</ele>
        <time>2020-10-09T16:10:27.000Z</time>
      </trkpt>
      <trkpt lat="43.61009" lon="3.84948">
        <ele>68</ele>
        <time>2020-10-09T16:10:28.000Z</time>
      </trkpt>
      <trkpt lat="43.61014" lon="3.84953">
        <ele>68</ele>
        <time>2020-10-09T16:10:29.000Z</time>
      </trkpt>
      <trkpt lat="43.61018" lon="3.84958">
        <ele>68</ele>
        <time>2020-10-09T16:10:30.000Z</time>
      </trkpt>
      <trkpt lat="43.61022" lon="3.84963">
        <ele>68</ele>
        <time>2020-10-09T16:10:31.000Z</time>
      </trkpt>
      <trkpt lat="43.61027" lon="3.84966">
        <ele>68</ele>
        <time>2020-10-09T16:10:32.000Z</time>
      </trkpt>
      <trkpt lat="43.61032" lon="3.84968">
        <ele>68</ele>
        <time>2020-10-09T16:10:33.000Z</time>
      </trkpt>
      <trkpt lat="43.61037" lon="3.84971">
        <ele>68</ele>
        <time>2020-10-09T16:10:34.000Z</time>
      </trkpt>
      <trkpt lat="43.61041" lon="3.84974">
        <ele>67.968</ele>
        <time>2020-10-09T16:10:35.000Z</time>
      </trkpt>
      <trkpt lat="43.61044" lon="3.84977">
        <ele>67.868</ele>
        <time>2020-10-09T16:10:36.000Z</time>
      </trkpt>
      <trkpt lat="43.61045" lon="3.84981">
        <ele>67.768</ele>
        <time>2020-10-09T16:10:37.000Z</time>
      </trkpt>
      <trkpt lat="43.61044" lon="3.84987">
        <ele>67.668</ele>
        <time>2020-10-09T16:10:38.000Z</time>
      </trkpt>
      <trkpt lat="43.61044" lon="3.84993">
        <ele>67.568</ele>
        <time>2020-10-09T16:10:39.000Z</time>
      </trkpt>
      <trkpt lat="43.61043" lon="3.85">
        <ele>67.468</ele>
        <time>2020-10-09T16:10:40.000Z</time>
      </trkpt>
      <trkpt lat="43.61042" lon="3.85007">
        <ele>67.368</ele>
        <time>2020-10-09T16:10:41.000Z</time>
      </trkpt>
      <trkpt lat="43.61041" lon="3.85014">
        <ele>67.268</ele>
        <time>2020-10-09T16:10:42.000Z</time>
      </trkpt>
      <trkpt lat="43.61041" lon="3.85022">
        <ele>67.168</ele>
        <time>2020-10-09T16:10:43.000Z</time>
      </trkpt>
      <trkpt lat="43.6104" lon="3.85029">
        <ele>67.068</ele>
        <time>2020-10-09T16:10:44.000Z</time>
      </trkpt>
      <trkpt lat="43.61039" lon="3.85037">
        <ele>67</ele>
        <time>2020-10-09T16:10:45.000Z</time>
      </trkpt>
      <trkpt lat="43.61038" lon="3.85045">
        <ele>67</ele>
        <time>2020-10-09T16:10:46.000Z</time>
      </trkpt>
      <trkpt lat="43.61038" lon="3.85052">
        <ele>67</ele>
        <time>2020-10-09T16:10:47.000Z</time>
      </trkpt>
      <trkpt lat="43.61037" lon="3.8506">
        <ele>67</ele>
        <time>2020-10-09T16:10:48.000Z</time>
      </trkpt>
      <trkpt lat="43.61036" lon="3.85068">
        <ele>67</ele>
        <time>2020-10-09T16:10:49.000Z</time>
      </trkpt>
      <trkpt lat="43.61035" lon="3.85075">
        <ele>67</ele>
        <time>2020-10-09T16:10:50.000Z</time>
      </trkpt>
      <trkpt lat="43.61034" lon="3.85082">
        <ele>67</ele>
        <time>2020-10-09T16:10:51.000Z</time>
      </trkpt>
      <trkpt lat="43.61033" lon="3.85089">
        <ele>67</ele>
        <time>2020-10-09T16:10:52.000Z</time>
      </trkpt>
      <trkpt lat="43.61032" lon="3.85095">
        <ele>67</ele>
        <time>2020-10-09T16:10:53.000Z</time>
      </trkpt>
      <trkpt lat="43.61031" lon="3.85099">
        <ele>67</ele>
        <time>2020-10-09T16:10:54.000Z</time>
      </trkpt>
      <trkpt lat="43.61031" lon="3.85102">
        <ele>67</ele>
        <time>2020-10-09T16:10:55.000Z</time>
      </trkpt>
      <trkpt lat="43.61031" lon="3.85106">
        <ele>67</ele>
        <time>2020-10-09T16:10:56.000Z</time>
      </trkpt>
      <trkpt lat="43.6103" lon="3.85111">
        <ele>67</ele>
        <time>2020-10-09T16:10:57.000Z</time>
      </trkpt>
      <trkpt lat="43.61029" lon="3.85117">
        <ele>67</ele>
        <time>2020-10-09T16:10:58.000Z</time>
      </trkpt>
      <trkpt lat="43.61028" lon="3.85124">
        <ele>67</ele>
        <time>2020-10-09T16:10:59.000Z</time>
      </trkpt>
      <trkpt lat="43.61027" lon="3.8513">
        <ele>67</ele>
        <time>2020-10-09T16:11:00.000Z</time>
      </trkpt>
      <trkpt lat="43.61026" lon="3.85137">
        <ele>67</ele>
        <time>2020-10-09T16:11:01.000Z</time>
      </trkpt>
      <trkpt lat="43.61025" lon="3.85145">
        <ele>67</ele>
        <time>2020-10-09T16:11:02.000Z</time>
      </trkpt>
      <trkpt lat="43.61024" lon="3.85152">
        <ele>67</ele>
        <time>2020-10-09T16:11:03.000Z</time>
      </trkpt>
      <trkpt lat="43.61024" lon="3.85159">
        <ele>67</ele>
        <time>2020-10-09T16:11:04.000Z</time>
      </trkpt>
      <trkpt lat="43.61023" lon="3.85167">
        <ele>66.968031957812</ele>
        <time>2020-10-09T16:11:05.000Z</time>
      </trkpt>
      <trkpt lat="43.61023" lon="3.85175">
        <ele>66.868131825976</ele>
        <time>2020-10-09T16:11:06.000Z</time>
      </trkpt>
      <trkpt lat="43.61022" lon="3.85183">
        <ele>66.76823169414</ele>
        <time>2020-10-09T16:11:07.000Z</time>
      </trkpt>
      <trkpt lat="43.61021" lon="3.85191">
        <ele>66.668331562304</ele>
        <time>2020-10-09T16:11:08.000Z</time>
      </trkpt>
      <trkpt lat="43.61021" lon="3.85199">
        <ele>66.568431430468</ele>
        <time>2020-10-09T16:11:09.000Z</time>
      </trkpt>
      <trkpt lat="43.6102" lon="3.85208">
        <ele>66.468531298631</ele>
        <time>2020-10-09T16:11:10.000Z</time>
      </trkpt>
      <trkpt lat="43.61021" lon="3.85216">
        <ele>66.368631166795</ele>
        <time>2020-10-09T16:11:11.000Z</time>
      </trkpt>
      <trkpt lat="43.6102" lon="3.85224">
        <ele>66.268731034959</ele>
        <time>2020-10-09T16:11:12.000Z</time>
      </trkpt>
      <trkpt lat="43.6102" lon="3.85232">
        <ele>66.168830903123</ele>
        <time>2020-10-09T16:11:13.000Z</time>
      </trkpt>
      <trkpt lat="43.6102" lon="3.8524">
        <ele>66.068930771287</ele>
        <time>2020-10-09T16:11:14.000Z</time>
      </trkpt>
      <trkpt lat="43.6102" lon="3.85248">
        <ele>65.969844046693</ele>
        <time>2020-10-09T16:11:15.000Z</time>
      </trkpt>
      <trkpt lat="43.6102" lon="3.85256">
        <ele>65.872567782101</ele>
        <time>2020-10-09T16:11:16.000Z</time>
      </trkpt>
      <trkpt lat="43.61019" lon="3.85265">
        <ele>65.77529151751</ele>
        <time>2020-10-09T16:11:17.000Z</time>
      </trkpt>
      <trkpt lat="43.61019" lon="3.85273">
        <ele>65.678015252918</ele>
        <time>2020-10-09T16:11:18.000Z</time>
      </trkpt>
      <trkpt lat="43.61019" lon="3.85281">
        <ele>65.580738988327</ele>
        <time>2020-10-09T16:11:19.000Z</time>
      </trkpt>
      <trkpt lat="43.61019" lon="3.85289">
        <ele>65.483462723735</ele>
        <time>2020-10-09T16:11:20.000Z</time>
      </trkpt>
      <trkpt lat="43.61019" lon="3.85297">
        <ele>65.386186459144</ele>
        <time>2020-10-09T16:11:21.000Z</time>
      </trkpt>
      <trkpt lat="43.61019" lon="3.85305">
        <ele>65.288910194552</ele>
        <time>2020-10-09T16:11:22.000Z</time>
      </trkpt>
      <trkpt lat="43.61019" lon="3.85311">
        <ele>65.191633929961</ele>
        <time>2020-10-09T16:11:23.000Z</time>
      </trkpt>
      <trkpt lat="43.61019" lon="3.85316">
        <ele>65.09435766537</ele>
        <time>2020-10-09T16:11:24.000Z</time>
      </trkpt>
      <trkpt lat="43.61019" lon="3.85319">
        <ele>65</ele>
        <time>2020-10-09T16:11:25.000Z</time>
      </trkpt>
      <trkpt lat="43.61019" lon="3.85322">
        <ele>65</ele>
        <time>2020-10-09T16:11:26.000Z</time>
      </trkpt>
      <trkpt lat="43.61017" lon="3.85325">
        <ele>65</ele>
        <time>2020-10-09T16:11:28.000Z</time>
      </trkpt>
      <trkpt lat="43.61017" lon="3.85326">
        <ele>65</ele>
        <time>2020-10-09T16:11:36.000Z</time>
      </trkpt>
      <trkpt lat="43.61018" lon="3.85333">
        <ele>65</ele>
        <time>2020-10-09T16:11:53.000Z</time>
      </trkpt>
      <trkpt lat="43.61019" lon="3.85338">
        <ele>64.912814789916</ele>
        <time>2020-10-09T16:11:54.000Z</time>
      </trkpt>
      <trkpt lat="43.61018" lon="3.85344">
        <ele>64.807772773109</ele>
        <time>2020-10-09T16:11:55.000Z</time>
      </trkpt>
      <trkpt lat="43.61018" lon="3.85349">
        <ele>64.702730756303</ele>
        <time>2020-10-09T16:11:56.000Z</time>
      </trkpt>
      <trkpt lat="43.61018" lon="3.85356">
        <ele>64.597688739496</ele>
        <time>2020-10-09T16:11:57.000Z</time>
      </trkpt>
      <trkpt lat="43.61018" lon="3.85363">
        <ele>64.492646722689</ele>
        <time>2020-10-09T16:11:58.000Z</time>
      </trkpt>
      <trkpt lat="43.61018" lon="3.8537">
        <ele>64.387604705882</ele>
        <time>2020-10-09T16:11:59.000Z</time>
      </trkpt>
      <trkpt lat="43.61018" lon="3.85377">
        <ele>64.282562689076</ele>
        <time>2020-10-09T16:12:00.000Z</time>
      </trkpt>
      <trkpt lat="43.61018" lon="3.85384">
        <ele>64.177520672269</ele>
        <time>2020-10-09T16:12:01.000Z</time>
      </trkpt>
      <trkpt lat="43.61018" lon="3.85392">
        <ele>64.072478655462</ele>
        <time>2020-10-09T16:12:02.000Z</time>
      </trkpt>
      <trkpt lat="43.61018" lon="3.854">
        <ele>64</ele>
        <time>2020-10-09T16:12:03.000Z</time>
      </trkpt>
      <trkpt lat="43.61018" lon="3.85408">
        <ele>64</ele>
        <time>2020-10-09T16:12:04.000Z</time>
      </trkpt>
      <trkpt lat="43.61019" lon="3.85416">
        <ele>64</ele>
        <time>2020-10-09T16:12:05.000Z</time>
      </trkpt>
      <trkpt lat="43.6102" lon="3.85425">
        <ele>64</ele>
        <time>2020-10-09T16:12:06.000Z</time>
      </trkpt>
      <trkpt lat="43.6102" lon="3.85433">
        <ele>64</ele>
        <time>2020-10-09T16:12:07.000Z</time>
      </trkpt>
      <trkpt lat="43.61021" lon="3.85442">
        <ele>64</ele>
        <time>2020-10-09T16:12:08.000Z</time>
      </trkpt>
      <trkpt lat="43.61022" lon="3.85451">
        <ele>64</ele>
        <time>2020-10-09T16:12:09.000Z</time>
      </trkpt>
      <trkpt lat="43.61022" lon="3.8546">
        <ele>64</ele>
        <time>2020-10-09T16:12:10.000Z</time>
      </trkpt>
      <trkpt lat="43.61023" lon="3.85469">
        <ele>64</ele>
        <time>2020-10-09T16:12:11.000Z</time>
      </trkpt>
      <trkpt lat="43.61024" lon="3.85477">
        <ele>64</ele>
        <time>2020-10-09T16:12:12.000Z</time>
      </trkpt>
      <trkpt lat="43.61025" lon="3.85486">
        <ele>63.996910073109</ele>
        <time>2020-10-09T16:12:13.000Z</time>
      </trkpt>
      <trkpt lat="43.61025" lon="3.85495">
        <ele>63.893923495308</ele>
        <time>2020-10-09T16:12:14.000Z</time>
      </trkpt>
      <trkpt lat="43.61026" lon="3.85504">
        <ele>63.790936917508</ele>
        <time>2020-10-09T16:12:15.000Z</time>
      </trkpt>
      <trkpt lat="43.61028" lon="3.85513">
        <ele>63.687950339707</ele>
        <time>2020-10-09T16:12:16.000Z</time>
      </trkpt>
      <trkpt lat="43.61029" lon="3.85522">
        <ele>63.584963761907</ele>
        <time>2020-10-09T16:12:17.000Z</time>
      </trkpt>
      <trkpt lat="43.6103" lon="3.85531">
        <ele>63.481977184106</ele>
        <time>2020-10-09T16:12:18.000Z</time>
      </trkpt>
      <trkpt lat="43.61031" lon="3.85541">
        <ele>63.378990606306</ele>
        <time>2020-10-09T16:12:19.000Z</time>
      </trkpt>
      <trkpt lat="43.61032" lon="3.8555">
        <ele>63.276004028505</ele>
        <time>2020-10-09T16:12:20.000Z</time>
      </trkpt>
      <trkpt lat="43.61033" lon="3.85559">
        <ele>63.173017450705</ele>
        <time>2020-10-09T16:12:21.000Z</time>
      </trkpt>
      <trkpt lat="43.61035" lon="3.85569">
        <ele>63.070030872904</ele>
        <time>2020-10-09T16:12:22.000Z</time>
      </trkpt>
      <trkpt lat="43.61035" lon="3.85578">
        <ele>63</ele>
        <time>2020-10-09T16:12:23.000Z</time>
      </trkpt>
      <trkpt lat="43.61037" lon="3.85587">
        <ele>63</ele>
        <time>2020-10-09T16:12:24.000Z</time>
      </trkpt>
      <trkpt lat="43.61038" lon="3.85596">
        <ele>63</ele>
        <time>2020-10-09T16:12:25.000Z</time>
      </trkpt>
      <trkpt lat="43.6104" lon="3.85605">
        <ele>63</ele>
        <time>2020-10-09T16:12:26.000Z</time>
      </trkpt>
      <trkpt lat="43.61041" lon="3.85614">
        <ele>63</ele>
        <time>2020-10-09T16:12:27.000Z</time>
      </trkpt>
      <trkpt lat="43.61042" lon="3.85622">
        <ele>63</ele>
        <time>2020-10-09T16:12:28.000Z</time>
      </trkpt>
      <trkpt lat="43.61043" lon="3.85631">
        <ele>63</ele>
        <time>2020-10-09T16:12:29.000Z</time>
      </trkpt>
      <trkpt lat="43.61043" lon="3.85641">
        <ele>63</ele>
        <time>2020-10-09T16:12:30.000Z</time>
      </trkpt>
      <trkpt lat="43.61044" lon="3.8565">
        <ele>63</ele>
        <time>2020-10-09T16:12:31.000Z</time>
      </trkpt>
      <trkpt lat="43.61045" lon="3.85659">
        <ele>63</ele>
        <time>2020-10-09T16:12:32.000Z</time>
      </trkpt>
      <trkpt lat="43.61046" lon="3.85667">
        <ele>63</ele>
        <time>2020-10-09T16:12:33.000Z</time>
      </trkpt>
      <trkpt lat="43.61047" lon="3.85676">
        <ele>63</ele>
        <time>2020-10-09T16:12:34.000Z</time>
      </trkpt>
      <trkpt lat="43.61048" lon="3.85684">
        <ele>63</ele>
        <time>2020-10-09T16:12:35.000Z</time>
      </trkpt>
      <trkpt lat="43.61048" lon="3.85693">
        <ele>63</ele>
        <time>2020-10-09T16:12:36.000Z</time>
      </trkpt>
      <trkpt lat="43.61049" lon="3.85701">
        <ele>63</ele>
        <time>2020-10-09T16:12:37.000Z</time>
      </trkpt>
      <trkpt lat="43.61049" lon="3.85709">
        <ele>63</ele>
        <time>2020-10-09T16:12:38.000Z</time>
      </trkpt>
      <trkpt lat="43.6105" lon="3.85717">
        <ele>63</ele>
        <time>2020-10-09T16:12:39.000Z</time>
      </trkpt>
      <trkpt lat="43.61051" lon="3.85725">
        <ele>63</ele>
        <time>2020-10-09T16:12:40.000Z</time>
      </trkpt>
      <trkpt lat="43.61051" lon="3.85732">
        <ele>63</ele>
        <time>2020-10-09T16:12:41.000Z</time>
      </trkpt>
      <trkpt lat="43.61052" lon="3.8574">
        <ele>63</ele>
        <time>2020-10-09T16:12:42.000Z</time>
      </trkpt>
      <trkpt lat="43.61053" lon="3.85748">
        <ele>63</ele>
        <time>2020-10-09T16:12:43.000Z</time>
      </trkpt>
      <trkpt lat="43.61054" lon="3.85756">
        <ele>63</ele>
        <time>2020-10-09T16:12:44.000Z</time>
      </trkpt>
      <trkpt lat="43.61055" lon="3.85764">
        <ele>63</ele>
        <time>2020-10-09T16:12:45.000Z</time>
      </trkpt>
      <trkpt lat="43.61056" lon="3.85772">
        <ele>63</ele>
        <time>2020-10-09T16:12:46.000Z</time>
      </trkpt>
      <trkpt lat="43.61056" lon="3.8578">
        <ele>63</ele>
        <time>2020-10-09T16:12:47.000Z</time>
      </trkpt>
      <trkpt lat="43.61057" lon="3.85788">
        <ele>63</ele>
        <time>2020-10-09T16:12:48.000Z</time>
      </trkpt>
      <trkpt lat="43.61057" lon="3.85796">
        <ele>63</ele>
        <time>2020-10-09T16:12:49.000Z</time>
      </trkpt>
      <trkpt lat="43.61056" lon="3.85804">
        <ele>63</ele>
        <time>2020-10-09T16:12:50.000Z</time>
      </trkpt>
      <trkpt lat="43.61056" lon="3.85812">
        <ele>63</ele>
        <time>2020-10-09T16:12:51.000Z</time>
      </trkpt>
      <trkpt lat="43.61055" lon="3.8582">
        <ele>63</ele>
        <time>2020-10-09T16:12:52.000Z</time>
      </trkpt>
      <trkpt lat="43.61054" lon="3.85828">
        <ele>62.968</ele>
        <time>2020-10-09T16:12:53.000Z</time>
      </trkpt>
      <trkpt lat="43.61053" lon="3.85836">
        <ele>62.868</ele>
        <time>2020-10-09T16:12:54.000Z</time>
      </trkpt>
      <trkpt lat="43.61051" lon="3.85844">
        <ele>62.768</ele>
        <time>2020-10-09T16:12:55.000Z</time>
      </trkpt>
      <trkpt lat="43.6105" lon="3.85853">
        <ele>62.668</ele>
        <time>2020-10-09T16:12:56.000Z</time>
      </trkpt>
      <trkpt lat="43.61048" lon="3.85861">
        <ele>62.568</ele>
        <time>2020-10-09T16:12:57.000Z</time>
      </trkpt>
      <trkpt lat="43.61046" lon="3.8587">
        <ele>62.468</ele>
        <time>2020-10-09T16:12:58.000Z</time>
      </trkpt>
      <trkpt lat="43.61044" lon="3.85879">
        <ele>62.368</ele>
        <time>2020-10-09T16:12:59.000Z</time>
      </trkpt>
      <trkpt lat="43.61042" lon="3.85888">
        <ele>62.268</ele>
        <time>2020-10-09T16:13:00.000Z</time>
      </trkpt>
      <trkpt lat="43.6104" lon="3.85897">
        <ele>62.168</ele>
        <time>2020-10-09T16:13:01.000Z</time>
      </trkpt>
      <trkpt lat="43.61039" lon="3.85906">
        <ele>62.068</ele>
        <time>2020-10-09T16:13:02.000Z</time>
      </trkpt>
      <trkpt lat="43.61037" lon="3.85915">
        <ele>61.904287169121</ele>
        <time>2020-10-09T16:13:03.000Z</time>
      </trkpt>
      <trkpt lat="43.61035" lon="3.85924">
        <ele>61.605184572623</ele>
        <time>2020-10-09T16:13:04.000Z</time>
      </trkpt>
      <trkpt lat="43.61034" lon="3.85933">
        <ele>61.306081976125</ele>
        <time>2020-10-09T16:13:05.000Z</time>
      </trkpt>
      <trkpt lat="43.61032" lon="3.85943">
        <ele>61.006979379628</ele>
        <time>2020-10-09T16:13:06.000Z</time>
      </trkpt>
      <trkpt lat="43.61031" lon="3.85952">
        <ele>60.70787678313</ele>
        <time>2020-10-09T16:13:07.000Z</time>
      </trkpt>
      <trkpt lat="43.61029" lon="3.85962">
        <ele>60.408774186632</ele>
        <time>2020-10-09T16:13:08.000Z</time>
      </trkpt>
      <trkpt lat="43.61027" lon="3.85971">
        <ele>60.109671590135</ele>
        <time>2020-10-09T16:13:09.000Z</time>
      </trkpt>
      <trkpt lat="43.61026" lon="3.85981">
        <ele>59.810568993637</ele>
        <time>2020-10-09T16:13:10.000Z</time>
      </trkpt>
      <trkpt lat="43.61025" lon="3.85991">
        <ele>59.511466397139</ele>
        <time>2020-10-09T16:13:11.000Z</time>
      </trkpt>
      <trkpt lat="43.61023" lon="3.86001">
        <ele>59.212363800642</ele>
        <time>2020-10-09T16:13:12.000Z</time>
      </trkpt>
      <trkpt lat="43.61021" lon="3.86011">
        <ele>58.941826099683</ele>
        <time>2020-10-09T16:13:13.000Z</time>
      </trkpt>
      <trkpt lat="43.6102" lon="3.86022">
        <ele>58.741224229881</ele>
        <time>2020-10-09T16:13:14.000Z</time>
      </trkpt>
      <trkpt lat="43.61019" lon="3.86032">
        <ele>58.540622360079</ele>
        <time>2020-10-09T16:13:15.000Z</time>
      </trkpt>
      <trkpt lat="43.61018" lon="3.86042">
        <ele>58.340020490277</ele>
        <time>2020-10-09T16:13:16.000Z</time>
      </trkpt>
      <trkpt lat="43.61017" lon="3.86053">
        <ele>58.139418620475</ele>
        <time>2020-10-09T16:13:17.000Z</time>
      </trkpt>
      <trkpt lat="43.61016" lon="3.86064">
        <ele>57.938816750673</ele>
        <time>2020-10-09T16:13:18.000Z</time>
      </trkpt>
      <trkpt lat="43.61015" lon="3.86074">
        <ele>57.738214880871</ele>
        <time>2020-10-09T16:13:19.000Z</time>
      </trkpt>
      <trkpt lat="43.61014" lon="3.86085">
        <ele>57.537613011069</ele>
        <time>2020-10-09T16:13:20.000Z</time>
      </trkpt>
      <trkpt lat="43.61013" lon="3.86096">
        <ele>57.337011141267</ele>
        <time>2020-10-09T16:13:21.000Z</time>
      </trkpt>
      <trkpt lat="43.61012" lon="3.86106">
        <ele>57.136409271465</ele>
        <time>2020-10-09T16:13:22.000Z</time>
      </trkpt>
      <trkpt lat="43.6101" lon="3.86117">
        <ele>56.84</ele>
        <time>2020-10-09T16:13:23.000Z</time>
      </trkpt>
      <trkpt lat="43.61009" lon="3.86128">
        <ele>56.34</ele>
        <time>2020-10-09T16:13:24.000Z</time>
      </trkpt>
      <trkpt lat="43.61008" lon="3.86139">
        <ele>55.84</ele>
        <time>2020-10-09T16:13:25.000Z</time>
      </trkpt>
      <trkpt lat="43.61007" lon="3.8615">
        <ele>55.34</ele>
        <time>2020-10-09T16:13:26.000Z</time>
      </trkpt>
      <trkpt lat="43.61006" lon="3.86161">
        <ele>54.84</ele>
        <time>2020-10-09T16:13:27.000Z</time>
      </trkpt>
      <trkpt lat="43.61005" lon="3.86172">
        <ele>54.34</ele>
        <time>2020-10-09T16:13:28.000Z</time>
      </trkpt>
      <trkpt lat="43.61003" lon="3.86183">
        <ele>53.84</ele>
        <time>2020-10-09T16:13:29.000Z</time>
      </trkpt>
      <trkpt lat="43.61002" lon="3.86194">
        <ele>53.34</ele>
        <time>2020-10-09T16:13:30.000Z</time>
      </trkpt>
      <trkpt lat="43.61001" lon="3.86206">
        <ele>52.84</ele>
        <time>2020-10-09T16:13:31.000Z</time>
      </trkpt>
      <trkpt lat="43.61001" lon="3.86217">
        <ele>52.34</ele>
        <time>2020-10-09T16:13:32.000Z</time>
      </trkpt>
      <trkpt lat="43.60999" lon="3.86228">
        <ele>51.872255570615</ele>
        <time>2020-10-09T16:13:33.000Z</time>
      </trkpt>
      <trkpt lat="43.60998" lon="3.86239">
        <ele>51.473054228788</ele>
        <time>2020-10-09T16:13:34.000Z</time>
      </trkpt>
      <trkpt lat="43.60996" lon="3.8625">
        <ele>51.07385288696</ele>
        <time>2020-10-09T16:13:35.000Z</time>
      </trkpt>
      <trkpt lat="43.60994" lon="3.86261">
        <ele>50.674651545133</ele>
        <time>2020-10-09T16:13:36.000Z</time>
      </trkpt>
      <trkpt lat="43.60993" lon="3.86272">
        <ele>50.275450203305</ele>
        <time>2020-10-09T16:13:37.000Z</time>
      </trkpt>
      <trkpt lat="43.60991" lon="3.86283">
        <ele>49.876248861478</ele>
        <time>2020-10-09T16:13:38.000Z</time>
      </trkpt>
      <trkpt lat="43.6099" lon="3.86294">
        <ele>49.47704751965</ele>
        <time>2020-10-09T16:13:39.000Z</time>
      </trkpt>
      <trkpt lat="43.60989" lon="3.86305">
        <ele>49.077846177823</ele>
        <time>2020-10-09T16:13:40.000Z</time>
      </trkpt>
      <trkpt lat="43.60987" lon="3.86316">
        <ele>48.678644835995</ele>
        <time>2020-10-09T16:13:41.000Z</time>
      </trkpt>
      <trkpt lat="43.60986" lon="3.86327">
        <ele>48.279443494168</ele>
        <time>2020-10-09T16:13:42.000Z</time>
      </trkpt>
      <trkpt lat="43.60984" lon="3.86338">
        <ele>47.909821505296</ele>
        <time>2020-10-09T16:13:43.000Z</time>
      </trkpt>
      <trkpt lat="43.60982" lon="3.86349">
        <ele>47.609220110121</ele>
        <time>2020-10-09T16:13:44.000Z</time>
      </trkpt>
      <trkpt lat="43.60981" lon="3.8636">
        <ele>47.308618714946</ele>
        <time>2020-10-09T16:13:45.000Z</time>
      </trkpt>
      <trkpt lat="43.60979" lon="3.86371">
        <ele>47.008017319771</ele>
        <time>2020-10-09T16:13:46.000Z</time>
      </trkpt>
      <trkpt lat="43.60977" lon="3.86381">
        <ele>46.707415924595</ele>
        <time>2020-10-09T16:13:47.000Z</time>
      </trkpt>
      <trkpt lat="43.60975" lon="3.86392">
        <ele>46.40681452942</ele>
        <time>2020-10-09T16:13:48.000Z</time>
      </trkpt>
      <trkpt lat="43.60974" lon="3.86402">
        <ele>46.106213134245</ele>
        <time>2020-10-09T16:13:49.000Z</time>
      </trkpt>
      <trkpt lat="43.60972" lon="3.86413">
        <ele>45.80561173907</ele>
        <time>2020-10-09T16:13:50.000Z</time>
      </trkpt>
      <trkpt lat="43.6097" lon="3.86423">
        <ele>45.505010343894</ele>
        <time>2020-10-09T16:13:51.000Z</time>
      </trkpt>
      <trkpt lat="43.60969" lon="3.86433">
        <ele>45.204408948719</ele>
        <time>2020-10-09T16:13:52.000Z</time>
      </trkpt>
      <trkpt lat="43.60967" lon="3.86442">
        <ele>44.968</ele>
        <time>2020-10-09T16:13:53.000Z</time>
      </trkpt>
      <trkpt lat="43.60965" lon="3.86449">
        <ele>44.868</ele>
        <time>2020-10-09T16:13:54.000Z</time>
      </trkpt>
      <trkpt lat="43.60964" lon="3.86453">
        <ele>44.768</ele>
        <time>2020-10-09T16:13:55.000Z</time>
      </trkpt>
      <trkpt lat="43.60963" lon="3.86456">
        <ele>44.668</ele>
        <time>2020-10-09T16:13:56.000Z</time>
      </trkpt>
      <trkpt lat="43.60963" lon="3.86458">
        <ele>44.568</ele>
        <time>2020-10-09T16:13:57.000Z</time>
      </trkpt>
      <trkpt lat="43.60963" lon="3.86461">
        <ele>44.468</ele>
        <time>2020-10-09T16:13:58.000Z</time>
      </trkpt>
      <trkpt lat="43.60962" lon="3.86464">
        <ele>44.368</ele>
        <time>2020-10-09T16:13:59.000Z</time>
      </trkpt>
      <trkpt lat="43.60961" lon="3.86468">
        <ele>44.268</ele>
        <time>2020-10-09T16:14:00.000Z</time>
      </trkpt>
      <trkpt lat="43.60959" lon="3.86474">
        <ele>44.168</ele>
        <time>2020-10-09T16:14:01.000Z</time>
      </trkpt>
      <trkpt lat="43.60958" lon="3.86481">
        <ele>44.068</ele>
        <time>2020-10-09T16:14:02.000Z</time>
      </trkpt>
      <trkpt lat="43.60957" lon="3.86489">
        <ele>43.968</ele>
        <time>2020-10-09T16:14:03.000Z</time>
      </trkpt>
      <trkpt lat="43.60955" lon="3.86497">
        <ele>43.868</ele>
        <time>2020-10-09T16:14:04.000Z</time>
      </trkpt>
      <trkpt lat="43.60954" lon="3.86507">
        <ele>43.768</ele>
        <time>2020-10-09T16:14:05.000Z</time>
      </trkpt>
      <trkpt lat="43.60952" lon="3.86517">
        <ele>43.668</ele>
        <time>2020-10-09T16:14:06.000Z</time>
      </trkpt>
      <trkpt lat="43.60951" lon="3.86527">
        <ele>43.568</ele>
        <time>2020-10-09T16:14:07.000Z</time>
      </trkpt>
      <trkpt lat="43.60949" lon="3.86536">
        <ele>43.468</ele>
        <time>2020-10-09T16:14:08.000Z</time>
      </trkpt>
      <trkpt lat="43.60947" lon="3.86546">
        <ele>43.368</ele>
        <time>2020-10-09T16:14:09.000Z</time>
      </trkpt>
      <trkpt lat="43.60946" lon="3.86556">
        <ele>43.268</ele>
        <time>2020-10-09T16:14:10.000Z</time>
      </trkpt>
      <trkpt lat="43.60944" lon="3.86565">
        <ele>43.168</ele>
        <time>2020-10-09T16:14:11.000Z</time>
      </trkpt>
      <trkpt lat="43.60942" lon="3.86575">
        <ele>43.068</ele>
        <time>2020-10-09T16:14:12.000Z</time>
      </trkpt>
      <trkpt lat="43.60941" lon="3.86585">
        <ele>42.904</ele>
        <time>2020-10-09T16:14:13.000Z</time>
      </trkpt>
      <trkpt lat="43.60939" lon="3.86595">
        <ele>42.604</ele>
        <time>2020-10-09T16:14:14.000Z</time>
      </trkpt>
      <trkpt lat="43.60937" lon="3.86604">
        <ele>42.304</ele>
        <time>2020-10-09T16:14:15.000Z</time>
      </trkpt>
      <trkpt lat="43.60936" lon="3.86614">
        <ele>42.004</ele>
        <time>2020-10-09T16:14:16.000Z</time>
      </trkpt>
      <trkpt lat="43.60934" lon="3.86623">
        <ele>41.704</ele>
        <time>2020-10-09T16:14:17.000Z</time>
      </trkpt>
      <trkpt lat="43.60932" lon="3.86633">
        <ele>41.404</ele>
        <time>2020-10-09T16:14:18.000Z</time>
      </trkpt>
      <trkpt lat="43.60931" lon="3.86642">
        <ele>41.104</ele>
        <time>2020-10-09T16:14:19.000Z</time>
      </trkpt>
      <trkpt lat="43.60929" lon="3.86652">
        <ele>40.804</ele>
        <time>2020-10-09T16:14:20.000Z</time>
      </trkpt>
      <trkpt lat="43.60927" lon="3.8666">
        <ele>40.504</ele>
        <time>2020-10-09T16:14:21.000Z</time>
      </trkpt>
      <trkpt lat="43.60926" lon="3.86668">
        <ele>40.204</ele>
        <time>2020-10-09T16:14:22.000Z</time>
      </trkpt>
      <trkpt lat="43.60924" lon="3.86675">
        <ele>40.032</ele>
        <time>2020-10-09T16:14:23.000Z</time>
      </trkpt>
      <trkpt lat="43.60919" lon="3.8669">
        <ele>40.332</ele>
        <time>2020-10-09T16:14:26.000Z</time>
      </trkpt>
      <trkpt lat="43.60911" lon="3.86705">
        <ele>40.632</ele>
        <time>2020-10-09T16:14:29.000Z</time>
      </trkpt>
      <trkpt lat="43.60903" lon="3.86716">
        <ele>40.832</ele>
        <time>2020-10-09T16:14:31.000Z</time>
      </trkpt>
      <trkpt lat="43.60896" lon="3.8673">
        <ele>40.868</ele>
        <time>2020-10-09T16:14:34.000Z</time>
      </trkpt>
      <trkpt lat="43.60891" lon="3.86744">
        <ele>40.568</ele>
        <time>2020-10-09T16:14:37.000Z</time>
      </trkpt>
      <trkpt lat="43.60889" lon="3.86748">
        <ele>40.468</ele>
        <time>2020-10-09T16:14:38.000Z</time>
      </trkpt>
      <trkpt lat="43.60888" lon="3.86752">
        <ele>40.368</ele>
        <time>2020-10-09T16:14:39.000Z</time>
      </trkpt>
      <trkpt lat="43.60885" lon="3.86771">
        <ele>40.068</ele>
        <time>2020-10-09T16:14:42.000Z</time>
      </trkpt>
      <trkpt lat="43.60884" lon="3.86776">
        <ele>39.968</ele>
        <time>2020-10-09T16:14:43.000Z</time>
      </trkpt>
      <trkpt lat="43.60883" lon="3.86782">
        <ele>39.868</ele>
        <time>2020-10-09T16:14:44.000Z</time>
      </trkpt>
      <trkpt lat="43.60883" lon="3.86787">
        <ele>39.768</ele>
        <time>2020-10-09T16:14:45.000Z</time>
      </trkpt>
      <trkpt lat="43.60882" lon="3.86793">
        <ele>39.668</ele>
        <time>2020-10-09T16:14:46.000Z</time>
      </trkpt>
      <trkpt lat="43.60881" lon="3.86799">
        <ele>39.568</ele>
        <time>2020-10-09T16:14:47.000Z</time>
      </trkpt>
      <trkpt lat="43.6088" lon="3.86804">
        <ele>39.468</ele>
        <time>2020-10-09T16:14:48.000Z</time>
      </trkpt>
      <trkpt lat="43.60879" lon="3.8681">
        <ele>39.368</ele>
        <time>2020-10-09T16:14:49.000Z</time>
      </trkpt>
      <trkpt lat="43.60878" lon="3.86815">
        <ele>39.268</ele>
        <time>2020-10-09T16:14:50.000Z</time>
      </trkpt>
      <trkpt lat="43.60877" lon="3.8682">
        <ele>39.168</ele>
        <time>2020-10-09T16:14:51.000Z</time>
      </trkpt>
      <trkpt lat="43.60875" lon="3.86825">
        <ele>39.068</ele>
        <time>2020-10-09T16:14:52.000Z</time>
      </trkpt>
      <trkpt lat="43.60873" lon="3.86831">
        <ele>38.936</ele>
        <time>2020-10-09T16:14:53.000Z</time>
      </trkpt>
      <trkpt lat="43.60872" lon="3.86838">
        <ele>38.736</ele>
        <time>2020-10-09T16:14:54.000Z</time>
      </trkpt>
      <trkpt lat="43.6087" lon="3.86845">
        <ele>38.536</ele>
        <time>2020-10-09T16:14:55.000Z</time>
      </trkpt>
      <trkpt lat="43.60869" lon="3.86852">
        <ele>38.336</ele>
        <time>2020-10-09T16:14:56.000Z</time>
      </trkpt>
      <trkpt lat="43.60868" lon="3.8686">
        <ele>38.136</ele>
        <time>2020-10-09T16:14:57.000Z</time>
      </trkpt>
      <trkpt lat="43.60866" lon="3.86867">
        <ele>37.936</ele>
        <time>2020-10-09T16:14:58.000Z</time>
      </trkpt>
      <trkpt lat="43.60865" lon="3.86875">
        <ele>37.736</ele>
        <time>2020-10-09T16:14:59.000Z</time>
      </trkpt>
      <trkpt lat="43.60865" lon="3.86882">
        <ele>37.536</ele>
        <time>2020-10-09T16:15:00.000Z</time>
      </trkpt>
      <trkpt lat="43.60864" lon="3.8689">
        <ele>37.336</ele>
        <time>2020-10-09T16:15:01.000Z</time>
      </trkpt>
      <trkpt lat="43.60864" lon="3.86897">
        <ele>37.136</ele>
        <time>2020-10-09T16:15:02.000Z</time>
      </trkpt>
      <trkpt lat="43.60864" lon="3.86904">
        <ele>37</ele>
        <time>2020-10-09T16:15:03.000Z</time>
      </trkpt>
      <trkpt lat="43.60862" lon="3.8691">
        <ele>37</ele>
        <time>2020-10-09T16:15:04.000Z</time>
      </trkpt>
      <trkpt lat="43.6086" lon="3.86917">
        <ele>37</ele>
        <time>2020-10-09T16:15:05.000Z</time>
      </trkpt>
      <trkpt lat="43.60859" lon="3.86924">
        <ele>37</ele>
        <time>2020-10-09T16:15:06.000Z</time>
      </trkpt>
      <trkpt lat="43.60857" lon="3.86931">
        <ele>37</ele>
        <time>2020-10-09T16:15:07.000Z</time>
      </trkpt>
      <trkpt lat="43.60857" lon="3.86939">
        <ele>37</ele>
        <time>2020-10-09T16:15:08.000Z</time>
      </trkpt>
      <trkpt lat="43.60857" lon="3.86954">
        <ele>37</ele>
        <time>2020-10-09T16:15:10.000Z</time>
      </trkpt>
      <trkpt lat="43.60856" lon="3.86962">
        <ele>37</ele>
        <time>2020-10-09T16:15:11.000Z</time>
      </trkpt>
      <trkpt lat="43.60855" lon="3.86969">
        <ele>37</ele>
        <time>2020-10-09T16:15:12.000Z</time>
      </trkpt>
      <trkpt lat="43.60854" lon="3.86976">
        <ele>36.968901836782</ele>
        <time>2020-10-09T16:15:13.000Z</time>
      </trkpt>
      <trkpt lat="43.60852" lon="3.86983">
        <ele>36.871720076725</ele>
        <time>2020-10-09T16:15:14.000Z</time>
      </trkpt>
      <trkpt lat="43.60851" lon="3.8699">
        <ele>36.774538316669</ele>
        <time>2020-10-09T16:15:15.000Z</time>
      </trkpt>
      <trkpt lat="43.60851" lon="3.86997">
        <ele>36.677356556612</ele>
        <time>2020-10-09T16:15:16.000Z</time>
      </trkpt>
      <trkpt lat="43.60851" lon="3.87003">
        <ele>36.580174796556</ele>
        <time>2020-10-09T16:15:17.000Z</time>
      </trkpt>
      <trkpt lat="43.60851" lon="3.87009">
        <ele>36.482993036499</ele>
        <time>2020-10-09T16:15:18.000Z</time>
      </trkpt>
      <trkpt lat="43.60849" lon="3.87014">
        <ele>36.385811276443</ele>
        <time>2020-10-09T16:15:19.000Z</time>
      </trkpt>
      <trkpt lat="43.60846" lon="3.87025">
        <ele>36.19144775633</ele>
        <time>2020-10-09T16:15:21.000Z</time>
      </trkpt>
      <trkpt lat="43.60844" lon="3.87035">
        <ele>36.003089926891</ele>
        <time>2020-10-09T16:15:23.000Z</time>
      </trkpt>
      <trkpt lat="43.60844" lon="3.87041">
        <ele>36.106076504692</ele>
        <time>2020-10-09T16:15:24.000Z</time>
      </trkpt>
      <trkpt lat="43.60844" lon="3.87053">
        <ele>36.312049660293</ele>
        <time>2020-10-09T16:15:26.000Z</time>
      </trkpt>
      <trkpt lat="43.60843" lon="3.87059">
        <ele>36.415036238093</ele>
        <time>2020-10-09T16:15:27.000Z</time>
      </trkpt>
      <trkpt lat="43.60841" lon="3.87072">
        <ele>36.621009393694</ele>
        <time>2020-10-09T16:15:29.000Z</time>
      </trkpt>
      <trkpt lat="43.60839" lon="3.87085">
        <ele>36.826982549295</ele>
        <time>2020-10-09T16:15:31.000Z</time>
      </trkpt>
      <trkpt lat="43.60838" lon="3.87099">
        <ele>37</ele>
        <time>2020-10-09T16:15:33.000Z</time>
      </trkpt>
      <trkpt lat="43.60838" lon="3.87112">
        <ele>37</ele>
        <time>2020-10-09T16:15:35.000Z</time>
      </trkpt>
      <trkpt lat="43.60836" lon="3.87125">
        <ele>37</ele>
        <time>2020-10-09T16:15:37.000Z</time>
      </trkpt>
      <trkpt lat="43.60835" lon="3.87142">
        <ele>37</ele>
        <time>2020-10-09T16:15:40.000Z</time>
      </trkpt>
      <trkpt lat="43.60835" lon="3.87147">
        <ele>37</ele>
        <time>2020-10-09T16:15:41.000Z</time>
      </trkpt>
      <trkpt lat="43.60834" lon="3.87157">
        <ele>37</ele>
        <time>2020-10-09T16:15:43.000Z</time>
      </trkpt>
      <trkpt lat="43.60834" lon="3.87162">
        <ele>37</ele>
        <time>2020-10-09T16:15:44.000Z</time>
      </trkpt>
      <trkpt lat="43.60834" lon="3.8717">
        <ele>37</ele>
        <time>2020-10-09T16:15:46.000Z</time>
      </trkpt>
      <trkpt lat="43.60836" lon="3.87181">
        <ele>37</ele>
        <time>2020-10-09T16:15:49.000Z</time>
      </trkpt>
      <trkpt lat="43.60836" lon="3.87185">
        <ele>37</ele>
        <time>2020-10-09T16:15:50.000Z</time>
      </trkpt>
      <trkpt lat="43.60837" lon="3.872">
        <ele>37</ele>
        <time>2020-10-09T16:15:53.000Z</time>
      </trkpt>
      <trkpt lat="43.60843" lon="3.87214">
        <ele>37</ele>
        <time>2020-10-09T16:15:56.000Z</time>
      </trkpt>
      <trkpt lat="43.60847" lon="3.87223">
        <ele>37</ele>
        <time>2020-10-09T16:15:58.000Z</time>
      </trkpt>
      <trkpt lat="43.60849" lon="3.87228">
        <ele>37</ele>
        <time>2020-10-09T16:15:59.000Z</time>
      </trkpt>
      <trkpt lat="43.60851" lon="3.87234">
        <ele>37</ele>
        <time>2020-10-09T16:16:00.000Z</time>
      </trkpt>
      <trkpt lat="43.60852" lon="3.8724">
        <ele>37</ele>
        <time>2020-10-09T16:16:01.000Z</time>
      </trkpt>
      <trkpt lat="43.60854" lon="3.87251">
        <ele>37</ele>
        <time>2020-10-09T16:16:03.000Z</time>
      </trkpt>
      <trkpt lat="43.60855" lon="3.87257">
        <ele>37.079533716383</ele>
        <time>2020-10-09T16:16:04.000Z</time>
      </trkpt>
      <trkpt lat="43.60857" lon="3.87263">
        <ele>37.185578219104</ele>
        <time>2020-10-09T16:16:05.000Z</time>
      </trkpt>
      <trkpt lat="43.60858" lon="3.87269">
        <ele>37.291622721825</ele>
        <time>2020-10-09T16:16:06.000Z</time>
      </trkpt>
      <trkpt lat="43.60859" lon="3.87275">
        <ele>37.397667224546</ele>
        <time>2020-10-09T16:16:07.000Z</time>
      </trkpt>
      <trkpt lat="43.6086" lon="3.8728">
        <ele>37.503711727266</ele>
        <time>2020-10-09T16:16:08.000Z</time>
      </trkpt>
      <trkpt lat="43.60861" lon="3.87285">
        <ele>37.609756229987</ele>
        <time>2020-10-09T16:16:09.000Z</time>
      </trkpt>
      <trkpt lat="43.60862" lon="3.87289">
        <ele>37.715800732708</ele>
        <time>2020-10-09T16:16:10.000Z</time>
      </trkpt>
      <trkpt lat="43.60864" lon="3.87298">
        <ele>38</ele>
        <time>2020-10-09T16:16:13.000Z</time>
      </trkpt>
      <trkpt lat="43.60864" lon="3.87301">
        <ele>38</ele>
        <time>2020-10-09T16:16:14.000Z</time>
      </trkpt>
      <trkpt lat="43.60864" lon="3.87305">
        <ele>38</ele>
        <time>2020-10-09T16:16:15.000Z</time>
      </trkpt>
      <trkpt lat="43.60862" lon="3.87318">
        <ele>38</ele>
        <time>2020-10-09T16:16:18.000Z</time>
      </trkpt>
      <trkpt lat="43.60862" lon="3.87321">
        <ele>38</ele>
        <time>2020-10-09T16:16:19.000Z</time>
      </trkpt>
      <trkpt lat="43.60864" lon="3.87323">
        <ele>38</ele>
        <time>2020-10-09T16:16:20.000Z</time>
      </trkpt>
      <trkpt lat="43.60865" lon="3.87325">
        <ele>38</ele>
        <time>2020-10-09T16:16:21.000Z</time>
      </trkpt>
      <trkpt lat="43.60867" lon="3.87327">
        <ele>38</ele>
        <time>2020-10-09T16:16:22.000Z</time>
      </trkpt>
      <trkpt lat="43.60868" lon="3.87329">
        <ele>38</ele>
        <time>2020-10-09T16:16:23.000Z</time>
      </trkpt>
      <trkpt lat="43.6087" lon="3.87332">
        <ele>38</ele>
        <time>2020-10-09T16:16:24.000Z</time>
      </trkpt>
      <trkpt lat="43.60873" lon="3.87338">
        <ele>38</ele>
        <time>2020-10-09T16:16:26.000Z</time>
      </trkpt>
      <trkpt lat="43.60875" lon="3.87341">
        <ele>38</ele>
        <time>2020-10-09T16:16:27.000Z</time>
      </trkpt>
      <trkpt lat="43.60876" lon="3.87344">
        <ele>38</ele>
        <time>2020-10-09T16:16:28.000Z</time>
      </trkpt>
      <trkpt lat="43.60877" lon="3.87347">
        <ele>38</ele>
        <time>2020-10-09T16:16:29.000Z</time>
      </trkpt>
      <trkpt lat="43.60879" lon="3.8735">
        <ele>38</ele>
        <time>2020-10-09T16:16:30.000Z</time>
      </trkpt>
      <trkpt lat="43.60881" lon="3.87353">
        <ele>38</ele>
        <time>2020-10-09T16:16:31.000Z</time>
      </trkpt>
      <trkpt lat="43.60885" lon="3.87358">
        <ele>38.031936107346</ele>
        <time>2020-10-09T16:16:33.000Z</time>
      </trkpt>
      <trkpt lat="43.60887" lon="3.87362">
        <ele>38.131736442803</ele>
        <time>2020-10-09T16:16:34.000Z</time>
      </trkpt>
      <trkpt lat="43.60891" lon="3.87369">
        <ele>38.331337113717</ele>
        <time>2020-10-09T16:16:36.000Z</time>
      </trkpt>
      <trkpt lat="43.60893" lon="3.87372">
        <ele>38.431137449174</ele>
        <time>2020-10-09T16:16:37.000Z</time>
      </trkpt>
      <trkpt lat="43.60899" lon="3.87382">
        <ele>38.730538455544</ele>
        <time>2020-10-09T16:16:40.000Z</time>
      </trkpt>
      <trkpt lat="43.60903" lon="3.87393">
        <ele>39.030059498235</ele>
        <time>2020-10-09T16:16:43.000Z</time>
      </trkpt>
      <trkpt lat="43.60907" lon="3.87405">
        <ele>39.33066089341</ele>
        <time>2020-10-09T16:16:46.000Z</time>
      </trkpt>
      <trkpt lat="43.60909" lon="3.87409">
        <ele>39.430861358468</ele>
        <time>2020-10-09T16:16:47.000Z</time>
      </trkpt>
      <trkpt lat="43.60915" lon="3.87423">
        <ele>39.831663218702</ele>
        <time>2020-10-09T16:16:51.000Z</time>
      </trkpt>
      <trkpt lat="43.6092" lon="3.87434">
        <ele>40</ele>
        <time>2020-10-09T16:16:54.000Z</time>
      </trkpt>
      <trkpt lat="43.60926" lon="3.87443">
        <ele>40</ele>
        <time>2020-10-09T16:16:57.000Z</time>
      </trkpt>
      <trkpt lat="43.60927" lon="3.87447">
        <ele>40</ele>
        <time>2020-10-09T16:16:58.000Z</time>
      </trkpt>
      <trkpt lat="43.60931" lon="3.87459">
        <ele>40</ele>
        <time>2020-10-09T16:17:01.000Z</time>
      </trkpt>
      <trkpt lat="43.60939" lon="3.87471">
        <ele>40.21792209722</ele>
        <time>2020-10-09T16:17:05.000Z</time>
      </trkpt>
      <trkpt lat="43.60946" lon="3.87484">
        <ele>40.625254338251</ele>
        <time>2020-10-09T16:17:09.000Z</time>
      </trkpt>
      <trkpt lat="43.60952" lon="3.87494">
        <ele>40.930753519025</ele>
        <time>2020-10-09T16:17:12.000Z</time>
      </trkpt>
      <trkpt lat="43.60956" lon="3.87506">
        <ele>41.464</ele>
        <time>2020-10-09T16:17:15.000Z</time>
      </trkpt>
      <trkpt lat="43.60961" lon="3.8752">
        <ele>42.264</ele>
        <time>2020-10-09T16:17:19.000Z</time>
      </trkpt>
      <trkpt lat="43.60962" lon="3.87523">
        <ele>42.464</ele>
        <time>2020-10-09T16:17:20.000Z</time>
      </trkpt>
      <trkpt lat="43.60965" lon="3.87529">
        <ele>42.864</ele>
        <time>2020-10-09T16:17:22.000Z</time>
      </trkpt>
      <trkpt lat="43.60968" lon="3.87535">
        <ele>43.128529658102</ele>
        <time>2020-10-09T16:17:24.000Z</time>
      </trkpt>
      <trkpt lat="43.6097" lon="3.87539">
        <ele>43.225900611209</ele>
        <time>2020-10-09T16:17:25.000Z</time>
      </trkpt>
      <trkpt lat="43.60971" lon="3.87542">
        <ele>43.323271564316</ele>
        <time>2020-10-09T16:17:26.000Z</time>
      </trkpt>
      <trkpt lat="43.60973" lon="3.87546">
        <ele>43.420642517424</ele>
        <time>2020-10-09T16:17:27.000Z</time>
      </trkpt>
      <trkpt lat="43.60974" lon="3.87549">
        <ele>43.518013470531</ele>
        <time>2020-10-09T16:17:28.000Z</time>
      </trkpt>
      <trkpt lat="43.60976" lon="3.87552">
        <ele>43.615384423639</ele>
        <time>2020-10-09T16:17:29.000Z</time>
      </trkpt>
      <trkpt lat="43.60978" lon="3.87556">
        <ele>43.712755376746</ele>
        <time>2020-10-09T16:17:30.000Z</time>
      </trkpt>
      <trkpt lat="43.6098" lon="3.87559">
        <ele>43.810126329854</ele>
        <time>2020-10-09T16:17:31.000Z</time>
      </trkpt>
      <trkpt lat="43.60981" lon="3.87562">
        <ele>43.907497282961</ele>
        <time>2020-10-09T16:17:32.000Z</time>
      </trkpt>
      <trkpt lat="43.60983" lon="3.87565">
        <ele>44.005138418956</ele>
        <time>2020-10-09T16:17:33.000Z</time>
      </trkpt>
      <trkpt lat="43.60985" lon="3.87568">
        <ele>44.107913375676</ele>
        <time>2020-10-09T16:17:34.000Z</time>
      </trkpt>
      <trkpt lat="43.60987" lon="3.87571">
        <ele>44.210688332395</ele>
        <time>2020-10-09T16:17:35.000Z</time>
      </trkpt>
      <trkpt lat="43.60988" lon="3.87574">
        <ele>44.313463289114</ele>
        <time>2020-10-09T16:17:36.000Z</time>
      </trkpt>
      <trkpt lat="43.60989" lon="3.87577">
        <ele>44.416238245834</ele>
        <time>2020-10-09T16:17:37.000Z</time>
      </trkpt>
      <trkpt lat="43.60995" lon="3.87588">
        <ele>45.032</ele>
        <time>2020-10-09T16:17:43.000Z</time>
      </trkpt>
      <trkpt lat="43.61" lon="3.87598">
        <ele>45.532</ele>
        <time>2020-10-09T16:17:48.000Z</time>
      </trkpt>
      <trkpt lat="43.61004" lon="3.8761">
        <ele>45.932</ele>
        <time>2020-10-09T16:17:52.000Z</time>
      </trkpt>
      <trkpt lat="43.61007" lon="3.87615">
        <ele>46.232</ele>
        <time>2020-10-09T16:17:55.000Z</time>
      </trkpt>
      <trkpt lat="43.61008" lon="3.87617">
        <ele>46.332</ele>
        <time>2020-10-09T16:17:56.000Z</time>
      </trkpt>
      <trkpt lat="43.61011" lon="3.87619">
        <ele>46.532</ele>
        <time>2020-10-09T16:17:58.000Z</time>
      </trkpt>
      <trkpt lat="43.61013" lon="3.87621">
        <ele>46.632</ele>
        <time>2020-10-09T16:17:59.000Z</time>
      </trkpt>
      <trkpt lat="43.61021" lon="3.87629">
        <ele>47.064</ele>
        <time>2020-10-09T16:18:03.000Z</time>
      </trkpt>
      <trkpt lat="43.61031" lon="3.87638">
        <ele>47.864</ele>
        <time>2020-10-09T16:18:07.000Z</time>
      </trkpt>
      <trkpt lat="43.6104" lon="3.87649">
        <ele>48.664</ele>
        <time>2020-10-09T16:18:11.000Z</time>
      </trkpt>
      <trkpt lat="43.61047" lon="3.87658">
        <ele>49</ele>
        <time>2020-10-09T16:18:14.000Z</time>
      </trkpt>
      <trkpt lat="43.61055" lon="3.87671">
        <ele>49</ele>
        <time>2020-10-09T16:18:18.000Z</time>
      </trkpt>
      <trkpt lat="43.61057" lon="3.87674">
        <ele>49</ele>
        <time>2020-10-09T16:18:19.000Z</time>
      </trkpt>
      <trkpt lat="43.61059" lon="3.87675">
        <ele>49</ele>
        <time>2020-10-09T16:18:20.000Z</time>
      </trkpt>
      <trkpt lat="43.61062" lon="3.87675">
        <ele>49</ele>
        <time>2020-10-09T16:18:21.000Z</time>
      </trkpt>
      <trkpt lat="43.61064" lon="3.87675">
        <ele>48.968901836782</ele>
        <time>2020-10-09T16:18:23.000Z</time>
      </trkpt>
      <trkpt lat="43.61067" lon="3.87675">
        <ele>48.385811276443</ele>
        <time>2020-10-09T16:18:29.000Z</time>
      </trkpt>
      <trkpt lat="43.6107" lon="3.87679">
        <ele>48.19144775633</ele>
        <time>2020-10-09T16:18:31.000Z</time>
      </trkpt>
      <trkpt lat="43.61072" lon="3.87682">
        <ele>48.094265996273</ele>
        <time>2020-10-09T16:18:32.000Z</time>
      </trkpt>
      <trkpt lat="43.61074" lon="3.87686">
        <ele>48.003089926891</ele>
        <time>2020-10-09T16:18:33.000Z</time>
      </trkpt>
      <trkpt lat="43.61076" lon="3.87689">
        <ele>48.106076504692</ele>
        <time>2020-10-09T16:18:34.000Z</time>
      </trkpt>
      <trkpt lat="43.61079" lon="3.87692">
        <ele>48.209063082492</ele>
        <time>2020-10-09T16:18:35.000Z</time>
      </trkpt>
      <trkpt lat="43.61081" lon="3.87695">
        <ele>48.312049660293</ele>
        <time>2020-10-09T16:18:36.000Z</time>
      </trkpt>
      <trkpt lat="43.61084" lon="3.87698">
        <ele>48.415036238093</ele>
        <time>2020-10-09T16:18:37.000Z</time>
      </trkpt>
      <trkpt lat="43.61087" lon="3.87701">
        <ele>48.518022815894</ele>
        <time>2020-10-09T16:18:38.000Z</time>
      </trkpt>
      <trkpt lat="43.61089" lon="3.87703">
        <ele>48.621009393694</ele>
        <time>2020-10-09T16:18:39.000Z</time>
      </trkpt>
      <trkpt lat="43.61088" lon="3.87707">
        <ele>48.826982549295</ele>
        <time>2020-10-09T16:18:41.000Z</time>
      </trkpt>
      <trkpt lat="43.61086" lon="3.87709">
        <ele>48.929969127096</ele>
        <time>2020-10-09T16:18:42.000Z</time>
      </trkpt>
      <trkpt lat="43.61084" lon="3.87711">
        <ele>49.032</ele>
        <time>2020-10-09T16:18:43.000Z</time>
      </trkpt>
      <trkpt lat="43.61083" lon="3.87725">
        <ele>49.332</ele>
        <time>2020-10-09T16:18:46.000Z</time>
      </trkpt>
      <trkpt lat="43.61084" lon="3.87744">
        <ele>49.632</ele>
        <time>2020-10-09T16:18:49.000Z</time>
      </trkpt>
      <trkpt lat="43.61083" lon="3.87762">
        <ele>49.932</ele>
        <time>2020-10-09T16:18:52.000Z</time>
      </trkpt>
      <trkpt lat="43.61083" lon="3.87776">
        <ele>50.132</ele>
        <time>2020-10-09T16:18:54.000Z</time>
      </trkpt>
      <trkpt lat="43.61082" lon="3.87788">
        <ele>50.632</ele>
        <time>2020-10-09T16:18:59.000Z</time>
      </trkpt>
      <trkpt lat="43.61082" lon="3.87791">
        <ele>50.832</ele>
        <time>2020-10-09T16:19:01.000Z</time>
      </trkpt>
      <trkpt lat="43.61084" lon="3.87793">
        <ele>51</ele>
        <time>2020-10-09T16:19:03.000Z</time>
      </trkpt>
      <trkpt lat="43.61087" lon="3.87797">
        <ele>51</ele>
        <time>2020-10-09T16:19:05.000Z</time>
      </trkpt>
      <trkpt lat="43.61095" lon="3.87807">
        <ele>51</ele>
        <time>2020-10-09T16:19:10.000Z</time>
      </trkpt>
      <trkpt lat="43.61102" lon="3.8782">
        <ele>51</ele>
        <time>2020-10-09T16:19:15.000Z</time>
      </trkpt>
      <trkpt lat="43.6111" lon="3.87829">
        <ele>51</ele>
        <time>2020-10-09T16:19:19.000Z</time>
      </trkpt>
      <trkpt lat="43.61114" lon="3.87841">
        <ele>50.768768522517</ele>
        <time>2020-10-09T16:19:25.000Z</time>
      </trkpt>
      <trkpt lat="43.6112" lon="3.87852">
        <ele>50.1681681143</ele>
        <time>2020-10-09T16:19:31.000Z</time>
      </trkpt>
      <trkpt lat="43.61129" lon="3.87861">
        <ele>50.264</ele>
        <time>2020-10-09T16:19:34.000Z</time>
      </trkpt>
      <trkpt lat="43.61138" lon="3.87868">
        <ele>51.064</ele>
        <time>2020-10-09T16:19:38.000Z</time>
      </trkpt>
      <trkpt lat="43.61147" lon="3.87874">
        <ele>52.132</ele>
        <time>2020-10-09T16:19:44.000Z</time>
      </trkpt>
      <trkpt lat="43.61155" lon="3.87864">
        <ele>52.632</ele>
        <time>2020-10-09T16:19:49.000Z</time>
      </trkpt>
      <trkpt lat="43.61163" lon="3.87852">
        <ele>53</ele>
        <time>2020-10-09T16:19:53.000Z</time>
      </trkpt>
      <trkpt lat="43.61169" lon="3.8784">
        <ele>53.309028148148</ele>
        <time>2020-10-09T16:19:57.000Z</time>
      </trkpt>
      <trkpt lat="43.61176" lon="3.87832">
        <ele>54</ele>
        <time>2020-10-09T16:20:04.000Z</time>
      </trkpt>
      <trkpt lat="43.6118" lon="3.8782">
        <ele>54</ele>
        <time>2020-10-09T16:20:10.000Z</time>
      </trkpt>
      <trkpt lat="43.6118" lon="3.87807">
        <ele>54</ele>
        <time>2020-10-09T16:20:15.000Z</time>
      </trkpt>
      <trkpt lat="43.61173" lon="3.87798">
        <ele>54</ele>
        <time>2020-10-09T16:20:20.000Z</time>
      </trkpt>
      <trkpt lat="43.61165" lon="3.87788">
        <ele>54.132</ele>
        <time>2020-10-09T16:20:24.000Z</time>
      </trkpt>
      <trkpt lat="43.61159" lon="3.87774">
        <ele>54.532</ele>
        <time>2020-10-09T16:20:28.000Z</time>
      </trkpt>
      <trkpt lat="43.61159" lon="3.8777">
        <ele>54.632</ele>
        <time>2020-10-09T16:20:29.000Z</time>
      </trkpt>
      <trkpt lat="43.61159" lon="3.87766">
        <ele>54.732</ele>
        <time>2020-10-09T16:20:30.000Z</time>
      </trkpt>
      <trkpt lat="43.6116" lon="3.87763">
        <ele>54.832</ele>
        <time>2020-10-09T16:20:31.000Z</time>
      </trkpt>
      <trkpt lat="43.61161" lon="3.8776">
        <ele>54.932</ele>
        <time>2020-10-09T16:20:32.000Z</time>
      </trkpt>
      <trkpt lat="43.61162" lon="3.87758">
        <ele>55.532</ele>
        <time>2020-10-09T16:20:38.000Z</time>
      </trkpt>
      <trkpt lat="43.61162" lon="3.87758">
        <ele>56</ele>
        <time>2020-10-09T16:20:44.000Z</time>
      </trkpt>
      <trkpt lat="43.61159" lon="3.87752">
        <ele>60.981854473926</ele>
        <time>2020-10-09T16:21:39.000Z</time>
      </trkpt>
      <trkpt lat="43.61158" lon="3.87752">
        <ele>61</ele>
        <time>2020-10-09T16:21:44.000Z</time>
      </trkpt>
    </trkseg>
  </trk>
</gpx>